<?xml version='1.0' encoding='UTF-8'?><gpx version="1.1" creator="JPX - https://github.com/jenetics/jpx" xmlns="http://www.topografix.com/GPX/1/1"><trk><trkseg><trkpt lat="45.54437688720371" lon="8.229934917353182"><ele>219.0</ele><time>2026-04-11T13:19:46.999Z</time></trkpt><trkpt lat="45.544373769653426" lon="8.229840059920942"><ele>219.0</ele><time>2026-04-11T13:19:50.999Z</time></trkpt><trkpt lat="45.54434688710924" lon="8.229741530807498"><ele>219.0</ele><time>2026-04-11T13:19:54.999Z</time></trkpt><trkpt lat="45.544338109551816" lon="8.229625453855247"><ele>219.0</ele><time>2026-04-11T13:19:57.999Z</time></trkpt><trkpt lat="45.54432746387017" lon="8.229513576170257"><ele>219.0</ele><time>2026-04-11T13:20:00.999Z</time></trkpt><trkpt lat="45.54432946031039" lon="8.229401114695907"><ele>219.0</ele><time>2026-04-11T13:20:03.999Z</time></trkpt><trkpt lat="45.544329575592386" lon="8.22929366739399"><ele>219.0</ele><time>2026-04-11T13:20:06.999Z</time></trkpt><trkpt lat="45.544341579298205" lon="8.229188414305922"><ele>219.0</ele><time>2026-04-11T13:20:09.999Z</time></trkpt><trkpt lat="45.54435492480045" lon="8.229092740446092"><ele>219.0</ele><time>2026-04-11T13:20:12.999Z</time></trkpt><trkpt lat="45.5443777136706" lon="8.229000423129872"><ele>219.0</ele><time>2026-04-11T13:20:15.999Z</time></trkpt><trkpt lat="45.54440199355141" lon="8.228905767084532"><ele>219.0</ele><time>2026-04-11T13:20:18.999Z</time></trkpt><trkpt lat="45.54443890628194" lon="8.228806610829164"><ele>219.0</ele><time>2026-04-11T13:20:22.999Z</time></trkpt><trkpt lat="45.54451239263835" lon="8.228790960244437"><ele>219.0</ele><time>2026-04-11T13:20:27Z</time></trkpt><trkpt lat="45.54459596169294" lon="8.228801528015842"><ele>219.79999999999998</ele><time>2026-04-11T13:20:29Z</time></trkpt><trkpt lat="45.54468255853481" lon="8.228793673682869"><ele>220.59999999999997</ele><time>2026-04-11T13:20:31Z</time></trkpt><trkpt lat="45.54477830848148" lon="8.228781866402574"><ele>221.4</ele><time>2026-04-11T13:20:33Z</time></trkpt><trkpt lat="45.544865625660385" lon="8.228769961777115"><ele>222.2</ele><time>2026-04-11T13:20:35Z</time></trkpt><trkpt lat="45.54495526991309" lon="8.228766183044968"><ele>223.0</ele><time>2026-04-11T13:20:37Z</time></trkpt><trkpt lat="45.54505159770832" lon="8.228751282100086"><ele>223.0</ele><time>2026-04-11T13:20:39Z</time></trkpt><trkpt lat="45.545137449375105" lon="8.228758818332432"><ele>223.0</ele><time>2026-04-11T13:20:41Z</time></trkpt><trkpt lat="45.54523180579307" lon="8.228784027601693"><ele>223.0</ele><time>2026-04-11T13:20:43Z</time></trkpt><trkpt lat="45.54532622078922" lon="8.228830984881071"><ele>223.0</ele><time>2026-04-11T13:20:45Z</time></trkpt><trkpt lat="45.545429435912204" lon="8.228846418545448"><ele>223.0</ele><time>2026-04-11T13:20:47Z</time></trkpt><trkpt lat="45.54554294561968" lon="8.22887059550401"><ele>222.0</ele><time>2026-04-11T13:20:49Z</time></trkpt><trkpt lat="45.54565314407954" lon="8.228893466732726"><ele>221.0</ele><time>2026-04-11T13:20:51Z</time></trkpt><trkpt lat="45.54576337168171" lon="8.228926853421253"><ele>220.0</ele><time>2026-04-11T13:20:53Z</time></trkpt><trkpt lat="45.545879587603544" lon="8.22896410382453"><ele>219.0</ele><time>2026-04-11T13:20:55Z</time></trkpt><trkpt lat="45.54599969632819" lon="8.228997316310178"><ele>218.39999999999998</ele><time>2026-04-11T13:20:57Z</time></trkpt><trkpt lat="45.54606307228491" lon="8.229000897895766"><ele>217.79999999999998</ele><time>2026-04-11T13:20:58Z</time></trkpt><trkpt lat="45.54612533072563" lon="8.229017397358248"><ele>217.20000000000002</ele><time>2026-04-11T13:20:59Z</time></trkpt><trkpt lat="45.546244958241516" lon="8.229074487671895"><ele>216.60000000000002</ele><time>2026-04-11T13:21:01Z</time></trkpt><trkpt lat="45.54635697894206" lon="8.229148540024378"><ele>216.0</ele><time>2026-04-11T13:21:03Z</time></trkpt><trkpt lat="45.54646519751236" lon="8.22923232943658"><ele>216.0</ele><time>2026-04-11T13:21:05Z</time></trkpt><trkpt lat="45.54656552714991" lon="8.229273471770144"><ele>216.00000000000003</ele><time>2026-04-11T13:21:07Z</time></trkpt><trkpt lat="45.54666755023489" lon="8.229254913671875"><ele>216.00000000000003</ele><time>2026-04-11T13:21:09Z</time></trkpt><trkpt lat="45.546774747412506" lon="8.229206209020745"><ele>216.0</ele><time>2026-04-11T13:21:11Z</time></trkpt><trkpt lat="45.546887470341225" lon="8.229207524783087"><ele>216.0</ele><time>2026-04-11T13:21:13Z</time></trkpt><trkpt lat="45.546972605466294" lon="8.229317760177763"><ele>216.0</ele><time>2026-04-11T13:21:15Z</time></trkpt><trkpt lat="45.54700979740175" lon="8.229482571377034"><ele>216.0</ele><time>2026-04-11T13:21:17Z</time></trkpt><trkpt lat="45.54703506326069" lon="8.22965542917655"><ele>216.0</ele><time>2026-04-11T13:21:19Z</time></trkpt><trkpt lat="45.54705555482578" lon="8.229825439610003"><ele>216.0</ele><time>2026-04-11T13:21:21Z</time></trkpt><trkpt lat="45.54709224645333" lon="8.22999406453395"><ele>216.60000000000002</ele><time>2026-04-11T13:21:23Z</time></trkpt><trkpt lat="45.54712398499556" lon="8.230168548772028"><ele>217.20000000000002</ele><time>2026-04-11T13:21:25Z</time></trkpt><trkpt lat="45.547198765672476" lon="8.230295227723815"><ele>217.79999999999998</ele><time>2026-04-11T13:21:27Z</time></trkpt><trkpt lat="45.5472495447685" lon="8.230375304731655"><ele>218.39999999999998</ele><time>2026-04-11T13:21:29Z</time></trkpt><trkpt lat="45.547315839111285" lon="8.23035102342905"><ele>219.0</ele><time>2026-04-11T13:21:38Z</time></trkpt><trkpt lat="45.54731422350225" lon="8.23046727308696"><ele>219.0</ele><time>2026-04-11T13:21:42Z</time></trkpt><trkpt lat="45.547413630620035" lon="8.23054423878593"><ele>218.99999999999997</ele><time>2026-04-11T13:21:44.999Z</time></trkpt><trkpt lat="45.547489711554235" lon="8.230622903416362"><ele>218.99999999999997</ele><time>2026-04-11T13:21:46.999Z</time></trkpt><trkpt lat="45.547567139939645" lon="8.230716902731183"><ele>219.0</ele><time>2026-04-11T13:21:48.999Z</time></trkpt><trkpt lat="45.54762248216348" lon="8.230825188978697"><ele>219.0</ele><time>2026-04-11T13:21:50.999Z</time></trkpt><trkpt lat="45.54766306319498" lon="8.230961967619118"><ele>219.16666666666666</ele><time>2026-04-11T13:21:52.999Z</time></trkpt><trkpt lat="45.547711854738424" lon="8.23108890819106"><ele>219.33333333333331</ele><time>2026-04-11T13:21:54.999Z</time></trkpt><trkpt lat="45.54775863648572" lon="8.231202293222665"><ele>219.5</ele><time>2026-04-11T13:21:56.999Z</time></trkpt><trkpt lat="45.54781483117311" lon="8.231267596720587"><ele>219.66666666666666</ele><time>2026-04-11T13:21:58.999Z</time></trkpt><trkpt lat="45.547880940702875" lon="8.231348542346035"><ele>219.83333333333331</ele><time>2026-04-11T13:22:00.999Z</time></trkpt><trkpt lat="45.54795351584269" lon="8.231418392706164"><ele>220.0</ele><time>2026-04-11T13:22:02.999Z</time></trkpt><trkpt lat="45.548026354071226" lon="8.23144351306501"><ele>220.16666666666666</ele><time>2026-04-11T13:22:04.999Z</time></trkpt><trkpt lat="45.54809460956403" lon="8.231484100410503"><ele>220.33333333333331</ele><time>2026-04-11T13:22:07.999Z</time></trkpt><trkpt lat="45.54815715267111" lon="8.231568450321404"><ele>220.5</ele><time>2026-04-11T13:22:09.999Z</time></trkpt><trkpt lat="45.54824300385228" lon="8.231582256550917"><ele>220.66666666666669</ele><time>2026-04-11T13:22:11.999Z</time></trkpt><trkpt lat="45.54833898558209" lon="8.23160749014758"><ele>220.83333333333334</ele><time>2026-04-11T13:22:13.999Z</time></trkpt><trkpt lat="45.548416266702255" lon="8.231622979804136"><ele>221.0</ele><time>2026-04-11T13:22:15.999Z</time></trkpt><trkpt lat="45.5484989014854" lon="8.231690733016947"><ele>221.0</ele><time>2026-04-11T13:22:17.999Z</time></trkpt><trkpt lat="45.54856543168624" lon="8.23177019719662"><ele>221.00000000000003</ele><time>2026-04-11T13:22:19.999Z</time></trkpt><trkpt lat="45.54863353608714" lon="8.231809291564328"><ele>221.00000000000003</ele><time>2026-04-11T13:22:21.999Z</time></trkpt><trkpt lat="45.548727823872106" lon="8.23186051760277"><ele>221.0</ele><time>2026-04-11T13:22:23.999Z</time></trkpt><trkpt lat="45.54881838351584" lon="8.23192093305476"><ele>221.0</ele><time>2026-04-11T13:22:25.999Z</time></trkpt><trkpt lat="45.54889254517372" lon="8.232026998667113"><ele>221.4</ele><time>2026-04-11T13:22:27.999Z</time></trkpt><trkpt lat="45.54898206239113" lon="8.232115597034792"><ele>221.8</ele><time>2026-04-11T13:22:29.999Z</time></trkpt><trkpt lat="45.54904372911485" lon="8.23222594166553"><ele>222.20000000000002</ele><time>2026-04-11T13:22:31.999Z</time></trkpt><trkpt lat="45.54909407155299" lon="8.232329515142876"><ele>222.60000000000002</ele><time>2026-04-11T13:22:34Z</time></trkpt><trkpt lat="45.54913709279395" lon="8.232425595619354"><ele>223.0</ele><time>2026-04-11T13:22:36Z</time></trkpt><trkpt lat="45.549178054561004" lon="8.23252304170141"><ele>223.0</ele><time>2026-04-11T13:22:40Z</time></trkpt><trkpt lat="45.54921323578435" lon="8.23260090669326"><ele>223.0</ele><time>2026-04-11T13:22:42Z</time></trkpt><trkpt lat="45.54923213227891" lon="8.232687748524151"><ele>223.0</ele><time>2026-04-11T13:22:44Z</time></trkpt><trkpt lat="45.54927685973086" lon="8.23278553026171"><ele>223.0</ele><time>2026-04-11T13:22:46Z</time></trkpt><trkpt lat="45.549323173734756" lon="8.232850165031142"><ele>223.0</ele><time>2026-04-11T13:22:48Z</time></trkpt><trkpt lat="45.549375783688355" lon="8.232904724354684"><ele>223.0</ele><time>2026-04-11T13:22:51Z</time></trkpt><trkpt lat="45.549420057022814" lon="8.232974035445118"><ele>223.0</ele><time>2026-04-11T13:22:54Z</time></trkpt><trkpt lat="45.54947117781651" lon="8.233045913457985"><ele>222.99999999999997</ele><time>2026-04-11T13:22:58Z</time></trkpt><trkpt lat="45.54953963775205" lon="8.233097212040315"><ele>223.0</ele><time>2026-04-11T13:23:01Z</time></trkpt><trkpt lat="45.549597120711404" lon="8.233141848041036"><ele>223.0</ele><time>2026-04-11T13:23:04Z</time></trkpt><trkpt lat="45.549667720958524" lon="8.23315901754463"><ele>223.0</ele><time>2026-04-11T13:23:06Z</time></trkpt><trkpt lat="45.549735186135216" lon="8.2332057091853"><ele>222.99999999999997</ele><time>2026-04-11T13:23:08Z</time></trkpt><trkpt lat="45.549793838573876" lon="8.233282567155719"><ele>223.0</ele><time>2026-04-11T13:23:10Z</time></trkpt><trkpt lat="45.549824817561564" lon="8.233413687607172"><ele>223.49999999999997</ele><time>2026-04-11T13:23:12Z</time></trkpt><trkpt lat="45.549866493267096" lon="8.233519555049988"><ele>224.0</ele><time>2026-04-11T13:23:14Z</time></trkpt><trkpt lat="45.549899020789475" lon="8.23361204191703"><ele>224.5</ele><time>2026-04-11T13:23:17Z</time></trkpt><trkpt lat="45.54986417080263" lon="8.233693268533724"><ele>225.0</ele><time>2026-04-11T13:23:22Z</time></trkpt><trkpt lat="45.54977742173498" lon="8.233703921596005"><ele>225.49999999999997</ele><time>2026-04-11T13:23:48Z</time></trkpt><trkpt lat="45.549714255406606" lon="8.23373867177466"><ele>226.0</ele><time>2026-04-11T13:23:50Z</time></trkpt><trkpt lat="45.54965647006806" lon="8.233797469216086"><ele>225.99999999999997</ele><time>2026-04-11T13:23:53Z</time></trkpt><trkpt lat="45.549602525574755" lon="8.23385760252679"><ele>226.0</ele><time>2026-04-11T13:23:55Z</time></trkpt><trkpt lat="45.54952406566166" lon="8.233946530847577"><ele>226.0</ele><time>2026-04-11T13:23:57Z</time></trkpt><trkpt lat="45.54944400226115" lon="8.233940080686251"><ele>226.0</ele><time>2026-04-11T13:23:59Z</time></trkpt><trkpt lat="45.54938395535406" lon="8.233875313074693"><ele>225.99999999999997</ele><time>2026-04-11T13:24:01Z</time></trkpt><trkpt lat="45.54944399833957" lon="8.233941460472478"><ele>226.0</ele><time>2026-04-11T13:24:30.999Z</time></trkpt><trkpt lat="45.54951077327359" lon="8.233932379824102"><ele>226.0</ele><time>2026-04-11T13:24:33.999Z</time></trkpt><trkpt lat="45.549589619506555" lon="8.233894719601697"><ele>226.00000000000003</ele><time>2026-04-11T13:24:53Z</time></trkpt><trkpt lat="45.549655793171254" lon="8.233803256682096"><ele>226.00000000000003</ele><time>2026-04-11T13:24:56Z</time></trkpt><trkpt lat="45.54973898514043" lon="8.233734237748994"><ele>226.0</ele><time>2026-04-11T13:24:59Z</time></trkpt><trkpt lat="45.54983904348311" lon="8.233684881710186"><ele>226.0</ele><time>2026-04-11T13:25:02Z</time></trkpt><trkpt lat="45.54992835431164" lon="8.233704270786898"><ele>225.99999999999997</ele><time>2026-04-11T13:25:04Z</time></trkpt><trkpt lat="45.55000694755428" lon="8.233761647612793"><ele>226.0</ele><time>2026-04-11T13:25:06Z</time></trkpt><trkpt lat="45.550074526281925" lon="8.233827840647313"><ele>226.0</ele><time>2026-04-11T13:25:08Z</time></trkpt><trkpt lat="45.55014023812275" lon="8.233875962007671"><ele>226.0</ele><time>2026-04-11T13:25:17Z</time></trkpt><trkpt lat="45.55021962736548" lon="8.233868387979788"><ele>225.99999999999997</ele><time>2026-04-11T13:25:19Z</time></trkpt><trkpt lat="45.5503138399131" lon="8.233844228558711"><ele>226.0</ele><time>2026-04-11T13:25:21Z</time></trkpt><trkpt lat="45.5504068834635" lon="8.233781624684967"><ele>225.5</ele><time>2026-04-11T13:25:23Z</time></trkpt><trkpt lat="45.55050724368938" lon="8.23370325304247"><ele>225.0</ele><time>2026-04-11T13:25:25Z</time></trkpt><trkpt lat="45.55061815694671" lon="8.23363794429726"><ele>224.5</ele><time>2026-04-11T13:25:27Z</time></trkpt><trkpt lat="45.55073635804259" lon="8.233589960208713"><ele>224.0</ele><time>2026-04-11T13:25:29Z</time></trkpt><trkpt lat="45.55085768331326" lon="8.233526474776635"><ele>224.0</ele><time>2026-04-11T13:25:31Z</time></trkpt><trkpt lat="45.55091870989014" lon="8.233482218681855"><ele>224.0</ele><time>2026-04-11T13:25:32Z</time></trkpt><trkpt lat="45.55097522307323" lon="8.233430472326951"><ele>224.0</ele><time>2026-04-11T13:25:33Z</time></trkpt><trkpt lat="45.551033792052785" lon="8.233383608040064"><ele>224.0</ele><time>2026-04-11T13:25:34Z</time></trkpt><trkpt lat="45.55109532337451" lon="8.233332907490626"><ele>224.0</ele><time>2026-04-11T13:25:35Z</time></trkpt><trkpt lat="45.55115210321946" lon="8.233277159185517"><ele>224.0</ele><time>2026-04-11T13:25:36Z</time></trkpt><trkpt lat="45.55120151461377" lon="8.233220291267974"><ele>224.0</ele><time>2026-04-11T13:25:37Z</time></trkpt><trkpt lat="45.5512377630221" lon="8.233144738819378"><ele>223.2</ele><time>2026-04-11T13:25:38Z</time></trkpt><trkpt lat="45.55127718014072" lon="8.232972254482824"><ele>222.39999999999998</ele><time>2026-04-11T13:25:40Z</time></trkpt><trkpt lat="45.551308925521425" lon="8.232800551120093"><ele>221.6</ele><time>2026-04-11T13:25:42Z</time></trkpt><trkpt lat="45.55134617223127" lon="8.232628808237669"><ele>220.8</ele><time>2026-04-11T13:25:44Z</time></trkpt><trkpt lat="45.55136477140891" lon="8.232541017004882"><ele>220.0</ele><time>2026-04-11T13:25:45Z</time></trkpt><trkpt lat="45.5513794701529" lon="8.23245247038055"><ele>219.99999999999997</ele><time>2026-04-11T13:25:46Z</time></trkpt><trkpt lat="45.551392572466945" lon="8.232363135932241"><ele>220.0</ele><time>2026-04-11T13:25:47Z</time></trkpt><trkpt lat="45.551409481254424" lon="8.232274871953733"><ele>220.0</ele><time>2026-04-11T13:25:48Z</time></trkpt><trkpt lat="45.55143367323448" lon="8.232190738903025"><ele>220.0</ele><time>2026-04-11T13:25:49Z</time></trkpt><trkpt lat="45.55147602800458" lon="8.23205230811711"><ele>220.0</ele><time>2026-04-11T13:25:51Z</time></trkpt><trkpt lat="45.55154124842577" lon="8.232029215858"><ele>219.99999999999997</ele><time>2026-04-11T13:25:54Z</time></trkpt><trkpt lat="45.55160666527796" lon="8.232082036503467"><ele>220.0</ele><time>2026-04-11T13:25:56Z</time></trkpt><trkpt lat="45.55169041422667" lon="8.232173696459581"><ele>220.8</ele><time>2026-04-11T13:25:58Z</time></trkpt><trkpt lat="45.55178035696819" lon="8.23224941888708"><ele>221.6</ele><time>2026-04-11T13:26:00Z</time></trkpt><trkpt lat="45.55185784558652" lon="8.232261256999644"><ele>222.39999999999998</ele><time>2026-04-11T13:26:03Z</time></trkpt><trkpt lat="45.55192725878752" lon="8.232202517069771"><ele>223.2</ele><time>2026-04-11T13:26:07Z</time></trkpt><trkpt lat="45.55196432917833" lon="8.232039480922337"><ele>224.0</ele><time>2026-04-11T13:26:09Z</time></trkpt><trkpt lat="45.552057939097" lon="8.2319020812531"><ele>224.50000000000003</ele><time>2026-04-11T13:26:11Z</time></trkpt><trkpt lat="45.55211537910386" lon="8.231848450203728"><ele>225.0</ele><time>2026-04-11T13:26:12Z</time></trkpt><trkpt lat="45.55217313622429" lon="8.231803977100986"><ele>225.5</ele><time>2026-04-11T13:26:13Z</time></trkpt><trkpt lat="45.55228806809068" lon="8.231756966012654"><ele>226.0</ele><time>2026-04-11T13:26:15Z</time></trkpt><trkpt lat="45.55241621694785" lon="8.231775768787676"><ele>226.50000000000003</ele><time>2026-04-11T13:26:17Z</time></trkpt><trkpt lat="45.55247595805147" lon="8.231809561133893"><ele>227.0</ele><time>2026-04-11T13:26:18Z</time></trkpt><trkpt lat="45.55253648769615" lon="8.231857463640507"><ele>227.0</ele><time>2026-04-11T13:26:18.999Z</time></trkpt><trkpt lat="45.552650999496805" lon="8.231923144061442"><ele>227.0</ele><time>2026-04-11T13:26:20.999Z</time></trkpt><trkpt lat="45.55270791711152" lon="8.231977804606679"><ele>227.0</ele><time>2026-04-11T13:26:21.999Z</time></trkpt><trkpt lat="45.55276929863488" lon="8.232026946996562"><ele>227.0</ele><time>2026-04-11T13:26:22.999Z</time></trkpt><trkpt lat="45.552827681926644" lon="8.232071660828447"><ele>227.0</ele><time>2026-04-11T13:26:23.999Z</time></trkpt><trkpt lat="45.55294526888229" lon="8.232122739191768"><ele>228.2</ele><time>2026-04-11T13:26:25.999Z</time></trkpt><trkpt lat="45.55306097447323" lon="8.232074322043163"><ele>229.39999999999998</ele><time>2026-04-11T13:26:27.999Z</time></trkpt><trkpt lat="45.55315622822521" lon="8.231970951755807"><ele>230.60000000000002</ele><time>2026-04-11T13:26:29.999Z</time></trkpt><trkpt lat="45.55326397580559" lon="8.231897665550221"><ele>231.8</ele><time>2026-04-11T13:26:31.999Z</time></trkpt><trkpt lat="45.5533273349998" lon="8.231882428133309"><ele>233.0</ele><time>2026-04-11T13:26:32.999Z</time></trkpt><trkpt lat="45.553390332374256" lon="8.231873974103106"><ele>233.00000000000003</ele><time>2026-04-11T13:26:33.999Z</time></trkpt><trkpt lat="45.5534524254826" lon="8.231849430662894"><ele>233.0</ele><time>2026-04-11T13:26:34.999Z</time></trkpt><trkpt lat="45.55351550657762" lon="8.231831232815571"><ele>233.0</ele><time>2026-04-11T13:26:35.999Z</time></trkpt><trkpt lat="45.55363768780488" lon="8.231789253260919"><ele>233.0</ele><time>2026-04-11T13:26:37.999Z</time></trkpt><trkpt lat="45.55375422398654" lon="8.231734363179195"><ele>233.00000000000003</ele><time>2026-04-11T13:26:39.999Z</time></trkpt><trkpt lat="45.55381359939878" lon="8.231691829892759"><ele>233.0</ele><time>2026-04-11T13:26:40.999Z</time></trkpt><trkpt lat="45.553922764293624" lon="8.23159397939264"><ele>233.83333333333334</ele><time>2026-04-11T13:26:42.999Z</time></trkpt><trkpt lat="45.55397617537367" lon="8.23153537803919"><ele>234.66666666666669</ele><time>2026-04-11T13:26:43.999Z</time></trkpt><trkpt lat="45.55402756689802" lon="8.231481047734137"><ele>235.5</ele><time>2026-04-11T13:26:45Z</time></trkpt><trkpt lat="45.554084876582586" lon="8.231433680876698"><ele>236.33333333333331</ele><time>2026-04-11T13:26:46.001Z</time></trkpt><trkpt lat="45.55416285978248" lon="8.231314772951233"><ele>237.16666666666666</ele><time>2026-04-11T13:26:48Z</time></trkpt><trkpt lat="45.55418714380037" lon="8.231165723458842"><ele>238.0</ele><time>2026-04-11T13:26:50Z</time></trkpt><trkpt lat="45.55419222711807" lon="8.23102440757338"><ele>238.4</ele><time>2026-04-11T13:26:52Z</time></trkpt><trkpt lat="45.554237840571204" lon="8.23087341418857"><ele>238.8</ele><time>2026-04-11T13:26:54Z</time></trkpt><trkpt lat="45.554290977558345" lon="8.230728129911801"><ele>239.2</ele><time>2026-04-11T13:26:56Z</time></trkpt><trkpt lat="45.55431563894465" lon="8.230638846895014"><ele>239.6</ele><time>2026-04-11T13:26:57Z</time></trkpt><trkpt lat="45.554363510440524" lon="8.230471589978753"><ele>240.0</ele><time>2026-04-11T13:26:59Z</time></trkpt><trkpt lat="45.55439077527163" lon="8.23038183619096"><ele>240.0</ele><time>2026-04-11T13:27:00Z</time></trkpt><trkpt lat="45.55441954262197" lon="8.230297556229141"><ele>240.0</ele><time>2026-04-11T13:27:01Z</time></trkpt><trkpt lat="45.55444708787741" lon="8.230208860928194"><ele>240.0</ele><time>2026-04-11T13:27:02Z</time></trkpt><trkpt lat="45.554470161877155" lon="8.230123055959895"><ele>240.0</ele><time>2026-04-11T13:27:03Z</time></trkpt><trkpt lat="45.55449296105832" lon="8.230037024621284"><ele>240.0</ele><time>2026-04-11T13:27:04Z</time></trkpt><trkpt lat="45.554525471505656" lon="8.229959351605045"><ele>240.0</ele><time>2026-04-11T13:27:05Z</time></trkpt><trkpt lat="45.55458475351249" lon="8.229799179233462"><ele>240.0</ele><time>2026-04-11T13:27:07Z</time></trkpt><trkpt lat="45.55457239103727" lon="8.229629811397313"><ele>240.0</ele><time>2026-04-11T13:27:09Z</time></trkpt><trkpt lat="45.55452762381515" lon="8.229563200315596"><ele>240.0</ele><time>2026-04-11T13:27:10Z</time></trkpt><trkpt lat="45.55447592108394" lon="8.229506302124195"><ele>240.0</ele><time>2026-04-11T13:27:11Z</time></trkpt><trkpt lat="45.55442807675907" lon="8.229444330775184"><ele>240.0</ele><time>2026-04-11T13:27:12Z</time></trkpt><trkpt lat="45.55441506183726" lon="8.229324990657219"><ele>240.0</ele><time>2026-04-11T13:27:13Z</time></trkpt><trkpt lat="45.554398886064014" lon="8.229185111551345"><ele>239.71428571428572</ele><time>2026-04-11T13:27:15Z</time></trkpt><trkpt lat="45.554416021187805" lon="8.22909546084637"><ele>239.42857142857142</ele><time>2026-04-11T13:27:16Z</time></trkpt><trkpt lat="45.55441763277805" lon="8.228994331698264"><ele>239.14285714285714</ele><time>2026-04-11T13:27:17Z</time></trkpt><trkpt lat="45.55444932730467" lon="8.228903907128673"><ele>238.85714285714286</ele><time>2026-04-11T13:27:18Z</time></trkpt><trkpt lat="45.5544670147887" lon="8.22880609795314"><ele>238.57142857142856</ele><time>2026-04-11T13:27:19Z</time></trkpt><trkpt lat="45.55448457340615" lon="8.228707493240012"><ele>238.28571428571428</ele><time>2026-04-11T13:27:20Z</time></trkpt><trkpt lat="45.554501536493106" lon="8.228611191776181"><ele>238.0</ele><time>2026-04-11T13:27:21Z</time></trkpt><trkpt lat="45.55451867785638" lon="8.228514572277364"><ele>238.66666666666666</ele><time>2026-04-11T13:27:22Z</time></trkpt><trkpt lat="45.55453564311218" lon="8.228417744124027"><ele>239.33333333333331</ele><time>2026-04-11T13:27:23Z</time></trkpt><trkpt lat="45.554550158636815" lon="8.228326304696157"><ele>240.0</ele><time>2026-04-11T13:27:24Z</time></trkpt><trkpt lat="45.55456477741134" lon="8.228234215426184"><ele>240.66666666666669</ele><time>2026-04-11T13:27:25Z</time></trkpt><trkpt lat="45.5545795185158" lon="8.228141355496852"><ele>241.33333333333334</ele><time>2026-04-11T13:27:26Z</time></trkpt><trkpt lat="45.55459371762955" lon="8.22805190960125"><ele>242.0</ele><time>2026-04-11T13:27:27Z</time></trkpt><trkpt lat="45.554623397131444" lon="8.227885210931014"><ele>243.66666666666669</ele><time>2026-04-11T13:27:29Z</time></trkpt><trkpt lat="45.55466267571768" lon="8.227805007494606"><ele>245.33333333333334</ele><time>2026-04-11T13:27:38Z</time></trkpt><trkpt lat="45.554743422849505" lon="8.227870853811735"><ele>247.0</ele><time>2026-04-11T13:27:42Z</time></trkpt><trkpt lat="45.55480715711688" lon="8.227942506984371"><ele>248.66666666666669</ele><time>2026-04-11T13:27:44Z</time></trkpt><trkpt lat="45.55490109780352" lon="8.228027411813141"><ele>250.33333333333334</ele><time>2026-04-11T13:27:46Z</time></trkpt><trkpt lat="45.554955478103274" lon="8.228075155979974"><ele>252.0</ele><time>2026-04-11T13:27:47Z</time></trkpt><trkpt lat="45.55501231800932" lon="8.228127626574974"><ele>251.16666666666666</ele><time>2026-04-11T13:27:48Z</time></trkpt><trkpt lat="45.55507137303371" lon="8.228185168789235"><ele>250.33333333333331</ele><time>2026-04-11T13:27:49Z</time></trkpt><trkpt lat="45.555133476292895" lon="8.22824693275691"><ele>249.5</ele><time>2026-04-11T13:27:50Z</time></trkpt><trkpt lat="45.55519825145504" lon="8.228313229234763"><ele>248.66666666666666</ele><time>2026-04-11T13:27:51Z</time></trkpt><trkpt lat="45.55526632324084" lon="8.228380043168904"><ele>247.83333333333331</ele><time>2026-04-11T13:27:52Z</time></trkpt><trkpt lat="45.55533501583172" lon="8.228448445460566"><ele>247.0</ele><time>2026-04-11T13:27:53Z</time></trkpt><trkpt lat="45.55540651811196" lon="8.228519056701105"><ele>247.0</ele><time>2026-04-11T13:27:54Z</time></trkpt><trkpt lat="45.55548150057452" lon="8.228591453476277"><ele>247.0</ele><time>2026-04-11T13:27:55Z</time></trkpt><trkpt lat="45.55555769898957" lon="8.228666423569996"><ele>247.0</ele><time>2026-04-11T13:27:56Z</time></trkpt><trkpt lat="45.55563477908018" lon="8.228745257148907"><ele>247.0</ele><time>2026-04-11T13:27:57Z</time></trkpt><trkpt lat="45.5557139149035" lon="8.228823706643526"><ele>247.0</ele><time>2026-04-11T13:27:58Z</time></trkpt><trkpt lat="45.555795447448276" lon="8.22890517321297"><ele>246.2</ele><time>2026-04-11T13:27:59Z</time></trkpt><trkpt lat="45.555879853965756" lon="8.228987049502937"><ele>245.39999999999998</ele><time>2026-04-11T13:28:00Z</time></trkpt><trkpt lat="45.555963652690394" lon="8.229069284518692"><ele>244.60000000000002</ele><time>2026-04-11T13:28:01Z</time></trkpt><trkpt lat="45.55604975804437" lon="8.22915017223603"><ele>243.8</ele><time>2026-04-11T13:28:02Z</time></trkpt><trkpt lat="45.55613513483564" lon="8.22923488200347"><ele>243.0</ele><time>2026-04-11T13:28:03Z</time></trkpt><trkpt lat="45.55622093810111" lon="8.229317612902943"><ele>243.0</ele><time>2026-04-11T13:28:04Z</time></trkpt><trkpt lat="45.55630490242872" lon="8.22939784972116"><ele>243.0</ele><time>2026-04-11T13:28:05Z</time></trkpt><trkpt lat="45.556386964164595" lon="8.229477246468454"><ele>243.0</ele><time>2026-04-11T13:28:06Z</time></trkpt><trkpt lat="45.556470277523566" lon="8.229562546362004"><ele>243.0</ele><time>2026-04-11T13:28:07Z</time></trkpt><trkpt lat="45.556557233059245" lon="8.229643566867274"><ele>243.0</ele><time>2026-04-11T13:28:08Z</time></trkpt><trkpt lat="45.55664928161521" lon="8.229712821314273"><ele>243.0</ele><time>2026-04-11T13:28:09Z</time></trkpt><trkpt lat="45.556743585823604" lon="8.229780684051823"><ele>243.0</ele><time>2026-04-11T13:28:10Z</time></trkpt><trkpt lat="45.5568372275768" lon="8.22985166313941"><ele>243.0</ele><time>2026-04-11T13:28:11Z</time></trkpt><trkpt lat="45.556933418362235" lon="8.229923386442291"><ele>243.0</ele><time>2026-04-11T13:28:12Z</time></trkpt><trkpt lat="45.55703026652638" lon="8.229996997087714"><ele>243.0</ele><time>2026-04-11T13:28:13Z</time></trkpt><trkpt lat="45.55713194439439" lon="8.230068051191342"><ele>240.25</ele><time>2026-04-11T13:28:13.999Z</time></trkpt><trkpt lat="45.55723256046718" lon="8.230151502286779"><ele>237.5</ele><time>2026-04-11T13:28:14.999Z</time></trkpt><trkpt lat="45.557337729434344" lon="8.230233027453972"><ele>234.75</ele><time>2026-04-11T13:28:15.999Z</time></trkpt><trkpt lat="45.55744764614368" lon="8.230315519805549"><ele>232.0</ele><time>2026-04-11T13:28:16.999Z</time></trkpt><trkpt lat="45.55756067391408" lon="8.230398475194836"><ele>232.0</ele><time>2026-04-11T13:28:17.999Z</time></trkpt><trkpt lat="45.55767358677597" lon="8.230485145832116"><ele>232.0</ele><time>2026-04-11T13:28:18.999Z</time></trkpt><trkpt lat="45.55778669419924" lon="8.230572746853486"><ele>232.0</ele><time>2026-04-11T13:28:19.999Z</time></trkpt><trkpt lat="45.55789904094012" lon="8.230655893769425"><ele>232.0</ele><time>2026-04-11T13:28:20.999Z</time></trkpt><trkpt lat="45.55801005653772" lon="8.230737377859931"><ele>233.0</ele><time>2026-04-11T13:28:21.999Z</time></trkpt><trkpt lat="45.55811370950611" lon="8.230818610455483"><ele>234.0</ele><time>2026-04-11T13:28:22.999Z</time></trkpt><trkpt lat="45.558216052429174" lon="8.230897232663752"><ele>235.0</ele><time>2026-04-11T13:28:23.999Z</time></trkpt><trkpt lat="45.55831701798885" lon="8.230971357858339"><ele>236.0</ele><time>2026-04-11T13:28:24.999Z</time></trkpt><trkpt lat="45.55841787514457" lon="8.231047812836518"><ele>236.0</ele><time>2026-04-11T13:28:25.999Z</time></trkpt><trkpt lat="45.558518784466784" lon="8.231113600594796"><ele>236.00000000000003</ele><time>2026-04-11T13:28:26.999Z</time></trkpt><trkpt lat="45.55862076894698" lon="8.231164813430615"><ele>236.00000000000003</ele><time>2026-04-11T13:28:27.999Z</time></trkpt><trkpt lat="45.55872641636623" lon="8.231199821813037"><ele>236.0</ele><time>2026-04-11T13:28:28.999Z</time></trkpt><trkpt lat="45.55883168659627" lon="8.23120808556961"><ele>236.0</ele><time>2026-04-11T13:28:29.999Z</time></trkpt><trkpt lat="45.55893446070442" lon="8.231191519209034"><ele>237.0</ele><time>2026-04-11T13:28:30.999Z</time></trkpt><trkpt lat="45.559034604321646" lon="8.231153535244584"><ele>238.00000000000003</ele><time>2026-04-11T13:28:31.999Z</time></trkpt><trkpt lat="45.559134538070076" lon="8.23109974119809"><ele>239.00000000000003</ele><time>2026-04-11T13:28:32.999Z</time></trkpt><trkpt lat="45.55923292560646" lon="8.231048427950638"><ele>240.0</ele><time>2026-04-11T13:28:33.999Z</time></trkpt><trkpt lat="45.559331771829704" lon="8.230995487703085"><ele>241.0</ele><time>2026-04-11T13:28:34.999Z</time></trkpt><trkpt lat="45.5594314236512" lon="8.23094316620486"><ele>241.0</ele><time>2026-04-11T13:28:35.999Z</time></trkpt><trkpt lat="45.55953274027451" lon="8.230895464916912"><ele>241.00000000000003</ele><time>2026-04-11T13:28:36.999Z</time></trkpt><trkpt lat="45.55963440366432" lon="8.230852063541022"><ele>241.00000000000003</ele><time>2026-04-11T13:28:37.999Z</time></trkpt><trkpt lat="45.55973767213129" lon="8.230813038375006"><ele>241.0</ele><time>2026-04-11T13:28:38.999Z</time></trkpt><trkpt lat="45.55984196315557" lon="8.230778774095317"><ele>241.0</ele><time>2026-04-11T13:28:39.999Z</time></trkpt><trkpt lat="45.55994535842014" lon="8.23073985101558"><ele>239.4</ele><time>2026-04-11T13:28:40.999Z</time></trkpt><trkpt lat="45.56004882145634" lon="8.230704732357353"><ele>237.8</ele><time>2026-04-11T13:28:41.999Z</time></trkpt><trkpt lat="45.560149294204614" lon="8.230671359221537"><ele>236.20000000000002</ele><time>2026-04-11T13:28:42.999Z</time></trkpt><trkpt lat="45.560248043066444" lon="8.23063738537258"><ele>234.60000000000002</ele><time>2026-04-11T13:28:43.999Z</time></trkpt><trkpt lat="45.5603442101397" lon="8.230606963542096"><ele>233.0</ele><time>2026-04-11T13:28:44.999Z</time></trkpt><trkpt lat="45.56043845175169" lon="8.230577155498127"><ele>237.2</ele><time>2026-04-11T13:28:45.999Z</time></trkpt><trkpt lat="45.560530914146945" lon="8.230548011670441"><ele>241.4</ele><time>2026-04-11T13:28:46.999Z</time></trkpt><trkpt lat="45.56062216483988" lon="8.230516422174553"><ele>245.59999999999997</ele><time>2026-04-11T13:28:47.999Z</time></trkpt><trkpt lat="45.5607115997569" lon="8.230484040632021"><ele>249.79999999999998</ele><time>2026-04-11T13:28:48.999Z</time></trkpt><trkpt lat="45.56080006402206" lon="8.230451215467792"><ele>254.0</ele><time>2026-04-11T13:28:49.999Z</time></trkpt><trkpt lat="45.56089044978553" lon="8.230419296196272"><ele>254.0</ele><time>2026-04-11T13:28:51Z</time></trkpt><trkpt lat="45.56098293773893" lon="8.230386450707142"><ele>253.99999999999997</ele><time>2026-04-11T13:28:52Z</time></trkpt><trkpt lat="45.561076651488754" lon="8.23035404869767"><ele>253.99999999999997</ele><time>2026-04-11T13:28:53Z</time></trkpt><trkpt lat="45.56117203665658" lon="8.230325286988732"><ele>254.0</ele><time>2026-04-11T13:28:54Z</time></trkpt><trkpt lat="45.561267911779844" lon="8.230291752907416"><ele>254.0</ele><time>2026-04-11T13:28:55Z</time></trkpt><trkpt lat="45.56136330312475" lon="8.230255657728746"><ele>253.6</ele><time>2026-04-11T13:28:56Z</time></trkpt><trkpt lat="45.5614593428224" lon="8.230221697150016"><ele>253.2</ele><time>2026-04-11T13:28:57Z</time></trkpt><trkpt lat="45.561557192314" lon="8.23018782700767"><ele>252.79999999999998</ele><time>2026-04-11T13:28:58Z</time></trkpt><trkpt lat="45.56165676757414" lon="8.230155016933352"><ele>252.39999999999998</ele><time>2026-04-11T13:28:59Z</time></trkpt><trkpt lat="45.561757134265825" lon="8.230122268987964"><ele>252.0</ele><time>2026-04-11T13:29:00Z</time></trkpt><trkpt lat="45.561858047142586" lon="8.230091704755957"><ele>252.0</ele><time>2026-04-11T13:29:01Z</time></trkpt><trkpt lat="45.561961194587646" lon="8.230068295770106"><ele>252.0</ele><time>2026-04-11T13:29:02Z</time></trkpt><trkpt lat="45.56206302289371" lon="8.230055979223906"><ele>252.0</ele><time>2026-04-11T13:29:03Z</time></trkpt><trkpt lat="45.56216346728438" lon="8.230053814940682"><ele>252.0</ele><time>2026-04-11T13:29:04Z</time></trkpt><trkpt lat="45.56226330991359" lon="8.230058678864436"><ele>252.0</ele><time>2026-04-11T13:29:05Z</time></trkpt><trkpt lat="45.56236422517752" lon="8.230066696800383"><ele>251.2</ele><time>2026-04-11T13:29:06Z</time></trkpt><trkpt lat="45.562465883576046" lon="8.230076044194782"><ele>250.39999999999998</ele><time>2026-04-11T13:29:07Z</time></trkpt><trkpt lat="45.562568641395835" lon="8.230082413267722"><ele>249.60000000000002</ele><time>2026-04-11T13:29:08Z</time></trkpt><trkpt lat="45.562673759734366" lon="8.230088751269948"><ele>248.8</ele><time>2026-04-11T13:29:09Z</time></trkpt><trkpt lat="45.56277965989081" lon="8.230097602864733"><ele>248.0</ele><time>2026-04-11T13:29:10Z</time></trkpt><trkpt lat="45.562884264226476" lon="8.230106576283461"><ele>247.8</ele><time>2026-04-11T13:29:11Z</time></trkpt><trkpt lat="45.56298141990426" lon="8.230112628957134"><ele>247.60000000000002</ele><time>2026-04-11T13:29:12Z</time></trkpt><trkpt lat="45.56307672393225" lon="8.230095070727888"><ele>247.39999999999998</ele><time>2026-04-11T13:29:13Z</time></trkpt><trkpt lat="45.56316758442293" lon="8.230049935223306"><ele>247.2</ele><time>2026-04-11T13:29:14Z</time></trkpt><trkpt lat="45.56324653013113" lon="8.229975030346294"><ele>247.0</ele><time>2026-04-11T13:29:15Z</time></trkpt><trkpt lat="45.56332892986998" lon="8.229903705908448"><ele>247.0</ele><time>2026-04-11T13:29:16Z</time></trkpt><trkpt lat="45.56341483145477" lon="8.229834443561883"><ele>247.0</ele><time>2026-04-11T13:29:17Z</time></trkpt><trkpt lat="45.56349878503697" lon="8.229764647269873"><ele>247.0</ele><time>2026-04-11T13:29:18Z</time></trkpt><trkpt lat="45.56358193617379" lon="8.229694830307608"><ele>247.0</ele><time>2026-04-11T13:29:19Z</time></trkpt><trkpt lat="45.563665682148205" lon="8.229625263672528"><ele>247.0</ele><time>2026-04-11T13:29:20Z</time></trkpt><trkpt lat="45.56375000218535" lon="8.229556080229619"><ele>247.39999999999998</ele><time>2026-04-11T13:29:21Z</time></trkpt><trkpt lat="45.56383457517691" lon="8.229486779313222"><ele>247.79999999999998</ele><time>2026-04-11T13:29:22Z</time></trkpt><trkpt lat="45.56391934502033" lon="8.229420220424903"><ele>248.2</ele><time>2026-04-11T13:29:23Z</time></trkpt><trkpt lat="45.56400326506811" lon="8.229351235186071"><ele>248.6</ele><time>2026-04-11T13:29:24Z</time></trkpt><trkpt lat="45.56408542900054" lon="8.229283142298438"><ele>249.0</ele><time>2026-04-11T13:29:25Z</time></trkpt><trkpt lat="45.56416799829104" lon="8.229215579431855"><ele>249.0</ele><time>2026-04-11T13:29:26Z</time></trkpt><trkpt lat="45.56424764974577" lon="8.22915173213385"><ele>248.99999999999997</ele><time>2026-04-11T13:29:27Z</time></trkpt><trkpt lat="45.56432327081034" lon="8.22909061657421"><ele>248.99999999999997</ele><time>2026-04-11T13:29:28Z</time></trkpt><trkpt lat="45.56439032141206" lon="8.229034505563497"><ele>249.0</ele><time>2026-04-11T13:29:29Z</time></trkpt><trkpt lat="45.56447564655842" lon="8.228966311735645"><ele>249.0</ele><time>2026-04-11T13:29:31Z</time></trkpt><trkpt lat="45.56451306624132" lon="8.229106890765724"><ele>249.0</ele><time>2026-04-11T13:29:36Z</time></trkpt><trkpt lat="45.56444616589569" lon="8.229187756271498"><ele>249.0</ele><time>2026-04-11T13:29:37Z</time></trkpt><trkpt lat="45.56440581007472" lon="8.229266134957715"><ele>249.0</ele><time>2026-04-11T13:29:38Z</time></trkpt><trkpt lat="45.56435990870662" lon="8.229364544888329"><ele>249.0</ele><time>2026-04-11T13:29:39Z</time></trkpt><trkpt lat="45.56430995959883" lon="8.229471029747176"><ele>249.0</ele><time>2026-04-11T13:29:40Z</time></trkpt><trkpt lat="45.56425615331507" lon="8.22958424537081"><ele>249.0</ele><time>2026-04-11T13:29:41Z</time></trkpt><trkpt lat="45.56419889691543" lon="8.22970372974605"><ele>247.6</ele><time>2026-04-11T13:29:42Z</time></trkpt><trkpt lat="45.56413967229339" lon="8.229825887051025"><ele>246.2</ele><time>2026-04-11T13:29:43Z</time></trkpt><trkpt lat="45.56407707784843" lon="8.229951511716726"><ele>244.79999999999998</ele><time>2026-04-11T13:29:44Z</time></trkpt><trkpt lat="45.56401357868224" lon="8.230081741230864"><ele>243.39999999999998</ele><time>2026-04-11T13:29:45Z</time></trkpt><trkpt lat="45.56395079040866" lon="8.230217454940657"><ele>242.0</ele><time>2026-04-11T13:29:46Z</time></trkpt><trkpt lat="45.56389087220007" lon="8.230359322028727"><ele>242.0</ele><time>2026-04-11T13:29:47Z</time></trkpt><trkpt lat="45.56383761421548" lon="8.230508526236225"><ele>242.0</ele><time>2026-04-11T13:29:48Z</time></trkpt><trkpt lat="45.56379269700372" lon="8.230663181282878"><ele>242.0</ele><time>2026-04-11T13:29:49Z</time></trkpt><trkpt lat="45.56375220455972" lon="8.230823346566998"><ele>242.0</ele><time>2026-04-11T13:29:50Z</time></trkpt><trkpt lat="45.56372070733804" lon="8.230985701521961"><ele>241.25</ele><time>2026-04-11T13:29:51Z</time></trkpt><trkpt lat="45.56369920403844" lon="8.23115013951528"><ele>240.5</ele><time>2026-04-11T13:29:52Z</time></trkpt><trkpt lat="45.56368660675944" lon="8.231316973126544"><ele>239.75</ele><time>2026-04-11T13:29:53Z</time></trkpt><trkpt lat="45.563682656251835" lon="8.231485431939475"><ele>239.0</ele><time>2026-04-11T13:29:54Z</time></trkpt><trkpt lat="45.56368475300136" lon="8.231654000675498"><ele>238.25</ele><time>2026-04-11T13:29:55Z</time></trkpt><trkpt lat="45.563696118000784" lon="8.231821452406153"><ele>237.5</ele><time>2026-04-11T13:29:56Z</time></trkpt><trkpt lat="45.563720987415714" lon="8.231987083599018"><ele>236.75</ele><time>2026-04-11T13:29:57Z</time></trkpt><trkpt lat="45.563750458554836" lon="8.232151648363764"><ele>236.0</ele><time>2026-04-11T13:29:58Z</time></trkpt><trkpt lat="45.56378359325897" lon="8.23231557811086"><ele>234.75</ele><time>2026-04-11T13:29:59Z</time></trkpt><trkpt lat="45.56382486434593" lon="8.232474881680677"><ele>233.5</ele><time>2026-04-11T13:30:00Z</time></trkpt><trkpt lat="45.56387630434091" lon="8.232630247906634"><ele>232.25</ele><time>2026-04-11T13:30:01Z</time></trkpt><trkpt lat="45.56393636199554" lon="8.232780073636615"><ele>231.0</ele><time>2026-04-11T13:30:01.999Z</time></trkpt><trkpt lat="45.56400569000015" lon="8.232921146302633"><ele>231.0</ele><time>2026-04-11T13:30:02.999Z</time></trkpt><trkpt lat="45.564081550588114" lon="8.23305499043526"><ele>231.0</ele><time>2026-04-11T13:30:03.999Z</time></trkpt><trkpt lat="45.56416306096213" lon="8.233182073128747"><ele>231.0</ele><time>2026-04-11T13:30:04.999Z</time></trkpt><trkpt lat="45.56424819870177" lon="8.233303813919012"><ele>231.0</ele><time>2026-04-11T13:30:05.999Z</time></trkpt><trkpt lat="45.564332757100715" lon="8.233425761975784"><ele>230.5</ele><time>2026-04-11T13:30:06.999Z</time></trkpt><trkpt lat="45.56441947245177" lon="8.233543489165845"><ele>230.0</ele><time>2026-04-11T13:30:07.999Z</time></trkpt><trkpt lat="45.56450547084312" lon="8.233660845943483"><ele>229.5</ele><time>2026-04-11T13:30:08.999Z</time></trkpt><trkpt lat="45.56459020639638" lon="8.23377705834352"><ele>229.0</ele><time>2026-04-11T13:30:09.999Z</time></trkpt><trkpt lat="45.564671271149535" lon="8.233898159583163"><ele>229.25</ele><time>2026-04-11T13:30:10.999Z</time></trkpt><trkpt lat="45.56474271976037" lon="8.234029603987318"><ele>229.5</ele><time>2026-04-11T13:30:11.999Z</time></trkpt><trkpt lat="45.56479896070633" lon="8.234173486890228"><ele>229.75</ele><time>2026-04-11T13:30:12.999Z</time></trkpt><trkpt lat="45.56483496120478" lon="8.234327877936623"><ele>230.0</ele><time>2026-04-11T13:30:13.999Z</time></trkpt><trkpt lat="45.56485102570586" lon="8.234487997717714"><ele>230.0</ele><time>2026-04-11T13:30:14.999Z</time></trkpt><trkpt lat="45.56484834560427" lon="8.234649582135448"><ele>230.0</ele><time>2026-04-11T13:30:15.999Z</time></trkpt><trkpt lat="45.56482441270545" lon="8.234808439918613"><ele>230.0</ele><time>2026-04-11T13:30:16.999Z</time></trkpt><trkpt lat="45.56479404129316" lon="8.2349648316406"><ele>230.0</ele><time>2026-04-11T13:30:17.999Z</time></trkpt><trkpt lat="45.56475567394899" lon="8.23511475821033"><ele>230.4</ele><time>2026-04-11T13:30:18.999Z</time></trkpt><trkpt lat="45.56472007236764" lon="8.235260093969988"><ele>230.8</ele><time>2026-04-11T13:30:19.999Z</time></trkpt><trkpt lat="45.5646873715204" lon="8.235395622076524"><ele>231.2</ele><time>2026-04-11T13:30:20.999Z</time></trkpt><trkpt lat="45.564659705642505" lon="8.23551468305783"><ele>231.6</ele><time>2026-04-11T13:30:21.999Z</time></trkpt><trkpt lat="45.564636736001916" lon="8.235616565702607"><ele>232.0</ele><time>2026-04-11T13:30:22.999Z</time></trkpt><trkpt lat="45.564596939779335" lon="8.235769521148235"><ele>232.0</ele><time>2026-04-11T13:30:24.999Z</time></trkpt><trkpt lat="45.56454111972245" lon="8.235826608020902"><ele>232.0</ele><time>2026-04-11T13:30:26.999Z</time></trkpt><trkpt lat="45.5644191593885" lon="8.235655616597185"><ele>232.0</ele><time>2026-04-11T13:30:30.999Z</time></trkpt><trkpt lat="45.56433918327924" lon="8.235663862759372"><ele>232.0</ele><time>2026-04-11T13:30:32.999Z</time></trkpt><trkpt lat="45.56425581341045" lon="8.23568944823585"><ele>232.0</ele><time>2026-04-11T13:30:34.999Z</time></trkpt><trkpt lat="45.56416067242169" lon="8.235737253846867"><ele>231.66666666666666</ele><time>2026-04-11T13:30:36.999Z</time></trkpt><trkpt lat="45.56407343095975" lon="8.235803834062569"><ele>231.33333333333331</ele><time>2026-04-11T13:30:38.999Z</time></trkpt><trkpt lat="45.56400897822383" lon="8.235844283940004"><ele>231.0</ele><time>2026-04-11T13:30:40.999Z</time></trkpt><trkpt lat="45.56393457277224" lon="8.2358674537583"><ele>230.66666666666669</ele><time>2026-04-11T13:30:42.999Z</time></trkpt><trkpt lat="45.56384521442065" lon="8.23586892189914"><ele>230.33333333333334</ele><time>2026-04-11T13:30:44.999Z</time></trkpt><trkpt lat="45.56376784547834" lon="8.235881007616706"><ele>230.0</ele><time>2026-04-11T13:30:46.999Z</time></trkpt><trkpt lat="45.563710488735566" lon="8.235920210555832"><ele>229.33333333333334</ele><time>2026-04-11T13:30:48.999Z</time></trkpt><trkpt lat="45.5636278051478" lon="8.235990028740398"><ele>228.66666666666669</ele><time>2026-04-11T13:30:51.999Z</time></trkpt><trkpt lat="45.56356452537572" lon="8.236029770341574"><ele>228.0</ele><time>2026-04-11T13:30:54.999Z</time></trkpt><trkpt lat="45.56348949827128" lon="8.236076888122566"><ele>227.33333333333331</ele><time>2026-04-11T13:30:58Z</time></trkpt><trkpt lat="45.56342717276119" lon="8.236113140208266"><ele>226.66666666666666</ele><time>2026-04-11T13:31:00Z</time></trkpt><trkpt lat="45.563356012247674" lon="8.23615071617436"><ele>226.0</ele><time>2026-04-11T13:31:02Z</time></trkpt><trkpt lat="45.56327529976565" lon="8.236200984934126"><ele>226.0</ele><time>2026-04-11T13:31:05Z</time></trkpt><trkpt lat="45.56320796646365" lon="8.236228111712538"><ele>226.0</ele><time>2026-04-11T13:31:08Z</time></trkpt><trkpt lat="45.56313263834316" lon="8.236250127154436"><ele>226.0</ele><time>2026-04-11T13:31:14Z</time></trkpt><trkpt lat="45.563045181760685" lon="8.236243376826913"><ele>226.0</ele><time>2026-04-11T13:31:18Z</time></trkpt><trkpt lat="45.56298080507135" lon="8.23621696094394"><ele>226.0</ele><time>2026-04-11T13:31:20Z</time></trkpt><trkpt lat="45.562912351214074" lon="8.236222692431427"><ele>226.0</ele><time>2026-04-11T13:31:23Z</time></trkpt><trkpt lat="45.5628387780412" lon="8.23623731423954"><ele>226.0</ele><time>2026-04-11T13:31:26Z</time></trkpt><trkpt lat="45.562759848016285" lon="8.236265930574278"><ele>226.83333333333331</ele><time>2026-04-11T13:31:29Z</time></trkpt><trkpt lat="45.56268040279994" lon="8.236296692998168"><ele>227.66666666666666</ele><time>2026-04-11T13:31:32Z</time></trkpt><trkpt lat="45.562617090659465" lon="8.236319123194624"><ele>228.5</ele><time>2026-04-11T13:31:34Z</time></trkpt><trkpt lat="45.56254170025504" lon="8.236270505260942"><ele>229.33333333333331</ele><time>2026-04-11T13:31:36Z</time></trkpt><trkpt lat="45.56248462171281" lon="8.236178975659433"><ele>230.16666666666666</ele><time>2026-04-11T13:31:38Z</time></trkpt><trkpt lat="45.56245184472728" lon="8.236072336329142"><ele>231.0</ele><time>2026-04-11T13:31:40Z</time></trkpt><trkpt lat="45.56241367758104" lon="8.235978734350143"><ele>231.0</ele><time>2026-04-11T13:31:42Z</time></trkpt><trkpt lat="45.562413970362265" lon="8.235828052807763"><ele>231.00000000000003</ele><time>2026-04-11T13:31:46Z</time></trkpt><trkpt lat="45.56238677054942" lon="8.235706981843203"><ele>231.00000000000003</ele><time>2026-04-11T13:31:48Z</time></trkpt><trkpt lat="45.56234770962047" lon="8.235599688953661"><ele>231.0</ele><time>2026-04-11T13:31:50Z</time></trkpt><trkpt lat="45.56231198216665" lon="8.235465652145976"><ele>231.0</ele><time>2026-04-11T13:31:52Z</time></trkpt><trkpt lat="45.56226139768661" lon="8.235380207558777"><ele>230.42857142857144</ele><time>2026-04-11T13:31:54Z</time></trkpt><trkpt lat="45.562218750396646" lon="8.235292541558533"><ele>229.85714285714286</ele><time>2026-04-11T13:31:56Z</time></trkpt><trkpt lat="45.5621866055133" lon="8.235199397731561"><ele>229.28571428571428</ele><time>2026-04-11T13:31:58.999Z</time></trkpt><trkpt lat="45.56217666623664" lon="8.235104600212159"><ele>228.71428571428572</ele><time>2026-04-11T13:32:00.999Z</time></trkpt><trkpt lat="45.56216634016865" lon="8.235015124123537"><ele>228.14285714285717</ele><time>2026-04-11T13:32:02.999Z</time></trkpt><trkpt lat="45.5621532067661" lon="8.23490369483743"><ele>227.57142857142858</ele><time>2026-04-11T13:32:04.999Z</time></trkpt><trkpt lat="45.56215277947772" lon="8.23480280570026"><ele>227.0</ele><time>2026-04-11T13:32:06.999Z</time></trkpt><trkpt lat="45.562130809104524" lon="8.234717045445432"><ele>226.8</ele><time>2026-04-11T13:32:08.999Z</time></trkpt><trkpt lat="45.5620750571415" lon="8.234576894226045"><ele>226.6</ele><time>2026-04-11T13:32:11.999Z</time></trkpt><trkpt lat="45.56205831576402" lon="8.234452723503706"><ele>226.40000000000003</ele><time>2026-04-11T13:32:13.999Z</time></trkpt><trkpt lat="45.56203429522181" lon="8.2343480277015"><ele>226.20000000000002</ele><time>2026-04-11T13:32:15.999Z</time></trkpt><trkpt lat="45.5619639927746" lon="8.234260740883467"><ele>226.0</ele><time>2026-04-11T13:32:17.999Z</time></trkpt><trkpt lat="45.56186773401227" lon="8.23420605734404"><ele>225.60000000000002</ele><time>2026-04-11T13:32:19.999Z</time></trkpt><trkpt lat="45.56177540043902" lon="8.234180940186633"><ele>225.20000000000002</ele><time>2026-04-11T13:32:21.999Z</time></trkpt><trkpt lat="45.56168854673147" lon="8.234197694431355"><ele>224.79999999999998</ele><time>2026-04-11T13:32:23.999Z</time></trkpt><trkpt lat="45.56159333891428" lon="8.234209122147679"><ele>224.39999999999998</ele><time>2026-04-11T13:32:25.999Z</time></trkpt><trkpt lat="45.56150881026509" lon="8.234249556231502"><ele>224.0</ele><time>2026-04-11T13:32:27.999Z</time></trkpt><trkpt lat="45.56142190289746" lon="8.23429329982107"><ele>224.0</ele><time>2026-04-11T13:32:29.999Z</time></trkpt><trkpt lat="45.56134625750226" lon="8.234350205240183"><ele>223.99999999999997</ele><time>2026-04-11T13:32:31.999Z</time></trkpt><trkpt lat="45.561255477865565" lon="8.23441044361626"><ele>223.99999999999997</ele><time>2026-04-11T13:32:33.999Z</time></trkpt><trkpt lat="45.56114929826891" lon="8.234462272317195"><ele>224.0</ele><time>2026-04-11T13:32:35.999Z</time></trkpt><trkpt lat="45.56102674838705" lon="8.234492140001855"><ele>224.0</ele><time>2026-04-11T13:32:37.999Z</time></trkpt><trkpt lat="45.560903990656136" lon="8.234533247093406"><ele>224.2</ele><time>2026-04-11T13:32:39.999Z</time></trkpt><trkpt lat="45.56078763889091" lon="8.234582886200895"><ele>224.39999999999998</ele><time>2026-04-11T13:32:41.999Z</time></trkpt><trkpt lat="45.56068231855811" lon="8.23462710751223"><ele>224.6</ele><time>2026-04-11T13:32:43.999Z</time></trkpt><trkpt lat="45.560594128338046" lon="8.234682240470974"><ele>224.8</ele><time>2026-04-11T13:32:45.999Z</time></trkpt><trkpt lat="45.560488491875006" lon="8.234699263205965"><ele>225.0</ele><time>2026-04-11T13:32:47.999Z</time></trkpt><trkpt lat="45.560388913953666" lon="8.234744675919671"><ele>225.0</ele><time>2026-04-11T13:32:49.999Z</time></trkpt><trkpt lat="45.5603039227073" lon="8.234778800142015"><ele>225.0</ele><time>2026-04-11T13:32:51.999Z</time></trkpt><trkpt lat="45.56019357962066" lon="8.23478821753358"><ele>225.0</ele><time>2026-04-11T13:32:53.999Z</time></trkpt><trkpt lat="45.56008590277635" lon="8.23479908864857"><ele>225.0</ele><time>2026-04-11T13:32:55.999Z</time></trkpt><trkpt lat="45.56000121257376" lon="8.234815518362138"><ele>225.0</ele><time>2026-04-11T13:32:57.999Z</time></trkpt><trkpt lat="45.5599132638506" lon="8.234838072317915"><ele>225.0</ele><time>2026-04-11T13:32:59.999Z</time></trkpt><trkpt lat="45.55980099576035" lon="8.23487490076092"><ele>225.0</ele><time>2026-04-11T13:33:01.999Z</time></trkpt><trkpt lat="45.559720626795794" lon="8.23491837012896"><ele>225.0</ele><time>2026-04-11T13:33:04Z</time></trkpt><trkpt lat="45.559691331568715" lon="8.235002625593856"><ele>225.0</ele><time>2026-04-11T13:33:07Z</time></trkpt><trkpt lat="45.559700857330675" lon="8.2351013604294"><ele>225.0</ele><time>2026-04-11T13:33:09Z</time></trkpt><trkpt lat="45.55972284563836" lon="8.235226280222891"><ele>225.0</ele><time>2026-04-11T13:33:11Z</time></trkpt><trkpt lat="45.55975373609384" lon="8.235355482371341"><ele>225.0</ele><time>2026-04-11T13:33:13Z</time></trkpt><trkpt lat="45.559756902179444" lon="8.235485220619802"><ele>225.0</ele><time>2026-04-11T13:33:15Z</time></trkpt><trkpt lat="45.5597441509467" lon="8.235620144091849"><ele>225.0</ele><time>2026-04-11T13:33:17Z</time></trkpt><trkpt lat="45.559747154395275" lon="8.235753246005864"><ele>225.0</ele><time>2026-04-11T13:33:19Z</time></trkpt><trkpt lat="45.559755929006016" lon="8.235896174785466"><ele>225.0</ele><time>2026-04-11T13:33:21Z</time></trkpt><trkpt lat="45.559755200484844" lon="8.236024370599367"><ele>224.83333333333334</ele><time>2026-04-11T13:33:23Z</time></trkpt><trkpt lat="45.559746208762185" lon="8.236119875974703"><ele>224.66666666666669</ele><time>2026-04-11T13:33:25Z</time></trkpt><trkpt lat="45.559742828769295" lon="8.236232027832488"><ele>224.5</ele><time>2026-04-11T13:33:27Z</time></trkpt><trkpt lat="45.55974382732462" lon="8.236336143951078"><ele>224.33333333333334</ele><time>2026-04-11T13:33:29Z</time></trkpt><trkpt lat="45.559746671241975" lon="8.236447789137259"><ele>224.16666666666669</ele><time>2026-04-11T13:33:33Z</time></trkpt><trkpt lat="45.55974518075288" lon="8.236571168514477"><ele>224.0</ele><time>2026-04-11T13:33:36Z</time></trkpt><trkpt lat="45.55974602369156" lon="8.2366657986354"><ele>224.66666666666669</ele><time>2026-04-11T13:33:39Z</time></trkpt><trkpt lat="45.55975203923735" lon="8.23677298823991"><ele>225.33333333333334</ele><time>2026-04-11T13:33:43Z</time></trkpt><trkpt lat="45.55974009683778" lon="8.236879898535376"><ele>226.0</ele><time>2026-04-11T13:33:46Z</time></trkpt><trkpt lat="45.55973840690763" lon="8.23700523139889"><ele>226.66666666666669</ele><time>2026-04-11T13:33:49Z</time></trkpt><trkpt lat="45.55975451461109" lon="8.23709690478576"><ele>227.33333333333334</ele><time>2026-04-11T13:33:51Z</time></trkpt><trkpt lat="45.55976834712929" lon="8.237212915612416"><ele>228.0</ele><time>2026-04-11T13:33:54Z</time></trkpt><trkpt lat="45.55976388198761" lon="8.237329595099718"><ele>228.42857142857142</ele><time>2026-04-11T13:33:56.999Z</time></trkpt><trkpt lat="45.559766254603346" lon="8.237422719296418"><ele>228.85714285714283</ele><time>2026-04-11T13:33:58.999Z</time></trkpt><trkpt lat="45.55974537124687" lon="8.237513208482671"><ele>229.28571428571428</ele><time>2026-04-11T13:34:02.999Z</time></trkpt><trkpt lat="45.5597109231379" lon="8.237627164424302"><ele>229.71428571428572</ele><time>2026-04-11T13:34:06.999Z</time></trkpt><trkpt lat="45.559695511591045" lon="8.237730125922955"><ele>230.14285714285714</ele><time>2026-04-11T13:34:09.999Z</time></trkpt><trkpt lat="45.55963161949431" lon="8.237767238558005"><ele>230.57142857142856</ele><time>2026-04-11T13:34:12.999Z</time></trkpt><trkpt lat="45.55954913269952" lon="8.237728016267898"><ele>231.0</ele><time>2026-04-11T13:34:15.999Z</time></trkpt><trkpt lat="45.55946416577875" lon="8.237715936935597"><ele>231.0</ele><time>2026-04-11T13:34:19.999Z</time></trkpt><trkpt lat="45.559402084038155" lon="8.237773842665437"><ele>231.0</ele><time>2026-04-11T13:34:23.999Z</time></trkpt><trkpt lat="45.55932787575751" lon="8.237802243124086"><ele>231.0</ele><time>2026-04-11T13:34:27.999Z</time></trkpt><trkpt lat="45.55925348265757" lon="8.237742328763549"><ele>231.0</ele><time>2026-04-11T13:34:30.999Z</time></trkpt><trkpt lat="45.55920222916715" lon="8.23768887595386"><ele>231.0</ele><time>2026-04-11T13:34:33.999Z</time></trkpt><trkpt lat="45.55914244913842" lon="8.23761858495189"><ele>231.0</ele><time>2026-04-11T13:34:36.999Z</time></trkpt><trkpt lat="45.55911890166662" lon="8.237517602201844"><ele>231.0</ele><time>2026-04-11T13:34:41.999Z</time></trkpt><trkpt lat="45.55911795182006" lon="8.237415691571488"><ele>231.0</ele><time>2026-04-11T13:34:45.999Z</time></trkpt><trkpt lat="45.55910770178429" lon="8.237299281833485"><ele>231.0</ele><time>2026-04-11T13:34:49.999Z</time></trkpt><trkpt lat="45.559064446426916" lon="8.237207472827812"><ele>231.0</ele><time>2026-04-11T13:34:53.999Z</time></trkpt><trkpt lat="45.55904893105537" lon="8.237119196996188"><ele>231.0</ele><time>2026-04-11T13:34:56.999Z</time></trkpt><trkpt lat="45.55904181979577" lon="8.236996009242779"><ele>231.0</ele><time>2026-04-11T13:34:59.999Z</time></trkpt><trkpt lat="45.55905930681777" lon="8.236898465703614"><ele>230.8</ele><time>2026-04-11T13:35:01.999Z</time></trkpt><trkpt lat="45.5590528474767" lon="8.236802775539209"><ele>230.60000000000002</ele><time>2026-04-11T13:35:03.999Z</time></trkpt><trkpt lat="45.55905720562384" lon="8.236678478837764"><ele>230.4</ele><time>2026-04-11T13:35:05.999Z</time></trkpt><trkpt lat="45.55904960689915" lon="8.236541136858051"><ele>230.2</ele><time>2026-04-11T13:35:07.999Z</time></trkpt><trkpt lat="45.55903146363411" lon="8.236423821010517"><ele>230.0</ele><time>2026-04-11T13:35:11Z</time></trkpt><trkpt lat="45.55900445281175" lon="8.236237261054827"><ele>229.6</ele><time>2026-04-11T13:35:12Z</time></trkpt><trkpt lat="45.558959993736" lon="8.23612526783378"><ele>229.2</ele><time>2026-04-11T13:35:14Z</time></trkpt><trkpt lat="45.558892267596256" lon="8.236027502906582"><ele>228.8</ele><time>2026-04-11T13:35:16Z</time></trkpt><trkpt lat="45.55880525596134" lon="8.235934088642905"><ele>228.4</ele><time>2026-04-11T13:35:18Z</time></trkpt><trkpt lat="45.55870445670762" lon="8.235902527286303"><ele>228.0</ele><time>2026-04-11T13:35:20Z</time></trkpt><trkpt lat="45.55859755721028" lon="8.235906525359235"><ele>228.8</ele><time>2026-04-11T13:35:22Z</time></trkpt><trkpt lat="45.558494066002936" lon="8.235908028582996"><ele>229.60000000000002</ele><time>2026-04-11T13:35:24Z</time></trkpt><trkpt lat="45.558389356247844" lon="8.235909889580968"><ele>230.39999999999998</ele><time>2026-04-11T13:35:26Z</time></trkpt><trkpt lat="45.558279776681154" lon="8.23593631111182"><ele>231.2</ele><time>2026-04-11T13:35:28Z</time></trkpt><trkpt lat="45.55816338893592" lon="8.235972718329672"><ele>232.0</ele><time>2026-04-11T13:35:30Z</time></trkpt><trkpt lat="45.558045802723846" lon="8.236015386763382"><ele>232.0</ele><time>2026-04-11T13:35:32Z</time></trkpt><trkpt lat="45.557965024471734" lon="8.236096364928645"><ele>232.0</ele><time>2026-04-11T13:35:34Z</time></trkpt><trkpt lat="45.55785146347405" lon="8.236121735884383"><ele>232.0</ele><time>2026-04-11T13:35:36Z</time></trkpt><trkpt lat="45.5577497797718" lon="8.236140271304528"><ele>232.0</ele><time>2026-04-11T13:35:38Z</time></trkpt><trkpt lat="45.55767010494878" lon="8.236175574093954"><ele>232.0</ele><time>2026-04-11T13:35:40Z</time></trkpt><trkpt lat="45.55765858259943" lon="8.236267991873426"><ele>231.83333333333331</ele><time>2026-04-11T13:35:54Z</time></trkpt><trkpt lat="45.557654243565885" lon="8.236375703847692"><ele>231.66666666666666</ele><time>2026-04-11T13:35:55.999Z</time></trkpt><trkpt lat="45.55760299883898" lon="8.236498301264856"><ele>231.5</ele><time>2026-04-11T13:35:57.999Z</time></trkpt><trkpt lat="45.557589117183454" lon="8.236604499579279"><ele>231.33333333333331</ele><time>2026-04-11T13:35:59.999Z</time></trkpt><trkpt lat="45.55758319867386" lon="8.236712366208584"><ele>231.16666666666666</ele><time>2026-04-11T13:36:02.999Z</time></trkpt><trkpt lat="45.55757681765043" lon="8.236832012382665"><ele>231.0</ele><time>2026-04-11T13:36:05.999Z</time></trkpt><trkpt lat="45.55749827577448" lon="8.236847699241086"><ele>231.0</ele><time>2026-04-11T13:36:07.999Z</time></trkpt><trkpt lat="45.557428784003" lon="8.236886509598675"><ele>231.0</ele><time>2026-04-11T13:36:09.999Z</time></trkpt><trkpt lat="45.55733631306878" lon="8.23690822675485"><ele>231.0</ele><time>2026-04-11T13:36:12.999Z</time></trkpt><trkpt lat="45.55725185170845" lon="8.23688486992742"><ele>231.0</ele><time>2026-04-11T13:36:15.999Z</time></trkpt><trkpt lat="45.55720929515721" lon="8.236791802823063"><ele>231.0</ele><time>2026-04-11T13:36:17.999Z</time></trkpt><trkpt lat="45.55714563063278" lon="8.236754439205233"><ele>231.0</ele><time>2026-04-11T13:36:21.999Z</time></trkpt><trkpt lat="45.557063603270365" lon="8.236808487033597"><ele>230.0</ele><time>2026-04-11T13:36:23.999Z</time></trkpt><trkpt lat="45.556987371123654" lon="8.236871078895486"><ele>229.00000000000003</ele><time>2026-04-11T13:36:25.999Z</time></trkpt><trkpt lat="45.55690757730204" lon="8.236929016670762"><ele>228.00000000000003</ele><time>2026-04-11T13:36:27.999Z</time></trkpt><trkpt lat="45.55681421333981" lon="8.23697032294153"><ele>227.0</ele><time>2026-04-11T13:36:29.999Z</time></trkpt><trkpt lat="45.55673704109542" lon="8.23701970485953"><ele>226.0</ele><time>2026-04-11T13:36:31.999Z</time></trkpt><trkpt lat="45.55664063661068" lon="8.236996213519925"><ele>225.99999999999997</ele><time>2026-04-11T13:36:33.999Z</time></trkpt><trkpt lat="45.55657715219734" lon="8.236995874807004"><ele>226.0</ele><time>2026-04-11T13:36:35.999Z</time></trkpt><trkpt lat="45.556514922009725" lon="8.236909799141628"><ele>226.0</ele><time>2026-04-11T13:36:40.999Z</time></trkpt><trkpt lat="45.55642927507941" lon="8.236924742449675"><ele>226.0</ele><time>2026-04-11T13:36:42.999Z</time></trkpt><trkpt lat="45.556345197837906" lon="8.23689218579183"><ele>225.99999999999997</ele><time>2026-04-11T13:36:44.999Z</time></trkpt><trkpt lat="45.55626481182576" lon="8.236938956175216"><ele>226.0</ele><time>2026-04-11T13:36:47.999Z</time></trkpt><trkpt lat="45.5561790342506" lon="8.236976221515848"><ele>226.25</ele><time>2026-04-11T13:36:49.999Z</time></trkpt><trkpt lat="45.55609697100545" lon="8.23703503062876"><ele>226.5</ele><time>2026-04-11T13:36:51.999Z</time></trkpt><trkpt lat="45.55598023818301" lon="8.237074536492477"><ele>226.75</ele><time>2026-04-11T13:36:53.999Z</time></trkpt><trkpt lat="45.55586569672145" lon="8.237141223522858"><ele>227.0</ele><time>2026-04-11T13:36:55.999Z</time></trkpt><trkpt lat="45.55575473192627" lon="8.237213574382928"><ele>227.0</ele><time>2026-04-11T13:36:57.999Z</time></trkpt><trkpt lat="45.55565942125377" lon="8.237265204546095"><ele>227.0</ele><time>2026-04-11T13:36:59.999Z</time></trkpt><trkpt lat="45.55565146923366" lon="8.237362840099768"><ele>227.0</ele><time>2026-04-11T13:37:04.999Z</time></trkpt><trkpt lat="45.55570427629637" lon="8.23747767785394"><ele>227.0</ele><time>2026-04-11T13:37:07.999Z</time></trkpt><trkpt lat="45.55573035327641" lon="8.237600896959982"><ele>227.0</ele><time>2026-04-11T13:37:09.999Z</time></trkpt><trkpt lat="45.55576940890889" lon="8.237737511201393"><ele>227.39999999999998</ele><time>2026-04-11T13:37:11.999Z</time></trkpt><trkpt lat="45.55579702442216" lon="8.237872950813728"><ele>227.79999999999998</ele><time>2026-04-11T13:37:13.999Z</time></trkpt><trkpt lat="45.555836536049405" lon="8.23798872880519"><ele>228.2</ele><time>2026-04-11T13:37:16Z</time></trkpt><trkpt lat="45.5558644895903" lon="8.238113261115977"><ele>228.6</ele><time>2026-04-11T13:37:18Z</time></trkpt><trkpt lat="45.555879746209904" lon="8.238234049875304"><ele>229.0</ele><time>2026-04-11T13:37:21Z</time></trkpt><trkpt lat="45.55589420489736" lon="8.238370382653056"><ele>230.33333333333331</ele><time>2026-04-11T13:37:24Z</time></trkpt><trkpt lat="45.55584294024729" lon="8.238429029240592"><ele>231.66666666666666</ele><time>2026-04-11T13:37:26Z</time></trkpt><trkpt lat="45.55575681795831" lon="8.238375510066263"><ele>233.0</ele><time>2026-04-11T13:37:29Z</time></trkpt><trkpt lat="45.5556885474444" lon="8.238316414346608"><ele>234.33333333333331</ele><time>2026-04-11T13:37:31Z</time></trkpt><trkpt lat="45.555615840342746" lon="8.238280719887948"><ele>235.66666666666666</ele><time>2026-04-11T13:37:33Z</time></trkpt><trkpt lat="45.55555084210654" lon="8.238278294982017"><ele>237.0</ele><time>2026-04-11T13:37:35Z</time></trkpt><trkpt lat="45.555470506247005" lon="8.238273075770245"><ele>237.0</ele><time>2026-04-11T13:37:37Z</time></trkpt><trkpt lat="45.55536965495461" lon="8.238261135484683"><ele>237.0</ele><time>2026-04-11T13:37:39Z</time></trkpt><trkpt lat="45.555271283885816" lon="8.238210984100732"><ele>237.0</ele><time>2026-04-11T13:37:41Z</time></trkpt><trkpt lat="45.55518342447817" lon="8.238207003234475"><ele>237.0</ele><time>2026-04-11T13:37:43Z</time></trkpt><trkpt lat="45.55511523373412" lon="8.238246277698668"><ele>237.0</ele><time>2026-04-11T13:37:46Z</time></trkpt><trkpt lat="45.55503813277522" lon="8.238269677473637"><ele>237.0</ele><time>2026-04-11T13:37:48Z</time></trkpt><trkpt lat="45.554941923054756" lon="8.238321431695098"><ele>237.0</ele><time>2026-04-11T13:37:50Z</time></trkpt><trkpt lat="45.55488251759433" lon="8.238414907935883"><ele>237.0</ele><time>2026-04-11T13:37:52Z</time></trkpt><trkpt lat="45.554824552312496" lon="8.238541450229029"><ele>237.0</ele><time>2026-04-11T13:37:53.999Z</time></trkpt><trkpt lat="45.55478182227824" lon="8.238686150588391"><ele>237.0</ele><time>2026-04-11T13:37:55.999Z</time></trkpt><trkpt lat="45.554776557032255" lon="8.238818466593186"><ele>237.0</ele><time>2026-04-11T13:37:57.999Z</time></trkpt><trkpt lat="45.55479908115578" lon="8.23893372137873"><ele>237.0</ele><time>2026-04-11T13:37:59.999Z</time></trkpt><trkpt lat="45.55482250328135" lon="8.239065362328365"><ele>237.0</ele><time>2026-04-11T13:38:01.999Z</time></trkpt><trkpt lat="45.55481415168343" lon="8.239222289801035"><ele>237.0</ele><time>2026-04-11T13:38:03.999Z</time></trkpt><trkpt lat="45.55481769090322" lon="8.239370735414647"><ele>237.0</ele><time>2026-04-11T13:38:05.999Z</time></trkpt><trkpt lat="45.554822725112146" lon="8.239507791737337"><ele>237.0</ele><time>2026-04-11T13:38:07.999Z</time></trkpt><trkpt lat="45.55482114881208" lon="8.239649848821987"><ele>237.0</ele><time>2026-04-11T13:38:09.999Z</time></trkpt><trkpt lat="45.55482942278523" lon="8.239792293822273"><ele>237.0</ele><time>2026-04-11T13:38:11.999Z</time></trkpt><trkpt lat="45.55484979276648" lon="8.239939736083782"><ele>237.0</ele><time>2026-04-11T13:38:13.999Z</time></trkpt><trkpt lat="45.55483450638667" lon="8.240075261446544"><ele>237.0</ele><time>2026-04-11T13:38:15.999Z</time></trkpt><trkpt lat="45.55476580102022" lon="8.240173116726563"><ele>237.0</ele><time>2026-04-11T13:38:17.999Z</time></trkpt><trkpt lat="45.55470020847408" lon="8.240289497760422"><ele>237.25</ele><time>2026-04-11T13:38:19.999Z</time></trkpt><trkpt lat="45.55467620741097" lon="8.240447598659793"><ele>237.5</ele><time>2026-04-11T13:38:21.999Z</time></trkpt><trkpt lat="45.55468460310266" lon="8.240621415573358"><ele>237.75</ele><time>2026-04-11T13:38:23.999Z</time></trkpt><trkpt lat="45.55469731674142" lon="8.240786350796997"><ele>238.0</ele><time>2026-04-11T13:38:25.999Z</time></trkpt><trkpt lat="45.55471047920064" lon="8.240938381247831"><ele>238.33333333333331</ele><time>2026-04-11T13:38:27.999Z</time></trkpt><trkpt lat="45.554726119354335" lon="8.241082272588569"><ele>238.66666666666666</ele><time>2026-04-11T13:38:29.999Z</time></trkpt><trkpt lat="45.55473659148774" lon="8.241213227847167"><ele>239.0</ele><time>2026-04-11T13:38:31.999Z</time></trkpt><trkpt lat="45.55474067395338" lon="8.24132984015998"><ele>239.33333333333331</ele><time>2026-04-11T13:38:34.999Z</time></trkpt><trkpt lat="45.55474723929897" lon="8.241433476167266"><ele>239.66666666666666</ele><time>2026-04-11T13:38:38.999Z</time></trkpt><trkpt lat="45.554759976939714" lon="8.241538082999961"><ele>240.0</ele><time>2026-04-11T13:38:50.999Z</time></trkpt><trkpt lat="45.554778211464146" lon="8.241655251303547"><ele>240.0</ele><time>2026-04-11T13:38:53.999Z</time></trkpt><trkpt lat="45.55478510960197" lon="8.241760680204555"><ele>240.0</ele><time>2026-04-11T13:38:55.999Z</time></trkpt><trkpt lat="45.554794799355726" lon="8.241853331275932"><ele>240.0</ele><time>2026-04-11T13:38:57.999Z</time></trkpt><trkpt lat="45.554784907376145" lon="8.241952726172157"><ele>240.0</ele><time>2026-04-11T13:39:06.999Z</time></trkpt><trkpt lat="45.554707927288696" lon="8.241981048888562"><ele>240.0</ele><time>2026-04-11T13:39:08.999Z</time></trkpt><trkpt lat="45.5545838287144" lon="8.241985910836739"><ele>240.0</ele><time>2026-04-11T13:39:10.998Z</time></trkpt><trkpt lat="45.554516913614236" lon="8.241994474521102"><ele>240.28571428571428</ele><time>2026-04-11T13:39:11.998Z</time></trkpt><trkpt lat="45.55444702568035" lon="8.242002894621304"><ele>240.57142857142856</ele><time>2026-04-11T13:39:12.998Z</time></trkpt><trkpt lat="45.554377684921086" lon="8.242011066518597"><ele>240.85714285714283</ele><time>2026-04-11T13:39:13.998Z</time></trkpt><trkpt lat="45.55430570464851" lon="8.242021381453496"><ele>241.14285714285714</ele><time>2026-04-11T13:39:14.998Z</time></trkpt><trkpt lat="45.55423305237483" lon="8.242029833185438"><ele>241.4285714285714</ele><time>2026-04-11T13:39:15.998Z</time></trkpt><trkpt lat="45.554158660506594" lon="8.242037908134867"><ele>241.7142857142857</ele><time>2026-04-11T13:39:16.998Z</time></trkpt><trkpt lat="45.554083872841325" lon="8.242044945818485"><ele>242.0</ele><time>2026-04-11T13:39:17.998Z</time></trkpt><trkpt lat="45.55400792305586" lon="8.24205182714256"><ele>242.00000000000003</ele><time>2026-04-11T13:39:18.998Z</time></trkpt><trkpt lat="45.55392929949153" lon="8.242059452330151"><ele>242.0</ele><time>2026-04-11T13:39:19.998Z</time></trkpt><trkpt lat="45.553849458281334" lon="8.242068598273988"><ele>242.0</ele><time>2026-04-11T13:39:21Z</time></trkpt><trkpt lat="45.55376993212543" lon="8.242076124176446"><ele>242.0</ele><time>2026-04-11T13:39:22Z</time></trkpt><trkpt lat="45.55368914329392" lon="8.242084730527989"><ele>242.00000000000003</ele><time>2026-04-11T13:39:23Z</time></trkpt><trkpt lat="45.55360704328634" lon="8.242094591133288"><ele>242.0</ele><time>2026-04-11T13:39:24Z</time></trkpt><trkpt lat="45.55352331568398" lon="8.242102021146321"><ele>241.16666666666669</ele><time>2026-04-11T13:39:25Z</time></trkpt><trkpt lat="45.553441310478874" lon="8.242108607701866"><ele>240.33333333333334</ele><time>2026-04-11T13:39:26Z</time></trkpt><trkpt lat="45.55335402957701" lon="8.242104617091577"><ele>239.5</ele><time>2026-04-11T13:39:27Z</time></trkpt><trkpt lat="45.55326587556608" lon="8.242082415743134"><ele>238.66666666666669</ele><time>2026-04-11T13:39:28Z</time></trkpt><trkpt lat="45.553179475599336" lon="8.24204832661175"><ele>237.83333333333334</ele><time>2026-04-11T13:39:29Z</time></trkpt><trkpt lat="45.553097095185095" lon="8.241999141212856"><ele>237.0</ele><time>2026-04-11T13:39:30Z</time></trkpt><trkpt lat="45.55302974243938" lon="8.24192490157386"><ele>237.0</ele><time>2026-04-11T13:39:31Z</time></trkpt><trkpt lat="45.55296950347027" lon="8.241850883754827"><ele>237.0</ele><time>2026-04-11T13:39:32Z</time></trkpt><trkpt lat="45.55295265896845" lon="8.24171338710413"><ele>237.0</ele><time>2026-04-11T13:39:33Z</time></trkpt><trkpt lat="45.55294827806609" lon="8.241589691319783"><ele>237.0</ele><time>2026-04-11T13:39:34Z</time></trkpt><trkpt lat="45.552929449003216" lon="8.241472769880458"><ele>237.0</ele><time>2026-04-11T13:39:35Z</time></trkpt><trkpt lat="45.55288353667549" lon="8.241367119634551"><ele>237.0</ele><time>2026-04-11T13:39:36Z</time></trkpt><trkpt lat="45.55281266443546" lon="8.241278031449234"><ele>236.2</ele><time>2026-04-11T13:39:37Z</time></trkpt><trkpt lat="45.55273419350794" lon="8.241213718921122"><ele>235.39999999999998</ele><time>2026-04-11T13:39:38Z</time></trkpt><trkpt lat="45.552640252239534" lon="8.241190503118771"><ele>234.60000000000002</ele><time>2026-04-11T13:39:39Z</time></trkpt><trkpt lat="45.552549645968746" lon="8.241196833891673"><ele>233.8</ele><time>2026-04-11T13:39:40Z</time></trkpt><trkpt lat="45.55246503111321" lon="8.241235555496935"><ele>233.0</ele><time>2026-04-11T13:39:41Z</time></trkpt><trkpt lat="45.552390333701254" lon="8.241298628779278"><ele>233.00000000000003</ele><time>2026-04-11T13:39:42Z</time></trkpt><trkpt lat="45.552333752485104" lon="8.241390112154996"><ele>233.0</ele><time>2026-04-11T13:39:43Z</time></trkpt><trkpt lat="45.55229666366785" lon="8.241495713506406"><ele>233.0</ele><time>2026-04-11T13:39:44Z</time></trkpt><trkpt lat="45.552274364465035" lon="8.241611162149303"><ele>233.0</ele><time>2026-04-11T13:39:45Z</time></trkpt><trkpt lat="45.55227255219625" lon="8.241735470013962"><ele>233.00000000000003</ele><time>2026-04-11T13:39:46Z</time></trkpt><trkpt lat="45.55227118508274" lon="8.241853467697032"><ele>233.0</ele><time>2026-04-11T13:39:47Z</time></trkpt><trkpt lat="45.552260376452516" lon="8.241973326824793"><ele>233.4</ele><time>2026-04-11T13:39:48Z</time></trkpt><trkpt lat="45.55228563943387" lon="8.24206799670597"><ele>233.8</ele><time>2026-04-11T13:39:49Z</time></trkpt><trkpt lat="45.55219324835393" lon="8.242194823263873"><ele>234.2</ele><time>2026-04-11T13:39:50Z</time></trkpt><trkpt lat="45.55212591747489" lon="8.24227446724948"><ele>234.6</ele><time>2026-04-11T13:39:51Z</time></trkpt><trkpt lat="45.55205092767885" lon="8.242333827191318"><ele>235.0</ele><time>2026-04-11T13:39:52Z</time></trkpt><trkpt lat="45.55196217894628" lon="8.242363777454797"><ele>235.0</ele><time>2026-04-11T13:39:52.999Z</time></trkpt><trkpt lat="45.55187377604468" lon="8.24238918166349"><ele>235.0</ele><time>2026-04-11T13:39:53.999Z</time></trkpt><trkpt lat="45.551781062396394" lon="8.24241681812608"><ele>235.0</ele><time>2026-04-11T13:39:54.999Z</time></trkpt><trkpt lat="45.551686252925315" lon="8.242441684653272"><ele>235.0</ele><time>2026-04-11T13:39:55.999Z</time></trkpt><trkpt lat="45.55158762812551" lon="8.242462645084489"><ele>235.0</ele><time>2026-04-11T13:39:56.999Z</time></trkpt><trkpt lat="45.55148820406466" lon="8.242476750553106"><ele>235.0</ele><time>2026-04-11T13:39:57.999Z</time></trkpt><trkpt lat="45.55138966508309" lon="8.242486325306125"><ele>235.0</ele><time>2026-04-11T13:39:58.999Z</time></trkpt><trkpt lat="45.551290872866346" lon="8.242502417907378"><ele>235.0</ele><time>2026-04-11T13:39:59.999Z</time></trkpt><trkpt lat="45.551194515832286" lon="8.242524579815482"><ele>235.0</ele><time>2026-04-11T13:40:00.999Z</time></trkpt><trkpt lat="45.551096784088266" lon="8.242546436976651"><ele>235.0</ele><time>2026-04-11T13:40:01.999Z</time></trkpt><trkpt lat="45.55100000911016" lon="8.24255672336922"><ele>235.33333333333331</ele><time>2026-04-11T13:40:02.999Z</time></trkpt><trkpt lat="45.5509012075535" lon="8.242565173744106"><ele>235.66666666666666</ele><time>2026-04-11T13:40:03.999Z</time></trkpt><trkpt lat="45.55080621248358" lon="8.24258072697888"><ele>236.0</ele><time>2026-04-11T13:40:04.999Z</time></trkpt><trkpt lat="45.550717301489414" lon="8.242593389429976"><ele>236.33333333333331</ele><time>2026-04-11T13:40:05.999Z</time></trkpt><trkpt lat="45.55063444628522" lon="8.24260204758417"><ele>236.66666666666666</ele><time>2026-04-11T13:40:06.999Z</time></trkpt><trkpt lat="45.5505654290728" lon="8.242610830443272"><ele>237.0</ele><time>2026-04-11T13:40:07.999Z</time></trkpt><trkpt lat="45.55049508523536" lon="8.242624775915523"><ele>237.0</ele><time>2026-04-11T13:40:08.999Z</time></trkpt><trkpt lat="45.55042335145458" lon="8.24263842760984"><ele>237.0</ele><time>2026-04-11T13:40:09.999Z</time></trkpt><trkpt lat="45.55034999680142" lon="8.24264957783565"><ele>237.0</ele><time>2026-04-11T13:40:10.999Z</time></trkpt><trkpt lat="45.55027519937033" lon="8.242661646882995"><ele>237.0</ele><time>2026-04-11T13:40:11.999Z</time></trkpt><trkpt lat="45.55019739605799" lon="8.242675494294941"><ele>237.0</ele><time>2026-04-11T13:40:12.999Z</time></trkpt><trkpt lat="45.550117474490676" lon="8.24269026796174"><ele>237.0</ele><time>2026-04-11T13:40:13.999Z</time></trkpt><trkpt lat="45.55003663371663" lon="8.242706553795998"><ele>236.66666666666666</ele><time>2026-04-11T13:40:14.999Z</time></trkpt><trkpt lat="45.54995430721148" lon="8.242720005061791"><ele>236.33333333333331</ele><time>2026-04-11T13:40:15.999Z</time></trkpt><trkpt lat="45.54987041086208" lon="8.242729303812563"><ele>236.0</ele><time>2026-04-11T13:40:16.999Z</time></trkpt><trkpt lat="45.54978571304316" lon="8.242737936200704"><ele>235.66666666666666</ele><time>2026-04-11T13:40:17.999Z</time></trkpt><trkpt lat="45.54970055773221" lon="8.242751266706067"><ele>235.33333333333331</ele><time>2026-04-11T13:40:18.999Z</time></trkpt><trkpt lat="45.54961479638958" lon="8.24276901814426"><ele>235.0</ele><time>2026-04-11T13:40:19.999Z</time></trkpt><trkpt lat="45.54952860268249" lon="8.242783542182234"><ele>235.0</ele><time>2026-04-11T13:40:20.999Z</time></trkpt><trkpt lat="45.54944190247514" lon="8.242796903880109"><ele>235.0</ele><time>2026-04-11T13:40:21.999Z</time></trkpt><trkpt lat="45.54935330874901" lon="8.242808626502542"><ele>235.0</ele><time>2026-04-11T13:40:22.999Z</time></trkpt><trkpt lat="45.549262256194154" lon="8.242823092110504"><ele>235.0</ele><time>2026-04-11T13:40:23.999Z</time></trkpt><trkpt lat="45.549171980275226" lon="8.242837054550973"><ele>235.0</ele><time>2026-04-11T13:40:24.999Z</time></trkpt><trkpt lat="45.54908046975764" lon="8.242850802085263"><ele>235.0</ele><time>2026-04-11T13:40:25.999Z</time></trkpt><trkpt lat="45.54898922225622" lon="8.242864043497825"><ele>235.0</ele><time>2026-04-11T13:40:26.999Z</time></trkpt><trkpt lat="45.54889820133162" lon="8.242877650293947"><ele>235.0</ele><time>2026-04-11T13:40:27.999Z</time></trkpt><trkpt lat="45.54880771092284" lon="8.242891420981538"><ele>235.0</ele><time>2026-04-11T13:40:28.999Z</time></trkpt><trkpt lat="45.54871736896246" lon="8.242904974813737"><ele>235.0</ele><time>2026-04-11T13:40:29.999Z</time></trkpt><trkpt lat="45.54862627702525" lon="8.242918387535143"><ele>234.99999999999997</ele><time>2026-04-11T13:40:30.999Z</time></trkpt><trkpt lat="45.5485358078176" lon="8.242928273724772"><ele>235.0</ele><time>2026-04-11T13:40:31.999Z</time></trkpt><trkpt lat="45.54844557945178" lon="8.242935008307072"><ele>235.0</ele><time>2026-04-11T13:40:32.999Z</time></trkpt><trkpt lat="45.548355782299154" lon="8.242940562287565"><ele>235.0</ele><time>2026-04-11T13:40:33.999Z</time></trkpt><trkpt lat="45.54826787359406" lon="8.242943554997794"><ele>234.99999999999997</ele><time>2026-04-11T13:40:34.999Z</time></trkpt><trkpt lat="45.548179288211834" lon="8.24294431722582"><ele>235.0</ele><time>2026-04-11T13:40:35.999Z</time></trkpt><trkpt lat="45.54809062391682" lon="8.242940981559874"><ele>234.99999999999997</ele><time>2026-04-11T13:40:36.999Z</time></trkpt><trkpt lat="45.5480025451597" lon="8.242935927514765"><ele>235.0</ele><time>2026-04-11T13:40:37.999Z</time></trkpt><trkpt lat="45.547916215309286" lon="8.242928607205984"><ele>235.0</ele><time>2026-04-11T13:40:38.999Z</time></trkpt><trkpt lat="45.5478397558909" lon="8.242923407217527"><ele>235.0</ele><time>2026-04-11T13:40:39.999Z</time></trkpt><trkpt lat="45.547775522684" lon="8.242919284921017"><ele>234.99999999999997</ele><time>2026-04-11T13:40:40.999Z</time></trkpt><trkpt lat="45.54768454800931" lon="8.242903909413709"><ele>235.0</ele><time>2026-04-11T13:40:42.999Z</time></trkpt><trkpt lat="45.54766087377681" lon="8.24281873532781"><ele>234.99999999999997</ele><time>2026-04-11T13:41:27Z</time></trkpt><trkpt lat="45.54764269807929" lon="8.242971690227543"><ele>235.0</ele><time>2026-04-11T13:48:20Z</time></trkpt><trkpt lat="45.54770974724658" lon="8.242992653975602"><ele>235.0</ele><time>2026-04-11T13:48:22Z</time></trkpt><trkpt lat="45.54778545679547" lon="8.242990408648623"><ele>235.0</ele><time>2026-04-11T13:48:24Z</time></trkpt><trkpt lat="45.54787590390842" lon="8.242997101859798"><ele>234.99999999999997</ele><time>2026-04-11T13:48:26Z</time></trkpt><trkpt lat="45.54797606632542" lon="8.243004491501296"><ele>235.0</ele><time>2026-04-11T13:48:28Z</time></trkpt><trkpt lat="45.5480810785342" lon="8.243011626991182"><ele>235.0</ele><time>2026-04-11T13:48:30Z</time></trkpt><trkpt lat="45.54818934440284" lon="8.24301699394718"><ele>235.0</ele><time>2026-04-11T13:48:32Z</time></trkpt><trkpt lat="45.54830032718327" lon="8.243018829296917"><ele>235.0</ele><time>2026-04-11T13:48:34Z</time></trkpt><trkpt lat="45.5484140622838" lon="8.243009602471512"><ele>235.0</ele><time>2026-04-11T13:48:36Z</time></trkpt><trkpt lat="45.54853417126991" lon="8.242995821090952"><ele>235.0</ele><time>2026-04-11T13:48:38Z</time></trkpt><trkpt lat="45.54865631757461" lon="8.242978780730956"><ele>234.99999999999997</ele><time>2026-04-11T13:48:40Z</time></trkpt><trkpt lat="45.5487187754153" lon="8.242966844084938"><ele>235.0</ele><time>2026-04-11T13:48:41Z</time></trkpt><trkpt lat="45.548781708613724" lon="8.24295819925647"><ele>235.0</ele><time>2026-04-11T13:48:42Z</time></trkpt><trkpt lat="45.548845977385504" lon="8.242950241670401"><ele>234.99999999999997</ele><time>2026-04-11T13:48:43Z</time></trkpt><trkpt lat="45.54891060506657" lon="8.242940750367666"><ele>235.0</ele><time>2026-04-11T13:48:44Z</time></trkpt><trkpt lat="45.548975341528184" lon="8.242931827248352"><ele>235.0</ele><time>2026-04-11T13:48:45Z</time></trkpt><trkpt lat="45.54904138757142" lon="8.242921568029649"><ele>235.0</ele><time>2026-04-11T13:48:46Z</time></trkpt><trkpt lat="45.54910734900042" lon="8.242910864065527"><ele>234.99999999999997</ele><time>2026-04-11T13:48:47Z</time></trkpt><trkpt lat="45.549173487691284" lon="8.24289882504074"><ele>235.0</ele><time>2026-04-11T13:48:48Z</time></trkpt><trkpt lat="45.54924104125972" lon="8.242888867588873"><ele>235.0</ele><time>2026-04-11T13:48:49Z</time></trkpt><trkpt lat="45.54930858431681" lon="8.242877437813656"><ele>234.99999999999997</ele><time>2026-04-11T13:48:50Z</time></trkpt><trkpt lat="45.549377615975395" lon="8.24286982027327"><ele>235.0</ele><time>2026-04-11T13:48:51Z</time></trkpt><trkpt lat="45.549446784021974" lon="8.242859118715817"><ele>235.0</ele><time>2026-04-11T13:48:52Z</time></trkpt><trkpt lat="45.5495168587176" lon="8.242847400892785"><ele>234.85714285714283</ele><time>2026-04-11T13:48:53Z</time></trkpt><trkpt lat="45.54958780266797" lon="8.24283506779715"><ele>234.7142857142857</ele><time>2026-04-11T13:48:54Z</time></trkpt><trkpt lat="45.54965987021727" lon="8.242822750638808"><ele>234.57142857142856</ele><time>2026-04-11T13:48:55Z</time></trkpt><trkpt lat="45.54973194634071" lon="8.242812911854791"><ele>234.42857142857144</ele><time>2026-04-11T13:48:56Z</time></trkpt><trkpt lat="45.549804895116246" lon="8.242801332625888"><ele>234.2857142857143</ele><time>2026-04-11T13:48:57Z</time></trkpt><trkpt lat="45.549877167950605" lon="8.242789108694376"><ele>234.14285714285717</ele><time>2026-04-11T13:48:58Z</time></trkpt><trkpt lat="45.549950156799135" lon="8.24277485146065"><ele>234.0</ele><time>2026-04-11T13:48:59Z</time></trkpt><trkpt lat="45.550022887426515" lon="8.242762579810572"><ele>234.0</ele><time>2026-04-11T13:49:00Z</time></trkpt><trkpt lat="45.55009652120337" lon="8.242750966511991"><ele>234.0</ele><time>2026-04-11T13:49:01Z</time></trkpt><trkpt lat="45.5501695839472" lon="8.242741274978101"><ele>234.0</ele><time>2026-04-11T13:49:02Z</time></trkpt><trkpt lat="45.550243177548076" lon="8.242729647408073"><ele>234.0</ele><time>2026-04-11T13:49:03Z</time></trkpt><trkpt lat="45.550316655262236" lon="8.242716346728619"><ele>234.0</ele><time>2026-04-11T13:49:04Z</time></trkpt><trkpt lat="45.55038713630451" lon="8.24270501213785"><ele>234.0</ele><time>2026-04-11T13:49:05Z</time></trkpt><trkpt lat="45.550480616668196" lon="8.24270311844605"><ele>234.5</ele><time>2026-04-11T13:49:07Z</time></trkpt><trkpt lat="45.55049891862935" lon="8.242801432785559"><ele>235.0</ele><time>2026-04-11T13:49:09.999Z</time></trkpt><trkpt lat="45.550492972422724" lon="8.24290250217519"><ele>235.5</ele><time>2026-04-11T13:51:47.999Z</time></trkpt><trkpt lat="45.5505186155056" lon="8.24298773832755"><ele>236.0</ele><time>2026-04-11T13:51:51.999Z</time></trkpt><trkpt lat="45.55049512970131" lon="8.242874735666671"><ele>236.5</ele><time>2026-04-11T13:51:56Z</time></trkpt><trkpt lat="45.5504832709623" lon="8.24274016487013"><ele>237.0</ele><time>2026-04-11T13:51:59Z</time></trkpt><trkpt lat="45.55041574446881" lon="8.242660567129345"><ele>236.25</ele><time>2026-04-11T13:52:06Z</time></trkpt><trkpt lat="45.550335750651946" lon="8.242651151131465"><ele>235.5</ele><time>2026-04-11T13:52:07Z</time></trkpt><trkpt lat="45.55021742190637" lon="8.242662258825332"><ele>234.75</ele><time>2026-04-11T13:52:08Z</time></trkpt><trkpt lat="45.55007381182694" lon="8.24269760623802"><ele>234.0</ele><time>2026-04-11T13:52:09Z</time></trkpt><trkpt lat="45.549920291069725" lon="8.242731397114214"><ele>234.0</ele><time>2026-04-11T13:52:10Z</time></trkpt><trkpt lat="45.54975991091655" lon="8.24276219629801"><ele>234.0</ele><time>2026-04-11T13:52:11Z</time></trkpt><trkpt lat="45.54960248987498" lon="8.242786956076804"><ele>234.0</ele><time>2026-04-11T13:52:12Z</time></trkpt><trkpt lat="45.54945699810905" lon="8.242807158093076"><ele>234.25</ele><time>2026-04-11T13:52:13Z</time></trkpt><trkpt lat="45.54932558339715" lon="8.242824766587184"><ele>234.5</ele><time>2026-04-11T13:52:14Z</time></trkpt><trkpt lat="45.549208612902866" lon="8.242840166839638"><ele>234.75</ele><time>2026-04-11T13:52:15Z</time></trkpt><trkpt lat="45.549101442378486" lon="8.242853228886728"><ele>235.0</ele><time>2026-04-11T13:52:16Z</time></trkpt><trkpt lat="45.5489898091555" lon="8.242865749158751"><ele>235.0</ele><time>2026-04-11T13:52:17Z</time></trkpt><trkpt lat="45.5488806263358" lon="8.242874835906663"><ele>235.0</ele><time>2026-04-11T13:52:18Z</time></trkpt><trkpt lat="45.54877325089463" lon="8.242892458344244"><ele>235.0</ele><time>2026-04-11T13:52:19Z</time></trkpt><trkpt lat="45.54866565893306" lon="8.242909389063108"><ele>235.0</ele><time>2026-04-11T13:52:20Z</time></trkpt><trkpt lat="45.54855715517527" lon="8.24292324312053"><ele>235.0</ele><time>2026-04-11T13:52:21Z</time></trkpt><trkpt lat="45.54844844416586" lon="8.242934239940519"><ele>235.0</ele><time>2026-04-11T13:52:22Z</time></trkpt><trkpt lat="45.548340759598055" lon="8.24294203598487"><ele>235.0</ele><time>2026-04-11T13:52:23Z</time></trkpt><trkpt lat="45.548239573624684" lon="8.242943980579811"><ele>235.0</ele><time>2026-04-11T13:52:24Z</time></trkpt><trkpt lat="45.54814616653127" lon="8.242940431404957"><ele>235.0</ele><time>2026-04-11T13:52:25Z</time></trkpt><trkpt lat="45.54805455416141" lon="8.242938516056858"><ele>235.0</ele><time>2026-04-11T13:52:26Z</time></trkpt><trkpt lat="45.547966508152804" lon="8.242934111458155"><ele>235.0</ele><time>2026-04-11T13:52:27Z</time></trkpt><trkpt lat="45.54788979907277" lon="8.242926805817788"><ele>234.99999999999997</ele><time>2026-04-11T13:52:28Z</time></trkpt><trkpt lat="45.54782615104807" lon="8.242919772917089"><ele>235.0</ele><time>2026-04-11T13:52:29Z</time></trkpt><trkpt lat="45.547742730210835" lon="8.242911885914388"><ele>235.0</ele><time>2026-04-11T13:52:31Z</time></trkpt><trkpt lat="45.54766833093247" lon="8.24286185135023"><ele>234.99999999999997</ele><time>2026-04-11T13:54:56Z</time></trkpt><trkpt lat="45.547721458466796" lon="8.242915974292792"><ele>235.0</ele><time>2026-04-11T14:10:01.999Z</time></trkpt><trkpt lat="45.547785064047396" lon="8.242970832207346"><ele>235.0</ele><time>2026-04-11T14:10:06.999Z</time></trkpt><trkpt lat="45.54784846086218" lon="8.242998742582447"><ele>235.0</ele><time>2026-04-11T14:10:11.999Z</time></trkpt><trkpt lat="45.54791541496514" lon="8.243005121164478"><ele>234.99999999999997</ele><time>2026-04-11T14:10:16.999Z</time></trkpt><trkpt lat="45.5479809753052" lon="8.24301344810952"><ele>235.0</ele><time>2026-04-11T14:10:21.999Z</time></trkpt><trkpt lat="45.5479269245303" lon="8.242967227156157"><ele>235.0</ele><time>2026-04-11T14:11:34Z</time></trkpt><trkpt lat="45.54786146192506" lon="8.24292162417128"><ele>234.99999999999997</ele><time>2026-04-11T14:11:40.999Z</time></trkpt><trkpt lat="45.54779737287984" lon="8.242908681132189"><ele>235.0</ele><time>2026-04-11T14:11:45.999Z</time></trkpt><trkpt lat="45.547726349157976" lon="8.24290458212124"><ele>235.0</ele><time>2026-04-11T14:11:51.999Z</time></trkpt><trkpt lat="45.547783413718875" lon="8.242984103692475"><ele>235.0</ele><time>2026-04-11T14:19:10.998Z</time></trkpt><trkpt lat="45.54791926598492" lon="8.242991153101617"><ele>235.0</ele><time>2026-04-11T14:19:13Z</time></trkpt><trkpt lat="45.54800476686828" lon="8.242994455419495"><ele>235.0</ele><time>2026-04-11T14:19:14Z</time></trkpt><trkpt lat="45.548093031724406" lon="8.242999449840918"><ele>235.0</ele><time>2026-04-11T14:19:15Z</time></trkpt><trkpt lat="45.5481869259363" lon="8.243006073696975"><ele>235.0</ele><time>2026-04-11T14:19:16Z</time></trkpt><trkpt lat="45.548283826390325" lon="8.24301038931226"><ele>235.0</ele><time>2026-04-11T14:19:17Z</time></trkpt><trkpt lat="45.548383349130084" lon="8.24300955672934"><ele>235.0</ele><time>2026-04-11T14:19:18Z</time></trkpt><trkpt lat="45.54848733462301" lon="8.243001868711167"><ele>235.0</ele><time>2026-04-11T14:19:19Z</time></trkpt><trkpt lat="45.54859430960449" lon="8.242986379899659"><ele>235.0</ele><time>2026-04-11T14:19:20Z</time></trkpt><trkpt lat="45.54870535319052" lon="8.242967674442447"><ele>235.0</ele><time>2026-04-11T14:19:21Z</time></trkpt><trkpt lat="45.548819272803364" lon="8.242947167699828"><ele>235.0</ele><time>2026-04-11T14:19:22Z</time></trkpt><trkpt lat="45.54893522004884" lon="8.242930308228646"><ele>235.0</ele><time>2026-04-11T14:19:23Z</time></trkpt><trkpt lat="45.54905192761119" lon="8.24291492214363"><ele>235.0</ele><time>2026-04-11T14:19:24Z</time></trkpt><trkpt lat="45.54917004777097" lon="8.242896558896895"><ele>235.0</ele><time>2026-04-11T14:19:25Z</time></trkpt><trkpt lat="45.549289673353954" lon="8.242875607709099"><ele>235.0</ele><time>2026-04-11T14:19:26Z</time></trkpt><trkpt lat="45.549411321084996" lon="8.242856859571372"><ele>235.0</ele><time>2026-04-11T14:19:27Z</time></trkpt><trkpt lat="45.54953163886056" lon="8.242835505084088"><ele>235.0</ele><time>2026-04-11T14:19:28Z</time></trkpt><trkpt lat="45.549652011448295" lon="8.242809400577885"><ele>235.0</ele><time>2026-04-11T14:19:29Z</time></trkpt><trkpt lat="45.54977263566248" lon="8.24278290348338"><ele>234.75</ele><time>2026-04-11T14:19:30Z</time></trkpt><trkpt lat="45.54989632268305" lon="8.24278760375819"><ele>234.5</ele><time>2026-04-11T14:19:31Z</time></trkpt><trkpt lat="45.550018404373276" lon="8.242768832746556"><ele>234.25</ele><time>2026-04-11T14:19:32Z</time></trkpt><trkpt lat="45.55014104249699" lon="8.24274875314608"><ele>234.0</ele><time>2026-04-11T14:19:33Z</time></trkpt><trkpt lat="45.55026355973518" lon="8.242728344196477"><ele>234.75</ele><time>2026-04-11T14:19:34Z</time></trkpt><trkpt lat="45.550385475744584" lon="8.242708035379877"><ele>235.5</ele><time>2026-04-11T14:19:35Z</time></trkpt><trkpt lat="45.55050790230981" lon="8.242688698586726"><ele>236.25</ele><time>2026-04-11T14:19:36Z</time></trkpt><trkpt lat="45.550628277520715" lon="8.24265707915093"><ele>237.0</ele><time>2026-04-11T14:19:37Z</time></trkpt><trkpt lat="45.55075106284027" lon="8.242644747086313"><ele>237.0</ele><time>2026-04-11T14:19:38Z</time></trkpt><trkpt lat="45.550872769484066" lon="8.242623730772749"><ele>237.0</ele><time>2026-04-11T14:19:39Z</time></trkpt><trkpt lat="45.55098980125178" lon="8.242603147947845"><ele>237.0</ele><time>2026-04-11T14:19:40Z</time></trkpt><trkpt lat="45.551105326422814" lon="8.242588703927614"><ele>237.0</ele><time>2026-04-11T14:19:41Z</time></trkpt><trkpt lat="45.551217694284915" lon="8.242571025243926"><ele>236.6</ele><time>2026-04-11T14:19:42Z</time></trkpt><trkpt lat="45.55132667474345" lon="8.242551078415824"><ele>236.2</ele><time>2026-04-11T14:19:43Z</time></trkpt><trkpt lat="45.55143418855032" lon="8.242532223732997"><ele>235.8</ele><time>2026-04-11T14:19:44Z</time></trkpt><trkpt lat="45.55154104592149" lon="8.242515014481668"><ele>235.4</ele><time>2026-04-11T14:19:45Z</time></trkpt><trkpt lat="45.55164848679525" lon="8.242499769526619"><ele>235.0</ele><time>2026-04-11T14:19:46Z</time></trkpt><trkpt lat="45.551756701332835" lon="8.242486404656548"><ele>235.0</ele><time>2026-04-11T14:19:47Z</time></trkpt><trkpt lat="45.55186530174625" lon="8.242469601754486"><ele>235.0</ele><time>2026-04-11T14:19:48Z</time></trkpt><trkpt lat="45.55196949023456" lon="8.242445066597778"><ele>235.0</ele><time>2026-04-11T14:19:49Z</time></trkpt><trkpt lat="45.55206571810226" lon="8.242405586867351"><ele>235.0</ele><time>2026-04-11T14:19:50Z</time></trkpt><trkpt lat="45.552152770680756" lon="8.242354326926824"><ele>235.0</ele><time>2026-04-11T14:19:51Z</time></trkpt><trkpt lat="45.552233928925766" lon="8.24229448691109"><ele>235.16666666666666</ele><time>2026-04-11T14:19:52Z</time></trkpt><trkpt lat="45.552308662813445" lon="8.242229030069094"><ele>235.33333333333331</ele><time>2026-04-11T14:19:53Z</time></trkpt><trkpt lat="45.55238047267818" lon="8.242174411826122"><ele>235.5</ele><time>2026-04-11T14:19:53.999Z</time></trkpt><trkpt lat="45.552458086458344" lon="8.242164049639364"><ele>235.66666666666669</ele><time>2026-04-11T14:19:54.999Z</time></trkpt><trkpt lat="45.55253634032964" lon="8.242183591399034"><ele>235.83333333333334</ele><time>2026-04-11T14:19:55.999Z</time></trkpt><trkpt lat="45.552612247424925" lon="8.242204629880245"><ele>236.0</ele><time>2026-04-11T14:19:56.999Z</time></trkpt><trkpt lat="45.552687717110715" lon="8.24219261624088"><ele>236.00000000000003</ele><time>2026-04-11T14:19:57.999Z</time></trkpt><trkpt lat="45.55276162555636" lon="8.242158351150339"><ele>236.0</ele><time>2026-04-11T14:19:58.999Z</time></trkpt><trkpt lat="45.552834334052086" lon="8.242118234036635"><ele>236.0</ele><time>2026-04-11T14:19:59.999Z</time></trkpt><trkpt lat="45.552910597553876" lon="8.242092213015367"><ele>236.0</ele><time>2026-04-11T14:20:00.999Z</time></trkpt><trkpt lat="45.55299037902564" lon="8.242099359283491"><ele>236.00000000000003</ele><time>2026-04-11T14:20:01.999Z</time></trkpt><trkpt lat="45.55306725988621" lon="8.242130953469815"><ele>236.0</ele><time>2026-04-11T14:20:02.999Z</time></trkpt><trkpt lat="45.55314240524942" lon="8.242165485384161"><ele>236.14285714285714</ele><time>2026-04-11T14:20:03.999Z</time></trkpt><trkpt lat="45.55321517318586" lon="8.242193970019926"><ele>236.28571428571428</ele><time>2026-04-11T14:20:04.999Z</time></trkpt><trkpt lat="45.55329130548698" lon="8.242203969130456"><ele>236.42857142857142</ele><time>2026-04-11T14:20:05.999Z</time></trkpt><trkpt lat="45.55336375987733" lon="8.242204708576121"><ele>236.57142857142856</ele><time>2026-04-11T14:20:06.999Z</time></trkpt><trkpt lat="45.55343769281965" lon="8.242205835210134"><ele>236.71428571428572</ele><time>2026-04-11T14:20:07.999Z</time></trkpt><trkpt lat="45.55350790947552" lon="8.242204170281438"><ele>236.85714285714283</ele><time>2026-04-11T14:20:08.999Z</time></trkpt><trkpt lat="45.55357827793678" lon="8.242200385327665"><ele>236.99999999999997</ele><time>2026-04-11T14:20:09.999Z</time></trkpt><trkpt lat="45.55364687023068" lon="8.242191809759545"><ele>237.71428571428567</ele><time>2026-04-11T14:20:10.999Z</time></trkpt><trkpt lat="45.553714612883965" lon="8.242183671665348"><ele>238.42857142857142</ele><time>2026-04-11T14:20:11.999Z</time></trkpt><trkpt lat="45.55378069812402" lon="8.24217543353619"><ele>239.1428571428571</ele><time>2026-04-11T14:20:12.999Z</time></trkpt><trkpt lat="45.55384652304494" lon="8.242167654472976"><ele>239.85714285714283</ele><time>2026-04-11T14:20:13.999Z</time></trkpt><trkpt lat="45.55391062789063" lon="8.242171098515541"><ele>240.57142857142856</ele><time>2026-04-11T14:20:14.999Z</time></trkpt><trkpt lat="45.55400884805767" lon="8.242203338212367"><ele>241.28571428571428</ele><time>2026-04-11T14:20:16.999Z</time></trkpt><trkpt lat="45.55407525824692" lon="8.242164408131952"><ele>242.0</ele><time>2026-04-11T14:20:19.999Z</time></trkpt><trkpt lat="45.554157222076086" lon="8.242131839945609"><ele>242.00000000000003</ele><time>2026-04-11T14:20:21.999Z</time></trkpt><trkpt lat="45.5542871059051" lon="8.242119601830469"><ele>242.0</ele><time>2026-04-11T14:20:23.999Z</time></trkpt><trkpt lat="45.554360102977036" lon="8.24210883483717"><ele>242.0</ele><time>2026-04-11T14:20:24.999Z</time></trkpt><trkpt lat="45.55443743104156" lon="8.242095337763674"><ele>242.0</ele><time>2026-04-11T14:20:25.999Z</time></trkpt><trkpt lat="45.55451992113707" lon="8.242081988388309"><ele>242.00000000000003</ele><time>2026-04-11T14:20:26.999Z</time></trkpt><trkpt lat="45.55460310826646" lon="8.24206781013703"><ele>242.0</ele><time>2026-04-11T14:20:27.999Z</time></trkpt><trkpt lat="45.5546891709587" lon="8.242054261397305"><ele>241.6</ele><time>2026-04-11T14:20:28.999Z</time></trkpt><trkpt lat="45.55477814315007" lon="8.242041099699696"><ele>241.2</ele><time>2026-04-11T14:20:29.999Z</time></trkpt><trkpt lat="45.55486896464736" lon="8.24202616022513"><ele>240.8</ele><time>2026-04-11T14:20:30.999Z</time></trkpt><trkpt lat="45.55496233203894" lon="8.242012511462422"><ele>240.4</ele><time>2026-04-11T14:20:31.999Z</time></trkpt><trkpt lat="45.55505702509879" lon="8.241999296769928"><ele>240.0</ele><time>2026-04-11T14:20:32.999Z</time></trkpt><trkpt lat="45.55515339643676" lon="8.241983345204643"><ele>240.0</ele><time>2026-04-11T14:20:33.999Z</time></trkpt><trkpt lat="45.555250707627664" lon="8.241967321691353"><ele>240.0</ele><time>2026-04-11T14:20:34.999Z</time></trkpt><trkpt lat="45.55534812157664" lon="8.241952256144424"><ele>240.0</ele><time>2026-04-11T14:20:35.999Z</time></trkpt><trkpt lat="45.555445354904215" lon="8.241933961242525"><ele>240.0</ele><time>2026-04-11T14:20:36.999Z</time></trkpt><trkpt lat="45.555544455443446" lon="8.24191771993313"><ele>240.0</ele><time>2026-04-11T14:20:37.999Z</time></trkpt><trkpt lat="45.55564375466243" lon="8.241901897794184"><ele>240.4</ele><time>2026-04-11T14:20:38.999Z</time></trkpt><trkpt lat="45.55574323470281" lon="8.241886466539372"><ele>240.8</ele><time>2026-04-11T14:20:39.999Z</time></trkpt><trkpt lat="45.55583880016253" lon="8.24187141706797"><ele>241.2</ele><time>2026-04-11T14:20:40.999Z</time></trkpt><trkpt lat="45.555933089381995" lon="8.241855341916649"><ele>241.6</ele><time>2026-04-11T14:20:41.999Z</time></trkpt><trkpt lat="45.556027567891185" lon="8.24183850446616"><ele>242.0</ele><time>2026-04-11T14:20:42.999Z</time></trkpt><trkpt lat="45.55612228083138" lon="8.241820887142314"><ele>242.0</ele><time>2026-04-11T14:20:43.999Z</time></trkpt><trkpt lat="45.55621615775789" lon="8.241806861954515"><ele>242.0</ele><time>2026-04-11T14:20:44.999Z</time></trkpt><trkpt lat="45.55630976272794" lon="8.24179329965256"><ele>242.0</ele><time>2026-04-11T14:20:45.999Z</time></trkpt><trkpt lat="45.55640343185284" lon="8.241780495700771"><ele>242.0</ele><time>2026-04-11T14:20:46.999Z</time></trkpt><trkpt lat="45.55649701120267" lon="8.24176751587525"><ele>242.0</ele><time>2026-04-11T14:20:47.999Z</time></trkpt><trkpt lat="45.55658962742567" lon="8.241752607803143"><ele>242.0</ele><time>2026-04-11T14:20:48.999Z</time></trkpt><trkpt lat="45.556680938578126" lon="8.241736948946208"><ele>242.0</ele><time>2026-04-11T14:20:49.999Z</time></trkpt><trkpt lat="45.55677282584196" lon="8.241721525201442"><ele>242.0</ele><time>2026-04-11T14:20:50.999Z</time></trkpt><trkpt lat="45.556863871044904" lon="8.241706922316398"><ele>242.0</ele><time>2026-04-11T14:20:51.999Z</time></trkpt><trkpt lat="45.556954955329786" lon="8.241692424994861"><ele>242.0</ele><time>2026-04-11T14:20:52.999Z</time></trkpt><trkpt lat="45.55704530263233" lon="8.24167817586778"><ele>241.39999999999998</ele><time>2026-04-11T14:20:53.999Z</time></trkpt><trkpt lat="45.557137204958615" lon="8.241663594630856"><ele>240.79999999999998</ele><time>2026-04-11T14:20:54.999Z</time></trkpt><trkpt lat="45.55722817771916" lon="8.241648291401486"><ele>240.2</ele><time>2026-04-11T14:20:55.999Z</time></trkpt><trkpt lat="45.55731958065282" lon="8.241631789494335"><ele>239.6</ele><time>2026-04-11T14:20:56.999Z</time></trkpt><trkpt lat="45.55741077525234" lon="8.241615838708164"><ele>239.0</ele><time>2026-04-11T14:20:57.999Z</time></trkpt><trkpt lat="45.55750401248814" lon="8.241602326908696"><ele>239.0</ele><time>2026-04-11T14:20:58.999Z</time></trkpt><trkpt lat="45.557597003767505" lon="8.241588855655348"><ele>238.99999999999997</ele><time>2026-04-11T14:20:59.998Z</time></trkpt><trkpt lat="45.55769087488735" lon="8.241574695806662"><ele>238.99999999999997</ele><time>2026-04-11T14:21:00.998Z</time></trkpt><trkpt lat="45.55778499612916" lon="8.241559197395237"><ele>239.0</ele><time>2026-04-11T14:21:01.998Z</time></trkpt><trkpt lat="45.55787946047203" lon="8.241543094685"><ele>239.0</ele><time>2026-04-11T14:21:02.998Z</time></trkpt><trkpt lat="45.55797379085048" lon="8.2415276084002"><ele>239.0</ele><time>2026-04-11T14:21:03.998Z</time></trkpt><trkpt lat="45.558067844319645" lon="8.241512468442709"><ele>238.99999999999997</ele><time>2026-04-11T14:21:04.998Z</time></trkpt><trkpt lat="45.558162962878086" lon="8.241499222902183"><ele>238.99999999999997</ele><time>2026-04-11T14:21:05.998Z</time></trkpt><trkpt lat="45.55825713765865" lon="8.241485441935044"><ele>239.0</ele><time>2026-04-11T14:21:06.998Z</time></trkpt><trkpt lat="45.558351432727015" lon="8.241468336417569"><ele>239.0</ele><time>2026-04-11T14:21:07.998Z</time></trkpt><trkpt lat="45.558443197333176" lon="8.24145360411419"><ele>239.2</ele><time>2026-04-11T14:21:08.998Z</time></trkpt><trkpt lat="45.558534102123495" lon="8.241438693546817"><ele>239.39999999999998</ele><time>2026-04-11T14:21:09.998Z</time></trkpt><trkpt lat="45.558626774252744" lon="8.241423650863972"><ele>239.6</ele><time>2026-04-11T14:21:10.998Z</time></trkpt><trkpt lat="45.558716170936336" lon="8.241410064647017"><ele>239.8</ele><time>2026-04-11T14:21:11.998Z</time></trkpt><trkpt lat="45.55880535517337" lon="8.241396985425476"><ele>240.0</ele><time>2026-04-11T14:21:12.998Z</time></trkpt><trkpt lat="45.55889379407749" lon="8.241383644803268"><ele>240.0</ele><time>2026-04-11T14:21:13.998Z</time></trkpt><trkpt lat="45.55898146265191" lon="8.241370463903099"><ele>240.0</ele><time>2026-04-11T14:21:14.998Z</time></trkpt><trkpt lat="45.55906793916418" lon="8.241356506478246"><ele>240.0</ele><time>2026-04-11T14:21:15.998Z</time></trkpt><trkpt lat="45.55915417332138" lon="8.241342954127415"><ele>240.0</ele><time>2026-04-11T14:21:16.998Z</time></trkpt><trkpt lat="45.559241420766185" lon="8.241329089788755"><ele>240.0</ele><time>2026-04-11T14:21:18Z</time></trkpt><trkpt lat="45.55932877046488" lon="8.24131555906195"><ele>240.0</ele><time>2026-04-11T14:21:19Z</time></trkpt><trkpt lat="45.55941693451958" lon="8.241303553657376"><ele>240.0</ele><time>2026-04-11T14:21:20Z</time></trkpt><trkpt lat="45.5595059578693" lon="8.241290044911361"><ele>240.0</ele><time>2026-04-11T14:21:21Z</time></trkpt><trkpt lat="45.55959524676278" lon="8.241278151942769"><ele>240.0</ele><time>2026-04-11T14:21:22Z</time></trkpt><trkpt lat="45.559683771289166" lon="8.241266288144093"><ele>240.0</ele><time>2026-04-11T14:21:23Z</time></trkpt><trkpt lat="45.55977112993957" lon="8.241252770205039"><ele>240.0</ele><time>2026-04-11T14:21:24Z</time></trkpt><trkpt lat="45.55985929286615" lon="8.241236723674577"><ele>240.0</ele><time>2026-04-11T14:21:25Z</time></trkpt><trkpt lat="45.55994757560754" lon="8.241220748859636"><ele>240.28571428571428</ele><time>2026-04-11T14:21:26Z</time></trkpt><trkpt lat="45.560032837869755" lon="8.241207077101109"><ele>240.57142857142856</ele><time>2026-04-11T14:21:27Z</time></trkpt><trkpt lat="45.56011153798838" lon="8.241194196163336"><ele>240.85714285714283</ele><time>2026-04-11T14:21:28Z</time></trkpt><trkpt lat="45.56018524259879" lon="8.24118073048627"><ele>241.14285714285714</ele><time>2026-04-11T14:21:29Z</time></trkpt><trkpt lat="45.56025428946687" lon="8.241183281348214"><ele>241.4285714285714</ele><time>2026-04-11T14:21:30Z</time></trkpt><trkpt lat="45.56032020586609" lon="8.241209189086543"><ele>241.7142857142857</ele><time>2026-04-11T14:21:31Z</time></trkpt><trkpt lat="45.560382259728755" lon="8.241238215772615"><ele>242.0</ele><time>2026-04-11T14:21:32Z</time></trkpt><trkpt lat="45.56044318839811" lon="8.24127024251935"><ele>242.0</ele><time>2026-04-11T14:21:33Z</time></trkpt><trkpt lat="45.560556071303935" lon="8.241344575039305"><ele>242.0</ele><time>2026-04-11T14:21:35Z</time></trkpt><trkpt lat="45.56063102754324" lon="8.24141509203424"><ele>242.0</ele><time>2026-04-11T14:21:37Z</time></trkpt><trkpt lat="45.560687866450216" lon="8.24145461800227"><ele>242.0</ele><time>2026-04-11T14:21:43Z</time></trkpt><trkpt lat="45.560785982462995" lon="8.241521094115164"><ele>242.0</ele><time>2026-04-11T14:21:46Z</time></trkpt><trkpt lat="45.56084416640864" lon="8.241567712194918"><ele>242.00000000000003</ele><time>2026-04-11T14:21:47Z</time></trkpt><trkpt lat="45.56090775964212" lon="8.241621392751881"><ele>242.0</ele><time>2026-04-11T14:21:48Z</time></trkpt><trkpt lat="45.56097427406512" lon="8.241673815819794"><ele>242.0</ele><time>2026-04-11T14:21:49Z</time></trkpt><trkpt lat="45.56104358215538" lon="8.241725879570787"><ele>242.0</ele><time>2026-04-11T14:21:50Z</time></trkpt><trkpt lat="45.561099956625874" lon="8.241769625464956"><ele>242.00000000000003</ele><time>2026-04-11T14:21:51Z</time></trkpt><trkpt lat="45.561186004212" lon="8.241848054946256"><ele>242.0</ele><time>2026-04-11T14:21:53Z</time></trkpt><trkpt lat="45.561268550261865" lon="8.241914566575263"><ele>242.2</ele><time>2026-04-11T14:21:55Z</time></trkpt><trkpt lat="45.5613264700425" lon="8.241958094866574"><ele>242.39999999999998</ele><time>2026-04-11T14:22:04.999Z</time></trkpt><trkpt lat="45.56142320116115" lon="8.242038353589443"><ele>242.60000000000002</ele><time>2026-04-11T14:22:07.999Z</time></trkpt><trkpt lat="45.561533343670526" lon="8.242120284275922"><ele>242.8</ele><time>2026-04-11T14:22:09.999Z</time></trkpt><trkpt lat="45.56159759717088" lon="8.24217045382737"><ele>243.0</ele><time>2026-04-11T14:22:10.999Z</time></trkpt><trkpt lat="45.561666063612435" lon="8.24222497320382"><ele>243.0</ele><time>2026-04-11T14:22:11.999Z</time></trkpt><trkpt lat="45.561739027349894" lon="8.242284660930139"><ele>243.0</ele><time>2026-04-11T14:22:12.999Z</time></trkpt><trkpt lat="45.56181229808781" lon="8.24234288970994"><ele>243.0</ele><time>2026-04-11T14:22:13.999Z</time></trkpt><trkpt lat="45.5618824397712" lon="8.242394952706645"><ele>243.0</ele><time>2026-04-11T14:22:14.999Z</time></trkpt><trkpt lat="45.56194080306144" lon="8.242442282848515"><ele>243.0</ele><time>2026-04-11T14:22:15.999Z</time></trkpt><trkpt lat="45.56203291091823" lon="8.242513952069421"><ele>243.0</ele><time>2026-04-11T14:22:17.999Z</time></trkpt><trkpt lat="45.56209935382538" lon="8.242570406732966"><ele>243.57142857142856</ele><time>2026-04-11T14:22:21.999Z</time></trkpt><trkpt lat="45.56216289759033" lon="8.242651352253889"><ele>244.14285714285717</ele><time>2026-04-11T14:22:24.999Z</time></trkpt><trkpt lat="45.56220187505538" lon="8.242758510694818"><ele>244.71428571428572</ele><time>2026-04-11T14:22:27.999Z</time></trkpt><trkpt lat="45.562204655963804" lon="8.242849832673247"><ele>245.28571428571428</ele><time>2026-04-11T14:23:09.998Z</time></trkpt><trkpt lat="45.562175011897914" lon="8.242769313412817"><ele>245.85714285714283</ele><time>2026-04-11T14:23:29Z</time></trkpt><trkpt lat="45.56222903274674" lon="8.242829349499114"><ele>246.42857142857144</ele><time>2026-04-11T14:25:05.999Z</time></trkpt><trkpt lat="45.562291376531135" lon="8.24286783610522"><ele>247.0</ele><time>2026-04-11T14:25:11.998Z</time></trkpt><trkpt lat="45.56221948794717" lon="8.242864524946189"><ele>247.0</ele><time>2026-04-11T14:26:12.999Z</time></trkpt><trkpt lat="45.562287597595684" lon="8.242894438578096"><ele>247.0</ele><time>2026-04-11T14:28:59.999Z</time></trkpt><trkpt lat="45.56234000072044" lon="8.242948872146068"><ele>247.0</ele><time>2026-04-11T14:29:04.999Z</time></trkpt><trkpt lat="45.56241309145115" lon="8.242982100159464"><ele>247.0</ele><time>2026-04-11T14:29:10.999Z</time></trkpt><trkpt lat="45.5624761900856" lon="8.243005043066125"><ele>247.0</ele><time>2026-04-11T14:29:15.998Z</time></trkpt><trkpt lat="45.5625298040407" lon="8.243053162795539"><ele>247.0</ele><time>2026-04-11T14:29:21.998Z</time></trkpt><trkpt lat="45.56246234950581" lon="8.24307463256808"><ele>247.0</ele><time>2026-04-11T14:38:07Z</time></trkpt><trkpt lat="45.562397053939875" lon="8.243029747514486"><ele>247.0</ele><time>2026-04-11T14:38:18Z</time></trkpt><trkpt lat="45.56234607244842" lon="8.242957383353913"><ele>247.0</ele><time>2026-04-11T14:38:26Z</time></trkpt><trkpt lat="45.562266382388465" lon="8.242961556956104"><ele>247.0</ele><time>2026-04-11T14:38:51.999Z</time></trkpt><trkpt lat="45.562280068850136" lon="8.242867119198468"><ele>247.0</ele><time>2026-04-11T14:47:42Z</time></trkpt><trkpt lat="45.562333079752435" lon="8.242926102172737"><ele>247.0</ele><time>2026-04-11T14:47:57.999Z</time></trkpt><trkpt lat="45.5623887629772" lon="8.242972596312079"><ele>247.0</ele><time>2026-04-11T14:48:10.999Z</time></trkpt><trkpt lat="45.562447901094934" lon="8.243032122683038"><ele>247.0</ele><time>2026-04-11T14:48:17.999Z</time></trkpt><trkpt lat="45.56251068313672" lon="8.24304010976639"><ele>247.0</ele><time>2026-04-11T14:48:24.999Z</time></trkpt><trkpt lat="45.56256888839197" lon="8.24308830172226"><ele>247.0</ele><time>2026-04-11T14:48:33.999Z</time></trkpt><trkpt lat="45.5625164682843" lon="8.243145106919266"><ele>247.0</ele><time>2026-04-11T15:05:00.999Z</time></trkpt><trkpt lat="45.56248929507691" lon="8.24304750522155"><ele>247.0</ele><time>2026-04-11T15:05:15.999Z</time></trkpt><trkpt lat="45.562424463658964" lon="8.243014728733925"><ele>247.0</ele><time>2026-04-11T15:05:23Z</time></trkpt><trkpt lat="45.56237414672315" lon="8.242935109718646"><ele>247.0</ele><time>2026-04-11T15:05:30Z</time></trkpt><trkpt lat="45.562320572260745" lon="8.242869028073711"><ele>247.0</ele><time>2026-04-11T15:05:37Z</time></trkpt><trkpt lat="45.56226095836836" lon="8.24281728571306"><ele>246.99999999999997</ele><time>2026-04-11T15:07:06.999Z</time></trkpt><trkpt lat="45.56220298008133" lon="8.242862566943499"><ele>247.0</ele><time>2026-04-11T15:07:11.999Z</time></trkpt><trkpt lat="45.56217583169641" lon="8.242763025726589"><ele>247.0</ele><time>2026-04-11T15:09:41Z</time></trkpt><trkpt lat="45.56215498153647" lon="8.242668406740624"><ele>247.0</ele><time>2026-04-11T15:09:43Z</time></trkpt><trkpt lat="45.56212100986356" lon="8.2425239547491"><ele>246.99999999999997</ele><time>2026-04-11T15:10:14Z</time></trkpt><trkpt lat="45.562064451960474" lon="8.242459090944607"><ele>247.0</ele><time>2026-04-11T15:10:15Z</time></trkpt><trkpt lat="45.56199887405443" lon="8.242406196939335"><ele>246.66666666666666</ele><time>2026-04-11T15:10:16Z</time></trkpt><trkpt lat="45.561930830540014" lon="8.242354571476504"><ele>246.33333333333331</ele><time>2026-04-11T15:10:17Z</time></trkpt><trkpt lat="45.56185963099695" lon="8.242301214186996"><ele>246.0</ele><time>2026-04-11T15:10:18Z</time></trkpt><trkpt lat="45.56178546872987" lon="8.242249231752794"><ele>245.66666666666669</ele><time>2026-04-11T15:10:19Z</time></trkpt><trkpt lat="45.56170934987232" lon="8.242186097600369"><ele>245.33333333333334</ele><time>2026-04-11T15:10:20Z</time></trkpt><trkpt lat="45.561630995238396" lon="8.242116258631329"><ele>245.0</ele><time>2026-04-11T15:10:21Z</time></trkpt><trkpt lat="45.56154344161292" lon="8.24204415727677"><ele>244.5</ele><time>2026-04-11T15:10:22Z</time></trkpt><trkpt lat="45.561448147232454" lon="8.241969984953883"><ele>244.0</ele><time>2026-04-11T15:10:23Z</time></trkpt><trkpt lat="45.56134871661157" lon="8.241894121746071"><ele>243.5</ele><time>2026-04-11T15:10:23.999Z</time></trkpt><trkpt lat="45.56124696929363" lon="8.24181369662378"><ele>243.0</ele><time>2026-04-11T15:10:24.999Z</time></trkpt><trkpt lat="45.56114437784964" lon="8.241730494240196"><ele>242.75</ele><time>2026-04-11T15:10:25.999Z</time></trkpt><trkpt lat="45.56103957869392" lon="8.241645895943236"><ele>242.5</ele><time>2026-04-11T15:10:26.999Z</time></trkpt><trkpt lat="45.56093240992503" lon="8.241561703831264"><ele>242.25</ele><time>2026-04-11T15:10:27.999Z</time></trkpt><trkpt lat="45.560825680243475" lon="8.241479941998517"><ele>242.0</ele><time>2026-04-11T15:10:28.999Z</time></trkpt><trkpt lat="45.5607233738494" lon="8.241399803090994"><ele>242.00000000000003</ele><time>2026-04-11T15:10:29.999Z</time></trkpt><trkpt lat="45.5606283493574" lon="8.241324484284705"><ele>242.0</ele><time>2026-04-11T15:10:30.999Z</time></trkpt><trkpt lat="45.5605500945688" lon="8.241256295717008"><ele>242.0</ele><time>2026-04-11T15:10:31.999Z</time></trkpt><trkpt lat="45.560505933099925" lon="8.24117629681453"><ele>242.0</ele><time>2026-04-11T15:10:32.999Z</time></trkpt><trkpt lat="45.56046939931507" lon="8.241080432380402"><ele>242.00000000000003</ele><time>2026-04-11T15:10:33.999Z</time></trkpt><trkpt lat="45.560423802087996" lon="8.241004828957896"><ele>242.0</ele><time>2026-04-11T15:10:34.999Z</time></trkpt><trkpt lat="45.56035076438288" lon="8.240975741652967"><ele>242.00000000000003</ele><time>2026-04-11T15:10:35.999Z</time></trkpt><trkpt lat="45.56028440368543" lon="8.240997920424023"><ele>242.0</ele><time>2026-04-11T15:10:36.999Z</time></trkpt><trkpt lat="45.560228800258734" lon="8.24105575049886"><ele>242.0</ele><time>2026-04-11T15:10:37.999Z</time></trkpt><trkpt lat="45.56016650246903" lon="8.24110783182461"><ele>242.0</ele><time>2026-04-11T15:10:38.999Z</time></trkpt><trkpt lat="45.56008181827834" lon="8.241124744863335"><ele>242.00000000000003</ele><time>2026-04-11T15:10:39.999Z</time></trkpt><trkpt lat="45.55998662905352" lon="8.241140155257346"><ele>242.0</ele><time>2026-04-11T15:10:40.999Z</time></trkpt><trkpt lat="45.55988367261721" lon="8.241156381513239"><ele>242.0</ele><time>2026-04-11T15:10:41.999Z</time></trkpt><trkpt lat="45.55977103675963" lon="8.241172758155155"><ele>242.0</ele><time>2026-04-11T15:10:42.999Z</time></trkpt><trkpt lat="45.55965258186967" lon="8.241190640635049"><ele>242.0</ele><time>2026-04-11T15:10:43.999Z</time></trkpt><trkpt lat="45.55952897182358" lon="8.241211033315002"><ele>242.0</ele><time>2026-04-11T15:10:44.999Z</time></trkpt><trkpt lat="45.55940152341239" lon="8.241232626349273"><ele>241.5</ele><time>2026-04-11T15:10:45.999Z</time></trkpt><trkpt lat="45.55927176423865" lon="8.241252263239495"><ele>241.0</ele><time>2026-04-11T15:10:46.999Z</time></trkpt><trkpt lat="45.55914320266839" lon="8.241273204364534"><ele>240.5</ele><time>2026-04-11T15:10:47.999Z</time></trkpt><trkpt lat="45.55901550867195" lon="8.241294167600186"><ele>240.0</ele><time>2026-04-11T15:10:48.999Z</time></trkpt><trkpt lat="45.55888663396336" lon="8.241315610611199"><ele>240.0</ele><time>2026-04-11T15:10:49.999Z</time></trkpt><trkpt lat="45.558757445332134" lon="8.241338372621977"><ele>240.0</ele><time>2026-04-11T15:10:50.999Z</time></trkpt><trkpt lat="45.558627414392575" lon="8.241361430321179"><ele>240.0</ele><time>2026-04-11T15:10:51.999Z</time></trkpt><trkpt lat="45.55849611118375" lon="8.241381945884386"><ele>240.0</ele><time>2026-04-11T15:10:52.999Z</time></trkpt><trkpt lat="45.55836456672755" lon="8.241403849250396"><ele>239.75</ele><time>2026-04-11T15:10:53.999Z</time></trkpt><trkpt lat="45.55823233466857" lon="8.241423323545138"><ele>239.5</ele><time>2026-04-11T15:10:54.999Z</time></trkpt><trkpt lat="45.55809958396487" lon="8.241442968512708"><ele>239.25</ele><time>2026-04-11T15:10:55.999Z</time></trkpt><trkpt lat="45.5579674837522" lon="8.24146290512313"><ele>239.0</ele><time>2026-04-11T15:10:56.999Z</time></trkpt><trkpt lat="45.55783628732466" lon="8.241484204965648"><ele>239.0</ele><time>2026-04-11T15:10:57.999Z</time></trkpt><trkpt lat="45.55770509962875" lon="8.241504182093221"><ele>239.0</ele><time>2026-04-11T15:10:58.999Z</time></trkpt><trkpt lat="45.55757442525483" lon="8.241520062921381"><ele>239.0</ele><time>2026-04-11T15:10:59.999Z</time></trkpt><trkpt lat="45.55744517920834" lon="8.241535493531442"><ele>239.0</ele><time>2026-04-11T15:11:00.999Z</time></trkpt><trkpt lat="45.55731613004602" lon="8.241554144031262"><ele>239.0</ele><time>2026-04-11T15:11:01.999Z</time></trkpt><trkpt lat="45.557188023932966" lon="8.24157604223485"><ele>239.0</ele><time>2026-04-11T15:11:02.999Z</time></trkpt><trkpt lat="45.55705948711585" lon="8.241598925130594"><ele>239.0</ele><time>2026-04-11T15:11:03.999Z</time></trkpt><trkpt lat="45.55693193415499" lon="8.241621037248692"><ele>239.0</ele><time>2026-04-11T15:11:04.999Z</time></trkpt><trkpt lat="45.55680319099001" lon="8.241640863135917"><ele>239.75</ele><time>2026-04-11T15:11:05.999Z</time></trkpt><trkpt lat="45.55667397710612" lon="8.241659434044912"><ele>240.5</ele><time>2026-04-11T15:11:06.999Z</time></trkpt><trkpt lat="45.556545517018186" lon="8.241680232166637"><ele>241.25</ele><time>2026-04-11T15:11:07.999Z</time></trkpt><trkpt lat="45.5564158471337" lon="8.24170109140866"><ele>242.0</ele><time>2026-04-11T15:11:08.999Z</time></trkpt><trkpt lat="45.556285350869466" lon="8.241721683675497"><ele>242.0</ele><time>2026-04-11T15:11:09.999Z</time></trkpt><trkpt lat="45.55615495782744" lon="8.241742349895071"><ele>242.0</ele><time>2026-04-11T15:11:10.999Z</time></trkpt><trkpt lat="45.556024228317185" lon="8.241762512334654"><ele>242.0</ele><time>2026-04-11T15:11:11.999Z</time></trkpt><trkpt lat="45.55589347263344" lon="8.241782093621913"><ele>242.0</ele><time>2026-04-11T15:11:12.999Z</time></trkpt><trkpt lat="45.555761704292344" lon="8.24180263149054"><ele>242.0</ele><time>2026-04-11T15:11:13.999Z</time></trkpt><trkpt lat="45.55563013903554" lon="8.24182442615005"><ele>242.0</ele><time>2026-04-11T15:11:14.999Z</time></trkpt><trkpt lat="45.55549922723477" lon="8.241846820672736"><ele>242.0</ele><time>2026-04-11T15:11:15.999Z</time></trkpt><trkpt lat="45.555370441889" lon="8.241868998434544"><ele>242.0</ele><time>2026-04-11T15:11:16.999Z</time></trkpt><trkpt lat="45.555244749982336" lon="8.241893213783149"><ele>241.5</ele><time>2026-04-11T15:11:17.999Z</time></trkpt><trkpt lat="45.55511978893438" lon="8.24191615072661"><ele>241.0</ele><time>2026-04-11T15:11:18.999Z</time></trkpt><trkpt lat="45.55499459718195" lon="8.24193870971489"><ele>240.5</ele><time>2026-04-11T15:11:19.999Z</time></trkpt><trkpt lat="45.55487547465897" lon="8.241958223676061"><ele>240.0</ele><time>2026-04-11T15:11:20.999Z</time></trkpt><trkpt lat="45.55476736130054" lon="8.241976225274179"><ele>240.0</ele><time>2026-04-11T15:11:21.999Z</time></trkpt><trkpt lat="45.55466219903454" lon="8.2419894234467"><ele>240.0</ele><time>2026-04-11T15:11:22.999Z</time></trkpt><trkpt lat="45.55456263411747" lon="8.242000474206337"><ele>240.0</ele><time>2026-04-11T15:11:23.999Z</time></trkpt><trkpt lat="45.554473571218296" lon="8.242009283594275"><ele>240.0</ele><time>2026-04-11T15:11:24.999Z</time></trkpt><trkpt lat="45.55438784630414" lon="8.242017985536863"><ele>240.0</ele><time>2026-04-11T15:11:25.999Z</time></trkpt><trkpt lat="45.554299365036776" lon="8.242028041602069"><ele>240.4</ele><time>2026-04-11T15:11:26.999Z</time></trkpt><trkpt lat="45.5542065957003" lon="8.242041315161758"><ele>240.8</ele><time>2026-04-11T15:11:27.999Z</time></trkpt><trkpt lat="45.554109581863074" lon="8.242054435918115"><ele>241.2</ele><time>2026-04-11T15:11:28.999Z</time></trkpt><trkpt lat="45.55401048639445" lon="8.24206810021589"><ele>241.6</ele><time>2026-04-11T15:11:29.998Z</time></trkpt><trkpt lat="45.55390959170271" lon="8.242079519203372"><ele>242.0</ele><time>2026-04-11T15:11:30.998Z</time></trkpt><trkpt lat="45.55380967591902" lon="8.242091647232671"><ele>242.0</ele><time>2026-04-11T15:11:31.998Z</time></trkpt><trkpt lat="45.55371087813907" lon="8.242104117025402"><ele>242.0</ele><time>2026-04-11T15:11:32.998Z</time></trkpt><trkpt lat="45.55361423184798" lon="8.242114862135054"><ele>242.0</ele><time>2026-04-11T15:11:33.998Z</time></trkpt><trkpt lat="45.55352116778805" lon="8.24211970116359"><ele>242.0</ele><time>2026-04-11T15:11:34.998Z</time></trkpt><trkpt lat="45.55343102376302" lon="8.24211638534049"><ele>242.0</ele><time>2026-04-11T15:11:35.998Z</time></trkpt><trkpt lat="45.55334981990881" lon="8.242105042213929"><ele>241.28571428571428</ele><time>2026-04-11T15:11:36.998Z</time></trkpt><trkpt lat="45.55327044020627" lon="8.242084566707266"><ele>240.57142857142856</ele><time>2026-04-11T15:11:38Z</time></trkpt><trkpt lat="45.553197029676355" lon="8.2420557445343"><ele>239.85714285714283</ele><time>2026-04-11T15:11:39Z</time></trkpt><trkpt lat="45.55312865014158" lon="8.24202149489929"><ele>239.1428571428571</ele><time>2026-04-11T15:11:40Z</time></trkpt><trkpt lat="45.55307213932954" lon="8.24197794407267"><ele>238.42857142857142</ele><time>2026-04-11T15:11:41Z</time></trkpt><trkpt lat="45.55302486250471" lon="8.241908443147869"><ele>237.71428571428567</ele><time>2026-04-11T15:11:42Z</time></trkpt><trkpt lat="45.552973984577875" lon="8.24185445493139"><ele>236.99999999999997</ele><time>2026-04-11T15:11:43Z</time></trkpt><trkpt lat="45.552969615137606" lon="8.241703805548019"><ele>237.0</ele><time>2026-04-11T15:11:44Z</time></trkpt><trkpt lat="45.55294680774573" lon="8.241585593038439"><ele>237.0</ele><time>2026-04-11T15:11:45Z</time></trkpt><trkpt lat="45.552909288298004" lon="8.241471093727723"><ele>237.0</ele><time>2026-04-11T15:11:46Z</time></trkpt><trkpt lat="45.5528555376279" lon="8.241369179662652"><ele>237.0</ele><time>2026-04-11T15:11:47Z</time></trkpt><trkpt lat="45.55278699331497" lon="8.241287935263244"><ele>237.0</ele><time>2026-04-11T15:11:48Z</time></trkpt><trkpt lat="45.55270776260556" lon="8.241236144925896"><ele>237.0</ele><time>2026-04-11T15:11:49Z</time></trkpt><trkpt lat="45.552621517321654" lon="8.24121272444035"><ele>236.83333333333334</ele><time>2026-04-11T15:11:50Z</time></trkpt><trkpt lat="45.552535846067464" lon="8.241222108715002"><ele>236.66666666666669</ele><time>2026-04-11T15:11:51Z</time></trkpt><trkpt lat="45.55245682714516" lon="8.241264310273468"><ele>236.5</ele><time>2026-04-11T15:11:52Z</time></trkpt><trkpt lat="45.55238788006777" lon="8.241331099015774"><ele>236.33333333333334</ele><time>2026-04-11T15:11:53Z</time></trkpt><trkpt lat="45.55233477292498" lon="8.241420974374652"><ele>236.16666666666669</ele><time>2026-04-11T15:11:54Z</time></trkpt><trkpt lat="45.55230071511744" lon="8.241527538843576"><ele>236.0</ele><time>2026-04-11T15:11:55Z</time></trkpt><trkpt lat="45.55228595050075" lon="8.241644598045765"><ele>236.00000000000003</ele><time>2026-04-11T15:11:56Z</time></trkpt><trkpt lat="45.552281842556475" lon="8.24176693054832"><ele>236.0</ele><time>2026-04-11T15:11:57Z</time></trkpt><trkpt lat="45.552273206463774" lon="8.241891674193162"><ele>236.0</ele><time>2026-04-11T15:11:58Z</time></trkpt><trkpt lat="45.55225698491431" lon="8.242011861755543"><ele>236.0</ele><time>2026-04-11T15:11:59Z</time></trkpt><trkpt lat="45.55222530694761" lon="8.242124521987906"><ele>236.00000000000003</ele><time>2026-04-11T15:12:00Z</time></trkpt><trkpt lat="45.552174087539605" lon="8.24222361909228"><ele>236.0</ele><time>2026-04-11T15:12:01Z</time></trkpt><trkpt lat="45.55210583520312" lon="8.242299307865743"><ele>235.8</ele><time>2026-04-11T15:12:02Z</time></trkpt><trkpt lat="45.55202356182368" lon="8.242353199890367"><ele>235.60000000000002</ele><time>2026-04-11T15:12:03Z</time></trkpt><trkpt lat="45.551931039379234" lon="8.242396255309657"><ele>235.4</ele><time>2026-04-11T15:12:04Z</time></trkpt><trkpt lat="45.551832067986986" lon="8.242431646871802"><ele>235.2</ele><time>2026-04-11T15:12:05Z</time></trkpt><trkpt lat="45.55172644598501" lon="8.242455125660362"><ele>235.0</ele><time>2026-04-11T15:12:06Z</time></trkpt><trkpt lat="45.55161490122712" lon="8.2424765274943"><ele>235.0</ele><time>2026-04-11T15:12:07Z</time></trkpt><trkpt lat="45.551497856636125" lon="8.242495695198054"><ele>235.0</ele><time>2026-04-11T15:12:08Z</time></trkpt><trkpt lat="45.55137665517625" lon="8.242513890106283"><ele>235.0</ele><time>2026-04-11T15:12:09Z</time></trkpt><trkpt lat="45.55125253542767" lon="8.242533047217453"><ele>235.0</ele><time>2026-04-11T15:12:10Z</time></trkpt><trkpt lat="45.551127811526904" lon="8.242554200467122"><ele>235.5</ele><time>2026-04-11T15:12:11Z</time></trkpt><trkpt lat="45.55100303596211" lon="8.242575923801374"><ele>236.0</ele><time>2026-04-11T15:12:12Z</time></trkpt><trkpt lat="45.550878395618916" lon="8.242594380985151"><ele>236.5</ele><time>2026-04-11T15:12:13Z</time></trkpt><trkpt lat="45.55076047052233" lon="8.242613591181254"><ele>237.0</ele><time>2026-04-11T15:12:14Z</time></trkpt><trkpt lat="45.55065653242385" lon="8.242633310072826"><ele>237.0</ele><time>2026-04-11T15:12:15Z</time></trkpt><trkpt lat="45.550570358039536" lon="8.242653561828652"><ele>237.0</ele><time>2026-04-11T15:12:16Z</time></trkpt><trkpt lat="45.55050599646686" lon="8.242641335395211"><ele>237.0</ele><time>2026-04-11T15:12:17Z</time></trkpt><trkpt lat="45.55052880951781" lon="8.243053381724518"><ele>237.0</ele><time>2026-04-11T15:12:22Z</time></trkpt><trkpt lat="45.55054783989583" lon="8.243162885572"><ele>237.0</ele><time>2026-04-11T15:12:23Z</time></trkpt><trkpt lat="45.550560594870156" lon="8.24328731807726"><ele>237.0</ele><time>2026-04-11T15:12:24Z</time></trkpt><trkpt lat="45.55057485804064" lon="8.243419218162815"><ele>237.0</ele><time>2026-04-11T15:12:24.999Z</time></trkpt><trkpt lat="45.55058949033646" lon="8.24355210224042"><ele>237.0</ele><time>2026-04-11T15:12:25.999Z</time></trkpt><trkpt lat="45.55060607759635" lon="8.243682321618822"><ele>237.0</ele><time>2026-04-11T15:12:26.999Z</time></trkpt><trkpt lat="45.550621223490076" lon="8.24381676153212"><ele>237.0</ele><time>2026-04-11T15:12:27.999Z</time></trkpt><trkpt lat="45.5506361364814" lon="8.243955868055114"><ele>237.0</ele><time>2026-04-11T15:12:28.999Z</time></trkpt><trkpt lat="45.55065424101713" lon="8.244088618520445"><ele>237.0</ele><time>2026-04-11T15:12:29.999Z</time></trkpt><trkpt lat="45.550661581575405" lon="8.244206152953922"><ele>237.0</ele><time>2026-04-11T15:12:30.999Z</time></trkpt><trkpt lat="45.55067304397046" lon="8.244325725813804"><ele>237.0</ele><time>2026-04-11T15:12:31.999Z</time></trkpt><trkpt lat="45.55068803831383" lon="8.244440917026644"><ele>237.0</ele><time>2026-04-11T15:12:32.999Z</time></trkpt><trkpt lat="45.55070375786916" lon="8.244557316501606"><ele>236.83333333333334</ele><time>2026-04-11T15:12:33.999Z</time></trkpt><trkpt lat="45.55071402174682" lon="8.244683458760035"><ele>236.66666666666669</ele><time>2026-04-11T15:12:34.999Z</time></trkpt><trkpt lat="45.55072758259102" lon="8.244811067791211"><ele>236.5</ele><time>2026-04-11T15:12:35.999Z</time></trkpt><trkpt lat="45.55074281787758" lon="8.244940662909919"><ele>236.33333333333334</ele><time>2026-04-11T15:12:36.999Z</time></trkpt><trkpt lat="45.55075503871059" lon="8.24506635140039"><ele>236.16666666666669</ele><time>2026-04-11T15:12:37.999Z</time></trkpt><trkpt lat="45.55076499170312" lon="8.245188749850366"><ele>236.0</ele><time>2026-04-11T15:12:38.999Z</time></trkpt><trkpt lat="45.55077967105954" lon="8.24530274695914"><ele>236.0</ele><time>2026-04-11T15:12:39.999Z</time></trkpt><trkpt lat="45.55079118924037" lon="8.245410653595776"><ele>236.0</ele><time>2026-04-11T15:12:40.999Z</time></trkpt><trkpt lat="45.550802607216056" lon="8.245513376137426"><ele>236.0</ele><time>2026-04-11T15:12:41.999Z</time></trkpt><trkpt lat="45.55081661536713" lon="8.245612838687235"><ele>236.0</ele><time>2026-04-11T15:12:42.999Z</time></trkpt><trkpt lat="45.55082535893321" lon="8.245710228885965"><ele>236.0</ele><time>2026-04-11T15:12:43.999Z</time></trkpt><trkpt lat="45.55083656860796" lon="8.245804795666109"><ele>236.0</ele><time>2026-04-11T15:12:44.999Z</time></trkpt><trkpt lat="45.55084902182263" lon="8.245900785803613"><ele>236.0</ele><time>2026-04-11T15:12:45.999Z</time></trkpt><trkpt lat="45.550860429765784" lon="8.24599843038601"><ele>236.0</ele><time>2026-04-11T15:12:46.999Z</time></trkpt><trkpt lat="45.55087872759572" lon="8.24609570202249"><ele>236.0</ele><time>2026-04-11T15:12:47.999Z</time></trkpt><trkpt lat="45.55091287636233" lon="8.246183831902261"><ele>236.0</ele><time>2026-04-11T15:12:48.999Z</time></trkpt><trkpt lat="45.550963574599855" lon="8.246241637670172"><ele>236.0</ele><time>2026-04-11T15:12:49.999Z</time></trkpt><trkpt lat="45.551030564639085" lon="8.246241887493982"><ele>236.0</ele><time>2026-04-11T15:12:50.999Z</time></trkpt><trkpt lat="45.55109751855042" lon="8.246216735733201"><ele>236.0</ele><time>2026-04-11T15:12:51.999Z</time></trkpt><trkpt lat="45.5511677908752" lon="8.24619516556568"><ele>236.0</ele><time>2026-04-11T15:12:52.999Z</time></trkpt><trkpt lat="45.55124289850008" lon="8.246183678799941"><ele>236.16666666666669</ele><time>2026-04-11T15:12:53.999Z</time></trkpt><trkpt lat="45.55132133383594" lon="8.246177061530682"><ele>236.33333333333334</ele><time>2026-04-11T15:12:54.999Z</time></trkpt><trkpt lat="45.551399132164505" lon="8.246162122035429"><ele>236.5</ele><time>2026-04-11T15:12:55.999Z</time></trkpt><trkpt lat="45.55147306057207" lon="8.24613950493257"><ele>236.66666666666669</ele><time>2026-04-11T15:12:56.999Z</time></trkpt><trkpt lat="45.55154984008975" lon="8.24611348281537"><ele>236.83333333333334</ele><time>2026-04-11T15:12:57.999Z</time></trkpt><trkpt lat="45.551629897952935" lon="8.246088892189038"><ele>237.0</ele><time>2026-04-11T15:12:58.999Z</time></trkpt><trkpt lat="45.551713685462595" lon="8.24607202045891"><ele>237.0</ele><time>2026-04-11T15:12:59.999Z</time></trkpt><trkpt lat="45.55180134458319" lon="8.246054767638503"><ele>237.0</ele><time>2026-04-11T15:13:00.999Z</time></trkpt><trkpt lat="45.55188851309889" lon="8.246033705743912"><ele>237.0</ele><time>2026-04-11T15:13:01.999Z</time></trkpt><trkpt lat="45.55197832799474" lon="8.246011302191752"><ele>237.0</ele><time>2026-04-11T15:13:02.999Z</time></trkpt><trkpt lat="45.552069906109665" lon="8.245991587016917"><ele>237.0</ele><time>2026-04-11T15:13:03.999Z</time></trkpt><trkpt lat="45.55216134604581" lon="8.245978121806685"><ele>237.0</ele><time>2026-04-11T15:13:04.999Z</time></trkpt><trkpt lat="45.552252409791315" lon="8.245968583647036"><ele>237.0</ele><time>2026-04-11T15:13:05.999Z</time></trkpt><trkpt lat="45.55233737801812" lon="8.245956532099138"><ele>237.0</ele><time>2026-04-11T15:13:06.999Z</time></trkpt><trkpt lat="45.55241192004304" lon="8.24594494993871"><ele>237.0</ele><time>2026-04-11T15:13:07.999Z</time></trkpt><trkpt lat="45.55248852638932" lon="8.245932336082587"><ele>237.0</ele><time>2026-04-11T15:13:08.999Z</time></trkpt><trkpt lat="45.55257408502604" lon="8.245908672184411"><ele>237.0</ele><time>2026-04-11T15:13:09.999Z</time></trkpt><trkpt lat="45.5526566728024" lon="8.24589796396138"><ele>237.0</ele><time>2026-04-11T15:13:10.999Z</time></trkpt><trkpt lat="45.552733710320595" lon="8.245885536628109"><ele>237.0</ele><time>2026-04-11T15:13:11.999Z</time></trkpt><trkpt lat="45.552803088989606" lon="8.245851108810815"><ele>237.0</ele><time>2026-04-11T15:13:12.999Z</time></trkpt><trkpt lat="45.55286081071943" lon="8.245804371143562"><ele>237.0</ele><time>2026-04-11T15:13:13.999Z</time></trkpt><trkpt lat="45.55292568006467" lon="8.245788440667926"><ele>237.0</ele><time>2026-04-11T15:13:14.999Z</time></trkpt><trkpt lat="45.55302295778454" lon="8.245879656480188"><ele>237.0</ele><time>2026-04-11T15:13:16.999Z</time></trkpt><trkpt lat="45.55304230901467" lon="8.245968040766012"><ele>237.16666666666666</ele><time>2026-04-11T15:13:17.999Z</time></trkpt><trkpt lat="45.55304032231023" lon="8.246067394457656"><ele>237.33333333333331</ele><time>2026-04-11T15:13:18.999Z</time></trkpt><trkpt lat="45.553044841955284" lon="8.246172290599517"><ele>237.5</ele><time>2026-04-11T15:13:19.999Z</time></trkpt><trkpt lat="45.55305897918682" lon="8.24628330331864"><ele>237.66666666666666</ele><time>2026-04-11T15:13:20.999Z</time></trkpt><trkpt lat="45.55307460262831" lon="8.246403582764763"><ele>237.83333333333331</ele><time>2026-04-11T15:13:21.999Z</time></trkpt><trkpt lat="45.55308858791769" lon="8.246532218550609"><ele>238.0</ele><time>2026-04-11T15:13:22.999Z</time></trkpt><trkpt lat="45.553100408921715" lon="8.246659411502108"><ele>238.16666666666666</ele><time>2026-04-11T15:13:23.999Z</time></trkpt><trkpt lat="45.55311569438802" lon="8.246779887930808"><ele>238.33333333333331</ele><time>2026-04-11T15:13:24.999Z</time></trkpt><trkpt lat="45.553128460266954" lon="8.246890676314512"><ele>238.5</ele><time>2026-04-11T15:13:25.999Z</time></trkpt><trkpt lat="45.55314664034801" lon="8.24699001540834"><ele>238.66666666666669</ele><time>2026-04-11T15:13:26.999Z</time></trkpt><trkpt lat="45.553151452781975" lon="8.24708799666564"><ele>238.83333333333334</ele><time>2026-04-11T15:13:27.999Z</time></trkpt><trkpt lat="45.5531527422898" lon="8.24719593578841"><ele>239.0</ele><time>2026-04-11T15:13:28.999Z</time></trkpt><trkpt lat="45.553163853979875" lon="8.247312625982028"><ele>239.16666666666669</ele><time>2026-04-11T15:13:29.999Z</time></trkpt><trkpt lat="45.55318136103829" lon="8.247429100515829"><ele>239.33333333333334</ele><time>2026-04-11T15:13:30.998Z</time></trkpt><trkpt lat="45.55320076958333" lon="8.247543251879543"><ele>239.5</ele><time>2026-04-11T15:13:31.998Z</time></trkpt><trkpt lat="45.553217043988354" lon="8.247658487570954"><ele>239.66666666666669</ele><time>2026-04-11T15:13:32.998Z</time></trkpt><trkpt lat="45.55322650079919" lon="8.247779341103163"><ele>239.83333333333334</ele><time>2026-04-11T15:13:33.998Z</time></trkpt><trkpt lat="45.55323526198836" lon="8.247899774865793"><ele>240.0</ele><time>2026-04-11T15:13:34.998Z</time></trkpt><trkpt lat="45.553248573748846" lon="8.248017865908656"><ele>240.0</ele><time>2026-04-11T15:13:35.998Z</time></trkpt><trkpt lat="45.55326797715556" lon="8.248124334078552"><ele>240.0</ele><time>2026-04-11T15:13:36.998Z</time></trkpt><trkpt lat="45.55328029338085" lon="8.248238815659608"><ele>240.0</ele><time>2026-04-11T15:13:37.998Z</time></trkpt><trkpt lat="45.55328878973984" lon="8.248356440888056"><ele>240.0</ele><time>2026-04-11T15:13:38.998Z</time></trkpt><trkpt lat="45.55330069652936" lon="8.24846845560513"><ele>240.0</ele><time>2026-04-11T15:13:39.998Z</time></trkpt><trkpt lat="45.553310201248024" lon="8.248569559133971"><ele>240.0</ele><time>2026-04-11T15:13:40.998Z</time></trkpt><trkpt lat="45.55332139155481" lon="8.248735569592021"><ele>240.0</ele><time>2026-04-11T15:13:42.998Z</time></trkpt><trkpt lat="45.55340042387286" lon="8.248815735157997"><ele>240.0</ele><time>2026-04-11T15:13:45Z</time></trkpt><trkpt lat="45.553531287811644" lon="8.248811137562656"><ele>240.0</ele><time>2026-04-11T15:13:47Z</time></trkpt><trkpt lat="45.55360600251443" lon="8.248788366048707"><ele>240.0</ele><time>2026-04-11T15:13:48Z</time></trkpt><trkpt lat="45.553687498854" lon="8.248765962907349"><ele>240.0</ele><time>2026-04-11T15:13:49Z</time></trkpt><trkpt lat="45.553776456134706" lon="8.248740693389598"><ele>239.8</ele><time>2026-04-11T15:13:50Z</time></trkpt><trkpt lat="45.55386934982134" lon="8.24871295597004"><ele>239.6</ele><time>2026-04-11T15:13:51Z</time></trkpt><trkpt lat="45.55396363577898" lon="8.248687223275388"><ele>239.39999999999998</ele><time>2026-04-11T15:13:52Z</time></trkpt><trkpt lat="45.55406249148461" lon="8.248664043411246"><ele>239.2</ele><time>2026-04-11T15:13:53Z</time></trkpt><trkpt lat="45.55416123699322" lon="8.24864102445098"><ele>239.0</ele><time>2026-04-11T15:13:54Z</time></trkpt><trkpt lat="45.55426059360131" lon="8.248619526830499"><ele>239.0</ele><time>2026-04-11T15:13:55Z</time></trkpt><trkpt lat="45.55436111211108" lon="8.24860292807157"><ele>238.99999999999997</ele><time>2026-04-11T15:13:56Z</time></trkpt><trkpt lat="45.55446317225381" lon="8.24858555446591"><ele>238.99999999999997</ele><time>2026-04-11T15:13:57Z</time></trkpt><trkpt lat="45.554565546353786" lon="8.248562516483227"><ele>239.0</ele><time>2026-04-11T15:13:58Z</time></trkpt><trkpt lat="45.55466625152357" lon="8.248538871460367"><ele>239.0</ele><time>2026-04-11T15:13:59Z</time></trkpt><trkpt lat="45.55476719925272" lon="8.248513599998333"><ele>238.79999999999998</ele><time>2026-04-11T15:14:00Z</time></trkpt><trkpt lat="45.554868821171425" lon="8.248494031199366"><ele>238.59999999999997</ele><time>2026-04-11T15:14:01Z</time></trkpt><trkpt lat="45.5549668034298" lon="8.24847340121286"><ele>238.4</ele><time>2026-04-11T15:14:02Z</time></trkpt><trkpt lat="45.555058157358346" lon="8.248452841208502"><ele>238.2</ele><time>2026-04-11T15:14:03Z</time></trkpt><trkpt lat="45.55514411953644" lon="8.24843992220437"><ele>238.0</ele><time>2026-04-11T15:14:04Z</time></trkpt><trkpt lat="45.555225299289454" lon="8.248423294757023"><ele>238.0</ele><time>2026-04-11T15:14:05Z</time></trkpt><trkpt lat="45.555290873721034" lon="8.248415298215626"><ele>238.0</ele><time>2026-04-11T15:14:06Z</time></trkpt><trkpt lat="45.555391828514445" lon="8.248443285426646"><ele>238.0</ele><time>2026-04-11T15:14:08Z</time></trkpt><trkpt lat="45.55543898509381" lon="8.248637899882436"><ele>238.0</ele><time>2026-04-11T15:14:13Z</time></trkpt><trkpt lat="45.55545621871536" lon="8.248767775852768"><ele>238.0</ele><time>2026-04-11T15:14:15Z</time></trkpt><trkpt lat="45.555463494879284" lon="8.248922063838712"><ele>238.16666666666666</ele><time>2026-04-11T15:14:17Z</time></trkpt><trkpt lat="45.55547596360484" lon="8.249077703429297"><ele>238.33333333333331</ele><time>2026-04-11T15:14:19Z</time></trkpt><trkpt lat="45.55548915599421" lon="8.24925104007468"><ele>238.5</ele><time>2026-04-11T15:14:21Z</time></trkpt><trkpt lat="45.555499635050225" lon="8.249346771545017"><ele>238.66666666666669</ele><time>2026-04-11T15:14:22Z</time></trkpt><trkpt lat="45.555514418157244" lon="8.249448058428449"><ele>238.83333333333334</ele><time>2026-04-11T15:14:23Z</time></trkpt><trkpt lat="45.55552763196305" lon="8.24955145267247"><ele>239.0</ele><time>2026-04-11T15:14:24Z</time></trkpt><trkpt lat="45.55554112054184" lon="8.249660816584964"><ele>239.00000000000003</ele><time>2026-04-11T15:14:25Z</time></trkpt><trkpt lat="45.5555552852068" lon="8.249771598821185"><ele>239.0</ele><time>2026-04-11T15:14:26Z</time></trkpt><trkpt lat="45.55556751302187" lon="8.249883408813098"><ele>239.0</ele><time>2026-04-11T15:14:26.999Z</time></trkpt><trkpt lat="45.55557964608846" lon="8.249986846083281"><ele>239.0</ele><time>2026-04-11T15:14:27.999Z</time></trkpt><trkpt lat="45.55559309211521" lon="8.250081678962221"><ele>239.00000000000003</ele><time>2026-04-11T15:14:28.999Z</time></trkpt><trkpt lat="45.55560058118853" lon="8.250207012146532"><ele>239.0</ele><time>2026-04-11T15:14:30.999Z</time></trkpt><trkpt lat="45.55560044580508" lon="8.250308982478826"><ele>239.00000000000003</ele><time>2026-04-11T15:14:32.999Z</time></trkpt><trkpt lat="45.55562692214005" lon="8.250468051488395"><ele>239.0</ele><time>2026-04-11T15:14:34.999Z</time></trkpt><trkpt lat="45.55562461193809" lon="8.250561222849633"><ele>239.0</ele><time>2026-04-11T15:14:35.999Z</time></trkpt><trkpt lat="45.55562746063323" lon="8.25065898959287"><ele>239.0</ele><time>2026-04-11T15:14:36.999Z</time></trkpt><trkpt lat="45.55564085185881" lon="8.250763123197574"><ele>239.00000000000003</ele><time>2026-04-11T15:14:37.999Z</time></trkpt><trkpt lat="45.55566307718391" lon="8.250907687054628"><ele>239.0</ele><time>2026-04-11T15:14:39.999Z</time></trkpt><trkpt lat="45.555675354975406" lon="8.25102963178856"><ele>239.00000000000003</ele><time>2026-04-11T15:14:41.999Z</time></trkpt><trkpt lat="45.5556848057734" lon="8.251169528227475"><ele>239.0</ele><time>2026-04-11T15:14:43.999Z</time></trkpt><trkpt lat="45.55569805940546" lon="8.251298305447632"><ele>239.0</ele><time>2026-04-11T15:14:45.999Z</time></trkpt><trkpt lat="45.555707046271856" lon="8.251418590945638"><ele>239.0</ele><time>2026-04-11T15:14:48.999Z</time></trkpt><trkpt lat="45.5557254157435" lon="8.251518903510267"><ele>239.00000000000003</ele><time>2026-04-11T15:14:50.999Z</time></trkpt><trkpt lat="45.555747008147215" lon="8.251649000480876"><ele>239.0</ele><time>2026-04-11T15:14:53.999Z</time></trkpt><trkpt lat="45.55577975447502" lon="8.251785477069252"><ele>238.83333333333334</ele><time>2026-04-11T15:14:56.999Z</time></trkpt><trkpt lat="45.555787817046195" lon="8.251974463846942"><ele>238.66666666666669</ele><time>2026-04-11T15:14:58.999Z</time></trkpt><trkpt lat="45.55580069012802" lon="8.252074037236541"><ele>238.5</ele><time>2026-04-11T15:14:59.999Z</time></trkpt><trkpt lat="45.5558118766773" lon="8.252175857809148"><ele>238.33333333333331</ele><time>2026-04-11T15:15:00.999Z</time></trkpt><trkpt lat="45.55582359089239" lon="8.252285524707386"><ele>238.16666666666666</ele><time>2026-04-11T15:15:01.999Z</time></trkpt><trkpt lat="45.55583292481159" lon="8.252398787037523"><ele>238.0</ele><time>2026-04-11T15:15:02.999Z</time></trkpt><trkpt lat="45.55583913640935" lon="8.252515199454171"><ele>237.99999999999997</ele><time>2026-04-11T15:15:03.999Z</time></trkpt><trkpt lat="45.555843903178406" lon="8.252627114216804"><ele>238.0</ele><time>2026-04-11T15:15:04.999Z</time></trkpt><trkpt lat="45.555852506914974" lon="8.252741508723583"><ele>238.0</ele><time>2026-04-11T15:15:05.999Z</time></trkpt><trkpt lat="45.555865068690935" lon="8.252847999374463"><ele>238.0</ele><time>2026-04-11T15:15:06.999Z</time></trkpt><trkpt lat="45.55587012416999" lon="8.252953652505925"><ele>237.99999999999997</ele><time>2026-04-11T15:15:07.999Z</time></trkpt><trkpt lat="45.555871806545845" lon="8.253056193390623"><ele>238.0</ele><time>2026-04-11T15:15:08.999Z</time></trkpt><trkpt lat="45.55587914900682" lon="8.253157691850577"><ele>238.2</ele><time>2026-04-11T15:15:09.999Z</time></trkpt><trkpt lat="45.555902895975315" lon="8.253250861220653"><ele>238.4</ele><time>2026-04-11T15:15:10.999Z</time></trkpt><trkpt lat="45.555918367141985" lon="8.253395586066006"><ele>238.59999999999997</ele><time>2026-04-11T15:15:12.999Z</time></trkpt><trkpt lat="45.55594079910796" lon="8.25352865921349"><ele>238.79999999999998</ele><time>2026-04-11T15:15:14.999Z</time></trkpt><trkpt lat="45.555959069664894" lon="8.253669793310443"><ele>239.0</ele><time>2026-04-11T15:15:16.999Z</time></trkpt><trkpt lat="45.55597104681169" lon="8.25382405839275"><ele>238.79999999999998</ele><time>2026-04-11T15:15:18.999Z</time></trkpt><trkpt lat="45.5559955011077" lon="8.253964153938803"><ele>238.59999999999997</ele><time>2026-04-11T15:15:20.999Z</time></trkpt><trkpt lat="45.55601263603268" lon="8.254129384077403"><ele>238.4</ele><time>2026-04-11T15:15:22.999Z</time></trkpt><trkpt lat="45.55603049165673" lon="8.25429470721618"><ele>238.2</ele><time>2026-04-11T15:15:24.999Z</time></trkpt><trkpt lat="45.55603773988845" lon="8.254402655701893"><ele>238.0</ele><time>2026-04-11T15:15:26.999Z</time></trkpt><trkpt lat="45.55605752461167" lon="8.254512298630894"><ele>238.0</ele><time>2026-04-11T15:15:28.999Z</time></trkpt><trkpt lat="45.55608352258658" lon="8.254605954359231"><ele>238.0</ele><time>2026-04-11T15:15:30.999Z</time></trkpt><trkpt lat="45.55601854555866" lon="8.254666476656904"><ele>238.0</ele><time>2026-04-11T15:15:33.998Z</time></trkpt><trkpt lat="45.55590652140844" lon="8.254662799892698"><ele>238.0</ele><time>2026-04-11T15:15:35.998Z</time></trkpt><trkpt lat="45.555788925022284" lon="8.25469469980824"><ele>238.0</ele><time>2026-04-11T15:15:37.998Z</time></trkpt><trkpt lat="45.555678397453455" lon="8.254725936779376"><ele>238.0</ele><time>2026-04-11T15:15:39.998Z</time></trkpt><trkpt lat="45.55561218977249" lon="8.254745882516191"><ele>238.0</ele><time>2026-04-11T15:15:42.998Z</time></trkpt><trkpt lat="45.55551717560837" lon="8.254751370496553"><ele>238.0</ele><time>2026-04-11T15:16:00Z</time></trkpt><trkpt lat="45.5554133073343" lon="8.254773450068614"><ele>238.0</ele><time>2026-04-11T15:16:02Z</time></trkpt><trkpt lat="45.55530930749946" lon="8.254785153083352"><ele>238.0</ele><time>2026-04-11T15:16:04Z</time></trkpt><trkpt lat="45.55519168757685" lon="8.2547954888907"><ele>238.14285714285714</ele><time>2026-04-11T15:16:06Z</time></trkpt><trkpt lat="45.555127067522264" lon="8.25480192245534"><ele>238.28571428571428</ele><time>2026-04-11T15:16:07Z</time></trkpt><trkpt lat="45.555060945580486" lon="8.254813478197892"><ele>238.42857142857144</ele><time>2026-04-11T15:16:08Z</time></trkpt><trkpt lat="45.55499164180243" lon="8.25481905134684"><ele>238.57142857142858</ele><time>2026-04-11T15:16:09Z</time></trkpt><trkpt lat="45.55491764946973" lon="8.254832731018098"><ele>238.71428571428572</ele><time>2026-04-11T15:16:10Z</time></trkpt><trkpt lat="45.554841425451144" lon="8.254851597751008"><ele>238.8571428571429</ele><time>2026-04-11T15:16:11Z</time></trkpt><trkpt lat="45.55476578352365" lon="8.25487147217973"><ele>239.00000000000003</ele><time>2026-04-11T15:16:12Z</time></trkpt><trkpt lat="45.55468830086766" lon="8.254884466213461"><ele>239.00000000000003</ele><time>2026-04-11T15:16:13Z</time></trkpt><trkpt lat="45.5546086906822" lon="8.254886974341446"><ele>239.0</ele><time>2026-04-11T15:16:14Z</time></trkpt><trkpt lat="45.55453038996016" lon="8.254887609447332"><ele>239.0</ele><time>2026-04-11T15:16:15Z</time></trkpt><trkpt lat="45.55445549552108" lon="8.254889422704974"><ele>239.0</ele><time>2026-04-11T15:16:16Z</time></trkpt><trkpt lat="45.55438041819235" lon="8.254896616161163"><ele>239.00000000000003</ele><time>2026-04-11T15:16:17Z</time></trkpt><trkpt lat="45.55430772479988" lon="8.254902191485897"><ele>239.0</ele><time>2026-04-11T15:16:18Z</time></trkpt><trkpt lat="45.55423797830587" lon="8.254913254428546"><ele>238.8571428571429</ele><time>2026-04-11T15:16:19Z</time></trkpt><trkpt lat="45.554166071825996" lon="8.254925232800051"><ele>238.71428571428572</ele><time>2026-04-11T15:16:20Z</time></trkpt><trkpt lat="45.554092665380274" lon="8.25493401745751"><ele>238.57142857142858</ele><time>2026-04-11T15:16:21Z</time></trkpt><trkpt lat="45.5540238557471" lon="8.254945270960658"><ele>238.42857142857144</ele><time>2026-04-11T15:16:22Z</time></trkpt><trkpt lat="45.55395367087707" lon="8.254958720595454"><ele>238.28571428571428</ele><time>2026-04-11T15:16:23Z</time></trkpt><trkpt lat="45.553882044226825" lon="8.254982946511925"><ele>238.14285714285714</ele><time>2026-04-11T15:16:24Z</time></trkpt><trkpt lat="45.553813795608434" lon="8.255013127657922"><ele>238.0</ele><time>2026-04-11T15:16:25Z</time></trkpt><trkpt lat="45.55373601506291" lon="8.255027538229026"><ele>238.33333333333331</ele><time>2026-04-11T15:16:26Z</time></trkpt><trkpt lat="45.553670720916074" lon="8.25504340966697"><ele>238.66666666666666</ele><time>2026-04-11T15:16:27Z</time></trkpt><trkpt lat="45.5536072686715" lon="8.255055330540262"><ele>239.0</ele><time>2026-04-11T15:16:28Z</time></trkpt><trkpt lat="45.55349013951519" lon="8.255084237872055"><ele>239.33333333333331</ele><time>2026-04-11T15:16:30Z</time></trkpt><trkpt lat="45.55339388614447" lon="8.255092971434085"><ele>239.66666666666666</ele><time>2026-04-11T15:16:31.999Z</time></trkpt><trkpt lat="45.5533243167795" lon="8.255090121222633"><ele>240.0</ele><time>2026-04-11T15:16:34.999Z</time></trkpt><trkpt lat="45.553251778811294" lon="8.255121983614076"><ele>240.0</ele><time>2026-04-11T15:16:37.999Z</time></trkpt><trkpt lat="45.553175079705845" lon="8.255127550929274"><ele>240.0</ele><time>2026-04-11T15:16:40.999Z</time></trkpt><trkpt lat="45.553081881082214" lon="8.255123879026756"><ele>240.0</ele><time>2026-04-11T15:16:43.999Z</time></trkpt><trkpt lat="45.55299592215589" lon="8.25513524497729"><ele>240.0</ele><time>2026-04-11T15:16:46.999Z</time></trkpt><trkpt lat="45.55293327225356" lon="8.255150255452097"><ele>240.0</ele><time>2026-04-11T15:16:48.999Z</time></trkpt><trkpt lat="45.552842314711945" lon="8.255167148062187"><ele>240.0</ele><time>2026-04-11T15:16:51.999Z</time></trkpt><trkpt lat="45.55275499300715" lon="8.255193236209225"><ele>239.5</ele><time>2026-04-11T15:16:53.999Z</time></trkpt><trkpt lat="45.55264665447364" lon="8.255222362432136"><ele>239.0</ele><time>2026-04-11T15:16:55.999Z</time></trkpt><trkpt lat="45.55258328700322" lon="8.255242749523559"><ele>238.5</ele><time>2026-04-11T15:16:56.999Z</time></trkpt><trkpt lat="45.55251729307933" lon="8.255263353673122"><ele>238.0</ele><time>2026-04-11T15:16:57.999Z</time></trkpt><trkpt lat="45.55244939217695" lon="8.255287356699508"><ele>237.5</ele><time>2026-04-11T15:16:58.999Z</time></trkpt><trkpt lat="45.55238293608417" lon="8.255312110318698"><ele>237.0</ele><time>2026-04-11T15:16:59.999Z</time></trkpt><trkpt lat="45.55230956599606" lon="8.255338258107704"><ele>237.0</ele><time>2026-04-11T15:17:00.999Z</time></trkpt><trkpt lat="45.552232506793366" lon="8.255357664377456"><ele>237.0</ele><time>2026-04-11T15:17:01.999Z</time></trkpt><trkpt lat="45.55215734333538" lon="8.25537783253174"><ele>237.0</ele><time>2026-04-11T15:17:02.999Z</time></trkpt><trkpt lat="45.552080417336526" lon="8.255398756969836"><ele>237.0</ele><time>2026-04-11T15:17:03.999Z</time></trkpt><trkpt lat="45.55200390663631" lon="8.255418703024777"><ele>237.0</ele><time>2026-04-11T15:17:04.999Z</time></trkpt><trkpt lat="45.55192440895469" lon="8.255437590219172"><ele>237.0</ele><time>2026-04-11T15:17:05.999Z</time></trkpt><trkpt lat="45.55184511082905" lon="8.255460939975812"><ele>237.0</ele><time>2026-04-11T15:17:06.999Z</time></trkpt><trkpt lat="45.55176627274385" lon="8.255486007459938"><ele>237.0</ele><time>2026-04-11T15:17:07.999Z</time></trkpt><trkpt lat="45.551685014646324" lon="8.255511353229801"><ele>237.0</ele><time>2026-04-11T15:17:08.999Z</time></trkpt><trkpt lat="45.55160596619804" lon="8.255536046309567"><ele>237.0</ele><time>2026-04-11T15:17:09.999Z</time></trkpt><trkpt lat="45.55152456729766" lon="8.25555795722113"><ele>237.0</ele><time>2026-04-11T15:17:10.999Z</time></trkpt><trkpt lat="45.55144248323371" lon="8.255575029563687"><ele>237.0</ele><time>2026-04-11T15:17:11.999Z</time></trkpt><trkpt lat="45.5513601252713" lon="8.255595234412617"><ele>237.0</ele><time>2026-04-11T15:17:12.999Z</time></trkpt><trkpt lat="45.5512764127627" lon="8.255608407999594"><ele>237.0</ele><time>2026-04-11T15:17:13.999Z</time></trkpt><trkpt lat="45.55119062120574" lon="8.255624285206157"><ele>237.0</ele><time>2026-04-11T15:17:14.999Z</time></trkpt><trkpt lat="45.55110501436452" lon="8.25563488680658"><ele>237.0</ele><time>2026-04-11T15:17:15.999Z</time></trkpt><trkpt lat="45.551019380000206" lon="8.255645651310779"><ele>237.0</ele><time>2026-04-11T15:17:16.999Z</time></trkpt><trkpt lat="45.55093353556768" lon="8.255651947554725"><ele>237.0</ele><time>2026-04-11T15:17:17.999Z</time></trkpt><trkpt lat="45.55084987260832" lon="8.255663092854377"><ele>236.66666666666666</ele><time>2026-04-11T15:17:18.999Z</time></trkpt><trkpt lat="45.550765239601944" lon="8.255678191988412"><ele>236.33333333333331</ele><time>2026-04-11T15:17:19.999Z</time></trkpt><trkpt lat="45.55068044205812" lon="8.255706741339209"><ele>236.0</ele><time>2026-04-11T15:17:20.999Z</time></trkpt><trkpt lat="45.55059721889654" lon="8.25573689883705"><ele>235.66666666666666</ele><time>2026-04-11T15:17:21.999Z</time></trkpt><trkpt lat="45.55051375415089" lon="8.255770195028822"><ele>235.33333333333331</ele><time>2026-04-11T15:17:22.999Z</time></trkpt><trkpt lat="45.55043084798665" lon="8.25579889428457"><ele>235.0</ele><time>2026-04-11T15:17:23.999Z</time></trkpt><trkpt lat="45.55034841000321" lon="8.255815385584027"><ele>234.99999999999997</ele><time>2026-04-11T15:17:24.999Z</time></trkpt><trkpt lat="45.5502613610486" lon="8.255825791075445"><ele>235.0</ele><time>2026-04-11T15:17:25.999Z</time></trkpt><trkpt lat="45.55018043478752" lon="8.255838157552834"><ele>235.0</ele><time>2026-04-11T15:17:26.999Z</time></trkpt><trkpt lat="45.55010558366414" lon="8.25585172116766"><ele>235.0</ele><time>2026-04-11T15:17:27.999Z</time></trkpt><trkpt lat="45.55003014714049" lon="8.2558643958807"><ele>234.99999999999997</ele><time>2026-04-11T15:17:28.999Z</time></trkpt><trkpt lat="45.54995335364368" lon="8.255881433172847"><ele>235.0</ele><time>2026-04-11T15:17:29.999Z</time></trkpt><trkpt lat="45.549874352484174" lon="8.255893810399465"><ele>234.99999999999997</ele><time>2026-04-11T15:17:30.999Z</time></trkpt><trkpt lat="45.549802142555265" lon="8.255921932953505"><ele>235.0</ele><time>2026-04-11T15:17:31.999Z</time></trkpt><trkpt lat="45.54974373693489" lon="8.255980007672465"><ele>235.0</ele><time>2026-04-11T15:17:32.999Z</time></trkpt><trkpt lat="45.54969852936763" lon="8.256062323282308"><ele>235.0</ele><time>2026-04-11T15:17:33.999Z</time></trkpt><trkpt lat="45.549660908524174" lon="8.256160421299684"><ele>234.99999999999997</ele><time>2026-04-11T15:17:34.999Z</time></trkpt><trkpt lat="45.54960027468038" lon="8.256230837115345"><ele>235.0</ele><time>2026-04-11T15:17:35.999Z</time></trkpt><trkpt lat="45.549531107147445" lon="8.25627352752189"><ele>234.83333333333331</ele><time>2026-04-11T15:17:36.999Z</time></trkpt><trkpt lat="45.54945526815597" lon="8.256285253494669"><ele>234.66666666666666</ele><time>2026-04-11T15:17:37.998Z</time></trkpt><trkpt lat="45.5493808908693" lon="8.256267064049071"><ele>234.5</ele><time>2026-04-11T15:17:38.998Z</time></trkpt><trkpt lat="45.54929759910017" lon="8.256249625735997"><ele>234.33333333333331</ele><time>2026-04-11T15:17:39.998Z</time></trkpt><trkpt lat="45.54921201072198" lon="8.25625183480516"><ele>234.16666666666666</ele><time>2026-04-11T15:17:40.998Z</time></trkpt><trkpt lat="45.54913163868684" lon="8.256284002570013"><ele>234.0</ele><time>2026-04-11T15:17:41.998Z</time></trkpt><trkpt lat="45.549061670741004" lon="8.25633214292987"><ele>234.0</ele><time>2026-04-11T15:17:42.998Z</time></trkpt><trkpt lat="45.54899430777521" lon="8.256331957699432"><ele>234.0</ele><time>2026-04-11T15:17:43.998Z</time></trkpt><trkpt lat="45.54893073052852" lon="8.256282561765094"><ele>234.0</ele><time>2026-04-11T15:17:44.998Z</time></trkpt><trkpt lat="45.548879577386685" lon="8.25621598818659"><ele>234.0</ele><time>2026-04-11T15:17:45.998Z</time></trkpt><trkpt lat="45.548767792264336" lon="8.25619038981341"><ele>234.0</ele><time>2026-04-11T15:17:47.998Z</time></trkpt><trkpt lat="45.54864364313018" lon="8.256192029332368"><ele>234.0</ele><time>2026-04-11T15:17:49.998Z</time></trkpt><trkpt lat="45.548570198285596" lon="8.256187933491448"><ele>233.66666666666666</ele><time>2026-04-11T15:17:50.998Z</time></trkpt><trkpt lat="45.54849020651754" lon="8.25619379393211"><ele>233.33333333333331</ele><time>2026-04-11T15:17:51.998Z</time></trkpt><trkpt lat="45.548408198969724" lon="8.25619946359936"><ele>233.0</ele><time>2026-04-11T15:17:52.998Z</time></trkpt><trkpt lat="45.54832613445354" lon="8.256204553057763"><ele>232.66666666666666</ele><time>2026-04-11T15:17:53.998Z</time></trkpt><trkpt lat="45.548243627311464" lon="8.256215612971102"><ele>232.33333333333331</ele><time>2026-04-11T15:17:54.998Z</time></trkpt><trkpt lat="45.548161550551136" lon="8.256227289658199"><ele>232.0</ele><time>2026-04-11T15:17:56Z</time></trkpt><trkpt lat="45.54807632616406" lon="8.256233490940337"><ele>231.99999999999997</ele><time>2026-04-11T15:17:57Z</time></trkpt><trkpt lat="45.54799240791491" lon="8.256249902459793"><ele>232.0</ele><time>2026-04-11T15:17:58Z</time></trkpt><trkpt lat="45.54790899252827" lon="8.256281189155182"><ele>232.0</ele><time>2026-04-11T15:17:59Z</time></trkpt><trkpt lat="45.5478279969301" lon="8.256320849994916"><ele>232.0</ele><time>2026-04-11T15:18:00Z</time></trkpt><trkpt lat="45.54774598391942" lon="8.256362256599575"><ele>231.99999999999997</ele><time>2026-04-11T15:18:01Z</time></trkpt><trkpt lat="45.54766358466996" lon="8.256400703658798"><ele>232.0</ele><time>2026-04-11T15:18:02Z</time></trkpt><trkpt lat="45.54757750553535" lon="8.256433020680182"><ele>231.99999999999997</ele><time>2026-04-11T15:18:03Z</time></trkpt><trkpt lat="45.54748848744655" lon="8.256465006408273"><ele>232.0</ele><time>2026-04-11T15:18:04Z</time></trkpt><trkpt lat="45.5474026838689" lon="8.256491331757845"><ele>232.0</ele><time>2026-04-11T15:18:05Z</time></trkpt><trkpt lat="45.547317018392484" lon="8.256518188526378"><ele>232.0</ele><time>2026-04-11T15:18:06Z</time></trkpt><trkpt lat="45.54722953952859" lon="8.25654808645807"><ele>231.99999999999997</ele><time>2026-04-11T15:18:07Z</time></trkpt><trkpt lat="45.54714779136237" lon="8.25657857083561"><ele>232.0</ele><time>2026-04-11T15:18:08Z</time></trkpt><trkpt lat="45.54706332666288" lon="8.256598930133741"><ele>232.2</ele><time>2026-04-11T15:18:09Z</time></trkpt><trkpt lat="45.54697803684245" lon="8.256599265502503"><ele>232.39999999999998</ele><time>2026-04-11T15:18:10Z</time></trkpt><trkpt lat="45.54688820216658" lon="8.256595490315771"><ele>232.60000000000002</ele><time>2026-04-11T15:18:11Z</time></trkpt><trkpt lat="45.54679673996778" lon="8.256589918046403"><ele>232.8</ele><time>2026-04-11T15:18:12Z</time></trkpt><trkpt lat="45.54670550840532" lon="8.256588287258175"><ele>233.0</ele><time>2026-04-11T15:18:13Z</time></trkpt><trkpt lat="45.54661237737569" lon="8.256582704149617"><ele>233.0</ele><time>2026-04-11T15:18:14Z</time></trkpt><trkpt lat="45.546519752681625" lon="8.256576327030915"><ele>233.0</ele><time>2026-04-11T15:18:15Z</time></trkpt><trkpt lat="45.54642436622539" lon="8.256568091689513"><ele>233.0</ele><time>2026-04-11T15:18:16Z</time></trkpt><trkpt lat="45.54633280045276" lon="8.256555253175812"><ele>233.0</ele><time>2026-04-11T15:18:17Z</time></trkpt><trkpt lat="45.546244322376815" lon="8.256535601433836"><ele>233.0</ele><time>2026-04-11T15:18:18Z</time></trkpt><trkpt lat="45.546158130735066" lon="8.256524488256776"><ele>232.83333333333334</ele><time>2026-04-11T15:18:19Z</time></trkpt><trkpt lat="45.546080754570944" lon="8.256501895758857"><ele>232.66666666666669</ele><time>2026-04-11T15:18:20Z</time></trkpt><trkpt lat="45.54600417308421" lon="8.256484435962786"><ele>232.5</ele><time>2026-04-11T15:18:21Z</time></trkpt><trkpt lat="45.54592874277956" lon="8.25646949886275"><ele>232.33333333333331</ele><time>2026-04-11T15:18:22Z</time></trkpt><trkpt lat="45.545856956967505" lon="8.256450893785969"><ele>232.16666666666666</ele><time>2026-04-11T15:18:23Z</time></trkpt><trkpt lat="45.545785120800694" lon="8.256451011419264"><ele>232.0</ele><time>2026-04-11T15:18:24Z</time></trkpt><trkpt lat="45.54571300909914" lon="8.25646940253661"><ele>231.99999999999997</ele><time>2026-04-11T15:18:25Z</time></trkpt><trkpt lat="45.545643333695864" lon="8.25650372034798"><ele>232.0</ele><time>2026-04-11T15:18:26Z</time></trkpt><trkpt lat="45.545570860965036" lon="8.256537179313147"><ele>232.0</ele><time>2026-04-11T15:18:27Z</time></trkpt><trkpt lat="45.54549826614722" lon="8.256569690502815"><ele>232.0</ele><time>2026-04-11T15:18:28Z</time></trkpt><trkpt lat="45.545422444553914" lon="8.256603580640554"><ele>231.99999999999997</ele><time>2026-04-11T15:18:29Z</time></trkpt><trkpt lat="45.54534866702487" lon="8.256632923357127"><ele>232.0</ele><time>2026-04-11T15:18:30Z</time></trkpt><trkpt lat="45.545276303471006" lon="8.256654273344376"><ele>231.99999999999997</ele><time>2026-04-11T15:18:31Z</time></trkpt><trkpt lat="45.54521308352174" lon="8.256689072114812"><ele>232.0</ele><time>2026-04-11T15:18:32Z</time></trkpt><trkpt lat="45.54517056757137" lon="8.256759554400547"><ele>232.0</ele><time>2026-04-11T15:18:33Z</time></trkpt><trkpt lat="45.54508198789933" lon="8.256863512704342"><ele>232.0</ele><time>2026-04-11T15:18:34.999Z</time></trkpt><trkpt lat="45.54501325370037" lon="8.25688113600629"><ele>231.99999999999997</ele><time>2026-04-11T15:18:35.999Z</time></trkpt><trkpt lat="45.54493637052856" lon="8.256888655949357"><ele>232.0</ele><time>2026-04-11T15:18:36.999Z</time></trkpt><trkpt lat="45.54485452858208" lon="8.25689484977314"><ele>231.99999999999997</ele><time>2026-04-11T15:18:37.999Z</time></trkpt><trkpt lat="45.544776334927036" lon="8.256907795246947"><ele>232.0</ele><time>2026-04-11T15:18:38.999Z</time></trkpt><trkpt lat="45.544701258282" lon="8.256928961591152"><ele>232.0</ele><time>2026-04-11T15:18:39.999Z</time></trkpt><trkpt lat="45.54462211338357" lon="8.256951645521895"><ele>232.0</ele><time>2026-04-11T15:18:40.999Z</time></trkpt><trkpt lat="45.54454324654326" lon="8.256971618350859"><ele>231.99999999999997</ele><time>2026-04-11T15:18:41.999Z</time></trkpt><trkpt lat="45.544466723381085" lon="8.256988115738807"><ele>232.0</ele><time>2026-04-11T15:18:42.999Z</time></trkpt><trkpt lat="45.54439232455864" lon="8.257003889403727"><ele>231.66666666666666</ele><time>2026-04-11T15:18:43.999Z</time></trkpt><trkpt lat="45.54431763862233" lon="8.25702030438961"><ele>231.33333333333331</ele><time>2026-04-11T15:18:44.999Z</time></trkpt><trkpt lat="45.544242376442185" lon="8.257045670352637"><ele>231.0</ele><time>2026-04-11T15:18:45.999Z</time></trkpt><trkpt lat="45.544163935825104" lon="8.257070733107465"><ele>230.66666666666669</ele><time>2026-04-11T15:18:46.999Z</time></trkpt><trkpt lat="45.544083258729394" lon="8.257094218260836"><ele>230.33333333333334</ele><time>2026-04-11T15:18:47.999Z</time></trkpt><trkpt lat="45.54400160647704" lon="8.25711402655138"><ele>230.0</ele><time>2026-04-11T15:18:48.999Z</time></trkpt><trkpt lat="45.54391820652131" lon="8.257135926212012"><ele>230.00000000000003</ele><time>2026-04-11T15:18:49.999Z</time></trkpt><trkpt lat="45.54383469838522" lon="8.257160218459804"><ele>230.0</ele><time>2026-04-11T15:18:50.999Z</time></trkpt><trkpt lat="45.54375160844535" lon="8.257190343809311"><ele>230.0</ele><time>2026-04-11T15:18:51.999Z</time></trkpt><trkpt lat="45.5436698588419" lon="8.257225763849975"><ele>230.0</ele><time>2026-04-11T15:18:52.999Z</time></trkpt><trkpt lat="45.54358814937844" lon="8.25726369565227"><ele>230.00000000000003</ele><time>2026-04-11T15:18:53.999Z</time></trkpt><trkpt lat="45.54351070740876" lon="8.25730678194326"><ele>230.0</ele><time>2026-04-11T15:18:54.999Z</time></trkpt><trkpt lat="45.543432368567835" lon="8.25735540609798"><ele>230.16666666666669</ele><time>2026-04-11T15:18:55.999Z</time></trkpt><trkpt lat="45.54334866010223" lon="8.257405734446694"><ele>230.33333333333334</ele><time>2026-04-11T15:18:56.999Z</time></trkpt><trkpt lat="45.54326477323382" lon="8.257445777614826"><ele>230.5</ele><time>2026-04-11T15:18:57.999Z</time></trkpt><trkpt lat="45.543184437959994" lon="8.257473126280948"><ele>230.66666666666669</ele><time>2026-04-11T15:18:58.999Z</time></trkpt><trkpt lat="45.54310899999236" lon="8.257475940272112"><ele>230.83333333333334</ele><time>2026-04-11T15:18:59.999Z</time></trkpt><trkpt lat="45.543006440595704" lon="8.257510799660007"><ele>231.0</ele><time>2026-04-11T15:19:01.999Z</time></trkpt><trkpt lat="45.54295751253593" lon="8.257609287706579"><ele>230.8</ele><time>2026-04-11T15:19:03.999Z</time></trkpt><trkpt lat="45.542820334027034" lon="8.25758700700234"><ele>230.60000000000002</ele><time>2026-04-11T15:19:05.999Z</time></trkpt><trkpt lat="45.5427437360353" lon="8.257569175479405"><ele>230.4</ele><time>2026-04-11T15:19:06.999Z</time></trkpt><trkpt lat="45.54266395308014" lon="8.257564035024377"><ele>230.2</ele><time>2026-04-11T15:19:07.999Z</time></trkpt><trkpt lat="45.542595530035946" lon="8.25756827649025"><ele>230.0</ele><time>2026-04-11T15:19:08.999Z</time></trkpt><trkpt lat="45.54250421111517" lon="8.257621457775187"><ele>230.00000000000003</ele><time>2026-04-11T15:19:10.999Z</time></trkpt><trkpt lat="45.54248785843275" lon="8.257721141656171"><ele>230.0</ele><time>2026-04-11T15:19:12.999Z</time></trkpt><trkpt lat="45.54250681791427" lon="8.257824789937345"><ele>230.0</ele><time>2026-04-11T15:19:14.999Z</time></trkpt><trkpt lat="45.54252107562582" lon="8.257999575824986"><ele>230.0</ele><time>2026-04-11T15:19:16.999Z</time></trkpt><trkpt lat="45.54252940662794" lon="8.25810097463491"><ele>230.00000000000003</ele><time>2026-04-11T15:19:17.999Z</time></trkpt><trkpt lat="45.54253747816685" lon="8.258204346886195"><ele>230.0</ele><time>2026-04-11T15:19:18.999Z</time></trkpt><trkpt lat="45.542550002994346" lon="8.258312299380062"><ele>230.0</ele><time>2026-04-11T15:19:19.999Z</time></trkpt><trkpt lat="45.54256256729297" lon="8.258429538563965"><ele>230.0</ele><time>2026-04-11T15:19:20.999Z</time></trkpt><trkpt lat="45.54257722741149" lon="8.25855698363666"><ele>230.0</ele><time>2026-04-11T15:19:21.999Z</time></trkpt><trkpt lat="45.542591265799956" lon="8.258686206915751"><ele>230.0</ele><time>2026-04-11T15:19:22.999Z</time></trkpt><trkpt lat="45.54260448113089" lon="8.258821510114837"><ele>230.0</ele><time>2026-04-11T15:19:23.999Z</time></trkpt><trkpt lat="45.542613639769826" lon="8.258954888201064"><ele>230.00000000000003</ele><time>2026-04-11T15:19:24.999Z</time></trkpt><trkpt lat="45.54262195712866" lon="8.259087295467353"><ele>230.0</ele><time>2026-04-11T15:19:25.999Z</time></trkpt><trkpt lat="45.54263257580681" lon="8.25920602530679"><ele>230.0</ele><time>2026-04-11T15:19:26.999Z</time></trkpt><trkpt lat="45.54264354316239" lon="8.259313907028583"><ele>230.0</ele><time>2026-04-11T15:19:27.999Z</time></trkpt><trkpt lat="45.54265901737585" lon="8.259432742761236"><ele>230.00000000000003</ele><time>2026-04-11T15:19:28.999Z</time></trkpt><trkpt lat="45.54267294669686" lon="8.259562358396138"><ele>230.0</ele><time>2026-04-11T15:19:29.999Z</time></trkpt><trkpt lat="45.542688721079124" lon="8.25969751416415"><ele>230.2</ele><time>2026-04-11T15:19:30.999Z</time></trkpt><trkpt lat="45.542702960256364" lon="8.25983326979688"><ele>230.4</ele><time>2026-04-11T15:19:31.999Z</time></trkpt><trkpt lat="45.54270994918879" lon="8.259966547465034"><ele>230.60000000000002</ele><time>2026-04-11T15:19:32.999Z</time></trkpt><trkpt lat="45.542722650004386" lon="8.26010211812521"><ele>230.8</ele><time>2026-04-11T15:19:33.999Z</time></trkpt><trkpt lat="45.54273641021481" lon="8.260231722422251"><ele>231.0</ele><time>2026-04-11T15:19:34.999Z</time></trkpt><trkpt lat="45.54275269539059" lon="8.260355395638262"><ele>231.0</ele><time>2026-04-11T15:19:35.999Z</time></trkpt><trkpt lat="45.54276563717418" lon="8.260466996450806"><ele>231.0</ele><time>2026-04-11T15:19:36.999Z</time></trkpt><trkpt lat="45.542765042948226" lon="8.260621593279376"><ele>231.0</ele><time>2026-04-11T15:19:38.999Z</time></trkpt><trkpt lat="45.54269277820818" lon="8.260717070151765"><ele>231.0</ele><time>2026-04-11T15:19:40.999Z</time></trkpt><trkpt lat="45.54262169245848" lon="8.260717676457539"><ele>231.0</ele><time>2026-04-11T15:19:41.999Z</time></trkpt><trkpt lat="45.54255390894359" lon="8.260714753106534"><ele>231.0</ele><time>2026-04-11T15:19:42.998Z</time></trkpt><trkpt lat="45.54248379398203" lon="8.26072603727466"><ele>231.0</ele><time>2026-04-11T15:19:43.998Z</time></trkpt><trkpt lat="45.54240777736898" lon="8.260740130733936"><ele>231.0</ele><time>2026-04-11T15:19:44.998Z</time></trkpt><trkpt lat="45.54232648351309" lon="8.26075275527465"><ele>231.0</ele><time>2026-04-11T15:19:45.998Z</time></trkpt><trkpt lat="45.54224024486138" lon="8.260762234387576"><ele>231.0</ele><time>2026-04-11T15:19:46.998Z</time></trkpt><trkpt lat="45.54215308618522" lon="8.260771823144587"><ele>231.0</ele><time>2026-04-11T15:19:47.998Z</time></trkpt><trkpt lat="45.542065154567844" lon="8.26078597154343"><ele>231.0</ele><time>2026-04-11T15:19:48.998Z</time></trkpt><trkpt lat="45.54197669582395" lon="8.260799880829719"><ele>230.8</ele><time>2026-04-11T15:19:49.998Z</time></trkpt><trkpt lat="45.54189312723312" lon="8.26081015540355"><ele>230.60000000000002</ele><time>2026-04-11T15:19:50.998Z</time></trkpt><trkpt lat="45.54181596985885" lon="8.260818648955112"><ele>230.4</ele><time>2026-04-11T15:19:51.998Z</time></trkpt><trkpt lat="45.54171207017378" lon="8.260859290905618"><ele>230.2</ele><time>2026-04-11T15:19:53.998Z</time></trkpt><trkpt lat="45.54172444959349" lon="8.260982078706684"><ele>230.0</ele><time>2026-04-11T15:19:55.998Z</time></trkpt><trkpt lat="45.54174652659461" lon="8.261117893555085"><ele>230.00000000000003</ele><time>2026-04-11T15:19:57.998Z</time></trkpt><trkpt lat="45.54175345260782" lon="8.261213469654617"><ele>230.0</ele><time>2026-04-11T15:19:58.998Z</time></trkpt><trkpt lat="45.541757370136224" lon="8.261310895273681"><ele>230.0</ele><time>2026-04-11T15:19:59.998Z</time></trkpt><trkpt lat="45.541764181981506" lon="8.261413962505392"><ele>230.0</ele><time>2026-04-11T15:20:00.998Z</time></trkpt><trkpt lat="45.54177383675426" lon="8.261524063140246"><ele>230.00000000000003</ele><time>2026-04-11T15:20:02Z</time></trkpt><trkpt lat="45.541781926255375" lon="8.261649104301744"><ele>230.0</ele><time>2026-04-11T15:20:03Z</time></trkpt><trkpt lat="45.54178907411127" lon="8.261783050349337"><ele>230.0</ele><time>2026-04-11T15:20:04Z</time></trkpt><trkpt lat="45.54179847008154" lon="8.26192302119721"><ele>230.0</ele><time>2026-04-11T15:20:05Z</time></trkpt><trkpt lat="45.54180742467183" lon="8.262063790597704"><ele>230.0</ele><time>2026-04-11T15:20:06Z</time></trkpt><trkpt lat="45.541814950276915" lon="8.26220096366754"><ele>230.0</ele><time>2026-04-11T15:20:07Z</time></trkpt><trkpt lat="45.541820976461324" lon="8.262325468675815"><ele>230.0</ele><time>2026-04-11T15:20:08Z</time></trkpt><trkpt lat="45.54184224080177" lon="8.26242577373162"><ele>230.00000000000003</ele><time>2026-04-11T15:20:09Z</time></trkpt><trkpt lat="45.541898969279075" lon="8.262478001703192"><ele>230.0</ele><time>2026-04-11T15:20:10Z</time></trkpt><trkpt lat="45.541968261213725" lon="8.262466988828951"><ele>230.0</ele><time>2026-04-11T15:20:11Z</time></trkpt><trkpt lat="45.54205634184017" lon="8.262475040972031"><ele>230.0</ele><time>2026-04-11T15:20:13Z</time></trkpt><trkpt lat="45.54204030762432" lon="8.262629768937337"><ele>230.00000000000003</ele><time>2026-04-11T15:20:15Z</time></trkpt><trkpt lat="45.54198912930067" lon="8.26270422371224"><ele>230.0</ele><time>2026-04-11T15:20:16Z</time></trkpt><trkpt lat="45.541938948829475" lon="8.262787706939461"><ele>230.0</ele><time>2026-04-11T15:20:17Z</time></trkpt><trkpt lat="45.5418907481891" lon="8.262893687911605"><ele>230.0</ele><time>2026-04-11T15:20:18Z</time></trkpt><trkpt lat="45.54184042787822" lon="8.26300646347209"><ele>230.0</ele><time>2026-04-11T15:20:19Z</time></trkpt><trkpt lat="45.54178544541279" lon="8.263125729024852"><ele>230.0</ele><time>2026-04-11T15:20:20Z</time></trkpt><trkpt lat="45.54173378124488" lon="8.263250356228694"><ele>230.0</ele><time>2026-04-11T15:20:21Z</time></trkpt><trkpt lat="45.54168889737019" lon="8.26337944691127"><ele>229.6</ele><time>2026-04-11T15:20:22Z</time></trkpt><trkpt lat="45.54164884893154" lon="8.26351853244244"><ele>229.2</ele><time>2026-04-11T15:20:23Z</time></trkpt><trkpt lat="45.54160683113017" lon="8.26365291120536"><ele>228.8</ele><time>2026-04-11T15:20:24Z</time></trkpt><trkpt lat="45.541562701444" lon="8.26379282834707"><ele>228.4</ele><time>2026-04-11T15:20:25Z</time></trkpt><trkpt lat="45.541515983765144" lon="8.263934172428339"><ele>228.0</ele><time>2026-04-11T15:20:26Z</time></trkpt><trkpt lat="45.54147482643037" lon="8.26408575223646"><ele>227.75</ele><time>2026-04-11T15:20:27Z</time></trkpt><trkpt lat="45.5414289958971" lon="8.264238732558203"><ele>227.5</ele><time>2026-04-11T15:20:28Z</time></trkpt><trkpt lat="45.541384647386394" lon="8.264392976385489"><ele>227.25</ele><time>2026-04-11T15:20:29Z</time></trkpt><trkpt lat="45.54134104525708" lon="8.264548590713119"><ele>227.0</ele><time>2026-04-11T15:20:30Z</time></trkpt><trkpt lat="45.54129986878193" lon="8.264704442842344"><ele>226.75</ele><time>2026-04-11T15:20:31Z</time></trkpt><trkpt lat="45.541263727407376" lon="8.264861713380428"><ele>226.5</ele><time>2026-04-11T15:20:32Z</time></trkpt><trkpt lat="45.54123443822041" lon="8.26502096701843"><ele>226.25</ele><time>2026-04-11T15:20:33Z</time></trkpt><trkpt lat="45.54120925722458" lon="8.26518184704319"><ele>226.0</ele><time>2026-04-11T15:20:34Z</time></trkpt><trkpt lat="45.5411825062094" lon="8.26534155854411"><ele>226.0</ele><time>2026-04-11T15:20:35Z</time></trkpt><trkpt lat="45.54114698724343" lon="8.265496810378517"><ele>226.0</ele><time>2026-04-11T15:20:36Z</time></trkpt><trkpt lat="45.54109392196256" lon="8.265640028888729"><ele>226.0</ele><time>2026-04-11T15:20:37Z</time></trkpt><trkpt lat="45.54103045118781" lon="8.265773597354164"><ele>226.0</ele><time>2026-04-11T15:20:38Z</time></trkpt><trkpt lat="45.540965885643644" lon="8.265906549346568"><ele>225.75</ele><time>2026-04-11T15:20:38.999Z</time></trkpt><trkpt lat="45.540901832418555" lon="8.266041300728519"><ele>225.5</ele><time>2026-04-11T15:20:39.999Z</time></trkpt><trkpt lat="45.540841828249675" lon="8.26618003445332"><ele>225.25</ele><time>2026-04-11T15:20:40.999Z</time></trkpt><trkpt lat="45.54078104793242" lon="8.266318741560175"><ele>225.0</ele><time>2026-04-11T15:20:41.999Z</time></trkpt><trkpt lat="45.54072163307047" lon="8.266457379643576"><ele>225.0</ele><time>2026-04-11T15:20:42.999Z</time></trkpt><trkpt lat="45.540665911241426" lon="8.266600639002846"><ele>225.0</ele><time>2026-04-11T15:20:43.999Z</time></trkpt><trkpt lat="45.54061543662567" lon="8.266746590579096"><ele>225.0</ele><time>2026-04-11T15:20:44.999Z</time></trkpt><trkpt lat="45.54057283449303" lon="8.266897623030335"><ele>225.0</ele><time>2026-04-11T15:20:45.999Z</time></trkpt><trkpt lat="45.54054147989076" lon="8.267056970404527"><ele>225.0</ele><time>2026-04-11T15:20:46.999Z</time></trkpt><trkpt lat="45.540508922311524" lon="8.267215183877429"><ele>225.0</ele><time>2026-04-11T15:20:47.999Z</time></trkpt><trkpt lat="45.54047311944587" lon="8.267371338462546"><ele>225.0</ele><time>2026-04-11T15:20:48.999Z</time></trkpt><trkpt lat="45.54042618293441" lon="8.267521770577954"><ele>225.0</ele><time>2026-04-11T15:20:49.999Z</time></trkpt><trkpt lat="45.54037951477494" lon="8.267670000214759"><ele>224.8</ele><time>2026-04-11T15:20:50.999Z</time></trkpt><trkpt lat="45.54033802051283" lon="8.267819417978824"><ele>224.6</ele><time>2026-04-11T15:20:51.999Z</time></trkpt><trkpt lat="45.54030277098876" lon="8.267970752892397"><ele>224.39999999999998</ele><time>2026-04-11T15:20:52.999Z</time></trkpt><trkpt lat="45.54027152015706" lon="8.268124187942334"><ele>224.2</ele><time>2026-04-11T15:20:53.999Z</time></trkpt><trkpt lat="45.54023945958744" lon="8.268276541157217"><ele>224.0</ele><time>2026-04-11T15:20:54.999Z</time></trkpt><trkpt lat="45.54020466805553" lon="8.268426707754553"><ele>224.0</ele><time>2026-04-11T15:20:55.999Z</time></trkpt><trkpt lat="45.540165721216184" lon="8.26857476775585"><ele>223.99999999999997</ele><time>2026-04-11T15:20:56.999Z</time></trkpt><trkpt lat="45.540126906384664" lon="8.26872265431887"><ele>223.99999999999997</ele><time>2026-04-11T15:20:57.999Z</time></trkpt><trkpt lat="45.540085486343685" lon="8.26886999707787"><ele>224.0</ele><time>2026-04-11T15:20:58.999Z</time></trkpt><trkpt lat="45.54004405102308" lon="8.269019328034027"><ele>224.0</ele><time>2026-04-11T15:20:59.999Z</time></trkpt><trkpt lat="45.5400024126055" lon="8.269168206875314"><ele>223.75</ele><time>2026-04-11T15:21:00.999Z</time></trkpt><trkpt lat="45.5399596858362" lon="8.26931990182407"><ele>223.5</ele><time>2026-04-11T15:21:01.999Z</time></trkpt><trkpt lat="45.539918646335806" lon="8.26947226788392"><ele>223.25</ele><time>2026-04-11T15:21:02.999Z</time></trkpt><trkpt lat="45.53987149624055" lon="8.269622164912901"><ele>223.0</ele><time>2026-04-11T15:21:03.999Z</time></trkpt><trkpt lat="45.53981630321067" lon="8.2697658346268"><ele>223.4</ele><time>2026-04-11T15:21:04.999Z</time></trkpt><trkpt lat="45.539756173871574" lon="8.269901334328345"><ele>223.8</ele><time>2026-04-11T15:21:05.999Z</time></trkpt><trkpt lat="45.53970340948886" lon="8.270030454955785"><ele>224.2</ele><time>2026-04-11T15:21:06.999Z</time></trkpt><trkpt lat="45.539662657331625" lon="8.270154897796475"><ele>224.6</ele><time>2026-04-11T15:21:07.999Z</time></trkpt><trkpt lat="45.539636863423844" lon="8.270279445163986"><ele>225.0</ele><time>2026-04-11T15:21:08.999Z</time></trkpt><trkpt lat="45.539621407447136" lon="8.270391959509524"><ele>225.0</ele><time>2026-04-11T15:21:09.999Z</time></trkpt><trkpt lat="45.539613243680726" lon="8.27048524629504"><ele>225.0</ele><time>2026-04-11T15:21:10.999Z</time></trkpt><trkpt lat="45.539615904721884" lon="8.2706467163661"><ele>225.0</ele><time>2026-04-11T15:21:12.999Z</time></trkpt><trkpt lat="45.539614906342315" lon="8.270749803325218"><ele>225.0</ele><time>2026-04-11T15:21:14.999Z</time></trkpt><trkpt lat="45.53981581343436" lon="8.270786059051263"><ele>225.16666666666666</ele><time>2026-04-11T15:21:51.998Z</time></trkpt><trkpt lat="45.539932011949745" lon="8.270774647452164"><ele>225.33333333333331</ele><time>2026-04-11T15:21:53.998Z</time></trkpt><trkpt lat="45.539993610996675" lon="8.270753869934298"><ele>225.5</ele><time>2026-04-11T15:21:54.998Z</time></trkpt><trkpt lat="45.54005905296458" lon="8.270732146991438"><ele>225.66666666666666</ele><time>2026-04-11T15:21:55.998Z</time></trkpt><trkpt lat="45.54012153993893" lon="8.270710310833694"><ele>225.83333333333331</ele><time>2026-04-11T15:21:56.998Z</time></trkpt><trkpt lat="45.54022029150588" lon="8.270677251311211"><ele>226.0</ele><time>2026-04-11T15:21:58.998Z</time></trkpt><trkpt lat="45.54029818268766" lon="8.270681337734118"><ele>225.83333333333331</ele><time>2026-04-11T15:22:01.998Z</time></trkpt><trkpt lat="45.54039354616567" lon="8.270659675039909"><ele>225.66666666666666</ele><time>2026-04-11T15:22:03.998Z</time></trkpt><trkpt lat="45.54046579350582" lon="8.270648835444975"><ele>225.5</ele><time>2026-04-11T15:22:04.998Z</time></trkpt><trkpt lat="45.540541528331985" lon="8.270637818500726"><ele>225.33333333333331</ele><time>2026-04-11T15:22:05.998Z</time></trkpt><trkpt lat="45.54062232066526" lon="8.270632358976158"><ele>225.16666666666666</ele><time>2026-04-11T15:22:07Z</time></trkpt><trkpt lat="45.54070656117206" lon="8.27061713875912"><ele>225.0</ele><time>2026-04-11T15:22:08Z</time></trkpt><trkpt lat="45.54079164634434" lon="8.270600877578838"><ele>225.2</ele><time>2026-04-11T15:22:09Z</time></trkpt><trkpt lat="45.54087699187375" lon="8.270582518849535"><ele>225.4</ele><time>2026-04-11T15:22:10Z</time></trkpt><trkpt lat="45.54096692367272" lon="8.27056208499179"><ele>225.60000000000002</ele><time>2026-04-11T15:22:11Z</time></trkpt><trkpt lat="45.54105805060867" lon="8.270538930673345"><ele>225.8</ele><time>2026-04-11T15:22:12Z</time></trkpt><trkpt lat="45.541147115601355" lon="8.270520894754043"><ele>226.0</ele><time>2026-04-11T15:22:13Z</time></trkpt><trkpt lat="45.54123708063822" lon="8.270503975009873"><ele>226.0</ele><time>2026-04-11T15:22:14Z</time></trkpt><trkpt lat="45.54132820056147" lon="8.270483173767946"><ele>226.00000000000003</ele><time>2026-04-11T15:22:15Z</time></trkpt><trkpt lat="45.54142605091304" lon="8.270457234276753"><ele>226.00000000000003</ele><time>2026-04-11T15:22:16Z</time></trkpt><trkpt lat="45.541521183194426" lon="8.270437785422917"><ele>226.0</ele><time>2026-04-11T15:22:17Z</time></trkpt><trkpt lat="45.541620189677985" lon="8.27041459499611"><ele>226.0</ele><time>2026-04-11T15:22:18Z</time></trkpt><trkpt lat="45.541720975131206" lon="8.270391293068696"><ele>226.0</ele><time>2026-04-11T15:22:19Z</time></trkpt><trkpt lat="45.54181958977793" lon="8.27036791552634"><ele>226.00000000000003</ele><time>2026-04-11T15:22:20Z</time></trkpt><trkpt lat="45.541920282343014" lon="8.270345325769803"><ele>226.00000000000003</ele><time>2026-04-11T15:22:21Z</time></trkpt><trkpt lat="45.54202305090281" lon="8.270320689287532"><ele>226.0</ele><time>2026-04-11T15:22:22Z</time></trkpt><trkpt lat="45.54212904510126" lon="8.270301869975736"><ele>226.0</ele><time>2026-04-11T15:22:23Z</time></trkpt><trkpt lat="45.542235038098845" lon="8.270276827479769"><ele>226.20000000000002</ele><time>2026-04-11T15:22:24Z</time></trkpt><trkpt lat="45.54234049447004" lon="8.27025409092387"><ele>226.40000000000003</ele><time>2026-04-11T15:22:25Z</time></trkpt><trkpt lat="45.54243903162848" lon="8.270239054810586"><ele>226.6</ele><time>2026-04-11T15:22:26Z</time></trkpt><trkpt lat="45.542524935962604" lon="8.270221386651492"><ele>226.8</ele><time>2026-04-11T15:22:27Z</time></trkpt><trkpt lat="45.542612688575126" lon="8.270220565450146"><ele>227.0</ele><time>2026-04-11T15:22:29Z</time></trkpt><trkpt lat="45.54260242294643" lon="8.27036746264738"><ele>227.00000000000003</ele><time>2026-04-11T15:22:32Z</time></trkpt><trkpt lat="45.5426114146918" lon="8.270521141486647"><ele>227.0</ele><time>2026-04-11T15:22:34Z</time></trkpt><trkpt lat="45.54262299340352" lon="8.270612151003848"><ele>227.0</ele><time>2026-04-11T15:22:35Z</time></trkpt><trkpt lat="45.5426303201182" lon="8.270713883295528"><ele>227.0</ele><time>2026-04-11T15:22:36Z</time></trkpt><trkpt lat="45.54264008650535" lon="8.270821508179539"><ele>227.00000000000003</ele><time>2026-04-11T15:22:37Z</time></trkpt><trkpt lat="45.542650631962054" lon="8.2709331981136"><ele>227.0</ele><time>2026-04-11T15:22:38Z</time></trkpt><trkpt lat="45.54266296432749" lon="8.271048110460656"><ele>227.16666666666669</ele><time>2026-04-11T15:22:39Z</time></trkpt><trkpt lat="45.542671338086855" lon="8.27117373097557"><ele>227.33333333333334</ele><time>2026-04-11T15:22:40Z</time></trkpt><trkpt lat="45.54267875977631" lon="8.271306725144573"><ele>227.5</ele><time>2026-04-11T15:22:41Z</time></trkpt><trkpt lat="45.542686239205935" lon="8.271439238097331"><ele>227.66666666666669</ele><time>2026-04-11T15:22:42Z</time></trkpt><trkpt lat="45.54269066546841" lon="8.271565554845678"><ele>227.83333333333334</ele><time>2026-04-11T15:22:42.999Z</time></trkpt><trkpt lat="45.54267988197413" lon="8.27168121830082"><ele>228.0</ele><time>2026-04-11T15:22:43.999Z</time></trkpt><trkpt lat="45.54268215365276" lon="8.271791494158748"><ele>227.83333333333334</ele><time>2026-04-11T15:22:44.999Z</time></trkpt><trkpt lat="45.54270481996659" lon="8.271894640568343"><ele>227.66666666666669</ele><time>2026-04-11T15:22:45.999Z</time></trkpt><trkpt lat="45.54273554352778" lon="8.271993898074271"><ele>227.5</ele><time>2026-04-11T15:22:46.999Z</time></trkpt><trkpt lat="45.542751730030744" lon="8.272110326274095"><ele>227.33333333333334</ele><time>2026-04-11T15:22:47.999Z</time></trkpt><trkpt lat="45.542775325809586" lon="8.272226885093861"><ele>227.16666666666669</ele><time>2026-04-11T15:22:48.999Z</time></trkpt><trkpt lat="45.542798961241225" lon="8.27234515695066"><ele>227.0</ele><time>2026-04-11T15:22:49.999Z</time></trkpt><trkpt lat="45.54281233784988" lon="8.272460305631332"><ele>227.00000000000003</ele><time>2026-04-11T15:22:50.999Z</time></trkpt><trkpt lat="45.54282289110566" lon="8.272557030034086"><ele>227.0</ele><time>2026-04-11T15:22:51.999Z</time></trkpt><trkpt lat="45.5428328562999" lon="8.272719405869053"><ele>227.0</ele><time>2026-04-11T15:22:53.999Z</time></trkpt><trkpt lat="45.54279554576772" lon="8.27282270695144"><ele>227.0</ele><time>2026-04-11T15:22:55.999Z</time></trkpt><trkpt lat="45.54275223092806" lon="8.272931526902022"><ele>227.00000000000003</ele><time>2026-04-11T15:22:57.999Z</time></trkpt><trkpt lat="45.542718598601354" lon="8.273019164976123"><ele>227.0</ele><time>2026-04-11T15:22:58.999Z</time></trkpt><trkpt lat="45.5426889813658" lon="8.273105632770076"><ele>227.42857142857144</ele><time>2026-04-11T15:22:59.999Z</time></trkpt><trkpt lat="45.54266458113626" lon="8.273205020092325"><ele>227.8571428571429</ele><time>2026-04-11T15:23:00.999Z</time></trkpt><trkpt lat="45.54265061896059" lon="8.273305274225871"><ele>228.28571428571428</ele><time>2026-04-11T15:23:01.999Z</time></trkpt><trkpt lat="45.54262925900645" lon="8.273391585096036"><ele>228.71428571428572</ele><time>2026-04-11T15:23:02.999Z</time></trkpt><trkpt lat="45.5425995193363" lon="8.2734753561648"><ele>229.14285714285714</ele><time>2026-04-11T15:23:03.999Z</time></trkpt><trkpt lat="45.54254569546524" lon="8.27355573320074"><ele>229.57142857142856</ele><time>2026-04-11T15:23:04.999Z</time></trkpt><trkpt lat="45.54248126963261" lon="8.273643417465749"><ele>229.99999999999997</ele><time>2026-04-11T15:23:05.999Z</time></trkpt><trkpt lat="45.54241824318354" lon="8.273742070586922"><ele>230.0</ele><time>2026-04-11T15:23:06.999Z</time></trkpt><trkpt lat="45.54234875363604" lon="8.273847137283555"><ele>230.0</ele><time>2026-04-11T15:23:07.999Z</time></trkpt><trkpt lat="45.54227794032897" lon="8.27394885223063"><ele>230.0</ele><time>2026-04-11T15:23:08.999Z</time></trkpt><trkpt lat="45.54220889008573" lon="8.27405674720547"><ele>230.0</ele><time>2026-04-11T15:23:09.999Z</time></trkpt><trkpt lat="45.5421393291858" lon="8.274167724525059"><ele>230.0</ele><time>2026-04-11T15:23:10.999Z</time></trkpt><trkpt lat="45.542066341463226" lon="8.274277168876562"><ele>229.66666666666669</ele><time>2026-04-11T15:23:11.999Z</time></trkpt><trkpt lat="45.54199255178505" lon="8.274380779689732"><ele>229.33333333333334</ele><time>2026-04-11T15:23:12.999Z</time></trkpt><trkpt lat="45.54192155680118" lon="8.274477741948555"><ele>229.0</ele><time>2026-04-11T15:23:13.999Z</time></trkpt><trkpt lat="45.54185089210244" lon="8.274557812900174"><ele>228.66666666666669</ele><time>2026-04-11T15:23:14.999Z</time></trkpt><trkpt lat="45.54179178981383" lon="8.274614280811694"><ele>228.33333333333334</ele><time>2026-04-11T15:23:15.999Z</time></trkpt><trkpt lat="45.54174898424341" lon="8.274692759583282"><ele>228.0</ele><time>2026-04-11T15:23:21.999Z</time></trkpt><trkpt lat="45.54180464211072" lon="8.274786156692917"><ele>228.0</ele><time>2026-04-11T15:23:23.999Z</time></trkpt><trkpt lat="45.54186664182166" lon="8.274821587062396"><ele>228.0</ele><time>2026-04-11T15:23:24.999Z</time></trkpt><trkpt lat="45.54198075076971" lon="8.27490641661631"><ele>228.0</ele><time>2026-04-11T15:23:26.999Z</time></trkpt><trkpt lat="45.54204399071837" lon="8.274951185040683"><ele>228.0</ele><time>2026-04-11T15:23:27.999Z</time></trkpt><trkpt lat="45.54211027556982" lon="8.274997221224167"><ele>228.0</ele><time>2026-04-11T15:23:28.999Z</time></trkpt><trkpt lat="45.54217727027608" lon="8.275046726982788"><ele>228.0</ele><time>2026-04-11T15:23:29.999Z</time></trkpt><trkpt lat="45.5422453300831" lon="8.275099582398788"><ele>228.16666666666666</ele><time>2026-04-11T15:23:30.999Z</time></trkpt><trkpt lat="45.542315670578645" lon="8.275151475739847"><ele>228.33333333333331</ele><time>2026-04-11T15:23:31.999Z</time></trkpt><trkpt lat="45.54238901271656" lon="8.275202343104539"><ele>228.5</ele><time>2026-04-11T15:23:32.999Z</time></trkpt><trkpt lat="45.54246272969162" lon="8.275255206009671"><ele>228.66666666666666</ele><time>2026-04-11T15:23:33.999Z</time></trkpt><trkpt lat="45.54253680734447" lon="8.27531165803526"><ele>228.83333333333331</ele><time>2026-04-11T15:23:34.999Z</time></trkpt><trkpt lat="45.54261225176312" lon="8.27536849711834"><ele>229.0</ele><time>2026-04-11T15:23:35.999Z</time></trkpt><trkpt lat="45.542688464722644" lon="8.275426097994524"><ele>228.99999999999997</ele><time>2026-04-11T15:23:36.999Z</time></trkpt><trkpt lat="45.54276525254892" lon="8.275484785482087"><ele>229.0</ele><time>2026-04-11T15:23:37.999Z</time></trkpt><trkpt lat="45.54284421270955" lon="8.275541121548379"><ele>229.0</ele><time>2026-04-11T15:23:38.999Z</time></trkpt><trkpt lat="45.54292329396326" lon="8.275597519248656"><ele>229.0</ele><time>2026-04-11T15:23:39.999Z</time></trkpt><trkpt lat="45.54300325023137" lon="8.275655873850619"><ele>228.99999999999997</ele><time>2026-04-11T15:23:40.999Z</time></trkpt><trkpt lat="45.54308282402452" lon="8.275715402603236"><ele>229.0</ele><time>2026-04-11T15:23:41.999Z</time></trkpt><trkpt lat="45.54315857907651" lon="8.27577462858018"><ele>229.5</ele><time>2026-04-11T15:23:42.999Z</time></trkpt><trkpt lat="45.54322934227751" lon="8.275830776807808"><ele>230.0</ele><time>2026-04-11T15:23:43.999Z</time></trkpt><trkpt lat="45.54329165953554" lon="8.275874373836508"><ele>230.5</ele><time>2026-04-11T15:23:44.999Z</time></trkpt><trkpt lat="45.54336713473936" lon="8.275954990862965"><ele>231.0</ele><time>2026-04-11T15:23:46.999Z</time></trkpt><trkpt lat="45.54327173084426" lon="8.276253151410963"><ele>231.0</ele><time>2026-04-11T15:23:52.998Z</time></trkpt><trkpt lat="45.54324085128164" lon="8.276336883823047"><ele>231.0</ele><time>2026-04-11T15:23:53.998Z</time></trkpt><trkpt lat="45.543210204084176" lon="8.276424921039304"><ele>231.0</ele><time>2026-04-11T15:23:54.998Z</time></trkpt><trkpt lat="45.54317515070731" lon="8.276516798560117"><ele>231.0</ele><time>2026-04-11T15:23:55.998Z</time></trkpt><trkpt lat="45.54313809255282" lon="8.276612280230172"><ele>231.0</ele><time>2026-04-11T15:23:56.998Z</time></trkpt><trkpt lat="45.543100790842594" lon="8.276712195971273"><ele>231.0</ele><time>2026-04-11T15:23:57.998Z</time></trkpt><trkpt lat="45.54306680201382" lon="8.276814176535373"><ele>231.0</ele><time>2026-04-11T15:23:58.998Z</time></trkpt><trkpt lat="45.54303019724173" lon="8.27691812032803"><ele>230.83333333333334</ele><time>2026-04-11T15:23:59.998Z</time></trkpt><trkpt lat="45.542990707734674" lon="8.277021950247734"><ele>230.66666666666669</ele><time>2026-04-11T15:24:00.998Z</time></trkpt><trkpt lat="45.54295090866866" lon="8.277128020469602"><ele>230.5</ele><time>2026-04-11T15:24:01.998Z</time></trkpt><trkpt lat="45.54291265146978" lon="8.277235492475931"><ele>230.33333333333334</ele><time>2026-04-11T15:24:02.998Z</time></trkpt><trkpt lat="45.542872666902355" lon="8.277342536099429"><ele>230.16666666666669</ele><time>2026-04-11T15:24:03.998Z</time></trkpt><trkpt lat="45.54283708559735" lon="8.277448865526168"><ele>230.0</ele><time>2026-04-11T15:24:04.998Z</time></trkpt><trkpt lat="45.54279845233407" lon="8.277552750756277"><ele>229.83333333333334</ele><time>2026-04-11T15:24:05.998Z</time></trkpt><trkpt lat="45.54276199172198" lon="8.277648425492307"><ele>229.66666666666669</ele><time>2026-04-11T15:24:06.998Z</time></trkpt><trkpt lat="45.54272758478509" lon="8.277747639803545"><ele>229.5</ele><time>2026-04-11T15:24:07.998Z</time></trkpt><trkpt lat="45.542690021167815" lon="8.277848032937266"><ele>229.33333333333331</ele><time>2026-04-11T15:24:08.998Z</time></trkpt><trkpt lat="45.5426516634283" lon="8.277947178144359"><ele>229.16666666666666</ele><time>2026-04-11T15:24:09.998Z</time></trkpt><trkpt lat="45.542613562898616" lon="8.27805174816144"><ele>229.0</ele><time>2026-04-11T15:24:10.998Z</time></trkpt><trkpt lat="45.54257239915992" lon="8.278162037311494"><ele>228.99999999999997</ele><time>2026-04-11T15:24:12Z</time></trkpt><trkpt lat="45.54253388078536" lon="8.278272421765612"><ele>229.0</ele><time>2026-04-11T15:24:13Z</time></trkpt><trkpt lat="45.54249237411057" lon="8.278382398405416"><ele>229.0</ele><time>2026-04-11T15:24:14Z</time></trkpt><trkpt lat="45.54244846863059" lon="8.278492423358482"><ele>229.0</ele><time>2026-04-11T15:24:15Z</time></trkpt><trkpt lat="45.54241034951976" lon="8.278605004960532"><ele>228.99999999999997</ele><time>2026-04-11T15:24:16Z</time></trkpt><trkpt lat="45.54237049111526" lon="8.27871475918689"><ele>229.0</ele><time>2026-04-11T15:24:17Z</time></trkpt><trkpt lat="45.542331175055196" lon="8.27882677235994"><ele>229.16666666666666</ele><time>2026-04-11T15:24:18Z</time></trkpt><trkpt lat="45.542290647915145" lon="8.278936238770644"><ele>229.33333333333331</ele><time>2026-04-11T15:24:19Z</time></trkpt><trkpt lat="45.54225026349104" lon="8.279044051573226"><ele>229.5</ele><time>2026-04-11T15:24:20Z</time></trkpt><trkpt lat="45.542212092956575" lon="8.279153090998259"><ele>229.66666666666669</ele><time>2026-04-11T15:24:21Z</time></trkpt><trkpt lat="45.54217560458748" lon="8.279261745438003"><ele>229.83333333333334</ele><time>2026-04-11T15:24:22Z</time></trkpt><trkpt lat="45.542138040148075" lon="8.27936847679678"><ele>230.0</ele><time>2026-04-11T15:24:23Z</time></trkpt><trkpt lat="45.542098926173665" lon="8.27947091365222"><ele>230.00000000000003</ele><time>2026-04-11T15:24:24Z</time></trkpt><trkpt lat="45.542062078729195" lon="8.279570824445907"><ele>230.0</ele><time>2026-04-11T15:24:25Z</time></trkpt><trkpt lat="45.54202584844774" lon="8.279673850664642"><ele>230.0</ele><time>2026-04-11T15:24:26Z</time></trkpt><trkpt lat="45.541991142542294" lon="8.279778964202443"><ele>230.0</ele><time>2026-04-11T15:24:27Z</time></trkpt><trkpt lat="45.54195369594484" lon="8.279882436078791"><ele>230.00000000000003</ele><time>2026-04-11T15:24:28Z</time></trkpt><trkpt lat="45.541914828734896" lon="8.27998381871335"><ele>230.0</ele><time>2026-04-11T15:24:29Z</time></trkpt><trkpt lat="45.54187610499038" lon="8.28008813518584"><ele>229.66666666666669</ele><time>2026-04-11T15:24:30Z</time></trkpt><trkpt lat="45.54183562254456" lon="8.28019661575247"><ele>229.33333333333334</ele><time>2026-04-11T15:24:31Z</time></trkpt><trkpt lat="45.541790381555245" lon="8.280306322525457"><ele>229.0</ele><time>2026-04-11T15:24:32Z</time></trkpt><trkpt lat="45.541748101132605" lon="8.28042231215706"><ele>228.66666666666669</ele><time>2026-04-11T15:24:33Z</time></trkpt><trkpt lat="45.54170823975656" lon="8.280538698997752"><ele>228.33333333333334</ele><time>2026-04-11T15:24:34Z</time></trkpt><trkpt lat="45.541666257295105" lon="8.280648861351454"><ele>228.0</ele><time>2026-04-11T15:24:35Z</time></trkpt><trkpt lat="45.541623096128646" lon="8.280758855757721"><ele>228.0</ele><time>2026-04-11T15:24:36Z</time></trkpt><trkpt lat="45.54157971102475" lon="8.280869710092684"><ele>228.0</ele><time>2026-04-11T15:24:37Z</time></trkpt><trkpt lat="45.54153832641588" lon="8.280983756050142"><ele>228.0</ele><time>2026-04-11T15:24:38Z</time></trkpt><trkpt lat="45.54149356966997" lon="8.281100919817549"><ele>228.0</ele><time>2026-04-11T15:24:39Z</time></trkpt><trkpt lat="45.54144975661051" lon="8.281216891119307"><ele>228.0</ele><time>2026-04-11T15:24:40Z</time></trkpt><trkpt lat="45.54140708826345" lon="8.28133314554905"><ele>227.83333333333334</ele><time>2026-04-11T15:24:41Z</time></trkpt><trkpt lat="45.54136718822561" lon="8.281444712362113"><ele>227.66666666666669</ele><time>2026-04-11T15:24:42Z</time></trkpt><trkpt lat="45.5413272850568" lon="8.28155196778395"><ele>227.5</ele><time>2026-04-11T15:24:43Z</time></trkpt><trkpt lat="45.54128678028015" lon="8.28165723186679"><ele>227.33333333333334</ele><time>2026-04-11T15:24:44Z</time></trkpt><trkpt lat="45.54124332562331" lon="8.28176963194055"><ele>227.16666666666669</ele><time>2026-04-11T15:24:45Z</time></trkpt><trkpt lat="45.54120302830786" lon="8.281882352229129"><ele>227.0</ele><time>2026-04-11T15:24:46Z</time></trkpt><trkpt lat="45.54116249678444" lon="8.281997141136149"><ele>226.8</ele><time>2026-04-11T15:24:47Z</time></trkpt><trkpt lat="45.541120198104366" lon="8.28210840128855"><ele>226.6</ele><time>2026-04-11T15:24:47.999Z</time></trkpt><trkpt lat="45.54107608046356" lon="8.282219783557998"><ele>226.40000000000003</ele><time>2026-04-11T15:24:48.999Z</time></trkpt><trkpt lat="45.541029209546245" lon="8.282333683236798"><ele>226.20000000000002</ele><time>2026-04-11T15:24:49.999Z</time></trkpt><trkpt lat="45.54098283663191" lon="8.282446754175806"><ele>226.0</ele><time>2026-04-11T15:24:50.999Z</time></trkpt><trkpt lat="45.54093785788077" lon="8.282558322402187"><ele>225.99999999999997</ele><time>2026-04-11T15:24:51.999Z</time></trkpt><trkpt lat="45.54089553285834" lon="8.282667535054339"><ele>226.0</ele><time>2026-04-11T15:24:52.999Z</time></trkpt><trkpt lat="45.540853940479934" lon="8.28277494105758"><ele>226.0</ele><time>2026-04-11T15:24:53.999Z</time></trkpt><trkpt lat="45.54081249427487" lon="8.282882624504262"><ele>226.0</ele><time>2026-04-11T15:24:54.999Z</time></trkpt><trkpt lat="45.540768838689445" lon="8.282992230222268"><ele>225.99999999999997</ele><time>2026-04-11T15:24:55.999Z</time></trkpt><trkpt lat="45.540728380923035" lon="8.28310579228955"><ele>226.0</ele><time>2026-04-11T15:24:56.999Z</time></trkpt><trkpt lat="45.54068897275912" lon="8.28321417158679"><ele>226.33333333333331</ele><time>2026-04-11T15:24:57.999Z</time></trkpt><trkpt lat="45.540648005590484" lon="8.283318158722038"><ele>226.66666666666666</ele><time>2026-04-11T15:24:58.999Z</time></trkpt><trkpt lat="45.54061105962209" lon="8.283421892365492"><ele>227.0</ele><time>2026-04-11T15:24:59.999Z</time></trkpt><trkpt lat="45.54057612611266" lon="8.283526535920403"><ele>227.33333333333331</ele><time>2026-04-11T15:25:00.999Z</time></trkpt><trkpt lat="45.54054494591861" lon="8.283634328967507"><ele>227.66666666666666</ele><time>2026-04-11T15:25:01.999Z</time></trkpt><trkpt lat="45.54051199321003" lon="8.283740374702644"><ele>228.0</ele><time>2026-04-11T15:25:02.999Z</time></trkpt><trkpt lat="45.540475725464695" lon="8.283850350311067"><ele>228.16666666666666</ele><time>2026-04-11T15:25:03.999Z</time></trkpt><trkpt lat="45.54043474268078" lon="8.283958166582224"><ele>228.33333333333331</ele><time>2026-04-11T15:25:04.999Z</time></trkpt><trkpt lat="45.54039133851804" lon="8.284064706554634"><ele>228.5</ele><time>2026-04-11T15:25:05.999Z</time></trkpt><trkpt lat="45.540348694214465" lon="8.284175352613078"><ele>228.66666666666666</ele><time>2026-04-11T15:25:06.999Z</time></trkpt><trkpt lat="45.540306301118065" lon="8.28428988866164"><ele>228.83333333333331</ele><time>2026-04-11T15:25:07.999Z</time></trkpt><trkpt lat="45.5402634131423" lon="8.284405458605795"><ele>229.0</ele><time>2026-04-11T15:25:08.999Z</time></trkpt><trkpt lat="45.54022076095017" lon="8.284524080632352"><ele>229.0</ele><time>2026-04-11T15:25:09.999Z</time></trkpt><trkpt lat="45.540179321709054" lon="8.28464289227022"><ele>228.99999999999997</ele><time>2026-04-11T15:25:10.999Z</time></trkpt><trkpt lat="45.54013574072574" lon="8.28476083915662"><ele>228.99999999999997</ele><time>2026-04-11T15:25:11.999Z</time></trkpt><trkpt lat="45.54009311720228" lon="8.284876540109709"><ele>229.0</ele><time>2026-04-11T15:25:12.999Z</time></trkpt><trkpt lat="45.54004982854017" lon="8.284991252523595"><ele>229.0</ele><time>2026-04-11T15:25:13.999Z</time></trkpt><trkpt lat="45.540005356560144" lon="8.285103002516394"><ele>228.99999999999997</ele><time>2026-04-11T15:25:14.999Z</time></trkpt><trkpt lat="45.53996259274512" lon="8.285217953323992"><ele>229.0</ele><time>2026-04-11T15:25:15.999Z</time></trkpt><trkpt lat="45.53992044894755" lon="8.285330397524351"><ele>229.0</ele><time>2026-04-11T15:25:16.999Z</time></trkpt><trkpt lat="45.53987533037857" lon="8.285440705163907"><ele>229.0</ele><time>2026-04-11T15:25:17.999Z</time></trkpt><trkpt lat="45.53983336304587" lon="8.285553870172766"><ele>228.99999999999997</ele><time>2026-04-11T15:25:18.999Z</time></trkpt><trkpt lat="45.5397939846442" lon="8.285663843735527"><ele>229.0</ele><time>2026-04-11T15:25:19.999Z</time></trkpt><trkpt lat="45.53975716194085" lon="8.285766735189474"><ele>228.85714285714283</ele><time>2026-04-11T15:25:20.999Z</time></trkpt><trkpt lat="45.539725079802324" lon="8.285850559062752"><ele>228.71428571428572</ele><time>2026-04-11T15:25:21.999Z</time></trkpt><trkpt lat="45.53968010810665" lon="8.285913936842203"><ele>228.57142857142856</ele><time>2026-04-11T15:25:22.999Z</time></trkpt><trkpt lat="45.53962032680666" lon="8.285959043263464"><ele>228.42857142857142</ele><time>2026-04-11T15:25:23.999Z</time></trkpt><trkpt lat="45.53954852233591" lon="8.285984706109073"><ele>228.28571428571428</ele><time>2026-04-11T15:25:24.999Z</time></trkpt><trkpt lat="45.53947107079952" lon="8.285998769616096"><ele>228.14285714285714</ele><time>2026-04-11T15:25:25.999Z</time></trkpt><trkpt lat="45.53939081688428" lon="8.286015218263724"><ele>228.0</ele><time>2026-04-11T15:25:26.999Z</time></trkpt><trkpt lat="45.53930901417828" lon="8.286038071462047"><ele>227.83333333333334</ele><time>2026-04-11T15:25:27.999Z</time></trkpt><trkpt lat="45.5392251136381" lon="8.286061085980402"><ele>227.66666666666669</ele><time>2026-04-11T15:25:28.999Z</time></trkpt><trkpt lat="45.53913944723045" lon="8.286082375228593"><ele>227.5</ele><time>2026-04-11T15:25:29.999Z</time></trkpt><trkpt lat="45.53905416756834" lon="8.286106173293453"><ele>227.33333333333334</ele><time>2026-04-11T15:25:30.999Z</time></trkpt><trkpt lat="45.53896841078318" lon="8.286133366724673"><ele>227.16666666666669</ele><time>2026-04-11T15:25:31.999Z</time></trkpt><trkpt lat="45.53887880926748" lon="8.28615659963926"><ele>227.0</ele><time>2026-04-11T15:25:32.999Z</time></trkpt><trkpt lat="45.53879116433918" lon="8.28617677730467"><ele>227.00000000000003</ele><time>2026-04-11T15:25:33.999Z</time></trkpt><trkpt lat="45.53870489104136" lon="8.286195244213744"><ele>227.0</ele><time>2026-04-11T15:25:34.999Z</time></trkpt><trkpt lat="45.538618051245365" lon="8.286216126942332"><ele>227.0</ele><time>2026-04-11T15:25:35.999Z</time></trkpt><trkpt lat="45.53853091021173" lon="8.286239102456625"><ele>227.0</ele><time>2026-04-11T15:25:36.999Z</time></trkpt><trkpt lat="45.538444095737255" lon="8.286262589936992"><ele>227.00000000000003</ele><time>2026-04-11T15:25:37.999Z</time></trkpt><trkpt lat="45.53835692305919" lon="8.28628522137703"><ele>227.0</ele><time>2026-04-11T15:25:38.999Z</time></trkpt><trkpt lat="45.53827074672778" lon="8.286305994797534"><ele>227.00000000000003</ele><time>2026-04-11T15:25:39.999Z</time></trkpt><trkpt lat="45.53818598178791" lon="8.286320745918342"><ele>227.0</ele><time>2026-04-11T15:25:40.999Z</time></trkpt><trkpt lat="45.53810617608699" lon="8.286335518869636"><ele>227.0</ele><time>2026-04-11T15:25:41.999Z</time></trkpt><trkpt lat="45.53803888499788" lon="8.286348445337843"><ele>227.0</ele><time>2026-04-11T15:25:42.999Z</time></trkpt><trkpt lat="45.53794136746151" lon="8.28636702525411"><ele>227.00000000000003</ele><time>2026-04-11T15:25:44.999Z</time></trkpt><trkpt lat="45.53786476471221" lon="8.28640005435812"><ele>227.0</ele><time>2026-04-11T15:25:47.999Z</time></trkpt><trkpt lat="45.53784309970617" lon="8.286494540445206"><ele>227.00000000000003</ele><time>2026-04-11T15:26:12.998Z</time></trkpt><trkpt lat="45.53788216074102" lon="8.286570364262545"><ele>227.0</ele><time>2026-04-11T15:26:14.998Z</time></trkpt><trkpt lat="45.537931451574245" lon="8.286647113886344"><ele>227.0</ele><time>2026-04-11T15:26:16.998Z</time></trkpt><trkpt lat="45.537980414238994" lon="8.286734460537707"><ele>227.0</ele><time>2026-04-11T15:26:19Z</time></trkpt><trkpt lat="45.53803719941788" lon="8.286824584687382"><ele>227.00000000000003</ele><time>2026-04-11T15:26:21Z</time></trkpt><trkpt lat="45.538092477964156" lon="8.286905989382982"><ele>227.0</ele><time>2026-04-11T15:26:23Z</time></trkpt><trkpt lat="45.53814656250847" lon="8.286995412757443"><ele>227.00000000000003</ele><time>2026-04-11T15:26:25Z</time></trkpt><trkpt lat="45.53820277118687" lon="8.287089190709011"><ele>227.0</ele><time>2026-04-11T15:26:27Z</time></trkpt><trkpt lat="45.53826149045363" lon="8.28717573449945"><ele>227.0</ele><time>2026-04-11T15:26:29Z</time></trkpt><trkpt lat="45.538318264627385" lon="8.287263704104548"><ele>227.0</ele><time>2026-04-11T15:26:31Z</time></trkpt><trkpt lat="45.53837268318142" lon="8.287349843665147"><ele>227.00000000000003</ele><time>2026-04-11T15:26:33Z</time></trkpt><trkpt lat="45.53842775607892" lon="8.287430654066538"><ele>227.0</ele><time>2026-04-11T15:26:35Z</time></trkpt><trkpt lat="45.53848003569199" lon="8.28751367053833"><ele>227.00000000000003</ele><time>2026-04-11T15:26:37Z</time></trkpt><trkpt lat="45.538491631782406" lon="8.287623973448051"><ele>227.0</ele><time>2026-04-11T15:26:39Z</time></trkpt><trkpt lat="45.53842404854544" lon="8.287684259657835"><ele>227.0</ele><time>2026-04-11T15:26:41Z</time></trkpt><trkpt lat="45.538343438831056" lon="8.287676648260389"><ele>227.0</ele><time>2026-04-11T15:26:43Z</time></trkpt><trkpt lat="45.53826152787487" lon="8.287697468377399"><ele>227.00000000000003</ele><time>2026-04-11T15:26:45Z</time></trkpt><trkpt lat="45.53817873392326" lon="8.28772471044905"><ele>227.0</ele><time>2026-04-11T15:26:47Z</time></trkpt><trkpt lat="45.538093237101144" lon="8.287751740661369"><ele>227.0</ele><time>2026-04-11T15:26:49Z</time></trkpt><trkpt lat="45.538004399788036" lon="8.28779750345139"><ele>227.0</ele><time>2026-04-11T15:26:50.999Z</time></trkpt><trkpt lat="45.53791511982261" lon="8.28782534949609"><ele>227.0</ele><time>2026-04-11T15:26:52.999Z</time></trkpt><trkpt lat="45.53782058191375" lon="8.28785338827095"><ele>227.0</ele><time>2026-04-11T15:26:54.999Z</time></trkpt><trkpt lat="45.53772313311422" lon="8.28788383991399"><ele>227.0</ele><time>2026-04-11T15:26:56.999Z</time></trkpt><trkpt lat="45.53762415165103" lon="8.287891829247473"><ele>227.0</ele><time>2026-04-11T15:26:58.999Z</time></trkpt><trkpt lat="45.537529847462345" lon="8.287924597581807"><ele>227.0</ele><time>2026-04-11T15:27:00.999Z</time></trkpt><trkpt lat="45.53743628174727" lon="8.287960212916689"><ele>227.0</ele><time>2026-04-11T15:27:02.999Z</time></trkpt><trkpt lat="45.53734659124343" lon="8.28801788301702"><ele>227.0</ele><time>2026-04-11T15:27:04.999Z</time></trkpt><trkpt lat="45.537253442963745" lon="8.288062462247122"><ele>227.0</ele><time>2026-04-11T15:27:06.999Z</time></trkpt><trkpt lat="45.53715431263149" lon="8.28811568877886"><ele>227.16666666666669</ele><time>2026-04-11T15:27:08.999Z</time></trkpt><trkpt lat="45.53703667450591" lon="8.288179039453178"><ele>227.33333333333334</ele><time>2026-04-11T15:27:10.999Z</time></trkpt><trkpt lat="45.5369739513629" lon="8.288215099656759"><ele>227.5</ele><time>2026-04-11T15:27:11.999Z</time></trkpt><trkpt lat="45.53690847758149" lon="8.288250709278831"><ele>227.66666666666669</ele><time>2026-04-11T15:27:12.999Z</time></trkpt><trkpt lat="45.53683999690258" lon="8.288289396937815"><ele>227.83333333333334</ele><time>2026-04-11T15:27:13.999Z</time></trkpt><trkpt lat="45.536769848682056" lon="8.28833031372814"><ele>228.0</ele><time>2026-04-11T15:27:14.999Z</time></trkpt><trkpt lat="45.53669488189418" lon="8.288375016360535"><ele>228.0</ele><time>2026-04-11T15:27:15.999Z</time></trkpt><trkpt lat="45.536616388602916" lon="8.288422234370962"><ele>228.0</ele><time>2026-04-11T15:27:16.999Z</time></trkpt><trkpt lat="45.53653449834947" lon="8.288470040212314"><ele>228.0</ele><time>2026-04-11T15:27:17.999Z</time></trkpt><trkpt lat="45.53644864554485" lon="8.288516916907858"><ele>228.0</ele><time>2026-04-11T15:27:18.999Z</time></trkpt><trkpt lat="45.5363605291796" lon="8.28856265474029"><ele>228.0</ele><time>2026-04-11T15:27:19.999Z</time></trkpt><trkpt lat="45.53627212697203" lon="8.288613937695423"><ele>227.8</ele><time>2026-04-11T15:27:20.999Z</time></trkpt><trkpt lat="45.536180588270305" lon="8.288667134385507"><ele>227.60000000000002</ele><time>2026-04-11T15:27:21.999Z</time></trkpt><trkpt lat="45.53608845915973" lon="8.288721560535953"><ele>227.39999999999998</ele><time>2026-04-11T15:27:22.999Z</time></trkpt><trkpt lat="45.535993739074854" lon="8.288779941578513"><ele>227.2</ele><time>2026-04-11T15:27:23.999Z</time></trkpt><trkpt lat="45.535897440921694" lon="8.288835613776854"><ele>227.0</ele><time>2026-04-11T15:27:24.999Z</time></trkpt><trkpt lat="45.535799189782345" lon="8.288890679862"><ele>226.8</ele><time>2026-04-11T15:27:25.999Z</time></trkpt><trkpt lat="45.53570087865335" lon="8.288949073395237"><ele>226.6</ele><time>2026-04-11T15:27:26.999Z</time></trkpt><trkpt lat="45.53560100168" lon="8.28900755731939"><ele>226.40000000000003</ele><time>2026-04-11T15:27:27.999Z</time></trkpt><trkpt lat="45.53549918961122" lon="8.289065917180432"><ele>226.20000000000002</ele><time>2026-04-11T15:27:28.999Z</time></trkpt><trkpt lat="45.53539673620036" lon="8.289121024418254"><ele>226.0</ele><time>2026-04-11T15:27:29.999Z</time></trkpt><trkpt lat="45.53529172243831" lon="8.289180923001151"><ele>226.0</ele><time>2026-04-11T15:27:30.999Z</time></trkpt><trkpt lat="45.535187588634855" lon="8.289241719263797"><ele>226.0</ele><time>2026-04-11T15:27:31.999Z</time></trkpt><trkpt lat="45.53508342570215" lon="8.289302888912044"><ele>226.0</ele><time>2026-04-11T15:27:32.999Z</time></trkpt><trkpt lat="45.53497675754868" lon="8.289362327560909"><ele>226.0</ele><time>2026-04-11T15:27:33.999Z</time></trkpt><trkpt lat="45.53487179648931" lon="8.289425847037075"><ele>226.0</ele><time>2026-04-11T15:27:34.999Z</time></trkpt><trkpt lat="45.53476475909827" lon="8.289488538403727"><ele>226.0</ele><time>2026-04-11T15:27:35.999Z</time></trkpt><trkpt lat="45.534654785772894" lon="8.289550905311216"><ele>226.0</ele><time>2026-04-11T15:27:36.999Z</time></trkpt><trkpt lat="45.534544272907475" lon="8.289614520001187"><ele>226.0</ele><time>2026-04-11T15:27:37.999Z</time></trkpt><trkpt lat="45.5344319165465" lon="8.289677331289015"><ele>225.75</ele><time>2026-04-11T15:27:38.999Z</time></trkpt><trkpt lat="45.534317266010284" lon="8.289735922172309"><ele>225.5</ele><time>2026-04-11T15:27:39.999Z</time></trkpt><trkpt lat="45.53419926877332" lon="8.289785570838124"><ele>225.25</ele><time>2026-04-11T15:27:40.999Z</time></trkpt><trkpt lat="45.53407877247537" lon="8.289826951954625"><ele>225.0</ele><time>2026-04-11T15:27:41.999Z</time></trkpt><trkpt lat="45.53395534813455" lon="8.289834960839519"><ele>225.25</ele><time>2026-04-11T15:27:42.999Z</time></trkpt><trkpt lat="45.53383353335608" lon="8.289852847690302"><ele>225.5</ele><time>2026-04-11T15:27:43.999Z</time></trkpt><trkpt lat="45.53371288487625" lon="8.289888129521982"><ele>225.75</ele><time>2026-04-11T15:27:44.999Z</time></trkpt><trkpt lat="45.53359106662114" lon="8.289902141189442"><ele>226.0</ele><time>2026-04-11T15:27:45.999Z</time></trkpt><trkpt lat="45.53346771679177" lon="8.28991494077767"><ele>226.0</ele><time>2026-04-11T15:27:46.999Z</time></trkpt><trkpt lat="45.53334231627749" lon="8.289924833882743"><ele>226.0</ele><time>2026-04-11T15:27:47.999Z</time></trkpt><trkpt lat="45.53321602463944" lon="8.28993578904786"><ele>226.0</ele><time>2026-04-11T15:27:48.999Z</time></trkpt><trkpt lat="45.533087720982586" lon="8.289946953957035"><ele>226.0</ele><time>2026-04-11T15:27:49.999Z</time></trkpt><trkpt lat="45.532958774943" lon="8.289963923722096"><ele>225.75</ele><time>2026-04-11T15:27:50.999Z</time></trkpt><trkpt lat="45.53283023101231" lon="8.289981124193163"><ele>225.5</ele><time>2026-04-11T15:27:51.999Z</time></trkpt><trkpt lat="45.53269749524076" lon="8.289994118233441"><ele>225.25</ele><time>2026-04-11T15:27:52.999Z</time></trkpt><trkpt lat="45.532563343524345" lon="8.290006467458428"><ele>225.0</ele><time>2026-04-11T15:27:53.999Z</time></trkpt><trkpt lat="45.532428345135926" lon="8.29002002198354"><ele>225.0</ele><time>2026-04-11T15:27:54.999Z</time></trkpt><trkpt lat="45.532293420551916" lon="8.290034404011587"><ele>225.0</ele><time>2026-04-11T15:27:55.999Z</time></trkpt><trkpt lat="45.532160287795804" lon="8.290049626035985"><ele>225.0</ele><time>2026-04-11T15:27:56.999Z</time></trkpt><trkpt lat="45.53202821370123" lon="8.29006522054669"><ele>225.0</ele><time>2026-04-11T15:27:57.999Z</time></trkpt><trkpt lat="45.531897275292025" lon="8.290081457524341"><ele>224.5</ele><time>2026-04-11T15:27:58.998Z</time></trkpt><trkpt lat="45.53176876261462" lon="8.290095425626086"><ele>224.0</ele><time>2026-04-11T15:27:59.998Z</time></trkpt><trkpt lat="45.531642451921414" lon="8.290109878369941"><ele>223.5</ele><time>2026-04-11T15:28:00.998Z</time></trkpt><trkpt lat="45.5315194570455" lon="8.29011844259019"><ele>223.0</ele><time>2026-04-11T15:28:01.998Z</time></trkpt><trkpt lat="45.53139892610241" lon="8.290126272184002"><ele>223.0</ele><time>2026-04-11T15:28:02.998Z</time></trkpt><trkpt lat="45.531277763717284" lon="8.290133522243515"><ele>223.0</ele><time>2026-04-11T15:28:03.998Z</time></trkpt><trkpt lat="45.53115152510905" lon="8.290141918852306"><ele>223.0</ele><time>2026-04-11T15:28:04.998Z</time></trkpt><trkpt lat="45.531024607764024" lon="8.290149420723239"><ele>223.0</ele><time>2026-04-11T15:28:05.998Z</time></trkpt><trkpt lat="45.53090024878726" lon="8.290159426223603"><ele>222.75</ele><time>2026-04-11T15:28:06.998Z</time></trkpt><trkpt lat="45.530778245943814" lon="8.290171410619193"><ele>222.5</ele><time>2026-04-11T15:28:07.998Z</time></trkpt><trkpt lat="45.530657992612056" lon="8.290183399859664"><ele>222.25</ele><time>2026-04-11T15:28:08.998Z</time></trkpt><trkpt lat="45.530537225532555" lon="8.29019518511867"><ele>222.0</ele><time>2026-04-11T15:28:09.998Z</time></trkpt><trkpt lat="45.53041633814248" lon="8.290206447980493"><ele>222.0</ele><time>2026-04-11T15:28:10.998Z</time></trkpt><trkpt lat="45.530296282766365" lon="8.290214223522318"><ele>222.0</ele><time>2026-04-11T15:28:11.998Z</time></trkpt><trkpt lat="45.530176415718415" lon="8.290221023791528"><ele>222.0</ele><time>2026-04-11T15:28:12.998Z</time></trkpt><trkpt lat="45.53005798072158" lon="8.290230990084522"><ele>222.0</ele><time>2026-04-11T15:28:13.998Z</time></trkpt><trkpt lat="45.52993968810997" lon="8.290239174784276"><ele>222.0</ele><time>2026-04-11T15:28:14.998Z</time></trkpt><trkpt lat="45.52982217482516" lon="8.290244100963578"><ele>222.0</ele><time>2026-04-11T15:28:15.998Z</time></trkpt><trkpt lat="45.52970477379785" lon="8.290250280716812"><ele>222.0</ele><time>2026-04-11T15:28:16.998Z</time></trkpt><trkpt lat="45.5295877280497" lon="8.290258079270943"><ele>222.0</ele><time>2026-04-11T15:28:17.998Z</time></trkpt><trkpt lat="45.529471454904545" lon="8.290269970320901"><ele>221.83333333333334</ele><time>2026-04-11T15:28:18.998Z</time></trkpt><trkpt lat="45.529360717918934" lon="8.290281990673877"><ele>221.66666666666669</ele><time>2026-04-11T15:28:19.998Z</time></trkpt><trkpt lat="45.529264504255025" lon="8.290289643330643"><ele>221.5</ele><time>2026-04-11T15:28:20.998Z</time></trkpt><trkpt lat="45.52918381791788" lon="8.290292613391138"><ele>221.33333333333334</ele><time>2026-04-11T15:28:21.998Z</time></trkpt><trkpt lat="45.529120228120235" lon="8.290278065479642"><ele>221.16666666666669</ele><time>2026-04-11T15:28:23Z</time></trkpt><trkpt lat="45.52904585474524" lon="8.290283325048051"><ele>221.0</ele><time>2026-04-11T15:28:25Z</time></trkpt><trkpt lat="45.52903762078954" lon="8.2904550036332"><ele>221.00000000000003</ele><time>2026-04-11T15:29:16.999Z</time></trkpt><trkpt lat="45.52904218324492" lon="8.290585551467359"><ele>221.0</ele><time>2026-04-11T15:29:19.999Z</time></trkpt><trkpt lat="45.52904116184699" lon="8.29069761945845"><ele>221.0</ele><time>2026-04-11T15:29:21.999Z</time></trkpt><trkpt lat="45.529035921678116" lon="8.290854185492094"><ele>221.0</ele><time>2026-04-11T15:29:23.999Z</time></trkpt><trkpt lat="45.52903196698656" lon="8.290952548135914"><ele>221.00000000000003</ele><time>2026-04-11T15:29:24.999Z</time></trkpt><trkpt lat="45.52902740126685" lon="8.291062715610645"><ele>221.0</ele><time>2026-04-11T15:29:25.999Z</time></trkpt><trkpt lat="45.52902194780905" lon="8.291184998509395"><ele>221.00000000000003</ele><time>2026-04-11T15:29:26.999Z</time></trkpt><trkpt lat="45.5290135254125" lon="8.291320245039328"><ele>221.0</ele><time>2026-04-11T15:29:27.999Z</time></trkpt><trkpt lat="45.52900719892852" lon="8.291452928995108"><ele>221.0</ele><time>2026-04-11T15:29:28.999Z</time></trkpt><trkpt lat="45.52899938444362" lon="8.29158423951415"><ele>221.0</ele><time>2026-04-11T15:29:29.999Z</time></trkpt><trkpt lat="45.52899503163619" lon="8.291708769816301"><ele>221.00000000000003</ele><time>2026-04-11T15:29:30.999Z</time></trkpt><trkpt lat="45.52900133945714" lon="8.291815404844973"><ele>221.0</ele><time>2026-04-11T15:29:31.999Z</time></trkpt><trkpt lat="45.52903886123531" lon="8.291907514486207"><ele>221.4</ele><time>2026-04-11T15:29:32.999Z</time></trkpt><trkpt lat="45.52907943616825" lon="8.291980522179237"><ele>221.8</ele><time>2026-04-11T15:29:33.999Z</time></trkpt><trkpt lat="45.52917433352525" lon="8.292084314686129"><ele>222.20000000000002</ele><time>2026-04-11T15:29:35.999Z</time></trkpt><trkpt lat="45.52928084567445" lon="8.292099386359624"><ele>222.60000000000002</ele><time>2026-04-11T15:29:37.999Z</time></trkpt><trkpt lat="45.52935456549781" lon="8.292078406822336"><ele>223.0</ele><time>2026-04-11T15:29:38.999Z</time></trkpt><trkpt lat="45.5294398846174" lon="8.292037994298502"><ele>223.0</ele><time>2026-04-11T15:29:39.999Z</time></trkpt><trkpt lat="45.529513147542566" lon="8.291994168313108"><ele>223.0</ele><time>2026-04-11T15:29:40.999Z</time></trkpt><trkpt lat="45.52958469123035" lon="8.291975450104069"><ele>223.0</ele><time>2026-04-11T15:29:41.999Z</time></trkpt><trkpt lat="45.529654125451295" lon="8.291997161402241"><ele>223.0</ele><time>2026-04-11T15:29:42.999Z</time></trkpt><trkpt lat="45.52971905030088" lon="8.292042456617489"><ele>223.0</ele><time>2026-04-11T15:29:43.999Z</time></trkpt><trkpt lat="45.52978040134299" lon="8.292095522265667"><ele>223.0</ele><time>2026-04-11T15:29:44.999Z</time></trkpt><trkpt lat="45.52984569808353" lon="8.292161341744508"><ele>223.0</ele><time>2026-04-11T15:29:45.999Z</time></trkpt><trkpt lat="45.52991288306477" lon="8.29224025529219"><ele>223.16666666666666</ele><time>2026-04-11T15:29:46.999Z</time></trkpt><trkpt lat="45.52997085619941" lon="8.29233600027914"><ele>223.33333333333331</ele><time>2026-04-11T15:29:47.999Z</time></trkpt><trkpt lat="45.53004213074093" lon="8.292421561508501"><ele>223.5</ele><time>2026-04-11T15:29:48.999Z</time></trkpt><trkpt lat="45.53010758069896" lon="8.29250387630034"><ele>223.66666666666669</ele><time>2026-04-11T15:29:49.999Z</time></trkpt><trkpt lat="45.53016536615781" lon="8.292597130968433"><ele>223.83333333333334</ele><time>2026-04-11T15:29:50.999Z</time></trkpt><trkpt lat="45.53023580303459" lon="8.292679763327232"><ele>224.0</ele><time>2026-04-11T15:29:51.999Z</time></trkpt><trkpt lat="45.530294967664716" lon="8.292756101810387"><ele>224.00000000000003</ele><time>2026-04-11T15:29:52.999Z</time></trkpt><trkpt lat="45.530331034014" lon="8.292831509663001"><ele>224.0</ele><time>2026-04-11T15:29:53.999Z</time></trkpt><trkpt lat="45.53032221763744" lon="8.29302412701938"><ele>224.0</ele><time>2026-04-11T15:29:55.999Z</time></trkpt><trkpt lat="45.530293714196354" lon="8.293121408268194"><ele>224.0</ele><time>2026-04-11T15:29:56.999Z</time></trkpt><trkpt lat="45.53025292243272" lon="8.293227590966454"><ele>224.00000000000003</ele><time>2026-04-11T15:29:57.999Z</time></trkpt><trkpt lat="45.530226304250945" lon="8.293351538287233"><ele>224.0</ele><time>2026-04-11T15:29:58.999Z</time></trkpt><trkpt lat="45.53020449710883" lon="8.293485073824861"><ele>224.00000000000003</ele><time>2026-04-11T15:29:59.999Z</time></trkpt><trkpt lat="45.5301788604981" lon="8.293615172714766"><ele>224.0</ele><time>2026-04-11T15:30:00.999Z</time></trkpt><trkpt lat="45.530149742737215" lon="8.293747840611129"><ele>224.0</ele><time>2026-04-11T15:30:01.999Z</time></trkpt><trkpt lat="45.53012615739662" lon="8.29386121827082"><ele>224.0</ele><time>2026-04-11T15:30:02.998Z</time></trkpt><trkpt lat="45.5301170970194" lon="8.293958237288054"><ele>224.00000000000003</ele><time>2026-04-11T15:30:03.998Z</time></trkpt><trkpt lat="45.5301376967345" lon="8.294051474863526"><ele>224.0</ele><time>2026-04-11T15:30:04.998Z</time></trkpt><trkpt lat="45.530153703781565" lon="8.29415545099051"><ele>223.66666666666669</ele><time>2026-04-11T15:30:05.998Z</time></trkpt><trkpt lat="45.5301679362105" lon="8.294264644031562"><ele>223.33333333333334</ele><time>2026-04-11T15:30:06.998Z</time></trkpt><trkpt lat="45.53018732837747" lon="8.294384802513976"><ele>223.0</ele><time>2026-04-11T15:30:07.998Z</time></trkpt><trkpt lat="45.53019561844404" lon="8.294510844508686"><ele>222.66666666666669</ele><time>2026-04-11T15:30:08.998Z</time></trkpt><trkpt lat="45.530210203825945" lon="8.294641530723169"><ele>222.33333333333334</ele><time>2026-04-11T15:30:09.998Z</time></trkpt><trkpt lat="45.530229051529965" lon="8.294776050602602"><ele>222.0</ele><time>2026-04-11T15:30:10.998Z</time></trkpt><trkpt lat="45.53024069821727" lon="8.294912305258197"><ele>221.8</ele><time>2026-04-11T15:30:11.998Z</time></trkpt><trkpt lat="45.53025157751565" lon="8.295048765253592"><ele>221.6</ele><time>2026-04-11T15:30:12.998Z</time></trkpt><trkpt lat="45.53026834756281" lon="8.295191013761723"><ele>221.40000000000003</ele><time>2026-04-11T15:30:13.998Z</time></trkpt><trkpt lat="45.530283415096754" lon="8.295337787555058"><ele>221.20000000000002</ele><time>2026-04-11T15:30:14.998Z</time></trkpt><trkpt lat="45.530296069839736" lon="8.295484680751809"><ele>221.0</ele><time>2026-04-11T15:30:15.998Z</time></trkpt><trkpt lat="45.53030871382018" lon="8.295632276269714"><ele>221.0</ele><time>2026-04-11T15:30:16.998Z</time></trkpt><trkpt lat="45.53032178804846" lon="8.295779330621695"><ele>221.00000000000003</ele><time>2026-04-11T15:30:17.998Z</time></trkpt><trkpt lat="45.53034291785332" lon="8.295927562340594"><ele>221.00000000000003</ele><time>2026-04-11T15:30:18.998Z</time></trkpt><trkpt lat="45.53036118830218" lon="8.296077185848814"><ele>221.0</ele><time>2026-04-11T15:30:19.998Z</time></trkpt><trkpt lat="45.5303775599639" lon="8.296227951616826"><ele>221.0</ele><time>2026-04-11T15:30:20.998Z</time></trkpt><trkpt lat="45.53039455431878" lon="8.296378621257137"><ele>221.20000000000002</ele><time>2026-04-11T15:30:21.998Z</time></trkpt><trkpt lat="45.530409889930645" lon="8.296531633140361"><ele>221.40000000000003</ele><time>2026-04-11T15:30:22.998Z</time></trkpt><trkpt lat="45.53042755602892" lon="8.2966836765368"><ele>221.6</ele><time>2026-04-11T15:30:23.998Z</time></trkpt><trkpt lat="45.53044678851606" lon="8.296836660319224"><ele>221.8</ele><time>2026-04-11T15:30:24.998Z</time></trkpt><trkpt lat="45.53046249479857" lon="8.296990080620832"><ele>222.0</ele><time>2026-04-11T15:30:25.998Z</time></trkpt><trkpt lat="45.530481282309104" lon="8.297143756171504"><ele>222.0</ele><time>2026-04-11T15:30:26.998Z</time></trkpt><trkpt lat="45.53049897550214" lon="8.29730058281794"><ele>222.0</ele><time>2026-04-11T15:30:27.998Z</time></trkpt><trkpt lat="45.530513690515136" lon="8.297455364991977"><ele>222.0</ele><time>2026-04-11T15:30:29Z</time></trkpt><trkpt lat="45.53052902402291" lon="8.297608255294328"><ele>222.0</ele><time>2026-04-11T15:30:30Z</time></trkpt><trkpt lat="45.5305462457802" lon="8.297752456718024"><ele>222.0</ele><time>2026-04-11T15:30:31Z</time></trkpt><trkpt lat="45.530561383976824" lon="8.297882730703424"><ele>222.0</ele><time>2026-04-11T15:30:32Z</time></trkpt><trkpt lat="45.530571074774265" lon="8.297993104491267"><ele>222.0</ele><time>2026-04-11T15:30:33Z</time></trkpt><trkpt lat="45.53057851643499" lon="8.298085337765311"><ele>222.0</ele><time>2026-04-11T15:30:34Z</time></trkpt><trkpt lat="45.53061149151127" lon="8.298232184810914"><ele>222.0</ele><time>2026-04-11T15:30:36Z</time></trkpt><trkpt lat="45.530707688052715" lon="8.29832121038171"><ele>222.0</ele><time>2026-04-11T15:30:38Z</time></trkpt><trkpt lat="45.53077588616005" lon="8.298365309612729"><ele>222.0</ele><time>2026-04-11T15:30:39Z</time></trkpt><trkpt lat="45.53083981129115" lon="8.298437181420269"><ele>222.0</ele><time>2026-04-11T15:30:40Z</time></trkpt><trkpt lat="45.53090971157543" lon="8.298512193893606"><ele>222.0</ele><time>2026-04-11T15:30:41Z</time></trkpt><trkpt lat="45.53099211089256" lon="8.298580324605636"><ele>222.0</ele><time>2026-04-11T15:30:42Z</time></trkpt><trkpt lat="45.53107461863048" lon="8.29865459103596"><ele>222.0</ele><time>2026-04-11T15:30:43Z</time></trkpt><trkpt lat="45.531153714278275" lon="8.298730419411543"><ele>222.0</ele><time>2026-04-11T15:30:44Z</time></trkpt><trkpt lat="45.53123298842612" lon="8.298806957848297"><ele>222.0</ele><time>2026-04-11T15:30:45Z</time></trkpt><trkpt lat="45.531312331316734" lon="8.298885821105037"><ele>222.0</ele><time>2026-04-11T15:30:46Z</time></trkpt><trkpt lat="45.531395292571766" lon="8.298958631391166"><ele>222.0</ele><time>2026-04-11T15:30:47Z</time></trkpt><trkpt lat="45.531477937850454" lon="8.29903313068418"><ele>222.0</ele><time>2026-04-11T15:30:48Z</time></trkpt><trkpt lat="45.531559981668224" lon="8.299107733149654"><ele>222.0</ele><time>2026-04-11T15:30:49Z</time></trkpt><trkpt lat="45.531641119023234" lon="8.299184422299856"><ele>222.2</ele><time>2026-04-11T15:30:50Z</time></trkpt><trkpt lat="45.53172188157997" lon="8.299263646791472"><ele>222.39999999999998</ele><time>2026-04-11T15:30:51Z</time></trkpt><trkpt lat="45.53180190938434" lon="8.299345118632054"><ele>222.60000000000002</ele><time>2026-04-11T15:30:52Z</time></trkpt><trkpt lat="45.531881684133666" lon="8.299425556261546"><ele>222.8</ele><time>2026-04-11T15:30:53Z</time></trkpt><trkpt lat="45.531963742014064" lon="8.299500763504357"><ele>223.0</ele><time>2026-04-11T15:30:54Z</time></trkpt><trkpt lat="45.53204472988088" lon="8.29957841870437"><ele>222.99999999999997</ele><time>2026-04-11T15:30:55Z</time></trkpt><trkpt lat="45.532121180084665" lon="8.299653655006763"><ele>223.0</ele><time>2026-04-11T15:30:56Z</time></trkpt><trkpt lat="45.53219210706869" lon="8.299723150517718"><ele>223.0</ele><time>2026-04-11T15:30:57Z</time></trkpt><trkpt lat="45.53224766803605" lon="8.299791016092541"><ele>223.0</ele><time>2026-04-11T15:30:58Z</time></trkpt><trkpt lat="45.53229118888068" lon="8.299873033558141"><ele>222.99999999999997</ele><time>2026-04-11T15:30:58.999Z</time></trkpt><trkpt lat="45.532319841234035" lon="8.299967543942497"><ele>223.0</ele><time>2026-04-11T15:30:59.999Z</time></trkpt><trkpt lat="45.532330141099045" lon="8.300061172685632"><ele>222.99999999999997</ele><time>2026-04-11T15:31:00.999Z</time></trkpt><trkpt lat="45.53230154027313" lon="8.300207095356267"><ele>223.0</ele><time>2026-04-11T15:31:02.999Z</time></trkpt><trkpt lat="45.532245307234604" lon="8.300256744899398"><ele>223.0</ele><time>2026-04-11T15:31:03.999Z</time></trkpt><trkpt lat="45.532186840434335" lon="8.300305371729326"><ele>223.0</ele><time>2026-04-11T15:31:04.999Z</time></trkpt><trkpt lat="45.5321261962918" lon="8.300364535233351"><ele>222.99999999999997</ele><time>2026-04-11T15:31:05.999Z</time></trkpt><trkpt lat="45.53206028816593" lon="8.300433163508156"><ele>223.0</ele><time>2026-04-11T15:31:06.999Z</time></trkpt><trkpt lat="45.53198435989789" lon="8.300495490316447"><ele>223.0</ele><time>2026-04-11T15:31:07.999Z</time></trkpt><trkpt lat="45.531908875061035" lon="8.300571670162936"><ele>223.0</ele><time>2026-04-11T15:31:08.999Z</time></trkpt><trkpt lat="45.53183327847151" lon="8.300656250184161"><ele>223.0</ele><time>2026-04-11T15:31:09.999Z</time></trkpt><trkpt lat="45.53175317991684" lon="8.30074288112265"><ele>223.0</ele><time>2026-04-11T15:31:10.999Z</time></trkpt><trkpt lat="45.531668765766334" lon="8.300825461303976"><ele>223.0</ele><time>2026-04-11T15:31:11.999Z</time></trkpt><trkpt lat="45.53158237257675" lon="8.300908110352543"><ele>223.0</ele><time>2026-04-11T15:31:12.999Z</time></trkpt><trkpt lat="45.531496057929466" lon="8.300995366674169"><ele>223.0</ele><time>2026-04-11T15:31:13.999Z</time></trkpt><trkpt lat="45.53140988986938" lon="8.301086828432405"><ele>223.0</ele><time>2026-04-11T15:31:14.999Z</time></trkpt><trkpt lat="45.53132100435528" lon="8.30117910706366"><ele>223.0</ele><time>2026-04-11T15:31:15.999Z</time></trkpt><trkpt lat="45.53122911136882" lon="8.301274288913776"><ele>223.0</ele><time>2026-04-11T15:31:16.999Z</time></trkpt><trkpt lat="45.5311350848793" lon="8.301367846625121"><ele>222.5</ele><time>2026-04-11T15:31:17.999Z</time></trkpt><trkpt lat="45.53104035313881" lon="8.301464829875684"><ele>222.0</ele><time>2026-04-11T15:31:18.999Z</time></trkpt><trkpt lat="45.53094181657159" lon="8.301556949003427"><ele>221.5</ele><time>2026-04-11T15:31:19.999Z</time></trkpt><trkpt lat="45.53084318063166" lon="8.301654503251312"><ele>221.0</ele><time>2026-04-11T15:31:20.999Z</time></trkpt><trkpt lat="45.530744943868356" lon="8.301752289087121"><ele>221.0</ele><time>2026-04-11T15:31:21.999Z</time></trkpt><trkpt lat="45.530647357070876" lon="8.301850478888241"><ele>221.0</ele><time>2026-04-11T15:31:22.999Z</time></trkpt><trkpt lat="45.53055129142599" lon="8.301947855789384"><ele>221.0</ele><time>2026-04-11T15:31:23.999Z</time></trkpt><trkpt lat="45.530452736843316" lon="8.302037476470383"><ele>221.0</ele><time>2026-04-11T15:31:24.999Z</time></trkpt><trkpt lat="45.53035887856789" lon="8.302127627708677"><ele>220.66666666666669</ele><time>2026-04-11T15:31:25.999Z</time></trkpt><trkpt lat="45.530276061663734" lon="8.302202372641656"><ele>220.33333333333334</ele><time>2026-04-11T15:31:26.999Z</time></trkpt><trkpt lat="45.53020543749733" lon="8.302270112282114"><ele>220.0</ele><time>2026-04-11T15:31:27.999Z</time></trkpt><trkpt lat="45.530141336780794" lon="8.30231753713833"><ele>219.66666666666669</ele><time>2026-04-11T15:31:28.999Z</time></trkpt><trkpt lat="45.530077603003896" lon="8.30243034917169"><ele>219.33333333333334</ele><time>2026-04-11T15:31:30.999Z</time></trkpt><trkpt lat="45.53012240834377" lon="8.302528563959747"><ele>219.0</ele><time>2026-04-11T15:31:32.999Z</time></trkpt><trkpt lat="45.530194410726565" lon="8.302651320314222"><ele>219.0</ele><time>2026-04-11T15:31:34.999Z</time></trkpt><trkpt lat="45.53027202431117" lon="8.302793717350461"><ele>219.0</ele><time>2026-04-11T15:31:36.999Z</time></trkpt><trkpt lat="45.53031633557046" lon="8.3028708535833"><ele>219.0</ele><time>2026-04-11T15:31:37.999Z</time></trkpt><trkpt lat="45.53035972880289" lon="8.302954443651636"><ele>219.0</ele><time>2026-04-11T15:31:38.999Z</time></trkpt><trkpt lat="45.530400491138835" lon="8.303039159463731"><ele>219.0</ele><time>2026-04-11T15:31:39.999Z</time></trkpt><trkpt lat="45.53044739907044" lon="8.303114699004519"><ele>219.0</ele><time>2026-04-11T15:31:40.999Z</time></trkpt><trkpt lat="45.530490920065" lon="8.30319169890836"><ele>219.2</ele><time>2026-04-11T15:31:41.999Z</time></trkpt><trkpt lat="45.530519402659806" lon="8.303329791306538"><ele>219.39999999999998</ele><time>2026-04-11T15:31:43.999Z</time></trkpt><trkpt lat="45.53047889213321" lon="8.303440940231296"><ele>219.6</ele><time>2026-04-11T15:31:45.999Z</time></trkpt><trkpt lat="45.530412970947665" lon="8.303557546060393"><ele>219.8</ele><time>2026-04-11T15:31:47.999Z</time></trkpt><trkpt lat="45.53035360070827" lon="8.303711697733892"><ele>220.0</ele><time>2026-04-11T15:31:49.999Z</time></trkpt><trkpt lat="45.53031905291763" lon="8.303798447152735"><ele>219.99999999999997</ele><time>2026-04-11T15:31:50.999Z</time></trkpt><trkpt lat="45.53028188752682" lon="8.30388694475421"><ele>220.0</ele><time>2026-04-11T15:31:51.999Z</time></trkpt><trkpt lat="45.53024504268231" lon="8.30397836921564"><ele>220.0</ele><time>2026-04-11T15:31:52.999Z</time></trkpt><trkpt lat="45.5302078028247" lon="8.304069631889586"><ele>220.0</ele><time>2026-04-11T15:31:53.999Z</time></trkpt><trkpt lat="45.53017373331865" lon="8.304153034164356"><ele>220.0</ele><time>2026-04-11T15:31:54.999Z</time></trkpt><trkpt lat="45.53012727110207" lon="8.30426124017917"><ele>219.99999999999997</ele><time>2026-04-11T15:31:56.999Z</time></trkpt><trkpt lat="45.530102737141135" lon="8.304357724367572"><ele>220.0</ele><time>2026-04-11T15:32:35Z</time></trkpt><trkpt lat="45.530141922115504" lon="8.30446415042696"><ele>220.0</ele><time>2026-04-11T15:32:38Z</time></trkpt><trkpt lat="45.53022546859002" lon="8.304520887944152"><ele>220.0</ele><time>2026-04-11T15:32:40Z</time></trkpt><trkpt lat="45.53033091005851" lon="8.304574080098257"><ele>220.0</ele><time>2026-04-11T15:32:42Z</time></trkpt><trkpt lat="45.53044802670607" lon="8.304633399579151"><ele>220.0</ele><time>2026-04-11T15:32:44Z</time></trkpt><trkpt lat="45.530510103318086" lon="8.30466485118435"><ele>220.0</ele><time>2026-04-11T15:32:45Z</time></trkpt><trkpt lat="45.53057290703196" lon="8.304698325479375"><ele>220.16666666666666</ele><time>2026-04-11T15:32:46Z</time></trkpt><trkpt lat="45.53063881607394" lon="8.304732609377592"><ele>220.33333333333331</ele><time>2026-04-11T15:32:47Z</time></trkpt><trkpt lat="45.530705890550934" lon="8.304764880297693"><ele>220.5</ele><time>2026-04-11T15:32:48Z</time></trkpt><trkpt lat="45.5307735604377" lon="8.304795887532041"><ele>220.66666666666669</ele><time>2026-04-11T15:32:49Z</time></trkpt><trkpt lat="45.53083400990165" lon="8.30482346798361"><ele>220.83333333333334</ele><time>2026-04-11T15:32:50Z</time></trkpt><trkpt lat="45.53091099050276" lon="8.30486986152653"><ele>221.0</ele><time>2026-04-11T15:32:52Z</time></trkpt><trkpt lat="45.53092103672574" lon="8.305012664265053"><ele>221.20000000000002</ele><time>2026-04-11T15:32:55Z</time></trkpt><trkpt lat="45.5308864612624" lon="8.305140512642362"><ele>221.40000000000003</ele><time>2026-04-11T15:32:57Z</time></trkpt><trkpt lat="45.53086006628962" lon="8.305279629941397"><ele>221.6</ele><time>2026-04-11T15:32:59Z</time></trkpt><trkpt lat="45.530833175045274" lon="8.305416180631054"><ele>221.8</ele><time>2026-04-11T15:33:00.999Z</time></trkpt><trkpt lat="45.5308062476834" lon="8.30555375061774"><ele>222.0</ele><time>2026-04-11T15:33:02.999Z</time></trkpt><trkpt lat="45.53078039485982" lon="8.305698728333713"><ele>222.0</ele><time>2026-04-11T15:33:04.999Z</time></trkpt><trkpt lat="45.530749821616965" lon="8.305854665410168"><ele>222.0</ele><time>2026-04-11T15:33:06.999Z</time></trkpt><trkpt lat="45.5307165551736" lon="8.306007952341947"><ele>222.0</ele><time>2026-04-11T15:33:08.999Z</time></trkpt><trkpt lat="45.53068872889207" lon="8.306155577725717"><ele>222.0</ele><time>2026-04-11T15:33:10.999Z</time></trkpt><trkpt lat="45.530664327069495" lon="8.306297579095448"><ele>222.0</ele><time>2026-04-11T15:33:12.999Z</time></trkpt><trkpt lat="45.53063473415082" lon="8.306440685476561"><ele>221.6</ele><time>2026-04-11T15:33:14.999Z</time></trkpt><trkpt lat="45.53060628651357" lon="8.306585704026423"><ele>221.2</ele><time>2026-04-11T15:33:16.999Z</time></trkpt><trkpt lat="45.530579029104175" lon="8.306734981435733"><ele>220.8</ele><time>2026-04-11T15:33:18.999Z</time></trkpt><trkpt lat="45.53055209095147" lon="8.306885182091177"><ele>220.4</ele><time>2026-04-11T15:33:20.999Z</time></trkpt><trkpt lat="45.53051418866129" lon="8.307034368748777"><ele>220.0</ele><time>2026-04-11T15:33:22.999Z</time></trkpt><trkpt lat="45.53043333713675" lon="8.30714566826635"><ele>219.83333333333331</ele><time>2026-04-11T15:33:24.999Z</time></trkpt><trkpt lat="45.530327466294295" lon="8.30720466355905"><ele>219.66666666666666</ele><time>2026-04-11T15:33:26.999Z</time></trkpt><trkpt lat="45.53021011318586" lon="8.307188786710482"><ele>219.5</ele><time>2026-04-11T15:33:28.999Z</time></trkpt><trkpt lat="45.530144131393264" lon="8.307188442833674"><ele>219.33333333333331</ele><time>2026-04-11T15:33:29.999Z</time></trkpt><trkpt lat="45.53007836390546" lon="8.30719652800412"><ele>219.16666666666666</ele><time>2026-04-11T15:33:30.999Z</time></trkpt><trkpt lat="45.53000774055923" lon="8.307209480074324"><ele>219.0</ele><time>2026-04-11T15:33:31.999Z</time></trkpt><trkpt lat="45.52993598673974" lon="8.307255962661205"><ele>219.0</ele><time>2026-04-11T15:33:32.999Z</time></trkpt><trkpt lat="45.52986122020709" lon="8.30727962786449"><ele>219.0</ele><time>2026-04-11T15:33:33.999Z</time></trkpt><trkpt lat="45.5298147676337" lon="8.307382363602427"><ele>219.0</ele><time>2026-04-11T15:33:34.999Z</time></trkpt><trkpt lat="45.52978439816935" lon="8.307486451730288"><ele>219.0</ele><time>2026-04-11T15:33:35.999Z</time></trkpt><trkpt lat="45.52978258519664" lon="8.307600007535076"><ele>219.0</ele><time>2026-04-11T15:33:36.999Z</time></trkpt><trkpt lat="45.52980070164387" lon="8.307720790989753"><ele>219.0</ele><time>2026-04-11T15:33:37.999Z</time></trkpt><trkpt lat="45.52982248760378" lon="8.307830654132921"><ele>219.0</ele><time>2026-04-11T15:33:38.999Z</time></trkpt><trkpt lat="45.52982890752844" lon="8.30793651914957"><ele>219.0</ele><time>2026-04-11T15:33:39.999Z</time></trkpt><trkpt lat="45.52978849458636" lon="8.308026784656475"><ele>219.0</ele><time>2026-04-11T15:33:40.999Z</time></trkpt><trkpt lat="45.52974769395045" lon="8.308117150545142"><ele>219.0</ele><time>2026-04-11T15:33:41.999Z</time></trkpt><trkpt lat="45.529680995206455" lon="8.308174045719666"><ele>219.0</ele><time>2026-04-11T15:33:42.999Z</time></trkpt><trkpt lat="45.52961440133381" lon="8.30822646618383"><ele>219.0</ele><time>2026-04-11T15:33:43.999Z</time></trkpt><trkpt lat="45.52953711451303" lon="8.3082593039284"><ele>219.2</ele><time>2026-04-11T15:33:44.999Z</time></trkpt><trkpt lat="45.52945141641494" lon="8.308246035715678"><ele>219.39999999999998</ele><time>2026-04-11T15:33:45.999Z</time></trkpt><trkpt lat="45.52935584934697" lon="8.308266618335917"><ele>219.6</ele><time>2026-04-11T15:33:46.999Z</time></trkpt><trkpt lat="45.529252737039364" lon="8.308290614311396"><ele>219.8</ele><time>2026-04-11T15:33:47.999Z</time></trkpt><trkpt lat="45.52914384682266" lon="8.308315954912072"><ele>220.0</ele><time>2026-04-11T15:33:48.999Z</time></trkpt><trkpt lat="45.52902967102758" lon="8.308343539095015"><ele>220.0</ele><time>2026-04-11T15:33:49.999Z</time></trkpt><trkpt lat="45.52891240954935" lon="8.308373282136776"><ele>220.0</ele><time>2026-04-11T15:33:50.999Z</time></trkpt><trkpt lat="45.52879063388089" lon="8.308404170198228"><ele>220.0</ele><time>2026-04-11T15:33:51.999Z</time></trkpt><trkpt lat="45.528667288976806" lon="8.308438909061817"><ele>220.0</ele><time>2026-04-11T15:33:52.999Z</time></trkpt><trkpt lat="45.52854591067414" lon="8.308481622618137"><ele>219.75</ele><time>2026-04-11T15:33:53.999Z</time></trkpt><trkpt lat="45.52841966570812" lon="8.308533833289138"><ele>219.5</ele><time>2026-04-11T15:33:54.999Z</time></trkpt><trkpt lat="45.52829641499168" lon="8.308588823760237"><ele>219.25</ele><time>2026-04-11T15:33:55.999Z</time></trkpt><trkpt lat="45.528173621643845" lon="8.308644590724803"><ele>219.0</ele><time>2026-04-11T15:33:56.999Z</time></trkpt><trkpt lat="45.52805057129629" lon="8.308703251633785"><ele>219.0</ele><time>2026-04-11T15:33:57.999Z</time></trkpt><trkpt lat="45.52792728993981" lon="8.308763632276094"><ele>219.0</ele><time>2026-04-11T15:33:58.999Z</time></trkpt><trkpt lat="45.5278076017745" lon="8.308832051351933"><ele>219.0</ele><time>2026-04-11T15:33:59.999Z</time></trkpt><trkpt lat="45.52769223172354" lon="8.308902996143003"><ele>219.0</ele><time>2026-04-11T15:34:00.999Z</time></trkpt><trkpt lat="45.52757961631876" lon="8.308964120024568"><ele>218.25</ele><time>2026-04-11T15:34:01.999Z</time></trkpt><trkpt lat="45.527474997581194" lon="8.309033247893831"><ele>217.5</ele><time>2026-04-11T15:34:02.999Z</time></trkpt><trkpt lat="45.52736110903329" lon="8.309056289924143"><ele>216.75</ele><time>2026-04-11T15:34:03.999Z</time></trkpt><trkpt lat="45.52725161084516" lon="8.309020336058957"><ele>216.0</ele><time>2026-04-11T15:34:04.999Z</time></trkpt><trkpt lat="45.527144728799215" lon="8.308966404205345"><ele>216.0</ele><time>2026-04-11T15:34:05.999Z</time></trkpt><trkpt lat="45.52704153439768" lon="8.30888154305245"><ele>216.0</ele><time>2026-04-11T15:34:06.999Z</time></trkpt><trkpt lat="45.52692919762545" lon="8.308811166983073"><ele>216.0</ele><time>2026-04-11T15:34:07.998Z</time></trkpt><trkpt lat="45.52680193876577" lon="8.308768413331384"><ele>216.0</ele><time>2026-04-11T15:34:08.998Z</time></trkpt><trkpt lat="45.526673766375445" lon="8.308747872737566"><ele>216.0</ele><time>2026-04-11T15:34:09.998Z</time></trkpt><trkpt lat="45.52654419094842" lon="8.308730905371355"><ele>216.0</ele><time>2026-04-11T15:34:10.998Z</time></trkpt><trkpt lat="45.52641013592541" lon="8.308713589574966"><ele>216.0</ele><time>2026-04-11T15:34:11.998Z</time></trkpt><trkpt lat="45.52627238857513" lon="8.308697428259114"><ele>216.0</ele><time>2026-04-11T15:34:12.998Z</time></trkpt><trkpt lat="45.52613420591404" lon="8.308681215874213"><ele>216.0</ele><time>2026-04-11T15:34:13.998Z</time></trkpt><trkpt lat="45.52599751034386" lon="8.30866517796249"><ele>216.0</ele><time>2026-04-11T15:34:14.998Z</time></trkpt><trkpt lat="45.52586163110813" lon="8.308646238160568"><ele>216.0</ele><time>2026-04-11T15:34:15.998Z</time></trkpt><trkpt lat="45.52572561206576" lon="8.308626622517767"><ele>216.0</ele><time>2026-04-11T15:34:16.998Z</time></trkpt><trkpt lat="45.5255882910493" lon="8.308606819097907"><ele>216.0</ele><time>2026-04-11T15:34:17.998Z</time></trkpt><trkpt lat="45.525451972475366" lon="8.308587160259243"><ele>216.0</ele><time>2026-04-11T15:34:18.998Z</time></trkpt><trkpt lat="45.525313865781726" lon="8.308568081457922"><ele>216.0</ele><time>2026-04-11T15:34:19.998Z</time></trkpt><trkpt lat="45.52517530915662" lon="8.308552426655497"><ele>216.0</ele><time>2026-04-11T15:34:20.998Z</time></trkpt><trkpt lat="45.525033374327776" lon="8.308536392240736"><ele>215.5</ele><time>2026-04-11T15:34:21.998Z</time></trkpt><trkpt lat="45.52488965333561" lon="8.308520153940757"><ele>215.0</ele><time>2026-04-11T15:34:22.998Z</time></trkpt><trkpt lat="45.524744591905936" lon="8.308502804955452"><ele>214.5</ele><time>2026-04-11T15:34:23.998Z</time></trkpt><trkpt lat="45.524599516212014" lon="8.308483101331658"><ele>214.0</ele><time>2026-04-11T15:34:24.998Z</time></trkpt><trkpt lat="45.524453456409255" lon="8.308459111993738"><ele>213.75</ele><time>2026-04-11T15:34:25.998Z</time></trkpt><trkpt lat="45.524307734097334" lon="8.308434927271652"><ele>213.5</ele><time>2026-04-11T15:34:26.998Z</time></trkpt><trkpt lat="45.52416223103003" lon="8.308409162465084"><ele>213.25</ele><time>2026-04-11T15:34:27.998Z</time></trkpt><trkpt lat="45.524016091727184" lon="8.308383284994832"><ele>213.0</ele><time>2026-04-11T15:34:28.998Z</time></trkpt><trkpt lat="45.52387019018065" lon="8.308357449626849"><ele>213.0</ele><time>2026-04-11T15:34:29.998Z</time></trkpt><trkpt lat="45.52372338530675" lon="8.308331454301053"><ele>213.0</ele><time>2026-04-11T15:34:30.998Z</time></trkpt><trkpt lat="45.5235756509932" lon="8.308305294408692"><ele>213.0</ele><time>2026-04-11T15:34:31.998Z</time></trkpt><trkpt lat="45.52342693273577" lon="8.308279236553723"><ele>213.0</ele><time>2026-04-11T15:34:32.998Z</time></trkpt><trkpt lat="45.52327910999965" lon="8.308253399911624"><ele>213.0</ele><time>2026-04-11T15:34:33.998Z</time></trkpt><trkpt lat="45.52313182851883" lon="8.308227657852461"><ele>213.0</ele><time>2026-04-11T15:34:34.998Z</time></trkpt><trkpt lat="45.522984730967885" lon="8.3082019479619"><ele>213.0</ele><time>2026-04-11T15:34:35.998Z</time></trkpt><trkpt lat="45.522840483640024" lon="8.308176736231973"><ele>213.0</ele><time>2026-04-11T15:34:36.998Z</time></trkpt><trkpt lat="45.52270077758225" lon="8.308152318226174"><ele>213.0</ele><time>2026-04-11T15:34:37.998Z</time></trkpt><trkpt lat="45.52256400248979" lon="8.308128412495691"><ele>213.0</ele><time>2026-04-11T15:34:38.998Z</time></trkpt><trkpt lat="45.522430413220114" lon="8.308103495796837"><ele>213.0</ele><time>2026-04-11T15:34:40Z</time></trkpt><trkpt lat="45.522299400809786" lon="8.308077463913847"><ele>213.0</ele><time>2026-04-11T15:34:41Z</time></trkpt><trkpt lat="45.52216972805776" lon="8.308051698226292"><ele>212.75</ele><time>2026-04-11T15:34:42Z</time></trkpt><trkpt lat="45.5220402159739" lon="8.30802619927481"><ele>212.5</ele><time>2026-04-11T15:34:43Z</time></trkpt><trkpt lat="45.521911436857096" lon="8.308003530769453"><ele>212.25</ele><time>2026-04-11T15:34:44Z</time></trkpt><trkpt lat="45.52178207208911" lon="8.307980759168949"><ele>212.0</ele><time>2026-04-11T15:34:45Z</time></trkpt><trkpt lat="45.521652648101686" lon="8.30795989656433"><ele>212.0</ele><time>2026-04-11T15:34:46Z</time></trkpt><trkpt lat="45.52152346566324" lon="8.30794048212474"><ele>212.0</ele><time>2026-04-11T15:34:47Z</time></trkpt><trkpt lat="45.52139634758168" lon="8.30792333572799"><ele>212.0</ele><time>2026-04-11T15:34:48Z</time></trkpt><trkpt lat="45.52127019423249" lon="8.30790654776796"><ele>212.0</ele><time>2026-04-11T15:34:49Z</time></trkpt><trkpt lat="45.52114293927706" lon="8.307890182383382"><ele>212.25</ele><time>2026-04-11T15:34:50Z</time></trkpt><trkpt lat="45.52101613074755" lon="8.307874220415274"><ele>212.5</ele><time>2026-04-11T15:34:51Z</time></trkpt><trkpt lat="45.52089149600669" lon="8.307860384814981"><ele>212.75</ele><time>2026-04-11T15:34:52Z</time></trkpt><trkpt lat="45.5207687723708" lon="8.307847248551756"><ele>213.0</ele><time>2026-04-11T15:34:53Z</time></trkpt><trkpt lat="45.52064786532481" lon="8.307835032218069"><ele>213.0</ele><time>2026-04-11T15:34:54Z</time></trkpt><trkpt lat="45.52052787050876" lon="8.307823127151407"><ele>213.0</ele><time>2026-04-11T15:34:55Z</time></trkpt><trkpt lat="45.52040825716008" lon="8.307813540452921"><ele>213.0</ele><time>2026-04-11T15:34:56Z</time></trkpt><trkpt lat="45.52028901948847" lon="8.307804213712412"><ele>213.0</ele><time>2026-04-11T15:34:57Z</time></trkpt><trkpt lat="45.52016993350365" lon="8.307795888739669"><ele>212.75</ele><time>2026-04-11T15:34:58Z</time></trkpt><trkpt lat="45.52005043253875" lon="8.30778913788202"><ele>212.5</ele><time>2026-04-11T15:34:59Z</time></trkpt><trkpt lat="45.51993275132385" lon="8.3077824878211"><ele>212.25</ele><time>2026-04-11T15:35:00Z</time></trkpt><trkpt lat="45.51981746295096" lon="8.307775972977655"><ele>212.0</ele><time>2026-04-11T15:35:01Z</time></trkpt><trkpt lat="45.519709626228114" lon="8.307767295634745"><ele>212.00000000000003</ele><time>2026-04-11T15:35:02Z</time></trkpt><trkpt lat="45.51961221624289" lon="8.307778866292654"><ele>212.0</ele><time>2026-04-11T15:35:03Z</time></trkpt><trkpt lat="45.51952426237646" lon="8.307743746792184"><ele>212.0</ele><time>2026-04-11T15:35:04Z</time></trkpt><trkpt lat="45.519442899333285" lon="8.30773265954753"><ele>212.0</ele><time>2026-04-11T15:35:04.999Z</time></trkpt><trkpt lat="45.51937288212275" lon="8.30774624047637"><ele>212.00000000000003</ele><time>2026-04-11T15:35:05.999Z</time></trkpt><trkpt lat="45.519283172207274" lon="8.307715144461216"><ele>212.0</ele><time>2026-04-11T15:35:07.999Z</time></trkpt><trkpt lat="45.51924964896455" lon="8.307888815202967"><ele>211.83333333333334</ele><time>2026-04-11T15:35:11.999Z</time></trkpt><trkpt lat="45.51927203039749" lon="8.308000390763013"><ele>211.66666666666669</ele><time>2026-04-11T15:35:58.999Z</time></trkpt><trkpt lat="45.51929511301113" lon="8.308145509910617"><ele>211.5</ele><time>2026-04-11T15:36:00.999Z</time></trkpt><trkpt lat="45.51930901186861" lon="8.308238084750613"><ele>211.33333333333331</ele><time>2026-04-11T15:36:01.999Z</time></trkpt><trkpt lat="45.51932642074554" lon="8.308341305340218"><ele>211.16666666666666</ele><time>2026-04-11T15:36:02.999Z</time></trkpt><trkpt lat="45.519344643665086" lon="8.308455639480846"><ele>211.0</ele><time>2026-04-11T15:36:03.999Z</time></trkpt><trkpt lat="45.5193639366145" lon="8.308580259521198"><ele>211.0</ele><time>2026-04-11T15:36:04.999Z</time></trkpt><trkpt lat="45.519384184095394" lon="8.308709001670058"><ele>211.0</ele><time>2026-04-11T15:36:05.999Z</time></trkpt><trkpt lat="45.5194031443105" lon="8.308847097136438"><ele>211.0</ele><time>2026-04-11T15:36:06.999Z</time></trkpt><trkpt lat="45.51942223415101" lon="8.308991677294527"><ele>211.0</ele><time>2026-04-11T15:36:07.999Z</time></trkpt><trkpt lat="45.519442354494096" lon="8.309139891416793"><ele>211.0</ele><time>2026-04-11T15:36:08.999Z</time></trkpt><trkpt lat="45.51946387842269" lon="8.309290622511574"><ele>211.0</ele><time>2026-04-11T15:36:09.999Z</time></trkpt><trkpt lat="45.51948727170355" lon="8.309444508304816"><ele>211.0</ele><time>2026-04-11T15:36:10.998Z</time></trkpt><trkpt lat="45.51950876967915" lon="8.309603662450526"><ele>211.0</ele><time>2026-04-11T15:36:11.998Z</time></trkpt><trkpt lat="45.519532254875756" lon="8.309761616060833"><ele>211.0</ele><time>2026-04-11T15:36:12.998Z</time></trkpt><trkpt lat="45.519552473745144" lon="8.309919549007548"><ele>211.0</ele><time>2026-04-11T15:36:13.998Z</time></trkpt><trkpt lat="45.51957104049043" lon="8.310077349658458"><ele>211.0</ele><time>2026-04-11T15:36:14.998Z</time></trkpt><trkpt lat="45.519592552339454" lon="8.310236223331824"><ele>211.0</ele><time>2026-04-11T15:36:15.998Z</time></trkpt><trkpt lat="45.5196135182841" lon="8.310395428125778"><ele>211.0</ele><time>2026-04-11T15:36:16.998Z</time></trkpt><trkpt lat="45.519634874505336" lon="8.31054939320465"><ele>211.0</ele><time>2026-04-11T15:36:17.998Z</time></trkpt><trkpt lat="45.51965624340284" lon="8.310689659582664"><ele>210.99999999999997</ele><time>2026-04-11T15:36:18.998Z</time></trkpt><trkpt lat="45.51965808212682" lon="8.310819379743098"><ele>211.0</ele><time>2026-04-11T15:36:19.998Z</time></trkpt><trkpt lat="45.51967468066087" lon="8.310934022061764"><ele>211.0</ele><time>2026-04-11T15:36:20.998Z</time></trkpt><trkpt lat="45.51970221170345" lon="8.311025292611326"><ele>211.0</ele><time>2026-04-11T15:36:21.998Z</time></trkpt><trkpt lat="45.51966381712915" lon="8.31116578696282"><ele>210.99999999999997</ele><time>2026-04-11T15:36:23.998Z</time></trkpt><trkpt lat="45.51959923893274" lon="8.311156870675466"><ele>211.0</ele><time>2026-04-11T15:36:24.998Z</time></trkpt><trkpt lat="45.51952950576212" lon="8.311167613517764"><ele>210.60000000000002</ele><time>2026-04-11T15:36:25.998Z</time></trkpt><trkpt lat="45.51943721921179" lon="8.311185968422066"><ele>210.2</ele><time>2026-04-11T15:36:26.998Z</time></trkpt><trkpt lat="45.51933554135473" lon="8.311207635150717"><ele>209.8</ele><time>2026-04-11T15:36:27.998Z</time></trkpt><trkpt lat="45.51922670512321" lon="8.31123082727216"><ele>209.39999999999998</ele><time>2026-04-11T15:36:28.998Z</time></trkpt><trkpt lat="45.51911178733095" lon="8.311254880661236"><ele>209.0</ele><time>2026-04-11T15:36:29.998Z</time></trkpt><trkpt lat="45.518993001125416" lon="8.311284406773208"><ele>209.0</ele><time>2026-04-11T15:36:30.998Z</time></trkpt><trkpt lat="45.51887375126319" lon="8.31131404813156"><ele>209.0</ele><time>2026-04-11T15:36:31.998Z</time></trkpt><trkpt lat="45.51875414335236" lon="8.311342750567105"><ele>209.0</ele><time>2026-04-11T15:36:32.998Z</time></trkpt><trkpt lat="45.518634250457055" lon="8.311371513862344"><ele>209.0</ele><time>2026-04-11T15:36:33.998Z</time></trkpt><trkpt lat="45.518517882984355" lon="8.311399431379776"><ele>208.79999999999998</ele><time>2026-04-11T15:36:34.998Z</time></trkpt><trkpt lat="45.518416065567294" lon="8.311424304050824"><ele>208.6</ele><time>2026-04-11T15:36:35.998Z</time></trkpt><trkpt lat="45.51833005215669" lon="8.31146805079727"><ele>208.4</ele><time>2026-04-11T15:36:36.998Z</time></trkpt><trkpt lat="45.51825376729041" lon="8.31148033831704"><ele>208.2</ele><time>2026-04-11T15:36:37.998Z</time></trkpt><trkpt lat="45.51815148838586" lon="8.311496021680732"><ele>208.0</ele><time>2026-04-11T15:36:39.998Z</time></trkpt><trkpt lat="45.51816594713333" lon="8.311655744268066"><ele>208.0</ele><time>2026-04-11T15:36:41.998Z</time></trkpt><trkpt lat="45.51820019220252" lon="8.311808913707871"><ele>208.0</ele><time>2026-04-11T15:36:43.998Z</time></trkpt><trkpt lat="45.51820878403566" lon="8.311910810978736"><ele>208.0</ele><time>2026-04-11T15:36:44.998Z</time></trkpt><trkpt lat="45.518221743891466" lon="8.312027081303281"><ele>208.0</ele><time>2026-04-11T15:36:46Z</time></trkpt><trkpt lat="45.518235681537355" lon="8.312154719957203"><ele>208.0</ele><time>2026-04-11T15:36:47Z</time></trkpt><trkpt lat="45.51825079878159" lon="8.312291096321227"><ele>207.8</ele><time>2026-04-11T15:36:48Z</time></trkpt><trkpt lat="45.51826838700268" lon="8.312433574403784"><ele>207.60000000000002</ele><time>2026-04-11T15:36:49Z</time></trkpt><trkpt lat="45.51828756199847" lon="8.312582750162475"><ele>207.39999999999998</ele><time>2026-04-11T15:36:50Z</time></trkpt><trkpt lat="45.51830750125215" lon="8.312736381918329"><ele>207.2</ele><time>2026-04-11T15:36:51Z</time></trkpt><trkpt lat="45.51832358875054" lon="8.31289104112397"><ele>207.0</ele><time>2026-04-11T15:36:52Z</time></trkpt><trkpt lat="45.51833977062762" lon="8.313047016233808"><ele>207.0</ele><time>2026-04-11T15:36:53Z</time></trkpt><trkpt lat="45.5183556932017" lon="8.313200056319987"><ele>207.0</ele><time>2026-04-11T15:36:54Z</time></trkpt><trkpt lat="45.51837323893192" lon="8.313348882057134"><ele>207.0</ele><time>2026-04-11T15:36:55Z</time></trkpt><trkpt lat="45.51839037176971" lon="8.313492499271486"><ele>207.0</ele><time>2026-04-11T15:36:56Z</time></trkpt><trkpt lat="45.51840998566366" lon="8.313636932820057"><ele>207.0</ele><time>2026-04-11T15:36:57Z</time></trkpt><trkpt lat="45.51842864991236" lon="8.31378197609982"><ele>207.39999999999998</ele><time>2026-04-11T15:36:58Z</time></trkpt><trkpt lat="45.51844452121537" lon="8.31392783285178"><ele>207.79999999999998</ele><time>2026-04-11T15:36:59Z</time></trkpt><trkpt lat="45.518459805151174" lon="8.314074415423994"><ele>208.2</ele><time>2026-04-11T15:37:00Z</time></trkpt><trkpt lat="45.51847513630641" lon="8.314221660831734"><ele>208.6</ele><time>2026-04-11T15:37:01Z</time></trkpt><trkpt lat="45.51847512158245" lon="8.314373593221012"><ele>209.0</ele><time>2026-04-11T15:37:02Z</time></trkpt><trkpt lat="45.518489814348534" lon="8.314524306962449"><ele>209.00000000000003</ele><time>2026-04-11T15:37:03Z</time></trkpt><trkpt lat="45.51850436530701" lon="8.31467356608189"><ele>209.0</ele><time>2026-04-11T15:37:04Z</time></trkpt><trkpt lat="45.5185178437301" lon="8.314811823478164"><ele>209.0</ele><time>2026-04-11T15:37:05Z</time></trkpt><trkpt lat="45.518542534567274" lon="8.314919201496037"><ele>209.0</ele><time>2026-04-11T15:37:06Z</time></trkpt><trkpt lat="45.51853757853649" lon="8.315014256875461"><ele>209.00000000000003</ele><time>2026-04-11T15:37:07.999Z</time></trkpt><trkpt lat="45.51854632083943" lon="8.31510393262726"><ele>209.0</ele><time>2026-04-11T15:37:09.999Z</time></trkpt><trkpt lat="45.518564610314314" lon="8.31529154040921"><ele>209.0</ele><time>2026-04-11T15:37:11.999Z</time></trkpt><trkpt lat="45.51857421086584" lon="8.315390019959269"><ele>209.0</ele><time>2026-04-11T15:37:12.999Z</time></trkpt><trkpt lat="45.51858421713363" lon="8.315492661221747"><ele>209.0</ele><time>2026-04-11T15:37:13.999Z</time></trkpt><trkpt lat="45.51865159770952" lon="8.315579368209542"><ele>209.0</ele><time>2026-04-11T15:37:14.999Z</time></trkpt><trkpt lat="45.518667265516285" lon="8.315743833649304"><ele>209.0</ele><time>2026-04-11T15:37:16.999Z</time></trkpt><trkpt lat="45.518735292176466" lon="8.315876180373301"><ele>208.66666666666669</ele><time>2026-04-11T15:37:18.999Z</time></trkpt><trkpt lat="45.5187585358953" lon="8.315960823269993"><ele>208.33333333333334</ele><time>2026-04-11T15:37:19.999Z</time></trkpt><trkpt lat="45.5187593516382" lon="8.316065149575774"><ele>208.0</ele><time>2026-04-11T15:37:20.999Z</time></trkpt><trkpt lat="45.51875063716281" lon="8.31617368066066"><ele>207.66666666666669</ele><time>2026-04-11T15:37:21.999Z</time></trkpt><trkpt lat="45.51875178383796" lon="8.316288821167314"><ele>207.33333333333334</ele><time>2026-04-11T15:37:22.999Z</time></trkpt><trkpt lat="45.518752190678" lon="8.316411009073214"><ele>207.0</ele><time>2026-04-11T15:37:23.999Z</time></trkpt><trkpt lat="45.51874916240436" lon="8.316535832704815"><ele>206.6</ele><time>2026-04-11T15:37:24.999Z</time></trkpt><trkpt lat="45.51875001325943" lon="8.316662119992126"><ele>206.2</ele><time>2026-04-11T15:37:25.999Z</time></trkpt><trkpt lat="45.51874941860195" lon="8.316791074870439"><ele>205.8</ele><time>2026-04-11T15:37:26.999Z</time></trkpt><trkpt lat="45.51874776104638" lon="8.316922221411378"><ele>205.4</ele><time>2026-04-11T15:37:27.999Z</time></trkpt><trkpt lat="45.51874992250424" lon="8.317054942919082"><ele>205.0</ele><time>2026-04-11T15:37:28.999Z</time></trkpt><trkpt lat="45.51875380934" lon="8.317189947849045"><ele>204.99999999999997</ele><time>2026-04-11T15:37:29.999Z</time></trkpt><trkpt lat="45.518753437724975" lon="8.317321126876857"><ele>205.0</ele><time>2026-04-11T15:37:30.999Z</time></trkpt><trkpt lat="45.51875094560831" lon="8.317437600878998"><ele>205.0</ele><time>2026-04-11T15:37:31.999Z</time></trkpt><trkpt lat="45.51874771505343" lon="8.317532973271714"><ele>205.0</ele><time>2026-04-11T15:37:32.999Z</time></trkpt><trkpt lat="45.5187425598689" lon="8.317675761324459"><ele>204.99999999999997</ele><time>2026-04-11T15:37:34.999Z</time></trkpt><trkpt lat="45.518685794167006" lon="8.317780033269013"><ele>205.0</ele><time>2026-04-11T15:37:36.999Z</time></trkpt><trkpt lat="45.51861260175518" lon="8.31782302910268"><ele>204.83333333333331</ele><time>2026-04-11T15:37:38.999Z</time></trkpt><trkpt lat="45.51854175200423" lon="8.317875887619394"><ele>204.66666666666666</ele><time>2026-04-11T15:37:41.999Z</time></trkpt><trkpt lat="45.51845413133919" lon="8.31794768388696"><ele>204.5</ele><time>2026-04-11T15:37:43.999Z</time></trkpt><trkpt lat="45.51839357645351" lon="8.318002156646045"><ele>204.33333333333331</ele><time>2026-04-11T15:37:44.999Z</time></trkpt><trkpt lat="45.51832579244845" lon="8.31805917068081"><ele>204.16666666666666</ele><time>2026-04-11T15:37:45.999Z</time></trkpt><trkpt lat="45.51825476876424" lon="8.318121384998543"><ele>204.0</ele><time>2026-04-11T15:37:46.999Z</time></trkpt><trkpt lat="45.51818113596839" lon="8.318185636866028"><ele>204.33333333333334</ele><time>2026-04-11T15:37:47.999Z</time></trkpt><trkpt lat="45.51811992792696" lon="8.318260727857364"><ele>204.66666666666669</ele><time>2026-04-11T15:37:48.999Z</time></trkpt><trkpt lat="45.51807442826757" lon="8.318350782170208"><ele>205.0</ele><time>2026-04-11T15:37:49.999Z</time></trkpt><trkpt lat="45.51804734553521" lon="8.31846009064286"><ele>205.33333333333334</ele><time>2026-04-11T15:37:50.999Z</time></trkpt><trkpt lat="45.518021927671924" lon="8.318577253608634"><ele>205.66666666666669</ele><time>2026-04-11T15:37:51.999Z</time></trkpt><trkpt lat="45.51799487928139" lon="8.318695326526266"><ele>206.0</ele><time>2026-04-11T15:37:52.999Z</time></trkpt><trkpt lat="45.517971102746834" lon="8.318820459431677"><ele>206.0</ele><time>2026-04-11T15:37:53.999Z</time></trkpt><trkpt lat="45.51794056537538" lon="8.318945262617554"><ele>206.0</ele><time>2026-04-11T15:37:54.999Z</time></trkpt><trkpt lat="45.517913164616594" lon="8.319073146429133"><ele>206.0</ele><time>2026-04-11T15:37:55.999Z</time></trkpt><trkpt lat="45.51788152940237" lon="8.319206130489052"><ele>206.0</ele><time>2026-04-11T15:37:56.999Z</time></trkpt><trkpt lat="45.517845192968316" lon="8.319342685806513"><ele>206.0</ele><time>2026-04-11T15:37:57.999Z</time></trkpt><trkpt lat="45.51781254924235" lon="8.319479882083588"><ele>205.60000000000002</ele><time>2026-04-11T15:37:58.999Z</time></trkpt><trkpt lat="45.517782650638395" lon="8.319618693934808"><ele>205.2</ele><time>2026-04-11T15:37:59.999Z</time></trkpt><trkpt lat="45.51774674712173" lon="8.319749751685002"><ele>204.8</ele><time>2026-04-11T15:38:00.999Z</time></trkpt><trkpt lat="45.517712568902674" lon="8.319882980155352"><ele>204.39999999999998</ele><time>2026-04-11T15:38:01.999Z</time></trkpt><trkpt lat="45.517682961572284" lon="8.320012542069907"><ele>204.0</ele><time>2026-04-11T15:38:02.999Z</time></trkpt><trkpt lat="45.51765341914282" lon="8.320135439626501"><ele>204.0</ele><time>2026-04-11T15:38:03.999Z</time></trkpt><trkpt lat="45.51762703188131" lon="8.320252460738878"><ele>204.0</ele><time>2026-04-11T15:38:04.999Z</time></trkpt><trkpt lat="45.51760365784226" lon="8.32034453397654"><ele>204.0</ele><time>2026-04-11T15:38:05.999Z</time></trkpt><trkpt lat="45.517523833347205" lon="8.320399658528878"><ele>204.0</ele><time>2026-04-11T15:38:07.999Z</time></trkpt><trkpt lat="45.51739654649257" lon="8.320344349266591"><ele>204.0</ele><time>2026-04-11T15:38:09.999Z</time></trkpt><trkpt lat="45.51732256796278" lon="8.320312265878494"><ele>204.0</ele><time>2026-04-11T15:38:10.999Z</time></trkpt><trkpt lat="45.51724302483556" lon="8.320280918966693"><ele>204.0</ele><time>2026-04-11T15:38:11.999Z</time></trkpt><trkpt lat="45.517156861954874" lon="8.32025558511396"><ele>204.0</ele><time>2026-04-11T15:38:12.999Z</time></trkpt><trkpt lat="45.51706715392399" lon="8.320221891500266"><ele>204.0</ele><time>2026-04-11T15:38:13.998Z</time></trkpt><trkpt lat="45.51697543871324" lon="8.320192007871032"><ele>204.0</ele><time>2026-04-11T15:38:14.998Z</time></trkpt><trkpt lat="45.51688158321923" lon="8.320162998144296"><ele>203.79999999999998</ele><time>2026-04-11T15:38:15.998Z</time></trkpt><trkpt lat="45.51678628720598" lon="8.320121841351583"><ele>203.6</ele><time>2026-04-11T15:38:16.998Z</time></trkpt><trkpt lat="45.51669238966044" lon="8.320084659862173"><ele>203.4</ele><time>2026-04-11T15:38:17.998Z</time></trkpt><trkpt lat="45.51660088809852" lon="8.320054399045498"><ele>203.2</ele><time>2026-04-11T15:38:18.998Z</time></trkpt><trkpt lat="45.51651742287791" lon="8.32002134255959"><ele>203.0</ele><time>2026-04-11T15:38:19.998Z</time></trkpt><trkpt lat="45.516445309752584" lon="8.319970518833644"><ele>203.00000000000003</ele><time>2026-04-11T15:38:20.998Z</time></trkpt><trkpt lat="45.51637366560206" lon="8.319909891648516"><ele>203.0</ele><time>2026-04-11T15:38:21.998Z</time></trkpt><trkpt lat="45.516309493624334" lon="8.319823183202068"><ele>203.0</ele><time>2026-04-11T15:38:22.998Z</time></trkpt><trkpt lat="45.51624705690243" lon="8.31972620670621"><ele>203.0</ele><time>2026-04-11T15:38:23.998Z</time></trkpt><trkpt lat="45.5161795499882" lon="8.319638416820602"><ele>203.00000000000003</ele><time>2026-04-11T15:38:24.998Z</time></trkpt><trkpt lat="45.51611074901531" lon="8.319553222497142"><ele>203.0</ele><time>2026-04-11T15:38:25.998Z</time></trkpt><trkpt lat="45.51604073167305" lon="8.319468143560039"><ele>202.8</ele><time>2026-04-11T15:38:26.998Z</time></trkpt><trkpt lat="45.51596287583588" lon="8.319403054155085"><ele>202.60000000000002</ele><time>2026-04-11T15:38:27.998Z</time></trkpt><trkpt lat="45.51588752595411" lon="8.319345529209059"><ele>202.39999999999998</ele><time>2026-04-11T15:38:28.998Z</time></trkpt><trkpt lat="45.51581115005588" lon="8.319301807491666"><ele>202.2</ele><time>2026-04-11T15:38:29.998Z</time></trkpt><trkpt lat="45.51574080461607" lon="8.319271578630284"><ele>202.0</ele><time>2026-04-11T15:38:30.998Z</time></trkpt><trkpt lat="45.51562995846723" lon="8.31920550318698"><ele>202.0</ele><time>2026-04-11T15:38:32.998Z</time></trkpt><trkpt lat="45.51559690056488" lon="8.319044101962772"><ele>202.0</ele><time>2026-04-11T15:38:34.998Z</time></trkpt><trkpt lat="45.51560655965876" lon="8.318879722723342"><ele>202.0</ele><time>2026-04-11T15:38:36.998Z</time></trkpt><trkpt lat="45.515605177163245" lon="8.318731963714104"><ele>202.0</ele><time>2026-04-11T15:38:38.998Z</time></trkpt><trkpt lat="45.51561250887723" lon="8.318596440979894"><ele>202.0</ele><time>2026-04-11T15:38:40.998Z</time></trkpt><trkpt lat="45.51560845849044" lon="8.31846573396092"><ele>202.0</ele><time>2026-04-11T15:38:42.998Z</time></trkpt><trkpt lat="45.51560440151157" lon="8.31830642442229"><ele>202.0</ele><time>2026-04-11T15:38:44.998Z</time></trkpt><trkpt lat="45.51560398864576" lon="8.318132313057264"><ele>202.0</ele><time>2026-04-11T15:38:46.998Z</time></trkpt><trkpt lat="45.51560273991195" lon="8.31804192326123"><ele>202.0</ele><time>2026-04-11T15:38:47.998Z</time></trkpt><trkpt lat="45.51560308614568" lon="8.317950598751992"><ele>202.0</ele><time>2026-04-11T15:38:48.998Z</time></trkpt><trkpt lat="45.51560312103342" lon="8.317802034226167"><ele>202.0</ele><time>2026-04-11T15:38:50.998Z</time></trkpt><trkpt lat="45.515535899346034" lon="8.317769529722574"><ele>202.0</ele><time>2026-04-11T15:39:10Z</time></trkpt><trkpt lat="45.51547662085196" lon="8.317820527252255"><ele>202.0</ele><time>2026-04-11T15:39:12.999Z</time></trkpt><trkpt lat="45.51541502185477" lon="8.317906098376186"><ele>202.0</ele><time>2026-04-11T15:39:15.999Z</time></trkpt><trkpt lat="45.51533842195447" lon="8.317886972292673"><ele>202.0</ele><time>2026-04-11T15:39:19.999Z</time></trkpt><trkpt lat="45.5152860842664" lon="8.317829963551517"><ele>202.0</ele><time>2026-04-11T15:39:23.999Z</time></trkpt><trkpt lat="45.51522338870105" lon="8.317798062743497"><ele>202.0</ele><time>2026-04-11T15:39:28.999Z</time></trkpt><trkpt lat="45.51516182660428" lon="8.317724066520245"><ele>201.99999999999997</ele><time>2026-04-11T15:39:50.999Z</time></trkpt><trkpt lat="45.51510093489347" lon="8.317637663912093"><ele>202.0</ele><time>2026-04-11T15:39:56.999Z</time></trkpt><trkpt lat="45.515035855556704" lon="8.317583069382742"><ele>202.0</ele><time>2026-04-11T15:39:59.999Z</time></trkpt><trkpt lat="45.51494910814362" lon="8.317527086207928"><ele>202.0</ele><time>2026-04-11T15:40:02.999Z</time></trkpt><trkpt lat="45.514875213155804" lon="8.317548050925543"><ele>201.99999999999997</ele><time>2026-04-11T15:40:41.998Z</time></trkpt><trkpt lat="45.514896421398504" lon="8.31766633216311"><ele>202.0</ele><time>2026-04-11T15:40:46.998Z</time></trkpt><trkpt lat="45.514850460919845" lon="8.317757682172799"><ele>202.0</ele><time>2026-04-11T15:40:49.998Z</time></trkpt><trkpt lat="45.51479291904583" lon="8.317883848082785"><ele>202.0</ele><time>2026-04-11T15:40:52.998Z</time></trkpt><trkpt lat="45.51472987752978" lon="8.318003044568272"><ele>202.0</ele><time>2026-04-11T15:40:54.998Z</time></trkpt><trkpt lat="45.51466572648324" lon="8.318112404682434"><ele>202.0</ele><time>2026-04-11T15:40:56.998Z</time></trkpt><trkpt lat="45.51464837314599" lon="8.318217188756648"><ele>202.0</ele><time>2026-04-11T15:41:10Z</time></trkpt><trkpt lat="45.51468873808083" lon="8.31831046161875"><ele>202.16666666666666</ele><time>2026-04-11T15:41:12Z</time></trkpt><trkpt lat="45.5147625252765" lon="8.318466190436606"><ele>202.33333333333331</ele><time>2026-04-11T15:41:13.999Z</time></trkpt><trkpt lat="45.51480732873852" lon="8.318541270577075"><ele>202.5</ele><time>2026-04-11T15:41:14.999Z</time></trkpt><trkpt lat="45.51484445663436" lon="8.318639273140446"><ele>202.66666666666669</ele><time>2026-04-11T15:41:15.999Z</time></trkpt><trkpt lat="45.514877393439946" lon="8.318744182134363"><ele>202.83333333333334</ele><time>2026-04-11T15:41:16.999Z</time></trkpt><trkpt lat="45.5149138607641" lon="8.318852186109899"><ele>203.0</ele><time>2026-04-11T15:41:17.999Z</time></trkpt><trkpt lat="45.51495551240237" lon="8.318962295581045"><ele>203.00000000000003</ele><time>2026-04-11T15:41:18.999Z</time></trkpt><trkpt lat="45.51499585106188" lon="8.31907551418267"><ele>203.0</ele><time>2026-04-11T15:41:19.999Z</time></trkpt><trkpt lat="45.51503362934352" lon="8.31918929223314"><ele>203.0</ele><time>2026-04-11T15:41:20.999Z</time></trkpt><trkpt lat="45.515063028904905" lon="8.319306913224526"><ele>203.0</ele><time>2026-04-11T15:41:21.999Z</time></trkpt><trkpt lat="45.51508270783914" lon="8.319431313374455"><ele>203.00000000000003</ele><time>2026-04-11T15:41:22.999Z</time></trkpt><trkpt lat="45.515106488620226" lon="8.319561484378594"><ele>203.0</ele><time>2026-04-11T15:41:23.999Z</time></trkpt><trkpt lat="45.51513720169533" lon="8.31968333484812"><ele>203.0</ele><time>2026-04-11T15:41:24.999Z</time></trkpt><trkpt lat="45.51518227282388" lon="8.31979972046796"><ele>203.0</ele><time>2026-04-11T15:41:25.999Z</time></trkpt><trkpt lat="45.515224791472214" lon="8.319915699634867"><ele>203.0</ele><time>2026-04-11T15:41:26.999Z</time></trkpt><trkpt lat="45.51525193074443" lon="8.320039991748633"><ele>203.0</ele><time>2026-04-11T15:41:27.999Z</time></trkpt><trkpt lat="45.51526825764575" lon="8.320168900592156"><ele>203.0</ele><time>2026-04-11T15:41:28.999Z</time></trkpt><trkpt lat="45.51530160210486" lon="8.320294606885719"><ele>203.0</ele><time>2026-04-11T15:41:29.999Z</time></trkpt><trkpt lat="45.51534555999843" lon="8.32041391357643"><ele>203.0</ele><time>2026-04-11T15:41:30.999Z</time></trkpt><trkpt lat="45.51539159376579" lon="8.3205315889582"><ele>203.0</ele><time>2026-04-11T15:41:31.999Z</time></trkpt><trkpt lat="45.51544016507639" lon="8.320654404688385"><ele>203.0</ele><time>2026-04-11T15:41:32.999Z</time></trkpt><trkpt lat="45.51547473017874" lon="8.32078567915944"><ele>203.0</ele><time>2026-04-11T15:41:33.999Z</time></trkpt><trkpt lat="45.515514779824365" lon="8.320917160211781"><ele>203.2</ele><time>2026-04-11T15:41:34.999Z</time></trkpt><trkpt lat="45.51554777565762" lon="8.321053142850742"><ele>203.4</ele><time>2026-04-11T15:41:35.999Z</time></trkpt><trkpt lat="45.515577605147875" lon="8.321192948708216"><ele>203.6</ele><time>2026-04-11T15:41:36.999Z</time></trkpt><trkpt lat="45.51560525486915" lon="8.321332009488707"><ele>203.79999999999998</ele><time>2026-04-11T15:41:37.999Z</time></trkpt><trkpt lat="45.515631078961896" lon="8.32147271257435"><ele>204.0</ele><time>2026-04-11T15:41:38.999Z</time></trkpt><trkpt lat="45.51565311348459" lon="8.321615475924247"><ele>204.33333333333334</ele><time>2026-04-11T15:41:39.999Z</time></trkpt><trkpt lat="45.51567256050516" lon="8.32175766597789"><ele>204.66666666666669</ele><time>2026-04-11T15:41:40.999Z</time></trkpt><trkpt lat="45.51569564415086" lon="8.321896165636211"><ele>205.0</ele><time>2026-04-11T15:41:41.999Z</time></trkpt><trkpt lat="45.515718752093086" lon="8.322016721116476"><ele>205.33333333333334</ele><time>2026-04-11T15:41:42.999Z</time></trkpt><trkpt lat="45.51573918519706" lon="8.322114526915513"><ele>205.66666666666669</ele><time>2026-04-11T15:41:43.999Z</time></trkpt><trkpt lat="45.51576513893616" lon="8.322226594100888"><ele>206.0</ele><time>2026-04-11T15:41:45.999Z</time></trkpt><trkpt lat="45.51584067844119" lon="8.32228777772998"><ele>206.0</ele><time>2026-04-11T15:41:50.999Z</time></trkpt><trkpt lat="45.515958652004656" lon="8.322226793273376"><ele>206.0</ele><time>2026-04-11T15:41:52.999Z</time></trkpt><trkpt lat="45.51602553643496" lon="8.322195714563168"><ele>206.0</ele><time>2026-04-11T15:41:53.999Z</time></trkpt><trkpt lat="45.51611443094198" lon="8.322224054667341"><ele>206.0</ele><time>2026-04-11T15:41:55.999Z</time></trkpt><trkpt lat="45.51617165046046" lon="8.322351995300913"><ele>206.0</ele><time>2026-04-11T15:41:57.999Z</time></trkpt><trkpt lat="45.51624089479567" lon="8.322493095499128"><ele>206.4</ele><time>2026-04-11T15:41:59.999Z</time></trkpt><trkpt lat="45.51627415743347" lon="8.322569617356887"><ele>206.8</ele><time>2026-04-11T15:42:00.999Z</time></trkpt><trkpt lat="45.516344022304345" lon="8.322718307731906"><ele>207.20000000000002</ele><time>2026-04-11T15:42:02.999Z</time></trkpt><trkpt lat="45.516412807917945" lon="8.322855647163529"><ele>207.60000000000002</ele><time>2026-04-11T15:42:04.999Z</time></trkpt><trkpt lat="45.51645571335871" lon="8.322935943030366"><ele>208.0</ele><time>2026-04-11T15:42:06.999Z</time></trkpt><trkpt lat="45.51649922856887" lon="8.323019389612176"><ele>207.99999999999997</ele><time>2026-04-11T15:42:19Z</time></trkpt><trkpt lat="45.51655643594046" lon="8.323139381132297"><ele>208.0</ele><time>2026-04-11T15:42:20.999Z</time></trkpt><trkpt lat="45.516595470095474" lon="8.323216471297668"><ele>208.0</ele><time>2026-04-11T15:42:21.999Z</time></trkpt><trkpt lat="45.51664295423708" lon="8.323308117988507"><ele>208.0</ele><time>2026-04-11T15:42:22.999Z</time></trkpt><trkpt lat="45.51669202698689" lon="8.323411364479"><ele>207.99999999999997</ele><time>2026-04-11T15:42:23.999Z</time></trkpt><trkpt lat="45.51674812027627" lon="8.323517903170558"><ele>208.0</ele><time>2026-04-11T15:42:24.999Z</time></trkpt><trkpt lat="45.516808051887864" lon="8.32362870374203"><ele>208.0</ele><time>2026-04-11T15:42:25.999Z</time></trkpt><trkpt lat="45.51686733757153" lon="8.323742848902116"><ele>208.0</ele><time>2026-04-11T15:42:26.999Z</time></trkpt><trkpt lat="45.51692885289849" lon="8.323862597486773"><ele>208.0</ele><time>2026-04-11T15:42:27.999Z</time></trkpt><trkpt lat="45.516990802781805" lon="8.323989910697563"><ele>208.0</ele><time>2026-04-11T15:42:28.999Z</time></trkpt><trkpt lat="45.51705381032034" lon="8.324113990988854"><ele>208.0</ele><time>2026-04-11T15:42:29.999Z</time></trkpt><trkpt lat="45.5171166647635" lon="8.324243340582127"><ele>208.0</ele><time>2026-04-11T15:42:30.999Z</time></trkpt><trkpt lat="45.517179852896795" lon="8.324373596547325"><ele>208.0</ele><time>2026-04-11T15:42:31.999Z</time></trkpt><trkpt lat="45.51724529019556" lon="8.324507683553515"><ele>208.0</ele><time>2026-04-11T15:42:32.999Z</time></trkpt><trkpt lat="45.51731083971208" lon="8.32464004379426"><ele>208.0</ele><time>2026-04-11T15:42:33.999Z</time></trkpt><trkpt lat="45.51737837520971" lon="8.324769638529583"><ele>207.75</ele><time>2026-04-11T15:42:34.999Z</time></trkpt><trkpt lat="45.51744450586283" lon="8.324903452691128"><ele>207.5</ele><time>2026-04-11T15:42:35.999Z</time></trkpt><trkpt lat="45.517512805906144" lon="8.325034817789078"><ele>207.25</ele><time>2026-04-11T15:42:36.999Z</time></trkpt><trkpt lat="45.51757858575974" lon="8.32517512430402"><ele>207.0</ele><time>2026-04-11T15:42:37.999Z</time></trkpt><trkpt lat="45.51764593227887" lon="8.325313872751783"><ele>207.0</ele><time>2026-04-11T15:42:38.999Z</time></trkpt><trkpt lat="45.51771267992883" lon="8.325452082658243"><ele>207.0</ele><time>2026-04-11T15:42:39.999Z</time></trkpt><trkpt lat="45.51777938731658" lon="8.325595474662705"><ele>207.0</ele><time>2026-04-11T15:42:40.999Z</time></trkpt><trkpt lat="45.517849818059666" lon="8.32574133467079"><ele>207.0</ele><time>2026-04-11T15:42:41.999Z</time></trkpt><trkpt lat="45.517921351971566" lon="8.325889449432246"><ele>207.0</ele><time>2026-04-11T15:42:42.999Z</time></trkpt><trkpt lat="45.51799433805924" lon="8.326035218219033"><ele>207.0</ele><time>2026-04-11T15:42:43.999Z</time></trkpt><trkpt lat="45.518068653783764" lon="8.326180429539201"><ele>207.0</ele><time>2026-04-11T15:42:44.999Z</time></trkpt><trkpt lat="45.51814228932371" lon="8.326326601984336"><ele>207.0</ele><time>2026-04-11T15:42:45.999Z</time></trkpt><trkpt lat="45.51821377951172" lon="8.326473914324676"><ele>207.0</ele><time>2026-04-11T15:42:46.999Z</time></trkpt><trkpt lat="45.518282176686775" lon="8.32662206996267"><ele>207.0</ele><time>2026-04-11T15:42:47.999Z</time></trkpt><trkpt lat="45.518351131214395" lon="8.32675842657525"><ele>207.0</ele><time>2026-04-11T15:42:48.999Z</time></trkpt><trkpt lat="45.518423809911745" lon="8.326897699595257"><ele>207.0</ele><time>2026-04-11T15:42:49.999Z</time></trkpt><trkpt lat="45.51849694602026" lon="8.327036276732061"><ele>207.0</ele><time>2026-04-11T15:42:50.999Z</time></trkpt><trkpt lat="45.51857140359739" lon="8.327180522696079"><ele>207.0</ele><time>2026-04-11T15:42:51.999Z</time></trkpt><trkpt lat="45.518643471053764" lon="8.327329311783544"><ele>207.0</ele><time>2026-04-11T15:42:52.999Z</time></trkpt><trkpt lat="45.518713483122795" lon="8.327477159455965"><ele>207.0</ele><time>2026-04-11T15:42:53.999Z</time></trkpt><trkpt lat="45.51878226109783" lon="8.327619907580505"><ele>207.25</ele><time>2026-04-11T15:42:54.999Z</time></trkpt><trkpt lat="45.51885085142443" lon="8.327760074499661"><ele>207.5</ele><time>2026-04-11T15:42:55.999Z</time></trkpt><trkpt lat="45.518919022719054" lon="8.327894070190235"><ele>207.75</ele><time>2026-04-11T15:42:56.999Z</time></trkpt><trkpt lat="45.51898409315317" lon="8.3280295250527"><ele>208.0</ele><time>2026-04-11T15:42:57.999Z</time></trkpt><trkpt lat="45.51905000289821" lon="8.328163772337627"><ele>208.2</ele><time>2026-04-11T15:42:58.999Z</time></trkpt><trkpt lat="45.51911950083668" lon="8.328290472896866"><ele>208.4</ele><time>2026-04-11T15:42:59.999Z</time></trkpt><trkpt lat="45.51918670125106" lon="8.328420213182206"><ele>208.6</ele><time>2026-04-11T15:43:00.999Z</time></trkpt><trkpt lat="45.5192505080236" lon="8.328550985331201"><ele>208.79999999999998</ele><time>2026-04-11T15:43:01.999Z</time></trkpt><trkpt lat="45.5193110042025" lon="8.328672045141264"><ele>209.0</ele><time>2026-04-11T15:43:02.999Z</time></trkpt><trkpt lat="45.519364734882046" lon="8.328776749801534"><ele>209.00000000000003</ele><time>2026-04-11T15:43:04.001Z</time></trkpt><trkpt lat="45.51941179129481" lon="8.32886744058067"><ele>209.0</ele><time>2026-04-11T15:43:05.001Z</time></trkpt><trkpt lat="45.519451885707056" lon="8.328944240757597"><ele>209.0</ele><time>2026-04-11T15:43:06Z</time></trkpt><trkpt lat="45.519489434203024" lon="8.329018270830058"><ele>209.0</ele><time>2026-04-11T15:43:07.001Z</time></trkpt><trkpt lat="45.519518448487574" lon="8.329179656886485"><ele>209.00000000000003</ele><time>2026-04-11T15:43:09Z</time></trkpt><trkpt lat="45.51944643404785" lon="8.329285557729307"><ele>209.0</ele><time>2026-04-11T15:43:11.001Z</time></trkpt><trkpt lat="45.51937829270999" lon="8.329316060630877"><ele>209.2</ele><time>2026-04-11T15:43:12Z</time></trkpt><trkpt lat="45.519299488951404" lon="8.32935558317429"><ele>209.39999999999998</ele><time>2026-04-11T15:43:13Z</time></trkpt><trkpt lat="45.51921317545318" lon="8.329401990657429"><ele>209.6</ele><time>2026-04-11T15:43:14.001Z</time></trkpt><trkpt lat="45.51911831609214" lon="8.329451939426718"><ele>209.8</ele><time>2026-04-11T15:43:15Z</time></trkpt><trkpt lat="45.51902091940878" lon="8.329501319071914"><ele>210.0</ele><time>2026-04-11T15:43:16Z</time></trkpt><trkpt lat="45.51892093952394" lon="8.32954925531517"><ele>210.0</ele><time>2026-04-11T15:43:17.001Z</time></trkpt><trkpt lat="45.51881996320037" lon="8.329598180281247"><ele>210.0</ele><time>2026-04-11T15:43:18Z</time></trkpt><trkpt lat="45.518717439506744" lon="8.32964638606352"><ele>210.0</ele><time>2026-04-11T15:43:19Z</time></trkpt><trkpt lat="45.51861853606853" lon="8.329694492093353"><ele>210.0</ele><time>2026-04-11T15:43:20Z</time></trkpt><trkpt lat="45.518524163004415" lon="8.329739548620513"><ele>210.0</ele><time>2026-04-11T15:43:21Z</time></trkpt><trkpt lat="45.518434178269125" lon="8.329788369302504"><ele>210.0</ele><time>2026-04-11T15:43:22Z</time></trkpt><trkpt lat="45.51834555987601" lon="8.329836386118904"><ele>210.0</ele><time>2026-04-11T15:43:23Z</time></trkpt><trkpt lat="45.518262735693256" lon="8.32988200288263"><ele>210.0</ele><time>2026-04-11T15:43:24Z</time></trkpt><trkpt lat="45.518191662965734" lon="8.329909613928265"><ele>210.0</ele><time>2026-04-11T15:43:25Z</time></trkpt><trkpt lat="45.518084468295896" lon="8.329959172645378"><ele>210.0</ele><time>2026-04-11T15:43:27Z</time></trkpt><trkpt lat="45.518064896369154" lon="8.330084264741007"><ele>210.0</ele><time>2026-04-11T15:43:29Z</time></trkpt><trkpt lat="45.51809322397002" lon="8.330258516115512"><ele>210.0</ele><time>2026-04-11T15:43:31Z</time></trkpt><trkpt lat="45.51810662742279" lon="8.330365815600572"><ele>210.0</ele><time>2026-04-11T15:43:32Z</time></trkpt><trkpt lat="45.51812945509137" lon="8.330474864518868"><ele>210.0</ele><time>2026-04-11T15:43:33Z</time></trkpt><trkpt lat="45.51814917764424" lon="8.330589533966178"><ele>210.0</ele><time>2026-04-11T15:43:34Z</time></trkpt><trkpt lat="45.51816832882038" lon="8.33070584226168"><ele>210.0</ele><time>2026-04-11T15:43:35Z</time></trkpt><trkpt lat="45.51818735106897" lon="8.330817981484888"><ele>209.83333333333334</ele><time>2026-04-11T15:43:36Z</time></trkpt><trkpt lat="45.518207029303845" lon="8.330921667577142"><ele>209.66666666666669</ele><time>2026-04-11T15:43:37Z</time></trkpt><trkpt lat="45.51822720773431" lon="8.33101825614638"><ele>209.5</ele><time>2026-04-11T15:43:38Z</time></trkpt><trkpt lat="45.518250547842946" lon="8.331102068962597"><ele>209.33333333333334</ele><time>2026-04-11T15:43:39Z</time></trkpt><trkpt lat="45.51830256774975" lon="8.331232835768539"><ele>209.16666666666669</ele><time>2026-04-11T15:43:41Z</time></trkpt><trkpt lat="45.51833199832519" lon="8.331323328811678"><ele>209.0</ele><time>2026-04-11T15:43:44Z</time></trkpt><trkpt lat="45.518290781367696" lon="8.331399120626465"><ele>208.66666666666669</ele><time>2026-04-11T15:43:46Z</time></trkpt><trkpt lat="45.51823093198905" lon="8.331427477375922"><ele>208.33333333333334</ele><time>2026-04-11T15:43:48Z</time></trkpt><trkpt lat="45.51814742926681" lon="8.331466558389067"><ele>208.0</ele><time>2026-04-11T15:44:13Z</time></trkpt><trkpt lat="45.5180488720475" lon="8.33154920831026"><ele>207.66666666666669</ele><time>2026-04-11T15:44:15Z</time></trkpt><trkpt lat="45.51798995501045" lon="8.331605193555125"><ele>207.33333333333334</ele><time>2026-04-11T15:44:16Z</time></trkpt><trkpt lat="45.51792592381678" lon="8.331671604868937"><ele>207.0</ele><time>2026-04-11T15:44:17Z</time></trkpt><trkpt lat="45.517855483874776" lon="8.331744207516165"><ele>207.0</ele><time>2026-04-11T15:44:18Z</time></trkpt><trkpt lat="45.51777883473264" lon="8.331826692315"><ele>207.0</ele><time>2026-04-11T15:44:19Z</time></trkpt><trkpt lat="45.51770246752015" lon="8.331907507081095"><ele>207.0</ele><time>2026-04-11T15:44:20Z</time></trkpt><trkpt lat="45.51762458072897" lon="8.33198874328422"><ele>207.0</ele><time>2026-04-11T15:44:21Z</time></trkpt><trkpt lat="45.5175419371807" lon="8.332064606478713"><ele>207.0</ele><time>2026-04-11T15:44:21.999Z</time></trkpt><trkpt lat="45.51745472294164" lon="8.332139673297428"><ele>207.0</ele><time>2026-04-11T15:44:22.999Z</time></trkpt><trkpt lat="45.517366209214956" lon="8.332217235231093"><ele>207.0</ele><time>2026-04-11T15:44:23.999Z</time></trkpt><trkpt lat="45.51727683035484" lon="8.332299185129221"><ele>207.0</ele><time>2026-04-11T15:44:24.999Z</time></trkpt><trkpt lat="45.51718771992387" lon="8.332387309977447"><ele>207.0</ele><time>2026-04-11T15:44:25.999Z</time></trkpt><trkpt lat="45.51710238218991" lon="8.332482475487291"><ele>207.0</ele><time>2026-04-11T15:44:26.999Z</time></trkpt><trkpt lat="45.51701473437166" lon="8.33257298967257"><ele>207.0</ele><time>2026-04-11T15:44:27.999Z</time></trkpt><trkpt lat="45.51691283099442" lon="8.332633954541166"><ele>207.0</ele><time>2026-04-11T15:44:28.999Z</time></trkpt><trkpt lat="45.51681197384297" lon="8.33269924647574"><ele>207.0</ele><time>2026-04-11T15:44:29.999Z</time></trkpt><trkpt lat="45.51670936803227" lon="8.33276652362867"><ele>207.0</ele><time>2026-04-11T15:44:30.999Z</time></trkpt><trkpt lat="45.516607586900186" lon="8.33282381660457"><ele>207.0</ele><time>2026-04-11T15:44:31.999Z</time></trkpt><trkpt lat="45.516506728303796" lon="8.332872393316265"><ele>207.0</ele><time>2026-04-11T15:44:32.999Z</time></trkpt><trkpt lat="45.51640699046043" lon="8.332927479163923"><ele>207.0</ele><time>2026-04-11T15:44:33.999Z</time></trkpt><trkpt lat="45.516315953045186" lon="8.33300266711669"><ele>207.0</ele><time>2026-04-11T15:44:34.999Z</time></trkpt><trkpt lat="45.51624221993459" lon="8.333081497037684"><ele>207.0</ele><time>2026-04-11T15:44:35.999Z</time></trkpt><trkpt lat="45.51618626950491" lon="8.333166009646023"><ele>207.0</ele><time>2026-04-11T15:44:36.999Z</time></trkpt><trkpt lat="45.51615602795252" lon="8.333264223242447"><ele>206.66666666666666</ele><time>2026-04-11T15:44:37.999Z</time></trkpt><trkpt lat="45.51614562894666" lon="8.333375871104872"><ele>206.33333333333331</ele><time>2026-04-11T15:44:38.999Z</time></trkpt><trkpt lat="45.51614203734847" lon="8.333493313818751"><ele>206.0</ele><time>2026-04-11T15:44:39.999Z</time></trkpt><trkpt lat="45.5161348130914" lon="8.333603041582114"><ele>205.66666666666666</ele><time>2026-04-11T15:44:40.999Z</time></trkpt><trkpt lat="45.516106397475376" lon="8.333691698539655"><ele>205.33333333333331</ele><time>2026-04-11T15:44:41.999Z</time></trkpt><trkpt lat="45.516058282867775" lon="8.333765138496531"><ele>205.0</ele><time>2026-04-11T15:44:42.999Z</time></trkpt><trkpt lat="45.51598497894998" lon="8.333801879222941"><ele>205.0</ele><time>2026-04-11T15:44:43.999Z</time></trkpt><trkpt lat="45.51589309534504" lon="8.333834749295466"><ele>205.0</ele><time>2026-04-11T15:44:44.999Z</time></trkpt><trkpt lat="45.51579944958833" lon="8.333879375318427"><ele>205.0</ele><time>2026-04-11T15:44:45.999Z</time></trkpt><trkpt lat="45.51569982436126" lon="8.333924704893358"><ele>205.0</ele><time>2026-04-11T15:44:46.999Z</time></trkpt><trkpt lat="45.515599145526224" lon="8.33397534462045"><ele>205.0</ele><time>2026-04-11T15:44:47.999Z</time></trkpt><trkpt lat="45.5154999788957" lon="8.334028582947836"><ele>204.8</ele><time>2026-04-11T15:44:48.999Z</time></trkpt><trkpt lat="45.51540012136909" lon="8.334083597553636"><ele>204.6</ele><time>2026-04-11T15:44:49.999Z</time></trkpt><trkpt lat="45.51529989547654" lon="8.33414034149566"><ele>204.39999999999998</ele><time>2026-04-11T15:44:50.999Z</time></trkpt><trkpt lat="45.5151974918996" lon="8.334189395914992"><ele>204.2</ele><time>2026-04-11T15:44:51.999Z</time></trkpt><trkpt lat="45.51509133156752" lon="8.33423310700678"><ele>204.0</ele><time>2026-04-11T15:44:52.999Z</time></trkpt><trkpt lat="45.51498041032393" lon="8.33428297752746"><ele>204.0</ele><time>2026-04-11T15:44:53.999Z</time></trkpt><trkpt lat="45.51486493239262" lon="8.334333954157879"><ele>204.0</ele><time>2026-04-11T15:44:54.999Z</time></trkpt><trkpt lat="45.51474969883783" lon="8.334383787502782"><ele>204.0</ele><time>2026-04-11T15:44:55.999Z</time></trkpt><trkpt lat="45.51463190639895" lon="8.334434360666716"><ele>204.0</ele><time>2026-04-11T15:44:56.999Z</time></trkpt><trkpt lat="45.51451544499301" lon="8.334489967551201"><ele>204.25</ele><time>2026-04-11T15:44:57.999Z</time></trkpt><trkpt lat="45.51440068583347" lon="8.334544043971576"><ele>204.5</ele><time>2026-04-11T15:44:58.999Z</time></trkpt><trkpt lat="45.514286533647876" lon="8.334595540149602"><ele>204.75</ele><time>2026-04-11T15:44:59.999Z</time></trkpt><trkpt lat="45.51417365507863" lon="8.334647145444574"><ele>205.0</ele><time>2026-04-11T15:45:00.999Z</time></trkpt><trkpt lat="45.514058153897274" lon="8.334691671394593"><ele>205.0</ele><time>2026-04-11T15:45:01.999Z</time></trkpt><trkpt lat="45.513943794580996" lon="8.334734992246347"><ele>205.0</ele><time>2026-04-11T15:45:02.999Z</time></trkpt><trkpt lat="45.51383934699086" lon="8.334779406930174"><ele>205.0</ele><time>2026-04-11T15:45:03.999Z</time></trkpt><trkpt lat="45.513739948718595" lon="8.334821416650488"><ele>205.0</ele><time>2026-04-11T15:45:04.999Z</time></trkpt><trkpt lat="45.513640173847" lon="8.334839717676756"><ele>205.0</ele><time>2026-04-11T15:45:05.999Z</time></trkpt><trkpt lat="45.513536329972084" lon="8.3348344103338"><ele>205.0</ele><time>2026-04-11T15:45:06.999Z</time></trkpt><trkpt lat="45.513426188149" lon="8.334827675706746"><ele>205.0</ele><time>2026-04-11T15:45:07.999Z</time></trkpt><trkpt lat="45.51331518641392" lon="8.334823948942025"><ele>205.0</ele><time>2026-04-11T15:45:09Z</time></trkpt><trkpt lat="45.513202218387306" lon="8.334822276270932"><ele>205.0</ele><time>2026-04-11T15:45:10Z</time></trkpt><trkpt lat="45.513086317330014" lon="8.334823156992016"><ele>205.0</ele><time>2026-04-11T15:45:11Z</time></trkpt><trkpt lat="45.51296829776259" lon="8.334822778057374"><ele>205.0</ele><time>2026-04-11T15:45:12Z</time></trkpt><trkpt lat="45.512847675877936" lon="8.334822375201488"><ele>205.0</ele><time>2026-04-11T15:45:13Z</time></trkpt><trkpt lat="45.51272495736197" lon="8.334821487799509"><ele>205.0</ele><time>2026-04-11T15:45:14Z</time></trkpt><trkpt lat="45.51260274301411" lon="8.334819455446654"><ele>204.75</ele><time>2026-04-11T15:45:15Z</time></trkpt><trkpt lat="45.512480457691424" lon="8.334816761105131"><ele>204.5</ele><time>2026-04-11T15:45:16Z</time></trkpt><trkpt lat="45.5123583912044" lon="8.334813036272365"><ele>204.25</ele><time>2026-04-11T15:45:17Z</time></trkpt><trkpt lat="45.51223621401601" lon="8.334814825708674"><ele>204.0</ele><time>2026-04-11T15:45:18Z</time></trkpt><trkpt lat="45.51211367174895" lon="8.334815210654174"><ele>203.5</ele><time>2026-04-11T15:45:19Z</time></trkpt><trkpt lat="45.51199269755827" lon="8.334817047393177"><ele>203.0</ele><time>2026-04-11T15:45:20Z</time></trkpt><trkpt lat="45.51187270852693" lon="8.33481300551571"><ele>202.5</ele><time>2026-04-11T15:45:21Z</time></trkpt><trkpt lat="45.51175535697896" lon="8.334811132761413"><ele>202.0</ele><time>2026-04-11T15:45:22Z</time></trkpt><trkpt lat="45.51163695948251" lon="8.334808958429884"><ele>202.0</ele><time>2026-04-11T15:45:23Z</time></trkpt><trkpt lat="45.5115196601939" lon="8.334811822573965"><ele>202.0</ele><time>2026-04-11T15:45:24Z</time></trkpt><trkpt lat="45.51140096393958" lon="8.33481245652173"><ele>202.0</ele><time>2026-04-11T15:45:25Z</time></trkpt><trkpt lat="45.51128619902807" lon="8.334811813290433"><ele>202.0</ele><time>2026-04-11T15:45:26Z</time></trkpt><trkpt lat="45.51117152175551" lon="8.334810975476596"><ele>202.0</ele><time>2026-04-11T15:45:27Z</time></trkpt><trkpt lat="45.51105545831595" lon="8.334811264969117"><ele>202.0</ele><time>2026-04-11T15:45:28Z</time></trkpt><trkpt lat="45.510936982843035" lon="8.334811733009477"><ele>202.0</ele><time>2026-04-11T15:45:29Z</time></trkpt><trkpt lat="45.51081747400473" lon="8.334809695809769"><ele>202.0</ele><time>2026-04-11T15:45:30Z</time></trkpt><trkpt lat="45.510700354526556" lon="8.33481139454923"><ele>202.0</ele><time>2026-04-11T15:45:31Z</time></trkpt><trkpt lat="45.51058315100172" lon="8.334811712636787"><ele>202.0</ele><time>2026-04-11T15:45:32Z</time></trkpt><trkpt lat="45.51046484747198" lon="8.334804374016194"><ele>202.0</ele><time>2026-04-11T15:45:33Z</time></trkpt><trkpt lat="45.51034629451525" lon="8.334800592781328"><ele>202.0</ele><time>2026-04-11T15:45:34Z</time></trkpt><trkpt lat="45.51022879457521" lon="8.334802109638133"><ele>202.0</ele><time>2026-04-11T15:45:35Z</time></trkpt><trkpt lat="45.5101124344532" lon="8.334803411219779"><ele>202.0</ele><time>2026-04-11T15:45:36Z</time></trkpt><trkpt lat="45.50999531721533" lon="8.334803574487784"><ele>202.0</ele><time>2026-04-11T15:45:37Z</time></trkpt><trkpt lat="45.509878201327396" lon="8.334803567163018"><ele>202.0</ele><time>2026-04-11T15:45:38Z</time></trkpt><trkpt lat="45.509760756925516" lon="8.334799975416162"><ele>202.0</ele><time>2026-04-11T15:45:39Z</time></trkpt><trkpt lat="45.50964438394124" lon="8.334774115915971"><ele>202.0</ele><time>2026-04-11T15:45:40Z</time></trkpt><trkpt lat="45.50953226121702" lon="8.334773261347966"><ele>202.0</ele><time>2026-04-11T15:45:41Z</time></trkpt><trkpt lat="45.509424703731476" lon="8.334772324461618"><ele>202.0</ele><time>2026-04-11T15:45:42Z</time></trkpt><trkpt lat="45.50932818416812" lon="8.334773560063155"><ele>202.0</ele><time>2026-04-11T15:45:43Z</time></trkpt><trkpt lat="45.50924556675388" lon="8.334771750616094"><ele>201.83333333333331</ele><time>2026-04-11T15:45:44Z</time></trkpt><trkpt lat="45.50916593728676" lon="8.33479137736531"><ele>201.66666666666666</ele><time>2026-04-11T15:45:45Z</time></trkpt><trkpt lat="45.50909606053816" lon="8.334784279322243"><ele>201.5</ele><time>2026-04-11T15:45:46Z</time></trkpt><trkpt lat="45.50902957378797" lon="8.334799153327117"><ele>201.33333333333331</ele><time>2026-04-11T15:45:47Z</time></trkpt><trkpt lat="45.508967557454746" lon="8.334824259616067"><ele>201.16666666666666</ele><time>2026-04-11T15:45:48Z</time></trkpt><trkpt lat="45.50892616956931" lon="8.334925376017667"><ele>201.0</ele><time>2026-04-11T15:45:49Z</time></trkpt><trkpt lat="45.50894778804773" lon="8.335055671437901"><ele>201.0</ele><time>2026-04-11T15:45:50Z</time></trkpt><trkpt lat="45.50893017298955" lon="8.335168177569074"><ele>201.0</ele><time>2026-04-11T15:45:51Z</time></trkpt><trkpt lat="45.50893941128133" lon="8.335295045272277"><ele>201.0</ele><time>2026-04-11T15:45:52Z</time></trkpt><trkpt lat="45.50892918546805" lon="8.335429386585334"><ele>201.0</ele><time>2026-04-11T15:45:53Z</time></trkpt><trkpt lat="45.50891731362299" lon="8.335572263968121"><ele>201.0</ele><time>2026-04-11T15:45:54Z</time></trkpt><trkpt lat="45.50890407487062" lon="8.33572095842562"><ele>201.0</ele><time>2026-04-11T15:45:55Z</time></trkpt><trkpt lat="45.50889167456933" lon="8.335877241735796"><ele>201.0</ele><time>2026-04-11T15:45:56Z</time></trkpt><trkpt lat="45.50888187782407" lon="8.33603631389669"><ele>201.0</ele><time>2026-04-11T15:45:57Z</time></trkpt><trkpt lat="45.50887278536911" lon="8.336197529056534"><ele>201.0</ele><time>2026-04-11T15:45:58Z</time></trkpt><trkpt lat="45.50886094718291" lon="8.336356214860764"><ele>201.0</ele><time>2026-04-11T15:45:59Z</time></trkpt><trkpt lat="45.508833174798454" lon="8.336509174563853"><ele>201.0</ele><time>2026-04-11T15:46:00Z</time></trkpt><trkpt lat="45.50882025894488" lon="8.336662871128757"><ele>201.0</ele><time>2026-04-11T15:46:01Z</time></trkpt><trkpt lat="45.50880741727307" lon="8.336814901128443"><ele>201.0</ele><time>2026-04-11T15:46:02Z</time></trkpt><trkpt lat="45.50880931600061" lon="8.336963341459564"><ele>201.0</ele><time>2026-04-11T15:46:03Z</time></trkpt><trkpt lat="45.50879375695208" lon="8.337095539805548"><ele>201.0</ele><time>2026-04-11T15:46:04Z</time></trkpt><trkpt lat="45.50879695325786" lon="8.337211424944195"><ele>200.8</ele><time>2026-04-11T15:46:05Z</time></trkpt><trkpt lat="45.50881823994495" lon="8.337331193053792"><ele>200.60000000000002</ele><time>2026-04-11T15:46:06Z</time></trkpt><trkpt lat="45.50886562481753" lon="8.337444974154584"><ele>200.4</ele><time>2026-04-11T15:46:07Z</time></trkpt><trkpt lat="45.50892720955623" lon="8.337554522421192"><ele>200.2</ele><time>2026-04-11T15:46:08Z</time></trkpt><trkpt lat="45.50899968036538" lon="8.337661892038657"><ele>200.0</ele><time>2026-04-11T15:46:09Z</time></trkpt><trkpt lat="45.50907821614355" lon="8.33776496329578"><ele>200.0</ele><time>2026-04-11T15:46:10Z</time></trkpt><trkpt lat="45.50915741162988" lon="8.337871915212329"><ele>200.0</ele><time>2026-04-11T15:46:11Z</time></trkpt><trkpt lat="45.50923530383651" lon="8.337979005921524"><ele>200.0</ele><time>2026-04-11T15:46:12Z</time></trkpt><trkpt lat="45.509313012304844" lon="8.338085551935201"><ele>200.0</ele><time>2026-04-11T15:46:13Z</time></trkpt><trkpt lat="45.509390788601095" lon="8.3381923549924"><ele>200.0</ele><time>2026-04-11T15:46:14Z</time></trkpt><trkpt lat="45.5094684199306" lon="8.338295064089955"><ele>200.00000000000003</ele><time>2026-04-11T15:46:15Z</time></trkpt><trkpt lat="45.50954118259231" lon="8.338397667235077"><ele>200.0</ele><time>2026-04-11T15:46:16Z</time></trkpt><trkpt lat="45.50960851376169" lon="8.338492319563393"><ele>200.0</ele><time>2026-04-11T15:46:17Z</time></trkpt><trkpt lat="45.50965178675048" lon="8.33859007597009"><ele>200.0</ele><time>2026-04-11T15:46:18Z</time></trkpt><trkpt lat="45.50967555626351" lon="8.338686797211139"><ele>200.00000000000003</ele><time>2026-04-11T15:46:19Z</time></trkpt><trkpt lat="45.50969313878943" lon="8.3387822249721"><ele>200.0</ele><time>2026-04-11T15:46:20Z</time></trkpt><trkpt lat="45.509694215383654" lon="8.338874256022837"><ele>200.16666666666669</ele><time>2026-04-11T15:46:21Z</time></trkpt><trkpt lat="45.5096896087082" lon="8.339019718709729"><ele>200.33333333333334</ele><time>2026-04-11T15:46:23Z</time></trkpt><trkpt lat="45.50968039919238" lon="8.3391317625818"><ele>200.5</ele><time>2026-04-11T15:46:24.999Z</time></trkpt><trkpt lat="45.50960509373233" lon="8.339130361221402"><ele>200.66666666666669</ele><time>2026-04-11T15:46:25.999Z</time></trkpt><trkpt lat="45.50949393980158" lon="8.339190043108003"><ele>200.83333333333334</ele><time>2026-04-11T15:46:27.999Z</time></trkpt><trkpt lat="45.50942928937875" lon="8.339217796655293"><ele>201.0</ele><time>2026-04-11T15:46:28.999Z</time></trkpt><trkpt lat="45.509363259668085" lon="8.33925172969111"><ele>200.5</ele><time>2026-04-11T15:46:29.999Z</time></trkpt><trkpt lat="45.50929329744687" lon="8.339287207224952"><ele>200.0</ele><time>2026-04-11T15:46:30.999Z</time></trkpt><trkpt lat="45.5092181765925" lon="8.339314321707485"><ele>199.5</ele><time>2026-04-11T15:46:31.999Z</time></trkpt><trkpt lat="45.509139086295164" lon="8.339331453222702"><ele>199.0</ele><time>2026-04-11T15:46:32.999Z</time></trkpt><trkpt lat="45.50905735672807" lon="8.339345549613208"><ele>198.5</ele><time>2026-04-11T15:46:33.999Z</time></trkpt><trkpt lat="45.50897440890008" lon="8.33934665962367"><ele>198.0</ele><time>2026-04-11T15:46:34.999Z</time></trkpt><trkpt lat="45.50889068651646" lon="8.339338836884208"><ele>198.0</ele><time>2026-04-11T15:46:35.999Z</time></trkpt><trkpt lat="45.508806489938486" lon="8.33932763348909"><ele>198.0</ele><time>2026-04-11T15:46:36.999Z</time></trkpt><trkpt lat="45.508723429126135" lon="8.339315238978067"><ele>198.0</ele><time>2026-04-11T15:46:37.999Z</time></trkpt><trkpt lat="45.50864112800862" lon="8.339305005444311"><ele>198.0</ele><time>2026-04-11T15:46:38.999Z</time></trkpt><trkpt lat="45.50855862279912" lon="8.33929548523928"><ele>198.0</ele><time>2026-04-11T15:46:39.999Z</time></trkpt><trkpt lat="45.50847698215763" lon="8.33928534745198"><ele>198.0</ele><time>2026-04-11T15:46:40.999Z</time></trkpt><trkpt lat="45.50839607107121" lon="8.339273282713616"><ele>197.83333333333334</ele><time>2026-04-11T15:46:41.999Z</time></trkpt><trkpt lat="45.508315405929665" lon="8.339257956172169"><ele>197.66666666666669</ele><time>2026-04-11T15:46:42.999Z</time></trkpt><trkpt lat="45.50823388834389" lon="8.339245242315256"><ele>197.5</ele><time>2026-04-11T15:46:43.999Z</time></trkpt><trkpt lat="45.508150825624995" lon="8.339235835536412"><ele>197.33333333333334</ele><time>2026-04-11T15:46:44.999Z</time></trkpt><trkpt lat="45.50806981210944" lon="8.339226817972534"><ele>197.16666666666669</ele><time>2026-04-11T15:46:45.999Z</time></trkpt><trkpt lat="45.50798919033582" lon="8.339217498498595"><ele>197.0</ele><time>2026-04-11T15:46:46.999Z</time></trkpt><trkpt lat="45.507908192460725" lon="8.339205720732371"><ele>196.83333333333334</ele><time>2026-04-11T15:46:47.999Z</time></trkpt><trkpt lat="45.50782820808624" lon="8.339193745325815"><ele>196.66666666666669</ele><time>2026-04-11T15:46:48.999Z</time></trkpt><trkpt lat="45.50774770150411" lon="8.339183612030759"><ele>196.5</ele><time>2026-04-11T15:46:49.999Z</time></trkpt><trkpt lat="45.50766753156992" lon="8.339172936286651"><ele>196.33333333333331</ele><time>2026-04-11T15:46:50.999Z</time></trkpt><trkpt lat="45.507585906324614" lon="8.339165476906528"><ele>196.16666666666666</ele><time>2026-04-11T15:46:51.999Z</time></trkpt><trkpt lat="45.507506857395214" lon="8.33915920349256"><ele>196.0</ele><time>2026-04-11T15:46:52.999Z</time></trkpt><trkpt lat="45.50743523677452" lon="8.339152825305415"><ele>196.0</ele><time>2026-04-11T15:46:53.999Z</time></trkpt><trkpt lat="45.507336810560076" lon="8.339123584368835"><ele>196.0</ele><time>2026-04-11T15:46:55.999Z</time></trkpt><trkpt lat="45.507289486123845" lon="8.339358632917872"><ele>196.0</ele><time>2026-04-11T15:47:19Z</time></trkpt><trkpt lat="45.507275647722295" lon="8.339523908660173"><ele>196.0</ele><time>2026-04-11T15:47:21Z</time></trkpt><trkpt lat="45.507269311576245" lon="8.339637517511841"><ele>195.60000000000002</ele><time>2026-04-11T15:47:22Z</time></trkpt><trkpt lat="45.50726073151905" lon="8.339760129951749"><ele>195.2</ele><time>2026-04-11T15:47:23Z</time></trkpt><trkpt lat="45.50725734198331" lon="8.339887403527875"><ele>194.8</ele><time>2026-04-11T15:47:24Z</time></trkpt><trkpt lat="45.507246493884274" lon="8.340025768768047"><ele>194.39999999999998</ele><time>2026-04-11T15:47:25Z</time></trkpt><trkpt lat="45.50723513513699" lon="8.340174536097997"><ele>194.0</ele><time>2026-04-11T15:47:26Z</time></trkpt><trkpt lat="45.50721920046512" lon="8.34032079117706"><ele>194.00000000000003</ele><time>2026-04-11T15:47:27Z</time></trkpt><trkpt lat="45.507207902357955" lon="8.340465267494253"><ele>194.0</ele><time>2026-04-11T15:47:28Z</time></trkpt><trkpt lat="45.5072003549964" lon="8.340604430995874"><ele>194.0</ele><time>2026-04-11T15:47:29Z</time></trkpt><trkpt lat="45.50719260397015" lon="8.340732451618006"><ele>194.0</ele><time>2026-04-11T15:47:30Z</time></trkpt><trkpt lat="45.50717793896832" lon="8.340840699919525"><ele>194.00000000000003</ele><time>2026-04-11T15:47:31Z</time></trkpt><trkpt lat="45.5071688491991" lon="8.340952909019574"><ele>194.0</ele><time>2026-04-11T15:47:32Z</time></trkpt><trkpt lat="45.507160265485524" lon="8.341054112862833"><ele>194.00000000000003</ele><time>2026-04-11T15:47:33Z</time></trkpt><trkpt lat="45.50714407492479" lon="8.341146488459103"><ele>194.0</ele><time>2026-04-11T15:47:34Z</time></trkpt><trkpt lat="45.507079742379055" lon="8.341289600402385"><ele>194.0</ele><time>2026-04-11T15:47:36Z</time></trkpt><trkpt lat="45.50702847691135" lon="8.341386085534758"><ele>194.0</ele><time>2026-04-11T15:47:38Z</time></trkpt><trkpt lat="45.50699648881724" lon="8.341467968883219"><ele>194.00000000000003</ele><time>2026-04-11T15:47:41Z</time></trkpt><trkpt lat="45.50696065207266" lon="8.341558867428963"><ele>194.0</ele><time>2026-04-11T15:47:44Z</time></trkpt><trkpt lat="45.506936630362375" lon="8.341670073604565"><ele>194.00000000000003</ele><time>2026-04-11T15:47:47Z</time></trkpt><trkpt lat="45.506893804360764" lon="8.341754924431493"><ele>194.0</ele><time>2026-04-11T15:47:49Z</time></trkpt><trkpt lat="45.506837444809726" lon="8.341813645826159"><ele>194.0</ele><time>2026-04-11T15:47:51Z</time></trkpt><trkpt lat="45.50687836515537" lon="8.341890839167085"><ele>194.0</ele><time>2026-04-11T15:48:26.999Z</time></trkpt><trkpt lat="45.506935590026686" lon="8.34198144305442"><ele>194.00000000000003</ele><time>2026-04-11T15:48:28.999Z</time></trkpt><trkpt lat="45.507014281932015" lon="8.342133364243121"><ele>194.0</ele><time>2026-04-11T15:48:30.999Z</time></trkpt><trkpt lat="45.50706106107221" lon="8.34221690082888"><ele>194.00000000000003</ele><time>2026-04-11T15:48:31.999Z</time></trkpt><trkpt lat="45.50709919694893" lon="8.342305026830516"><ele>194.0</ele><time>2026-04-11T15:48:32.999Z</time></trkpt><trkpt lat="45.50711185959742" lon="8.342405828021995"><ele>194.0</ele><time>2026-04-11T15:48:33.999Z</time></trkpt><trkpt lat="45.50710205460728" lon="8.342515591641503"><ele>194.0</ele><time>2026-04-11T15:48:34.999Z</time></trkpt><trkpt lat="45.5070892454979" lon="8.342641201605119"><ele>194.00000000000003</ele><time>2026-04-11T15:48:35.999Z</time></trkpt><trkpt lat="45.507079187967676" lon="8.342777740843026"><ele>194.0</ele><time>2026-04-11T15:48:36.999Z</time></trkpt><trkpt lat="45.50706966629998" lon="8.342918445878121"><ele>194.0</ele><time>2026-04-11T15:48:37.999Z</time></trkpt><trkpt lat="45.50706137513717" lon="8.343063800469288"><ele>194.0</ele><time>2026-04-11T15:48:38.999Z</time></trkpt><trkpt lat="45.50705249361972" lon="8.34321121482715"><ele>194.0</ele><time>2026-04-11T15:48:39.999Z</time></trkpt><trkpt lat="45.507041373920465" lon="8.343361700331958"><ele>194.0</ele><time>2026-04-11T15:48:40.999Z</time></trkpt><trkpt lat="45.50703388196255" lon="8.343518880551942"><ele>194.0</ele><time>2026-04-11T15:48:41.999Z</time></trkpt><trkpt lat="45.50702789110672" lon="8.343676988393314"><ele>194.0</ele><time>2026-04-11T15:48:42.999Z</time></trkpt><trkpt lat="45.50701626153633" lon="8.343833478908337"><ele>194.0</ele><time>2026-04-11T15:48:43.999Z</time></trkpt><trkpt lat="45.50699940095786" lon="8.343986919283967"><ele>194.0</ele><time>2026-04-11T15:48:44.999Z</time></trkpt><trkpt lat="45.50698816832187" lon="8.344124820290634"><ele>194.0</ele><time>2026-04-11T15:48:45.999Z</time></trkpt><trkpt lat="45.50698151123477" lon="8.344256844441748"><ele>194.0</ele><time>2026-04-11T15:48:46.999Z</time></trkpt><trkpt lat="45.506975156447346" lon="8.344379083078405"><ele>194.00000000000003</ele><time>2026-04-11T15:48:47.999Z</time></trkpt><trkpt lat="45.5069872763129" lon="8.344495776659372"><ele>194.0</ele><time>2026-04-11T15:48:48.999Z</time></trkpt><trkpt lat="45.507002087271125" lon="8.344614471889136"><ele>194.0</ele><time>2026-04-11T15:48:49.999Z</time></trkpt><trkpt lat="45.50701000798284" lon="8.344725434091421"><ele>194.0</ele><time>2026-04-11T15:48:50.999Z</time></trkpt><trkpt lat="45.50701380804357" lon="8.34484469872891"><ele>194.00000000000003</ele><time>2026-04-11T15:48:51.999Z</time></trkpt><trkpt lat="45.50701868885144" lon="8.344967996834905"><ele>194.0</ele><time>2026-04-11T15:48:52.999Z</time></trkpt><trkpt lat="45.50702593392837" lon="8.345099835176974"><ele>194.2</ele><time>2026-04-11T15:48:53.999Z</time></trkpt><trkpt lat="45.5070310769091" lon="8.345233787896396"><ele>194.39999999999998</ele><time>2026-04-11T15:48:54.999Z</time></trkpt><trkpt lat="45.50703860365922" lon="8.345361695151269"><ele>194.6</ele><time>2026-04-11T15:48:55.999Z</time></trkpt><trkpt lat="45.50704862849224" lon="8.345489028799975"><ele>194.8</ele><time>2026-04-11T15:48:56.999Z</time></trkpt><trkpt lat="45.507056259979656" lon="8.345626906723421"><ele>195.0</ele><time>2026-04-11T15:48:57.999Z</time></trkpt><trkpt lat="45.507064577487476" lon="8.345773739752843"><ele>195.0</ele><time>2026-04-11T15:48:58.999Z</time></trkpt><trkpt lat="45.5070744721308" lon="8.345922170571214"><ele>195.0</ele><time>2026-04-11T15:48:59.999Z</time></trkpt><trkpt lat="45.507084778653606" lon="8.346073714183905"><ele>195.0</ele><time>2026-04-11T15:49:00.999Z</time></trkpt><trkpt lat="45.50709915223497" lon="8.346227086663756"><ele>195.0</ele><time>2026-04-11T15:49:01.999Z</time></trkpt><trkpt lat="45.50711551630932" lon="8.346380494343675"><ele>195.0</ele><time>2026-04-11T15:49:02.999Z</time></trkpt><trkpt lat="45.50712483351332" lon="8.346536607200004"><ele>195.0</ele><time>2026-04-11T15:49:03.999Z</time></trkpt><trkpt lat="45.50713699145779" lon="8.346689133474102"><ele>195.0</ele><time>2026-04-11T15:49:04.999Z</time></trkpt><trkpt lat="45.50714570980155" lon="8.346841123900388"><ele>195.0</ele><time>2026-04-11T15:49:05.999Z</time></trkpt><trkpt lat="45.507152511324655" lon="8.346995004848875"><ele>195.0</ele><time>2026-04-11T15:49:06.999Z</time></trkpt><trkpt lat="45.5071618945476" lon="8.347139464905322"><ele>195.0</ele><time>2026-04-11T15:49:07.999Z</time></trkpt><trkpt lat="45.507170250827144" lon="8.347279357084602"><ele>195.0</ele><time>2026-04-11T15:49:08.999Z</time></trkpt><trkpt lat="45.50717352042057" lon="8.347420257891997"><ele>195.0</ele><time>2026-04-11T15:49:09.999Z</time></trkpt><trkpt lat="45.50717160759795" lon="8.347562948558188"><ele>195.0</ele><time>2026-04-11T15:49:10.999Z</time></trkpt><trkpt lat="45.50717614323267" lon="8.347710013664855"><ele>195.0</ele><time>2026-04-11T15:49:11.999Z</time></trkpt><trkpt lat="45.50718513196866" lon="8.34785848953981"><ele>195.0</ele><time>2026-04-11T15:49:12.999Z</time></trkpt><trkpt lat="45.507192206410245" lon="8.348006146328396"><ele>195.2</ele><time>2026-04-11T15:49:13.999Z</time></trkpt><trkpt lat="45.50720008322695" lon="8.34815598403928"><ele>195.4</ele><time>2026-04-11T15:49:14.999Z</time></trkpt><trkpt lat="45.50721014149056" lon="8.348305456765216"><ele>195.60000000000002</ele><time>2026-04-11T15:49:15.999Z</time></trkpt><trkpt lat="45.50721966702467" lon="8.348452959595546"><ele>195.8</ele><time>2026-04-11T15:49:16.999Z</time></trkpt><trkpt lat="45.50722867007105" lon="8.348588965402204"><ele>196.0</ele><time>2026-04-11T15:49:17.999Z</time></trkpt><trkpt lat="45.5072377148527" lon="8.348703606272005"><ele>196.0</ele><time>2026-04-11T15:49:18.999Z</time></trkpt><trkpt lat="45.50724432769125" lon="8.348800833907811"><ele>196.0</ele><time>2026-04-11T15:49:20Z</time></trkpt><trkpt lat="45.50720872665054" lon="8.348946274590805"><ele>196.0</ele><time>2026-04-11T15:49:22Z</time></trkpt><trkpt lat="45.50711251465482" lon="8.348979023746589"><ele>196.0</ele><time>2026-04-11T15:49:24Z</time></trkpt><trkpt lat="45.50698552147421" lon="8.348988701230546"><ele>196.0</ele><time>2026-04-11T15:49:26Z</time></trkpt><trkpt lat="45.50690565703615" lon="8.348996475761266"><ele>196.4</ele><time>2026-04-11T15:49:27Z</time></trkpt><trkpt lat="45.50681921309515" lon="8.349005887301837"><ele>196.8</ele><time>2026-04-11T15:49:28Z</time></trkpt><trkpt lat="45.50672476673838" lon="8.349016198678557"><ele>197.20000000000002</ele><time>2026-04-11T15:49:29Z</time></trkpt><trkpt lat="45.50662612008688" lon="8.349030395894722"><ele>197.60000000000002</ele><time>2026-04-11T15:49:30Z</time></trkpt><trkpt lat="45.50652363831544" lon="8.3490446889759"><ele>198.0</ele><time>2026-04-11T15:49:31Z</time></trkpt><trkpt lat="45.50641829387466" lon="8.349057598834506"><ele>198.0</ele><time>2026-04-11T15:49:32Z</time></trkpt><trkpt lat="45.50631100778554" lon="8.349069530368352"><ele>198.0</ele><time>2026-04-11T15:49:33Z</time></trkpt><trkpt lat="45.50620018558237" lon="8.349080498791716"><ele>198.0</ele><time>2026-04-11T15:49:34Z</time></trkpt><trkpt lat="45.50608592227846" lon="8.349093044149704"><ele>198.0</ele><time>2026-04-11T15:49:35Z</time></trkpt><trkpt lat="45.50597293603741" lon="8.349109588242674"><ele>198.0</ele><time>2026-04-11T15:49:36Z</time></trkpt><trkpt lat="45.505856332086445" lon="8.349122815844193"><ele>197.75</ele><time>2026-04-11T15:49:37Z</time></trkpt><trkpt lat="45.50573749226189" lon="8.349137383696956"><ele>197.5</ele><time>2026-04-11T15:49:38Z</time></trkpt><trkpt lat="45.50561700101905" lon="8.349154731717014"><ele>197.25</ele><time>2026-04-11T15:49:39Z</time></trkpt><trkpt lat="45.505496155361975" lon="8.349173221299713"><ele>197.0</ele><time>2026-04-11T15:49:40Z</time></trkpt><trkpt lat="45.50537556693261" lon="8.34919272564982"><ele>196.5</ele><time>2026-04-11T15:49:41Z</time></trkpt><trkpt lat="45.50525428124447" lon="8.349210703007863"><ele>196.0</ele><time>2026-04-11T15:49:42Z</time></trkpt><trkpt lat="45.505131325644804" lon="8.349226916132222"><ele>195.5</ele><time>2026-04-11T15:49:43Z</time></trkpt><trkpt lat="45.50500648225819" lon="8.349243018704474"><ele>195.0</ele><time>2026-04-11T15:49:44Z</time></trkpt><trkpt lat="45.504883695595865" lon="8.349256851500382"><ele>195.0</ele><time>2026-04-11T15:49:45Z</time></trkpt><trkpt lat="45.50476245361218" lon="8.34927216517769"><ele>195.0</ele><time>2026-04-11T15:49:46Z</time></trkpt><trkpt lat="45.50464221225817" lon="8.349286300752727"><ele>195.0</ele><time>2026-04-11T15:49:47Z</time></trkpt><trkpt lat="45.50452278856482" lon="8.349303527173207"><ele>195.0</ele><time>2026-04-11T15:49:48Z</time></trkpt><trkpt lat="45.504403071031504" lon="8.349319648770472"><ele>194.75</ele><time>2026-04-11T15:49:49Z</time></trkpt><trkpt lat="45.50428325306316" lon="8.349334049363051"><ele>194.5</ele><time>2026-04-11T15:49:50Z</time></trkpt><trkpt lat="45.50416442944639" lon="8.349347401310013"><ele>194.25</ele><time>2026-04-11T15:49:51Z</time></trkpt><trkpt lat="45.504046305434194" lon="8.349354307918858"><ele>194.0</ele><time>2026-04-11T15:49:52Z</time></trkpt><trkpt lat="45.50392800652054" lon="8.349371191103668"><ele>194.0</ele><time>2026-04-11T15:49:53Z</time></trkpt><trkpt lat="45.503809497981855" lon="8.349393427602612"><ele>194.0</ele><time>2026-04-11T15:49:54Z</time></trkpt><trkpt lat="45.50368852432559" lon="8.349412510289149"><ele>194.0</ele><time>2026-04-11T15:49:55Z</time></trkpt><trkpt lat="45.50356695183658" lon="8.349426835379841"><ele>194.0</ele><time>2026-04-11T15:49:56Z</time></trkpt><trkpt lat="45.50344776639263" lon="8.349446940623853"><ele>194.0</ele><time>2026-04-11T15:49:57Z</time></trkpt><trkpt lat="45.503328361712015" lon="8.349463951874936"><ele>194.0</ele><time>2026-04-11T15:49:58Z</time></trkpt><trkpt lat="45.5032106740455" lon="8.349481833801093"><ele>194.0</ele><time>2026-04-11T15:49:59Z</time></trkpt><trkpt lat="45.5030919903145" lon="8.349501619695836"><ele>194.0</ele><time>2026-04-11T15:50:00Z</time></trkpt><trkpt lat="45.502975221515385" lon="8.349520504994016"><ele>193.75</ele><time>2026-04-11T15:50:01Z</time></trkpt><trkpt lat="45.502856308941524" lon="8.34953344011309"><ele>193.5</ele><time>2026-04-11T15:50:02Z</time></trkpt><trkpt lat="45.502737439006474" lon="8.349545962145475"><ele>193.25</ele><time>2026-04-11T15:50:03Z</time></trkpt><trkpt lat="45.50261610732085" lon="8.349553710348097"><ele>193.0</ele><time>2026-04-11T15:50:04Z</time></trkpt><trkpt lat="45.50249453911413" lon="8.349566770323369"><ele>193.0</ele><time>2026-04-11T15:50:05Z</time></trkpt><trkpt lat="45.502371201064406" lon="8.349581969203228"><ele>193.0</ele><time>2026-04-11T15:50:06Z</time></trkpt><trkpt lat="45.50224600495284" lon="8.34959962018057"><ele>193.0</ele><time>2026-04-11T15:50:07Z</time></trkpt><trkpt lat="45.50212009294873" lon="8.349615915926197"><ele>193.0</ele><time>2026-04-11T15:50:08Z</time></trkpt><trkpt lat="45.50199382664103" lon="8.349631754480104"><ele>192.5</ele><time>2026-04-11T15:50:09Z</time></trkpt><trkpt lat="45.50186760983613" lon="8.349647652742332"><ele>192.0</ele><time>2026-04-11T15:50:10Z</time></trkpt><trkpt lat="45.501741923240985" lon="8.34966477514111"><ele>191.5</ele><time>2026-04-11T15:50:11Z</time></trkpt><trkpt lat="45.501617723256636" lon="8.349686404657303"><ele>191.0</ele><time>2026-04-11T15:50:12Z</time></trkpt><trkpt lat="45.50149437273145" lon="8.349702602200415"><ele>191.0</ele><time>2026-04-11T15:50:13Z</time></trkpt><trkpt lat="45.50136917203001" lon="8.349717532206247"><ele>191.0</ele><time>2026-04-11T15:50:14Z</time></trkpt><trkpt lat="45.50124325137301" lon="8.349732647434605"><ele>191.0</ele><time>2026-04-11T15:50:15Z</time></trkpt><trkpt lat="45.50111750814451" lon="8.349750206369103"><ele>191.0</ele><time>2026-04-11T15:50:16Z</time></trkpt><trkpt lat="45.50099105884254" lon="8.349769941217048"><ele>191.0</ele><time>2026-04-11T15:50:17Z</time></trkpt><trkpt lat="45.5008641818354" lon="8.349784028508807"><ele>191.0</ele><time>2026-04-11T15:50:18Z</time></trkpt><trkpt lat="45.50073723922462" lon="8.349800862453549"><ele>191.0</ele><time>2026-04-11T15:50:19Z</time></trkpt><trkpt lat="45.50061019176194" lon="8.34981448910522"><ele>191.0</ele><time>2026-04-11T15:50:20Z</time></trkpt><trkpt lat="45.50048419439719" lon="8.349834417620746"><ele>191.25</ele><time>2026-04-11T15:50:21Z</time></trkpt><trkpt lat="45.50035858844725" lon="8.349852130741596"><ele>191.5</ele><time>2026-04-11T15:50:22Z</time></trkpt><trkpt lat="45.500233682221214" lon="8.349867248342285"><ele>191.75</ele><time>2026-04-11T15:50:23Z</time></trkpt><trkpt lat="45.50010927136396" lon="8.349883007484598"><ele>192.0</ele><time>2026-04-11T15:50:24Z</time></trkpt><trkpt lat="45.499985318626315" lon="8.349897320525107"><ele>192.0</ele><time>2026-04-11T15:50:25Z</time></trkpt><trkpt lat="45.49986218524514" lon="8.34991257509723"><ele>192.0</ele><time>2026-04-11T15:50:26Z</time></trkpt><trkpt lat="45.49974302752598" lon="8.349927685956075"><ele>192.0</ele><time>2026-04-11T15:50:27Z</time></trkpt><trkpt lat="45.499628519067755" lon="8.349942938408667"><ele>192.0</ele><time>2026-04-11T15:50:28Z</time></trkpt><trkpt lat="45.49951735950024" lon="8.349959571594852"><ele>191.8</ele><time>2026-04-11T15:50:29Z</time></trkpt><trkpt lat="45.499409809133596" lon="8.349974990982354"><ele>191.6</ele><time>2026-04-11T15:50:30Z</time></trkpt><trkpt lat="45.49930609759632" lon="8.349989796881188"><ele>191.4</ele><time>2026-04-11T15:50:31Z</time></trkpt><trkpt lat="45.49920648898222" lon="8.350000596995388"><ele>191.20000000000002</ele><time>2026-04-11T15:50:31.999Z</time></trkpt><trkpt lat="45.4991114899168" lon="8.350008603888993"><ele>191.0</ele><time>2026-04-11T15:50:32.999Z</time></trkpt><trkpt lat="45.49902294749371" lon="8.350016191154019"><ele>191.0</ele><time>2026-04-11T15:50:33.999Z</time></trkpt><trkpt lat="45.49894120335628" lon="8.350024394937616"><ele>191.0</ele><time>2026-04-11T15:50:34.999Z</time></trkpt><trkpt lat="45.49887206264014" lon="8.350032574510799"><ele>191.0</ele><time>2026-04-11T15:50:35.999Z</time></trkpt><trkpt lat="45.498754056292285" lon="8.350043204031683"><ele>191.0</ele><time>2026-04-11T15:50:37.999Z</time></trkpt><trkpt lat="45.498685745141415" lon="8.350046539905382"><ele>191.0</ele><time>2026-04-11T15:50:39.999Z</time></trkpt><trkpt lat="45.498613986449826" lon="8.35006946577087"><ele>191.0</ele><time>2026-04-11T15:50:42.999Z</time></trkpt><trkpt lat="45.49853340326071" lon="8.35009678264565"><ele>190.8</ele><time>2026-04-11T15:50:44.999Z</time></trkpt><trkpt lat="45.49843557419469" lon="8.350101053252331"><ele>190.60000000000002</ele><time>2026-04-11T15:50:46.999Z</time></trkpt><trkpt lat="45.498328486459" lon="8.350103436458022"><ele>190.4</ele><time>2026-04-11T15:50:48.999Z</time></trkpt><trkpt lat="45.49821614099035" lon="8.350115243476095"><ele>190.2</ele><time>2026-04-11T15:50:50.999Z</time></trkpt><trkpt lat="45.49810737537439" lon="8.350131648453278"><ele>190.0</ele><time>2026-04-11T15:50:52.999Z</time></trkpt><trkpt lat="45.498007467473066" lon="8.350140335555338"><ele>190.0</ele><time>2026-04-11T15:50:54.999Z</time></trkpt><trkpt lat="45.49792284891644" lon="8.35015556960466"><ele>190.0</ele><time>2026-04-11T15:50:56.999Z</time></trkpt><trkpt lat="45.4978520615191" lon="8.350169950031262"><ele>190.0</ele><time>2026-04-11T15:51:01.999Z</time></trkpt><trkpt lat="45.497759456998374" lon="8.350185318702637"><ele>190.0</ele><time>2026-04-11T15:51:39Z</time></trkpt><trkpt lat="45.49764794661411" lon="8.350202374901665"><ele>190.0</ele><time>2026-04-11T15:51:41Z</time></trkpt><trkpt lat="45.49758026873891" lon="8.350211580989779"><ele>190.0</ele><time>2026-04-11T15:51:42Z</time></trkpt><trkpt lat="45.497505785249075" lon="8.350218623779906"><ele>190.0</ele><time>2026-04-11T15:51:43Z</time></trkpt><trkpt lat="45.497426957369754" lon="8.350227786400563"><ele>190.0</ele><time>2026-04-11T15:51:44Z</time></trkpt><trkpt lat="45.497343436290755" lon="8.350238426833682"><ele>190.0</ele><time>2026-04-11T15:51:45Z</time></trkpt><trkpt lat="45.49725567510776" lon="8.350248598347045"><ele>190.0</ele><time>2026-04-11T15:51:46Z</time></trkpt><trkpt lat="45.49716391036007" lon="8.350259203984535"><ele>190.0</ele><time>2026-04-11T15:51:47Z</time></trkpt><trkpt lat="45.49706802882603" lon="8.35026983182223"><ele>190.0</ele><time>2026-04-11T15:51:48Z</time></trkpt><trkpt lat="45.496967062971486" lon="8.350279540153958"><ele>190.0</ele><time>2026-04-11T15:51:49Z</time></trkpt><trkpt lat="45.496865296294416" lon="8.3502886577089"><ele>190.0</ele><time>2026-04-11T15:51:50Z</time></trkpt><trkpt lat="45.496764931837625" lon="8.35029740258489"><ele>190.0</ele><time>2026-04-11T15:51:51Z</time></trkpt><trkpt lat="45.49666859818144" lon="8.350308665653554"><ele>190.0</ele><time>2026-04-11T15:51:52Z</time></trkpt><trkpt lat="45.4965741658306" lon="8.35032182915789"><ele>190.0</ele><time>2026-04-11T15:51:53Z</time></trkpt><trkpt lat="45.49648238003871" lon="8.350334006987582"><ele>190.0</ele><time>2026-04-11T15:51:54Z</time></trkpt><trkpt lat="45.49639368117077" lon="8.350343427865091"><ele>190.0</ele><time>2026-04-11T15:51:55Z</time></trkpt><trkpt lat="45.49631009182927" lon="8.35035355988576"><ele>190.0</ele><time>2026-04-11T15:51:56Z</time></trkpt><trkpt lat="45.49623052653191" lon="8.350363433954264"><ele>190.0</ele><time>2026-04-11T15:51:57Z</time></trkpt><trkpt lat="45.49615392227064" lon="8.350374286202722"><ele>190.0</ele><time>2026-04-11T15:51:58Z</time></trkpt><trkpt lat="45.49607719265167" lon="8.350383516093368"><ele>190.0</ele><time>2026-04-11T15:51:59Z</time></trkpt><trkpt lat="45.49600250269225" lon="8.350392395166867"><ele>190.0</ele><time>2026-04-11T15:52:00Z</time></trkpt><trkpt lat="45.49592757762475" lon="8.350402848510786"><ele>190.0</ele><time>2026-04-11T15:52:01Z</time></trkpt><trkpt lat="45.49585526522026" lon="8.350413523228866"><ele>190.0</ele><time>2026-04-11T15:52:02Z</time></trkpt><trkpt lat="45.49578313125595" lon="8.350423377710836"><ele>190.0</ele><time>2026-04-11T15:52:03Z</time></trkpt><trkpt lat="45.49571006959677" lon="8.35043336444095"><ele>190.0</ele><time>2026-04-11T15:52:04Z</time></trkpt><trkpt lat="45.49563787112111" lon="8.350444780029658"><ele>190.0</ele><time>2026-04-11T15:52:05Z</time></trkpt><trkpt lat="45.49556687228818" lon="8.350458329589918"><ele>190.0</ele><time>2026-04-11T15:52:06Z</time></trkpt><trkpt lat="45.49549316444798" lon="8.350473251508648"><ele>189.6</ele><time>2026-04-11T15:52:07Z</time></trkpt><trkpt lat="45.49541440172685" lon="8.350485530316249"><ele>189.2</ele><time>2026-04-11T15:52:08Z</time></trkpt><trkpt lat="45.49532720511309" lon="8.35049547315429"><ele>188.8</ele><time>2026-04-11T15:52:09Z</time></trkpt><trkpt lat="45.49523429453432" lon="8.350504971426828"><ele>188.4</ele><time>2026-04-11T15:52:10Z</time></trkpt><trkpt lat="45.49513041306763" lon="8.350514655088851"><ele>188.0</ele><time>2026-04-11T15:52:11Z</time></trkpt><trkpt lat="45.4950195304009" lon="8.350529222097355"><ele>188.25</ele><time>2026-04-11T15:52:12Z</time></trkpt><trkpt lat="45.494904813170336" lon="8.350548814575097"><ele>188.5</ele><time>2026-04-11T15:52:13Z</time></trkpt><trkpt lat="45.49478841634475" lon="8.350568453236804"><ele>188.75</ele><time>2026-04-11T15:52:14Z</time></trkpt><trkpt lat="45.494667804086006" lon="8.35058566667553"><ele>189.0</ele><time>2026-04-11T15:52:15Z</time></trkpt><trkpt lat="45.49453813433764" lon="8.350595576876009"><ele>189.0</ele><time>2026-04-11T15:52:16Z</time></trkpt><trkpt lat="45.494409115992646" lon="8.350606940980208"><ele>189.0</ele><time>2026-04-11T15:52:17Z</time></trkpt><trkpt lat="45.494280626983596" lon="8.35062103208585"><ele>189.0</ele><time>2026-04-11T15:52:18Z</time></trkpt><trkpt lat="45.4941511568616" lon="8.350636997347259"><ele>189.0</ele><time>2026-04-11T15:52:19Z</time></trkpt><trkpt lat="45.494021825289394" lon="8.350654845275379"><ele>189.0</ele><time>2026-04-11T15:52:20Z</time></trkpt><trkpt lat="45.493890053071055" lon="8.350671312068377"><ele>189.0</ele><time>2026-04-11T15:52:21Z</time></trkpt><trkpt lat="45.49375759145509" lon="8.35069004489198"><ele>189.0</ele><time>2026-04-11T15:52:22Z</time></trkpt><trkpt lat="45.493623939872286" lon="8.350708668068739"><ele>189.0</ele><time>2026-04-11T15:52:23Z</time></trkpt><trkpt lat="45.493487470245704" lon="8.350721400356601"><ele>189.0</ele><time>2026-04-11T15:52:24Z</time></trkpt><trkpt lat="45.493350991603315" lon="8.350739224680927"><ele>189.0</ele><time>2026-04-11T15:52:25Z</time></trkpt><trkpt lat="45.493214009611016" lon="8.350754235062338"><ele>189.0</ele><time>2026-04-11T15:52:26Z</time></trkpt><trkpt lat="45.493075707395896" lon="8.350769635200349"><ele>189.0</ele><time>2026-04-11T15:52:27Z</time></trkpt><trkpt lat="45.49293825503372" lon="8.350786404347838"><ele>188.5</ele><time>2026-04-11T15:52:28Z</time></trkpt><trkpt lat="45.49279954099054" lon="8.35080691406815"><ele>188.0</ele><time>2026-04-11T15:52:29Z</time></trkpt><trkpt lat="45.49266079392262" lon="8.350824833542893"><ele>187.5</ele><time>2026-04-11T15:52:30Z</time></trkpt><trkpt lat="45.49252190145354" lon="8.350842483334079"><ele>187.0</ele><time>2026-04-11T15:52:31Z</time></trkpt><trkpt lat="45.492382677872826" lon="8.350861077508952"><ele>187.0</ele><time>2026-04-11T15:52:32Z</time></trkpt><trkpt lat="45.49224270862509" lon="8.350876552806154"><ele>187.0</ele><time>2026-04-11T15:52:33Z</time></trkpt><trkpt lat="45.492101622510454" lon="8.350894107864283"><ele>187.0</ele><time>2026-04-11T15:52:34Z</time></trkpt><trkpt lat="45.49196084861052" lon="8.35091756126002"><ele>187.0</ele><time>2026-04-11T15:52:35Z</time></trkpt><trkpt lat="45.491822078750104" lon="8.350944536998696"><ele>187.25</ele><time>2026-04-11T15:52:35.999Z</time></trkpt><trkpt lat="45.491684144950675" lon="8.350961592930862"><ele>187.5</ele><time>2026-04-11T15:52:36.999Z</time></trkpt><trkpt lat="45.49154888346271" lon="8.350979058830003"><ele>187.75</ele><time>2026-04-11T15:52:37.999Z</time></trkpt><trkpt lat="45.491413963475594" lon="8.350993966187135"><ele>188.0</ele><time>2026-04-11T15:52:38.999Z</time></trkpt><trkpt lat="45.49127982313357" lon="8.351011978166587"><ele>187.75</ele><time>2026-04-11T15:52:39.999Z</time></trkpt><trkpt lat="45.49114424715459" lon="8.351033306952422"><ele>187.5</ele><time>2026-04-11T15:52:40.999Z</time></trkpt><trkpt lat="45.49100915893548" lon="8.351055186284633"><ele>187.25</ele><time>2026-04-11T15:52:41.999Z</time></trkpt><trkpt lat="45.49087350206268" lon="8.351084568835129"><ele>187.0</ele><time>2026-04-11T15:52:42.999Z</time></trkpt><trkpt lat="45.49073744232788" lon="8.35110689493342"><ele>187.0</ele><time>2026-04-11T15:52:43.999Z</time></trkpt><trkpt lat="45.49060154595422" lon="8.351126272906392"><ele>187.0</ele><time>2026-04-11T15:52:44.999Z</time></trkpt><trkpt lat="45.490465742320396" lon="8.351144856209368"><ele>187.0</ele><time>2026-04-11T15:52:45.999Z</time></trkpt><trkpt lat="45.49033050355464" lon="8.351162745584581"><ele>187.0</ele><time>2026-04-11T15:52:46.999Z</time></trkpt><trkpt lat="45.49019447865439" lon="8.3511808207272"><ele>186.5</ele><time>2026-04-11T15:52:47.999Z</time></trkpt><trkpt lat="45.49005632613274" lon="8.351197875190564"><ele>186.0</ele><time>2026-04-11T15:52:48.999Z</time></trkpt><trkpt lat="45.48991678280852" lon="8.351213383544962"><ele>185.5</ele><time>2026-04-11T15:52:49.999Z</time></trkpt><trkpt lat="45.48977899654432" lon="8.351228797347847"><ele>185.0</ele><time>2026-04-11T15:52:50.999Z</time></trkpt><trkpt lat="45.48964083472493" lon="8.351244259509015"><ele>185.25</ele><time>2026-04-11T15:52:51.999Z</time></trkpt><trkpt lat="45.48950247536382" lon="8.351260852139706"><ele>185.5</ele><time>2026-04-11T15:52:52.999Z</time></trkpt><trkpt lat="45.489364084499115" lon="8.351279583509443"><ele>185.75</ele><time>2026-04-11T15:52:53.999Z</time></trkpt><trkpt lat="45.48922634622758" lon="8.351302005573505"><ele>186.0</ele><time>2026-04-11T15:52:54.999Z</time></trkpt><trkpt lat="45.48908849363807" lon="8.351325767116053"><ele>186.0</ele><time>2026-04-11T15:52:55.999Z</time></trkpt><trkpt lat="45.48895020596011" lon="8.351344099573565"><ele>186.0</ele><time>2026-04-11T15:52:56.999Z</time></trkpt><trkpt lat="45.48881108763983" lon="8.351360166408396"><ele>186.0</ele><time>2026-04-11T15:52:57.999Z</time></trkpt><trkpt lat="45.48867227987783" lon="8.351377691592925"><ele>186.0</ele><time>2026-04-11T15:52:58.999Z</time></trkpt><trkpt lat="45.48853293415514" lon="8.351397558756476"><ele>186.0</ele><time>2026-04-11T15:52:59.999Z</time></trkpt><trkpt lat="45.48839415258769" lon="8.351417393847138"><ele>186.0</ele><time>2026-04-11T15:53:00.999Z</time></trkpt><trkpt lat="45.4882560432463" lon="8.351436098543283"><ele>186.0</ele><time>2026-04-11T15:53:01.999Z</time></trkpt><trkpt lat="45.488118053042086" lon="8.35145880547335"><ele>186.0</ele><time>2026-04-11T15:53:02.999Z</time></trkpt><trkpt lat="45.48798331286237" lon="8.351481250021696"><ele>185.75</ele><time>2026-04-11T15:53:03.999Z</time></trkpt><trkpt lat="45.48785227946383" lon="8.351501273385493"><ele>185.5</ele><time>2026-04-11T15:53:04.999Z</time></trkpt><trkpt lat="45.4877236443761" lon="8.351517678137423"><ele>185.25</ele><time>2026-04-11T15:53:05.999Z</time></trkpt><trkpt lat="45.48760450817605" lon="8.351532558972663"><ele>185.0</ele><time>2026-04-11T15:53:06.999Z</time></trkpt><trkpt lat="45.48749065194909" lon="8.351544608962724"><ele>185.0</ele><time>2026-04-11T15:53:07.999Z</time></trkpt><trkpt lat="45.487388820846206" lon="8.351556787524792"><ele>185.0</ele><time>2026-04-11T15:53:08.999Z</time></trkpt><trkpt lat="45.487298614801354" lon="8.35156840801849"><ele>185.0</ele><time>2026-04-11T15:53:09.999Z</time></trkpt><trkpt lat="45.48721742654783" lon="8.351580628933991"><ele>185.0</ele><time>2026-04-11T15:53:10.999Z</time></trkpt><trkpt lat="45.48714250076858" lon="8.351618329161342"><ele>185.0</ele><time>2026-04-11T15:53:11.999Z</time></trkpt><trkpt lat="45.48707927104345" lon="8.351689019355371"><ele>185.0</ele><time>2026-04-11T15:53:12.999Z</time></trkpt><trkpt lat="45.48702717703403" lon="8.351779364808978"><ele>184.83333333333331</ele><time>2026-04-11T15:53:13.999Z</time></trkpt><trkpt lat="45.486982182971204" lon="8.351878345593416"><ele>184.66666666666666</ele><time>2026-04-11T15:53:14.999Z</time></trkpt><trkpt lat="45.486947581266676" lon="8.351990663026456"><ele>184.5</ele><time>2026-04-11T15:53:15.999Z</time></trkpt><trkpt lat="45.48693579007338" lon="8.352114193472653"><ele>184.33333333333334</ele><time>2026-04-11T15:53:16.999Z</time></trkpt><trkpt lat="45.486935449047465" lon="8.352240865146738"><ele>184.16666666666669</ele><time>2026-04-11T15:53:17.999Z</time></trkpt><trkpt lat="45.48694338688652" lon="8.352374487950824"><ele>184.0</ele><time>2026-04-11T15:53:18.999Z</time></trkpt><trkpt lat="45.48695127581531" lon="8.352515018638954"><ele>184.0</ele><time>2026-04-11T15:53:19.999Z</time></trkpt><trkpt lat="45.486959053555154" lon="8.352661986185991"><ele>184.0</ele><time>2026-04-11T15:53:20.999Z</time></trkpt><trkpt lat="45.48696693757439" lon="8.352813518159955"><ele>184.0</ele><time>2026-04-11T15:53:21.999Z</time></trkpt><trkpt lat="45.486974490618145" lon="8.352969341412786"><ele>184.0</ele><time>2026-04-11T15:53:22.999Z</time></trkpt><trkpt lat="45.4869841957963" lon="8.353129797978905"><ele>184.0</ele><time>2026-04-11T15:53:23.999Z</time></trkpt><trkpt lat="45.486993968380325" lon="8.353293385469842"><ele>184.0</ele><time>2026-04-11T15:53:24.999Z</time></trkpt><trkpt lat="45.48700592206124" lon="8.353462532012195"><ele>184.0</ele><time>2026-04-11T15:53:25.999Z</time></trkpt><trkpt lat="45.487022888301205" lon="8.353633244991004"><ele>184.0</ele><time>2026-04-11T15:53:26.999Z</time></trkpt><trkpt lat="45.487042602439544" lon="8.353804865418148"><ele>184.0</ele><time>2026-04-11T15:53:27.999Z</time></trkpt><trkpt lat="45.48706030161635" lon="8.353976748181685"><ele>184.2</ele><time>2026-04-11T15:53:28.999Z</time></trkpt><trkpt lat="45.48707276167232" lon="8.354149569391604"><ele>184.39999999999998</ele><time>2026-04-11T15:53:29.999Z</time></trkpt><trkpt lat="45.48708213766443" lon="8.35431468338366"><ele>184.6</ele><time>2026-04-11T15:53:30.999Z</time></trkpt><trkpt lat="45.48709029376409" lon="8.354462498987495"><ele>184.8</ele><time>2026-04-11T15:53:32Z</time></trkpt><trkpt lat="45.48709942758668" lon="8.354607506261482"><ele>185.0</ele><time>2026-04-11T15:53:33Z</time></trkpt><trkpt lat="45.48711148399622" lon="8.354753352726066"><ele>185.0</ele><time>2026-04-11T15:53:34Z</time></trkpt><trkpt lat="45.487123490684155" lon="8.354905310964147"><ele>185.0</ele><time>2026-04-11T15:53:35Z</time></trkpt><trkpt lat="45.487134006577286" lon="8.355059363575386"><ele>185.0</ele><time>2026-04-11T15:53:36Z</time></trkpt><trkpt lat="45.48714529385023" lon="8.355219457469648"><ele>185.0</ele><time>2026-04-11T15:53:37Z</time></trkpt><trkpt lat="45.48715683834162" lon="8.355384850309608"><ele>185.0</ele><time>2026-04-11T15:53:38Z</time></trkpt><trkpt lat="45.48716762546966" lon="8.355553570164266"><ele>184.75</ele><time>2026-04-11T15:53:39Z</time></trkpt><trkpt lat="45.48717792513763" lon="8.355723904455601"><ele>184.5</ele><time>2026-04-11T15:53:40Z</time></trkpt><trkpt lat="45.487187307624986" lon="8.355895843311128"><ele>184.25</ele><time>2026-04-11T15:53:41Z</time></trkpt><trkpt lat="45.48719556458882" lon="8.356069162840226"><ele>184.0</ele><time>2026-04-11T15:53:42Z</time></trkpt><trkpt lat="45.48720297405995" lon="8.356239771153406"><ele>183.79999999999998</ele><time>2026-04-11T15:53:43Z</time></trkpt><trkpt lat="45.487210233610256" lon="8.356399271661402"><ele>183.6</ele><time>2026-04-11T15:53:44Z</time></trkpt><trkpt lat="45.48721847678845" lon="8.356546151107883"><ele>183.4</ele><time>2026-04-11T15:53:45Z</time></trkpt><trkpt lat="45.487243803760926" lon="8.356687389108812"><ele>183.2</ele><time>2026-04-11T15:53:46Z</time></trkpt><trkpt lat="45.487291043128295" lon="8.356816976398049"><ele>183.0</ele><time>2026-04-11T15:53:47Z</time></trkpt><trkpt lat="45.48734805639474" lon="8.356945023614312"><ele>183.0</ele><time>2026-04-11T15:53:48Z</time></trkpt><trkpt lat="45.48741007174367" lon="8.357072847207778"><ele>183.0</ele><time>2026-04-11T15:53:49Z</time></trkpt><trkpt lat="45.48747124126873" lon="8.357203094169348"><ele>183.0</ele><time>2026-04-11T15:53:50Z</time></trkpt><trkpt lat="45.487530894471554" lon="8.35733014639024"><ele>183.0</ele><time>2026-04-11T15:53:51Z</time></trkpt><trkpt lat="45.48758710210694" lon="8.357450168807425"><ele>183.0</ele><time>2026-04-11T15:53:52Z</time></trkpt><trkpt lat="45.487636863920464" lon="8.357560030379794"><ele>183.33333333333334</ele><time>2026-04-11T15:53:53Z</time></trkpt><trkpt lat="45.48767908139342" lon="8.357656236976506"><ele>183.66666666666666</ele><time>2026-04-11T15:53:54Z</time></trkpt><trkpt lat="45.48771552509611" lon="8.357740137597569"><ele>184.0</ele><time>2026-04-11T15:53:55Z</time></trkpt><trkpt lat="45.48776193811675" lon="8.357802609595309"><ele>184.33333333333331</ele><time>2026-04-11T15:53:56Z</time></trkpt><trkpt lat="45.48788214138434" lon="8.357811634894265"><ele>184.66666666666666</ele><time>2026-04-11T15:53:58Z</time></trkpt><trkpt lat="45.48799254995281" lon="8.357778934631963"><ele>185.0</ele><time>2026-04-11T15:54:00Z</time></trkpt><trkpt lat="45.48809226773823" lon="8.35775586413112"><ele>185.0</ele><time>2026-04-11T15:54:02Z</time></trkpt><trkpt lat="45.48815605017528" lon="8.35780432212195"><ele>185.0</ele><time>2026-04-11T15:54:04Z</time></trkpt><trkpt lat="45.488154690781194" lon="8.357896137684138"><ele>185.0</ele><time>2026-04-11T15:54:07Z</time></trkpt><trkpt lat="45.48815951796914" lon="8.35800768936606"><ele>185.0</ele><time>2026-04-11T15:54:37.999Z</time></trkpt><trkpt lat="45.48816457785657" lon="8.358137587508041"><ele>185.0</ele><time>2026-04-11T15:54:39.999Z</time></trkpt><trkpt lat="45.488178448944495" lon="8.358309092526177"><ele>185.0</ele><time>2026-04-11T15:54:41.999Z</time></trkpt><trkpt lat="45.48818873907458" lon="8.358415212898363"><ele>184.8</ele><time>2026-04-11T15:54:42.999Z</time></trkpt><trkpt lat="45.48819733557185" lon="8.358532150989475"><ele>184.6</ele><time>2026-04-11T15:54:43.999Z</time></trkpt><trkpt lat="45.48820450294517" lon="8.35865547313932"><ele>184.39999999999998</ele><time>2026-04-11T15:54:44.999Z</time></trkpt><trkpt lat="45.488211040816125" lon="8.35878598959449"><ele>184.2</ele><time>2026-04-11T15:54:45.999Z</time></trkpt><trkpt lat="45.488219139497645" lon="8.358923259042866"><ele>184.0</ele><time>2026-04-11T15:54:46.999Z</time></trkpt><trkpt lat="45.4882288627964" lon="8.359066247298482"><ele>184.0</ele><time>2026-04-11T15:54:47.999Z</time></trkpt><trkpt lat="45.48823862190992" lon="8.359213370359443"><ele>184.0</ele><time>2026-04-11T15:54:48.999Z</time></trkpt><trkpt lat="45.488248722905475" lon="8.359360402710292"><ele>184.0</ele><time>2026-04-11T15:54:49.999Z</time></trkpt><trkpt lat="45.48826307813948" lon="8.359509077615039"><ele>184.0</ele><time>2026-04-11T15:54:50.999Z</time></trkpt><trkpt lat="45.48827617312836" lon="8.359661305989526"><ele>184.0</ele><time>2026-04-11T15:54:51.999Z</time></trkpt><trkpt lat="45.48828759238094" lon="8.359816822340695"><ele>184.2</ele><time>2026-04-11T15:54:52.999Z</time></trkpt><trkpt lat="45.488297174034734" lon="8.359972343581891"><ele>184.39999999999998</ele><time>2026-04-11T15:54:53.999Z</time></trkpt><trkpt lat="45.48830568801817" lon="8.360119207170001"><ele>184.6</ele><time>2026-04-11T15:54:54.999Z</time></trkpt><trkpt lat="45.48831348940544" lon="8.360245898047257"><ele>184.8</ele><time>2026-04-11T15:54:55.999Z</time></trkpt><trkpt lat="45.48832111381007" lon="8.36034641281643"><ele>185.0</ele><time>2026-04-11T15:54:56.999Z</time></trkpt><trkpt lat="45.4883814926796" lon="8.360462132518185"><ele>185.0</ele><time>2026-04-11T15:54:58.999Z</time></trkpt><trkpt lat="45.48850068024436" lon="8.36045053291112"><ele>185.0</ele><time>2026-04-11T15:55:00.999Z</time></trkpt><trkpt lat="45.48856959216206" lon="8.360432202269727"><ele>185.0</ele><time>2026-04-11T15:55:01.999Z</time></trkpt><trkpt lat="45.48864641610431" lon="8.360418375683695"><ele>185.0</ele><time>2026-04-11T15:55:02.999Z</time></trkpt><trkpt lat="45.48873246394595" lon="8.360411789926532"><ele>185.0</ele><time>2026-04-11T15:55:03.999Z</time></trkpt><trkpt lat="45.488825406367404" lon="8.360403342579952"><ele>185.0</ele><time>2026-04-11T15:55:04.999Z</time></trkpt><trkpt lat="45.48892178728244" lon="8.360395687671268"><ele>185.0</ele><time>2026-04-11T15:55:05.999Z</time></trkpt><trkpt lat="45.48902489575226" lon="8.36038572344246"><ele>185.0</ele><time>2026-04-11T15:55:06.999Z</time></trkpt><trkpt lat="45.4891341328244" lon="8.360377339152027"><ele>185.0</ele><time>2026-04-11T15:55:07.999Z</time></trkpt><trkpt lat="45.48924643123079" lon="8.360368779750576"><ele>185.0</ele><time>2026-04-11T15:55:08.999Z</time></trkpt><trkpt lat="45.48935967584674" lon="8.360358713737803"><ele>185.0</ele><time>2026-04-11T15:55:09.999Z</time></trkpt><trkpt lat="45.489473532786455" lon="8.360346211057738"><ele>185.0</ele><time>2026-04-11T15:55:10.999Z</time></trkpt><trkpt lat="45.489587212409454" lon="8.360334593598909"><ele>185.0</ele><time>2026-04-11T15:55:11.999Z</time></trkpt><trkpt lat="45.48969851835349" lon="8.360324959016236"><ele>185.0</ele><time>2026-04-11T15:55:12.999Z</time></trkpt><trkpt lat="45.48980437628084" lon="8.36031489284368"><ele>185.0</ele><time>2026-04-11T15:55:13.999Z</time></trkpt><trkpt lat="45.489893276366416" lon="8.360304411753454"><ele>185.0</ele><time>2026-04-11T15:55:14.999Z</time></trkpt><trkpt lat="45.4899649962063" lon="8.360305851674978"><ele>185.0</ele><time>2026-04-11T15:55:15.999Z</time></trkpt><trkpt lat="45.490040101342004" lon="8.36039582787516"><ele>185.0</ele><time>2026-04-11T15:55:17.999Z</time></trkpt><trkpt lat="45.49002704241852" lon="8.360536617514454"><ele>185.0</ele><time>2026-04-11T15:55:19.999Z</time></trkpt><trkpt lat="45.490008001415674" lon="8.36069158875422"><ele>185.0</ele><time>2026-04-11T15:55:21.999Z</time></trkpt><trkpt lat="45.48999672370693" lon="8.360852402571101"><ele>185.0</ele><time>2026-04-11T15:55:23.999Z</time></trkpt><trkpt lat="45.48999272867641" lon="8.36094434385532"><ele>185.0</ele><time>2026-04-11T15:55:24.999Z</time></trkpt><trkpt lat="45.489987698005294" lon="8.361046828579333"><ele>185.0</ele><time>2026-04-11T15:55:25.999Z</time></trkpt><trkpt lat="45.48998090112326" lon="8.361164409226296"><ele>185.0</ele><time>2026-04-11T15:55:26.999Z</time></trkpt><trkpt lat="45.48997249410773" lon="8.361293486658033"><ele>185.0</ele><time>2026-04-11T15:55:27.999Z</time></trkpt><trkpt lat="45.48996677486423" lon="8.361429629649496"><ele>185.0</ele><time>2026-04-11T15:55:28.999Z</time></trkpt><trkpt lat="45.48996171298873" lon="8.361574385447314"><ele>185.0</ele><time>2026-04-11T15:55:29.999Z</time></trkpt><trkpt lat="45.48995517162896" lon="8.361724378901192"><ele>185.0</ele><time>2026-04-11T15:55:30.999Z</time></trkpt><trkpt lat="45.48994977186931" lon="8.361880418325052"><ele>185.0</ele><time>2026-04-11T15:55:31.999Z</time></trkpt><trkpt lat="45.48994495841388" lon="8.362038290587511"><ele>185.0</ele><time>2026-04-11T15:55:32.999Z</time></trkpt><trkpt lat="45.489928232556814" lon="8.362195183525348"><ele>185.0</ele><time>2026-04-11T15:55:33.999Z</time></trkpt><trkpt lat="45.48991429951787" lon="8.362348647360884"><ele>185.0</ele><time>2026-04-11T15:55:34.999Z</time></trkpt><trkpt lat="45.48990305665593" lon="8.362496952351298"><ele>185.0</ele><time>2026-04-11T15:55:35.999Z</time></trkpt><trkpt lat="45.489902930072525" lon="8.36264200456977"><ele>185.0</ele><time>2026-04-11T15:55:36.999Z</time></trkpt><trkpt lat="45.48992793693098" lon="8.362782404942386"><ele>185.0</ele><time>2026-04-11T15:55:38Z</time></trkpt><trkpt lat="45.489972873898985" lon="8.362913719583304"><ele>185.0</ele><time>2026-04-11T15:55:39Z</time></trkpt><trkpt lat="45.490035007793644" lon="8.363037462149869"><ele>185.0</ele><time>2026-04-11T15:55:40Z</time></trkpt><trkpt lat="45.49010194883349" lon="8.363164449362664"><ele>185.25</ele><time>2026-04-11T15:55:41Z</time></trkpt><trkpt lat="45.49017503606395" lon="8.363290847917044"><ele>185.5</ele><time>2026-04-11T15:55:42Z</time></trkpt><trkpt lat="45.49024898383754" lon="8.363417606322775"><ele>185.75</ele><time>2026-04-11T15:55:43Z</time></trkpt><trkpt lat="45.490324309521455" lon="8.363541315548245"><ele>186.0</ele><time>2026-04-11T15:55:44Z</time></trkpt><trkpt lat="45.490398879280754" lon="8.363668250398533"><ele>186.0</ele><time>2026-04-11T15:55:45Z</time></trkpt><trkpt lat="45.49047608416966" lon="8.363794535052323"><ele>186.0</ele><time>2026-04-11T15:55:46Z</time></trkpt><trkpt lat="45.49055551136454" lon="8.363918408805075"><ele>186.0</ele><time>2026-04-11T15:55:47Z</time></trkpt><trkpt lat="45.49063192742517" lon="8.364038090449087"><ele>186.0</ele><time>2026-04-11T15:55:48Z</time></trkpt><trkpt lat="45.49070383303406" lon="8.364151233812477"><ele>186.0</ele><time>2026-04-11T15:55:49Z</time></trkpt><trkpt lat="45.49077627070065" lon="8.364259543332409"><ele>186.0</ele><time>2026-04-11T15:55:50Z</time></trkpt><trkpt lat="45.49085383100237" lon="8.364359879009815"><ele>186.0</ele><time>2026-04-11T15:55:51Z</time></trkpt><trkpt lat="45.490938846922354" lon="8.364450618800618"><ele>186.0</ele><time>2026-04-11T15:55:52Z</time></trkpt><trkpt lat="45.49103175805474" lon="8.364528153573822"><ele>186.0</ele><time>2026-04-11T15:55:53Z</time></trkpt><trkpt lat="45.49112852403701" lon="8.364602702865744"><ele>186.0</ele><time>2026-04-11T15:55:54Z</time></trkpt><trkpt lat="45.491227063977895" lon="8.364675990285315"><ele>186.0</ele><time>2026-04-11T15:55:55Z</time></trkpt><trkpt lat="45.49133069875131" lon="8.364745385184643"><ele>186.0</ele><time>2026-04-11T15:55:56Z</time></trkpt><trkpt lat="45.49143729714318" lon="8.364809122891542"><ele>186.0</ele><time>2026-04-11T15:55:57Z</time></trkpt><trkpt lat="45.491545278478505" lon="8.36486483542213"><ele>186.0</ele><time>2026-04-11T15:55:58Z</time></trkpt><trkpt lat="45.49165072442818" lon="8.364913691722698"><ele>186.0</ele><time>2026-04-11T15:55:59Z</time></trkpt><trkpt lat="45.491749436563246" lon="8.364965116043539"><ele>186.0</ele><time>2026-04-11T15:56:00Z</time></trkpt><trkpt lat="45.491837845636965" lon="8.36503340170758"><ele>186.0</ele><time>2026-04-11T15:56:01Z</time></trkpt><trkpt lat="45.49190792342706" lon="8.365125689268748"><ele>186.0</ele><time>2026-04-11T15:56:02Z</time></trkpt><trkpt lat="45.49196101774616" lon="8.365231839432099"><ele>186.0</ele><time>2026-04-11T15:56:03Z</time></trkpt><trkpt lat="45.491997019642284" lon="8.36535098957966"><ele>186.0</ele><time>2026-04-11T15:56:04Z</time></trkpt><trkpt lat="45.49201764159455" lon="8.36547962049834"><ele>186.0</ele><time>2026-04-11T15:56:05Z</time></trkpt><trkpt lat="45.49202306880566" lon="8.365615538266738"><ele>186.0</ele><time>2026-04-11T15:56:06Z</time></trkpt><trkpt lat="45.492030916243124" lon="8.365752949732823"><ele>186.0</ele><time>2026-04-11T15:56:07Z</time></trkpt><trkpt lat="45.492048184554214" lon="8.365893619798332"><ele>186.20000000000002</ele><time>2026-04-11T15:56:08Z</time></trkpt><trkpt lat="45.49208003302867" lon="8.366033425574017"><ele>186.4</ele><time>2026-04-11T15:56:09Z</time></trkpt><trkpt lat="45.492118159935345" lon="8.36617263529113"><ele>186.6</ele><time>2026-04-11T15:56:10Z</time></trkpt><trkpt lat="45.49215638568227" lon="8.366313332245253"><ele>186.8</ele><time>2026-04-11T15:56:11Z</time></trkpt><trkpt lat="45.49219057596868" lon="8.366459854901588"><ele>187.0</ele><time>2026-04-11T15:56:12Z</time></trkpt><trkpt lat="45.49221875084259" lon="8.366609575439474"><ele>187.0</ele><time>2026-04-11T15:56:13Z</time></trkpt><trkpt lat="45.49224132299739" lon="8.366761163524398"><ele>187.0</ele><time>2026-04-11T15:56:14Z</time></trkpt><trkpt lat="45.492259269195074" lon="8.3669145699043"><ele>187.0</ele><time>2026-04-11T15:56:15Z</time></trkpt><trkpt lat="45.49226780336082" lon="8.36707306535191"><ele>187.0</ele><time>2026-04-11T15:56:16Z</time></trkpt><trkpt lat="45.49226823333979" lon="8.367233095692649"><ele>187.0</ele><time>2026-04-11T15:56:17Z</time></trkpt><trkpt lat="45.49226565194263" lon="8.367393560198263"><ele>187.0</ele><time>2026-04-11T15:56:18Z</time></trkpt><trkpt lat="45.4922636126911" lon="8.367552963627624"><ele>187.0</ele><time>2026-04-11T15:56:19Z</time></trkpt><trkpt lat="45.492263349849495" lon="8.367712926135182"><ele>187.0</ele><time>2026-04-11T15:56:20Z</time></trkpt><trkpt lat="45.49226568867731" lon="8.367873664253558"><ele>187.0</ele><time>2026-04-11T15:56:21Z</time></trkpt><trkpt lat="45.492270334890236" lon="8.36803440565105"><ele>187.0</ele><time>2026-04-11T15:56:22Z</time></trkpt><trkpt lat="45.49227480859843" lon="8.368195656669505"><ele>187.0</ele><time>2026-04-11T15:56:23Z</time></trkpt><trkpt lat="45.49227965046806" lon="8.368355297204337"><ele>187.0</ele><time>2026-04-11T15:56:24Z</time></trkpt><trkpt lat="45.492283649795056" lon="8.368513361565208"><ele>187.0</ele><time>2026-04-11T15:56:25Z</time></trkpt><trkpt lat="45.49226791953643" lon="8.368670977986769"><ele>187.0</ele><time>2026-04-11T15:56:26Z</time></trkpt><trkpt lat="45.49226269843195" lon="8.368826647942253"><ele>187.0</ele><time>2026-04-11T15:56:27Z</time></trkpt><trkpt lat="45.49226201386489" lon="8.368977545297371"><ele>187.0</ele><time>2026-04-11T15:56:28Z</time></trkpt><trkpt lat="45.49220740487879" lon="8.369099777770625"><ele>187.0</ele><time>2026-04-11T15:56:29Z</time></trkpt><trkpt lat="45.49216904363719" lon="8.369238080825093"><ele>187.0</ele><time>2026-04-11T15:56:30Z</time></trkpt><trkpt lat="45.492154262687826" lon="8.36938331924784"><ele>187.0</ele><time>2026-04-11T15:56:31Z</time></trkpt><trkpt lat="45.4921381559255" lon="8.369527694521501"><ele>187.0</ele><time>2026-04-11T15:56:32Z</time></trkpt><trkpt lat="45.49212773432259" lon="8.369675372091653"><ele>187.39999999999998</ele><time>2026-04-11T15:56:33Z</time></trkpt><trkpt lat="45.49210298865122" lon="8.369822544884276"><ele>187.79999999999998</ele><time>2026-04-11T15:56:34Z</time></trkpt><trkpt lat="45.492096600601926" lon="8.369982688468056"><ele>188.2</ele><time>2026-04-11T15:56:35Z</time></trkpt><trkpt lat="45.49209434552839" lon="8.370135397141533"><ele>188.6</ele><time>2026-04-11T15:56:36Z</time></trkpt><trkpt lat="45.492093215689394" lon="8.370290957918538"><ele>189.0</ele><time>2026-04-11T15:56:37Z</time></trkpt><trkpt lat="45.49208844382648" lon="8.370448109257119"><ele>189.0</ele><time>2026-04-11T15:56:38Z</time></trkpt><trkpt lat="45.49209807106728" lon="8.370602480604266"><ele>189.0</ele><time>2026-04-11T15:56:39Z</time></trkpt><trkpt lat="45.49208251663983" lon="8.370753263535988"><ele>189.0</ele><time>2026-04-11T15:56:40Z</time></trkpt><trkpt lat="45.49205805465361" lon="8.370905740917816"><ele>189.0</ele><time>2026-04-11T15:56:40.999Z</time></trkpt><trkpt lat="45.492006229946014" lon="8.371035559407614"><ele>189.0</ele><time>2026-04-11T15:56:41.999Z</time></trkpt><trkpt lat="45.49197734697791" lon="8.371171089109463"><ele>188.79999999999998</ele><time>2026-04-11T15:56:42.999Z</time></trkpt><trkpt lat="45.491966663841445" lon="8.371310656414938"><ele>188.6</ele><time>2026-04-11T15:56:43.999Z</time></trkpt><trkpt lat="45.49195466990391" lon="8.371442948037561"><ele>188.4</ele><time>2026-04-11T15:56:44.999Z</time></trkpt><trkpt lat="45.49195705411332" lon="8.371580626450376"><ele>188.2</ele><time>2026-04-11T15:56:45.999Z</time></trkpt><trkpt lat="45.49197837627148" lon="8.371713417387868"><ele>188.0</ele><time>2026-04-11T15:56:46.999Z</time></trkpt><trkpt lat="45.49202268374547" lon="8.37183681824048"><ele>187.60000000000002</ele><time>2026-04-11T15:56:47.999Z</time></trkpt><trkpt lat="45.49207409973146" lon="8.37195052645847"><ele>187.20000000000002</ele><time>2026-04-11T15:56:48.999Z</time></trkpt><trkpt lat="45.49213405030698" lon="8.372075234226314"><ele>186.8</ele><time>2026-04-11T15:56:49.999Z</time></trkpt><trkpt lat="45.49218911905447" lon="8.372210615574469"><ele>186.4</ele><time>2026-04-11T15:56:50.999Z</time></trkpt><trkpt lat="45.49222779789478" lon="8.372359466261953"><ele>186.0</ele><time>2026-04-11T15:56:51.999Z</time></trkpt><trkpt lat="45.49227101430394" lon="8.372508915347835"><ele>184.75</ele><time>2026-04-11T15:56:52.999Z</time></trkpt><trkpt lat="45.49232051613071" lon="8.372657780635775"><ele>183.5</ele><time>2026-04-11T15:56:53.999Z</time></trkpt><trkpt lat="45.49237640014722" lon="8.37280462854337"><ele>182.25</ele><time>2026-04-11T15:56:54.999Z</time></trkpt><trkpt lat="45.492433235155914" lon="8.372949502329563"><ele>181.0</ele><time>2026-04-11T15:56:55.999Z</time></trkpt><trkpt lat="45.49249661634246" lon="8.373086824553514"><ele>180.8</ele><time>2026-04-11T15:56:56.999Z</time></trkpt><trkpt lat="45.49255706103126" lon="8.37322075319308"><ele>180.60000000000002</ele><time>2026-04-11T15:56:57.999Z</time></trkpt><trkpt lat="45.492607212205826" lon="8.373350590964701"><ele>180.4</ele><time>2026-04-11T15:56:58.999Z</time></trkpt><trkpt lat="45.49265571310707" lon="8.373475246672186"><ele>180.2</ele><time>2026-04-11T15:56:59.999Z</time></trkpt><trkpt lat="45.49269682654079" lon="8.373597978225886"><ele>180.0</ele><time>2026-04-11T15:57:00.999Z</time></trkpt><trkpt lat="45.49275809929245" lon="8.373704095406469"><ele>180.0</ele><time>2026-04-11T15:57:01.999Z</time></trkpt><trkpt lat="45.4927881133324" lon="8.373838509114464"><ele>180.0</ele><time>2026-04-11T15:57:02.999Z</time></trkpt><trkpt lat="45.49281079548683" lon="8.373983596181555"><ele>180.0</ele><time>2026-04-11T15:57:03.999Z</time></trkpt><trkpt lat="45.49282809741758" lon="8.37413623891976"><ele>180.0</ele><time>2026-04-11T15:57:04.999Z</time></trkpt><trkpt lat="45.492845419205885" lon="8.374290923367555"><ele>180.0</ele><time>2026-04-11T15:57:05.999Z</time></trkpt><trkpt lat="45.4928626672779" lon="8.374444949552982"><ele>180.0</ele><time>2026-04-11T15:57:06.999Z</time></trkpt><trkpt lat="45.492880593935396" lon="8.37459908627752"><ele>180.0</ele><time>2026-04-11T15:57:07.999Z</time></trkpt><trkpt lat="45.492898681021586" lon="8.37475358231087"><ele>180.0</ele><time>2026-04-11T15:57:08.999Z</time></trkpt><trkpt lat="45.49293321127866" lon="8.374900378495969"><ele>180.0</ele><time>2026-04-11T15:57:09.999Z</time></trkpt><trkpt lat="45.49295141568814" lon="8.375043451383705"><ele>180.0</ele><time>2026-04-11T15:57:10.999Z</time></trkpt><trkpt lat="45.49298726983534" lon="8.375176468862476"><ele>180.33333333333334</ele><time>2026-04-11T15:57:11.999Z</time></trkpt><trkpt lat="45.49302123560557" lon="8.375305772488339"><ele>180.66666666666666</ele><time>2026-04-11T15:57:12.999Z</time></trkpt><trkpt lat="45.493067078569524" lon="8.375414704238324"><ele>181.0</ele><time>2026-04-11T15:57:13.999Z</time></trkpt><trkpt lat="45.493133314434765" lon="8.375491801900372"><ele>181.33333333333331</ele><time>2026-04-11T15:57:14.999Z</time></trkpt><trkpt lat="45.493213670031565" lon="8.375538862172473"><ele>181.66666666666666</ele><time>2026-04-11T15:57:15.999Z</time></trkpt><trkpt lat="45.49329695775175" lon="8.375568420589154"><ele>182.0</ele><time>2026-04-11T15:57:16.999Z</time></trkpt><trkpt lat="45.49338203954343" lon="8.37559499546375"><ele>182.0</ele><time>2026-04-11T15:57:17.999Z</time></trkpt><trkpt lat="45.493469863612" lon="8.375617641469125"><ele>182.0</ele><time>2026-04-11T15:57:18.999Z</time></trkpt><trkpt lat="45.49355297074964" lon="8.375635901026515"><ele>182.0</ele><time>2026-04-11T15:57:19.999Z</time></trkpt><trkpt lat="45.49362061178417" lon="8.375653764576231"><ele>182.0</ele><time>2026-04-11T15:57:20.999Z</time></trkpt><trkpt lat="45.49371449949588" lon="8.375761336791198"><ele>182.0</ele><time>2026-04-11T15:57:22.999Z</time></trkpt><trkpt lat="45.49371387262984" lon="8.375851553029502"><ele>182.0</ele><time>2026-04-11T15:57:23.999Z</time></trkpt><trkpt lat="45.49369957520938" lon="8.37602294638168"><ele>182.0</ele><time>2026-04-11T15:57:25.999Z</time></trkpt><trkpt lat="45.49368043856429" lon="8.376116889148374"><ele>182.0</ele><time>2026-04-11T15:57:26.999Z</time></trkpt><trkpt lat="45.49366163141671" lon="8.376216982284468"><ele>182.0</ele><time>2026-04-11T15:57:27.999Z</time></trkpt><trkpt lat="45.493666244041144" lon="8.37632893636629"><ele>182.0</ele><time>2026-04-11T15:57:28.999Z</time></trkpt><trkpt lat="45.49366423526352" lon="8.376435459190748"><ele>182.0</ele><time>2026-04-11T15:57:29.999Z</time></trkpt><trkpt lat="45.493685914279226" lon="8.376540266437395"><ele>182.0</ele><time>2026-04-11T15:57:30.999Z</time></trkpt><trkpt lat="45.49371156572735" lon="8.376640658316221"><ele>182.0</ele><time>2026-04-11T15:57:31.999Z</time></trkpt><trkpt lat="45.49373152867116" lon="8.376745122027698"><ele>182.0</ele><time>2026-04-11T15:57:32.999Z</time></trkpt><trkpt lat="45.49374880097243" lon="8.37685239633692"><ele>182.0</ele><time>2026-04-11T15:57:33.999Z</time></trkpt><trkpt lat="45.49376197516381" lon="8.376961554653995"><ele>182.0</ele><time>2026-04-11T15:57:34.999Z</time></trkpt><trkpt lat="45.49374430583521" lon="8.377071814527813"><ele>182.0</ele><time>2026-04-11T15:57:35.999Z</time></trkpt><trkpt lat="45.49374178184999" lon="8.377183785255289"><ele>182.0</ele><time>2026-04-11T15:57:36.999Z</time></trkpt><trkpt lat="45.49373904846685" lon="8.377296804560787"><ele>182.0</ele><time>2026-04-11T15:57:37.999Z</time></trkpt><trkpt lat="45.49375050447809" lon="8.377409049717894"><ele>182.0</ele><time>2026-04-11T15:57:38.999Z</time></trkpt><trkpt lat="45.49374446585738" lon="8.377520774276686"><ele>182.0</ele><time>2026-04-11T15:57:39.999Z</time></trkpt><trkpt lat="45.49373917115942" lon="8.377629503995244"><ele>182.0</ele><time>2026-04-11T15:57:40.999Z</time></trkpt><trkpt lat="45.49373078782304" lon="8.377731207884775"><ele>182.0</ele><time>2026-04-11T15:57:41.999Z</time></trkpt><trkpt lat="45.49371621290666" lon="8.377865212350827"><ele>182.0</ele><time>2026-04-11T15:57:44Z</time></trkpt><trkpt lat="45.49380598861143" lon="8.378073306030979"><ele>182.16666666666666</ele><time>2026-04-11T15:58:18Z</time></trkpt><trkpt lat="45.493860574037406" lon="8.378138694718785"><ele>182.33333333333331</ele><time>2026-04-11T15:58:19Z</time></trkpt><trkpt lat="45.49392302777062" lon="8.378194545948366"><ele>182.5</ele><time>2026-04-11T15:58:20Z</time></trkpt><trkpt lat="45.49399496104353" lon="8.378247293193967"><ele>182.66666666666666</ele><time>2026-04-11T15:58:21Z</time></trkpt><trkpt lat="45.49407780337114" lon="8.378292866225074"><ele>182.83333333333334</ele><time>2026-04-11T15:58:22Z</time></trkpt><trkpt lat="45.49416548784874" lon="8.378338572669712"><ele>183.0</ele><time>2026-04-11T15:58:23Z</time></trkpt><trkpt lat="45.49425655083956" lon="8.37838783545097"><ele>183.0</ele><time>2026-04-11T15:58:24Z</time></trkpt><trkpt lat="45.49435024635386" lon="8.378447782169639"><ele>183.0</ele><time>2026-04-11T15:58:25Z</time></trkpt><trkpt lat="45.494446105338795" lon="8.37850866865714"><ele>183.0</ele><time>2026-04-11T15:58:26Z</time></trkpt><trkpt lat="45.494540649405266" lon="8.378569663054378"><ele>183.0</ele><time>2026-04-11T15:58:27Z</time></trkpt><trkpt lat="45.49463454031512" lon="8.378627280335618"><ele>183.0</ele><time>2026-04-11T15:58:28Z</time></trkpt><trkpt lat="45.494722206927" lon="8.378686889114237"><ele>183.0</ele><time>2026-04-11T15:58:29Z</time></trkpt><trkpt lat="45.49479304467278" lon="8.378749441168202"><ele>183.0</ele><time>2026-04-11T15:58:30Z</time></trkpt><trkpt lat="45.49484514884372" lon="8.378817780933534"><ele>183.0</ele><time>2026-04-11T15:58:31Z</time></trkpt><trkpt lat="45.49487663226573" lon="8.37890595984334"><ele>183.0</ele><time>2026-04-11T15:58:32Z</time></trkpt><trkpt lat="45.494872504842085" lon="8.379021650889277"><ele>183.0</ele><time>2026-04-11T15:58:33Z</time></trkpt><trkpt lat="45.494863525396575" lon="8.379146697284343"><ele>183.0</ele><time>2026-04-11T15:58:34Z</time></trkpt><trkpt lat="45.494873173129015" lon="8.379285903351777"><ele>183.2</ele><time>2026-04-11T15:58:35Z</time></trkpt><trkpt lat="45.49486234775927" lon="8.379427347051053"><ele>183.4</ele><time>2026-04-11T15:58:36Z</time></trkpt><trkpt lat="45.494856137561726" lon="8.379572961348225"><ele>183.6</ele><time>2026-04-11T15:58:37Z</time></trkpt><trkpt lat="45.49485259007975" lon="8.379726685662307"><ele>183.79999999999998</ele><time>2026-04-11T15:58:38Z</time></trkpt><trkpt lat="45.49484173093611" lon="8.379881609395733"><ele>184.0</ele><time>2026-04-11T15:58:39Z</time></trkpt><trkpt lat="45.494841634828575" lon="8.3800355644768"><ele>184.0</ele><time>2026-04-11T15:58:40Z</time></trkpt><trkpt lat="45.494860305320614" lon="8.380178443723185"><ele>184.0</ele><time>2026-04-11T15:58:41Z</time></trkpt><trkpt lat="45.494865614761665" lon="8.3803198153342"><ele>184.0</ele><time>2026-04-11T15:58:42Z</time></trkpt><trkpt lat="45.494892530885544" lon="8.38044766095071"><ele>184.0</ele><time>2026-04-11T15:58:43Z</time></trkpt><trkpt lat="45.49491998808765" lon="8.380570168793716"><ele>184.0</ele><time>2026-04-11T15:58:44Z</time></trkpt><trkpt lat="45.49495936073881" lon="8.380667165147688"><ele>184.0</ele><time>2026-04-11T15:58:45Z</time></trkpt><trkpt lat="45.49499502023138" lon="8.380745234462546"><ele>184.0</ele><time>2026-04-11T15:58:45.999Z</time></trkpt><trkpt lat="45.495044694627694" lon="8.380822651540836"><ele>184.0</ele><time>2026-04-11T15:58:47.999Z</time></trkpt><trkpt lat="45.495018818587106" lon="8.380964550308788"><ele>184.0</ele><time>2026-04-11T15:58:49.999Z</time></trkpt><trkpt lat="45.494961086674685" lon="8.381140399277912"><ele>184.0</ele><time>2026-04-11T15:58:51.999Z</time></trkpt><trkpt lat="45.494934325207055" lon="8.381257483313181"><ele>184.0</ele><time>2026-04-11T15:58:52.999Z</time></trkpt><trkpt lat="45.49490913606455" lon="8.381390430946919"><ele>184.0</ele><time>2026-04-11T15:58:53.999Z</time></trkpt><trkpt lat="45.494882796694505" lon="8.381537566911442"><ele>184.0</ele><time>2026-04-11T15:58:54.999Z</time></trkpt><trkpt lat="45.49485452421383" lon="8.381691433509339"><ele>184.0</ele><time>2026-04-11T15:58:55.999Z</time></trkpt><trkpt lat="45.494826197683466" lon="8.38185063912528"><ele>184.0</ele><time>2026-04-11T15:58:56.999Z</time></trkpt><trkpt lat="45.494795099253714" lon="8.382014270605653"><ele>184.0</ele><time>2026-04-11T15:58:57.999Z</time></trkpt><trkpt lat="45.49476424664016" lon="8.382180947176447"><ele>184.0</ele><time>2026-04-11T15:58:58.999Z</time></trkpt><trkpt lat="45.49473239071501" lon="8.38234653735072"><ele>184.0</ele><time>2026-04-11T15:58:59.999Z</time></trkpt><trkpt lat="45.49470587546054" lon="8.382512649503283"><ele>184.0</ele><time>2026-04-11T15:59:00.999Z</time></trkpt><trkpt lat="45.49469099616763" lon="8.382683096893627"><ele>184.0</ele><time>2026-04-11T15:59:01.999Z</time></trkpt><trkpt lat="45.494691852111764" lon="8.382854513965654"><ele>184.0</ele><time>2026-04-11T15:59:02.999Z</time></trkpt><trkpt lat="45.494704968409394" lon="8.383024917959707"><ele>184.0</ele><time>2026-04-11T15:59:03.999Z</time></trkpt><trkpt lat="45.49472274761226" lon="8.383196501751243"><ele>184.0</ele><time>2026-04-11T15:59:04.999Z</time></trkpt><trkpt lat="45.49474411419067" lon="8.383367534191486"><ele>184.0</ele><time>2026-04-11T15:59:05.999Z</time></trkpt><trkpt lat="45.49476667214896" lon="8.383537723710429"><ele>184.0</ele><time>2026-04-11T15:59:06.999Z</time></trkpt><trkpt lat="45.49478895941194" lon="8.383709846392538"><ele>184.0</ele><time>2026-04-11T15:59:07.999Z</time></trkpt><trkpt lat="45.494813137594804" lon="8.383883057375776"><ele>184.0</ele><time>2026-04-11T15:59:08.999Z</time></trkpt><trkpt lat="45.49483904936213" lon="8.384054890959316"><ele>184.0</ele><time>2026-04-11T15:59:09.999Z</time></trkpt><trkpt lat="45.49486700371334" lon="8.384225831385207"><ele>184.0</ele><time>2026-04-11T15:59:10.999Z</time></trkpt><trkpt lat="45.4948946222667" lon="8.384395431520687"><ele>184.0</ele><time>2026-04-11T15:59:11.999Z</time></trkpt><trkpt lat="45.49492222137941" lon="8.384565307511552"><ele>184.0</ele><time>2026-04-11T15:59:12.999Z</time></trkpt><trkpt lat="45.494949160739395" lon="8.384734123774239"><ele>183.75</ele><time>2026-04-11T15:59:13.999Z</time></trkpt><trkpt lat="45.494975139013036" lon="8.384903738077863"><ele>183.5</ele><time>2026-04-11T15:59:14.999Z</time></trkpt><trkpt lat="45.4950018135136" lon="8.385072974540469"><ele>183.25</ele><time>2026-04-11T15:59:15.999Z</time></trkpt><trkpt lat="45.495027404870335" lon="8.385236073794067"><ele>183.0</ele><time>2026-04-11T15:59:16.999Z</time></trkpt><trkpt lat="45.49505381472129" lon="8.385390038875551"><ele>183.4</ele><time>2026-04-11T15:59:17.999Z</time></trkpt><trkpt lat="45.49507580026016" lon="8.38553928357895"><ele>183.8</ele><time>2026-04-11T15:59:18.999Z</time></trkpt><trkpt lat="45.49508694384538" lon="8.385692427842287"><ele>184.2</ele><time>2026-04-11T15:59:19.999Z</time></trkpt><trkpt lat="45.49508011172776" lon="8.385847377436253"><ele>184.6</ele><time>2026-04-11T15:59:20.999Z</time></trkpt><trkpt lat="45.49506581514377" lon="8.386002002075857"><ele>185.0</ele><time>2026-04-11T15:59:21.999Z</time></trkpt><trkpt lat="45.49505114252339" lon="8.386157976517024"><ele>185.0</ele><time>2026-04-11T15:59:22.999Z</time></trkpt><trkpt lat="45.495037743006264" lon="8.386314833023537"><ele>185.0</ele><time>2026-04-11T15:59:23.999Z</time></trkpt><trkpt lat="45.49502812580387" lon="8.386472820002156"><ele>185.0</ele><time>2026-04-11T15:59:24.999Z</time></trkpt><trkpt lat="45.495022525908645" lon="8.386630268097678"><ele>185.0</ele><time>2026-04-11T15:59:25.999Z</time></trkpt><trkpt lat="45.495023457917604" lon="8.386789277807472"><ele>185.0</ele><time>2026-04-11T15:59:26.999Z</time></trkpt><trkpt lat="45.49503654385225" lon="8.386949541351619"><ele>185.2</ele><time>2026-04-11T15:59:27.999Z</time></trkpt><trkpt lat="45.495052756877335" lon="8.387110355178866"><ele>185.4</ele><time>2026-04-11T15:59:28.999Z</time></trkpt><trkpt lat="45.495069583041186" lon="8.387268939292559"><ele>185.60000000000002</ele><time>2026-04-11T15:59:29.999Z</time></trkpt><trkpt lat="45.49508467989894" lon="8.38742746673661"><ele>185.8</ele><time>2026-04-11T15:59:30.999Z</time></trkpt><trkpt lat="45.49510025418958" lon="8.387581398872813"><ele>186.0</ele><time>2026-04-11T15:59:31.999Z</time></trkpt><trkpt lat="45.495114279400866" lon="8.387715814309516"><ele>186.16666666666666</ele><time>2026-04-11T15:59:32.999Z</time></trkpt><trkpt lat="45.49512350561498" lon="8.387835670357381"><ele>186.33333333333334</ele><time>2026-04-11T15:59:33.999Z</time></trkpt><trkpt lat="45.49508959595567" lon="8.38793533650328"><ele>186.5</ele><time>2026-04-11T15:59:34.999Z</time></trkpt><trkpt lat="45.49508397512252" lon="8.388049319183152"><ele>186.66666666666669</ele><time>2026-04-11T15:59:35.999Z</time></trkpt><trkpt lat="45.49508909746276" lon="8.388166952046134"><ele>186.83333333333334</ele><time>2026-04-11T15:59:36.999Z</time></trkpt><trkpt lat="45.49512310559262" lon="8.388280956473261"><ele>187.0</ele><time>2026-04-11T15:59:37.999Z</time></trkpt><trkpt lat="45.495168182033396" lon="8.388388058617345"><ele>187.16666666666669</ele><time>2026-04-11T15:59:38.999Z</time></trkpt><trkpt lat="45.49522413117898" lon="8.388493069288323"><ele>187.33333333333334</ele><time>2026-04-11T15:59:39.999Z</time></trkpt><trkpt lat="45.495279846305365" lon="8.388601355338265"><ele>187.5</ele><time>2026-04-11T15:59:40.999Z</time></trkpt><trkpt lat="45.49534031496412" lon="8.388704550148281"><ele>187.66666666666666</ele><time>2026-04-11T15:59:41.999Z</time></trkpt><trkpt lat="45.49539406810768" lon="8.388799441029297"><ele>187.83333333333331</ele><time>2026-04-11T15:59:42.999Z</time></trkpt><trkpt lat="45.495424357936045" lon="8.388893219766162"><ele>188.0</ele><time>2026-04-11T15:59:43.999Z</time></trkpt><trkpt lat="45.49548125838444" lon="8.389009807139686"><ele>188.0</ele><time>2026-04-11T15:59:45.999Z</time></trkpt><trkpt lat="45.49549406937121" lon="8.389106234739689"><ele>188.0</ele><time>2026-04-11T15:59:50Z</time></trkpt><trkpt lat="45.49549015795769" lon="8.389218876580113"><ele>188.0</ele><time>2026-04-11T16:00:00Z</time></trkpt><trkpt lat="45.49548320349257" lon="8.389343852025267"><ele>188.0</ele><time>2026-04-11T16:00:03Z</time></trkpt><trkpt lat="45.49548763982814" lon="8.389467811347966"><ele>188.0</ele><time>2026-04-11T16:00:06Z</time></trkpt><trkpt lat="45.49550962694286" lon="8.389562609869746"><ele>188.0</ele><time>2026-04-11T16:00:08Z</time></trkpt><trkpt lat="45.49550243053884" lon="8.389652479803473"><ele>187.8</ele><time>2026-04-11T16:00:10Z</time></trkpt><trkpt lat="45.49543738838741" lon="8.389727490746804"><ele>187.60000000000002</ele><time>2026-04-11T16:00:12Z</time></trkpt><trkpt lat="45.49532314336367" lon="8.389782782821909"><ele>187.39999999999998</ele><time>2026-04-11T16:00:14Z</time></trkpt><trkpt lat="45.49526456374808" lon="8.389815887699106"><ele>187.2</ele><time>2026-04-11T16:00:15Z</time></trkpt><trkpt lat="45.49518326374847" lon="8.389918183109296"><ele>187.0</ele><time>2026-04-11T16:00:17Z</time></trkpt><trkpt lat="45.49518198072345" lon="8.390090925742959"><ele>186.5</ele><time>2026-04-11T16:00:19Z</time></trkpt><trkpt lat="45.495215605202034" lon="8.390193270129851"><ele>186.0</ele><time>2026-04-11T16:00:20Z</time></trkpt><trkpt lat="45.4952377964777" lon="8.390309513827532"><ele>185.5</ele><time>2026-04-11T16:00:21Z</time></trkpt><trkpt lat="45.49526095019074" lon="8.390427012914598"><ele>185.0</ele><time>2026-04-11T16:00:22Z</time></trkpt><trkpt lat="45.495279677132785" lon="8.390557665149402"><ele>184.5</ele><time>2026-04-11T16:00:23Z</time></trkpt><trkpt lat="45.49528468239891" lon="8.390692414764395"><ele>184.0</ele><time>2026-04-11T16:00:24Z</time></trkpt><trkpt lat="45.495274077836136" lon="8.390837820180073"><ele>183.5</ele><time>2026-04-11T16:00:25Z</time></trkpt><trkpt lat="45.49526586488167" lon="8.390977829286232"><ele>183.0</ele><time>2026-04-11T16:00:26Z</time></trkpt><trkpt lat="45.495266819236186" lon="8.391098326271619"><ele>182.5</ele><time>2026-04-11T16:00:27Z</time></trkpt><trkpt lat="45.49526328501131" lon="8.391200415085509"><ele>182.0</ele><time>2026-04-11T16:00:28Z</time></trkpt><trkpt lat="45.49524233601097" lon="8.391289690073247"><ele>181.5</ele><time>2026-04-11T16:00:29Z</time></trkpt><trkpt lat="45.49520105869215" lon="8.391365041590486"><ele>181.0</ele><time>2026-04-11T16:00:30Z</time></trkpt><trkpt lat="45.495175861558806" lon="8.39145552567673"><ele>180.83333333333334</ele><time>2026-04-11T16:00:31Z</time></trkpt><trkpt lat="45.49518034573626" lon="8.391557872309692"><ele>180.66666666666669</ele><time>2026-04-11T16:00:32Z</time></trkpt><trkpt lat="45.4952136412987" lon="8.391652221745826"><ele>180.5</ele><time>2026-04-11T16:00:33Z</time></trkpt><trkpt lat="45.49525437014869" lon="8.391747728920716"><ele>180.33333333333334</ele><time>2026-04-11T16:00:34Z</time></trkpt><trkpt lat="45.49529135990757" lon="8.39186042106017"><ele>180.16666666666666</ele><time>2026-04-11T16:00:35Z</time></trkpt><trkpt lat="45.49532359594067" lon="8.391977115090862"><ele>180.0</ele><time>2026-04-11T16:00:36Z</time></trkpt><trkpt lat="45.495322998866044" lon="8.392113982310203"><ele>180.2</ele><time>2026-04-11T16:00:37Z</time></trkpt><trkpt lat="45.495345335490065" lon="8.392253864395299"><ele>180.4</ele><time>2026-04-11T16:00:38Z</time></trkpt><trkpt lat="45.49535109347926" lon="8.39239987917711"><ele>180.60000000000002</ele><time>2026-04-11T16:00:39Z</time></trkpt><trkpt lat="45.495358267534385" lon="8.39254977438314"><ele>180.8</ele><time>2026-04-11T16:00:40Z</time></trkpt><trkpt lat="45.495364386226086" lon="8.392701807485746"><ele>181.0</ele><time>2026-04-11T16:00:41Z</time></trkpt><trkpt lat="45.49536855541769" lon="8.392855883294594"><ele>180.8</ele><time>2026-04-11T16:00:42Z</time></trkpt><trkpt lat="45.49534968003499" lon="8.393011664396225"><ele>180.60000000000002</ele><time>2026-04-11T16:00:43Z</time></trkpt><trkpt lat="45.49533751840896" lon="8.393165532161271"><ele>180.4</ele><time>2026-04-11T16:00:44Z</time></trkpt><trkpt lat="45.49532042004539" lon="8.39332035707601"><ele>180.2</ele><time>2026-04-11T16:00:45Z</time></trkpt><trkpt lat="45.49531262092665" lon="8.393476040632411"><ele>180.0</ele><time>2026-04-11T16:00:46Z</time></trkpt><trkpt lat="45.495288530125634" lon="8.393628496374225"><ele>180.0</ele><time>2026-04-11T16:00:47Z</time></trkpt><trkpt lat="45.49526547699057" lon="8.393779372227149"><ele>180.0</ele><time>2026-04-11T16:00:47.999Z</time></trkpt><trkpt lat="45.49524487613092" lon="8.393930758621293"><ele>180.0</ele><time>2026-04-11T16:00:48.999Z</time></trkpt><trkpt lat="45.49522918972319" lon="8.394083668777126"><ele>180.0</ele><time>2026-04-11T16:00:49.999Z</time></trkpt><trkpt lat="45.49521493889211" lon="8.394237255243322"><ele>180.0</ele><time>2026-04-11T16:00:50.999Z</time></trkpt><trkpt lat="45.49519807697773" lon="8.394387833016616"><ele>180.0</ele><time>2026-04-11T16:00:51.999Z</time></trkpt><trkpt lat="45.495183384499924" lon="8.394545015602523"><ele>180.0</ele><time>2026-04-11T16:00:52.999Z</time></trkpt><trkpt lat="45.49516642338563" lon="8.394695629771148"><ele>180.0</ele><time>2026-04-11T16:00:53.999Z</time></trkpt><trkpt lat="45.49514987527327" lon="8.394845668214863"><ele>180.0</ele><time>2026-04-11T16:00:54.999Z</time></trkpt><trkpt lat="45.495133318374585" lon="8.394992715449568"><ele>180.0</ele><time>2026-04-11T16:00:55.999Z</time></trkpt><trkpt lat="45.49511777843418" lon="8.395133784605743"><ele>180.0</ele><time>2026-04-11T16:00:56.999Z</time></trkpt><trkpt lat="45.495116067815694" lon="8.395273534070165"><ele>180.0</ele><time>2026-04-11T16:00:57.999Z</time></trkpt><trkpt lat="45.495114059149884" lon="8.3954057959463"><ele>180.0</ele><time>2026-04-11T16:00:58.999Z</time></trkpt><trkpt lat="45.49506153103901" lon="8.395521858331884"><ele>180.0</ele><time>2026-04-11T16:00:59.999Z</time></trkpt><trkpt lat="45.49504890548985" lon="8.395644240910002"><ele>180.0</ele><time>2026-04-11T16:01:00.999Z</time></trkpt><trkpt lat="45.495050040321054" lon="8.395770308999328"><ele>180.0</ele><time>2026-04-11T16:01:01.999Z</time></trkpt><trkpt lat="45.49503119416726" lon="8.395898626116834"><ele>180.0</ele><time>2026-04-11T16:01:02.999Z</time></trkpt><trkpt lat="45.495019669225115" lon="8.396029907886138"><ele>180.0</ele><time>2026-04-11T16:01:03.999Z</time></trkpt><trkpt lat="45.495006855867885" lon="8.39616629242588"><ele>180.0</ele><time>2026-04-11T16:01:04.999Z</time></trkpt><trkpt lat="45.49499296055431" lon="8.39630117357223"><ele>180.0</ele><time>2026-04-11T16:01:05.999Z</time></trkpt><trkpt lat="45.494979403424814" lon="8.396436231312359"><ele>180.0</ele><time>2026-04-11T16:01:06.999Z</time></trkpt><trkpt lat="45.49496869231011" lon="8.39657130620607"><ele>180.0</ele><time>2026-04-11T16:01:07.999Z</time></trkpt><trkpt lat="45.49495822104456" lon="8.396703512392966"><ele>180.0</ele><time>2026-04-11T16:01:08.999Z</time></trkpt><trkpt lat="45.49494798515271" lon="8.39683186391974"><ele>180.0</ele><time>2026-04-11T16:01:09.999Z</time></trkpt><trkpt lat="45.49493888407231" lon="8.396951332510799"><ele>180.0</ele><time>2026-04-11T16:01:10.999Z</time></trkpt><trkpt lat="45.494933283680645" lon="8.397049379764864"><ele>180.0</ele><time>2026-04-11T16:01:11.999Z</time></trkpt><trkpt lat="45.49489159267276" lon="8.397205820767782"><ele>180.0</ele><time>2026-04-11T16:01:13.999Z</time></trkpt><trkpt lat="45.494828093290444" lon="8.397237749746294"><ele>180.0</ele><time>2026-04-11T16:01:14.999Z</time></trkpt><trkpt lat="45.49470312499015" lon="8.397210613752138"><ele>180.0</ele><time>2026-04-11T16:01:16.999Z</time></trkpt><trkpt lat="45.494625089397964" lon="8.397208715588098"><ele>180.0</ele><time>2026-04-11T16:01:17.999Z</time></trkpt><trkpt lat="45.494550998417026" lon="8.397202240008191"><ele>180.0</ele><time>2026-04-11T16:01:18.999Z</time></trkpt><trkpt lat="45.494477133406704" lon="8.397209090784862"><ele>180.0</ele><time>2026-04-11T16:01:19.999Z</time></trkpt><trkpt lat="45.494376394724235" lon="8.397200954453885"><ele>180.0</ele><time>2026-04-11T16:01:21.999Z</time></trkpt><trkpt lat="45.49446113527386" lon="8.397345072380093"><ele>180.0</ele><time>2026-04-11T16:01:47.999Z</time></trkpt><trkpt lat="45.49456359576655" lon="8.397392046498886"><ele>180.0</ele><time>2026-04-11T16:01:49.999Z</time></trkpt><trkpt lat="45.49466222819788" lon="8.397396318558407"><ele>180.0</ele><time>2026-04-11T16:01:50.999Z</time></trkpt><trkpt lat="45.4947426269897" lon="8.397426133025105"><ele>180.0</ele><time>2026-04-11T16:01:51.999Z</time></trkpt><trkpt lat="45.49483583258237" lon="8.397452976351337"><ele>180.4</ele><time>2026-04-11T16:01:52.998Z</time></trkpt><trkpt lat="45.49492964423681" lon="8.397489204190611"><ele>180.8</ele><time>2026-04-11T16:01:53.998Z</time></trkpt><trkpt lat="45.495029742012306" lon="8.39752301325445"><ele>181.2</ele><time>2026-04-11T16:01:55Z</time></trkpt><trkpt lat="45.49513786397814" lon="8.397554116893527"><ele>181.6</ele><time>2026-04-11T16:01:56Z</time></trkpt><trkpt lat="45.495241002727205" lon="8.39758364436905"><ele>182.0</ele><time>2026-04-11T16:01:57Z</time></trkpt><trkpt lat="45.49534684076123" lon="8.397624394009243"><ele>182.0</ele><time>2026-04-11T16:01:58Z</time></trkpt><trkpt lat="45.49544186993774" lon="8.397695005205806"><ele>182.0</ele><time>2026-04-11T16:01:59Z</time></trkpt><trkpt lat="45.49553709907518" lon="8.397759380973394"><ele>182.0</ele><time>2026-04-11T16:02:00Z</time></trkpt><trkpt lat="45.49563165556293" lon="8.397828613574406"><ele>182.0</ele><time>2026-04-11T16:02:01Z</time></trkpt><trkpt lat="45.495734198214734" lon="8.397879215553575"><ele>182.0</ele><time>2026-04-11T16:02:02Z</time></trkpt><trkpt lat="45.49584323911246" lon="8.397909326188762"><ele>182.0</ele><time>2026-04-11T16:02:03Z</time></trkpt><trkpt lat="45.495954176732994" lon="8.397935428250918"><ele>182.0</ele><time>2026-04-11T16:02:04Z</time></trkpt><trkpt lat="45.49606383836281" lon="8.397965086847915"><ele>182.0</ele><time>2026-04-11T16:02:05Z</time></trkpt><trkpt lat="45.496173447421604" lon="8.398024310681716"><ele>182.0</ele><time>2026-04-11T16:02:06Z</time></trkpt><trkpt lat="45.49628955675702" lon="8.398060269078197"><ele>181.75</ele><time>2026-04-11T16:02:07Z</time></trkpt><trkpt lat="45.49641209111333" lon="8.398075794152401"><ele>181.5</ele><time>2026-04-11T16:02:08Z</time></trkpt><trkpt lat="45.4965306075832" lon="8.398113834670347"><ele>181.25</ele><time>2026-04-11T16:02:09Z</time></trkpt><trkpt lat="45.49664038310334" lon="8.398148934959547"><ele>181.0</ele><time>2026-04-11T16:02:10Z</time></trkpt><trkpt lat="45.49674642413588" lon="8.398183395093273"><ele>181.0</ele><time>2026-04-11T16:02:11Z</time></trkpt><trkpt lat="45.496861241818955" lon="8.398222016203686"><ele>181.0</ele><time>2026-04-11T16:02:12Z</time></trkpt><trkpt lat="45.49697363909622" lon="8.398259913066966"><ele>181.0</ele><time>2026-04-11T16:02:13Z</time></trkpt><trkpt lat="45.49708483949985" lon="8.398297277726977"><ele>181.0</ele><time>2026-04-11T16:02:14Z</time></trkpt><trkpt lat="45.49717580806717" lon="8.39833135148743"><ele>181.0</ele><time>2026-04-11T16:02:15Z</time></trkpt><trkpt lat="45.4972674647072" lon="8.398363016979669"><ele>181.0</ele><time>2026-04-11T16:02:16Z</time></trkpt><trkpt lat="45.497344481663006" lon="8.398387316670762"><ele>181.0</ele><time>2026-04-11T16:02:17Z</time></trkpt><trkpt lat="45.49741227524639" lon="8.398404448947147"><ele>181.0</ele><time>2026-04-11T16:02:18Z</time></trkpt><trkpt lat="45.497485990022774" lon="8.398420488116429"><ele>181.0</ele><time>2026-04-11T16:02:19Z</time></trkpt><trkpt lat="45.497553972136174" lon="8.398448322274481"><ele>181.0</ele><time>2026-04-11T16:02:20Z</time></trkpt><trkpt lat="45.497625507515814" lon="8.398471359286528"><ele>181.0</ele><time>2026-04-11T16:02:21Z</time></trkpt><trkpt lat="45.49768814958875" lon="8.398496239450509"><ele>181.0</ele><time>2026-04-11T16:02:22Z</time></trkpt><trkpt lat="45.497806852782006" lon="8.398522068995629"><ele>181.0</ele><time>2026-04-11T16:02:24Z</time></trkpt><trkpt lat="45.49791069466008" lon="8.398545766662071"><ele>181.0</ele><time>2026-04-11T16:02:26Z</time></trkpt><trkpt lat="45.497989688415906" lon="8.398562984251956"><ele>181.0</ele><time>2026-04-11T16:02:28Z</time></trkpt><trkpt lat="45.49807111871927" lon="8.398574915260442"><ele>181.0</ele><time>2026-04-11T16:02:30Z</time></trkpt><trkpt lat="45.49815343703967" lon="8.398584058366858"><ele>181.0</ele><time>2026-04-11T16:02:32Z</time></trkpt><trkpt lat="45.498262058676794" lon="8.398588509114743"><ele>181.66666666666669</ele><time>2026-04-11T16:02:34Z</time></trkpt><trkpt lat="45.49832775955531" lon="8.398615215954218"><ele>182.33333333333334</ele><time>2026-04-11T16:02:35Z</time></trkpt><trkpt lat="45.498403962707" lon="8.398618264079332"><ele>183.0</ele><time>2026-04-11T16:02:36Z</time></trkpt><trkpt lat="45.49847884851389" lon="8.398618501978701"><ele>183.66666666666666</ele><time>2026-04-11T16:02:37Z</time></trkpt><trkpt lat="45.49856324765255" lon="8.398617982598685"><ele>184.33333333333331</ele><time>2026-04-11T16:02:38Z</time></trkpt><trkpt lat="45.498651087759534" lon="8.398594648874958"><ele>185.0</ele><time>2026-04-11T16:02:39Z</time></trkpt><trkpt lat="45.498735680274216" lon="8.398596933434174"><ele>184.8</ele><time>2026-04-11T16:02:40Z</time></trkpt><trkpt lat="45.498822287367496" lon="8.398602363954389"><ele>184.6</ele><time>2026-04-11T16:02:41Z</time></trkpt><trkpt lat="45.49891781287808" lon="8.398624628618306"><ele>184.39999999999998</ele><time>2026-04-11T16:02:42Z</time></trkpt><trkpt lat="45.499014978837614" lon="8.398627194370814"><ele>184.2</ele><time>2026-04-11T16:02:43Z</time></trkpt><trkpt lat="45.49910545169115" lon="8.398611068672606"><ele>184.0</ele><time>2026-04-11T16:02:44Z</time></trkpt><trkpt lat="45.49919489214688" lon="8.398611267818627"><ele>184.0</ele><time>2026-04-11T16:02:45Z</time></trkpt><trkpt lat="45.49927974300227" lon="8.398611901195332"><ele>184.0</ele><time>2026-04-11T16:02:46Z</time></trkpt><trkpt lat="45.49936223716466" lon="8.398619064532644"><ele>184.0</ele><time>2026-04-11T16:02:47Z</time></trkpt><trkpt lat="45.49944307247774" lon="8.398618447008946"><ele>184.0</ele><time>2026-04-11T16:02:48Z</time></trkpt><trkpt lat="45.49952196980576" lon="8.398616781731079"><ele>184.0</ele><time>2026-04-11T16:02:49Z</time></trkpt><trkpt lat="45.49959032037686" lon="8.398620961948327"><ele>184.0</ele><time>2026-04-11T16:02:50Z</time></trkpt><trkpt lat="45.4996596036725" lon="8.398623427360238"><ele>184.0</ele><time>2026-04-11T16:02:51Z</time></trkpt><trkpt lat="45.49978367405209" lon="8.398632549354735"><ele>184.0</ele><time>2026-04-11T16:02:53Z</time></trkpt><trkpt lat="45.499898417272675" lon="8.398636142173103"><ele>184.0</ele><time>2026-04-11T16:02:54.999Z</time></trkpt><trkpt lat="45.500004268329654" lon="8.398638674292124"><ele>184.0</ele><time>2026-04-11T16:02:56.999Z</time></trkpt><trkpt lat="45.50010161725782" lon="8.398646380552993"><ele>184.0</ele><time>2026-04-11T16:02:58.999Z</time></trkpt><trkpt lat="45.500200145466586" lon="8.398643365567795"><ele>184.0</ele><time>2026-04-11T16:03:00.999Z</time></trkpt><trkpt lat="45.500309790988766" lon="8.398647901734934"><ele>184.0</ele><time>2026-04-11T16:03:02.999Z</time></trkpt><trkpt lat="45.50042938059138" lon="8.398670668569466"><ele>184.0</ele><time>2026-04-11T16:03:04.999Z</time></trkpt><trkpt lat="45.5005523332478" lon="8.398675852152286"><ele>184.0</ele><time>2026-04-11T16:03:06.999Z</time></trkpt><trkpt lat="45.50061419527358" lon="8.398655855250215"><ele>184.0</ele><time>2026-04-11T16:03:07.999Z</time></trkpt><trkpt lat="45.50074211727476" lon="8.398662698140603"><ele>183.71428571428572</ele><time>2026-04-11T16:03:09.999Z</time></trkpt><trkpt lat="45.50080937842797" lon="8.398661588871"><ele>183.42857142857142</ele><time>2026-04-11T16:03:10.999Z</time></trkpt><trkpt lat="45.50087759988325" lon="8.39866165621633"><ele>183.14285714285714</ele><time>2026-04-11T16:03:11.999Z</time></trkpt><trkpt lat="45.50094954543944" lon="8.398660841725293"><ele>182.85714285714286</ele><time>2026-04-11T16:03:12.999Z</time></trkpt><trkpt lat="45.501023938984105" lon="8.398661335574023"><ele>182.57142857142856</ele><time>2026-04-11T16:03:13.999Z</time></trkpt><trkpt lat="45.501103997167945" lon="8.398662188366268"><ele>182.28571428571428</ele><time>2026-04-11T16:03:14.999Z</time></trkpt><trkpt lat="45.50118109776777" lon="8.398668173738173"><ele>182.0</ele><time>2026-04-11T16:03:15.999Z</time></trkpt><trkpt lat="45.501256523090284" lon="8.398667038190407"><ele>181.85714285714286</ele><time>2026-04-11T16:03:16.999Z</time></trkpt><trkpt lat="45.50132912327295" lon="8.398670554219288"><ele>181.71428571428572</ele><time>2026-04-11T16:03:17.999Z</time></trkpt><trkpt lat="45.50139714241511" lon="8.398670220030988"><ele>181.57142857142856</ele><time>2026-04-11T16:03:18.999Z</time></trkpt><trkpt lat="45.50146592346244" lon="8.398670690169453"><ele>181.42857142857144</ele><time>2026-04-11T16:03:19.999Z</time></trkpt><trkpt lat="45.50153375339879" lon="8.398669880517875"><ele>181.28571428571428</ele><time>2026-04-11T16:03:20.999Z</time></trkpt><trkpt lat="45.50160195679435" lon="8.398670626240914"><ele>181.14285714285714</ele><time>2026-04-11T16:03:21.999Z</time></trkpt><trkpt lat="45.501673703595486" lon="8.398668170905598"><ele>181.0</ele><time>2026-04-11T16:03:22.999Z</time></trkpt><trkpt lat="45.50174991581641" lon="8.398688568210007"><ele>181.0</ele><time>2026-04-11T16:03:23.999Z</time></trkpt><trkpt lat="45.5018293464452" lon="8.398688568209527"><ele>181.0</ele><time>2026-04-11T16:03:24.999Z</time></trkpt><trkpt lat="45.50191485512112" lon="8.39868657321051"><ele>181.0</ele><time>2026-04-11T16:03:25.999Z</time></trkpt><trkpt lat="45.50200291304743" lon="8.39868134659314"><ele>181.0</ele><time>2026-04-11T16:03:26.999Z</time></trkpt><trkpt lat="45.50209407709782" lon="8.39867342993474"><ele>181.0</ele><time>2026-04-11T16:03:27.999Z</time></trkpt><trkpt lat="45.5021880586972" lon="8.398662201120558"><ele>181.0</ele><time>2026-04-11T16:03:28.999Z</time></trkpt><trkpt lat="45.50228178285623" lon="8.398648309601024"><ele>181.0</ele><time>2026-04-11T16:03:29.999Z</time></trkpt><trkpt lat="45.502375224760165" lon="8.39863300932071"><ele>181.0</ele><time>2026-04-11T16:03:30.999Z</time></trkpt><trkpt lat="45.502470815222495" lon="8.39860240370037"><ele>181.0</ele><time>2026-04-11T16:03:31.999Z</time></trkpt><trkpt lat="45.50255944494988" lon="8.398559448944898"><ele>181.0</ele><time>2026-04-11T16:03:32.999Z</time></trkpt><trkpt lat="45.50264479058283" lon="8.398519094768577"><ele>181.0</ele><time>2026-04-11T16:03:33.999Z</time></trkpt><trkpt lat="45.50272941572418" lon="8.398471866539484"><ele>181.0</ele><time>2026-04-11T16:03:34.999Z</time></trkpt><trkpt lat="45.50281288113957" lon="8.398435285894754"><ele>181.0</ele><time>2026-04-11T16:03:35.999Z</time></trkpt><trkpt lat="45.50289604487421" lon="8.398396291965446"><ele>181.0</ele><time>2026-04-11T16:03:36.999Z</time></trkpt><trkpt lat="45.50298095287048" lon="8.398357822799293"><ele>181.0</ele><time>2026-04-11T16:03:37.999Z</time></trkpt><trkpt lat="45.503068166961654" lon="8.398323612952248"><ele>181.0</ele><time>2026-04-11T16:03:38.999Z</time></trkpt><trkpt lat="45.503161553910665" lon="8.398305942380462"><ele>181.0</ele><time>2026-04-11T16:03:39.999Z</time></trkpt><trkpt lat="45.503250359880035" lon="8.398304413791031"><ele>181.8</ele><time>2026-04-11T16:03:40.999Z</time></trkpt><trkpt lat="45.50334275899361" lon="8.398273543847706"><ele>182.60000000000002</ele><time>2026-04-11T16:03:41.999Z</time></trkpt><trkpt lat="45.50343934022498" lon="8.398266689121138"><ele>183.4</ele><time>2026-04-11T16:03:42.999Z</time></trkpt><trkpt lat="45.50353973718077" lon="8.398256908017846"><ele>184.2</ele><time>2026-04-11T16:03:43.999Z</time></trkpt><trkpt lat="45.503634925276494" lon="8.398253646467758"><ele>185.0</ele><time>2026-04-11T16:03:44.999Z</time></trkpt><trkpt lat="45.50373452740817" lon="8.39827391026633"><ele>185.8</ele><time>2026-04-11T16:03:45.999Z</time></trkpt><trkpt lat="45.50383158830902" lon="8.398249572781086"><ele>186.6</ele><time>2026-04-11T16:03:46.999Z</time></trkpt><trkpt lat="45.50392892393664" lon="8.398245551050318"><ele>187.39999999999998</ele><time>2026-04-11T16:03:47.999Z</time></trkpt><trkpt lat="45.50402696908995" lon="8.398243535689522"><ele>188.2</ele><time>2026-04-11T16:03:48.999Z</time></trkpt><trkpt lat="45.504128808793546" lon="8.398239730366056"><ele>189.0</ele><time>2026-04-11T16:03:49.999Z</time></trkpt><trkpt lat="45.50423055822679" lon="8.398238570479919"><ele>189.0</ele><time>2026-04-11T16:03:50.999Z</time></trkpt><trkpt lat="45.5043326754116" lon="8.398240259317538"><ele>189.0</ele><time>2026-04-11T16:03:51.999Z</time></trkpt><trkpt lat="45.50443535094284" lon="8.398240689526485"><ele>189.0</ele><time>2026-04-11T16:03:52.999Z</time></trkpt><trkpt lat="45.504537779259934" lon="8.398246621444518"><ele>189.0</ele><time>2026-04-11T16:03:53.999Z</time></trkpt><trkpt lat="45.50464012306591" lon="8.398258618929923"><ele>189.0</ele><time>2026-04-11T16:03:54.999Z</time></trkpt><trkpt lat="45.50474520502136" lon="8.398271989237452"><ele>189.39999999999998</ele><time>2026-04-11T16:03:55.999Z</time></trkpt><trkpt lat="45.504850607543524" lon="8.398318587340803"><ele>189.8</ele><time>2026-04-11T16:03:56.999Z</time></trkpt><trkpt lat="45.504952436438536" lon="8.398357378720078"><ele>190.2</ele><time>2026-04-11T16:03:57.999Z</time></trkpt><trkpt lat="45.50505719832224" lon="8.398399860439195"><ele>190.60000000000002</ele><time>2026-04-11T16:03:58.999Z</time></trkpt><trkpt lat="45.505160207602806" lon="8.398445603203662"><ele>191.0</ele><time>2026-04-11T16:04:00Z</time></trkpt><trkpt lat="45.505270127593214" lon="8.398452380158805"><ele>191.0</ele><time>2026-04-11T16:04:01Z</time></trkpt><trkpt lat="45.505379104837445" lon="8.398465353653146"><ele>191.0</ele><time>2026-04-11T16:04:02Z</time></trkpt><trkpt lat="45.50548755393446" lon="8.398474135573336"><ele>191.0</ele><time>2026-04-11T16:04:03Z</time></trkpt><trkpt lat="45.50560065267448" lon="8.398471591636094"><ele>191.0</ele><time>2026-04-11T16:04:04Z</time></trkpt><trkpt lat="45.50571151007972" lon="8.398494596518976"><ele>191.0</ele><time>2026-04-11T16:04:05Z</time></trkpt><trkpt lat="45.50582587689581" lon="8.39849880685352"><ele>191.0</ele><time>2026-04-11T16:04:06Z</time></trkpt><trkpt lat="45.5059394862851" lon="8.398502716620037"><ele>191.0</ele><time>2026-04-11T16:04:07Z</time></trkpt><trkpt lat="45.50605209228596" lon="8.398506591853957"><ele>191.0</ele><time>2026-04-11T16:04:08Z</time></trkpt><trkpt lat="45.506164342605146" lon="8.398487688897582"><ele>191.0</ele><time>2026-04-11T16:04:09Z</time></trkpt><trkpt lat="45.5062752588367" lon="8.398512579762698"><ele>190.8</ele><time>2026-04-11T16:04:10Z</time></trkpt><trkpt lat="45.50638636118273" lon="8.398492402318146"><ele>190.60000000000002</ele><time>2026-04-11T16:04:11Z</time></trkpt><trkpt lat="45.50649856358041" lon="8.398493879616135"><ele>190.4</ele><time>2026-04-11T16:04:12Z</time></trkpt><trkpt lat="45.50661018486168" lon="8.398498665601714"><ele>190.2</ele><time>2026-04-11T16:04:13Z</time></trkpt><trkpt lat="45.50672269020264" lon="8.398497780115358"><ele>190.0</ele><time>2026-04-11T16:04:14Z</time></trkpt><trkpt lat="45.50683627401258" lon="8.398499088711043"><ele>190.0</ele><time>2026-04-11T16:04:15Z</time></trkpt><trkpt lat="45.506950708103844" lon="8.39849973252083"><ele>190.0</ele><time>2026-04-11T16:04:16Z</time></trkpt><trkpt lat="45.50706705427361" lon="8.398501299717378"><ele>190.0</ele><time>2026-04-11T16:04:17Z</time></trkpt><trkpt lat="45.507181554662566" lon="8.398504580638258"><ele>190.0</ele><time>2026-04-11T16:04:18Z</time></trkpt><trkpt lat="45.50729979953299" lon="8.398500059842277"><ele>190.0</ele><time>2026-04-11T16:04:19Z</time></trkpt><trkpt lat="45.50741779053517" lon="8.398503571053837"><ele>190.0</ele><time>2026-04-11T16:04:20Z</time></trkpt><trkpt lat="45.507534828752824" lon="8.398503581108816"><ele>190.0</ele><time>2026-04-11T16:04:21Z</time></trkpt><trkpt lat="45.50765091251308" lon="8.398507245242705"><ele>190.0</ele><time>2026-04-11T16:04:22Z</time></trkpt><trkpt lat="45.50777026552025" lon="8.39851232309522"><ele>190.0</ele><time>2026-04-11T16:04:23Z</time></trkpt><trkpt lat="45.50788764974529" lon="8.39853606144596"><ele>190.0</ele><time>2026-04-11T16:04:24Z</time></trkpt><trkpt lat="45.508006328668266" lon="8.39854010869058"><ele>190.0</ele><time>2026-04-11T16:04:25Z</time></trkpt><trkpt lat="45.508125047253905" lon="8.398544157288903"><ele>190.0</ele><time>2026-04-11T16:04:26Z</time></trkpt><trkpt lat="45.50824294542974" lon="8.398525693988546"><ele>189.75</ele><time>2026-04-11T16:04:27Z</time></trkpt><trkpt lat="45.50836102503264" lon="8.398532884753706"><ele>189.5</ele><time>2026-04-11T16:04:28Z</time></trkpt><trkpt lat="45.50847501822784" lon="8.398538345122741"><ele>189.25</ele><time>2026-04-11T16:04:29Z</time></trkpt><trkpt lat="45.50859025100867" lon="8.398537154453633"><ele>189.0</ele><time>2026-04-11T16:04:30Z</time></trkpt><trkpt lat="45.50870366446274" lon="8.39856082866012"><ele>189.25</ele><time>2026-04-11T16:04:31Z</time></trkpt><trkpt lat="45.508818410977725" lon="8.398546338711872"><ele>189.5</ele><time>2026-04-11T16:04:32Z</time></trkpt><trkpt lat="45.50893367268022" lon="8.398552239810863"><ele>189.75</ele><time>2026-04-11T16:04:33Z</time></trkpt><trkpt lat="45.50905175278164" lon="8.398558570907161"><ele>190.0</ele><time>2026-04-11T16:04:34Z</time></trkpt><trkpt lat="45.50917194028588" lon="8.398559677557557"><ele>190.0</ele><time>2026-04-11T16:04:35Z</time></trkpt><trkpt lat="45.50929116045991" lon="8.398561672869869"><ele>190.0</ele><time>2026-04-11T16:04:36Z</time></trkpt><trkpt lat="45.50941134113108" lon="8.398561553693012"><ele>190.0</ele><time>2026-04-11T16:04:37Z</time></trkpt><trkpt lat="45.50953236205868" lon="8.398562662846318"><ele>190.0</ele><time>2026-04-11T16:04:38Z</time></trkpt><trkpt lat="45.50965313198901" lon="8.398560200031145"><ele>190.0</ele><time>2026-04-11T16:04:39Z</time></trkpt><trkpt lat="45.50977277949987" lon="8.398557411827447"><ele>190.0</ele><time>2026-04-11T16:04:40Z</time></trkpt><trkpt lat="45.50989412835354" lon="8.398558664315043"><ele>190.0</ele><time>2026-04-11T16:04:41Z</time></trkpt><trkpt lat="45.510015225993" lon="8.398555678794153"><ele>190.0</ele><time>2026-04-11T16:04:42Z</time></trkpt><trkpt lat="45.510134268964265" lon="8.398553240482373"><ele>190.0</ele><time>2026-04-11T16:04:43Z</time></trkpt><trkpt lat="45.51025245201701" lon="8.398558535999362"><ele>190.0</ele><time>2026-04-11T16:04:44Z</time></trkpt><trkpt lat="45.51036820709939" lon="8.39855733747364"><ele>190.0</ele><time>2026-04-11T16:04:45Z</time></trkpt><trkpt lat="45.510482761239714" lon="8.39855947333087"><ele>190.0</ele><time>2026-04-11T16:04:46Z</time></trkpt><trkpt lat="45.51059927173609" lon="8.398561202492113"><ele>190.75</ele><time>2026-04-11T16:04:47Z</time></trkpt><trkpt lat="45.51071324078245" lon="8.398561813771044"><ele>191.5</ele><time>2026-04-11T16:04:48Z</time></trkpt><trkpt lat="45.5108277646497" lon="8.398563470458901"><ele>192.25</ele><time>2026-04-11T16:04:49Z</time></trkpt><trkpt lat="45.51094693992869" lon="8.398564820738546"><ele>193.0</ele><time>2026-04-11T16:04:50Z</time></trkpt><trkpt lat="45.51106515703813" lon="8.398562829730603"><ele>193.0</ele><time>2026-04-11T16:04:51Z</time></trkpt><trkpt lat="45.511182221469305" lon="8.398557261786003"><ele>193.0</ele><time>2026-04-11T16:04:52Z</time></trkpt><trkpt lat="45.51130122813726" lon="8.398551948596564"><ele>193.0</ele><time>2026-04-11T16:04:53Z</time></trkpt><trkpt lat="45.51141676787239" lon="8.398554315256805"><ele>193.0</ele><time>2026-04-11T16:04:54Z</time></trkpt><trkpt lat="45.511533330785284" lon="8.398553123202262"><ele>193.5</ele><time>2026-04-11T16:04:55Z</time></trkpt><trkpt lat="45.511647246828325" lon="8.39857958259681"><ele>194.0</ele><time>2026-04-11T16:04:55.999Z</time></trkpt><trkpt lat="45.51176280164133" lon="8.398583430435478"><ele>194.5</ele><time>2026-04-11T16:04:56.999Z</time></trkpt><trkpt lat="45.51187421720469" lon="8.398586415921203"><ele>195.0</ele><time>2026-04-11T16:04:57.999Z</time></trkpt><trkpt lat="45.51198276110406" lon="8.398565843852115"><ele>194.4</ele><time>2026-04-11T16:04:58.999Z</time></trkpt><trkpt lat="45.51208856262557" lon="8.398568059967625"><ele>193.8</ele><time>2026-04-11T16:04:59.999Z</time></trkpt><trkpt lat="45.51218996768342" lon="8.398541876425144"><ele>193.2</ele><time>2026-04-11T16:05:00.999Z</time></trkpt><trkpt lat="45.51228676415622" lon="8.398490064606058"><ele>192.6</ele><time>2026-04-11T16:05:01.999Z</time></trkpt><trkpt lat="45.5123834275509" lon="8.398423706078539"><ele>192.0</ele><time>2026-04-11T16:05:02.999Z</time></trkpt><trkpt lat="45.51247324548686" lon="8.398350938427296"><ele>192.0</ele><time>2026-04-11T16:05:03.999Z</time></trkpt><trkpt lat="45.512561783925726" lon="8.398272572633493"><ele>192.0</ele><time>2026-04-11T16:05:04.999Z</time></trkpt><trkpt lat="45.51265369884172" lon="8.398193378532067"><ele>192.0</ele><time>2026-04-11T16:05:05.999Z</time></trkpt><trkpt lat="45.51274508182386" lon="8.398114611089559"><ele>192.0</ele><time>2026-04-11T16:05:06.999Z</time></trkpt><trkpt lat="45.51283743589165" lon="8.398034348646764"><ele>192.0</ele><time>2026-04-11T16:05:07.999Z</time></trkpt><trkpt lat="45.51293240176498" lon="8.397952537388282"><ele>192.0</ele><time>2026-04-11T16:05:08.999Z</time></trkpt><trkpt lat="45.51303099078807" lon="8.397863713803131"><ele>192.0</ele><time>2026-04-11T16:05:09.999Z</time></trkpt><trkpt lat="45.513133414714765" lon="8.397781626793508"><ele>192.0</ele><time>2026-04-11T16:05:10.999Z</time></trkpt><trkpt lat="45.51323434863816" lon="8.39769568729571"><ele>192.0</ele><time>2026-04-11T16:05:11.999Z</time></trkpt><trkpt lat="45.513336197746376" lon="8.397608444796317"><ele>192.0</ele><time>2026-04-11T16:05:12.999Z</time></trkpt><trkpt lat="45.513435748093194" lon="8.39752504420918"><ele>192.0</ele><time>2026-04-11T16:05:13.999Z</time></trkpt><trkpt lat="45.51353364539864" lon="8.397439129729241"><ele>192.0</ele><time>2026-04-11T16:05:14.999Z</time></trkpt><trkpt lat="45.51363300449991" lon="8.397354073995826"><ele>192.0</ele><time>2026-04-11T16:05:15.999Z</time></trkpt><trkpt lat="45.513728665030094" lon="8.397267608438046"><ele>192.25</ele><time>2026-04-11T16:05:16.999Z</time></trkpt><trkpt lat="45.51382727248852" lon="8.39718172364722"><ele>192.5</ele><time>2026-04-11T16:05:17.999Z</time></trkpt><trkpt lat="45.51392491631601" lon="8.397096272614418"><ele>192.75</ele><time>2026-04-11T16:05:18.999Z</time></trkpt><trkpt lat="45.51403043822006" lon="8.397038809246071"><ele>193.0</ele><time>2026-04-11T16:05:19.999Z</time></trkpt><trkpt lat="45.514121586398275" lon="8.396949467192094"><ele>193.0</ele><time>2026-04-11T16:05:20.999Z</time></trkpt><trkpt lat="45.514223360739926" lon="8.396888439260314"><ele>193.0</ele><time>2026-04-11T16:05:21.999Z</time></trkpt><trkpt lat="45.5143227307941" lon="8.396826625622795"><ele>193.0</ele><time>2026-04-11T16:05:22.999Z</time></trkpt><trkpt lat="45.514425634894494" lon="8.396775755574975"><ele>193.0</ele><time>2026-04-11T16:05:23.999Z</time></trkpt><trkpt lat="45.51452841026905" lon="8.39672420701043"><ele>193.0</ele><time>2026-04-11T16:05:24.999Z</time></trkpt><trkpt lat="45.514631694194364" lon="8.396670835481178"><ele>193.0</ele><time>2026-04-11T16:05:25.999Z</time></trkpt><trkpt lat="45.51473915379995" lon="8.396617511943415"><ele>193.0</ele><time>2026-04-11T16:05:26.999Z</time></trkpt><trkpt lat="45.51484773628332" lon="8.39656492929451"><ele>193.0</ele><time>2026-04-11T16:05:27.999Z</time></trkpt><trkpt lat="45.51495527164538" lon="8.396505360844671"><ele>193.0</ele><time>2026-04-11T16:05:28.999Z</time></trkpt><trkpt lat="45.51506408005296" lon="8.396448269637384"><ele>193.0</ele><time>2026-04-11T16:05:29.999Z</time></trkpt><trkpt lat="45.515178643537254" lon="8.396418847476513"><ele>193.0</ele><time>2026-04-11T16:05:30.999Z</time></trkpt><trkpt lat="45.51528868204462" lon="8.396367127186663"><ele>193.0</ele><time>2026-04-11T16:05:31.999Z</time></trkpt><trkpt lat="45.51539525903714" lon="8.396294406618587"><ele>193.0</ele><time>2026-04-11T16:05:32.999Z</time></trkpt><trkpt lat="45.51550295272198" lon="8.396232915872169"><ele>193.5</ele><time>2026-04-11T16:05:33.999Z</time></trkpt><trkpt lat="45.51561143049315" lon="8.396165820162167"><ele>194.0</ele><time>2026-04-11T16:05:34.999Z</time></trkpt><trkpt lat="45.51572188537841" lon="8.396106696297895"><ele>194.5</ele><time>2026-04-11T16:05:35.999Z</time></trkpt><trkpt lat="45.51583232137491" lon="8.396054709220055"><ele>195.0</ele><time>2026-04-11T16:05:36.999Z</time></trkpt><trkpt lat="45.515942850269035" lon="8.396000774274032"><ele>195.0</ele><time>2026-04-11T16:05:37.999Z</time></trkpt><trkpt lat="45.51605276057279" lon="8.395944867922498"><ele>195.0</ele><time>2026-04-11T16:05:38.999Z</time></trkpt><trkpt lat="45.51616943551075" lon="8.395922215019274"><ele>195.0</ele><time>2026-04-11T16:05:39.999Z</time></trkpt><trkpt lat="45.51628281685356" lon="8.395888889864253"><ele>195.0</ele><time>2026-04-11T16:05:40.999Z</time></trkpt><trkpt lat="45.516395156701485" lon="8.395855654526363"><ele>194.5</ele><time>2026-04-11T16:05:41.999Z</time></trkpt><trkpt lat="45.516502592921924" lon="8.395800808208849"><ele>194.0</ele><time>2026-04-11T16:05:42.999Z</time></trkpt><trkpt lat="45.51661506228804" lon="8.395768345003436"><ele>193.5</ele><time>2026-04-11T16:05:43.999Z</time></trkpt><trkpt lat="45.51672364640363" lon="8.395729247424917"><ele>193.0</ele><time>2026-04-11T16:05:44.999Z</time></trkpt><trkpt lat="45.51683015424647" lon="8.395681159499901"><ele>193.0</ele><time>2026-04-11T16:05:45.999Z</time></trkpt><trkpt lat="45.51693970187595" lon="8.395659350866959"><ele>193.0</ele><time>2026-04-11T16:05:46.999Z</time></trkpt><trkpt lat="45.517046221134805" lon="8.395627124715151"><ele>193.0</ele><time>2026-04-11T16:05:47.999Z</time></trkpt><trkpt lat="45.51715346709105" lon="8.395610095867584"><ele>193.0</ele><time>2026-04-11T16:05:48.999Z</time></trkpt><trkpt lat="45.517262408815625" lon="8.395603984895315"><ele>193.0</ele><time>2026-04-11T16:05:49.999Z</time></trkpt><trkpt lat="45.51736926511248" lon="8.395612037277894"><ele>192.8</ele><time>2026-04-11T16:05:50.999Z</time></trkpt><trkpt lat="45.517480491885586" lon="8.395613625827096"><ele>192.60000000000002</ele><time>2026-04-11T16:05:51.999Z</time></trkpt><trkpt lat="45.51758992866819" lon="8.395591126055814"><ele>192.39999999999998</ele><time>2026-04-11T16:05:52.999Z</time></trkpt><trkpt lat="45.51770074509422" lon="8.395593526080383"><ele>192.2</ele><time>2026-04-11T16:05:53.999Z</time></trkpt><trkpt lat="45.51781107205039" lon="8.395615610400776"><ele>192.0</ele><time>2026-04-11T16:05:54.999Z</time></trkpt><trkpt lat="45.51792248340787" lon="8.395616279236512"><ele>192.0</ele><time>2026-04-11T16:05:55.999Z</time></trkpt><trkpt lat="45.5180341072942" lon="8.395593983316385"><ele>192.0</ele><time>2026-04-11T16:05:56.999Z</time></trkpt><trkpt lat="45.51814475538077" lon="8.395599960772358"><ele>192.0</ele><time>2026-04-11T16:05:57.999Z</time></trkpt><trkpt lat="45.51825732363168" lon="8.395601818076369"><ele>192.0</ele><time>2026-04-11T16:05:58.999Z</time></trkpt><trkpt lat="45.51836814641017" lon="8.395600464592494"><ele>192.0</ele><time>2026-04-11T16:05:59.999Z</time></trkpt><trkpt lat="45.51847870750298" lon="8.395603633713812"><ele>192.0</ele><time>2026-04-11T16:06:00.999Z</time></trkpt><trkpt lat="45.51859051624177" lon="8.395605764408304"><ele>192.0</ele><time>2026-04-11T16:06:01.998Z</time></trkpt><trkpt lat="45.518701180618194" lon="8.395607020250624"><ele>192.0</ele><time>2026-04-11T16:06:02.998Z</time></trkpt><trkpt lat="45.518812341471794" lon="8.395610334509898"><ele>192.0</ele><time>2026-04-11T16:06:03.998Z</time></trkpt><trkpt lat="45.51892369573794" lon="8.39561209636311"><ele>192.0</ele><time>2026-04-11T16:06:04.998Z</time></trkpt><trkpt lat="45.519034128392406" lon="8.39561332612965"><ele>192.2</ele><time>2026-04-11T16:06:06Z</time></trkpt><trkpt lat="45.51914449776919" lon="8.395618749318977"><ele>192.39999999999998</ele><time>2026-04-11T16:06:07Z</time></trkpt><trkpt lat="45.51925288638681" lon="8.39561657330635"><ele>192.60000000000002</ele><time>2026-04-11T16:06:08Z</time></trkpt><trkpt lat="45.51936175444903" lon="8.395615713100497"><ele>192.8</ele><time>2026-04-11T16:06:09Z</time></trkpt><trkpt lat="45.519469641168975" lon="8.395617547281002"><ele>193.0</ele><time>2026-04-11T16:06:10Z</time></trkpt><trkpt lat="45.51957819707281" lon="8.395617259793086"><ele>193.2</ele><time>2026-04-11T16:06:11Z</time></trkpt><trkpt lat="45.51968906226233" lon="8.39561540695088"><ele>193.4</ele><time>2026-04-11T16:06:12Z</time></trkpt><trkpt lat="45.51979944225272" lon="8.395610778022759"><ele>193.6</ele><time>2026-04-11T16:06:13Z</time></trkpt><trkpt lat="45.51991087015981" lon="8.395617538630566"><ele>193.79999999999998</ele><time>2026-04-11T16:06:14Z</time></trkpt><trkpt lat="45.52002174368402" lon="8.395620362307668"><ele>194.0</ele><time>2026-04-11T16:06:15Z</time></trkpt><trkpt lat="45.52013282617324" lon="8.395625291306587"><ele>194.0</ele><time>2026-04-11T16:06:16Z</time></trkpt><trkpt lat="45.52024498910287" lon="8.39562429939519"><ele>194.0</ele><time>2026-04-11T16:06:17Z</time></trkpt><trkpt lat="45.52035683799347" lon="8.395617067442544"><ele>194.0</ele><time>2026-04-11T16:06:18Z</time></trkpt><trkpt lat="45.52046851506061" lon="8.395619980993724"><ele>194.0</ele><time>2026-04-11T16:06:19Z</time></trkpt><trkpt lat="45.520576817387045" lon="8.395623102250294"><ele>194.0</ele><time>2026-04-11T16:06:20Z</time></trkpt><trkpt lat="45.52068289006435" lon="8.395651976357938"><ele>194.2</ele><time>2026-04-11T16:06:21Z</time></trkpt><trkpt lat="45.520786402765445" lon="8.395620390112247"><ele>194.39999999999998</ele><time>2026-04-11T16:06:22Z</time></trkpt><trkpt lat="45.520888009415614" lon="8.395594668133466"><ele>194.6</ele><time>2026-04-11T16:06:23Z</time></trkpt><trkpt lat="45.520987243417416" lon="8.39554062921541"><ele>194.8</ele><time>2026-04-11T16:06:24Z</time></trkpt><trkpt lat="45.521086004771156" lon="8.395478206698591"><ele>195.0</ele><time>2026-04-11T16:06:25Z</time></trkpt><trkpt lat="45.521182609388795" lon="8.395410780846925"><ele>195.4</ele><time>2026-04-11T16:06:26Z</time></trkpt><trkpt lat="45.521287511209735" lon="8.395368625051939"><ele>195.8</ele><time>2026-04-11T16:06:27Z</time></trkpt><trkpt lat="45.52138915615606" lon="8.39530780094819"><ele>196.2</ele><time>2026-04-11T16:06:28Z</time></trkpt><trkpt lat="45.52149059861485" lon="8.395247097904843"><ele>196.6</ele><time>2026-04-11T16:06:29Z</time></trkpt><trkpt lat="45.52158340197282" lon="8.3951660044901"><ele>197.0</ele><time>2026-04-11T16:06:30Z</time></trkpt><trkpt lat="45.52168245694936" lon="8.395102969389587"><ele>197.0</ele><time>2026-04-11T16:06:31Z</time></trkpt><trkpt lat="45.521775805792274" lon="8.395023835244338"><ele>197.0</ele><time>2026-04-11T16:06:32Z</time></trkpt><trkpt lat="45.5218596530362" lon="8.394923527769485"><ele>197.0</ele><time>2026-04-11T16:06:33Z</time></trkpt><trkpt lat="45.521941573436706" lon="8.394812617757864"><ele>197.0</ele><time>2026-04-11T16:06:34Z</time></trkpt><trkpt lat="45.522023400344246" lon="8.394697339514211"><ele>197.0</ele><time>2026-04-11T16:06:35Z</time></trkpt><trkpt lat="45.52211702782436" lon="8.394596714502413"><ele>197.5</ele><time>2026-04-11T16:06:36Z</time></trkpt><trkpt lat="45.522190241944514" lon="8.394465231127988"><ele>198.0</ele><time>2026-04-11T16:06:37Z</time></trkpt><trkpt lat="45.52227590669819" lon="8.394349498500336"><ele>198.5</ele><time>2026-04-11T16:06:38Z</time></trkpt><trkpt lat="45.5223632558729" lon="8.394230577703938"><ele>199.0</ele><time>2026-04-11T16:06:39Z</time></trkpt><trkpt lat="45.522454014076835" lon="8.394120618626724"><ele>199.0</ele><time>2026-04-11T16:06:40Z</time></trkpt><trkpt lat="45.52254306456553" lon="8.394008108732761"><ele>199.0</ele><time>2026-04-11T16:06:41Z</time></trkpt><trkpt lat="45.52264028815732" lon="8.39391222257939"><ele>199.0</ele><time>2026-04-11T16:06:42Z</time></trkpt><trkpt lat="45.522729001903194" lon="8.393805839982663"><ele>199.0</ele><time>2026-04-11T16:06:43Z</time></trkpt><trkpt lat="45.52281790598369" lon="8.39369850529709"><ele>199.0</ele><time>2026-04-11T16:06:44Z</time></trkpt><trkpt lat="45.522904664291" lon="8.393591613018017"><ele>199.0</ele><time>2026-04-11T16:06:45Z</time></trkpt><trkpt lat="45.52299240648029" lon="8.393490230498928"><ele>199.0</ele><time>2026-04-11T16:06:46Z</time></trkpt><trkpt lat="45.52308589258279" lon="8.393399017150177"><ele>199.0</ele><time>2026-04-11T16:06:47Z</time></trkpt><trkpt lat="45.52318401019814" lon="8.393317094712346"><ele>199.0</ele><time>2026-04-11T16:06:48Z</time></trkpt><trkpt lat="45.523279215336835" lon="8.393226628614489"><ele>199.0</ele><time>2026-04-11T16:06:49Z</time></trkpt><trkpt lat="45.52337923856298" lon="8.393150623067054"><ele>199.0</ele><time>2026-04-11T16:06:50Z</time></trkpt><trkpt lat="45.523480537194295" lon="8.393075191542316"><ele>199.0</ele><time>2026-04-11T16:06:51Z</time></trkpt><trkpt lat="45.5235794402375" lon="8.393002944198235"><ele>199.0</ele><time>2026-04-11T16:06:52Z</time></trkpt><trkpt lat="45.523675872006024" lon="8.392926487254178"><ele>199.0</ele><time>2026-04-11T16:06:53Z</time></trkpt><trkpt lat="45.52377659234898" lon="8.39288661734354"><ele>199.0</ele><time>2026-04-11T16:06:54Z</time></trkpt><trkpt lat="45.523870348396095" lon="8.392831244514591"><ele>199.0</ele><time>2026-04-11T16:06:55Z</time></trkpt><trkpt lat="45.523962015314886" lon="8.39278316310919"><ele>199.0</ele><time>2026-04-11T16:06:56Z</time></trkpt><trkpt lat="45.52405286437232" lon="8.39274145170939"><ele>198.99999999999997</ele><time>2026-04-11T16:06:57Z</time></trkpt><trkpt lat="45.524148241926206" lon="8.392708671739738"><ele>199.0</ele><time>2026-04-11T16:06:58Z</time></trkpt><trkpt lat="45.524243751004434" lon="8.392695854153954"><ele>199.0</ele><time>2026-04-11T16:06:59Z</time></trkpt><trkpt lat="45.524336033404005" lon="8.39269983274061"><ele>199.0</ele><time>2026-04-11T16:07:00Z</time></trkpt><trkpt lat="45.52442139930242" lon="8.392697822129035"><ele>198.99999999999997</ele><time>2026-04-11T16:07:00.999Z</time></trkpt><trkpt lat="45.52448647522212" lon="8.39269285288495"><ele>199.0</ele><time>2026-04-11T16:07:01.999Z</time></trkpt><trkpt lat="45.524578929498226" lon="8.39264954560649"><ele>199.0</ele><time>2026-04-11T16:07:03.999Z</time></trkpt><trkpt lat="45.52462175207866" lon="8.39256562393702"><ele>199.0</ele><time>2026-04-11T16:07:07.999Z</time></trkpt><trkpt lat="45.52468761074697" lon="8.392266010356465"><ele>199.0</ele><time>2026-04-11T16:07:58.999Z</time></trkpt><trkpt lat="45.524739407074485" lon="8.392099242304747"><ele>199.0</ele><time>2026-04-11T16:08:00.999Z</time></trkpt><trkpt lat="45.52484546718697" lon="8.392016065578304"><ele>198.49999999999997</ele><time>2026-04-11T16:08:02.999Z</time></trkpt><trkpt lat="45.52490612382895" lon="8.3919394332951"><ele>198.0</ele><time>2026-04-11T16:08:03.999Z</time></trkpt><trkpt lat="45.524979013546435" lon="8.391883625861768"><ele>197.5</ele><time>2026-04-11T16:08:04.999Z</time></trkpt><trkpt lat="45.52505731854113" lon="8.391825105767406"><ele>197.0</ele><time>2026-04-11T16:08:05.998Z</time></trkpt><trkpt lat="45.525139720808" lon="8.391762765018708"><ele>196.49999999999997</ele><time>2026-04-11T16:08:06.998Z</time></trkpt><trkpt lat="45.525223836241445" lon="8.391693437845024"><ele>196.0</ele><time>2026-04-11T16:08:07.998Z</time></trkpt><trkpt lat="45.52530087904114" lon="8.391606006096579"><ele>195.99999999999997</ele><time>2026-04-11T16:08:08.998Z</time></trkpt><trkpt lat="45.525367067226306" lon="8.391496628483745"><ele>196.0</ele><time>2026-04-11T16:08:09.998Z</time></trkpt><trkpt lat="45.525425168326734" lon="8.391380682801332"><ele>196.0</ele><time>2026-04-11T16:08:10.998Z</time></trkpt><trkpt lat="45.5254702375065" lon="8.391276457464247"><ele>196.0</ele><time>2026-04-11T16:08:12Z</time></trkpt><trkpt lat="45.52549947762806" lon="8.391194474217999"><ele>195.99999999999997</ele><time>2026-04-11T16:08:13Z</time></trkpt><trkpt lat="45.52555442014243" lon="8.39109548181855"><ele>196.0</ele><time>2026-04-11T16:08:15Z</time></trkpt><trkpt lat="45.52565559602518" lon="8.39107698791179"><ele>196.33333333333331</ele><time>2026-04-11T16:08:17Z</time></trkpt><trkpt lat="45.52574595040925" lon="8.391051173825867"><ele>196.66666666666666</ele><time>2026-04-11T16:08:19Z</time></trkpt><trkpt lat="45.52578746737516" lon="8.390980744784464"><ele>197.0</ele><time>2026-04-11T16:08:20Z</time></trkpt><trkpt lat="45.52581198506826" lon="8.390877425335312"><ele>197.33333333333331</ele><time>2026-04-11T16:08:21Z</time></trkpt><trkpt lat="45.52581822863447" lon="8.390765059637305"><ele>197.66666666666666</ele><time>2026-04-11T16:08:22Z</time></trkpt><trkpt lat="45.525837657081254" lon="8.390646186499389"><ele>198.0</ele><time>2026-04-11T16:08:23Z</time></trkpt><trkpt lat="45.52587271472886" lon="8.39052749285186"><ele>197.83333333333334</ele><time>2026-04-11T16:08:24Z</time></trkpt><trkpt lat="45.52591723568745" lon="8.390416402921046"><ele>197.66666666666669</ele><time>2026-04-11T16:08:25Z</time></trkpt><trkpt lat="45.52599075068129" lon="8.39034465759458"><ele>197.5</ele><time>2026-04-11T16:08:26Z</time></trkpt><trkpt lat="45.52605403433048" lon="8.390269066388639"><ele>197.33333333333334</ele><time>2026-04-11T16:08:27Z</time></trkpt><trkpt lat="45.52612034633479" lon="8.390196880322614"><ele>197.16666666666669</ele><time>2026-04-11T16:08:28Z</time></trkpt><trkpt lat="45.52620046576239" lon="8.390166830972701"><ele>197.0</ele><time>2026-04-11T16:08:29Z</time></trkpt><trkpt lat="45.526290115957806" lon="8.39015292337036"><ele>197.0</ele><time>2026-04-11T16:08:30Z</time></trkpt><trkpt lat="45.52638992455186" lon="8.390151578970306"><ele>197.0</ele><time>2026-04-11T16:08:31Z</time></trkpt><trkpt lat="45.52649490515634" lon="8.390158726361413"><ele>197.0</ele><time>2026-04-11T16:08:32Z</time></trkpt><trkpt lat="45.52660467678573" lon="8.390164714790426"><ele>197.0</ele><time>2026-04-11T16:08:33Z</time></trkpt><trkpt lat="45.5267165870042" lon="8.390166794293677"><ele>197.0</ele><time>2026-04-11T16:08:34Z</time></trkpt><trkpt lat="45.526829979614455" lon="8.390161579527891"><ele>197.0</ele><time>2026-04-11T16:08:35Z</time></trkpt><trkpt lat="45.52694426092021" lon="8.390152360825596"><ele>197.0</ele><time>2026-04-11T16:08:36Z</time></trkpt><trkpt lat="45.52705857945343" lon="8.39013729464914"><ele>197.0</ele><time>2026-04-11T16:08:37Z</time></trkpt><trkpt lat="45.527171844782316" lon="8.39010754602068"><ele>197.0</ele><time>2026-04-11T16:08:38Z</time></trkpt><trkpt lat="45.52727598197855" lon="8.390052294852781"><ele>197.0</ele><time>2026-04-11T16:08:39Z</time></trkpt><trkpt lat="45.52736832598015" lon="8.389985162373678"><ele>197.0</ele><time>2026-04-11T16:08:40Z</time></trkpt><trkpt lat="45.52745703533559" lon="8.389940643072533"><ele>197.0</ele><time>2026-04-11T16:08:41Z</time></trkpt><trkpt lat="45.527552747881856" lon="8.389934522294414"><ele>197.0</ele><time>2026-04-11T16:08:42Z</time></trkpt><trkpt lat="45.52765127286952" lon="8.389960106058965"><ele>197.0</ele><time>2026-04-11T16:08:43Z</time></trkpt><trkpt lat="45.52775584775277" lon="8.389995176940399"><ele>197.0</ele><time>2026-04-11T16:08:44Z</time></trkpt><trkpt lat="45.527868445461834" lon="8.390034253033706"><ele>197.0</ele><time>2026-04-11T16:08:45Z</time></trkpt><trkpt lat="45.5279856768303" lon="8.39007790468086"><ele>197.0</ele><time>2026-04-11T16:08:46Z</time></trkpt><trkpt lat="45.52810534778709" lon="8.390123534810623"><ele>197.0</ele><time>2026-04-11T16:08:47Z</time></trkpt><trkpt lat="45.52822662199856" lon="8.390169583913481"><ele>197.0</ele><time>2026-04-11T16:08:48Z</time></trkpt><trkpt lat="45.52834773879729" lon="8.3902120746413"><ele>197.0</ele><time>2026-04-11T16:08:49Z</time></trkpt><trkpt lat="45.528468790583766" lon="8.390253853995699"><ele>197.0</ele><time>2026-04-11T16:08:50Z</time></trkpt><trkpt lat="45.528586528660746" lon="8.39029564731119"><ele>197.0</ele><time>2026-04-11T16:08:51Z</time></trkpt><trkpt lat="45.52869562625557" lon="8.390333929259501"><ele>197.39999999999998</ele><time>2026-04-11T16:08:52Z</time></trkpt><trkpt lat="45.5287931796461" lon="8.390378425798158"><ele>197.79999999999998</ele><time>2026-04-11T16:08:53Z</time></trkpt><trkpt lat="45.52888053800078" lon="8.390446887731366"><ele>198.2</ele><time>2026-04-11T16:08:54Z</time></trkpt><trkpt lat="45.52896053330234" lon="8.3905395054048"><ele>198.6</ele><time>2026-04-11T16:08:55Z</time></trkpt><trkpt lat="45.52904024400641" lon="8.390644283508623"><ele>199.0</ele><time>2026-04-11T16:08:56Z</time></trkpt><trkpt lat="45.529120899259404" lon="8.390746955361653"><ele>198.99999999999997</ele><time>2026-04-11T16:08:57Z</time></trkpt><trkpt lat="45.529191865448325" lon="8.390829915690512"><ele>199.0</ele><time>2026-04-11T16:08:58Z</time></trkpt><trkpt lat="45.52924861019065" lon="8.390892840984625"><ele>199.0</ele><time>2026-04-11T16:08:59Z</time></trkpt><trkpt lat="45.52932530618892" lon="8.390964684343281"><ele>199.0</ele><time>2026-04-11T16:09:01Z</time></trkpt><trkpt lat="45.52937960887287" lon="8.391056053603984"><ele>198.99999999999997</ele><time>2026-04-11T16:09:02.999Z</time></trkpt><trkpt lat="45.52940167931901" lon="8.391164933768007"><ele>199.0</ele><time>2026-04-11T16:09:03.999Z</time></trkpt><trkpt lat="45.52942076468383" lon="8.391294662009178"><ele>199.25</ele><time>2026-04-11T16:09:04.999Z</time></trkpt><trkpt lat="45.52944002810403" lon="8.391435645885768"><ele>199.5</ele><time>2026-04-11T16:09:05.999Z</time></trkpt><trkpt lat="45.5294602105367" lon="8.391591094464873"><ele>199.75</ele><time>2026-04-11T16:09:06.999Z</time></trkpt><trkpt lat="45.529483103050694" lon="8.39175539848749"><ele>200.0</ele><time>2026-04-11T16:09:07.999Z</time></trkpt><trkpt lat="45.529509415734736" lon="8.39192638825936"><ele>200.0</ele><time>2026-04-11T16:09:08.999Z</time></trkpt><trkpt lat="45.529536920724105" lon="8.392103082275657"><ele>200.0</ele><time>2026-04-11T16:09:09.999Z</time></trkpt><trkpt lat="45.529562636493765" lon="8.39228342743253"><ele>200.0</ele><time>2026-04-11T16:09:10.999Z</time></trkpt><trkpt lat="45.529587656645624" lon="8.392468442179515"><ele>200.0</ele><time>2026-04-11T16:09:11.999Z</time></trkpt><trkpt lat="45.52961501452319" lon="8.392655687720692"><ele>200.0</ele><time>2026-04-11T16:09:12.999Z</time></trkpt><trkpt lat="45.52964344890422" lon="8.39284621309086"><ele>200.0</ele><time>2026-04-11T16:09:13.999Z</time></trkpt><trkpt lat="45.529671851458396" lon="8.393040317260287"><ele>200.0</ele><time>2026-04-11T16:09:14.999Z</time></trkpt><trkpt lat="45.52970085846693" lon="8.393236578950175"><ele>200.0</ele><time>2026-04-11T16:09:15.999Z</time></trkpt><trkpt lat="45.52972822374002" lon="8.393435572150759"><ele>200.25</ele><time>2026-04-11T16:09:16.999Z</time></trkpt><trkpt lat="45.529755598966105" lon="8.393635419251533"><ele>200.5</ele><time>2026-04-11T16:09:17.999Z</time></trkpt><trkpt lat="45.52978426156637" lon="8.393836034000097"><ele>200.75</ele><time>2026-04-11T16:09:18.999Z</time></trkpt><trkpt lat="45.52981322048723" lon="8.39403586415229"><ele>201.0</ele><time>2026-04-11T16:09:19.999Z</time></trkpt><trkpt lat="45.52984115855222" lon="8.394236800526244"><ele>201.0</ele><time>2026-04-11T16:09:20.999Z</time></trkpt><trkpt lat="45.52986853679963" lon="8.394439733491389"><ele>201.0</ele><time>2026-04-11T16:09:21.999Z</time></trkpt><trkpt lat="45.529898154371836" lon="8.394641412997618"><ele>201.0</ele><time>2026-04-11T16:09:22.999Z</time></trkpt><trkpt lat="45.52992547081754" lon="8.39484273987991"><ele>201.0</ele><time>2026-04-11T16:09:23.999Z</time></trkpt><trkpt lat="45.5299516966649" lon="8.395041077590477"><ele>200.0</ele><time>2026-04-11T16:09:24.999Z</time></trkpt><trkpt lat="45.529979717155605" lon="8.395239574202959"><ele>199.0</ele><time>2026-04-11T16:09:25.999Z</time></trkpt><trkpt lat="45.530007741156474" lon="8.395435504197668"><ele>198.0</ele><time>2026-04-11T16:09:26.999Z</time></trkpt><trkpt lat="45.530036134991875" lon="8.395631321569047"><ele>197.0</ele><time>2026-04-11T16:09:27.999Z</time></trkpt><trkpt lat="45.530062874159874" lon="8.39582748233983"><ele>196.75</ele><time>2026-04-11T16:09:28.999Z</time></trkpt><trkpt lat="45.530089776621516" lon="8.396022497638102"><ele>196.5</ele><time>2026-04-11T16:09:29.999Z</time></trkpt><trkpt lat="45.53011659471885" lon="8.396216334732403"><ele>196.25</ele><time>2026-04-11T16:09:30.999Z</time></trkpt><trkpt lat="45.530144501653346" lon="8.39641013932739"><ele>196.0</ele><time>2026-04-11T16:09:31.999Z</time></trkpt><trkpt lat="45.530172379379444" lon="8.396603567513004"><ele>195.75</ele><time>2026-04-11T16:09:32.999Z</time></trkpt><trkpt lat="45.530199765748456" lon="8.396798451701509"><ele>195.5</ele><time>2026-04-11T16:09:33.999Z</time></trkpt><trkpt lat="45.530227583796794" lon="8.396992351668755"><ele>195.25</ele><time>2026-04-11T16:09:34.999Z</time></trkpt><trkpt lat="45.53025526167584" lon="8.397185872944064"><ele>195.0</ele><time>2026-04-11T16:09:35.999Z</time></trkpt><trkpt lat="45.530284020193434" lon="8.397377285662639"><ele>195.0</ele><time>2026-04-11T16:09:36.999Z</time></trkpt><trkpt lat="45.53031156518699" lon="8.39756688523843"><ele>195.0</ele><time>2026-04-11T16:09:37.999Z</time></trkpt><trkpt lat="45.53033791610316" lon="8.397754888781144"><ele>195.0</ele><time>2026-04-11T16:09:38.999Z</time></trkpt><trkpt lat="45.53036528202024" lon="8.397939494295272"><ele>195.0</ele><time>2026-04-11T16:09:39.999Z</time></trkpt><trkpt lat="45.530391976093185" lon="8.398118145108672"><ele>196.0</ele><time>2026-04-11T16:09:40.999Z</time></trkpt><trkpt lat="45.53041676787527" lon="8.398292042532251"><ele>197.0</ele><time>2026-04-11T16:09:41.999Z</time></trkpt><trkpt lat="45.53044030668153" lon="8.398458904578458"><ele>198.0</ele><time>2026-04-11T16:09:42.999Z</time></trkpt><trkpt lat="45.53046328719537" lon="8.398612169772136"><ele>199.0</ele><time>2026-04-11T16:09:43.999Z</time></trkpt><trkpt lat="45.53048259357557" lon="8.398749972480381"><ele>199.33333333333331</ele><time>2026-04-11T16:09:44.999Z</time></trkpt><trkpt lat="45.530495602461045" lon="8.398881272915723"><ele>199.66666666666666</ele><time>2026-04-11T16:09:45.999Z</time></trkpt><trkpt lat="45.53048470190106" lon="8.398994798069529"><ele>200.0</ele><time>2026-04-11T16:09:46.999Z</time></trkpt><trkpt lat="45.53047094355029" lon="8.399093764580085"><ele>200.33333333333331</ele><time>2026-04-11T16:09:47.999Z</time></trkpt><trkpt lat="45.53050318604787" lon="8.399230645602794"><ele>200.66666666666666</ele><time>2026-04-11T16:09:49.999Z</time></trkpt><trkpt lat="45.53045581064501" lon="8.399309661231731"><ele>201.0</ele><time>2026-04-11T16:09:50.999Z</time></trkpt><trkpt lat="45.53046856865788" lon="8.399399495609481"><ele>201.0</ele><time>2026-04-11T16:09:53.999Z</time></trkpt><trkpt lat="45.53041822865204" lon="8.399455802218299"><ele>201.0</ele><time>2026-04-11T16:13:52.999Z</time></trkpt><trkpt lat="45.530365274174805" lon="8.399511805782733"><ele>201.0</ele><time>2026-04-11T16:13:59.999Z</time></trkpt><trkpt lat="45.53042554630661" lon="8.39947740734892"><ele>201.0</ele><time>2026-04-11T16:15:10Z</time></trkpt><trkpt lat="45.530494736384" lon="8.399544313739767"><ele>201.0</ele><time>2026-04-11T16:24:21.999Z</time></trkpt><trkpt lat="45.530552214603084" lon="8.399604701026695"><ele>201.0</ele><time>2026-04-11T16:24:23.999Z</time></trkpt><trkpt lat="45.53061677403541" lon="8.399723530551919"><ele>201.0</ele><time>2026-04-11T16:24:33.998Z</time></trkpt><trkpt lat="45.530628743638495" lon="8.399819578490378"><ele>201.0</ele><time>2026-04-11T16:24:34.998Z</time></trkpt><trkpt lat="45.530639164212204" lon="8.39992782640735"><ele>201.0</ele><time>2026-04-11T16:24:35.998Z</time></trkpt><trkpt lat="45.530655455731456" lon="8.400048012592453"><ele>201.0</ele><time>2026-04-11T16:24:36.998Z</time></trkpt><trkpt lat="45.53067540475371" lon="8.400176185004076"><ele>201.0</ele><time>2026-04-11T16:24:37.998Z</time></trkpt><trkpt lat="45.53069449259006" lon="8.40030930097865"><ele>201.0</ele><time>2026-04-11T16:24:38.998Z</time></trkpt><trkpt lat="45.53071267814839" lon="8.400451952735006"><ele>201.4</ele><time>2026-04-11T16:24:39.998Z</time></trkpt><trkpt lat="45.530732916628615" lon="8.400598103941617"><ele>201.8</ele><time>2026-04-11T16:24:40.998Z</time></trkpt><trkpt lat="45.53075451780033" lon="8.400751545432886"><ele>202.20000000000002</ele><time>2026-04-11T16:24:41.998Z</time></trkpt><trkpt lat="45.530777010954296" lon="8.400906258167058"><ele>202.60000000000002</ele><time>2026-04-11T16:24:42.998Z</time></trkpt><trkpt lat="45.53079963100058" lon="8.401057195045214"><ele>203.0</ele><time>2026-04-11T16:24:43.998Z</time></trkpt><trkpt lat="45.530821068172365" lon="8.40119980335548"><ele>203.50000000000003</ele><time>2026-04-11T16:24:44.998Z</time></trkpt><trkpt lat="45.53084129618874" lon="8.401334213995742"><ele>204.0</ele><time>2026-04-11T16:24:45.998Z</time></trkpt><trkpt lat="45.53085580380026" lon="8.401439101255376"><ele>204.5</ele><time>2026-04-11T16:24:46.998Z</time></trkpt><trkpt lat="45.530875839929706" lon="8.401578180850931"><ele>205.0</ele><time>2026-04-11T16:24:48.998Z</time></trkpt><trkpt lat="45.53080575019445" lon="8.401574312676757"><ele>205.50000000000003</ele><time>2026-04-11T16:24:53.998Z</time></trkpt><trkpt lat="45.53077369724065" lon="8.401494896301438"><ele>206.0</ele><time>2026-04-11T16:24:54.998Z</time></trkpt><trkpt lat="45.53069941766434" lon="8.401344555129166"><ele>205.57142857142856</ele><time>2026-04-11T16:24:56.998Z</time></trkpt><trkpt lat="45.53064787057161" lon="8.401275155967745"><ele>205.14285714285714</ele><time>2026-04-11T16:24:57.998Z</time></trkpt><trkpt lat="45.530598144308364" lon="8.401200826310408"><ele>204.71428571428572</ele><time>2026-04-11T16:24:59Z</time></trkpt><trkpt lat="45.53052733628148" lon="8.401173038960104"><ele>204.28571428571428</ele><time>2026-04-11T16:25:00Z</time></trkpt><trkpt lat="45.530454539118" lon="8.401159300644432"><ele>203.85714285714286</ele><time>2026-04-11T16:25:01Z</time></trkpt><trkpt lat="45.53038030877096" lon="8.401156218592863"><ele>203.42857142857142</ele><time>2026-04-11T16:25:02Z</time></trkpt><trkpt lat="45.53030540706227" lon="8.401156134865143"><ele>203.0</ele><time>2026-04-11T16:25:03Z</time></trkpt><trkpt lat="45.53022928553343" lon="8.401151609516013"><ele>202.66666666666669</ele><time>2026-04-11T16:25:04Z</time></trkpt><trkpt lat="45.53015162007216" lon="8.401142913089917"><ele>202.33333333333334</ele><time>2026-04-11T16:25:05Z</time></trkpt><trkpt lat="45.53007165146197" lon="8.401134245530596"><ele>202.0</ele><time>2026-04-11T16:25:06Z</time></trkpt><trkpt lat="45.5299892090769" lon="8.401133461866982"><ele>201.66666666666669</ele><time>2026-04-11T16:25:07Z</time></trkpt><trkpt lat="45.52990779695254" lon="8.401146469835385"><ele>201.33333333333334</ele><time>2026-04-11T16:25:08Z</time></trkpt><trkpt lat="45.529825199253" lon="8.401171230094477"><ele>201.0</ele><time>2026-04-11T16:25:09Z</time></trkpt><trkpt lat="45.52974452556392" lon="8.4012106567269"><ele>201.0</ele><time>2026-04-11T16:25:10Z</time></trkpt><trkpt lat="45.52966685311694" lon="8.401263031878525"><ele>201.0</ele><time>2026-04-11T16:25:11Z</time></trkpt><trkpt lat="45.529590354644625" lon="8.40132359109179"><ele>201.0</ele><time>2026-04-11T16:25:12Z</time></trkpt><trkpt lat="45.52950338241554" lon="8.401355757347195"><ele>201.0</ele><time>2026-04-11T16:25:13Z</time></trkpt><trkpt lat="45.5294216980715" lon="8.401410534923825"><ele>201.0</ele><time>2026-04-11T16:25:14Z</time></trkpt><trkpt lat="45.52934781828976" lon="8.401482709827377"><ele>201.0</ele><time>2026-04-11T16:25:15Z</time></trkpt><trkpt lat="45.52926269309578" lon="8.401523526235302"><ele>201.14285714285714</ele><time>2026-04-11T16:25:16Z</time></trkpt><trkpt lat="45.52918215128583" lon="8.401559166151111"><ele>201.2857142857143</ele><time>2026-04-11T16:25:17Z</time></trkpt><trkpt lat="45.529108607532464" lon="8.40160018442695"><ele>201.42857142857144</ele><time>2026-04-11T16:25:18Z</time></trkpt><trkpt lat="45.52903973486784" lon="8.401646579344979"><ele>201.57142857142856</ele><time>2026-04-11T16:25:19Z</time></trkpt><trkpt lat="45.528975063451774" lon="8.401696791789375"><ele>201.71428571428572</ele><time>2026-04-11T16:25:20Z</time></trkpt><trkpt lat="45.52890946285274" lon="8.401725434733395"><ele>201.85714285714286</ele><time>2026-04-11T16:25:21Z</time></trkpt><trkpt lat="45.528845061238535" lon="8.40175552281052"><ele>202.0</ele><time>2026-04-11T16:25:22Z</time></trkpt><trkpt lat="45.52878003519736" lon="8.401783345761292"><ele>202.0</ele><time>2026-04-11T16:25:23Z</time></trkpt><trkpt lat="45.52871797048045" lon="8.401807465217658"><ele>202.0</ele><time>2026-04-11T16:25:24Z</time></trkpt><trkpt lat="45.528654216787544" lon="8.401829611677167"><ele>202.0</ele><time>2026-04-11T16:25:25Z</time></trkpt><trkpt lat="45.52859487393468" lon="8.401871007968863"><ele>202.0</ele><time>2026-04-11T16:25:26Z</time></trkpt><trkpt lat="45.528530622425265" lon="8.401886855576876"><ele>202.0</ele><time>2026-04-11T16:25:27Z</time></trkpt><trkpt lat="45.52846730196388" lon="8.401878909944651"><ele>202.0</ele><time>2026-04-11T16:25:28Z</time></trkpt><trkpt lat="45.52840630787028" lon="8.401906550731304"><ele>202.0</ele><time>2026-04-11T16:25:29Z</time></trkpt><trkpt lat="45.528290016271946" lon="8.40192040499963"><ele>201.99999999999997</ele><time>2026-04-11T16:25:30.999Z</time></trkpt><trkpt lat="45.52817732415142" lon="8.401946159050677"><ele>202.0</ele><time>2026-04-11T16:25:32.999Z</time></trkpt><trkpt lat="45.528110969916895" lon="8.40192512617003"><ele>202.0</ele><time>2026-04-11T16:25:33.999Z</time></trkpt><trkpt lat="45.52804199780096" lon="8.401944393884882"><ele>202.0</ele><time>2026-04-11T16:25:34.999Z</time></trkpt><trkpt lat="45.5279686214007" lon="8.401974750780754"><ele>201.99999999999997</ele><time>2026-04-11T16:25:35.999Z</time></trkpt><trkpt lat="45.52789013958558" lon="8.402008356125052"><ele>202.0</ele><time>2026-04-11T16:25:36.999Z</time></trkpt><trkpt lat="45.527807519995434" lon="8.40204162053979"><ele>202.0</ele><time>2026-04-11T16:25:37.999Z</time></trkpt><trkpt lat="45.527727301618356" lon="8.402095886679989"><ele>202.0</ele><time>2026-04-11T16:25:38.999Z</time></trkpt><trkpt lat="45.527640358306584" lon="8.402122974228245"><ele>202.0</ele><time>2026-04-11T16:25:39.999Z</time></trkpt><trkpt lat="45.527549073297116" lon="8.402118096031465"><ele>202.0</ele><time>2026-04-11T16:25:40.999Z</time></trkpt><trkpt lat="45.52746011771583" lon="8.402142882520007"><ele>202.0</ele><time>2026-04-11T16:25:41.999Z</time></trkpt><trkpt lat="45.52737404090338" lon="8.402204431578907"><ele>201.99999999999997</ele><time>2026-04-11T16:25:42.999Z</time></trkpt><trkpt lat="45.52730559694771" lon="8.402293239401494"><ele>202.0</ele><time>2026-04-11T16:25:43.999Z</time></trkpt><trkpt lat="45.52722765204947" lon="8.402358722147229"><ele>202.0</ele><time>2026-04-11T16:25:44.999Z</time></trkpt><trkpt lat="45.52714758194522" lon="8.40239221893945"><ele>202.0</ele><time>2026-04-11T16:25:45.999Z</time></trkpt><trkpt lat="45.52708705929833" lon="8.402449606530825"><ele>201.99999999999997</ele><time>2026-04-11T16:25:46.999Z</time></trkpt><trkpt lat="45.52701728481717" lon="8.40246994587713"><ele>202.0</ele><time>2026-04-11T16:25:47.999Z</time></trkpt><trkpt lat="45.526903174909776" lon="8.402451091010912"><ele>201.6</ele><time>2026-04-11T16:25:49.999Z</time></trkpt><trkpt lat="45.526817825262825" lon="8.402418968077752"><ele>201.2</ele><time>2026-04-11T16:25:51.999Z</time></trkpt><trkpt lat="45.5267285137226" lon="8.402391434019727"><ele>200.8</ele><time>2026-04-11T16:25:54.999Z</time></trkpt><trkpt lat="45.52666649067253" lon="8.402360236286261"><ele>200.4</ele><time>2026-04-11T16:25:58.999Z</time></trkpt><trkpt lat="45.5266839674795" lon="8.402120375659191"><ele>200.0</ele><time>2026-04-11T16:26:01.999Z</time></trkpt><trkpt lat="45.52665228688866" lon="8.40203264148139"><ele>199.83333333333334</ele><time>2026-04-11T16:26:03.999Z</time></trkpt><trkpt lat="45.526623938393264" lon="8.401924437816417"><ele>199.66666666666669</ele><time>2026-04-11T16:26:06.999Z</time></trkpt><trkpt lat="45.52660378905067" lon="8.401822651188414"><ele>199.5</ele><time>2026-04-11T16:26:09.999Z</time></trkpt><trkpt lat="45.52658459147273" lon="8.401735844263948"><ele>199.33333333333331</ele><time>2026-04-11T16:26:12.999Z</time></trkpt><trkpt lat="45.52658329307747" lon="8.401644548721407"><ele>199.16666666666666</ele><time>2026-04-11T16:26:14.999Z</time></trkpt><trkpt lat="45.52656759552411" lon="8.401513092991436"><ele>199.0</ele><time>2026-04-11T16:26:16.999Z</time></trkpt><trkpt lat="45.52655397243327" lon="8.40132680277879"><ele>199.0</ele><time>2026-04-11T16:26:18.999Z</time></trkpt><trkpt lat="45.52652890013588" lon="8.401166270984595"><ele>199.0</ele><time>2026-04-11T16:26:20.999Z</time></trkpt><trkpt lat="45.526443881763086" lon="8.401096113293926"><ele>199.0</ele><time>2026-04-11T16:26:22.999Z</time></trkpt><trkpt lat="45.526344268864804" lon="8.401125360312847"><ele>199.0</ele><time>2026-04-11T16:26:24.999Z</time></trkpt><trkpt lat="45.52622692336696" lon="8.401143912599434"><ele>199.0</ele><time>2026-04-11T16:26:26.999Z</time></trkpt><trkpt lat="45.52616126346476" lon="8.401155061070286"><ele>198.99999999999997</ele><time>2026-04-11T16:26:27.999Z</time></trkpt><trkpt lat="45.52608762272399" lon="8.401165653748793"><ele>199.0</ele><time>2026-04-11T16:26:28.999Z</time></trkpt><trkpt lat="45.52600881444376" lon="8.401174349658948"><ele>199.0</ele><time>2026-04-11T16:26:29.999Z</time></trkpt><trkpt lat="45.525942718009304" lon="8.401187537965315"><ele>199.0</ele><time>2026-04-11T16:26:30.999Z</time></trkpt><trkpt lat="45.52587708724261" lon="8.401201100522103"><ele>199.0</ele><time>2026-04-11T16:26:31.999Z</time></trkpt><trkpt lat="45.52581275604049" lon="8.40119816061341"><ele>198.99999999999997</ele><time>2026-04-11T16:26:32.999Z</time></trkpt><trkpt lat="45.525726456406346" lon="8.401230068549477"><ele>199.0</ele><time>2026-04-11T16:26:33.999Z</time></trkpt><trkpt lat="45.52561150563216" lon="8.401197610457853"><ele>199.0</ele><time>2026-04-11T16:26:35.998Z</time></trkpt><trkpt lat="45.52549342402716" lon="8.401130501368506"><ele>199.0</ele><time>2026-04-11T16:26:37.998Z</time></trkpt><trkpt lat="45.525370960618226" lon="8.401130300038988"><ele>199.0</ele><time>2026-04-11T16:26:39.998Z</time></trkpt><trkpt lat="45.52530898253817" lon="8.40114860723176"><ele>199.0</ele><time>2026-04-11T16:26:40.998Z</time></trkpt><trkpt lat="45.52524437052539" lon="8.401171815642535"><ele>199.0</ele><time>2026-04-11T16:26:41.998Z</time></trkpt><trkpt lat="45.52517542706382" lon="8.40120925345315"><ele>199.0</ele><time>2026-04-11T16:26:42.998Z</time></trkpt><trkpt lat="45.52509864587302" lon="8.401262470623209"><ele>199.0</ele><time>2026-04-11T16:26:43.998Z</time></trkpt><trkpt lat="45.52501750277818" lon="8.401326012192326"><ele>199.0</ele><time>2026-04-11T16:26:44.998Z</time></trkpt><trkpt lat="45.52492954512689" lon="8.401382306700242"><ele>199.0</ele><time>2026-04-11T16:26:45.998Z</time></trkpt><trkpt lat="45.52483882582187" lon="8.401437843181977"><ele>199.0</ele><time>2026-04-11T16:26:46.998Z</time></trkpt><trkpt lat="45.52474570877528" lon="8.401500520404799"><ele>199.0</ele><time>2026-04-11T16:26:47.998Z</time></trkpt><trkpt lat="45.52465059939196" lon="8.401565600183865"><ele>199.0</ele><time>2026-04-11T16:26:48.998Z</time></trkpt><trkpt lat="45.52455336219138" lon="8.401633139117902"><ele>199.0</ele><time>2026-04-11T16:26:49.998Z</time></trkpt><trkpt lat="45.52445097183722" lon="8.401697126419156"><ele>199.0</ele><time>2026-04-11T16:26:50.998Z</time></trkpt><trkpt lat="45.52434655552029" lon="8.401764767630823"><ele>199.0</ele><time>2026-04-11T16:26:51.998Z</time></trkpt><trkpt lat="45.52424133241781" lon="8.401829163245816"><ele>198.75</ele><time>2026-04-11T16:26:52.998Z</time></trkpt><trkpt lat="45.524136245690286" lon="8.40189919203023"><ele>198.5</ele><time>2026-04-11T16:26:53.998Z</time></trkpt><trkpt lat="45.524033179372935" lon="8.40197673393846"><ele>198.25</ele><time>2026-04-11T16:26:54.998Z</time></trkpt><trkpt lat="45.52392552267953" lon="8.402048164373628"><ele>198.0</ele><time>2026-04-11T16:26:55.998Z</time></trkpt><trkpt lat="45.52382075710493" lon="8.402116377607488"><ele>198.25</ele><time>2026-04-11T16:26:56.998Z</time></trkpt><trkpt lat="45.523715514356354" lon="8.40218944146571"><ele>198.5</ele><time>2026-04-11T16:26:57.998Z</time></trkpt><trkpt lat="45.52360620245629" lon="8.402258089803553"><ele>198.75</ele><time>2026-04-11T16:26:58.998Z</time></trkpt><trkpt lat="45.52350110836839" lon="8.402329422668167"><ele>199.0</ele><time>2026-04-11T16:26:59.998Z</time></trkpt><trkpt lat="45.5233953205801" lon="8.402395503617653"><ele>199.0</ele><time>2026-04-11T16:27:00.998Z</time></trkpt><trkpt lat="45.52328865415309" lon="8.40245797400087"><ele>199.0</ele><time>2026-04-11T16:27:01.998Z</time></trkpt><trkpt lat="45.523178917969254" lon="8.402514283406886"><ele>199.0</ele><time>2026-04-11T16:27:02.998Z</time></trkpt><trkpt lat="45.52306764740308" lon="8.402560088538849"><ele>199.0</ele><time>2026-04-11T16:27:03.998Z</time></trkpt><trkpt lat="45.522954144880345" lon="8.402611012859762"><ele>198.5</ele><time>2026-04-11T16:27:05Z</time></trkpt><trkpt lat="45.522841369178394" lon="8.402658330761875"><ele>198.0</ele><time>2026-04-11T16:27:06Z</time></trkpt><trkpt lat="45.52272762500517" lon="8.402701576888212"><ele>197.5</ele><time>2026-04-11T16:27:07Z</time></trkpt><trkpt lat="45.522616727224175" lon="8.40274619062253"><ele>197.0</ele><time>2026-04-11T16:27:08Z</time></trkpt><trkpt lat="45.5225058736855" lon="8.402792514523037"><ele>197.0</ele><time>2026-04-11T16:27:09Z</time></trkpt><trkpt lat="45.52239618076273" lon="8.402839611034922"><ele>197.0</ele><time>2026-04-11T16:27:10Z</time></trkpt><trkpt lat="45.522287017315506" lon="8.402885114432918"><ele>197.0</ele><time>2026-04-11T16:27:11Z</time></trkpt><trkpt lat="45.52217948974085" lon="8.402929176315213"><ele>197.0</ele><time>2026-04-11T16:27:12Z</time></trkpt><trkpt lat="45.52207279644799" lon="8.402976256444967"><ele>197.39999999999998</ele><time>2026-04-11T16:27:13Z</time></trkpt><trkpt lat="45.5219662133895" lon="8.403023039102656"><ele>197.79999999999998</ele><time>2026-04-11T16:27:14Z</time></trkpt><trkpt lat="45.52186055538066" lon="8.40306803064591"><ele>198.2</ele><time>2026-04-11T16:27:15Z</time></trkpt><trkpt lat="45.52175431738145" lon="8.40311640023764"><ele>198.6</ele><time>2026-04-11T16:27:16Z</time></trkpt><trkpt lat="45.5216467580632" lon="8.403164122802757"><ele>199.0</ele><time>2026-04-11T16:27:17Z</time></trkpt><trkpt lat="45.521537843203724" lon="8.40320970023018"><ele>199.0</ele><time>2026-04-11T16:27:18Z</time></trkpt><trkpt lat="45.52142992876775" lon="8.403254797422061"><ele>199.0</ele><time>2026-04-11T16:27:19Z</time></trkpt><trkpt lat="45.52131937877083" lon="8.40330128158909"><ele>199.0</ele><time>2026-04-11T16:27:20Z</time></trkpt><trkpt lat="45.52120872170702" lon="8.403354224042229"><ele>199.0</ele><time>2026-04-11T16:27:21Z</time></trkpt><trkpt lat="45.521095534525514" lon="8.403398732637376"><ele>198.5</ele><time>2026-04-11T16:27:22Z</time></trkpt><trkpt lat="45.52098158871902" lon="8.403441926297917"><ele>198.0</ele><time>2026-04-11T16:27:23Z</time></trkpt><trkpt lat="45.52086839463401" lon="8.403489080717264"><ele>197.5</ele><time>2026-04-11T16:27:24Z</time></trkpt><trkpt lat="45.520751929424314" lon="8.403540043526453"><ele>197.0</ele><time>2026-04-11T16:27:25Z</time></trkpt><trkpt lat="45.520638783748026" lon="8.403589121147279"><ele>197.0</ele><time>2026-04-11T16:27:26Z</time></trkpt><trkpt lat="45.520527348091115" lon="8.403636117376301"><ele>197.0</ele><time>2026-04-11T16:27:27Z</time></trkpt><trkpt lat="45.5204178740774" lon="8.403683362552579"><ele>197.0</ele><time>2026-04-11T16:27:28Z</time></trkpt><trkpt lat="45.520307644629284" lon="8.403732048412108"><ele>197.0</ele><time>2026-04-11T16:27:29Z</time></trkpt><trkpt lat="45.520199762007" lon="8.40377883218059"><ele>197.0</ele><time>2026-04-11T16:27:30Z</time></trkpt><trkpt lat="45.52008944042426" lon="8.403822653180507"><ele>197.0</ele><time>2026-04-11T16:27:31Z</time></trkpt><trkpt lat="45.51998026153934" lon="8.403863530153492"><ele>197.0</ele><time>2026-04-11T16:27:32Z</time></trkpt><trkpt lat="45.51987075473314" lon="8.40390684750686"><ele>197.0</ele><time>2026-04-11T16:27:32.999Z</time></trkpt><trkpt lat="45.51976247106801" lon="8.4039534425558"><ele>197.0</ele><time>2026-04-11T16:27:33.999Z</time></trkpt><trkpt lat="45.51965211860559" lon="8.404007279592237"><ele>197.0</ele><time>2026-04-11T16:27:34.999Z</time></trkpt><trkpt lat="45.519542752573294" lon="8.40405812334111"><ele>197.0</ele><time>2026-04-11T16:27:35.999Z</time></trkpt><trkpt lat="45.51943460880641" lon="8.404101862043966"><ele>197.0</ele><time>2026-04-11T16:27:36.999Z</time></trkpt><trkpt lat="45.51932411515346" lon="8.40414497666532"><ele>196.75</ele><time>2026-04-11T16:27:37.999Z</time></trkpt><trkpt lat="45.51921692667513" lon="8.404192198272202"><ele>196.5</ele><time>2026-04-11T16:27:38.999Z</time></trkpt><trkpt lat="45.519108283842144" lon="8.404245314952776"><ele>196.25</ele><time>2026-04-11T16:27:39.999Z</time></trkpt><trkpt lat="45.51900056626479" lon="8.404297583227052"><ele>196.0</ele><time>2026-04-11T16:27:40.999Z</time></trkpt><trkpt lat="45.518891520178734" lon="8.404347553159628"><ele>196.0</ele><time>2026-04-11T16:27:41.999Z</time></trkpt><trkpt lat="45.51878396937048" lon="8.404398815228898"><ele>196.0</ele><time>2026-04-11T16:27:42.999Z</time></trkpt><trkpt lat="45.51867309597682" lon="8.404441001185354"><ele>196.0</ele><time>2026-04-11T16:27:43.999Z</time></trkpt><trkpt lat="45.51856814678725" lon="8.40449412850603"><ele>196.0</ele><time>2026-04-11T16:27:44.999Z</time></trkpt><trkpt lat="45.51846158874152" lon="8.40454294932869"><ele>196.20000000000002</ele><time>2026-04-11T16:27:45.999Z</time></trkpt><trkpt lat="45.51835500486308" lon="8.404596620861978"><ele>196.4</ele><time>2026-04-11T16:27:46.999Z</time></trkpt><trkpt lat="45.518250107778435" lon="8.40464291063096"><ele>196.6</ele><time>2026-04-11T16:27:47.999Z</time></trkpt><trkpt lat="45.51814632699166" lon="8.40469063244653"><ele>196.8</ele><time>2026-04-11T16:27:48.999Z</time></trkpt><trkpt lat="45.51804216991048" lon="8.404737025518589"><ele>197.0</ele><time>2026-04-11T16:27:49.999Z</time></trkpt><trkpt lat="45.517937569539384" lon="8.404776705517902"><ele>196.6</ele><time>2026-04-11T16:27:50.999Z</time></trkpt><trkpt lat="45.517834133490794" lon="8.404815868576609"><ele>196.2</ele><time>2026-04-11T16:27:51.999Z</time></trkpt><trkpt lat="45.51772940344117" lon="8.404858775389568"><ele>195.8</ele><time>2026-04-11T16:27:52.999Z</time></trkpt><trkpt lat="45.51762390936656" lon="8.404898290774305"><ele>195.4</ele><time>2026-04-11T16:27:53.999Z</time></trkpt><trkpt lat="45.517516931828354" lon="8.404938947665247"><ele>195.0</ele><time>2026-04-11T16:27:54.999Z</time></trkpt><trkpt lat="45.51740976623495" lon="8.40497802991962"><ele>195.0</ele><time>2026-04-11T16:27:55.999Z</time></trkpt><trkpt lat="45.51730437341963" lon="8.405022203789994"><ele>195.0</ele><time>2026-04-11T16:27:56.999Z</time></trkpt><trkpt lat="45.517197736648086" lon="8.405065633425085"><ele>195.0</ele><time>2026-04-11T16:27:57.999Z</time></trkpt><trkpt lat="45.517089915387416" lon="8.405111968569608"><ele>195.0</ele><time>2026-04-11T16:27:58.999Z</time></trkpt><trkpt lat="45.51698277474355" lon="8.40515685616757"><ele>195.0</ele><time>2026-04-11T16:27:59.999Z</time></trkpt><trkpt lat="45.51687570895747" lon="8.405205291892981"><ele>194.6</ele><time>2026-04-11T16:28:00.999Z</time></trkpt><trkpt lat="45.51676808198625" lon="8.405251632843932"><ele>194.2</ele><time>2026-04-11T16:28:01.999Z</time></trkpt><trkpt lat="45.51666268639459" lon="8.40529944311896"><ele>193.8</ele><time>2026-04-11T16:28:02.999Z</time></trkpt><trkpt lat="45.516555679282476" lon="8.40534876243177"><ele>193.4</ele><time>2026-04-11T16:28:03.999Z</time></trkpt><trkpt lat="45.51644810569908" lon="8.405392531646717"><ele>193.0</ele><time>2026-04-11T16:28:04.999Z</time></trkpt><trkpt lat="45.516341074341604" lon="8.405442493872922"><ele>193.0</ele><time>2026-04-11T16:28:05.999Z</time></trkpt><trkpt lat="45.51623326746476" lon="8.405485506624032"><ele>193.0</ele><time>2026-04-11T16:28:06.999Z</time></trkpt><trkpt lat="45.51612553659988" lon="8.405534148619314"><ele>193.0</ele><time>2026-04-11T16:28:07.999Z</time></trkpt><trkpt lat="45.5160170123039" lon="8.40557892572305"><ele>193.0</ele><time>2026-04-11T16:28:08.999Z</time></trkpt><trkpt lat="45.515909192530266" lon="8.405625224117113"><ele>193.0</ele><time>2026-04-11T16:28:09.999Z</time></trkpt><trkpt lat="45.51579982817794" lon="8.40567225929558"><ele>193.0</ele><time>2026-04-11T16:28:10.999Z</time></trkpt><trkpt lat="45.51569163783149" lon="8.405716179644724"><ele>193.0</ele><time>2026-04-11T16:28:11.999Z</time></trkpt><trkpt lat="45.51558267476025" lon="8.405761821067149"><ele>193.0</ele><time>2026-04-11T16:28:12.999Z</time></trkpt><trkpt lat="45.515475506397195" lon="8.405812291042157"><ele>192.5</ele><time>2026-04-11T16:28:13.999Z</time></trkpt><trkpt lat="45.51536498096858" lon="8.4058624942517"><ele>192.0</ele><time>2026-04-11T16:28:14.999Z</time></trkpt><trkpt lat="45.515256865765785" lon="8.40591145257569"><ele>191.5</ele><time>2026-04-11T16:28:15.999Z</time></trkpt><trkpt lat="45.5151456346312" lon="8.405955587527584"><ele>191.0</ele><time>2026-04-11T16:28:16.999Z</time></trkpt><trkpt lat="45.5150368162818" lon="8.406002938693089"><ele>191.0</ele><time>2026-04-11T16:28:17.999Z</time></trkpt><trkpt lat="45.51492744130194" lon="8.406055149671843"><ele>191.0</ele><time>2026-04-11T16:28:18.999Z</time></trkpt><trkpt lat="45.51481817087128" lon="8.406098564168934"><ele>191.0</ele><time>2026-04-11T16:28:19.999Z</time></trkpt><trkpt lat="45.51470754165826" lon="8.406140889574829"><ele>191.0</ele><time>2026-04-11T16:28:20.999Z</time></trkpt><trkpt lat="45.514600100834336" lon="8.406187904742243"><ele>191.0</ele><time>2026-04-11T16:28:21.999Z</time></trkpt><trkpt lat="45.51449025686567" lon="8.406234957786724"><ele>191.0</ele><time>2026-04-11T16:28:22.999Z</time></trkpt><trkpt lat="45.51438155229404" lon="8.406285258216995"><ele>191.0</ele><time>2026-04-11T16:28:23.999Z</time></trkpt><trkpt lat="45.51427381819079" lon="8.406332258788503"><ele>191.0</ele><time>2026-04-11T16:28:24.999Z</time></trkpt><trkpt lat="45.51416426855786" lon="8.406383624754886"><ele>191.5</ele><time>2026-04-11T16:28:25.999Z</time></trkpt><trkpt lat="45.51405210959186" lon="8.406430904484955"><ele>192.0</ele><time>2026-04-11T16:28:26.999Z</time></trkpt><trkpt lat="45.513941432336736" lon="8.406479800439856"><ele>192.5</ele><time>2026-04-11T16:28:27.999Z</time></trkpt><trkpt lat="45.51383067790012" lon="8.406527662992133"><ele>193.0</ele><time>2026-04-11T16:28:28.999Z</time></trkpt><trkpt lat="45.513721390030874" lon="8.406579498290908"><ele>193.25</ele><time>2026-04-11T16:28:29.999Z</time></trkpt><trkpt lat="45.513609663380535" lon="8.406628097446625"><ele>193.5</ele><time>2026-04-11T16:28:30.999Z</time></trkpt><trkpt lat="45.5135015618513" lon="8.406676723695893"><ele>193.75</ele><time>2026-04-11T16:28:31.999Z</time></trkpt><trkpt lat="45.51339391861916" lon="8.406720724180326"><ele>194.0</ele><time>2026-04-11T16:28:32.999Z</time></trkpt><trkpt lat="45.51328759693211" lon="8.406764150684157"><ele>194.0</ele><time>2026-04-11T16:28:33.999Z</time></trkpt><trkpt lat="45.513187124539414" lon="8.406810536257657"><ele>194.0</ele><time>2026-04-11T16:28:34.999Z</time></trkpt><trkpt lat="45.51308782156817" lon="8.406853242079224"><ele>194.0</ele><time>2026-04-11T16:28:35.999Z</time></trkpt><trkpt lat="45.51299761750105" lon="8.406890882412819"><ele>194.0</ele><time>2026-04-11T16:28:36.999Z</time></trkpt><trkpt lat="45.51291658506067" lon="8.406923311881254"><ele>194.0</ele><time>2026-04-11T16:28:37.999Z</time></trkpt><trkpt lat="45.512848770374255" lon="8.406943882797203"><ele>193.39999999999998</ele><time>2026-04-11T16:28:38.998Z</time></trkpt><trkpt lat="45.51274595466731" lon="8.406990932949862"><ele>192.8</ele><time>2026-04-11T16:28:40.998Z</time></trkpt><trkpt lat="45.51268601906418" lon="8.407087359124462"><ele>192.2</ele><time>2026-04-11T16:28:42.998Z</time></trkpt><trkpt lat="45.51266637613668" lon="8.40720560459569"><ele>191.60000000000002</ele><time>2026-04-11T16:28:44.998Z</time></trkpt><trkpt lat="45.51260329124257" lon="8.407276341280905"><ele>191.0</ele><time>2026-04-11T16:28:46.998Z</time></trkpt><trkpt lat="45.51250286449041" lon="8.40727561514002"><ele>190.8</ele><time>2026-04-11T16:28:48.998Z</time></trkpt><trkpt lat="45.51242626944402" lon="8.407304329142562"><ele>190.60000000000002</ele><time>2026-04-11T16:28:50.998Z</time></trkpt><trkpt lat="45.51238292024066" lon="8.407387262311897"><ele>190.4</ele><time>2026-04-11T16:28:52.998Z</time></trkpt><trkpt lat="45.512317758000016" lon="8.407398974375363"><ele>190.2</ele><time>2026-04-11T16:28:54.998Z</time></trkpt><trkpt lat="45.51225022594843" lon="8.407358748798387"><ele>190.0</ele><time>2026-04-11T16:28:57.998Z</time></trkpt><trkpt lat="45.51205018980047" lon="8.407338453621971"><ele>190.0</ele><time>2026-04-11T16:29:24Z</time></trkpt><trkpt lat="45.51198480382997" lon="8.40733713134786"><ele>190.0</ele><time>2026-04-11T16:29:25Z</time></trkpt><trkpt lat="45.51191187899083" lon="8.407339924800638"><ele>190.0</ele><time>2026-04-11T16:29:26Z</time></trkpt><trkpt lat="45.51183238791108" lon="8.40734228405662"><ele>190.0</ele><time>2026-04-11T16:29:27Z</time></trkpt><trkpt lat="45.51174993258959" lon="8.407347946326526"><ele>190.0</ele><time>2026-04-11T16:29:28Z</time></trkpt><trkpt lat="45.511664929023304" lon="8.407348668428083"><ele>190.0</ele><time>2026-04-11T16:29:29Z</time></trkpt><trkpt lat="45.511575082933135" lon="8.407353379140575"><ele>190.0</ele><time>2026-04-11T16:29:30Z</time></trkpt><trkpt lat="45.51147935647416" lon="8.407361970763858"><ele>190.0</ele><time>2026-04-11T16:29:31Z</time></trkpt><trkpt lat="45.51138224920212" lon="8.407365310619653"><ele>190.0</ele><time>2026-04-11T16:29:32Z</time></trkpt><trkpt lat="45.51128516988684" lon="8.407366835779552"><ele>190.0</ele><time>2026-04-11T16:29:33Z</time></trkpt><trkpt lat="45.51119146435549" lon="8.407376156375577"><ele>190.0</ele><time>2026-04-11T16:29:34Z</time></trkpt><trkpt lat="45.511104194849125" lon="8.407410828628024"><ele>189.4</ele><time>2026-04-11T16:29:35Z</time></trkpt><trkpt lat="45.51102374612239" lon="8.407481097473243"><ele>188.8</ele><time>2026-04-11T16:29:35.999Z</time></trkpt><trkpt lat="45.51095603467373" lon="8.407573400797606"><ele>188.2</ele><time>2026-04-11T16:29:36.999Z</time></trkpt><trkpt lat="45.51088981451892" lon="8.40765433200796"><ele>187.6</ele><time>2026-04-11T16:29:37.999Z</time></trkpt><trkpt lat="45.510810615113655" lon="8.407713488688833"><ele>187.0</ele><time>2026-04-11T16:29:38.999Z</time></trkpt><trkpt lat="45.51072876046226" lon="8.407770681063699"><ele>187.0</ele><time>2026-04-11T16:29:39.999Z</time></trkpt><trkpt lat="45.51064081615166" lon="8.407808604773907"><ele>187.0</ele><time>2026-04-11T16:29:40.999Z</time></trkpt><trkpt lat="45.51055629023301" lon="8.407849203742806"><ele>187.0</ele><time>2026-04-11T16:29:41.999Z</time></trkpt><trkpt lat="45.510475308979636" lon="8.40789211474079"><ele>187.0</ele><time>2026-04-11T16:29:42.999Z</time></trkpt><trkpt lat="45.510394410146226" lon="8.407930747514495"><ele>187.0</ele><time>2026-04-11T16:29:43.999Z</time></trkpt><trkpt lat="45.5103143496944" lon="8.407965257580331"><ele>187.0</ele><time>2026-04-11T16:29:44.999Z</time></trkpt><trkpt lat="45.51023220351056" lon="8.408004135084289"><ele>187.16666666666669</ele><time>2026-04-11T16:29:45.999Z</time></trkpt><trkpt lat="45.51015243332423" lon="8.408039880268767"><ele>187.33333333333334</ele><time>2026-04-11T16:29:46.999Z</time></trkpt><trkpt lat="45.510073134982875" lon="8.40805104977892"><ele>187.5</ele><time>2026-04-11T16:29:47.999Z</time></trkpt><trkpt lat="45.50999665514306" lon="8.408027059477938"><ele>187.66666666666666</ele><time>2026-04-11T16:29:48.999Z</time></trkpt><trkpt lat="45.50992822205221" lon="8.407966270074976"><ele>187.83333333333331</ele><time>2026-04-11T16:29:49.999Z</time></trkpt><trkpt lat="45.5098615055229" lon="8.407898099508675"><ele>188.0</ele><time>2026-04-11T16:29:50.999Z</time></trkpt><trkpt lat="45.509796450326064" lon="8.40783190578042"><ele>188.0</ele><time>2026-04-11T16:29:51.999Z</time></trkpt><trkpt lat="45.50972392910171" lon="8.407790290981195"><ele>188.0</ele><time>2026-04-11T16:29:52.999Z</time></trkpt><trkpt lat="45.509653387733465" lon="8.407774441326039"><ele>188.0</ele><time>2026-04-11T16:29:53.999Z</time></trkpt><trkpt lat="45.509588271504384" lon="8.4078027277606"><ele>188.0</ele><time>2026-04-11T16:29:54.999Z</time></trkpt><trkpt lat="45.50953529919921" lon="8.407872900632237"><ele>188.0</ele><time>2026-04-11T16:29:55.999Z</time></trkpt><trkpt lat="45.50948395645062" lon="8.407946410661921"><ele>188.0</ele><time>2026-04-11T16:29:56.999Z</time></trkpt><trkpt lat="45.50942177011493" lon="8.408014969856975"><ele>188.0</ele><time>2026-04-11T16:29:57.999Z</time></trkpt><trkpt lat="45.5093529289261" lon="8.40808233796004"><ele>188.0</ele><time>2026-04-11T16:29:58.999Z</time></trkpt><trkpt lat="45.509278907173915" lon="8.408129581435654"><ele>188.0</ele><time>2026-04-11T16:29:59.999Z</time></trkpt><trkpt lat="45.50919492806639" lon="8.408150008428578"><ele>188.0</ele><time>2026-04-11T16:30:00.999Z</time></trkpt><trkpt lat="45.50910749121922" lon="8.408150700868593"><ele>188.0</ele><time>2026-04-11T16:30:01.999Z</time></trkpt><trkpt lat="45.509022634714555" lon="8.408142314833801"><ele>188.0</ele><time>2026-04-11T16:30:02.999Z</time></trkpt><trkpt lat="45.5089348293934" lon="8.408132669149692"><ele>188.0</ele><time>2026-04-11T16:30:03.999Z</time></trkpt><trkpt lat="45.508847193720975" lon="8.408133039893936"><ele>188.0</ele><time>2026-04-11T16:30:04.999Z</time></trkpt><trkpt lat="45.50875818037591" lon="8.408153356151965"><ele>188.0</ele><time>2026-04-11T16:30:05.999Z</time></trkpt><trkpt lat="45.50866776552144" lon="8.408181264690626"><ele>188.0</ele><time>2026-04-11T16:30:06.999Z</time></trkpt><trkpt lat="45.50858104017957" lon="8.408220737305474"><ele>188.0</ele><time>2026-04-11T16:30:07.999Z</time></trkpt><trkpt lat="45.50849508898632" lon="8.408263138900132"><ele>188.0</ele><time>2026-04-11T16:30:08.999Z</time></trkpt><trkpt lat="45.50841112042606" lon="8.40830958602772"><ele>187.60000000000002</ele><time>2026-04-11T16:30:09.999Z</time></trkpt><trkpt lat="45.50832576461324" lon="8.408364618994574"><ele>187.20000000000002</ele><time>2026-04-11T16:30:10.999Z</time></trkpt><trkpt lat="45.50823903035879" lon="8.408411135331326"><ele>186.8</ele><time>2026-04-11T16:30:11.999Z</time></trkpt><trkpt lat="45.50815019900637" lon="8.408456649854793"><ele>186.4</ele><time>2026-04-11T16:30:12.999Z</time></trkpt><trkpt lat="45.50806520908373" lon="8.40849913371194"><ele>186.0</ele><time>2026-04-11T16:30:13.999Z</time></trkpt><trkpt lat="45.507983064134315" lon="8.40853857861976"><ele>186.20000000000002</ele><time>2026-04-11T16:30:14.999Z</time></trkpt><trkpt lat="45.5078974455687" lon="8.408585895854142"><ele>186.4</ele><time>2026-04-11T16:30:15.999Z</time></trkpt><trkpt lat="45.507812731897005" lon="8.408625358105866"><ele>186.6</ele><time>2026-04-11T16:30:16.999Z</time></trkpt><trkpt lat="45.50772449563891" lon="8.40866271467928"><ele>186.8</ele><time>2026-04-11T16:30:17.999Z</time></trkpt><trkpt lat="45.50763839389581" lon="8.408702629187824"><ele>187.0</ele><time>2026-04-11T16:30:18.999Z</time></trkpt><trkpt lat="45.50755187767607" lon="8.408754517743713"><ele>187.0</ele><time>2026-04-11T16:30:19.999Z</time></trkpt><trkpt lat="45.50746520099109" lon="8.408797186426046"><ele>187.0</ele><time>2026-04-11T16:30:20.999Z</time></trkpt><trkpt lat="45.50738039571836" lon="8.408842233828427"><ele>187.0</ele><time>2026-04-11T16:30:21.999Z</time></trkpt><trkpt lat="45.50730001891696" lon="8.408888393962561"><ele>187.0</ele><time>2026-04-11T16:30:22.999Z</time></trkpt><trkpt lat="45.507231766657895" lon="8.40894815248252"><ele>187.0</ele><time>2026-04-11T16:30:23.999Z</time></trkpt><trkpt lat="45.507165735558495" lon="8.409005846040658"><ele>187.0</ele><time>2026-04-11T16:30:24.999Z</time></trkpt><trkpt lat="45.507103944716135" lon="8.409065071970002"><ele>187.0</ele><time>2026-04-11T16:30:25.999Z</time></trkpt><trkpt lat="45.50704440163853" lon="8.409134583959707"><ele>187.0</ele><time>2026-04-11T16:30:26.999Z</time></trkpt><trkpt lat="45.506985299407276" lon="8.409210512310521"><ele>187.0</ele><time>2026-04-11T16:30:27.999Z</time></trkpt><trkpt lat="45.50693502663077" lon="8.409295879526862"><ele>187.0</ele><time>2026-04-11T16:30:28.999Z</time></trkpt><trkpt lat="45.50688461822641" lon="8.409377790437212"><ele>187.0</ele><time>2026-04-11T16:30:29.999Z</time></trkpt><trkpt lat="45.50683714688417" lon="8.409463363856608"><ele>187.0</ele><time>2026-04-11T16:30:30.999Z</time></trkpt><trkpt lat="45.50679300050935" lon="8.409555845305169"><ele>187.0</ele><time>2026-04-11T16:30:31.999Z</time></trkpt><trkpt lat="45.50675278046816" lon="8.409653908952642"><ele>187.0</ele><time>2026-04-11T16:30:32.999Z</time></trkpt><trkpt lat="45.506716369388684" lon="8.409754465691613"><ele>187.0</ele><time>2026-04-11T16:30:33.999Z</time></trkpt><trkpt lat="45.50668764955042" lon="8.409861638681381"><ele>187.0</ele><time>2026-04-11T16:30:34.999Z</time></trkpt><trkpt lat="45.50666361475353" lon="8.409972461405639"><ele>187.0</ele><time>2026-04-11T16:30:35.999Z</time></trkpt><trkpt lat="45.50664546665503" lon="8.41008499948954"><ele>187.0</ele><time>2026-04-11T16:30:36.999Z</time></trkpt><trkpt lat="45.506630041347094" lon="8.410198680048055"><ele>186.66666666666669</ele><time>2026-04-11T16:30:37.999Z</time></trkpt><trkpt lat="45.50661878575962" lon="8.410312855941394"><ele>186.33333333333334</ele><time>2026-04-11T16:30:38.999Z</time></trkpt><trkpt lat="45.5066094520427" lon="8.410429256846108"><ele>186.0</ele><time>2026-04-11T16:30:39.999Z</time></trkpt><trkpt lat="45.50659841562851" lon="8.410544737355762"><ele>185.66666666666666</ele><time>2026-04-11T16:30:40.999Z</time></trkpt><trkpt lat="45.506587369702075" lon="8.410660233768036"><ele>185.33333333333331</ele><time>2026-04-11T16:30:41.998Z</time></trkpt><trkpt lat="45.50657848140977" lon="8.410776319304906"><ele>185.0</ele><time>2026-04-11T16:30:42.998Z</time></trkpt><trkpt lat="45.50657378665922" lon="8.410895109359044"><ele>185.0</ele><time>2026-04-11T16:30:43.998Z</time></trkpt><trkpt lat="45.50657457902554" lon="8.411014253888839"><ele>185.0</ele><time>2026-04-11T16:30:44.998Z</time></trkpt><trkpt lat="45.50658343921167" lon="8.411132435147145"><ele>185.0</ele><time>2026-04-11T16:30:45.998Z</time></trkpt><trkpt lat="45.50659782283579" lon="8.411252073553474"><ele>185.0</ele><time>2026-04-11T16:30:46.998Z</time></trkpt><trkpt lat="45.50661755405851" lon="8.411369406252309"><ele>185.0</ele><time>2026-04-11T16:30:47.998Z</time></trkpt><trkpt lat="45.50663759914708" lon="8.411485278569268"><ele>185.0</ele><time>2026-04-11T16:30:48.998Z</time></trkpt><trkpt lat="45.50665882535262" lon="8.411598301637984"><ele>185.33333333333331</ele><time>2026-04-11T16:30:49.998Z</time></trkpt><trkpt lat="45.506674265611814" lon="8.411714238258002"><ele>185.66666666666666</ele><time>2026-04-11T16:30:50.998Z</time></trkpt><trkpt lat="45.50669448271614" lon="8.4118272611885"><ele>186.0</ele><time>2026-04-11T16:30:51.998Z</time></trkpt><trkpt lat="45.506709293671825" lon="8.411942716492105"><ele>186.33333333333334</ele><time>2026-04-11T16:30:52.998Z</time></trkpt><trkpt lat="45.506716503148816" lon="8.412058949554993"><ele>186.66666666666669</ele><time>2026-04-11T16:30:53.998Z</time></trkpt><trkpt lat="45.506716571027546" lon="8.412172789024668"><ele>187.0</ele><time>2026-04-11T16:30:54.998Z</time></trkpt><trkpt lat="45.50671539297312" lon="8.412289008276147"><ele>187.0</ele><time>2026-04-11T16:30:55.998Z</time></trkpt><trkpt lat="45.50671505037534" lon="8.412406391620559"><ele>187.0</ele><time>2026-04-11T16:30:56.998Z</time></trkpt><trkpt lat="45.50672079109241" lon="8.41252769188799"><ele>187.0</ele><time>2026-04-11T16:30:57.998Z</time></trkpt><trkpt lat="45.5067300601482" lon="8.412646919666022"><ele>187.0</ele><time>2026-04-11T16:30:58.998Z</time></trkpt><trkpt lat="45.506743665520865" lon="8.412766141649369"><ele>187.0</ele><time>2026-04-11T16:30:59.998Z</time></trkpt><trkpt lat="45.506760219707886" lon="8.412885437960094"><ele>187.0</ele><time>2026-04-11T16:31:00.998Z</time></trkpt><trkpt lat="45.50677964219274" lon="8.413005848307465"><ele>186.83333333333334</ele><time>2026-04-11T16:31:01.998Z</time></trkpt><trkpt lat="45.50679884170388" lon="8.413123557014274"><ele>186.66666666666669</ele><time>2026-04-11T16:31:02.998Z</time></trkpt><trkpt lat="45.506816378283816" lon="8.413244031749839"><ele>186.5</ele><time>2026-04-11T16:31:03.998Z</time></trkpt><trkpt lat="45.50683543493195" lon="8.413363288307318"><ele>186.33333333333334</ele><time>2026-04-11T16:31:04.998Z</time></trkpt><trkpt lat="45.50685467256824" lon="8.413480280521377"><ele>186.16666666666666</ele><time>2026-04-11T16:31:05.998Z</time></trkpt><trkpt lat="45.506875940848886" lon="8.413597630454198"><ele>186.0</ele><time>2026-04-11T16:31:06.998Z</time></trkpt><trkpt lat="45.506898239240584" lon="8.413711156373964"><ele>186.0</ele><time>2026-04-11T16:31:07.998Z</time></trkpt><trkpt lat="45.506920412071004" lon="8.413825537420005"><ele>186.0</ele><time>2026-04-11T16:31:08.998Z</time></trkpt><trkpt lat="45.506946420390335" lon="8.413939135636683"><ele>186.0</ele><time>2026-04-11T16:31:09.998Z</time></trkpt><trkpt lat="45.50696853309842" lon="8.414056698535505"><ele>186.0</ele><time>2026-04-11T16:31:10.998Z</time></trkpt><trkpt lat="45.50699180119101" lon="8.414173317324217"><ele>186.0</ele><time>2026-04-11T16:31:11.998Z</time></trkpt><trkpt lat="45.507008480215106" lon="8.414290260185004"><ele>186.0</ele><time>2026-04-11T16:31:12.998Z</time></trkpt><trkpt lat="45.507024388145766" lon="8.414405695646893"><ele>186.0</ele><time>2026-04-11T16:31:13.998Z</time></trkpt><trkpt lat="45.50703671655462" lon="8.414523204840492"><ele>186.0</ele><time>2026-04-11T16:31:14.998Z</time></trkpt><trkpt lat="45.50704814752045" lon="8.414640938494262"><ele>186.0</ele><time>2026-04-11T16:31:15.998Z</time></trkpt><trkpt lat="45.507059113226305" lon="8.414759282792177"><ele>186.0</ele><time>2026-04-11T16:31:17Z</time></trkpt><trkpt lat="45.50706813975037" lon="8.414879185038998"><ele>186.0</ele><time>2026-04-11T16:31:18Z</time></trkpt><trkpt lat="45.507077071689" lon="8.415000267805569"><ele>186.0</ele><time>2026-04-11T16:31:19Z</time></trkpt><trkpt lat="45.50709048524498" lon="8.415120408990104"><ele>186.66666666666666</ele><time>2026-04-11T16:31:20Z</time></trkpt><trkpt lat="45.507089331749" lon="8.415243782371068"><ele>187.33333333333334</ele><time>2026-04-11T16:31:21Z</time></trkpt><trkpt lat="45.50711593477236" lon="8.415360916270703"><ele>188.0</ele><time>2026-04-11T16:31:22Z</time></trkpt><trkpt lat="45.50712460164946" lon="8.415478808994598"><ele>188.66666666666669</ele><time>2026-04-11T16:31:23Z</time></trkpt><trkpt lat="45.507134928029906" lon="8.41559531443962"><ele>189.33333333333334</ele><time>2026-04-11T16:31:24Z</time></trkpt><trkpt lat="45.50714719215813" lon="8.415708630457912"><ele>190.0</ele><time>2026-04-11T16:31:25Z</time></trkpt><trkpt lat="45.507157588778625" lon="8.415806818018135"><ele>190.0</ele><time>2026-04-11T16:31:26Z</time></trkpt><trkpt lat="45.5071627177276" lon="8.415970181692808"><ele>190.0</ele><time>2026-04-11T16:31:28Z</time></trkpt><trkpt lat="45.50717389178311" lon="8.416083863572576"><ele>190.0</ele><time>2026-04-11T16:31:30Z</time></trkpt><trkpt lat="45.50711787213649" lon="8.416037424416155"><ele>190.0</ele><time>2026-04-11T16:31:31Z</time></trkpt><trkpt lat="45.50703456320553" lon="8.416037508357318"><ele>190.0</ele><time>2026-04-11T16:31:33Z</time></trkpt><trkpt lat="45.50697024187144" lon="8.416026896733577"><ele>190.0</ele><time>2026-04-11T16:31:34Z</time></trkpt><trkpt lat="45.50690244262003" lon="8.416015613930915"><ele>189.5</ele><time>2026-04-11T16:31:35Z</time></trkpt><trkpt lat="45.50683320913811" lon="8.416002732672679"><ele>189.0</ele><time>2026-04-11T16:31:36Z</time></trkpt><trkpt lat="45.50675774018388" lon="8.41598428149108"><ele>188.5</ele><time>2026-04-11T16:31:37Z</time></trkpt><trkpt lat="45.506677352224216" lon="8.415963927827924"><ele>188.0</ele><time>2026-04-11T16:31:38Z</time></trkpt><trkpt lat="45.50659605844247" lon="8.415939716844656"><ele>187.5</ele><time>2026-04-11T16:31:39Z</time></trkpt><trkpt lat="45.50651188259539" lon="8.415906623893976"><ele>187.0</ele><time>2026-04-11T16:31:39.999Z</time></trkpt><trkpt lat="45.50643123786621" lon="8.415866955134364"><ele>187.0</ele><time>2026-04-11T16:31:40.999Z</time></trkpt><trkpt lat="45.50635221320938" lon="8.41582414010657"><ele>187.0</ele><time>2026-04-11T16:31:41.999Z</time></trkpt><trkpt lat="45.50627028917337" lon="8.415787835116195"><ele>187.0</ele><time>2026-04-11T16:31:42.999Z</time></trkpt><trkpt lat="45.50619632028965" lon="8.415734897459506"><ele>187.0</ele><time>2026-04-11T16:31:43.999Z</time></trkpt><trkpt lat="45.506122012987795" lon="8.415670573179503"><ele>187.0</ele><time>2026-04-11T16:31:44.999Z</time></trkpt><trkpt lat="45.506047913681776" lon="8.415605798174584"><ele>187.0</ele><time>2026-04-11T16:31:45.999Z</time></trkpt><trkpt lat="45.505974358788926" lon="8.41554693367751"><ele>187.0</ele><time>2026-04-11T16:31:46.999Z</time></trkpt><trkpt lat="45.5058954198025" lon="8.415517928051425"><ele>187.0</ele><time>2026-04-11T16:31:47.999Z</time></trkpt><trkpt lat="45.50582124384128" lon="8.415525628062325"><ele>187.0</ele><time>2026-04-11T16:31:48.999Z</time></trkpt><trkpt lat="45.50576035617048" lon="8.415585058530556"><ele>187.0</ele><time>2026-04-11T16:31:49.999Z</time></trkpt><trkpt lat="45.50569401639024" lon="8.415630041228694"><ele>187.0</ele><time>2026-04-11T16:31:50.999Z</time></trkpt><trkpt lat="45.505650156562695" lon="8.415723970861993"><ele>187.0</ele><time>2026-04-11T16:31:51.999Z</time></trkpt><trkpt lat="45.50559939215481" lon="8.415810748511776"><ele>187.0</ele><time>2026-04-11T16:31:52.999Z</time></trkpt><trkpt lat="45.5055576418313" lon="8.415911165147298"><ele>187.0</ele><time>2026-04-11T16:31:53.999Z</time></trkpt><trkpt lat="45.505514922411855" lon="8.416017683358914"><ele>187.0</ele><time>2026-04-11T16:31:54.999Z</time></trkpt><trkpt lat="45.505455903028356" lon="8.41610956461168"><ele>187.0</ele><time>2026-04-11T16:31:55.999Z</time></trkpt><trkpt lat="45.50542340990323" lon="8.416229852121228"><ele>187.0</ele><time>2026-04-11T16:31:56.999Z</time></trkpt><trkpt lat="45.505375360636144" lon="8.416336297516938"><ele>187.0</ele><time>2026-04-11T16:31:57.999Z</time></trkpt><trkpt lat="45.505328529158824" lon="8.416443041965003"><ele>186.0</ele><time>2026-04-11T16:31:58.999Z</time></trkpt><trkpt lat="45.50528486443793" lon="8.41654959246748"><ele>185.0</ele><time>2026-04-11T16:31:59.999Z</time></trkpt><trkpt lat="45.505242114892994" lon="8.416655781853372"><ele>184.0</ele><time>2026-04-11T16:32:00.999Z</time></trkpt><trkpt lat="45.5051978161299" lon="8.416762635560888"><ele>183.0</ele><time>2026-04-11T16:32:01.999Z</time></trkpt><trkpt lat="45.5051534786221" lon="8.416867312760436"><ele>182.0</ele><time>2026-04-11T16:32:02.999Z</time></trkpt><trkpt lat="45.505110696909874" lon="8.416971574380916"><ele>181.0</ele><time>2026-04-11T16:32:03.999Z</time></trkpt><trkpt lat="45.505068473804556" lon="8.4170733255938"><ele>181.0</ele><time>2026-04-11T16:32:04.999Z</time></trkpt><trkpt lat="45.50502265482858" lon="8.41717370724498"><ele>181.0</ele><time>2026-04-11T16:32:05.999Z</time></trkpt><trkpt lat="45.50496582752092" lon="8.417249308422265"><ele>181.0</ele><time>2026-04-11T16:32:06.999Z</time></trkpt><trkpt lat="45.50492010008131" lon="8.417363409760323"><ele>181.0</ele><time>2026-04-11T16:32:07.999Z</time></trkpt><trkpt lat="45.50486025853296" lon="8.417450189599192"><ele>181.0</ele><time>2026-04-11T16:32:08.999Z</time></trkpt><trkpt lat="45.50479449299277" lon="8.417522622772141"><ele>181.0</ele><time>2026-04-11T16:32:09.999Z</time></trkpt><trkpt lat="45.50472127379807" lon="8.417582646934333"><ele>181.0</ele><time>2026-04-11T16:32:10.999Z</time></trkpt><trkpt lat="45.50464306362676" lon="8.417623032171223"><ele>181.0</ele><time>2026-04-11T16:32:11.999Z</time></trkpt><trkpt lat="45.50456118171178" lon="8.417650843911648"><ele>181.0</ele><time>2026-04-11T16:32:12.999Z</time></trkpt><trkpt lat="45.50447948445568" lon="8.417666056584656"><ele>181.0</ele><time>2026-04-11T16:32:13.999Z</time></trkpt><trkpt lat="45.5043983145973" lon="8.417628097869573"><ele>181.0</ele><time>2026-04-11T16:32:14.999Z</time></trkpt><trkpt lat="45.50431951842199" lon="8.417614301759512"><ele>181.0</ele><time>2026-04-11T16:32:15.999Z</time></trkpt><trkpt lat="45.504239669958565" lon="8.417589548494815"><ele>181.16666666666669</ele><time>2026-04-11T16:32:16.999Z</time></trkpt><trkpt lat="45.504163014646295" lon="8.417556364629462"><ele>181.33333333333334</ele><time>2026-04-11T16:32:17.999Z</time></trkpt><trkpt lat="45.50408627747666" lon="8.417517139025666"><ele>181.5</ele><time>2026-04-11T16:32:18.999Z</time></trkpt><trkpt lat="45.504008324283" lon="8.417474474475819"><ele>181.66666666666666</ele><time>2026-04-11T16:32:19.999Z</time></trkpt><trkpt lat="45.5039270853655" lon="8.417449898447616"><ele>181.83333333333331</ele><time>2026-04-11T16:32:20.999Z</time></trkpt><trkpt lat="45.50384990013597" lon="8.417405648290568"><ele>182.0</ele><time>2026-04-11T16:32:21.999Z</time></trkpt><trkpt lat="45.50377513973761" lon="8.417362954747965"><ele>182.16666666666666</ele><time>2026-04-11T16:32:22.999Z</time></trkpt><trkpt lat="45.50369730236448" lon="8.41733387853804"><ele>182.33333333333331</ele><time>2026-04-11T16:32:23.999Z</time></trkpt><trkpt lat="45.50361659560855" lon="8.41732832572132"><ele>182.5</ele><time>2026-04-11T16:32:24.999Z</time></trkpt><trkpt lat="45.50353657364012" lon="8.41735047636312"><ele>182.66666666666666</ele><time>2026-04-11T16:32:25.999Z</time></trkpt><trkpt lat="45.50346694269732" lon="8.41740972546448"><ele>182.83333333333334</ele><time>2026-04-11T16:32:26.999Z</time></trkpt><trkpt lat="45.50341632566058" lon="8.417494943552656"><ele>183.0</ele><time>2026-04-11T16:32:27.999Z</time></trkpt><trkpt lat="45.5033885132833" lon="8.417599535821289"><ele>183.0</ele><time>2026-04-11T16:32:28.999Z</time></trkpt><trkpt lat="45.50337013072131" lon="8.417700973335885"><ele>183.0</ele><time>2026-04-11T16:32:29.999Z</time></trkpt><trkpt lat="45.50335541513605" lon="8.417801211444774"><ele>183.0</ele><time>2026-04-11T16:32:30.999Z</time></trkpt><trkpt lat="45.50335025272598" lon="8.41790487892858"><ele>183.0</ele><time>2026-04-11T16:32:31.999Z</time></trkpt><trkpt lat="45.50334363401732" lon="8.41800386316526"><ele>183.0</ele><time>2026-04-11T16:32:32.999Z</time></trkpt><trkpt lat="45.503333247676835" lon="8.418103909748288"><ele>183.0</ele><time>2026-04-11T16:32:33.999Z</time></trkpt><trkpt lat="45.503317887648336" lon="8.418200841566081"><ele>183.0</ele><time>2026-04-11T16:32:34.999Z</time></trkpt><trkpt lat="45.50329195633381" lon="8.41829395249085"><ele>182.85714285714286</ele><time>2026-04-11T16:32:35.999Z</time></trkpt><trkpt lat="45.50325925418309" lon="8.418383535148969"><ele>182.71428571428572</ele><time>2026-04-11T16:32:36.999Z</time></trkpt><trkpt lat="45.50322256750838" lon="8.418470175844295"><ele>182.57142857142856</ele><time>2026-04-11T16:32:37.999Z</time></trkpt><trkpt lat="45.50318119691177" lon="8.41855398191284"><ele>182.42857142857144</ele><time>2026-04-11T16:32:38.999Z</time></trkpt><trkpt lat="45.50313652656949" lon="8.418635171102661"><ele>182.28571428571428</ele><time>2026-04-11T16:32:39.999Z</time></trkpt><trkpt lat="45.5030902691931" lon="8.418715016699542"><ele>182.14285714285714</ele><time>2026-04-11T16:32:40.999Z</time></trkpt><trkpt lat="45.50304291180747" lon="8.418793970757129"><ele>182.0</ele><time>2026-04-11T16:32:41.999Z</time></trkpt><trkpt lat="45.50299478681762" lon="8.418870979171055"><ele>182.0</ele><time>2026-04-11T16:32:42.999Z</time></trkpt><trkpt lat="45.50294583418997" lon="8.418945781951711"><ele>182.0</ele><time>2026-04-11T16:32:43.999Z</time></trkpt><trkpt lat="45.50289332240377" lon="8.419016582465787"><ele>182.0</ele><time>2026-04-11T16:32:44.999Z</time></trkpt><trkpt lat="45.50284318699233" lon="8.419086573102158"><ele>182.0</ele><time>2026-04-11T16:32:45.998Z</time></trkpt><trkpt lat="45.50279319415794" lon="8.419159312880256"><ele>182.0</ele><time>2026-04-11T16:32:46.998Z</time></trkpt><trkpt lat="45.50274367282853" lon="8.41923531849203"><ele>182.0</ele><time>2026-04-11T16:32:47.998Z</time></trkpt><trkpt lat="45.5026935566076" lon="8.419309143210452"><ele>182.0</ele><time>2026-04-11T16:32:48.998Z</time></trkpt><trkpt lat="45.50264162877528" lon="8.419377866139296"><ele>182.14285714285714</ele><time>2026-04-11T16:32:49.998Z</time></trkpt><trkpt lat="45.502591897906456" lon="8.419449459854205"><ele>182.28571428571428</ele><time>2026-04-11T16:32:50.998Z</time></trkpt><trkpt lat="45.50254029940922" lon="8.419518820430538"><ele>182.42857142857144</ele><time>2026-04-11T16:32:51.998Z</time></trkpt><trkpt lat="45.50248935949618" lon="8.419589418021252"><ele>182.57142857142856</ele><time>2026-04-11T16:32:52.998Z</time></trkpt><trkpt lat="45.50243815101732" lon="8.41965892805849"><ele>182.71428571428572</ele><time>2026-04-11T16:32:53.998Z</time></trkpt><trkpt lat="45.502375024909135" lon="8.41970694197364"><ele>182.85714285714286</ele><time>2026-04-11T16:32:54.998Z</time></trkpt><trkpt lat="45.50230920554243" lon="8.419761351859815"><ele>183.0</ele><time>2026-04-11T16:32:55.998Z</time></trkpt><trkpt lat="45.5022439802402" lon="8.419810869649076"><ele>183.0</ele><time>2026-04-11T16:32:56.998Z</time></trkpt><trkpt lat="45.50218074497835" lon="8.419880589707358"><ele>183.0</ele><time>2026-04-11T16:32:57.998Z</time></trkpt><trkpt lat="45.50210925026079" lon="8.41993012481264"><ele>183.0</ele><time>2026-04-11T16:32:58.998Z</time></trkpt><trkpt lat="45.502035718373826" lon="8.419984656228605"><ele>183.0</ele><time>2026-04-11T16:32:59.998Z</time></trkpt><trkpt lat="45.501963162202834" lon="8.420043212629297"><ele>183.0</ele><time>2026-04-11T16:33:00.998Z</time></trkpt><trkpt lat="45.501891859354195" lon="8.420106587405066"><ele>183.0</ele><time>2026-04-11T16:33:01.998Z</time></trkpt><trkpt lat="45.5018196385312" lon="8.420171059815802"><ele>182.66666666666666</ele><time>2026-04-11T16:33:02.998Z</time></trkpt><trkpt lat="45.501748673386466" lon="8.420239987613815"><ele>182.33333333333334</ele><time>2026-04-11T16:33:03.998Z</time></trkpt><trkpt lat="45.50167911976843" lon="8.420311959255635"><ele>182.0</ele><time>2026-04-11T16:33:04.998Z</time></trkpt><trkpt lat="45.501609778820736" lon="8.420382854869997"><ele>181.66666666666669</ele><time>2026-04-11T16:33:05.998Z</time></trkpt><trkpt lat="45.501541314711645" lon="8.420452555629492"><ele>181.33333333333334</ele><time>2026-04-11T16:33:06.998Z</time></trkpt><trkpt lat="45.50146937079992" lon="8.420516562335294"><ele>181.0</ele><time>2026-04-11T16:33:07.998Z</time></trkpt><trkpt lat="45.50139557740962" lon="8.420571213661253"><ele>181.0</ele><time>2026-04-11T16:33:08.998Z</time></trkpt><trkpt lat="45.5013170465805" lon="8.420612768504672"><ele>181.0</ele><time>2026-04-11T16:33:09.998Z</time></trkpt><trkpt lat="45.5012374062285" lon="8.420645226766512"><ele>181.0</ele><time>2026-04-11T16:33:10.998Z</time></trkpt><trkpt lat="45.50115545825796" lon="8.420645547771864"><ele>181.0</ele><time>2026-04-11T16:33:11.998Z</time></trkpt><trkpt lat="45.50107832756864" lon="8.420666380628559"><ele>181.0</ele><time>2026-04-11T16:33:12.998Z</time></trkpt><trkpt lat="45.50101619485964" lon="8.420691699555201"><ele>181.0</ele><time>2026-04-11T16:33:13.998Z</time></trkpt><trkpt lat="45.50097439552497" lon="8.420778612670654"><ele>181.0</ele><time>2026-04-11T16:33:14.998Z</time></trkpt><trkpt lat="45.50095291646217" lon="8.42086606896587"><ele>181.0</ele><time>2026-04-11T16:33:15.998Z</time></trkpt><trkpt lat="45.50095495128064" lon="8.420964059704046"><ele>181.0</ele><time>2026-04-11T16:33:16.998Z</time></trkpt><trkpt lat="45.50097806609148" lon="8.42105732245347"><ele>181.0</ele><time>2026-04-11T16:33:17.998Z</time></trkpt><trkpt lat="45.50101317612628" lon="8.421151226689233"><ele>181.0</ele><time>2026-04-11T16:33:18.998Z</time></trkpt><trkpt lat="45.50104216732507" lon="8.421250958383997"><ele>181.0</ele><time>2026-04-11T16:33:19.998Z</time></trkpt><trkpt lat="45.50106164181741" lon="8.421354203700199"><ele>181.0</ele><time>2026-04-11T16:33:20.998Z</time></trkpt><trkpt lat="45.501079332015614" lon="8.42145592872324"><ele>181.16666666666669</ele><time>2026-04-11T16:33:21.998Z</time></trkpt><trkpt lat="45.5010969245015" lon="8.421559141042259"><ele>181.33333333333334</ele><time>2026-04-11T16:33:23Z</time></trkpt><trkpt lat="45.501113230365526" lon="8.421662959030378"><ele>181.5</ele><time>2026-04-11T16:33:24Z</time></trkpt><trkpt lat="45.50112802706772" lon="8.421760996860577"><ele>181.66666666666666</ele><time>2026-04-11T16:33:25Z</time></trkpt><trkpt lat="45.50114206368425" lon="8.421854865814902"><ele>181.83333333333331</ele><time>2026-04-11T16:33:26Z</time></trkpt><trkpt lat="45.501156005210476" lon="8.421943469694622"><ele>182.0</ele><time>2026-04-11T16:33:27Z</time></trkpt><trkpt lat="45.50117693064" lon="8.422104515573345"><ele>182.2</ele><time>2026-04-11T16:33:29Z</time></trkpt><trkpt lat="45.50117990052309" lon="8.42219508127517"><ele>182.39999999999998</ele><time>2026-04-11T16:33:31Z</time></trkpt><trkpt lat="45.501039482001424" lon="8.422294229540512"><ele>182.60000000000002</ele><time>2026-04-11T16:34:14.999Z</time></trkpt><trkpt lat="45.50092375519709" lon="8.422313573151554"><ele>182.8</ele><time>2026-04-11T16:34:16.999Z</time></trkpt><trkpt lat="45.50085549099767" lon="8.42232455222326"><ele>183.0</ele><time>2026-04-11T16:34:17.999Z</time></trkpt><trkpt lat="45.5007812032561" lon="8.422337054365224"><ele>183.0</ele><time>2026-04-11T16:34:18.999Z</time></trkpt><trkpt lat="45.50070422710237" lon="8.422350734060815"><ele>183.0</ele><time>2026-04-11T16:34:19.999Z</time></trkpt><trkpt lat="45.50062115335805" lon="8.422363450643164"><ele>183.0</ele><time>2026-04-11T16:34:20.999Z</time></trkpt><trkpt lat="45.50054189119871" lon="8.422373813035588"><ele>183.0</ele><time>2026-04-11T16:34:21.999Z</time></trkpt><trkpt lat="45.500459248240276" lon="8.422391841193695"><ele>183.0</ele><time>2026-04-11T16:34:22.999Z</time></trkpt><trkpt lat="45.50037687690347" lon="8.422409352042088"><ele>183.0</ele><time>2026-04-11T16:34:23.999Z</time></trkpt><trkpt lat="45.500290123122966" lon="8.422428757129326"><ele>183.0</ele><time>2026-04-11T16:34:24.999Z</time></trkpt><trkpt lat="45.50020610470648" lon="8.422441691075091"><ele>183.0</ele><time>2026-04-11T16:34:25.999Z</time></trkpt><trkpt lat="45.500122708803694" lon="8.42246095460564"><ele>183.0</ele><time>2026-04-11T16:34:26.999Z</time></trkpt><trkpt lat="45.50003827627117" lon="8.422476277506652"><ele>183.0</ele><time>2026-04-11T16:34:27.999Z</time></trkpt><trkpt lat="45.499954270013646" lon="8.422494528872747"><ele>183.0</ele><time>2026-04-11T16:34:28.999Z</time></trkpt><trkpt lat="45.499869670549344" lon="8.422510664459766"><ele>183.0</ele><time>2026-04-11T16:34:29.999Z</time></trkpt><trkpt lat="45.49978221760003" lon="8.422523490540321"><ele>183.0</ele><time>2026-04-11T16:34:30.999Z</time></trkpt><trkpt lat="45.49969719778748" lon="8.422537211439797"><ele>183.0</ele><time>2026-04-11T16:34:31.999Z</time></trkpt><trkpt lat="45.4996134434886" lon="8.422545288207118"><ele>183.0</ele><time>2026-04-11T16:34:32.999Z</time></trkpt><trkpt lat="45.49952955464441" lon="8.422560173240372"><ele>183.0</ele><time>2026-04-11T16:34:33.999Z</time></trkpt><trkpt lat="45.499442222097954" lon="8.422570438269124"><ele>183.0</ele><time>2026-04-11T16:34:34.999Z</time></trkpt><trkpt lat="45.49935653107803" lon="8.42258864253285"><ele>183.0</ele><time>2026-04-11T16:34:35.999Z</time></trkpt><trkpt lat="45.499267744082196" lon="8.422607086934097"><ele>183.16666666666666</ele><time>2026-04-11T16:34:36.999Z</time></trkpt><trkpt lat="45.499184136578" lon="8.422625329739654"><ele>183.33333333333334</ele><time>2026-04-11T16:34:37.999Z</time></trkpt><trkpt lat="45.499099421729035" lon="8.422641193014075"><ele>183.5</ele><time>2026-04-11T16:34:38.999Z</time></trkpt><trkpt lat="45.49901592971212" lon="8.422660968168504"><ele>183.66666666666669</ele><time>2026-04-11T16:34:39.999Z</time></trkpt><trkpt lat="45.49893227069604" lon="8.422679255952737"><ele>183.83333333333334</ele><time>2026-04-11T16:34:40.999Z</time></trkpt><trkpt lat="45.49884790054313" lon="8.422694285957352"><ele>184.0</ele><time>2026-04-11T16:34:41.999Z</time></trkpt><trkpt lat="45.49876503656171" lon="8.422705251343007"><ele>183.83333333333334</ele><time>2026-04-11T16:34:42.999Z</time></trkpt><trkpt lat="45.49868323378701" lon="8.422715505348448"><ele>183.66666666666669</ele><time>2026-04-11T16:34:43.999Z</time></trkpt><trkpt lat="45.49860078779802" lon="8.422721356461471"><ele>183.5</ele><time>2026-04-11T16:34:44.999Z</time></trkpt><trkpt lat="45.49851668667565" lon="8.422727034415278"><ele>183.33333333333334</ele><time>2026-04-11T16:34:45.999Z</time></trkpt><trkpt lat="45.49843606084276" lon="8.422736187852271"><ele>183.16666666666666</ele><time>2026-04-11T16:34:46.999Z</time></trkpt><trkpt lat="45.4983540267064" lon="8.422745799051606"><ele>183.0</ele><time>2026-04-11T16:34:47.999Z</time></trkpt><trkpt lat="45.498271128211854" lon="8.422755819258361"><ele>183.0</ele><time>2026-04-11T16:34:48.998Z</time></trkpt><trkpt lat="45.49818935879397" lon="8.42276965312329"><ele>183.0</ele><time>2026-04-11T16:34:49.998Z</time></trkpt><trkpt lat="45.49810762123786" lon="8.422784232922446"><ele>183.0</ele><time>2026-04-11T16:34:50.998Z</time></trkpt><trkpt lat="45.498026450598836" lon="8.42280706924601"><ele>183.0</ele><time>2026-04-11T16:34:51.998Z</time></trkpt><trkpt lat="45.4979468964846" lon="8.422832515449656"><ele>183.0</ele><time>2026-04-11T16:34:52.998Z</time></trkpt><trkpt lat="45.497866899846585" lon="8.422857178366323"><ele>183.0</ele><time>2026-04-11T16:34:53.998Z</time></trkpt><trkpt lat="45.4977836145275" lon="8.422867991432225"><ele>183.0</ele><time>2026-04-11T16:34:54.998Z</time></trkpt><trkpt lat="45.49770262740182" lon="8.422868038792014"><ele>183.0</ele><time>2026-04-11T16:34:55.998Z</time></trkpt><trkpt lat="45.49761730636435" lon="8.422865915876868"><ele>183.0</ele><time>2026-04-11T16:34:56.998Z</time></trkpt><trkpt lat="45.497532260051585" lon="8.42286688165269"><ele>183.0</ele><time>2026-04-11T16:34:57.998Z</time></trkpt><trkpt lat="45.497444415220976" lon="8.422866244680169"><ele>183.0</ele><time>2026-04-11T16:34:58.998Z</time></trkpt><trkpt lat="45.497354535091226" lon="8.42286796927844"><ele>183.0</ele><time>2026-04-11T16:34:59.998Z</time></trkpt><trkpt lat="45.497262383869" lon="8.422869440522774"><ele>183.0</ele><time>2026-04-11T16:35:00.998Z</time></trkpt><trkpt lat="45.497171797213056" lon="8.422872714347001"><ele>183.0</ele><time>2026-04-11T16:35:01.998Z</time></trkpt><trkpt lat="45.49707813812379" lon="8.42287301498236"><ele>183.0</ele><time>2026-04-11T16:35:02.998Z</time></trkpt><trkpt lat="45.4969846336567" lon="8.422874035697522"><ele>183.0</ele><time>2026-04-11T16:35:03.998Z</time></trkpt><trkpt lat="45.49689168079978" lon="8.422870775086087"><ele>183.0</ele><time>2026-04-11T16:35:04.998Z</time></trkpt><trkpt lat="45.49679855752139" lon="8.422864816073531"><ele>183.2</ele><time>2026-04-11T16:35:05.998Z</time></trkpt><trkpt lat="45.49670672105594" lon="8.422854493329297"><ele>183.4</ele><time>2026-04-11T16:35:06.998Z</time></trkpt><trkpt lat="45.49661217519357" lon="8.422846650779931"><ele>183.6</ele><time>2026-04-11T16:35:07.998Z</time></trkpt><trkpt lat="45.49652024699424" lon="8.422837010084164"><ele>183.79999999999998</ele><time>2026-04-11T16:35:08.998Z</time></trkpt><trkpt lat="45.496429367997536" lon="8.422819220912785"><ele>184.0</ele><time>2026-04-11T16:35:09.998Z</time></trkpt><trkpt lat="45.49634419576126" lon="8.422802810804297"><ele>184.0</ele><time>2026-04-11T16:35:10.998Z</time></trkpt><trkpt lat="45.49626141174878" lon="8.422783294041185"><ele>184.0</ele><time>2026-04-11T16:35:11.998Z</time></trkpt><trkpt lat="45.496185776506636" lon="8.422765762503314"><ele>184.0</ele><time>2026-04-11T16:35:12.998Z</time></trkpt><trkpt lat="45.4961225989539" lon="8.42276014236007"><ele>184.0</ele><time>2026-04-11T16:35:13.998Z</time></trkpt><trkpt lat="45.49601780343494" lon="8.42286729564904"><ele>184.0</ele><time>2026-04-11T16:35:15.998Z</time></trkpt><trkpt lat="45.49599315020262" lon="8.422956592505493"><ele>184.0</ele><time>2026-04-11T16:35:16.998Z</time></trkpt><trkpt lat="45.49597481495214" lon="8.42305496091655"><ele>184.0</ele><time>2026-04-11T16:35:17.998Z</time></trkpt><trkpt lat="45.49595141227369" lon="8.4231640317422"><ele>184.0</ele><time>2026-04-11T16:35:18.998Z</time></trkpt><trkpt lat="45.49592796866198" lon="8.423281465701724"><ele>184.0</ele><time>2026-04-11T16:35:19.998Z</time></trkpt><trkpt lat="45.49590268829061" lon="8.423409813594024"><ele>184.0</ele><time>2026-04-11T16:35:20.998Z</time></trkpt><trkpt lat="45.49587751300157" lon="8.423543654701776"><ele>184.0</ele><time>2026-04-11T16:35:21.998Z</time></trkpt><trkpt lat="45.49585414693103" lon="8.423677640916123"><ele>183.79999999999998</ele><time>2026-04-11T16:35:22.998Z</time></trkpt><trkpt lat="45.49583215930712" lon="8.42381699288665"><ele>183.6</ele><time>2026-04-11T16:35:23.998Z</time></trkpt><trkpt lat="45.49581130193978" lon="8.423956961147452"><ele>183.4</ele><time>2026-04-11T16:35:24.998Z</time></trkpt><trkpt lat="45.495792595782284" lon="8.424098284967616"><ele>183.2</ele><time>2026-04-11T16:35:25.998Z</time></trkpt><trkpt lat="45.49578107722408" lon="8.424242066606132"><ele>183.0</ele><time>2026-04-11T16:35:26.998Z</time></trkpt><trkpt lat="45.49577300852227" lon="8.424388781850713"><ele>183.0</ele><time>2026-04-11T16:35:27.998Z</time></trkpt><trkpt lat="45.49577150683783" lon="8.42453662370761"><ele>183.0</ele><time>2026-04-11T16:35:29Z</time></trkpt><trkpt lat="45.49577450493602" lon="8.424677771859933"><ele>183.0</ele><time>2026-04-11T16:35:30Z</time></trkpt><trkpt lat="45.49577665962564" lon="8.42481717326949"><ele>183.0</ele><time>2026-04-11T16:35:31Z</time></trkpt><trkpt lat="45.49577599485123" lon="8.424953085057968"><ele>183.0</ele><time>2026-04-11T16:35:32Z</time></trkpt><trkpt lat="45.49577598271011" lon="8.42508876698831"><ele>182.8</ele><time>2026-04-11T16:35:33Z</time></trkpt><trkpt lat="45.49577651337082" lon="8.425223016319658"><ele>182.60000000000002</ele><time>2026-04-11T16:35:34Z</time></trkpt><trkpt lat="45.49577602234902" lon="8.425357915267867"><ele>182.39999999999998</ele><time>2026-04-11T16:35:35Z</time></trkpt><trkpt lat="45.495774983897874" lon="8.425491591110573"><ele>182.2</ele><time>2026-04-11T16:35:36Z</time></trkpt><trkpt lat="45.49577521802409" lon="8.42562733538468"><ele>182.0</ele><time>2026-04-11T16:35:37Z</time></trkpt><trkpt lat="45.49577698867424" lon="8.425765227227789"><ele>181.8</ele><time>2026-04-11T16:35:38Z</time></trkpt><trkpt lat="45.49578104348383" lon="8.425902932578174"><ele>181.6</ele><time>2026-04-11T16:35:39Z</time></trkpt><trkpt lat="45.49578762685686" lon="8.426040855165786"><ele>181.4</ele><time>2026-04-11T16:35:40Z</time></trkpt><trkpt lat="45.49579075756756" lon="8.426180042328895"><ele>181.20000000000002</ele><time>2026-04-11T16:35:41Z</time></trkpt><trkpt lat="45.49579798451472" lon="8.426316175801588"><ele>181.0</ele><time>2026-04-11T16:35:42Z</time></trkpt><trkpt lat="45.495806835414" lon="8.42645066240872"><ele>180.4</ele><time>2026-04-11T16:35:43Z</time></trkpt><trkpt lat="45.49581699097663" lon="8.42658818302375"><ele>179.8</ele><time>2026-04-11T16:35:44Z</time></trkpt><trkpt lat="45.49582631903716" lon="8.426727614150744"><ele>179.20000000000002</ele><time>2026-04-11T16:35:45Z</time></trkpt><trkpt lat="45.49583750316885" lon="8.426870951098453"><ele>178.60000000000002</ele><time>2026-04-11T16:35:46Z</time></trkpt><trkpt lat="45.495846643162416" lon="8.42701948741766"><ele>178.0</ele><time>2026-04-11T16:35:47Z</time></trkpt><trkpt lat="45.49585668944958" lon="8.427169900317756"><ele>177.8</ele><time>2026-04-11T16:35:48Z</time></trkpt><trkpt lat="45.49586577061325" lon="8.427324392725437"><ele>177.60000000000002</ele><time>2026-04-11T16:35:48.999Z</time></trkpt><trkpt lat="45.49587446106583" lon="8.427480139708065"><ele>177.39999999999998</ele><time>2026-04-11T16:35:49.999Z</time></trkpt><trkpt lat="45.495881236268936" lon="8.4276368368658"><ele>177.2</ele><time>2026-04-11T16:35:50.999Z</time></trkpt><trkpt lat="45.49588462369643" lon="8.42779414052589"><ele>177.0</ele><time>2026-04-11T16:35:51.999Z</time></trkpt><trkpt lat="45.49588471221852" lon="8.427953015848797"><ele>177.39999999999998</ele><time>2026-04-11T16:35:52.999Z</time></trkpt><trkpt lat="45.495883524215046" lon="8.428111841751978"><ele>177.79999999999998</ele><time>2026-04-11T16:35:53.999Z</time></trkpt><trkpt lat="45.495882919848235" lon="8.428270176302256"><ele>178.2</ele><time>2026-04-11T16:35:54.999Z</time></trkpt><trkpt lat="45.49588173703948" lon="8.428428571798248"><ele>178.6</ele><time>2026-04-11T16:35:55.999Z</time></trkpt><trkpt lat="45.49588027696135" lon="8.42858775174233"><ele>179.0</ele><time>2026-04-11T16:35:56.999Z</time></trkpt><trkpt lat="45.4958791210061" lon="8.428742358902747"><ele>179.0</ele><time>2026-04-11T16:35:57.999Z</time></trkpt><trkpt lat="45.495877578560005" lon="8.42888896834302"><ele>179.0</ele><time>2026-04-11T16:35:58.999Z</time></trkpt><trkpt lat="45.49587503326734" lon="8.429028732524523"><ele>179.0</ele><time>2026-04-11T16:35:59.999Z</time></trkpt><trkpt lat="45.49587326123527" lon="8.429163049665966"><ele>179.0</ele><time>2026-04-11T16:36:00.999Z</time></trkpt><trkpt lat="45.49587048521167" lon="8.429288451890825"><ele>179.0</ele><time>2026-04-11T16:36:01.999Z</time></trkpt><trkpt lat="45.495866731315104" lon="8.429409047562629"><ele>179.0</ele><time>2026-04-11T16:36:02.999Z</time></trkpt><trkpt lat="45.495864609007114" lon="8.429522337258495"><ele>179.0</ele><time>2026-04-11T16:36:03.999Z</time></trkpt><trkpt lat="45.49587997355578" lon="8.429633944867053"><ele>179.0</ele><time>2026-04-11T16:36:04.999Z</time></trkpt><trkpt lat="45.49590298476029" lon="8.429745087814862"><ele>179.0</ele><time>2026-04-11T16:36:05.999Z</time></trkpt><trkpt lat="45.495927402233896" lon="8.42986583667294"><ele>179.0</ele><time>2026-04-11T16:36:06.999Z</time></trkpt><trkpt lat="45.495938026128755" lon="8.430002503886488"><ele>179.0</ele><time>2026-04-11T16:36:07.999Z</time></trkpt><trkpt lat="45.495945400537536" lon="8.430147542482995"><ele>179.0</ele><time>2026-04-11T16:36:08.999Z</time></trkpt><trkpt lat="45.495954511874416" lon="8.430298436129995"><ele>179.0</ele><time>2026-04-11T16:36:09.999Z</time></trkpt><trkpt lat="45.49596415514444" lon="8.430453271924442"><ele>179.0</ele><time>2026-04-11T16:36:10.999Z</time></trkpt><trkpt lat="45.4959768894993" lon="8.430612142291597"><ele>179.0</ele><time>2026-04-11T16:36:11.999Z</time></trkpt><trkpt lat="45.495990165878375" lon="8.430772660143447"><ele>179.0</ele><time>2026-04-11T16:36:12.999Z</time></trkpt><trkpt lat="45.49600239848801" lon="8.430937306003207"><ele>179.0</ele><time>2026-04-11T16:36:13.999Z</time></trkpt><trkpt lat="45.49601418812677" lon="8.431102346258754"><ele>179.0</ele><time>2026-04-11T16:36:14.999Z</time></trkpt><trkpt lat="45.496026741882666" lon="8.431269624792051"><ele>179.0</ele><time>2026-04-11T16:36:15.999Z</time></trkpt><trkpt lat="45.496039360237326" lon="8.431438268706243"><ele>179.0</ele><time>2026-04-11T16:36:16.999Z</time></trkpt><trkpt lat="45.49605333177439" lon="8.431608054964485"><ele>179.5</ele><time>2026-04-11T16:36:17.999Z</time></trkpt><trkpt lat="45.49607008364185" lon="8.431778637765957"><ele>180.0</ele><time>2026-04-11T16:36:18.999Z</time></trkpt><trkpt lat="45.496088421441584" lon="8.43194960994766"><ele>180.5</ele><time>2026-04-11T16:36:19.999Z</time></trkpt><trkpt lat="45.49610595345811" lon="8.432120895665996"><ele>181.0</ele><time>2026-04-11T16:36:20.999Z</time></trkpt><trkpt lat="45.496123686712885" lon="8.432293746545625"><ele>181.0</ele><time>2026-04-11T16:36:21.999Z</time></trkpt><trkpt lat="45.496140307572276" lon="8.432467483157163"><ele>181.0</ele><time>2026-04-11T16:36:22.999Z</time></trkpt><trkpt lat="45.49615728958265" lon="8.432642633996146"><ele>181.0</ele><time>2026-04-11T16:36:23.999Z</time></trkpt><trkpt lat="45.49617508287554" lon="8.432819456906616"><ele>181.0</ele><time>2026-04-11T16:36:24.999Z</time></trkpt><trkpt lat="45.49619440102857" lon="8.432998360522005"><ele>181.0</ele><time>2026-04-11T16:36:25.999Z</time></trkpt><trkpt lat="45.49621440973767" lon="8.433177507808681"><ele>181.0</ele><time>2026-04-11T16:36:26.999Z</time></trkpt><trkpt lat="45.49623446233126" lon="8.433355816591906"><ele>181.0</ele><time>2026-04-11T16:36:27.999Z</time></trkpt><trkpt lat="45.49625431023108" lon="8.433535734748608"><ele>181.0</ele><time>2026-04-11T16:36:28.999Z</time></trkpt><trkpt lat="45.49627207453475" lon="8.433718231553003"><ele>180.75</ele><time>2026-04-11T16:36:29.999Z</time></trkpt><trkpt lat="45.49629097549845" lon="8.433900062012109"><ele>180.5</ele><time>2026-04-11T16:36:30.999Z</time></trkpt><trkpt lat="45.49631232537254" lon="8.43408151894605"><ele>180.25</ele><time>2026-04-11T16:36:31.999Z</time></trkpt><trkpt lat="45.49633510027992" lon="8.434263670551639"><ele>180.0</ele><time>2026-04-11T16:36:32.999Z</time></trkpt><trkpt lat="45.49635731736469" lon="8.434447657363291"><ele>180.0</ele><time>2026-04-11T16:36:33.999Z</time></trkpt><trkpt lat="45.49637748998113" lon="8.434630376467204"><ele>180.0</ele><time>2026-04-11T16:36:34.999Z</time></trkpt><trkpt lat="45.49639834819162" lon="8.434812166765406"><ele>180.0</ele><time>2026-04-11T16:36:35.999Z</time></trkpt><trkpt lat="45.49641768465615" lon="8.43499048830434"><ele>180.0</ele><time>2026-04-11T16:36:36.999Z</time></trkpt><trkpt lat="45.49643778534213" lon="8.435168078811063"><ele>180.0</ele><time>2026-04-11T16:36:37.999Z</time></trkpt><trkpt lat="45.496458137611675" lon="8.435344902068357"><ele>180.0</ele><time>2026-04-11T16:36:38.999Z</time></trkpt><trkpt lat="45.49647705339204" lon="8.43552080825156"><ele>180.0</ele><time>2026-04-11T16:36:39.999Z</time></trkpt><trkpt lat="45.496495636834894" lon="8.435694355757526"><ele>180.0</ele><time>2026-04-11T16:36:40.999Z</time></trkpt><trkpt lat="45.49651364838608" lon="8.435865861924583"><ele>180.0</ele><time>2026-04-11T16:36:41.999Z</time></trkpt><trkpt lat="45.496532529451535" lon="8.436038299935081"><ele>180.0</ele><time>2026-04-11T16:36:42.999Z</time></trkpt><trkpt lat="45.49655278135823" lon="8.436211898013902"><ele>180.0</ele><time>2026-04-11T16:36:43.999Z</time></trkpt><trkpt lat="45.49657140852027" lon="8.436385552751839"><ele>180.0</ele><time>2026-04-11T16:36:44.999Z</time></trkpt><trkpt lat="45.496587702547714" lon="8.436559278155986"><ele>180.0</ele><time>2026-04-11T16:36:45.999Z</time></trkpt><trkpt lat="45.4965990974441" lon="8.43673191221931"><ele>180.0</ele><time>2026-04-11T16:36:46.999Z</time></trkpt><trkpt lat="45.4966042307253" lon="8.436904859869303"><ele>180.0</ele><time>2026-04-11T16:36:47.999Z</time></trkpt><trkpt lat="45.496605570693426" lon="8.437077567205478"><ele>180.0</ele><time>2026-04-11T16:36:48.999Z</time></trkpt><trkpt lat="45.496605472131954" lon="8.437249051396838"><ele>180.0</ele><time>2026-04-11T16:36:49.999Z</time></trkpt><trkpt lat="45.49660655053019" lon="8.437420137134858"><ele>180.0</ele><time>2026-04-11T16:36:50.999Z</time></trkpt><trkpt lat="45.49660962534898" lon="8.437590176935544"><ele>180.0</ele><time>2026-04-11T16:36:51.999Z</time></trkpt><trkpt lat="45.496612781631434" lon="8.437760135424119"><ele>180.0</ele><time>2026-04-11T16:36:52.999Z</time></trkpt><trkpt lat="45.49661608745225" lon="8.437930065770662"><ele>179.75</ele><time>2026-04-11T16:36:53.999Z</time></trkpt><trkpt lat="45.496619950628634" lon="8.438099770331664"><ele>179.5</ele><time>2026-04-11T16:36:54.998Z</time></trkpt><trkpt lat="45.496623548994215" lon="8.438268318268516"><ele>179.25</ele><time>2026-04-11T16:36:55.998Z</time></trkpt><trkpt lat="45.49662662560936" lon="8.438437238331497"><ele>179.0</ele><time>2026-04-11T16:36:56.998Z</time></trkpt><trkpt lat="45.496629379937396" lon="8.43860697781196"><ele>179.0</ele><time>2026-04-11T16:36:57.998Z</time></trkpt><trkpt lat="45.49663180198816" lon="8.438776976571889"><ele>179.0</ele><time>2026-04-11T16:36:58.998Z</time></trkpt><trkpt lat="45.49663365920077" lon="8.438949379774991"><ele>179.0</ele><time>2026-04-11T16:36:59.998Z</time></trkpt><trkpt lat="45.49663666501041" lon="8.439121201500956"><ele>179.0</ele><time>2026-04-11T16:37:00.998Z</time></trkpt><trkpt lat="45.496639490111896" lon="8.439296188965914"><ele>179.5</ele><time>2026-04-11T16:37:01.998Z</time></trkpt><trkpt lat="45.49664214832867" lon="8.43947172292355"><ele>180.0</ele><time>2026-04-11T16:37:02.998Z</time></trkpt><trkpt lat="45.49664356246525" lon="8.439647864985961"><ele>180.5</ele><time>2026-04-11T16:37:03.998Z</time></trkpt><trkpt lat="45.49663998295075" lon="8.439823473035462"><ele>181.0</ele><time>2026-04-11T16:37:04.998Z</time></trkpt><trkpt lat="45.49662790862376" lon="8.439998380416386"><ele>180.75</ele><time>2026-04-11T16:37:05.998Z</time></trkpt><trkpt lat="45.496605703913495" lon="8.440167132861799"><ele>180.5</ele><time>2026-04-11T16:37:06.998Z</time></trkpt><trkpt lat="45.49657272234932" lon="8.440332517962828"><ele>180.25</ele><time>2026-04-11T16:37:07.998Z</time></trkpt><trkpt lat="45.496528072957304" lon="8.440493202319761"><ele>180.0</ele><time>2026-04-11T16:37:08.998Z</time></trkpt><trkpt lat="45.49647584680216" lon="8.440651292336767"><ele>180.0</ele><time>2026-04-11T16:37:09.998Z</time></trkpt><trkpt lat="45.49641564248877" lon="8.440805316952666"><ele>180.0</ele><time>2026-04-11T16:37:10.998Z</time></trkpt><trkpt lat="45.49634741485906" lon="8.440953480743849"><ele>180.0</ele><time>2026-04-11T16:37:11.998Z</time></trkpt><trkpt lat="45.496273139320515" lon="8.441098712570607"><ele>180.0</ele><time>2026-04-11T16:37:12.998Z</time></trkpt><trkpt lat="45.49619766001613" lon="8.44124308266351"><ele>179.5</ele><time>2026-04-11T16:37:13.998Z</time></trkpt><trkpt lat="45.49612241396678" lon="8.441389803371464"><ele>179.0</ele><time>2026-04-11T16:37:14.998Z</time></trkpt><trkpt lat="45.49604933720737" lon="8.44153748490187"><ele>178.5</ele><time>2026-04-11T16:37:15.998Z</time></trkpt><trkpt lat="45.4959774491834" lon="8.441686172464244"><ele>178.0</ele><time>2026-04-11T16:37:16.998Z</time></trkpt><trkpt lat="45.495907697838454" lon="8.441836578039974"><ele>178.0</ele><time>2026-04-11T16:37:17.998Z</time></trkpt><trkpt lat="45.495839714134156" lon="8.441988671178388"><ele>178.0</ele><time>2026-04-11T16:37:18.998Z</time></trkpt><trkpt lat="45.49577100356735" lon="8.442140453922923"><ele>178.0</ele><time>2026-04-11T16:37:19.998Z</time></trkpt><trkpt lat="45.49570245941554" lon="8.442292225239191"><ele>178.0</ele><time>2026-04-11T16:37:20.998Z</time></trkpt><trkpt lat="45.49563333616962" lon="8.4424446582238"><ele>177.5</ele><time>2026-04-11T16:37:21.998Z</time></trkpt><trkpt lat="45.49556403449355" lon="8.442595619176846"><ele>177.0</ele><time>2026-04-11T16:37:22.998Z</time></trkpt><trkpt lat="45.49549560339741" lon="8.442744348617879"><ele>176.5</ele><time>2026-04-11T16:37:23.998Z</time></trkpt><trkpt lat="45.49543013731241" lon="8.442890763587853"><ele>176.0</ele><time>2026-04-11T16:37:24.998Z</time></trkpt><trkpt lat="45.495363923050135" lon="8.443033234139234"><ele>176.0</ele><time>2026-04-11T16:37:25.998Z</time></trkpt><trkpt lat="45.49529039408084" lon="8.443165616550653"><ele>176.0</ele><time>2026-04-11T16:37:26.998Z</time></trkpt><trkpt lat="45.495207578136146" lon="8.443283477598404"><ele>176.0</ele><time>2026-04-11T16:37:27.998Z</time></trkpt><trkpt lat="45.495114449088646" lon="8.443387856291793"><ele>176.0</ele><time>2026-04-11T16:37:28.998Z</time></trkpt><trkpt lat="45.495015394617724" lon="8.443488930057688"><ele>176.0</ele><time>2026-04-11T16:37:29.998Z</time></trkpt><trkpt lat="45.49491096863572" lon="8.443584893054432"><ele>176.0</ele><time>2026-04-11T16:37:30.998Z</time></trkpt><trkpt lat="45.494801719986164" lon="8.443676528862156"><ele>176.0</ele><time>2026-04-11T16:37:31.998Z</time></trkpt><trkpt lat="45.49468925594033" lon="8.443763038949845"><ele>176.0</ele><time>2026-04-11T16:37:32.998Z</time></trkpt><trkpt lat="45.49457488647295" lon="8.443845868485425"><ele>176.25</ele><time>2026-04-11T16:37:33.998Z</time></trkpt><trkpt lat="45.494458838171084" lon="8.443924926050595"><ele>176.5</ele><time>2026-04-11T16:37:35Z</time></trkpt><trkpt lat="45.494340898832085" lon="8.443997459467072"><ele>176.75</ele><time>2026-04-11T16:37:36Z</time></trkpt><trkpt lat="45.49422077307013" lon="8.4440608106393"><ele>177.0</ele><time>2026-04-11T16:37:37Z</time></trkpt><trkpt lat="45.49409922664167" lon="8.444121834502594"><ele>177.0</ele><time>2026-04-11T16:37:38Z</time></trkpt><trkpt lat="45.49397832753654" lon="8.444184263024082"><ele>177.0</ele><time>2026-04-11T16:37:39Z</time></trkpt><trkpt lat="45.49386045668541" lon="8.444252815768781"><ele>177.0</ele><time>2026-04-11T16:37:40Z</time></trkpt><trkpt lat="45.493751130688274" lon="8.444325575278695"><ele>177.0</ele><time>2026-04-11T16:37:41Z</time></trkpt><trkpt lat="45.493653237341775" lon="8.444397448426137"><ele>176.8</ele><time>2026-04-11T16:37:42Z</time></trkpt><trkpt lat="45.493560602264274" lon="8.444462518625368"><ele>176.6</ele><time>2026-04-11T16:37:43Z</time></trkpt><trkpt lat="45.49347166372437" lon="8.444526481132383"><ele>176.4</ele><time>2026-04-11T16:37:44Z</time></trkpt><trkpt lat="45.493393934792266" lon="8.444588646586686"><ele>176.20000000000002</ele><time>2026-04-11T16:37:45Z</time></trkpt><trkpt lat="45.49332851174583" lon="8.444651435549089"><ele>176.0</ele><time>2026-04-11T16:37:46Z</time></trkpt><trkpt lat="45.4932521734883" lon="8.444705667040195"><ele>176.0</ele><time>2026-04-11T16:37:47Z</time></trkpt><trkpt lat="45.4931783441245" lon="8.444764307529956"><ele>176.0</ele><time>2026-04-11T16:37:48Z</time></trkpt><trkpt lat="45.49309307655524" lon="8.44479411730981"><ele>176.0</ele><time>2026-04-11T16:37:49Z</time></trkpt><trkpt lat="45.493013860857914" lon="8.444841966921318"><ele>176.0</ele><time>2026-04-11T16:37:50Z</time></trkpt><trkpt lat="45.492935389202195" lon="8.44488747075932"><ele>176.0</ele><time>2026-04-11T16:37:51Z</time></trkpt><trkpt lat="45.49285849523208" lon="8.44493205977233"><ele>176.0</ele><time>2026-04-11T16:37:52Z</time></trkpt><trkpt lat="45.49278424697723" lon="8.444976651492734"><ele>176.0</ele><time>2026-04-11T16:37:53Z</time></trkpt><trkpt lat="45.49271786081226" lon="8.445045801315251"><ele>176.0</ele><time>2026-04-11T16:37:53.999Z</time></trkpt><trkpt lat="45.49264654396566" lon="8.445096309611401"><ele>176.0</ele><time>2026-04-11T16:37:54.999Z</time></trkpt><trkpt lat="45.4925801324145" lon="8.445150719557533"><ele>176.0</ele><time>2026-04-11T16:37:55.999Z</time></trkpt><trkpt lat="45.49250680285195" lon="8.4451880662795"><ele>176.0</ele><time>2026-04-11T16:37:56.999Z</time></trkpt><trkpt lat="45.492437193560725" lon="8.445235349165447"><ele>176.0</ele><time>2026-04-11T16:37:57.999Z</time></trkpt><trkpt lat="45.49236517141547" lon="8.44528352863693"><ele>176.0</ele><time>2026-04-11T16:37:58.999Z</time></trkpt><trkpt lat="45.49229293858069" lon="8.445336331538075"><ele>176.0</ele><time>2026-04-11T16:37:59.999Z</time></trkpt><trkpt lat="45.492224118029334" lon="8.445405540901827"><ele>176.0</ele><time>2026-04-11T16:38:00.999Z</time></trkpt><trkpt lat="45.49214499368979" lon="8.445452259017957"><ele>176.0</ele><time>2026-04-11T16:38:01.999Z</time></trkpt><trkpt lat="45.492057757744924" lon="8.445479186959021"><ele>176.0</ele><time>2026-04-11T16:38:02.999Z</time></trkpt><trkpt lat="45.4919747804393" lon="8.445528279295022"><ele>176.0</ele><time>2026-04-11T16:38:03.999Z</time></trkpt><trkpt lat="45.49190691178797" lon="8.445627743514718"><ele>176.0</ele><time>2026-04-11T16:38:04.999Z</time></trkpt><trkpt lat="45.49182204251804" lon="8.44566245356962"><ele>176.0</ele><time>2026-04-11T16:38:05.999Z</time></trkpt><trkpt lat="45.491739453251355" lon="8.445688423209042"><ele>176.0</ele><time>2026-04-11T16:38:06.999Z</time></trkpt><trkpt lat="45.49164989647762" lon="8.445698303167635"><ele>176.0</ele><time>2026-04-11T16:38:07.999Z</time></trkpt><trkpt lat="45.49155861802484" lon="8.445710767279913"><ele>176.0</ele><time>2026-04-11T16:38:08.999Z</time></trkpt><trkpt lat="45.49146909052551" lon="8.445714990057853"><ele>176.0</ele><time>2026-04-11T16:38:09.999Z</time></trkpt><trkpt lat="45.4913802942611" lon="8.445718766758826"><ele>176.0</ele><time>2026-04-11T16:38:10.999Z</time></trkpt><trkpt lat="45.491294368812774" lon="8.445719199775418"><ele>176.0</ele><time>2026-04-11T16:38:11.999Z</time></trkpt><trkpt lat="45.49120923774191" lon="8.445718764171785"><ele>176.0</ele><time>2026-04-11T16:38:12.999Z</time></trkpt><trkpt lat="45.491124697438885" lon="8.445721111771475"><ele>176.0</ele><time>2026-04-11T16:38:13.999Z</time></trkpt><trkpt lat="45.49103902507912" lon="8.445735536246854"><ele>176.0</ele><time>2026-04-11T16:38:14.999Z</time></trkpt><trkpt lat="45.490957760063694" lon="8.44575262534991"><ele>176.0</ele><time>2026-04-11T16:38:15.999Z</time></trkpt><trkpt lat="45.49087815911291" lon="8.445776218558729"><ele>175.5</ele><time>2026-04-11T16:38:16.999Z</time></trkpt><trkpt lat="45.490797487863176" lon="8.445813302993676"><ele>175.0</ele><time>2026-04-11T16:38:17.999Z</time></trkpt><trkpt lat="45.49071713177709" lon="8.445858135637085"><ele>174.5</ele><time>2026-04-11T16:38:18.999Z</time></trkpt><trkpt lat="45.490636943272705" lon="8.445907867429446"><ele>174.0</ele><time>2026-04-11T16:38:19.999Z</time></trkpt><trkpt lat="45.49055444531585" lon="8.445949016371243"><ele>173.5</ele><time>2026-04-11T16:38:20.999Z</time></trkpt><trkpt lat="45.49047587103922" lon="8.4459935923667"><ele>173.0</ele><time>2026-04-11T16:38:21.999Z</time></trkpt><trkpt lat="45.490397966456214" lon="8.44604879828142"><ele>173.0</ele><time>2026-04-11T16:38:22.999Z</time></trkpt><trkpt lat="45.49031839704502" lon="8.446090543020295"><ele>173.0</ele><time>2026-04-11T16:38:23.999Z</time></trkpt><trkpt lat="45.490241315524145" lon="8.446134845499554"><ele>173.0</ele><time>2026-04-11T16:38:24.999Z</time></trkpt><trkpt lat="45.49016330553972" lon="8.446188162578162"><ele>173.0</ele><time>2026-04-11T16:38:25.999Z</time></trkpt><trkpt lat="45.49008696058512" lon="8.44624290433588"><ele>173.0</ele><time>2026-04-11T16:38:26.999Z</time></trkpt><trkpt lat="45.49000803100374" lon="8.446288848539448"><ele>173.0</ele><time>2026-04-11T16:38:27.999Z</time></trkpt><trkpt lat="45.48992893205588" lon="8.446341324965237"><ele>173.0</ele><time>2026-04-11T16:38:28.999Z</time></trkpt><trkpt lat="45.48984665096201" lon="8.4463917037726"><ele>173.0</ele><time>2026-04-11T16:38:29.999Z</time></trkpt><trkpt lat="45.4897665251439" lon="8.446449390640064"><ele>173.0</ele><time>2026-04-11T16:38:30.999Z</time></trkpt><trkpt lat="45.489687010907446" lon="8.446503614744717"><ele>173.0</ele><time>2026-04-11T16:38:31.999Z</time></trkpt><trkpt lat="45.48960828753165" lon="8.44655694707618"><ele>173.0</ele><time>2026-04-11T16:38:32.999Z</time></trkpt><trkpt lat="45.48953046790984" lon="8.446606224764306"><ele>173.0</ele><time>2026-04-11T16:38:33.999Z</time></trkpt><trkpt lat="45.48945253986793" lon="8.446661194468005"><ele>172.83333333333331</ele><time>2026-04-11T16:38:34.999Z</time></trkpt><trkpt lat="45.4893753973739" lon="8.44671813210307"><ele>172.66666666666666</ele><time>2026-04-11T16:38:35.999Z</time></trkpt><trkpt lat="45.489296175483986" lon="8.446770065620695"><ele>172.5</ele><time>2026-04-11T16:38:36.999Z</time></trkpt><trkpt lat="45.489222655656356" lon="8.44683350646044"><ele>172.33333333333334</ele><time>2026-04-11T16:38:37.999Z</time></trkpt><trkpt lat="45.489145029499284" lon="8.446891214885774"><ele>172.16666666666669</ele><time>2026-04-11T16:38:38.999Z</time></trkpt><trkpt lat="45.48906848576662" lon="8.446945852728199"><ele>172.0</ele><time>2026-04-11T16:38:39.999Z</time></trkpt><trkpt lat="45.48899492194652" lon="8.447006170119476"><ele>172.0</ele><time>2026-04-11T16:38:40.999Z</time></trkpt><trkpt lat="45.48892232748543" lon="8.447066139606994"><ele>172.0</ele><time>2026-04-11T16:38:41.999Z</time></trkpt><trkpt lat="45.48885024894371" lon="8.447120107737764"><ele>172.0</ele><time>2026-04-11T16:38:42.999Z</time></trkpt><trkpt lat="45.488777933466615" lon="8.447173450688888"><ele>172.0</ele><time>2026-04-11T16:38:43.999Z</time></trkpt><trkpt lat="45.488705589563445" lon="8.44723122464237"><ele>172.0</ele><time>2026-04-11T16:38:44.999Z</time></trkpt><trkpt lat="45.48863348705618" lon="8.44728594105042"><ele>172.0</ele><time>2026-04-11T16:38:45.999Z</time></trkpt><trkpt lat="45.488558448535976" lon="8.447338962563363"><ele>171.83333333333334</ele><time>2026-04-11T16:38:46.999Z</time></trkpt><trkpt lat="45.48848070236731" lon="8.447386524610796"><ele>171.66666666666669</ele><time>2026-04-11T16:38:47.999Z</time></trkpt><trkpt lat="45.48839861069365" lon="8.447424222297581"><ele>171.5</ele><time>2026-04-11T16:38:48.999Z</time></trkpt><trkpt lat="45.488318537726244" lon="8.447464994614904"><ele>171.33333333333334</ele><time>2026-04-11T16:38:49.999Z</time></trkpt><trkpt lat="45.488238009128864" lon="8.447510779381236"><ele>171.16666666666666</ele><time>2026-04-11T16:38:50.999Z</time></trkpt><trkpt lat="45.488158340354495" lon="8.447558811360171"><ele>171.0</ele><time>2026-04-11T16:38:51.999Z</time></trkpt><trkpt lat="45.488078505019594" lon="8.44759784516279"><ele>171.0</ele><time>2026-04-11T16:38:52.999Z</time></trkpt><trkpt lat="45.48799952955515" lon="8.44764454039835"><ele>171.0</ele><time>2026-04-11T16:38:53.999Z</time></trkpt><trkpt lat="45.487921610206605" lon="8.447694257311404"><ele>171.0</ele><time>2026-04-11T16:38:54.999Z</time></trkpt><trkpt lat="45.4878436896384" lon="8.447746708957718"><ele>171.0</ele><time>2026-04-11T16:38:55.999Z</time></trkpt><trkpt lat="45.48776635036211" lon="8.447805100664569"><ele>171.0</ele><time>2026-04-11T16:38:56.999Z</time></trkpt><trkpt lat="45.4876951852307" lon="8.447874209201034"><ele>171.0</ele><time>2026-04-11T16:38:57.999Z</time></trkpt><trkpt lat="45.48763214030395" lon="8.447958056427996"><ele>171.16666666666666</ele><time>2026-04-11T16:38:58.999Z</time></trkpt><trkpt lat="45.48757168071701" lon="8.448041556318637"><ele>171.33333333333334</ele><time>2026-04-11T16:38:59.998Z</time></trkpt><trkpt lat="45.48751032983655" lon="8.448122293512471"><ele>171.5</ele><time>2026-04-11T16:39:00.998Z</time></trkpt><trkpt lat="45.48744769357112" lon="8.448203343369489"><ele>171.66666666666669</ele><time>2026-04-11T16:39:01.998Z</time></trkpt><trkpt lat="45.48738963313164" lon="8.44828877598759"><ele>171.83333333333334</ele><time>2026-04-11T16:39:02.998Z</time></trkpt><trkpt lat="45.487328483820576" lon="8.448364454135053"><ele>172.0</ele><time>2026-04-11T16:39:03.998Z</time></trkpt><trkpt lat="45.48726650816582" lon="8.448437477473801"><ele>172.0</ele><time>2026-04-11T16:39:04.998Z</time></trkpt><trkpt lat="45.487203629486096" lon="8.448510599523043"><ele>172.0</ele><time>2026-04-11T16:39:05.998Z</time></trkpt><trkpt lat="45.487140551300456" lon="8.448584230475353"><ele>172.0</ele><time>2026-04-11T16:39:06.998Z</time></trkpt><trkpt lat="45.48707937781594" lon="8.448656599186291"><ele>172.0</ele><time>2026-04-11T16:39:07.998Z</time></trkpt><trkpt lat="45.48701516805644" lon="8.44872972382354"><ele>172.0</ele><time>2026-04-11T16:39:08.998Z</time></trkpt><trkpt lat="45.48695090324114" lon="8.448805548010684"><ele>172.0</ele><time>2026-04-11T16:39:09.998Z</time></trkpt><trkpt lat="45.48688669753319" lon="8.448883363102128"><ele>172.0</ele><time>2026-04-11T16:39:10.998Z</time></trkpt><trkpt lat="45.48682265742687" lon="8.44895939048525"><ele>172.0</ele><time>2026-04-11T16:39:11.998Z</time></trkpt><trkpt lat="45.486755599925566" lon="8.44903676420168"><ele>172.0</ele><time>2026-04-11T16:39:12.998Z</time></trkpt><trkpt lat="45.48669038852232" lon="8.449113469981883"><ele>172.0</ele><time>2026-04-11T16:39:13.998Z</time></trkpt><trkpt lat="45.48662492426359" lon="8.449189176423882"><ele>172.0</ele><time>2026-04-11T16:39:14.998Z</time></trkpt><trkpt lat="45.486558528930686" lon="8.449265395211286"><ele>172.0</ele><time>2026-04-11T16:39:15.998Z</time></trkpt><trkpt lat="45.486486320162946" lon="8.449335457290095"><ele>172.0</ele><time>2026-04-11T16:39:16.998Z</time></trkpt><trkpt lat="45.486415426677" lon="8.449400318197965"><ele>172.0</ele><time>2026-04-11T16:39:17.998Z</time></trkpt><trkpt lat="45.48633960286107" lon="8.449464691348323"><ele>172.0</ele><time>2026-04-11T16:39:18.998Z</time></trkpt><trkpt lat="45.48626212481542" lon="8.44952725404841"><ele>172.0</ele><time>2026-04-11T16:39:19.998Z</time></trkpt><trkpt lat="45.486188135570984" lon="8.449596201397492"><ele>172.0</ele><time>2026-04-11T16:39:20.998Z</time></trkpt><trkpt lat="45.48611633152494" lon="8.449664194889893"><ele>172.0</ele><time>2026-04-11T16:39:21.998Z</time></trkpt><trkpt lat="45.48604551114718" lon="8.449734808561665"><ele>171.83333333333334</ele><time>2026-04-11T16:39:22.998Z</time></trkpt><trkpt lat="45.48597373242748" lon="8.449808333368065"><ele>171.66666666666669</ele><time>2026-04-11T16:39:23.998Z</time></trkpt><trkpt lat="45.48590230696657" lon="8.449887305351096"><ele>171.5</ele><time>2026-04-11T16:39:24.998Z</time></trkpt><trkpt lat="45.48583180433174" lon="8.44996985862496"><ele>171.33333333333334</ele><time>2026-04-11T16:39:25.998Z</time></trkpt><trkpt lat="45.48576374605559" lon="8.450050618927204"><ele>171.16666666666666</ele><time>2026-04-11T16:39:26.998Z</time></trkpt><trkpt lat="45.485695486257" lon="8.450133035911213"><ele>171.0</ele><time>2026-04-11T16:39:27.998Z</time></trkpt><trkpt lat="45.48562820967684" lon="8.450213912104639"><ele>171.0</ele><time>2026-04-11T16:39:28.998Z</time></trkpt><trkpt lat="45.485561264245455" lon="8.45029973113634"><ele>171.0</ele><time>2026-04-11T16:39:29.998Z</time></trkpt><trkpt lat="45.48549486807113" lon="8.45038498161062"><ele>171.0</ele><time>2026-04-11T16:39:30.998Z</time></trkpt><trkpt lat="45.4854278989944" lon="8.450467975198686"><ele>171.0</ele><time>2026-04-11T16:39:31.998Z</time></trkpt><trkpt lat="45.48535963111624" lon="8.4505468496695"><ele>171.0</ele><time>2026-04-11T16:39:32.998Z</time></trkpt><trkpt lat="45.48529283662917" lon="8.45062969868229"><ele>171.0</ele><time>2026-04-11T16:39:33.998Z</time></trkpt><trkpt lat="45.48522388044017" lon="8.450713716804733"><ele>171.16666666666666</ele><time>2026-04-11T16:39:34.998Z</time></trkpt><trkpt lat="45.48515630180243" lon="8.450798418224087"><ele>171.33333333333334</ele><time>2026-04-11T16:39:35.998Z</time></trkpt><trkpt lat="45.485091961508886" lon="8.450883708078877"><ele>171.5</ele><time>2026-04-11T16:39:36.998Z</time></trkpt><trkpt lat="45.48502345485753" lon="8.450964345048902"><ele>171.66666666666669</ele><time>2026-04-11T16:39:37.998Z</time></trkpt><trkpt lat="45.4849535337459" lon="8.451045518692002"><ele>171.83333333333334</ele><time>2026-04-11T16:39:38.998Z</time></trkpt><trkpt lat="45.484880978877406" lon="8.451117454300958"><ele>172.0</ele><time>2026-04-11T16:39:39.998Z</time></trkpt><trkpt lat="45.48481248136518" lon="8.451193507363394"><ele>172.0</ele><time>2026-04-11T16:39:41Z</time></trkpt><trkpt lat="45.484742121512554" lon="8.451270410834809"><ele>172.0</ele><time>2026-04-11T16:39:42Z</time></trkpt><trkpt lat="45.4846709507972" lon="8.451340676009867"><ele>172.0</ele><time>2026-04-11T16:39:43Z</time></trkpt><trkpt lat="45.48459802608938" lon="8.451412914377073"><ele>172.0</ele><time>2026-04-11T16:39:44Z</time></trkpt><trkpt lat="45.48452693839996" lon="8.451488455401067"><ele>172.0</ele><time>2026-04-11T16:39:45Z</time></trkpt><trkpt lat="45.48445792269535" lon="8.451568049407374"><ele>172.0</ele><time>2026-04-11T16:39:46Z</time></trkpt><trkpt lat="45.48438549578823" lon="8.451645893307747"><ele>171.8</ele><time>2026-04-11T16:39:47Z</time></trkpt><trkpt lat="45.48431191166315" lon="8.451721247063931"><ele>171.6</ele><time>2026-04-11T16:39:48Z</time></trkpt><trkpt lat="45.48423921603679" lon="8.45179779090672"><ele>171.4</ele><time>2026-04-11T16:39:49Z</time></trkpt><trkpt lat="45.48416550817406" lon="8.451873373411795"><ele>171.20000000000002</ele><time>2026-04-11T16:39:50Z</time></trkpt><trkpt lat="45.484091932099126" lon="8.451946967774125"><ele>171.0</ele><time>2026-04-11T16:39:51Z</time></trkpt><trkpt lat="45.48401799840634" lon="8.452018945446758"><ele>171.0</ele><time>2026-04-11T16:39:52Z</time></trkpt><trkpt lat="45.48394523182864" lon="8.452088435896995"><ele>171.0</ele><time>2026-04-11T16:39:53Z</time></trkpt><trkpt lat="45.48387461575738" lon="8.452157660419555"><ele>171.0</ele><time>2026-04-11T16:39:54Z</time></trkpt><trkpt lat="45.48380350251223" lon="8.452228383614422"><ele>171.0</ele><time>2026-04-11T16:39:55Z</time></trkpt><trkpt lat="45.48373270031318" lon="8.452298243574614"><ele>171.0</ele><time>2026-04-11T16:39:56Z</time></trkpt><trkpt lat="45.48366142126317" lon="8.452366464893112"><ele>171.0</ele><time>2026-04-11T16:39:57Z</time></trkpt><trkpt lat="45.48358867532881" lon="8.45243589307059"><ele>170.66666666666666</ele><time>2026-04-11T16:39:57.999Z</time></trkpt><trkpt lat="45.48351449989798" lon="8.452504420334938"><ele>170.33333333333334</ele><time>2026-04-11T16:39:58.999Z</time></trkpt><trkpt lat="45.483439924476336" lon="8.452574932717827"><ele>170.0</ele><time>2026-04-11T16:39:59.999Z</time></trkpt><trkpt lat="45.483366720003254" lon="8.45264505698649"><ele>169.66666666666669</ele><time>2026-04-11T16:40:00.999Z</time></trkpt><trkpt lat="45.483294000405955" lon="8.452717445891993"><ele>169.33333333333334</ele><time>2026-04-11T16:40:01.999Z</time></trkpt><trkpt lat="45.48322013182858" lon="8.452787643383429"><ele>169.0</ele><time>2026-04-11T16:40:02.999Z</time></trkpt><trkpt lat="45.4831457227291" lon="8.452857272769753"><ele>169.0</ele><time>2026-04-11T16:40:03.999Z</time></trkpt><trkpt lat="45.483072542978405" lon="8.452925526901973"><ele>169.0</ele><time>2026-04-11T16:40:04.999Z</time></trkpt><trkpt lat="45.48300030131797" lon="8.452997564414382"><ele>169.0</ele><time>2026-04-11T16:40:05.999Z</time></trkpt><trkpt lat="45.482924632505004" lon="8.453065712010503"><ele>169.0</ele><time>2026-04-11T16:40:06.999Z</time></trkpt><trkpt lat="45.482845047083444" lon="8.453130298190386"><ele>169.0</ele><time>2026-04-11T16:40:07.999Z</time></trkpt><trkpt lat="45.482769166080836" lon="8.453200976767729"><ele>169.0</ele><time>2026-04-11T16:40:08.999Z</time></trkpt><trkpt lat="45.482690413781754" lon="8.453269491383315"><ele>169.0</ele><time>2026-04-11T16:40:09.999Z</time></trkpt><trkpt lat="45.482612314926556" lon="8.45333443607827"><ele>169.0</ele><time>2026-04-11T16:40:10.999Z</time></trkpt><trkpt lat="45.482534940269204" lon="8.453402573693568"><ele>169.0</ele><time>2026-04-11T16:40:11.999Z</time></trkpt><trkpt lat="45.482460690767596" lon="8.45347042965606"><ele>169.0</ele><time>2026-04-11T16:40:12.999Z</time></trkpt><trkpt lat="45.482385978664055" lon="8.453536814519548"><ele>169.0</ele><time>2026-04-11T16:40:13.999Z</time></trkpt><trkpt lat="45.482313267775936" lon="8.453606310514322"><ele>169.0</ele><time>2026-04-11T16:40:14.999Z</time></trkpt><trkpt lat="45.48224150325667" lon="8.453681738353321"><ele>169.0</ele><time>2026-04-11T16:40:15.999Z</time></trkpt><trkpt lat="45.482169734460186" lon="8.453754748108674"><ele>169.0</ele><time>2026-04-11T16:40:16.999Z</time></trkpt><trkpt lat="45.48209696680205" lon="8.453829099797543"><ele>169.0</ele><time>2026-04-11T16:40:17.999Z</time></trkpt><trkpt lat="45.482024021336194" lon="8.453897873178313"><ele>169.0</ele><time>2026-04-11T16:40:18.999Z</time></trkpt><trkpt lat="45.481949357405725" lon="8.453964858043646"><ele>169.0</ele><time>2026-04-11T16:40:19.999Z</time></trkpt><trkpt lat="45.481874837628446" lon="8.454033423841222"><ele>169.0</ele><time>2026-04-11T16:40:20.999Z</time></trkpt><trkpt lat="45.48180021436068" lon="8.454097444218032"><ele>169.0</ele><time>2026-04-11T16:40:21.999Z</time></trkpt><trkpt lat="45.48172417959149" lon="8.45415823194574"><ele>169.0</ele><time>2026-04-11T16:40:22.999Z</time></trkpt><trkpt lat="45.48165075148106" lon="8.45421589517532"><ele>169.0</ele><time>2026-04-11T16:40:23.999Z</time></trkpt><trkpt lat="45.48157973499182" lon="8.454276278053642"><ele>169.0</ele><time>2026-04-11T16:40:24.999Z</time></trkpt><trkpt lat="45.48151024878114" lon="8.45433677518244"><ele>169.0</ele><time>2026-04-11T16:40:25.999Z</time></trkpt><trkpt lat="45.48144032497951" lon="8.454389171286603"><ele>169.0</ele><time>2026-04-11T16:40:26.999Z</time></trkpt><trkpt lat="45.48136934715861" lon="8.454437307695803"><ele>169.0</ele><time>2026-04-11T16:40:27.999Z</time></trkpt><trkpt lat="45.48129808379618" lon="8.454485567587142"><ele>169.0</ele><time>2026-04-11T16:40:28.999Z</time></trkpt><trkpt lat="45.48122519410499" lon="8.454537420549396"><ele>169.0</ele><time>2026-04-11T16:40:29.999Z</time></trkpt><trkpt lat="45.48115245221224" lon="8.45459051449817"><ele>169.0</ele><time>2026-04-11T16:40:30.999Z</time></trkpt><trkpt lat="45.481082249080146" lon="8.454648073694944"><ele>169.0</ele><time>2026-04-11T16:40:31.999Z</time></trkpt><trkpt lat="45.48101395744292" lon="8.45470341289223"><ele>169.0</ele><time>2026-04-11T16:40:32.999Z</time></trkpt><trkpt lat="45.48094675119828" lon="8.454761334643509"><ele>169.42857142857144</ele><time>2026-04-11T16:40:33.999Z</time></trkpt><trkpt lat="45.480879310494835" lon="8.454819422385027"><ele>169.85714285714286</ele><time>2026-04-11T16:40:34.999Z</time></trkpt><trkpt lat="45.48081157999369" lon="8.454879042226022"><ele>170.28571428571428</ele><time>2026-04-11T16:40:35.999Z</time></trkpt><trkpt lat="45.48074340726388" lon="8.454933198130393"><ele>170.71428571428572</ele><time>2026-04-11T16:40:36.999Z</time></trkpt><trkpt lat="45.48067578212898" lon="8.454972667304553"><ele>171.14285714285714</ele><time>2026-04-11T16:40:37.999Z</time></trkpt><trkpt lat="45.48061178983501" lon="8.455014269577168"><ele>171.57142857142858</ele><time>2026-04-11T16:40:38.999Z</time></trkpt><trkpt lat="45.48055262040572" lon="8.455050817958286"><ele>172.0</ele><time>2026-04-11T16:40:39.999Z</time></trkpt><trkpt lat="45.48047102740915" lon="8.455073388577528"><ele>171.83333333333334</ele><time>2026-04-11T16:40:41.999Z</time></trkpt><trkpt lat="45.48039112395237" lon="8.45509072814897"><ele>171.66666666666669</ele><time>2026-04-11T16:40:45.999Z</time></trkpt><trkpt lat="45.48031474522508" lon="8.4551782420784"><ele>171.5</ele><time>2026-04-11T16:40:48.999Z</time></trkpt><trkpt lat="45.48026641816553" lon="8.455258368372176"><ele>171.33333333333334</ele><time>2026-04-11T16:40:50.999Z</time></trkpt><trkpt lat="45.48023741550373" lon="8.455344374609346"><ele>171.16666666666666</ele><time>2026-04-11T16:40:52.999Z</time></trkpt><trkpt lat="45.48022163477408" lon="8.4554508788216"><ele>171.0</ele><time>2026-04-11T16:42:11Z</time></trkpt><trkpt lat="45.480191277894896" lon="8.4555838629827"><ele>171.0</ele><time>2026-04-11T16:42:13Z</time></trkpt><trkpt lat="45.48014348663506" lon="8.455754121859544"><ele>171.0</ele><time>2026-04-11T16:42:15Z</time></trkpt><trkpt lat="45.480116808418934" lon="8.455847934428874"><ele>171.0</ele><time>2026-04-11T16:42:16Z</time></trkpt><trkpt lat="45.4800899007002" lon="8.455949403865045"><ele>171.0</ele><time>2026-04-11T16:42:17Z</time></trkpt><trkpt lat="45.48006506762841" lon="8.456060459317344"><ele>171.0</ele><time>2026-04-11T16:42:18Z</time></trkpt><trkpt lat="45.480040110515446" lon="8.456174045959088"><ele>171.0</ele><time>2026-04-11T16:42:19Z</time></trkpt><trkpt lat="45.48001712201343" lon="8.456293396192558"><ele>170.8</ele><time>2026-04-11T16:42:20Z</time></trkpt><trkpt lat="45.47997624468114" lon="8.456406940167941"><ele>170.60000000000002</ele><time>2026-04-11T16:42:21Z</time></trkpt><trkpt lat="45.47994868850394" lon="8.456530439087718"><ele>170.4</ele><time>2026-04-11T16:42:22Z</time></trkpt><trkpt lat="45.4799338115949" lon="8.456663396767182"><ele>170.2</ele><time>2026-04-11T16:42:23Z</time></trkpt><trkpt lat="45.47989725461041" lon="8.456789735094118"><ele>170.0</ele><time>2026-04-11T16:42:24Z</time></trkpt><trkpt lat="45.479863887877286" lon="8.45691669922527"><ele>170.0</ele><time>2026-04-11T16:42:25Z</time></trkpt><trkpt lat="45.47983263530563" lon="8.457044864959721"><ele>170.0</ele><time>2026-04-11T16:42:26Z</time></trkpt><trkpt lat="45.479799814235854" lon="8.457178579150519"><ele>170.0</ele><time>2026-04-11T16:42:27Z</time></trkpt><trkpt lat="45.479768203941674" lon="8.457312747978973"><ele>170.0</ele><time>2026-04-11T16:42:28Z</time></trkpt><trkpt lat="45.47973552765943" lon="8.45744695894495"><ele>170.0</ele><time>2026-04-11T16:42:29Z</time></trkpt><trkpt lat="45.47970063407269" lon="8.457579597659654"><ele>170.0</ele><time>2026-04-11T16:42:30Z</time></trkpt><trkpt lat="45.47966631269866" lon="8.45771422984743"><ele>170.0</ele><time>2026-04-11T16:42:31Z</time></trkpt><trkpt lat="45.479632367045234" lon="8.457846409149951"><ele>170.0</ele><time>2026-04-11T16:42:32Z</time></trkpt><trkpt lat="45.479597414800864" lon="8.45797963012616"><ele>170.0</ele><time>2026-04-11T16:42:33Z</time></trkpt><trkpt lat="45.47956687811733" lon="8.458116060814094"><ele>170.0</ele><time>2026-04-11T16:42:34Z</time></trkpt><trkpt lat="45.47953568842908" lon="8.458251247088704"><ele>170.2</ele><time>2026-04-11T16:42:35Z</time></trkpt><trkpt lat="45.4795034310141" lon="8.458387938106648"><ele>170.4</ele><time>2026-04-11T16:42:36Z</time></trkpt><trkpt lat="45.47946892476167" lon="8.45851822095751"><ele>170.60000000000002</ele><time>2026-04-11T16:42:37Z</time></trkpt><trkpt lat="45.47943757718415" lon="8.458644907548782"><ele>170.8</ele><time>2026-04-11T16:42:38Z</time></trkpt><trkpt lat="45.47940337659606" lon="8.458768065825181"><ele>171.0</ele><time>2026-04-11T16:42:39Z</time></trkpt><trkpt lat="45.47936848815097" lon="8.458888384172345"><ele>171.20000000000002</ele><time>2026-04-11T16:42:40Z</time></trkpt><trkpt lat="45.479329932806046" lon="8.459003874539047"><ele>171.4</ele><time>2026-04-11T16:42:41Z</time></trkpt><trkpt lat="45.479284709165896" lon="8.459115176290474"><ele>171.6</ele><time>2026-04-11T16:42:42Z</time></trkpt><trkpt lat="45.47923869076753" lon="8.459227217954922"><ele>171.8</ele><time>2026-04-11T16:42:43Z</time></trkpt><trkpt lat="45.47919383466331" lon="8.45934170344942"><ele>172.0</ele><time>2026-04-11T16:42:44Z</time></trkpt><trkpt lat="45.479152473711146" lon="8.459458571051089"><ele>172.0</ele><time>2026-04-11T16:42:45Z</time></trkpt><trkpt lat="45.47911882873574" lon="8.45957856278623"><ele>172.0</ele><time>2026-04-11T16:42:46Z</time></trkpt><trkpt lat="45.47908864380871" lon="8.459698986937195"><ele>172.0</ele><time>2026-04-11T16:42:47Z</time></trkpt><trkpt lat="45.47906102329092" lon="8.459822374204373"><ele>172.0</ele><time>2026-04-11T16:42:48Z</time></trkpt><trkpt lat="45.47903427664528" lon="8.459946902819052"><ele>172.0</ele><time>2026-04-11T16:42:49Z</time></trkpt><trkpt lat="45.47900866255867" lon="8.460071858170759"><ele>171.6</ele><time>2026-04-11T16:42:50Z</time></trkpt><trkpt lat="45.478981228801196" lon="8.460198113759384"><ele>171.2</ele><time>2026-04-11T16:42:51Z</time></trkpt><trkpt lat="45.47895633980744" lon="8.460322289130932"><ele>170.8</ele><time>2026-04-11T16:42:52Z</time></trkpt><trkpt lat="45.478936727079585" lon="8.460446119816053"><ele>170.4</ele><time>2026-04-11T16:42:53Z</time></trkpt><trkpt lat="45.478925210715886" lon="8.460572664542642"><ele>170.0</ele><time>2026-04-11T16:42:54Z</time></trkpt><trkpt lat="45.478918580838936" lon="8.460697867295465"><ele>170.0</ele><time>2026-04-11T16:42:55Z</time></trkpt><trkpt lat="45.47891835498775" lon="8.460821995976335"><ele>170.0</ele><time>2026-04-11T16:42:56Z</time></trkpt><trkpt lat="45.478921768435164" lon="8.460945425053303"><ele>170.0</ele><time>2026-04-11T16:42:57Z</time></trkpt><trkpt lat="45.478929489259194" lon="8.461067388895183"><ele>170.0</ele><time>2026-04-11T16:42:58Z</time></trkpt><trkpt lat="45.478937790670614" lon="8.461182646138433"><ele>170.0</ele><time>2026-04-11T16:42:59Z</time></trkpt><trkpt lat="45.47894492852421" lon="8.461286650914692"><ele>170.0</ele><time>2026-04-11T16:43:00Z</time></trkpt><trkpt lat="45.47895224696484" lon="8.461449722488705"><ele>170.0</ele><time>2026-04-11T16:43:02Z</time></trkpt><trkpt lat="45.47892652173222" lon="8.461557975857582"><ele>170.0</ele><time>2026-04-11T16:43:05Z</time></trkpt><trkpt lat="45.47884717034005" lon="8.4616557889452"><ele>170.0</ele><time>2026-04-11T16:43:07.999Z</time></trkpt><trkpt lat="45.47873810485575" lon="8.46171148830923"><ele>170.0</ele><time>2026-04-11T16:43:09.999Z</time></trkpt><trkpt lat="45.478677455778744" lon="8.461742723667292"><ele>170.0</ele><time>2026-04-11T16:43:10.999Z</time></trkpt><trkpt lat="45.47861168568856" lon="8.461776443666599"><ele>170.0</ele><time>2026-04-11T16:43:11.999Z</time></trkpt><trkpt lat="45.478542431133185" lon="8.461810406428574"><ele>170.0</ele><time>2026-04-11T16:43:12.999Z</time></trkpt><trkpt lat="45.47848037708603" lon="8.46184624241842"><ele>170.0</ele><time>2026-04-11T16:43:13.999Z</time></trkpt><trkpt lat="45.478398394174306" lon="8.461877082286955"><ele>170.0</ele><time>2026-04-11T16:43:15.999Z</time></trkpt><trkpt lat="45.47842557164479" lon="8.462043697991867"><ele>170.0</ele><time>2026-04-11T16:43:17.999Z</time></trkpt><trkpt lat="45.47846712448383" lon="8.462197243820688"><ele>170.0</ele><time>2026-04-11T16:43:19.999Z</time></trkpt><trkpt lat="45.478480787148186" lon="8.462293958987479"><ele>170.16666666666666</ele><time>2026-04-11T16:43:20.999Z</time></trkpt><trkpt lat="45.478494787055865" lon="8.462396747830018"><ele>170.33333333333331</ele><time>2026-04-11T16:43:21.999Z</time></trkpt><trkpt lat="45.47850950989812" lon="8.462503084139072"><ele>170.5</ele><time>2026-04-11T16:43:22.999Z</time></trkpt><trkpt lat="45.47852418033513" lon="8.462611861598592"><ele>170.66666666666666</ele><time>2026-04-11T16:43:23.999Z</time></trkpt><trkpt lat="45.4785399920576" lon="8.462721240036402"><ele>170.83333333333334</ele><time>2026-04-11T16:43:24.999Z</time></trkpt><trkpt lat="45.478555187948004" lon="8.462827542678912"><ele>171.0</ele><time>2026-04-11T16:43:25.999Z</time></trkpt><trkpt lat="45.478569932402614" lon="8.462933744344804"><ele>170.66666666666666</ele><time>2026-04-11T16:43:26.999Z</time></trkpt><trkpt lat="45.47859040173314" lon="8.463036234975224"><ele>170.33333333333334</ele><time>2026-04-11T16:43:27.999Z</time></trkpt><trkpt lat="45.47861367430814" lon="8.463142010697169"><ele>170.0</ele><time>2026-04-11T16:43:28.999Z</time></trkpt><trkpt lat="45.47863776954622" lon="8.463241629965143"><ele>169.66666666666669</ele><time>2026-04-11T16:43:29.999Z</time></trkpt><trkpt lat="45.47866056197132" lon="8.463336784676352"><ele>169.33333333333334</ele><time>2026-04-11T16:43:30.999Z</time></trkpt><trkpt lat="45.4786812994272" lon="8.463427310131838"><ele>169.0</ele><time>2026-04-11T16:43:31.999Z</time></trkpt><trkpt lat="45.47868706352325" lon="8.463589577457466"><ele>169.0</ele><time>2026-04-11T16:43:33.999Z</time></trkpt><trkpt lat="45.47866992952792" lon="8.463750145371852"><ele>169.0</ele><time>2026-04-11T16:43:35.999Z</time></trkpt><trkpt lat="45.47864276562839" lon="8.463831937268742"><ele>169.0</ele><time>2026-04-11T16:43:36.999Z</time></trkpt><trkpt lat="45.47860617805707" lon="8.463911128795582"><ele>169.0</ele><time>2026-04-11T16:43:37.999Z</time></trkpt><trkpt lat="45.47855490469111" lon="8.463978930510606"><ele>169.0</ele><time>2026-04-11T16:43:38.999Z</time></trkpt><trkpt lat="45.478515350455545" lon="8.464059860929853"><ele>169.0</ele><time>2026-04-11T16:43:39.999Z</time></trkpt><trkpt lat="45.47848174516347" lon="8.464153960510291"><ele>169.0</ele><time>2026-04-11T16:43:40.999Z</time></trkpt><trkpt lat="45.47843585516384" lon="8.46424413748966"><ele>169.0</ele><time>2026-04-11T16:43:41.999Z</time></trkpt><trkpt lat="45.47838829328077" lon="8.46433556115519"><ele>169.0</ele><time>2026-04-11T16:43:42.999Z</time></trkpt><trkpt lat="45.47832648973304" lon="8.464413757391203"><ele>169.0</ele><time>2026-04-11T16:43:43.999Z</time></trkpt><trkpt lat="45.478270172739435" lon="8.464500964547653"><ele>169.0</ele><time>2026-04-11T16:43:44.999Z</time></trkpt><trkpt lat="45.4782206544291" lon="8.464598304618935"><ele>169.0</ele><time>2026-04-11T16:43:45.999Z</time></trkpt><trkpt lat="45.47815295953538" lon="8.464680878165796"><ele>169.0</ele><time>2026-04-11T16:43:46.999Z</time></trkpt><trkpt lat="45.47808771224659" lon="8.464765465895239"><ele>169.0</ele><time>2026-04-11T16:43:47.999Z</time></trkpt><trkpt lat="45.4780199891442" lon="8.464842797767643"><ele>169.0</ele><time>2026-04-11T16:43:48.999Z</time></trkpt><trkpt lat="45.477942818933016" lon="8.464895300687113"><ele>169.0</ele><time>2026-04-11T16:43:49.999Z</time></trkpt><trkpt lat="45.47786960771225" lon="8.464961413131313"><ele>169.0</ele><time>2026-04-11T16:43:50.999Z</time></trkpt><trkpt lat="45.477795268335505" lon="8.465027274650057"><ele>169.0</ele><time>2026-04-11T16:43:51.999Z</time></trkpt><trkpt lat="45.47773163436206" lon="8.465110133882586"><ele>168.83333333333334</ele><time>2026-04-11T16:43:53Z</time></trkpt><trkpt lat="45.47765921945587" lon="8.465165989185095"><ele>168.66666666666669</ele><time>2026-04-11T16:43:54Z</time></trkpt><trkpt lat="45.47758980867101" lon="8.465218257581226"><ele>168.5</ele><time>2026-04-11T16:43:55Z</time></trkpt><trkpt lat="45.477517431555725" lon="8.46525499728277"><ele>168.33333333333334</ele><time>2026-04-11T16:43:56Z</time></trkpt><trkpt lat="45.47744956185374" lon="8.465264863432752"><ele>168.16666666666666</ele><time>2026-04-11T16:43:57Z</time></trkpt><trkpt lat="45.477379741086935" lon="8.465296458302594"><ele>168.0</ele><time>2026-04-11T16:43:58Z</time></trkpt><trkpt lat="45.47730338589343" lon="8.465331010093307"><ele>168.0</ele><time>2026-04-11T16:43:59Z</time></trkpt><trkpt lat="45.47722438447636" lon="8.465366759335533"><ele>168.0</ele><time>2026-04-11T16:44:00Z</time></trkpt><trkpt lat="45.477202129536415" lon="8.465678844151721"><ele>168.0</ele><time>2026-04-11T16:44:01Z</time></trkpt><trkpt lat="45.47712779949304" lon="8.465770727216762"><ele>168.0</ele><time>2026-04-11T16:44:02Z</time></trkpt><trkpt lat="45.47704973871245" lon="8.465861035694047"><ele>168.66666666666666</ele><time>2026-04-11T16:44:03Z</time></trkpt><trkpt lat="45.476968917035165" lon="8.465950209577208"><ele>169.33333333333334</ele><time>2026-04-11T16:44:04Z</time></trkpt><trkpt lat="45.47688563469767" lon="8.466033006257547"><ele>170.0</ele><time>2026-04-11T16:44:05Z</time></trkpt><trkpt lat="45.476817103386246" lon="8.466109683651952"><ele>170.66666666666669</ele><time>2026-04-11T16:44:06Z</time></trkpt><trkpt lat="45.47675821069759" lon="8.466171448925499"><ele>171.33333333333334</ele><time>2026-04-11T16:44:07Z</time></trkpt><trkpt lat="45.47669245439399" lon="8.466241890750922"><ele>172.0</ele><time>2026-04-11T16:44:09Z</time></trkpt><trkpt lat="45.47674796848122" lon="8.466192728467275"><ele>172.0</ele><time>2026-04-11T16:44:29Z</time></trkpt><trkpt lat="45.47679903201231" lon="8.466136079258654"><ele>172.0</ele><time>2026-04-11T16:44:32Z</time></trkpt><trkpt lat="45.47685781379184" lon="8.466072537866037"><ele>172.0</ele><time>2026-04-11T16:44:47Z</time></trkpt><trkpt lat="45.47690764389687" lon="8.466017089559394"><ele>172.0</ele><time>2026-04-11T16:44:51Z</time></trkpt><trkpt lat="45.477149999320694" lon="8.465978010813924"><ele>172.0</ele><time>2026-04-11T16:45:06Z</time></trkpt><trkpt lat="45.47725088551744" lon="8.465950048501247"><ele>170.75</ele><time>2026-04-11T16:45:08Z</time></trkpt><trkpt lat="45.47736153784326" lon="8.465919072738432"><ele>169.5</ele><time>2026-04-11T16:45:09.999Z</time></trkpt><trkpt lat="45.47747113384769" lon="8.46589517276921"><ele>168.25</ele><time>2026-04-11T16:45:11.999Z</time></trkpt><trkpt lat="45.4775856541117" lon="8.465868026882895"><ele>167.0</ele><time>2026-04-11T16:45:13.999Z</time></trkpt><trkpt lat="45.47770519684018" lon="8.46587728196335"><ele>167.0</ele><time>2026-04-11T16:45:15.999Z</time></trkpt><trkpt lat="45.47780593072394" lon="8.465870348872762"><ele>167.0</ele><time>2026-04-11T16:45:20.999Z</time></trkpt><trkpt lat="45.47773660332618" lon="8.46616977137758"><ele>167.0</ele><time>2026-04-11T16:45:22.999Z</time></trkpt><trkpt lat="45.47772579406147" lon="8.466277746739568"><ele>167.0</ele><time>2026-04-11T16:45:23.999Z</time></trkpt><trkpt lat="45.47771584919723" lon="8.466392367650085"><ele>166.6</ele><time>2026-04-11T16:45:24.999Z</time></trkpt><trkpt lat="45.47770419640566" lon="8.466516549285853"><ele>166.2</ele><time>2026-04-11T16:45:25.999Z</time></trkpt><trkpt lat="45.47768723869434" lon="8.466646950213638"><ele>165.8</ele><time>2026-04-11T16:45:26.999Z</time></trkpt><trkpt lat="45.47767175638172" lon="8.466783205386333"><ele>165.4</ele><time>2026-04-11T16:45:27.999Z</time></trkpt><trkpt lat="45.477655362507456" lon="8.466922523855239"><ele>165.0</ele><time>2026-04-11T16:45:28.999Z</time></trkpt><trkpt lat="45.4776361019212" lon="8.467063386730402"><ele>165.0</ele><time>2026-04-11T16:45:29.999Z</time></trkpt><trkpt lat="45.477619288331915" lon="8.467205366815273"><ele>165.0</ele><time>2026-04-11T16:45:30.999Z</time></trkpt><trkpt lat="45.477600961069925" lon="8.467350019567398"><ele>165.0</ele><time>2026-04-11T16:45:31.999Z</time></trkpt><trkpt lat="45.47758135805564" lon="8.467500391638985"><ele>165.0</ele><time>2026-04-11T16:45:32.999Z</time></trkpt><trkpt lat="45.47756365564088" lon="8.467653445691644"><ele>165.0</ele><time>2026-04-11T16:45:33.999Z</time></trkpt><trkpt lat="45.47754629160799" lon="8.467809165410069"><ele>165.25</ele><time>2026-04-11T16:45:34.999Z</time></trkpt><trkpt lat="45.47752622491948" lon="8.467966260971165"><ele>165.5</ele><time>2026-04-11T16:45:35.999Z</time></trkpt><trkpt lat="45.477507806776444" lon="8.468125868753926"><ele>165.75</ele><time>2026-04-11T16:45:36.999Z</time></trkpt><trkpt lat="45.477487575098785" lon="8.468286768992913"><ele>166.0</ele><time>2026-04-11T16:45:37.999Z</time></trkpt><trkpt lat="45.47746571664278" lon="8.468449377273371"><ele>166.0</ele><time>2026-04-11T16:45:38.999Z</time></trkpt><trkpt lat="45.477443227251776" lon="8.468615312627545"><ele>166.0</ele><time>2026-04-11T16:45:39.999Z</time></trkpt><trkpt lat="45.47742034556443" lon="8.4687808343647"><ele>166.0</ele><time>2026-04-11T16:45:40.999Z</time></trkpt><trkpt lat="45.477396958162664" lon="8.468948334956892"><ele>166.0</ele><time>2026-04-11T16:45:41.999Z</time></trkpt><trkpt lat="45.47737521352384" lon="8.469119739106912"><ele>165.75</ele><time>2026-04-11T16:45:42.999Z</time></trkpt><trkpt lat="45.47735333202559" lon="8.4692936856046"><ele>165.5</ele><time>2026-04-11T16:45:43.999Z</time></trkpt><trkpt lat="45.4773327960796" lon="8.469469600901276"><ele>165.25</ele><time>2026-04-11T16:45:44.999Z</time></trkpt><trkpt lat="45.477310861131954" lon="8.469645959229121"><ele>165.0</ele><time>2026-04-11T16:45:45.999Z</time></trkpt><trkpt lat="45.47728855079348" lon="8.469820387859755"><ele>165.0</ele><time>2026-04-11T16:45:46.999Z</time></trkpt><trkpt lat="45.4772663169447" lon="8.469995005201831"><ele>165.0</ele><time>2026-04-11T16:45:47.999Z</time></trkpt><trkpt lat="45.477244894543006" lon="8.470169224773569"><ele>165.0</ele><time>2026-04-11T16:45:48.999Z</time></trkpt><trkpt lat="45.477222050940895" lon="8.470342723967864"><ele>165.0</ele><time>2026-04-11T16:45:49.999Z</time></trkpt><trkpt lat="45.47720413770132" lon="8.470516090010047"><ele>165.0</ele><time>2026-04-11T16:45:50.999Z</time></trkpt><trkpt lat="45.47719390690247" lon="8.470690683071986"><ele>165.0</ele><time>2026-04-11T16:45:51.999Z</time></trkpt><trkpt lat="45.47719584669378" lon="8.47086745195771"><ele>165.0</ele><time>2026-04-11T16:45:52.999Z</time></trkpt><trkpt lat="45.47720246966445" lon="8.471043374834343"><ele>165.0</ele><time>2026-04-11T16:45:53.999Z</time></trkpt><trkpt lat="45.477210170316184" lon="8.471221596176001"><ele>165.25</ele><time>2026-04-11T16:45:54.999Z</time></trkpt><trkpt lat="45.47721535246433" lon="8.471398079139137"><ele>165.5</ele><time>2026-04-11T16:45:55.999Z</time></trkpt><trkpt lat="45.477220888568155" lon="8.471575182144038"><ele>165.75</ele><time>2026-04-11T16:45:56.999Z</time></trkpt><trkpt lat="45.477224848148474" lon="8.47175068653104"><ele>166.0</ele><time>2026-04-11T16:45:57.999Z</time></trkpt><trkpt lat="45.47722884961067" lon="8.471924914964013"><ele>166.0</ele><time>2026-04-11T16:45:59Z</time></trkpt><trkpt lat="45.477232103274105" lon="8.472100726754835"><ele>166.0</ele><time>2026-04-11T16:46:00Z</time></trkpt><trkpt lat="45.47723336998549" lon="8.472280051725974"><ele>166.0</ele><time>2026-04-11T16:46:01Z</time></trkpt><trkpt lat="45.477236007664594" lon="8.472457318425027"><ele>166.0</ele><time>2026-04-11T16:46:02Z</time></trkpt><trkpt lat="45.47724086897109" lon="8.472636488065536"><ele>166.0</ele><time>2026-04-11T16:46:03Z</time></trkpt><trkpt lat="45.4772456932192" lon="8.472818443448903"><ele>166.0</ele><time>2026-04-11T16:46:04Z</time></trkpt><trkpt lat="45.47725059112024" lon="8.47299902226056"><ele>166.0</ele><time>2026-04-11T16:46:05Z</time></trkpt><trkpt lat="45.47725556389195" lon="8.473181127571666"><ele>166.0</ele><time>2026-04-11T16:46:06Z</time></trkpt><trkpt lat="45.47725864367826" lon="8.47336431100551"><ele>165.75</ele><time>2026-04-11T16:46:07Z</time></trkpt><trkpt lat="45.477261931985694" lon="8.473548567244153"><ele>165.5</ele><time>2026-04-11T16:46:08Z</time></trkpt><trkpt lat="45.47726493669934" lon="8.473732445942703"><ele>165.25</ele><time>2026-04-11T16:46:09Z</time></trkpt><trkpt lat="45.47726884535302" lon="8.473918272545346"><ele>165.0</ele><time>2026-04-11T16:46:10Z</time></trkpt><trkpt lat="45.47727270569497" lon="8.474104026222415"><ele>165.0</ele><time>2026-04-11T16:46:11Z</time></trkpt><trkpt lat="45.477274794160444" lon="8.47429062541171"><ele>165.0</ele><time>2026-04-11T16:46:12Z</time></trkpt><trkpt lat="45.47727773369141" lon="8.474480578535246"><ele>165.0</ele><time>2026-04-11T16:46:13Z</time></trkpt><trkpt lat="45.47727786542307" lon="8.474669854141567"><ele>165.0</ele><time>2026-04-11T16:46:14Z</time></trkpt><trkpt lat="45.477280098908196" lon="8.474857513520286"><ele>165.0</ele><time>2026-04-11T16:46:15Z</time></trkpt><trkpt lat="45.47728454159763" lon="8.475046170084026"><ele>165.0</ele><time>2026-04-11T16:46:16Z</time></trkpt><trkpt lat="45.477289212169936" lon="8.475233494677708"><ele>165.0</ele><time>2026-04-11T16:46:17Z</time></trkpt><trkpt lat="45.477292665657764" lon="8.475419581134275"><ele>165.0</ele><time>2026-04-11T16:46:18Z</time></trkpt><trkpt lat="45.47729488516686" lon="8.475606889778447"><ele>165.0</ele><time>2026-04-11T16:46:19Z</time></trkpt><trkpt lat="45.477295822312584" lon="8.475794999221957"><ele>165.0</ele><time>2026-04-11T16:46:20Z</time></trkpt><trkpt lat="45.47729695236712" lon="8.47598232161438"><ele>165.0</ele><time>2026-04-11T16:46:21Z</time></trkpt><trkpt lat="45.47730140317373" lon="8.476168257387213"><ele>165.0</ele><time>2026-04-11T16:46:22Z</time></trkpt><trkpt lat="45.477304405007736" lon="8.476354745975787"><ele>164.75</ele><time>2026-04-11T16:46:23Z</time></trkpt><trkpt lat="45.47730882112245" lon="8.47654047828969"><ele>164.5</ele><time>2026-04-11T16:46:24Z</time></trkpt><trkpt lat="45.4773129962089" lon="8.476727341583274"><ele>164.25</ele><time>2026-04-11T16:46:25Z</time></trkpt><trkpt lat="45.47731608424598" lon="8.476910773587381"><ele>164.0</ele><time>2026-04-11T16:46:26Z</time></trkpt><trkpt lat="45.477318620174344" lon="8.47709228825746"><ele>164.0</ele><time>2026-04-11T16:46:27Z</time></trkpt><trkpt lat="45.47731948880576" lon="8.477272682692032"><ele>164.0</ele><time>2026-04-11T16:46:28Z</time></trkpt><trkpt lat="45.477318836408095" lon="8.477453582129884"><ele>164.0</ele><time>2026-04-11T16:46:29Z</time></trkpt><trkpt lat="45.47731758919886" lon="8.477634617625597"><ele>164.0</ele><time>2026-04-11T16:46:30Z</time></trkpt><trkpt lat="45.477314454409246" lon="8.477814925935991"><ele>164.25</ele><time>2026-04-11T16:46:31Z</time></trkpt><trkpt lat="45.47730818666041" lon="8.477995465014025"><ele>164.5</ele><time>2026-04-11T16:46:32Z</time></trkpt><trkpt lat="45.47729781427666" lon="8.478169477871727"><ele>164.75</ele><time>2026-04-11T16:46:33Z</time></trkpt><trkpt lat="45.47728506366699" lon="8.478335290902548"><ele>165.0</ele><time>2026-04-11T16:46:34Z</time></trkpt><trkpt lat="45.47727448591989" lon="8.478490521125046"><ele>165.0</ele><time>2026-04-11T16:46:35Z</time></trkpt><trkpt lat="45.47726141168469" lon="8.478645227405128"><ele>165.0</ele><time>2026-04-11T16:46:36Z</time></trkpt><trkpt lat="45.477248003806025" lon="8.478795139552446"><ele>165.0</ele><time>2026-04-11T16:46:37Z</time></trkpt><trkpt lat="45.477235079787725" lon="8.478947570814263"><ele>165.0</ele><time>2026-04-11T16:46:38Z</time></trkpt><trkpt lat="45.477225919813385" lon="8.479104976256949"><ele>165.0</ele><time>2026-04-11T16:46:39Z</time></trkpt><trkpt lat="45.47721756615581" lon="8.479263516934877"><ele>165.0</ele><time>2026-04-11T16:46:40Z</time></trkpt><trkpt lat="45.47720483577659" lon="8.479425429931688"><ele>165.0</ele><time>2026-04-11T16:46:41Z</time></trkpt><trkpt lat="45.47719206667849" lon="8.479589927542195"><ele>165.0</ele><time>2026-04-11T16:46:42Z</time></trkpt><trkpt lat="45.47717759744868" lon="8.479756893438193"><ele>165.0</ele><time>2026-04-11T16:46:43Z</time></trkpt><trkpt lat="45.4771668581952" lon="8.479927220012513"><ele>165.0</ele><time>2026-04-11T16:46:44Z</time></trkpt><trkpt lat="45.47715497426334" lon="8.480098552480952"><ele>165.0</ele><time>2026-04-11T16:46:45Z</time></trkpt><trkpt lat="45.47714289398089" lon="8.480270150070933"><ele>165.0</ele><time>2026-04-11T16:46:46Z</time></trkpt><trkpt lat="45.47713018347286" lon="8.48044275916696"><ele>165.0</ele><time>2026-04-11T16:46:47Z</time></trkpt><trkpt lat="45.4771200904365" lon="8.480614576056123"><ele>165.0</ele><time>2026-04-11T16:46:48Z</time></trkpt><trkpt lat="45.477107912413" lon="8.480786102076317"><ele>165.0</ele><time>2026-04-11T16:46:49Z</time></trkpt><trkpt lat="45.47709747978082" lon="8.48095825849538"><ele>165.0</ele><time>2026-04-11T16:46:50Z</time></trkpt><trkpt lat="45.47708782282384" lon="8.481128695289785"><ele>165.0</ele><time>2026-04-11T16:46:51Z</time></trkpt><trkpt lat="45.47707825843513" lon="8.481291476476684"><ele>165.0</ele><time>2026-04-11T16:46:52Z</time></trkpt><trkpt lat="45.47706937249905" lon="8.481448127480604"><ele>165.0</ele><time>2026-04-11T16:46:53Z</time></trkpt><trkpt lat="45.47705931339824" lon="8.481597801338296"><ele>165.0</ele><time>2026-04-11T16:46:54Z</time></trkpt><trkpt lat="45.47704961608724" lon="8.481741060582475"><ele>165.0</ele><time>2026-04-11T16:46:55Z</time></trkpt><trkpt lat="45.477041108096884" lon="8.481876839612879"><ele>165.0</ele><time>2026-04-11T16:46:56Z</time></trkpt><trkpt lat="45.47703381373244" lon="8.482005971351057"><ele>164.66666666666666</ele><time>2026-04-11T16:46:57Z</time></trkpt><trkpt lat="45.47702551942864" lon="8.482129641239535"><ele>164.33333333333334</ele><time>2026-04-11T16:46:58Z</time></trkpt><trkpt lat="45.47701507242398" lon="8.482247565462652"><ele>164.0</ele><time>2026-04-11T16:46:59Z</time></trkpt><trkpt lat="45.476998501615206" lon="8.48236035890002"><ele>163.66666666666669</ele><time>2026-04-11T16:47:00Z</time></trkpt><trkpt lat="45.476979426202874" lon="8.482466081629099"><ele>163.33333333333334</ele><time>2026-04-11T16:47:01Z</time></trkpt><trkpt lat="45.47694624957531" lon="8.48256109025727"><ele>163.0</ele><time>2026-04-11T16:47:02Z</time></trkpt><trkpt lat="45.47689435856764" lon="8.482639652737713"><ele>163.0</ele><time>2026-04-11T16:47:03Z</time></trkpt><trkpt lat="45.476829067233716" lon="8.482707294330995"><ele>163.0</ele><time>2026-04-11T16:47:04Z</time></trkpt><trkpt lat="45.47674960500421" lon="8.482759864821547"><ele>163.0</ele><time>2026-04-11T16:47:05Z</time></trkpt><trkpt lat="45.47666152253266" lon="8.482812996940343"><ele>163.0</ele><time>2026-04-11T16:47:06Z</time></trkpt><trkpt lat="45.476570107457896" lon="8.482872600774783"><ele>163.0</ele><time>2026-04-11T16:47:07Z</time></trkpt><trkpt lat="45.4764775975637" lon="8.482935213593802"><ele>163.0</ele><time>2026-04-11T16:47:08Z</time></trkpt><trkpt lat="45.47637792973099" lon="8.482990406280052"><ele>163.0</ele><time>2026-04-11T16:47:09Z</time></trkpt><trkpt lat="45.47627673817946" lon="8.4830469878858"><ele>163.0</ele><time>2026-04-11T16:47:10Z</time></trkpt><trkpt lat="45.47617098274359" lon="8.483105317787093"><ele>163.0</ele><time>2026-04-11T16:47:11Z</time></trkpt><trkpt lat="45.47605907135299" lon="8.483160522842125"><ele>163.0</ele><time>2026-04-11T16:47:12Z</time></trkpt><trkpt lat="45.475946744864856" lon="8.483213440602247"><ele>163.0</ele><time>2026-04-11T16:47:13Z</time></trkpt><trkpt lat="45.475832973689336" lon="8.48326753191033"><ele>163.0</ele><time>2026-04-11T16:47:13.999Z</time></trkpt><trkpt lat="45.475719933473265" lon="8.48332726937934"><ele>163.0</ele><time>2026-04-11T16:47:14.999Z</time></trkpt><trkpt lat="45.47560383196368" lon="8.483379400304166"><ele>163.0</ele><time>2026-04-11T16:47:15.999Z</time></trkpt><trkpt lat="45.47548672209974" lon="8.483430434004923"><ele>163.25</ele><time>2026-04-11T16:47:16.999Z</time></trkpt><trkpt lat="45.47537416279314" lon="8.483483814640378"><ele>163.5</ele><time>2026-04-11T16:47:17.999Z</time></trkpt><trkpt lat="45.47525778152431" lon="8.483537543696706"><ele>163.75</ele><time>2026-04-11T16:47:18.999Z</time></trkpt><trkpt lat="45.47514551900579" lon="8.483599708967517"><ele>164.0</ele><time>2026-04-11T16:47:19.999Z</time></trkpt><trkpt lat="45.47503465629404" lon="8.48366061780815"><ele>164.0</ele><time>2026-04-11T16:47:20.999Z</time></trkpt><trkpt lat="45.47492392726398" lon="8.483724483548823"><ele>164.0</ele><time>2026-04-11T16:47:21.999Z</time></trkpt><trkpt lat="45.47481310472596" lon="8.483786294293722"><ele>164.0</ele><time>2026-04-11T16:47:22.999Z</time></trkpt><trkpt lat="45.47470021917003" lon="8.48385470002952"><ele>164.0</ele><time>2026-04-11T16:47:23.999Z</time></trkpt><trkpt lat="45.47458569019863" lon="8.483915913375313"><ele>163.75</ele><time>2026-04-11T16:47:24.999Z</time></trkpt><trkpt lat="45.474469643013414" lon="8.483969146516827"><ele>163.5</ele><time>2026-04-11T16:47:25.999Z</time></trkpt><trkpt lat="45.47435505361105" lon="8.484028981240863"><ele>163.25</ele><time>2026-04-11T16:47:26.999Z</time></trkpt><trkpt lat="45.47424035208633" lon="8.48408964542243"><ele>163.0</ele><time>2026-04-11T16:47:27.999Z</time></trkpt><trkpt lat="45.47412768904866" lon="8.484160911132431"><ele>163.0</ele><time>2026-04-11T16:47:28.999Z</time></trkpt><trkpt lat="45.47401866328486" lon="8.484240995776581"><ele>163.0</ele><time>2026-04-11T16:47:29.999Z</time></trkpt><trkpt lat="45.473916123345674" lon="8.484324213027948"><ele>163.0</ele><time>2026-04-11T16:47:30.999Z</time></trkpt><trkpt lat="45.47381213211554" lon="8.484399051387673"><ele>163.0</ele><time>2026-04-11T16:47:31.999Z</time></trkpt><trkpt lat="45.473713204265856" lon="8.484463938238962"><ele>163.2</ele><time>2026-04-11T16:47:32.999Z</time></trkpt><trkpt lat="45.47361629940187" lon="8.484525078004014"><ele>163.4</ele><time>2026-04-11T16:47:33.999Z</time></trkpt><trkpt lat="45.47351697693547" lon="8.484589345660533"><ele>163.6</ele><time>2026-04-11T16:47:34.999Z</time></trkpt><trkpt lat="45.473413982175444" lon="8.48465039427536"><ele>163.79999999999998</ele><time>2026-04-11T16:47:35.999Z</time></trkpt><trkpt lat="45.47331090480289" lon="8.484710799730928"><ele>164.0</ele><time>2026-04-11T16:47:36.999Z</time></trkpt><trkpt lat="45.47320652764669" lon="8.484759231633655"><ele>164.0</ele><time>2026-04-11T16:47:37.999Z</time></trkpt><trkpt lat="45.473104094426375" lon="8.484801549554094"><ele>164.0</ele><time>2026-04-11T16:47:38.999Z</time></trkpt><trkpt lat="45.47299912595606" lon="8.48483798252817"><ele>164.0</ele><time>2026-04-11T16:47:39.999Z</time></trkpt><trkpt lat="45.47288885436365" lon="8.484870880649785"><ele>164.0</ele><time>2026-04-11T16:47:40.999Z</time></trkpt><trkpt lat="45.47278025720096" lon="8.48490242098962"><ele>164.0</ele><time>2026-04-11T16:47:41.999Z</time></trkpt><trkpt lat="45.47266926861589" lon="8.484941587892827"><ele>163.75</ele><time>2026-04-11T16:47:42.999Z</time></trkpt><trkpt lat="45.472559862616215" lon="8.484992707058211"><ele>163.5</ele><time>2026-04-11T16:47:43.999Z</time></trkpt><trkpt lat="45.47245442323734" lon="8.485058032540525"><ele>163.25</ele><time>2026-04-11T16:47:44.999Z</time></trkpt><trkpt lat="45.47235270627608" lon="8.485137117019615"><ele>163.0</ele><time>2026-04-11T16:47:45.999Z</time></trkpt><trkpt lat="45.47225323233929" lon="8.485222516173206"><ele>163.0</ele><time>2026-04-11T16:47:46.999Z</time></trkpt><trkpt lat="45.47215377308199" lon="8.485296124979097"><ele>163.0</ele><time>2026-04-11T16:47:47.999Z</time></trkpt><trkpt lat="45.47204800816919" lon="8.48535554733897"><ele>163.0</ele><time>2026-04-11T16:47:48.999Z</time></trkpt><trkpt lat="45.471943645775234" lon="8.485424137155638"><ele>163.0</ele><time>2026-04-11T16:47:49.999Z</time></trkpt><trkpt lat="45.47183399849004" lon="8.485484287881315"><ele>162.5</ele><time>2026-04-11T16:47:50.999Z</time></trkpt><trkpt lat="45.471719709448735" lon="8.48554294991455"><ele>162.0</ele><time>2026-04-11T16:47:51.999Z</time></trkpt><trkpt lat="45.47161106005351" lon="8.485595459436306"><ele>161.5</ele><time>2026-04-11T16:47:52.999Z</time></trkpt><trkpt lat="45.471504930748914" lon="8.485657090542423"><ele>161.0</ele><time>2026-04-11T16:47:53.999Z</time></trkpt><trkpt lat="45.47139866430671" lon="8.485721708894236"><ele>161.0</ele><time>2026-04-11T16:47:54.999Z</time></trkpt><trkpt lat="45.471293849198275" lon="8.485784630954647"><ele>161.0</ele><time>2026-04-11T16:47:55.999Z</time></trkpt><trkpt lat="45.47119003055885" lon="8.485838557502436"><ele>161.0</ele><time>2026-04-11T16:47:56.999Z</time></trkpt><trkpt lat="45.47109455881525" lon="8.48589825828986"><ele>161.0</ele><time>2026-04-11T16:47:57.999Z</time></trkpt><trkpt lat="45.470998155807344" lon="8.485952192897523"><ele>161.0</ele><time>2026-04-11T16:47:58.999Z</time></trkpt><trkpt lat="45.47090358606214" lon="8.486004876484824"><ele>161.0</ele><time>2026-04-11T16:47:59.999Z</time></trkpt><trkpt lat="45.47081125908129" lon="8.486052049848917"><ele>161.0</ele><time>2026-04-11T16:48:00.999Z</time></trkpt><trkpt lat="45.47071803715628" lon="8.486099261721758"><ele>161.0</ele><time>2026-04-11T16:48:01.999Z</time></trkpt><trkpt lat="45.470621540615056" lon="8.486147749578722"><ele>161.0</ele><time>2026-04-11T16:48:02.999Z</time></trkpt><trkpt lat="45.470527553020055" lon="8.48619845741854"><ele>161.0</ele><time>2026-04-11T16:48:04Z</time></trkpt><trkpt lat="45.47042939550818" lon="8.486252964735725"><ele>161.33333333333331</ele><time>2026-04-11T16:48:05Z</time></trkpt><trkpt lat="45.47033607668425" lon="8.486304615184535"><ele>161.66666666666666</ele><time>2026-04-11T16:48:06Z</time></trkpt><trkpt lat="45.47024581249971" lon="8.486342840300711"><ele>162.0</ele><time>2026-04-11T16:48:07Z</time></trkpt><trkpt lat="45.47016145309989" lon="8.486376103691157"><ele>162.33333333333334</ele><time>2026-04-11T16:48:08Z</time></trkpt><trkpt lat="45.470086559775545" lon="8.486398399621821"><ele>162.66666666666669</ele><time>2026-04-11T16:48:09Z</time></trkpt><trkpt lat="45.470018650474785" lon="8.486418874061636"><ele>163.0</ele><time>2026-04-11T16:48:10Z</time></trkpt><trkpt lat="45.46991551608424" lon="8.486517474158585"><ele>163.0</ele><time>2026-04-11T16:48:12Z</time></trkpt><trkpt lat="45.46988211610312" lon="8.486600423726479"><ele>163.0</ele><time>2026-04-11T16:48:13Z</time></trkpt><trkpt lat="45.46986280476201" lon="8.486696234582245"><ele>163.0</ele><time>2026-04-11T16:48:14Z</time></trkpt><trkpt lat="45.469856265124534" lon="8.486794307343215"><ele>163.0</ele><time>2026-04-11T16:48:15Z</time></trkpt><trkpt lat="45.46985703939655" lon="8.486892547409417"><ele>163.0</ele><time>2026-04-11T16:48:16Z</time></trkpt><trkpt lat="45.46985388888582" lon="8.486997204830084"><ele>163.0</ele><time>2026-04-11T16:48:17Z</time></trkpt><trkpt lat="45.46985004128559" lon="8.48709998805925"><ele>163.0</ele><time>2026-04-11T16:48:18Z</time></trkpt><trkpt lat="45.4698473765199" lon="8.487216055475793"><ele>162.8</ele><time>2026-04-11T16:48:19Z</time></trkpt><trkpt lat="45.46984656826716" lon="8.487344718402472"><ele>162.60000000000002</ele><time>2026-04-11T16:48:20Z</time></trkpt><trkpt lat="45.469846017495996" lon="8.487483519212478"><ele>162.39999999999998</ele><time>2026-04-11T16:48:21Z</time></trkpt><trkpt lat="45.46984413734076" lon="8.487628422554627"><ele>162.2</ele><time>2026-04-11T16:48:22Z</time></trkpt><trkpt lat="45.46984348048588" lon="8.487780819009908"><ele>162.0</ele><time>2026-04-11T16:48:23Z</time></trkpt><trkpt lat="45.469843935590276" lon="8.487938557026498"><ele>161.8</ele><time>2026-04-11T16:48:24Z</time></trkpt><trkpt lat="45.46984509851856" lon="8.488095824534419"><ele>161.6</ele><time>2026-04-11T16:48:25Z</time></trkpt><trkpt lat="45.4698432001418" lon="8.488255839025307"><ele>161.4</ele><time>2026-04-11T16:48:26Z</time></trkpt><trkpt lat="45.4698388663275" lon="8.488414036023803"><ele>161.20000000000002</ele><time>2026-04-11T16:48:27Z</time></trkpt><trkpt lat="45.469838557157516" lon="8.488574675023326"><ele>161.0</ele><time>2026-04-11T16:48:28Z</time></trkpt><trkpt lat="45.469836067736495" lon="8.488735365463283"><ele>160.75</ele><time>2026-04-11T16:48:29Z</time></trkpt><trkpt lat="45.46983260412138" lon="8.48889773467717"><ele>160.5</ele><time>2026-04-11T16:48:30Z</time></trkpt><trkpt lat="45.469830684299815" lon="8.489061690030915"><ele>160.25</ele><time>2026-04-11T16:48:31Z</time></trkpt><trkpt lat="45.46982931238618" lon="8.489227261206263"><ele>160.0</ele><time>2026-04-11T16:48:32Z</time></trkpt><trkpt lat="45.46982609821451" lon="8.489393122414551"><ele>160.0</ele><time>2026-04-11T16:48:33Z</time></trkpt><trkpt lat="45.46982377194773" lon="8.489559692385152"><ele>160.0</ele><time>2026-04-11T16:48:34Z</time></trkpt><trkpt lat="45.469822066849396" lon="8.489726405884792"><ele>160.0</ele><time>2026-04-11T16:48:35Z</time></trkpt><trkpt lat="45.469820129646024" lon="8.489892526160528"><ele>160.0</ele><time>2026-04-11T16:48:36Z</time></trkpt><trkpt lat="45.46982031665409" lon="8.490059271279902"><ele>160.0</ele><time>2026-04-11T16:48:37Z</time></trkpt><trkpt lat="45.46980978071487" lon="8.49020045684116"><ele>160.0</ele><time>2026-04-11T16:48:38Z</time></trkpt><trkpt lat="45.46980140098149" lon="8.490323248726394"><ele>160.0</ele><time>2026-04-11T16:48:39Z</time></trkpt><trkpt lat="45.46979686689491" lon="8.49041504354669"><ele>160.0</ele><time>2026-04-11T16:48:40Z</time></trkpt><trkpt lat="45.469799148961016" lon="8.49051901339622"><ele>160.0</ele><time>2026-04-11T16:48:41Z</time></trkpt><trkpt lat="45.46979633808499" lon="8.490623096006852"><ele>160.0</ele><time>2026-04-11T16:48:43Z</time></trkpt><trkpt lat="45.469794693632764" lon="8.490729719850757"><ele>160.0</ele><time>2026-04-11T16:48:49Z</time></trkpt><trkpt lat="45.46979709723216" lon="8.490875609878389"><ele>160.0</ele><time>2026-04-11T16:48:51Z</time></trkpt><trkpt lat="45.46979739872673" lon="8.490974835260097"><ele>160.0</ele><time>2026-04-11T16:48:52Z</time></trkpt><trkpt lat="45.46979397038613" lon="8.491090920055726"><ele>160.0</ele><time>2026-04-11T16:48:53Z</time></trkpt><trkpt lat="45.46978934864472" lon="8.49121962799354"><ele>160.0</ele><time>2026-04-11T16:48:54Z</time></trkpt><trkpt lat="45.469785813881195" lon="8.491358694194204"><ele>160.0</ele><time>2026-04-11T16:48:55Z</time></trkpt><trkpt lat="45.469780910571586" lon="8.491504131983685"><ele>160.2</ele><time>2026-04-11T16:48:56Z</time></trkpt><trkpt lat="45.46976769899548" lon="8.491654046595098"><ele>160.4</ele><time>2026-04-11T16:48:57Z</time></trkpt><trkpt lat="45.469740303293" lon="8.491804020204265"><ele>160.60000000000002</ele><time>2026-04-11T16:48:58Z</time></trkpt><trkpt lat="45.46969694114654" lon="8.491944759870055"><ele>160.8</ele><time>2026-04-11T16:48:59Z</time></trkpt><trkpt lat="45.46964154376035" lon="8.492075039272995"><ele>161.0</ele><time>2026-04-11T16:49:00Z</time></trkpt><trkpt lat="45.46957511985897" lon="8.492196390939755"><ele>161.0</ele><time>2026-04-11T16:49:01Z</time></trkpt><trkpt lat="45.46950022002761" lon="8.492307762433883"><ele>161.0</ele><time>2026-04-11T16:49:02Z</time></trkpt><trkpt lat="45.46941419741846" lon="8.49240620356802"><ele>161.0</ele><time>2026-04-11T16:49:03Z</time></trkpt><trkpt lat="45.46931833657061" lon="8.49248286037656"><ele>161.0</ele><time>2026-04-11T16:49:04Z</time></trkpt><trkpt lat="45.46920973186554" lon="8.49252057011266"><ele>161.0</ele><time>2026-04-11T16:49:05Z</time></trkpt><trkpt lat="45.469105162342025" lon="8.49254866602782"><ele>161.0</ele><time>2026-04-11T16:49:06Z</time></trkpt><trkpt lat="45.468996074560906" lon="8.492570816858878"><ele>161.0</ele><time>2026-04-11T16:49:07Z</time></trkpt><trkpt lat="45.46888687750887" lon="8.49258972113342"><ele>161.0</ele><time>2026-04-11T16:49:08Z</time></trkpt><trkpt lat="45.468776956054" lon="8.492603910426467"><ele>161.0</ele><time>2026-04-11T16:49:09Z</time></trkpt><trkpt lat="45.468665752524565" lon="8.492618978005593"><ele>161.0</ele><time>2026-04-11T16:49:10Z</time></trkpt><trkpt lat="45.468553179115304" lon="8.492634061600299"><ele>161.0</ele><time>2026-04-11T16:49:11Z</time></trkpt><trkpt lat="45.46843990090751" lon="8.49264917282667"><ele>161.0</ele><time>2026-04-11T16:49:11.999Z</time></trkpt><trkpt lat="45.46832645155574" lon="8.492664332221079"><ele>161.0</ele><time>2026-04-11T16:49:12.999Z</time></trkpt><trkpt lat="45.468211830531466" lon="8.492679868478755"><ele>161.0</ele><time>2026-04-11T16:49:13.999Z</time></trkpt><trkpt lat="45.46809437508272" lon="8.492696288058434"><ele>161.0</ele><time>2026-04-11T16:49:14.999Z</time></trkpt><trkpt lat="45.46797776835708" lon="8.492715554986482"><ele>161.0</ele><time>2026-04-11T16:49:15.999Z</time></trkpt><trkpt lat="45.46785951697408" lon="8.492732421123653"><ele>161.0</ele><time>2026-04-11T16:49:16.999Z</time></trkpt><trkpt lat="45.467739295804996" lon="8.492744752880268"><ele>161.0</ele><time>2026-04-11T16:49:17.999Z</time></trkpt><trkpt lat="45.46761864498324" lon="8.492754011931106"><ele>161.0</ele><time>2026-04-11T16:49:18.999Z</time></trkpt><trkpt lat="45.46750116512807" lon="8.492753862636711"><ele>161.0</ele><time>2026-04-11T16:49:19.999Z</time></trkpt><trkpt lat="45.46738589905065" lon="8.492739159894322"><ele>161.0</ele><time>2026-04-11T16:49:20.999Z</time></trkpt><trkpt lat="45.46728107789248" lon="8.492710934819064"><ele>161.0</ele><time>2026-04-11T16:49:21.999Z</time></trkpt><trkpt lat="45.4671779688225" lon="8.492668908889819"><ele>161.0</ele><time>2026-04-11T16:49:22.999Z</time></trkpt><trkpt lat="45.46707632256343" lon="8.492616173926516"><ele>161.0</ele><time>2026-04-11T16:49:23.999Z</time></trkpt><trkpt lat="45.46697567596781" lon="8.492559587751904"><ele>161.0</ele><time>2026-04-11T16:49:24.999Z</time></trkpt><trkpt lat="45.4668777343376" lon="8.49250298463434"><ele>161.0</ele><time>2026-04-11T16:49:25.999Z</time></trkpt><trkpt lat="45.46677968017013" lon="8.492445749844663"><ele>161.0</ele><time>2026-04-11T16:49:26.999Z</time></trkpt><trkpt lat="45.46668195296195" lon="8.492385625301806"><ele>161.0</ele><time>2026-04-11T16:49:27.999Z</time></trkpt><trkpt lat="45.46658589949713" lon="8.492326409543063"><ele>161.0</ele><time>2026-04-11T16:49:28.999Z</time></trkpt><trkpt lat="45.46649499205673" lon="8.492268515302726"><ele>161.0</ele><time>2026-04-11T16:49:29.999Z</time></trkpt><trkpt lat="45.46641191022858" lon="8.492214693151153"><ele>161.0</ele><time>2026-04-11T16:49:30.999Z</time></trkpt><trkpt lat="45.46633511946153" lon="8.492164946480122"><ele>161.0</ele><time>2026-04-11T16:49:31.999Z</time></trkpt><trkpt lat="45.46625593994955" lon="8.49211365232959"><ele>161.0</ele><time>2026-04-11T16:49:32.999Z</time></trkpt><trkpt lat="45.466175296948215" lon="8.492062149359418"><ele>160.83333333333331</ele><time>2026-04-11T16:49:33.999Z</time></trkpt><trkpt lat="45.46609050330158" lon="8.492029201907279"><ele>160.66666666666666</ele><time>2026-04-11T16:49:34.999Z</time></trkpt><trkpt lat="45.466014484607136" lon="8.491971948909903"><ele>160.5</ele><time>2026-04-11T16:49:35.999Z</time></trkpt><trkpt lat="45.465941208434764" lon="8.491924224572902"><ele>160.33333333333334</ele><time>2026-04-11T16:49:36.999Z</time></trkpt><trkpt lat="45.46587715875344" lon="8.491882336820044"><ele>160.16666666666669</ele><time>2026-04-11T16:49:37.999Z</time></trkpt><trkpt lat="45.465781459668364" lon="8.491779327602856"><ele>160.0</ele><time>2026-04-11T16:49:39.999Z</time></trkpt><trkpt lat="45.46570485428063" lon="8.491689486520853"><ele>160.0</ele><time>2026-04-11T16:49:41.999Z</time></trkpt><trkpt lat="45.46565841875106" lon="8.491607802481159"><ele>160.0</ele><time>2026-04-11T16:50:40Z</time></trkpt><trkpt lat="45.46577965394233" lon="8.491509678538627"><ele>160.0</ele><time>2026-04-11T16:51:09Z</time></trkpt><trkpt lat="45.46585191751867" lon="8.491454073502691"><ele>160.0</ele><time>2026-04-11T16:51:11Z</time></trkpt><trkpt lat="45.46593449204663" lon="8.491405956251329"><ele>160.0</ele><time>2026-04-11T16:51:13Z</time></trkpt><trkpt lat="45.466019319038104" lon="8.49136141177132"><ele>160.0</ele><time>2026-04-11T16:51:15Z</time></trkpt><trkpt lat="45.46611047989565" lon="8.491314830487203"><ele>160.0</ele><time>2026-04-11T16:51:17Z</time></trkpt><trkpt lat="45.46620415632273" lon="8.491309133042359"><ele>160.0</ele><time>2026-04-11T16:51:18.999Z</time></trkpt><trkpt lat="45.46629255588734" lon="8.491343231511099"><ele>160.0</ele><time>2026-04-11T16:51:20.999Z</time></trkpt><trkpt lat="45.466364330642435" lon="8.491374434424543"><ele>160.0</ele><time>2026-04-11T16:51:22.999Z</time></trkpt><trkpt lat="45.46633445551625" lon="8.491755575193952"><ele>160.2</ele><time>2026-04-11T16:51:27.999Z</time></trkpt><trkpt lat="45.46634279114547" lon="8.491923411420153"><ele>160.4</ele><time>2026-04-11T16:51:29.999Z</time></trkpt><trkpt lat="45.466399279540376" lon="8.492066820627745"><ele>160.60000000000002</ele><time>2026-04-11T16:51:31.999Z</time></trkpt><trkpt lat="45.46650862804356" lon="8.492138711945197"><ele>160.8</ele><time>2026-04-11T16:51:33.999Z</time></trkpt><trkpt lat="45.466570794067856" lon="8.492174241929906"><ele>161.0</ele><time>2026-04-11T16:51:34.999Z</time></trkpt><trkpt lat="45.46663697165526" lon="8.492203532770434"><ele>161.0</ele><time>2026-04-11T16:51:35.999Z</time></trkpt><trkpt lat="45.46670675874658" lon="8.49223371348219"><ele>161.0</ele><time>2026-04-11T16:51:36.999Z</time></trkpt><trkpt lat="45.466777772759606" lon="8.492266128051842"><ele>161.0</ele><time>2026-04-11T16:51:37.999Z</time></trkpt><trkpt lat="45.466848872282654" lon="8.492299108174517"><ele>161.0</ele><time>2026-04-11T16:51:38.999Z</time></trkpt><trkpt lat="45.46691768962616" lon="8.492332010767822"><ele>161.0</ele><time>2026-04-11T16:51:39.999Z</time></trkpt><trkpt lat="45.4669817060388" lon="8.492370732113685"><ele>161.0</ele><time>2026-04-11T16:51:40.999Z</time></trkpt><trkpt lat="45.467033749365264" lon="8.492427852614648"><ele>161.0</ele><time>2026-04-11T16:51:41.999Z</time></trkpt><trkpt lat="45.46711393586795" lon="8.492530430941645"><ele>160.60000000000002</ele><time>2026-04-11T16:51:43.999Z</time></trkpt><trkpt lat="45.46720149712431" lon="8.492551584635773"><ele>160.20000000000002</ele><time>2026-04-11T16:51:45.999Z</time></trkpt><trkpt lat="45.467272424422255" lon="8.492439980845042"><ele>159.8</ele><time>2026-04-11T16:51:47.999Z</time></trkpt><trkpt lat="45.46734978140867" lon="8.492298929989497"><ele>159.4</ele><time>2026-04-11T16:51:49.999Z</time></trkpt><trkpt lat="45.46739962955149" lon="8.492231810824295"><ele>159.0</ele><time>2026-04-11T16:51:50.999Z</time></trkpt><trkpt lat="45.46745693487825" lon="8.492169552345052"><ele>159.0</ele><time>2026-04-11T16:51:51.999Z</time></trkpt><trkpt lat="45.46752297315049" lon="8.492118821851616"><ele>159.0</ele><time>2026-04-11T16:51:52.999Z</time></trkpt><trkpt lat="45.46759305955462" lon="8.492072423848347"><ele>159.0</ele><time>2026-04-11T16:51:53.999Z</time></trkpt><trkpt lat="45.46766062438177" lon="8.492029681365757"><ele>159.0</ele><time>2026-04-11T16:51:54.999Z</time></trkpt><trkpt lat="45.46775745457187" lon="8.491994804983628"><ele>159.0</ele><time>2026-04-11T16:51:56.999Z</time></trkpt><trkpt lat="45.46780756385195" lon="8.49208480598128"><ele>159.0</ele><time>2026-04-11T16:51:58.999Z</time></trkpt><trkpt lat="45.46780797322864" lon="8.492262313348007"><ele>159.0</ele><time>2026-04-11T16:52:00.999Z</time></trkpt><trkpt lat="45.46781658898439" lon="8.492370657124466"><ele>159.0</ele><time>2026-04-11T16:52:01.999Z</time></trkpt><trkpt lat="45.46782777504221" lon="8.492490298125276"><ele>159.0</ele><time>2026-04-11T16:52:02.999Z</time></trkpt><trkpt lat="45.467839418953" lon="8.492619712240504"><ele>159.0</ele><time>2026-04-11T16:52:03.999Z</time></trkpt><trkpt lat="45.46785204746311" lon="8.492756420175551"><ele>159.0</ele><time>2026-04-11T16:52:04.999Z</time></trkpt><trkpt lat="45.467864732919686" lon="8.492896326269362"><ele>159.0</ele><time>2026-04-11T16:52:05.999Z</time></trkpt><trkpt lat="45.46787436276305" lon="8.493043432367644"><ele>159.0</ele><time>2026-04-11T16:52:06.999Z</time></trkpt><trkpt lat="45.46788457448833" lon="8.493189888529825"><ele>159.0</ele><time>2026-04-11T16:52:07.999Z</time></trkpt><trkpt lat="45.467894433567416" lon="8.493343586741773"><ele>159.0</ele><time>2026-04-11T16:52:08.999Z</time></trkpt><trkpt lat="45.46790706029961" lon="8.493501896669"><ele>159.0</ele><time>2026-04-11T16:52:09.999Z</time></trkpt><trkpt lat="45.46792200100189" lon="8.49366543444171"><ele>159.0</ele><time>2026-04-11T16:52:10.999Z</time></trkpt><trkpt lat="45.467937552099905" lon="8.493832784425477"><ele>159.5</ele><time>2026-04-11T16:52:11.999Z</time></trkpt><trkpt lat="45.46795166786177" lon="8.494003685947355"><ele>160.0</ele><time>2026-04-11T16:52:12.999Z</time></trkpt><trkpt lat="45.46796961519561" lon="8.494175741291482"><ele>160.5</ele><time>2026-04-11T16:52:13.999Z</time></trkpt><trkpt lat="45.467984390110125" lon="8.494349923494129"><ele>161.0</ele><time>2026-04-11T16:52:14.999Z</time></trkpt><trkpt lat="45.4679977836414" lon="8.494526760111423"><ele>160.5</ele><time>2026-04-11T16:52:16Z</time></trkpt><trkpt lat="45.468011241186595" lon="8.494703921379605"><ele>160.0</ele><time>2026-04-11T16:52:17Z</time></trkpt><trkpt lat="45.46802364959785" lon="8.494882877847513"><ele>159.5</ele><time>2026-04-11T16:52:18Z</time></trkpt><trkpt lat="45.468036479083196" lon="8.495062282602396"><ele>159.0</ele><time>2026-04-11T16:52:19Z</time></trkpt><trkpt lat="45.468052158036926" lon="8.495242226325225"><ele>159.0</ele><time>2026-04-11T16:52:20Z</time></trkpt><trkpt lat="45.46806541655761" lon="8.49542174892118"><ele>159.0</ele><time>2026-04-11T16:52:21Z</time></trkpt><trkpt lat="45.46807927254179" lon="8.495601658841599"><ele>159.0</ele><time>2026-04-11T16:52:22Z</time></trkpt><trkpt lat="45.468094021732334" lon="8.495779861240642"><ele>159.0</ele><time>2026-04-11T16:52:23Z</time></trkpt><trkpt lat="45.46810781010785" lon="8.495958606894353"><ele>159.0</ele><time>2026-04-11T16:52:24Z</time></trkpt><trkpt lat="45.46812049941245" lon="8.496135541829984"><ele>159.0</ele><time>2026-04-11T16:52:25Z</time></trkpt><trkpt lat="45.46813199946007" lon="8.496313643920633"><ele>159.0</ele><time>2026-04-11T16:52:26Z</time></trkpt><trkpt lat="45.46814197536938" lon="8.496489952479767"><ele>159.0</ele><time>2026-04-11T16:52:27Z</time></trkpt><trkpt lat="45.46815375168221" lon="8.49665836053946"><ele>159.0</ele><time>2026-04-11T16:52:28Z</time></trkpt><trkpt lat="45.46816516862762" lon="8.49682741870927"><ele>159.0</ele><time>2026-04-11T16:52:29Z</time></trkpt><trkpt lat="45.468175326121624" lon="8.496998767531911"><ele>159.0</ele><time>2026-04-11T16:52:30Z</time></trkpt><trkpt lat="45.46818660170374" lon="8.497169208680203"><ele>159.0</ele><time>2026-04-11T16:52:31Z</time></trkpt><trkpt lat="45.46819820753079" lon="8.497338964660164"><ele>159.0</ele><time>2026-04-11T16:52:32Z</time></trkpt><trkpt lat="45.46821132017881" lon="8.497508976363003"><ele>159.0</ele><time>2026-04-11T16:52:33Z</time></trkpt><trkpt lat="45.46822309472615" lon="8.49767391791356"><ele>159.0</ele><time>2026-04-11T16:52:34Z</time></trkpt><trkpt lat="45.468237234250566" lon="8.4978423572267"><ele>159.0</ele><time>2026-04-11T16:52:35Z</time></trkpt><trkpt lat="45.46825058294961" lon="8.498011664455086"><ele>158.75</ele><time>2026-04-11T16:52:36Z</time></trkpt><trkpt lat="45.46826208889373" lon="8.498186874699797"><ele>158.5</ele><time>2026-04-11T16:52:37Z</time></trkpt><trkpt lat="45.468275751363244" lon="8.498364123116783"><ele>158.25</ele><time>2026-04-11T16:52:38Z</time></trkpt><trkpt lat="45.46828939433273" lon="8.498537894867278"><ele>158.0</ele><time>2026-04-11T16:52:39Z</time></trkpt><trkpt lat="45.46830019961485" lon="8.498711102848867"><ele>158.25</ele><time>2026-04-11T16:52:40Z</time></trkpt><trkpt lat="45.4683137034504" lon="8.49888726230312"><ele>158.5</ele><time>2026-04-11T16:52:41Z</time></trkpt><trkpt lat="45.46832728185022" lon="8.499060222466746"><ele>158.75</ele><time>2026-04-11T16:52:42Z</time></trkpt><trkpt lat="45.46833821394579" lon="8.499230078018016"><ele>159.0</ele><time>2026-04-11T16:52:43Z</time></trkpt><trkpt lat="45.468347931994536" lon="8.49939703215566"><ele>159.0</ele><time>2026-04-11T16:52:44Z</time></trkpt><trkpt lat="45.46836269096726" lon="8.499561893465271"><ele>159.0</ele><time>2026-04-11T16:52:45Z</time></trkpt><trkpt lat="45.468374577277096" lon="8.499722513937126"><ele>159.0</ele><time>2026-04-11T16:52:46Z</time></trkpt><trkpt lat="45.468385680554604" lon="8.499885738193347"><ele>159.0</ele><time>2026-04-11T16:52:47Z</time></trkpt><trkpt lat="45.46839741221585" lon="8.500052328699606"><ele>159.0</ele><time>2026-04-11T16:52:48Z</time></trkpt><trkpt lat="45.46840743912478" lon="8.500218670222683"><ele>159.0</ele><time>2026-04-11T16:52:49Z</time></trkpt><trkpt lat="45.468419201563776" lon="8.500382324675291"><ele>159.0</ele><time>2026-04-11T16:52:50Z</time></trkpt><trkpt lat="45.468428906531685" lon="8.500548000531996"><ele>159.0</ele><time>2026-04-11T16:52:51Z</time></trkpt><trkpt lat="45.46843733650621" lon="8.500712220475604"><ele>158.5</ele><time>2026-04-11T16:52:52Z</time></trkpt><trkpt lat="45.46844765631354" lon="8.50087810721799"><ele>158.0</ele><time>2026-04-11T16:52:53Z</time></trkpt><trkpt lat="45.46845356960095" lon="8.501039740903034"><ele>157.5</ele><time>2026-04-11T16:52:54Z</time></trkpt><trkpt lat="45.46846414395072" lon="8.50120483133206"><ele>157.0</ele><time>2026-04-11T16:52:55Z</time></trkpt><trkpt lat="45.46847949282101" lon="8.501369932445508"><ele>157.0</ele><time>2026-04-11T16:52:56Z</time></trkpt><trkpt lat="45.46849282432454" lon="8.501534360005095"><ele>157.0</ele><time>2026-04-11T16:52:57Z</time></trkpt><trkpt lat="45.46850393840451" lon="8.50170101647582"><ele>157.0</ele><time>2026-04-11T16:52:58Z</time></trkpt><trkpt lat="45.46851672694259" lon="8.50186667273143"><ele>157.0</ele><time>2026-04-11T16:52:59Z</time></trkpt><trkpt lat="45.46852688335863" lon="8.502032461700244"><ele>157.25</ele><time>2026-04-11T16:53:00Z</time></trkpt><trkpt lat="45.46853954054222" lon="8.502198771642803"><ele>157.5</ele><time>2026-04-11T16:53:01Z</time></trkpt><trkpt lat="45.46855368805753" lon="8.502361919980103"><ele>157.75</ele><time>2026-04-11T16:53:02Z</time></trkpt><trkpt lat="45.46856721084901" lon="8.50251979094398"><ele>158.0</ele><time>2026-04-11T16:53:03Z</time></trkpt><trkpt lat="45.46857917370145" lon="8.502682499911748"><ele>158.0</ele><time>2026-04-11T16:53:04Z</time></trkpt><trkpt lat="45.468590717539364" lon="8.502849580134638"><ele>158.0</ele><time>2026-04-11T16:53:05Z</time></trkpt><trkpt lat="45.46860235851935" lon="8.50301858791465"><ele>158.0</ele><time>2026-04-11T16:53:06Z</time></trkpt><trkpt lat="45.468615370516375" lon="8.503187636082876"><ele>158.0</ele><time>2026-04-11T16:53:07Z</time></trkpt><trkpt lat="45.46862625900179" lon="8.50335785641586"><ele>158.25</ele><time>2026-04-11T16:53:08Z</time></trkpt><trkpt lat="45.46863617684606" lon="8.5035288322058"><ele>158.5</ele><time>2026-04-11T16:53:09Z</time></trkpt><trkpt lat="45.46864925806827" lon="8.503697074676031"><ele>158.75</ele><time>2026-04-11T16:53:10Z</time></trkpt><trkpt lat="45.46866356455523" lon="8.503864740829728"><ele>159.0</ele><time>2026-04-11T16:53:11Z</time></trkpt><trkpt lat="45.46867602775628" lon="8.504032222877225"><ele>159.0</ele><time>2026-04-11T16:53:12Z</time></trkpt><trkpt lat="45.46868919914152" lon="8.504198218053714"><ele>159.0</ele><time>2026-04-11T16:53:13Z</time></trkpt><trkpt lat="45.46870123217001" lon="8.50436447836438"><ele>159.0</ele><time>2026-04-11T16:53:14Z</time></trkpt><trkpt lat="45.46871318822489" lon="8.504533671272384"><ele>159.0</ele><time>2026-04-11T16:53:15Z</time></trkpt><trkpt lat="45.468725555474755" lon="8.504705698150818"><ele>159.0</ele><time>2026-04-11T16:53:16Z</time></trkpt><trkpt lat="45.46873980588418" lon="8.50487763083235"><ele>159.0</ele><time>2026-04-11T16:53:17Z</time></trkpt><trkpt lat="45.468753653270085" lon="8.50504869956359"><ele>159.0</ele><time>2026-04-11T16:53:18Z</time></trkpt><trkpt lat="45.4687667127053" lon="8.505219798233627"><ele>159.0</ele><time>2026-04-11T16:53:19Z</time></trkpt><trkpt lat="45.4687776868112" lon="8.50539067807693"><ele>159.25</ele><time>2026-04-11T16:53:20Z</time></trkpt><trkpt lat="45.46878949358839" lon="8.505559833061255"><ele>159.5</ele><time>2026-04-11T16:53:21Z</time></trkpt><trkpt lat="45.468803738044336" lon="8.505727734572963"><ele>159.75</ele><time>2026-04-11T16:53:22Z</time></trkpt><trkpt lat="45.46881737353168" lon="8.505896523832611"><ele>160.0</ele><time>2026-04-11T16:53:23Z</time></trkpt><trkpt lat="45.468829331316314" lon="8.50606423850612"><ele>160.0</ele><time>2026-04-11T16:53:24Z</time></trkpt><trkpt lat="45.468837628748275" lon="8.506230924631794"><ele>160.0</ele><time>2026-04-11T16:53:24.999Z</time></trkpt><trkpt lat="45.46884532507283" lon="8.506395844179359"><ele>160.0</ele><time>2026-04-11T16:53:25.999Z</time></trkpt><trkpt lat="45.46885992684384" lon="8.506558997043044"><ele>160.0</ele><time>2026-04-11T16:53:26.999Z</time></trkpt><trkpt lat="45.468871198708634" lon="8.506723055593817"><ele>159.5</ele><time>2026-04-11T16:53:27.999Z</time></trkpt><trkpt lat="45.46888361081492" lon="8.506886148987302"><ele>159.0</ele><time>2026-04-11T16:53:28.999Z</time></trkpt><trkpt lat="45.468888189308466" lon="8.507049651453551"><ele>158.5</ele><time>2026-04-11T16:53:29.999Z</time></trkpt><trkpt lat="45.4688952376081" lon="8.507211455729026"><ele>158.0</ele><time>2026-04-11T16:53:30.999Z</time></trkpt><trkpt lat="45.46890699503039" lon="8.507374169193993"><ele>158.0</ele><time>2026-04-11T16:53:31.999Z</time></trkpt><trkpt lat="45.468921822959494" lon="8.50753923014195"><ele>158.0</ele><time>2026-04-11T16:53:32.999Z</time></trkpt><trkpt lat="45.468938086431095" lon="8.50770586059896"><ele>158.0</ele><time>2026-04-11T16:53:33.999Z</time></trkpt><trkpt lat="45.46895298796165" lon="8.507874365352112"><ele>158.0</ele><time>2026-04-11T16:53:34.999Z</time></trkpt><trkpt lat="45.46896515954528" lon="8.50804130899579"><ele>158.25</ele><time>2026-04-11T16:53:35.999Z</time></trkpt><trkpt lat="45.46897877876828" lon="8.508211819309414"><ele>158.5</ele><time>2026-04-11T16:53:36.999Z</time></trkpt><trkpt lat="45.4689896276826" lon="8.508383828956262"><ele>158.75</ele><time>2026-04-11T16:53:37.999Z</time></trkpt><trkpt lat="45.46900311421663" lon="8.50855015433512"><ele>159.0</ele><time>2026-04-11T16:53:38.999Z</time></trkpt><trkpt lat="45.46901414377289" lon="8.508720348202948"><ele>158.75</ele><time>2026-04-11T16:53:39.999Z</time></trkpt><trkpt lat="45.46902809155631" lon="8.50889062902219"><ele>158.5</ele><time>2026-04-11T16:53:40.999Z</time></trkpt><trkpt lat="45.469041810141185" lon="8.50905937273858"><ele>158.25</ele><time>2026-04-11T16:53:41.999Z</time></trkpt><trkpt lat="45.46905399562553" lon="8.50922805975031"><ele>158.0</ele><time>2026-04-11T16:53:42.999Z</time></trkpt><trkpt lat="45.46906409820811" lon="8.509392517447976"><ele>158.0</ele><time>2026-04-11T16:53:43.999Z</time></trkpt><trkpt lat="45.46907655796023" lon="8.509548935904604"><ele>158.0</ele><time>2026-04-11T16:53:44.999Z</time></trkpt><trkpt lat="45.46909062803749" lon="8.509702636098021"><ele>158.0</ele><time>2026-04-11T16:53:45.999Z</time></trkpt><trkpt lat="45.46910164293996" lon="8.509859123351577"><ele>158.0</ele><time>2026-04-11T16:53:46.999Z</time></trkpt><trkpt lat="45.46911052486187" lon="8.510020189298316"><ele>158.0</ele><time>2026-04-11T16:53:47.999Z</time></trkpt><trkpt lat="45.4691205719255" lon="8.510183160255902"><ele>158.0</ele><time>2026-04-11T16:53:48.999Z</time></trkpt><trkpt lat="45.46912989169112" lon="8.51034684782481"><ele>158.0</ele><time>2026-04-11T16:53:49.999Z</time></trkpt><trkpt lat="45.46913941082211" lon="8.51050897253127"><ele>158.0</ele><time>2026-04-11T16:53:50.999Z</time></trkpt><trkpt lat="45.469149114760604" lon="8.510674035428973"><ele>158.0</ele><time>2026-04-11T16:53:51.999Z</time></trkpt><trkpt lat="45.46916074248164" lon="8.5108330563638"><ele>158.0</ele><time>2026-04-11T16:53:52.999Z</time></trkpt><trkpt lat="45.469173925553676" lon="8.510993796258374"><ele>158.0</ele><time>2026-04-11T16:53:53.999Z</time></trkpt><trkpt lat="45.46918779586543" lon="8.511154276971533"><ele>158.0</ele><time>2026-04-11T16:53:54.999Z</time></trkpt><trkpt lat="45.46920131488004" lon="8.511313935368612"><ele>158.0</ele><time>2026-04-11T16:53:55.999Z</time></trkpt><trkpt lat="45.469216205291374" lon="8.511474133002809"><ele>158.0</ele><time>2026-04-11T16:53:56.999Z</time></trkpt><trkpt lat="45.46922790176131" lon="8.51163895836822"><ele>158.0</ele><time>2026-04-11T16:53:57.999Z</time></trkpt><trkpt lat="45.46923969222562" lon="8.511805469790106"><ele>158.0</ele><time>2026-04-11T16:53:58.999Z</time></trkpt><trkpt lat="45.46925099795054" lon="8.511972865469664"><ele>158.0</ele><time>2026-04-11T16:53:59.999Z</time></trkpt><trkpt lat="45.46926368844302" lon="8.512139219254479"><ele>158.25</ele><time>2026-04-11T16:54:00.999Z</time></trkpt><trkpt lat="45.46927734030722" lon="8.512306937038478"><ele>158.5</ele><time>2026-04-11T16:54:01.999Z</time></trkpt><trkpt lat="45.469291810173246" lon="8.512474295338224"><ele>158.75</ele><time>2026-04-11T16:54:02.999Z</time></trkpt><trkpt lat="45.46930624574954" lon="8.512641355781602"><ele>159.0</ele><time>2026-04-11T16:54:03.999Z</time></trkpt><trkpt lat="45.46932008257015" lon="8.512806962393753"><ele>159.25</ele><time>2026-04-11T16:54:04.999Z</time></trkpt><trkpt lat="45.4693300863932" lon="8.512972862101885"><ele>159.5</ele><time>2026-04-11T16:54:05.999Z</time></trkpt><trkpt lat="45.46934131809213" lon="8.513136912728163"><ele>159.75</ele><time>2026-04-11T16:54:06.999Z</time></trkpt><trkpt lat="45.469351907993286" lon="8.513298971036827"><ele>160.0</ele><time>2026-04-11T16:54:07.999Z</time></trkpt><trkpt lat="45.469357383572294" lon="8.513461322158047"><ele>160.0</ele><time>2026-04-11T16:54:08.999Z</time></trkpt><trkpt lat="45.46936009246423" lon="8.513624161868378"><ele>160.0</ele><time>2026-04-11T16:54:09.999Z</time></trkpt><trkpt lat="45.46937066921029" lon="8.513789162182745"><ele>160.0</ele><time>2026-04-11T16:54:10.999Z</time></trkpt><trkpt lat="45.46938922622623" lon="8.513950345451793"><ele>160.0</ele><time>2026-04-11T16:54:11.999Z</time></trkpt><trkpt lat="45.469407579350474" lon="8.514113816148503"><ele>160.0</ele><time>2026-04-11T16:54:12.999Z</time></trkpt><trkpt lat="45.46942276337905" lon="8.514279084802126"><ele>160.0</ele><time>2026-04-11T16:54:13.999Z</time></trkpt><trkpt lat="45.46943741636853" lon="8.514445118202037"><ele>160.0</ele><time>2026-04-11T16:54:14.999Z</time></trkpt><trkpt lat="45.469449759505856" lon="8.514611308444367"><ele>160.0</ele><time>2026-04-11T16:54:15.999Z</time></trkpt><trkpt lat="45.469461089465106" lon="8.514777769639144"><ele>159.75</ele><time>2026-04-11T16:54:16.999Z</time></trkpt><trkpt lat="45.46947331342387" lon="8.514944011678395"><ele>159.5</ele><time>2026-04-11T16:54:17.999Z</time></trkpt><trkpt lat="45.469486677561704" lon="8.51510981252135"><ele>159.25</ele><time>2026-04-11T16:54:18.999Z</time></trkpt><trkpt lat="45.46950062246835" lon="8.515275143487852"><ele>159.0</ele><time>2026-04-11T16:54:19.999Z</time></trkpt><trkpt lat="45.46951304042438" lon="8.515441684839415"><ele>158.5</ele><time>2026-04-11T16:54:20.999Z</time></trkpt><trkpt lat="45.46952563970386" lon="8.515610811054634"><ele>158.0</ele><time>2026-04-11T16:54:22Z</time></trkpt><trkpt lat="45.46954134805119" lon="8.515779126928669"><ele>157.5</ele><time>2026-04-11T16:54:23Z</time></trkpt><trkpt lat="45.46955245745316" lon="8.515949697120341"><ele>157.0</ele><time>2026-04-11T16:54:24Z</time></trkpt><trkpt lat="45.46956207933849" lon="8.516122364577088"><ele>157.25</ele><time>2026-04-11T16:54:25Z</time></trkpt><trkpt lat="45.469573815088346" lon="8.516295167325422"><ele>157.5</ele><time>2026-04-11T16:54:26Z</time></trkpt><trkpt lat="45.469586137612296" lon="8.516467213804091"><ele>157.75</ele><time>2026-04-11T16:54:27Z</time></trkpt><trkpt lat="45.46960161796871" lon="8.516640842211492"><ele>158.0</ele><time>2026-04-11T16:54:28Z</time></trkpt><trkpt lat="45.46961393331443" lon="8.516817014733142"><ele>158.0</ele><time>2026-04-11T16:54:29Z</time></trkpt><trkpt lat="45.4696247771863" lon="8.516992664924363"><ele>158.0</ele><time>2026-04-11T16:54:30Z</time></trkpt><trkpt lat="45.46963696747044" lon="8.517168503615402"><ele>158.0</ele><time>2026-04-11T16:54:31Z</time></trkpt><trkpt lat="45.46964925432475" lon="8.51733950950762"><ele>158.0</ele><time>2026-04-11T16:54:32Z</time></trkpt><trkpt lat="45.46966133424859" lon="8.51750853067879"><ele>158.0</ele><time>2026-04-11T16:54:33Z</time></trkpt><trkpt lat="45.46967423852677" lon="8.517673677205064"><ele>158.0</ele><time>2026-04-11T16:54:34Z</time></trkpt><trkpt lat="45.469690337911004" lon="8.517838832359782"><ele>158.0</ele><time>2026-04-11T16:54:35Z</time></trkpt><trkpt lat="45.46969955769023" lon="8.518005264850727"><ele>158.0</ele><time>2026-04-11T16:54:36Z</time></trkpt><trkpt lat="45.469709675222326" lon="8.518170657093911"><ele>157.75</ele><time>2026-04-11T16:54:37Z</time></trkpt><trkpt lat="45.46972193649456" lon="8.518329703013547"><ele>157.5</ele><time>2026-04-11T16:54:38Z</time></trkpt><trkpt lat="45.469735313034896" lon="8.51848967589741"><ele>157.25</ele><time>2026-04-11T16:54:39Z</time></trkpt><trkpt lat="45.46974879180038" lon="8.518650274977889"><ele>157.0</ele><time>2026-04-11T16:54:40Z</time></trkpt><trkpt lat="45.46975927191479" lon="8.518810611343708"><ele>156.79999999999998</ele><time>2026-04-11T16:54:41Z</time></trkpt><trkpt lat="45.46976779153536" lon="8.518971360074161"><ele>156.6</ele><time>2026-04-11T16:54:42Z</time></trkpt><trkpt lat="45.46977320467198" lon="8.519132975499547"><ele>156.39999999999998</ele><time>2026-04-11T16:54:43Z</time></trkpt><trkpt lat="45.46977923796875" lon="8.519288778935904"><ele>156.2</ele><time>2026-04-11T16:54:44Z</time></trkpt><trkpt lat="45.46978842951481" lon="8.519445077301734"><ele>156.0</ele><time>2026-04-11T16:54:45Z</time></trkpt><trkpt lat="45.46979985057162" lon="8.519601298350713"><ele>156.5</ele><time>2026-04-11T16:54:46Z</time></trkpt><trkpt lat="45.46980881343644" lon="8.519758604735992"><ele>157.0</ele><time>2026-04-11T16:54:47Z</time></trkpt><trkpt lat="45.46981873667335" lon="8.51992139910896"><ele>157.5</ele><time>2026-04-11T16:54:48Z</time></trkpt><trkpt lat="45.46982636486069" lon="8.520083285647903"><ele>158.0</ele><time>2026-04-11T16:54:49Z</time></trkpt><trkpt lat="45.469836725223374" lon="8.520244295711029"><ele>159.0</ele><time>2026-04-11T16:54:50Z</time></trkpt><trkpt lat="45.46985254686399" lon="8.52040815621736"><ele>160.0</ele><time>2026-04-11T16:54:51Z</time></trkpt><trkpt lat="45.46987551947717" lon="8.520575683387849"><ele>161.0</ele><time>2026-04-11T16:54:52Z</time></trkpt><trkpt lat="45.469893153766165" lon="8.52074127506065"><ele>162.0</ele><time>2026-04-11T16:54:53Z</time></trkpt><trkpt lat="45.469910099746" lon="8.520907751449288"><ele>162.0</ele><time>2026-04-11T16:54:54Z</time></trkpt><trkpt lat="45.46992595941256" lon="8.521073072928347"><ele>162.0</ele><time>2026-04-11T16:54:55Z</time></trkpt><trkpt lat="45.46993798472875" lon="8.521242500780714"><ele>162.0</ele><time>2026-04-11T16:54:56Z</time></trkpt><trkpt lat="45.469949694383075" lon="8.521411835661148"><ele>162.0</ele><time>2026-04-11T16:54:57Z</time></trkpt><trkpt lat="45.469958877064045" lon="8.521579608236834"><ele>162.25</ele><time>2026-04-11T16:54:58Z</time></trkpt><trkpt lat="45.46997150074092" lon="8.521746276632037"><ele>162.5</ele><time>2026-04-11T16:54:59Z</time></trkpt><trkpt lat="45.469984809855745" lon="8.521909108537368"><ele>162.75</ele><time>2026-04-11T16:55:00Z</time></trkpt><trkpt lat="45.46999989471163" lon="8.522074765572285"><ele>163.0</ele><time>2026-04-11T16:55:01Z</time></trkpt><trkpt lat="45.47001314445271" lon="8.522235893603856"><ele>162.60000000000002</ele><time>2026-04-11T16:55:02Z</time></trkpt><trkpt lat="45.47002579939433" lon="8.522394904448305"><ele>162.20000000000002</ele><time>2026-04-11T16:55:03Z</time></trkpt><trkpt lat="45.47003862957184" lon="8.522555588556054"><ele>161.8</ele><time>2026-04-11T16:55:04Z</time></trkpt><trkpt lat="45.47005150737943" lon="8.522713542275648"><ele>161.4</ele><time>2026-04-11T16:55:05Z</time></trkpt><trkpt lat="45.47006342115301" lon="8.522865613170751"><ele>161.0</ele><time>2026-04-11T16:55:06Z</time></trkpt><trkpt lat="45.4700743385166" lon="8.523013532155677"><ele>160.8</ele><time>2026-04-11T16:55:07Z</time></trkpt><trkpt lat="45.470084025076446" lon="8.523163656980413"><ele>160.60000000000002</ele><time>2026-04-11T16:55:08Z</time></trkpt><trkpt lat="45.47009571996592" lon="8.523312455542248"><ele>160.4</ele><time>2026-04-11T16:55:09Z</time></trkpt><trkpt lat="45.47010609460421" lon="8.52345926252626"><ele>160.2</ele><time>2026-04-11T16:55:10Z</time></trkpt><trkpt lat="45.470105193778714" lon="8.523597412908185"><ele>160.0</ele><time>2026-04-11T16:55:11Z</time></trkpt><trkpt lat="45.4700929724819" lon="8.523739594222706"><ele>160.0</ele><time>2026-04-11T16:55:12Z</time></trkpt><trkpt lat="45.470086028716565" lon="8.523874557595576"><ele>160.0</ele><time>2026-04-11T16:55:13Z</time></trkpt><trkpt lat="45.470090991658495" lon="8.524003911681723"><ele>160.0</ele><time>2026-04-11T16:55:14Z</time></trkpt><trkpt lat="45.47011760677245" lon="8.524133128821845"><ele>160.0</ele><time>2026-04-11T16:55:15Z</time></trkpt><trkpt lat="45.47014174686549" lon="8.524266088948494"><ele>160.0</ele><time>2026-04-11T16:55:16Z</time></trkpt><trkpt lat="45.47016488857811" lon="8.524411659142523"><ele>160.0</ele><time>2026-04-11T16:55:17Z</time></trkpt><trkpt lat="45.4701831729132" lon="8.524561633725845"><ele>160.0</ele><time>2026-04-11T16:55:18Z</time></trkpt><trkpt lat="45.47019688109448" lon="8.524707720827042"><ele>160.0</ele><time>2026-04-11T16:55:19Z</time></trkpt><trkpt lat="45.470206870793575" lon="8.524857488463745"><ele>160.0</ele><time>2026-04-11T16:55:20Z</time></trkpt><trkpt lat="45.470215824422475" lon="8.525004177939572"><ele>160.0</ele><time>2026-04-11T16:55:21Z</time></trkpt><trkpt lat="45.47022526391133" lon="8.525151034702942"><ele>159.8</ele><time>2026-04-11T16:55:22Z</time></trkpt><trkpt lat="45.47023474231887" lon="8.525294985915458"><ele>159.6</ele><time>2026-04-11T16:55:23Z</time></trkpt><trkpt lat="45.47024280909326" lon="8.525436898392638"><ele>159.4</ele><time>2026-04-11T16:55:24Z</time></trkpt><trkpt lat="45.47025290229321" lon="8.525579043947332"><ele>159.2</ele><time>2026-04-11T16:55:25Z</time></trkpt><trkpt lat="45.470260673794236" lon="8.525723373549466"><ele>159.0</ele><time>2026-04-11T16:55:25.999Z</time></trkpt><trkpt lat="45.47026846949777" lon="8.52586826810136"><ele>158.6</ele><time>2026-04-11T16:55:26.999Z</time></trkpt><trkpt lat="45.47027654401877" lon="8.526015769472723"><ele>158.2</ele><time>2026-04-11T16:55:27.999Z</time></trkpt><trkpt lat="45.470284882796406" lon="8.526166907809882"><ele>157.79999999999998</ele><time>2026-04-11T16:55:28.999Z</time></trkpt><trkpt lat="45.47029655769801" lon="8.52631739194435"><ele>157.4</ele><time>2026-04-11T16:55:29.999Z</time></trkpt><trkpt lat="45.470309305231524" lon="8.52646630220922"><ele>157.0</ele><time>2026-04-11T16:55:30.999Z</time></trkpt><trkpt lat="45.47032341082577" lon="8.526613753309842"><ele>157.0</ele><time>2026-04-11T16:55:31.999Z</time></trkpt><trkpt lat="45.47033888051683" lon="8.526759765547293"><ele>157.0</ele><time>2026-04-11T16:55:32.999Z</time></trkpt><trkpt lat="45.47035269709723" lon="8.526904920037154"><ele>157.0</ele><time>2026-04-11T16:55:33.999Z</time></trkpt><trkpt lat="45.47036413230382" lon="8.527042650350943"><ele>157.0</ele><time>2026-04-11T16:55:34.999Z</time></trkpt><trkpt lat="45.4703636344986" lon="8.527166061002438"><ele>157.0</ele><time>2026-04-11T16:55:35.999Z</time></trkpt><trkpt lat="45.470345162320456" lon="8.527268521880494"><ele>157.16666666666669</ele><time>2026-04-11T16:55:36.999Z</time></trkpt><trkpt lat="45.47030814164999" lon="8.527357476700542"><ele>157.33333333333334</ele><time>2026-04-11T16:55:37.999Z</time></trkpt><trkpt lat="45.47025626106477" lon="8.527435369481436"><ele>157.5</ele><time>2026-04-11T16:55:38.999Z</time></trkpt><trkpt lat="45.47021215021727" lon="8.527527479624005"><ele>157.66666666666666</ele><time>2026-04-11T16:55:39.999Z</time></trkpt><trkpt lat="45.470183565008035" lon="8.527641685030257"><ele>157.83333333333331</ele><time>2026-04-11T16:55:40.999Z</time></trkpt><trkpt lat="45.470172672833975" lon="8.527765938357481"><ele>158.0</ele><time>2026-04-11T16:55:41.999Z</time></trkpt><trkpt lat="45.47017087965316" lon="8.527886996962227"><ele>157.8</ele><time>2026-04-11T16:55:42.999Z</time></trkpt><trkpt lat="45.4701763200431" lon="8.528019471398979"><ele>157.60000000000002</ele><time>2026-04-11T16:55:43.999Z</time></trkpt><trkpt lat="45.47018722904517" lon="8.528156336090342"><ele>157.39999999999998</ele><time>2026-04-11T16:55:44.999Z</time></trkpt><trkpt lat="45.470198743405156" lon="8.528296321996995"><ele>157.2</ele><time>2026-04-11T16:55:45.999Z</time></trkpt><trkpt lat="45.47021191942377" lon="8.528437383841212"><ele>157.0</ele><time>2026-04-11T16:55:46.999Z</time></trkpt><trkpt lat="45.470223791684596" lon="8.528577895128075"><ele>157.0</ele><time>2026-04-11T16:55:47.999Z</time></trkpt><trkpt lat="45.47023495546306" lon="8.528714206442865"><ele>157.0</ele><time>2026-04-11T16:55:48.999Z</time></trkpt><trkpt lat="45.47024605275744" lon="8.528848495488981"><ele>157.0</ele><time>2026-04-11T16:55:49.999Z</time></trkpt><trkpt lat="45.470255044747034" lon="8.528973169093103"><ele>157.0</ele><time>2026-04-11T16:55:50.999Z</time></trkpt><trkpt lat="45.47026245567014" lon="8.52908750020236"><ele>157.0</ele><time>2026-04-11T16:55:51.999Z</time></trkpt><trkpt lat="45.47026969635233" lon="8.529179881015223"><ele>157.0</ele><time>2026-04-11T16:55:52.999Z</time></trkpt><trkpt lat="45.470283205310714" lon="8.529320933661122"><ele>157.16666666666669</ele><time>2026-04-11T16:55:54.999Z</time></trkpt><trkpt lat="45.47031980973977" lon="8.529418413881523"><ele>157.33333333333334</ele><time>2026-04-11T16:55:56.999Z</time></trkpt><trkpt lat="45.47036219917661" lon="8.529517225190396"><ele>157.5</ele><time>2026-04-11T16:55:59.999Z</time></trkpt><trkpt lat="45.47042666514226" lon="8.529591337131045"><ele>157.66666666666666</ele><time>2026-04-11T16:56:50Z</time></trkpt><trkpt lat="45.47046303156945" lon="8.529727609727246"><ele>157.83333333333331</ele><time>2026-04-11T16:56:52Z</time></trkpt><trkpt lat="45.47049993962421" lon="8.52980822193431"><ele>158.0</ele><time>2026-04-11T16:56:53Z</time></trkpt><trkpt lat="45.47053773088126" lon="8.529897234682398"><ele>158.0</ele><time>2026-04-11T16:56:54Z</time></trkpt><trkpt lat="45.470571502951536" lon="8.53000236295982"><ele>158.0</ele><time>2026-04-11T16:56:55Z</time></trkpt><trkpt lat="45.47059104891552" lon="8.530116687089997"><ele>158.0</ele><time>2026-04-11T16:56:56Z</time></trkpt><trkpt lat="45.4706016185266" lon="8.530245473275675"><ele>158.0</ele><time>2026-04-11T16:56:57Z</time></trkpt><trkpt lat="45.470611578918906" lon="8.53038719979074"><ele>158.0</ele><time>2026-04-11T16:56:58Z</time></trkpt><trkpt lat="45.47062016054441" lon="8.530532495435926"><ele>158.0</ele><time>2026-04-11T16:56:59Z</time></trkpt><trkpt lat="45.47062978041439" lon="8.530684465589164"><ele>158.0</ele><time>2026-04-11T16:57:00Z</time></trkpt><trkpt lat="45.47064175580509" lon="8.530839277885779"><ele>158.0</ele><time>2026-04-11T16:57:01Z</time></trkpt><trkpt lat="45.470653990063695" lon="8.530997436702215"><ele>158.0</ele><time>2026-04-11T16:57:02Z</time></trkpt><trkpt lat="45.47066645579424" lon="8.531158587883594"><ele>158.0</ele><time>2026-04-11T16:57:03Z</time></trkpt><trkpt lat="45.47067771480634" lon="8.531321204941845"><ele>158.0</ele><time>2026-04-11T16:57:04Z</time></trkpt><trkpt lat="45.47068883873475" lon="8.531483858626176"><ele>158.0</ele><time>2026-04-11T16:57:05Z</time></trkpt><trkpt lat="45.47070014271078" lon="8.531649144980303"><ele>158.0</ele><time>2026-04-11T16:57:06Z</time></trkpt><trkpt lat="45.47071145694706" lon="8.531814581345303"><ele>158.0</ele><time>2026-04-11T16:57:07Z</time></trkpt><trkpt lat="45.47072300476586" lon="8.531983433143896"><ele>158.0</ele><time>2026-04-11T16:57:08Z</time></trkpt><trkpt lat="45.47073456347676" lon="8.532152444201303"><ele>158.0</ele><time>2026-04-11T16:57:09Z</time></trkpt><trkpt lat="45.47074614195904" lon="8.532321744386797"><ele>158.0</ele><time>2026-04-11T16:57:10Z</time></trkpt><trkpt lat="45.47075860741624" lon="8.53249587772022"><ele>158.0</ele><time>2026-04-11T16:57:11Z</time></trkpt><trkpt lat="45.47077187174562" lon="8.532665649385045"><ele>158.0</ele><time>2026-04-11T16:57:12Z</time></trkpt><trkpt lat="45.47078513605345" lon="8.532835420787904"><ele>158.0</ele><time>2026-04-11T16:57:13Z</time></trkpt><trkpt lat="45.47079837302554" lon="8.533004842285399"><ele>158.0</ele><time>2026-04-11T16:57:14Z</time></trkpt><trkpt lat="45.4708114091366" lon="8.533171692937348"><ele>158.0</ele><time>2026-04-11T16:57:15Z</time></trkpt><trkpt lat="45.47082436327836" lon="8.533340273442034"><ele>158.0</ele><time>2026-04-11T16:57:16Z</time></trkpt><trkpt lat="45.47083631100305" lon="8.533506396899853"><ele>158.0</ele><time>2026-04-11T16:57:17Z</time></trkpt><trkpt lat="45.470860156130385" lon="8.533669112880874"><ele>158.0</ele><time>2026-04-11T16:57:18Z</time></trkpt><trkpt lat="45.47086986255996" lon="8.53383130745537"><ele>158.0</ele><time>2026-04-11T16:57:19Z</time></trkpt><trkpt lat="45.47088440413821" lon="8.533994119959827"><ele>158.25</ele><time>2026-04-11T16:57:20Z</time></trkpt><trkpt lat="45.470897714079626" lon="8.534152951103383"><ele>158.5</ele><time>2026-04-11T16:57:21Z</time></trkpt><trkpt lat="45.47090933129394" lon="8.53431587500311"><ele>158.75</ele><time>2026-04-11T16:57:22Z</time></trkpt><trkpt lat="45.470919680537406" lon="8.534478839285676"><ele>159.0</ele><time>2026-04-11T16:57:23Z</time></trkpt><trkpt lat="45.470931681810136" lon="8.534642934383255"><ele>159.0</ele><time>2026-04-11T16:57:24Z</time></trkpt><trkpt lat="45.47094385197423" lon="8.53480612367476"><ele>159.0</ele><time>2026-04-11T16:57:25Z</time></trkpt><trkpt lat="45.47095665809215" lon="8.534972254748235"><ele>159.0</ele><time>2026-04-11T16:57:26Z</time></trkpt><trkpt lat="45.47096860095806" lon="8.535137576702025"><ele>159.0</ele><time>2026-04-11T16:57:27Z</time></trkpt><trkpt lat="45.47098044939406" lon="8.535303514643394"><ele>158.75</ele><time>2026-04-11T16:57:28Z</time></trkpt><trkpt lat="45.47097795534808" lon="8.53547153980506"><ele>158.5</ele><time>2026-04-11T16:57:29Z</time></trkpt><trkpt lat="45.470990168650616" lon="8.535639019262831"><ele>158.25</ele><time>2026-04-11T16:57:30Z</time></trkpt><trkpt lat="45.47101707053882" lon="8.53580478945022"><ele>158.0</ele><time>2026-04-11T16:57:30.999Z</time></trkpt><trkpt lat="45.471029104200454" lon="8.535971240938434"><ele>158.0</ele><time>2026-04-11T16:57:31.999Z</time></trkpt><trkpt lat="45.471042593300844" lon="8.536137106593474"><ele>158.0</ele><time>2026-04-11T16:57:32.999Z</time></trkpt><trkpt lat="45.47105591968122" lon="8.536303353557349"><ele>158.0</ele><time>2026-04-11T16:57:33.999Z</time></trkpt><trkpt lat="45.471051618212066" lon="8.536474490902462"><ele>158.0</ele><time>2026-04-11T16:57:34.999Z</time></trkpt><trkpt lat="45.47106361795308" lon="8.536642853221787"><ele>158.0</ele><time>2026-04-11T16:57:35.999Z</time></trkpt><trkpt lat="45.471091886272305" lon="8.5368120631162"><ele>158.0</ele><time>2026-04-11T16:57:36.999Z</time></trkpt><trkpt lat="45.47110129577371" lon="8.536982538491621"><ele>158.0</ele><time>2026-04-11T16:57:37.999Z</time></trkpt><trkpt lat="45.47111376142562" lon="8.537154780625658"><ele>158.0</ele><time>2026-04-11T16:57:38.999Z</time></trkpt><trkpt lat="45.47112680733384" lon="8.53732654631535"><ele>158.0</ele><time>2026-04-11T16:57:39.999Z</time></trkpt><trkpt lat="45.47113924150234" lon="8.537499108683374"><ele>158.0</ele><time>2026-04-11T16:57:40.999Z</time></trkpt><trkpt lat="45.47115260063763" lon="8.537670043012696"><ele>158.0</ele><time>2026-04-11T16:57:41.999Z</time></trkpt><trkpt lat="45.47114914266633" lon="8.537842807409824"><ele>158.0</ele><time>2026-04-11T16:57:42.999Z</time></trkpt><trkpt lat="45.47116143739613" lon="8.53801530859309"><ele>157.75</ele><time>2026-04-11T16:57:43.999Z</time></trkpt><trkpt lat="45.47117369076733" lon="8.53818722947442"><ele>157.5</ele><time>2026-04-11T16:57:44.999Z</time></trkpt><trkpt lat="45.47120028247568" lon="8.5383538758129"><ele>157.25</ele><time>2026-04-11T16:57:45.999Z</time></trkpt><trkpt lat="45.47121414091157" lon="8.538519931702082"><ele>157.0</ele><time>2026-04-11T16:57:46.999Z</time></trkpt><trkpt lat="45.4712261152828" lon="8.53869069952132"><ele>157.25</ele><time>2026-04-11T16:57:47.999Z</time></trkpt><trkpt lat="45.471238203911234" lon="8.538854336597694"><ele>157.5</ele><time>2026-04-11T16:57:48.999Z</time></trkpt><trkpt lat="45.47124915412872" lon="8.539019780034812"><ele>157.75</ele><time>2026-04-11T16:57:49.999Z</time></trkpt><trkpt lat="45.4712635915347" lon="8.539184224445046"><ele>158.0</ele><time>2026-04-11T16:57:50.999Z</time></trkpt><trkpt lat="45.47126117064724" lon="8.539348663185702"><ele>158.25</ele><time>2026-04-11T16:57:51.999Z</time></trkpt><trkpt lat="45.47128995596346" lon="8.539509426457865"><ele>158.5</ele><time>2026-04-11T16:57:52.999Z</time></trkpt><trkpt lat="45.47130106641011" lon="8.539670994924936"><ele>158.75</ele><time>2026-04-11T16:57:53.999Z</time></trkpt><trkpt lat="45.47131364070173" lon="8.5398324530791"><ele>159.0</ele><time>2026-04-11T16:57:54.999Z</time></trkpt><trkpt lat="45.47132445845743" lon="8.539995494034095"><ele>159.0</ele><time>2026-04-11T16:57:55.999Z</time></trkpt><trkpt lat="45.47133692490285" lon="8.54015569967767"><ele>159.0</ele><time>2026-04-11T16:57:56.999Z</time></trkpt><trkpt lat="45.47134866747433" lon="8.540319786943886"><ele>159.0</ele><time>2026-04-11T16:57:57.999Z</time></trkpt><trkpt lat="45.47135911262027" lon="8.54048380486025"><ele>159.0</ele><time>2026-04-11T16:57:58.999Z</time></trkpt><trkpt lat="45.47137039211262" lon="8.540649350107575"><ele>159.25</ele><time>2026-04-11T16:57:59.999Z</time></trkpt><trkpt lat="45.47138001854743" lon="8.540815282581411"><ele>159.5</ele><time>2026-04-11T16:58:00.999Z</time></trkpt><trkpt lat="45.471392673435346" lon="8.540980165217672"><ele>159.75</ele><time>2026-04-11T16:58:01.999Z</time></trkpt><trkpt lat="45.471404747325224" lon="8.541148118782397"><ele>160.0</ele><time>2026-04-11T16:58:02.999Z</time></trkpt><trkpt lat="45.47141779062636" lon="8.541314349888646"><ele>160.0</ele><time>2026-04-11T16:58:03.999Z</time></trkpt><trkpt lat="45.47142779830094" lon="8.54148117999831"><ele>160.0</ele><time>2026-04-11T16:58:04.999Z</time></trkpt><trkpt lat="45.47144503036949" lon="8.541645575883962"><ele>160.0</ele><time>2026-04-11T16:58:05.999Z</time></trkpt><trkpt lat="45.47145654379191" lon="8.541812331558601"><ele>160.0</ele><time>2026-04-11T16:58:06.999Z</time></trkpt><trkpt lat="45.47146873361253" lon="8.541979504180615"><ele>159.75</ele><time>2026-04-11T16:58:07.999Z</time></trkpt><trkpt lat="45.471479188842565" lon="8.542145052664898"><ele>159.5</ele><time>2026-04-11T16:58:08.999Z</time></trkpt><trkpt lat="45.47148876788657" lon="8.5423144750521"><ele>159.25</ele><time>2026-04-11T16:58:09.999Z</time></trkpt><trkpt lat="45.47150159287144" lon="8.542484706566999"><ele>159.0</ele><time>2026-04-11T16:58:10.999Z</time></trkpt><trkpt lat="45.47151326252067" lon="8.542654552396762"><ele>159.0</ele><time>2026-04-11T16:58:11.999Z</time></trkpt><trkpt lat="45.47152725547417" lon="8.542822756815212"><ele>159.0</ele><time>2026-04-11T16:58:12.999Z</time></trkpt><trkpt lat="45.47154087541656" lon="8.542989115772414"><ele>159.0</ele><time>2026-04-11T16:58:13.999Z</time></trkpt><trkpt lat="45.47153634793816" lon="8.543157592016298"><ele>159.0</ele><time>2026-04-11T16:58:14.999Z</time></trkpt><trkpt lat="45.47156438648587" lon="8.543321125782054"><ele>158.5</ele><time>2026-04-11T16:58:15.999Z</time></trkpt><trkpt lat="45.47157319258165" lon="8.543488154849108"><ele>158.0</ele><time>2026-04-11T16:58:16.999Z</time></trkpt><trkpt lat="45.47158615956716" lon="8.54365108792435"><ele>157.5</ele><time>2026-04-11T16:58:17.999Z</time></trkpt><trkpt lat="45.471598930492895" lon="8.5438148264199"><ele>157.0</ele><time>2026-04-11T16:58:18.999Z</time></trkpt><trkpt lat="45.47161332716393" lon="8.543977367911365"><ele>156.75</ele><time>2026-04-11T16:58:19.999Z</time></trkpt><trkpt lat="45.47162604397209" lon="8.544143095302603"><ele>156.5</ele><time>2026-04-11T16:58:20.999Z</time></trkpt><trkpt lat="45.47163802012809" lon="8.544306431737256"><ele>156.25</ele><time>2026-04-11T16:58:21.999Z</time></trkpt><trkpt lat="45.471650326025454" lon="8.544465723408416"><ele>156.0</ele><time>2026-04-11T16:58:22.999Z</time></trkpt><trkpt lat="45.471658284456204" lon="8.544626830657997"><ele>156.0</ele><time>2026-04-11T16:58:23.999Z</time></trkpt><trkpt lat="45.47166982812041" lon="8.54478700748883"><ele>156.0</ele><time>2026-04-11T16:58:24.999Z</time></trkpt><trkpt lat="45.47167979504092" lon="8.544946163319906"><ele>156.0</ele><time>2026-04-11T16:58:25.999Z</time></trkpt><trkpt lat="45.47169084025241" lon="8.5451034611007"><ele>156.0</ele><time>2026-04-11T16:58:26.999Z</time></trkpt><trkpt lat="45.471702164719055" lon="8.545263274992383"><ele>156.0</ele><time>2026-04-11T16:58:27.999Z</time></trkpt><trkpt lat="45.47171295090422" lon="8.545421342187895"><ele>156.25</ele><time>2026-04-11T16:58:28.999Z</time></trkpt><trkpt lat="45.471725259102726" lon="8.545583077706878"><ele>156.5</ele><time>2026-04-11T16:58:29.999Z</time></trkpt><trkpt lat="45.4717383703994" lon="8.54574694279445"><ele>156.75</ele><time>2026-04-11T16:58:30.999Z</time></trkpt><trkpt lat="45.47175202241946" lon="8.545908530335051"><ele>157.0</ele><time>2026-04-11T16:58:31.999Z</time></trkpt><trkpt lat="45.47176569776921" lon="8.546072317129873"><ele>157.25</ele><time>2026-04-11T16:58:32.999Z</time></trkpt><trkpt lat="45.47177913552801" lon="8.546235835507748"><ele>157.5</ele><time>2026-04-11T16:58:34Z</time></trkpt><trkpt lat="45.471793455767504" lon="8.546403916268469"><ele>157.75</ele><time>2026-04-11T16:58:35Z</time></trkpt><trkpt lat="45.47180674321962" lon="8.546573589336765"><ele>158.0</ele><time>2026-04-11T16:58:36Z</time></trkpt><trkpt lat="45.47181897018107" lon="8.54674236600506"><ele>158.0</ele><time>2026-04-11T16:58:37Z</time></trkpt><trkpt lat="45.47181415489222" lon="8.546909407819744"><ele>158.0</ele><time>2026-04-11T16:58:38Z</time></trkpt><trkpt lat="45.471815085722355" lon="8.54708007089092"><ele>158.0</ele><time>2026-04-11T16:58:39Z</time></trkpt><trkpt lat="45.471840446302096" lon="8.54724934409219"><ele>158.0</ele><time>2026-04-11T16:58:40Z</time></trkpt><trkpt lat="45.47183836349868" lon="8.547421181591643"><ele>158.25</ele><time>2026-04-11T16:58:41Z</time></trkpt><trkpt lat="45.47185189810523" lon="8.547590928112895"><ele>158.5</ele><time>2026-04-11T16:58:42Z</time></trkpt><trkpt lat="45.47188122599759" lon="8.547757273786338"><ele>158.75</ele><time>2026-04-11T16:58:43Z</time></trkpt><trkpt lat="45.47189576935122" lon="8.54792592806432"><ele>159.0</ele><time>2026-04-11T16:58:44Z</time></trkpt><trkpt lat="45.471912948942034" lon="8.548093938077992"><ele>159.0</ele><time>2026-04-11T16:58:45Z</time></trkpt><trkpt lat="45.47191088479394" lon="8.548262135470532"><ele>159.0</ele><time>2026-04-11T16:58:46Z</time></trkpt><trkpt lat="45.47191514392488" lon="8.548430285073609"><ele>159.0</ele><time>2026-04-11T16:58:47Z</time></trkpt><trkpt lat="45.471925099113115" lon="8.54859878097418"><ele>159.0</ele><time>2026-04-11T16:58:48Z</time></trkpt><trkpt lat="45.47195239983314" lon="8.548768071486709"><ele>158.75</ele><time>2026-04-11T16:58:49Z</time></trkpt><trkpt lat="45.4719658852542" lon="8.548937571373957"><ele>158.5</ele><time>2026-04-11T16:58:50Z</time></trkpt><trkpt lat="45.47198662481287" lon="8.549105352592074"><ele>158.25</ele><time>2026-04-11T16:58:51Z</time></trkpt><trkpt lat="45.47198888005859" lon="8.549267675443216"><ele>158.0</ele><time>2026-04-11T16:58:52Z</time></trkpt><trkpt lat="45.47198324810678" lon="8.549430908073452"><ele>157.75</ele><time>2026-04-11T16:58:53Z</time></trkpt><trkpt lat="45.47200221012968" lon="8.549599110745788"><ele>157.5</ele><time>2026-04-11T16:58:54Z</time></trkpt><trkpt lat="45.47200143427473" lon="8.549764983391219"><ele>157.25</ele><time>2026-04-11T16:58:55Z</time></trkpt><trkpt lat="45.47201330588347" lon="8.549928380932963"><ele>157.0</ele><time>2026-04-11T16:58:56Z</time></trkpt><trkpt lat="45.4720266400836" lon="8.550091473880462"><ele>157.0</ele><time>2026-04-11T16:58:57Z</time></trkpt><trkpt lat="45.47205549941671" lon="8.550251744955204"><ele>157.0</ele><time>2026-04-11T16:58:58Z</time></trkpt><trkpt lat="45.47206083926134" lon="8.55041955524605"><ele>157.0</ele><time>2026-04-11T16:58:59Z</time></trkpt><trkpt lat="45.47208156633462" lon="8.550578364829285"><ele>157.0</ele><time>2026-04-11T16:59:00Z</time></trkpt><trkpt lat="45.472085198163136" lon="8.550744064807553"><ele>156.75</ele><time>2026-04-11T16:59:01Z</time></trkpt><trkpt lat="45.472092979056896" lon="8.550915757192998"><ele>156.5</ele><time>2026-04-11T16:59:02Z</time></trkpt><trkpt lat="45.47210256289133" lon="8.551085553888518"><ele>156.25</ele><time>2026-04-11T16:59:03Z</time></trkpt><trkpt lat="45.47212830620968" lon="8.551252146211954"><ele>156.0</ele><time>2026-04-11T16:59:04Z</time></trkpt><trkpt lat="45.47212867458243" lon="8.551421635728522"><ele>156.5</ele><time>2026-04-11T16:59:05Z</time></trkpt><trkpt lat="45.47215158380304" lon="8.55158869991242"><ele>157.0</ele><time>2026-04-11T16:59:06Z</time></trkpt><trkpt lat="45.47217823320269" lon="8.55175165705885"><ele>157.5</ele><time>2026-04-11T16:59:07Z</time></trkpt><trkpt lat="45.47217225845185" lon="8.551922311892987"><ele>158.0</ele><time>2026-04-11T16:59:08Z</time></trkpt><trkpt lat="45.47219606385412" lon="8.55208939897297"><ele>158.0</ele><time>2026-04-11T16:59:09Z</time></trkpt><trkpt lat="45.47220583514122" lon="8.552260218086726"><ele>158.0</ele><time>2026-04-11T16:59:10Z</time></trkpt><trkpt lat="45.472215631526794" lon="8.55243063683317"><ele>158.0</ele><time>2026-04-11T16:59:11Z</time></trkpt><trkpt lat="45.47222439141902" lon="8.552599759968768"><ele>158.0</ele><time>2026-04-11T16:59:12Z</time></trkpt><trkpt lat="45.47223480448259" lon="8.552765927905345"><ele>158.0</ele><time>2026-04-11T16:59:13Z</time></trkpt><trkpt lat="45.47224633128389" lon="8.552928989820387"><ele>158.0</ele><time>2026-04-11T16:59:14Z</time></trkpt><trkpt lat="45.47225697392575" lon="8.553090506398282"><ele>158.0</ele><time>2026-04-11T16:59:15Z</time></trkpt><trkpt lat="45.47227034685647" lon="8.553250139860282"><ele>158.0</ele><time>2026-04-11T16:59:16Z</time></trkpt><trkpt lat="45.47227727197021" lon="8.553411941715188"><ele>158.0</ele><time>2026-04-11T16:59:17Z</time></trkpt><trkpt lat="45.47229056372867" lon="8.553574662795679"><ele>158.0</ele><time>2026-04-11T16:59:18Z</time></trkpt><trkpt lat="45.472305880674426" lon="8.55373650487715"><ele>158.0</ele><time>2026-04-11T16:59:19Z</time></trkpt><trkpt lat="45.472301323287205" lon="8.553901921659788"><ele>158.0</ele><time>2026-04-11T16:59:20Z</time></trkpt><trkpt lat="45.47231225561989" lon="8.554064635452347"><ele>158.0</ele><time>2026-04-11T16:59:21Z</time></trkpt><trkpt lat="45.472323948582385" lon="8.554225430580736"><ele>158.0</ele><time>2026-04-11T16:59:22Z</time></trkpt><trkpt lat="45.472336224407556" lon="8.554379139579641"><ele>158.0</ele><time>2026-04-11T16:59:23Z</time></trkpt><trkpt lat="45.47234799033074" lon="8.554526463981418"><ele>158.0</ele><time>2026-04-11T16:59:24Z</time></trkpt><trkpt lat="45.47237321502726" lon="8.554663804665951"><ele>158.0</ele><time>2026-04-11T16:59:25Z</time></trkpt><trkpt lat="45.47238597375457" lon="8.554796898564485"><ele>158.0</ele><time>2026-04-11T16:59:26Z</time></trkpt><trkpt lat="45.47239353153118" lon="8.554922458644679"><ele>158.0</ele><time>2026-04-11T16:59:27Z</time></trkpt><trkpt lat="45.47240447463949" lon="8.5550407045467"><ele>158.0</ele><time>2026-04-11T16:59:28Z</time></trkpt><trkpt lat="45.4723977322882" lon="8.55515399804558"><ele>158.0</ele><time>2026-04-11T16:59:29Z</time></trkpt><trkpt lat="45.47242067070784" lon="8.55524962720699"><ele>158.0</ele><time>2026-04-11T16:59:30Z</time></trkpt><trkpt lat="45.4723695820392" lon="8.555403596099788"><ele>158.0</ele><time>2026-04-11T16:59:32Z</time></trkpt><trkpt lat="45.47224818597204" lon="8.55544706883082"><ele>158.0</ele><time>2026-04-11T16:59:34Z</time></trkpt><trkpt lat="45.47217779782527" lon="8.555470422996583"><ele>158.0</ele><time>2026-04-11T16:59:35Z</time></trkpt><trkpt lat="45.47210366131326" lon="8.555512072941307"><ele>158.0</ele><time>2026-04-11T16:59:35.999Z</time></trkpt><trkpt lat="45.472019738705136" lon="8.55553468887059"><ele>158.0</ele><time>2026-04-11T16:59:36.999Z</time></trkpt><trkpt lat="45.471932480720746" lon="8.555562427235198"><ele>158.0</ele><time>2026-04-11T16:59:37.999Z</time></trkpt><trkpt lat="45.471843735843684" lon="8.555580951890796"><ele>158.0</ele><time>2026-04-11T16:59:38.999Z</time></trkpt><trkpt lat="45.471759642983535" lon="8.555601692869553"><ele>157.83333333333331</ele><time>2026-04-11T16:59:39.999Z</time></trkpt><trkpt lat="45.47168060691631" lon="8.555628089705031"><ele>157.66666666666666</ele><time>2026-04-11T16:59:40.999Z</time></trkpt><trkpt lat="45.47160568602713" lon="8.555647330467517"><ele>157.5</ele><time>2026-04-11T16:59:41.999Z</time></trkpt><trkpt lat="45.47153659799032" lon="8.555686790218411"><ele>157.33333333333334</ele><time>2026-04-11T16:59:42.999Z</time></trkpt><trkpt lat="45.471464571714044" lon="8.55568078071811"><ele>157.16666666666669</ele><time>2026-04-11T16:59:43.999Z</time></trkpt><trkpt lat="45.47140147238642" lon="8.555715361562363"><ele>157.0</ele><time>2026-04-11T16:59:44.999Z</time></trkpt><trkpt lat="45.47128245225705" lon="8.555755260946684"><ele>157.5</ele><time>2026-04-11T16:59:46.999Z</time></trkpt><trkpt lat="45.471171995014785" lon="8.555795059495452"><ele>158.0</ele><time>2026-04-11T16:59:48.999Z</time></trkpt><trkpt lat="45.47106205157583" lon="8.555834521368835"><ele>158.5</ele><time>2026-04-11T16:59:50.999Z</time></trkpt><trkpt lat="45.470947373206606" lon="8.555873843971636"><ele>159.0</ele><time>2026-04-11T16:59:52.999Z</time></trkpt><trkpt lat="45.47083509486773" lon="8.555916859012664"><ele>159.0</ele><time>2026-04-11T16:59:54.999Z</time></trkpt><trkpt lat="45.470743411417665" lon="8.555990256003406"><ele>159.0</ele><time>2026-04-11T16:59:56.999Z</time></trkpt><trkpt lat="45.47068533087914" lon="8.556049920920337"><ele>159.0</ele><time>2026-04-11T17:00:00.999Z</time></trkpt><trkpt lat="45.47064063645152" lon="8.556118091747498"><ele>159.0</ele><time>2026-04-11T17:01:34Z</time></trkpt><trkpt lat="45.470589670930245" lon="8.556189948597996"><ele>159.0</ele><time>2026-04-11T17:01:35.999Z</time></trkpt><trkpt lat="45.47050538892775" lon="8.55629212351631"><ele>159.0</ele><time>2026-04-11T17:01:37.999Z</time></trkpt><trkpt lat="45.47045481450774" lon="8.556359277339318"><ele>158.5</ele><time>2026-04-11T17:01:38.999Z</time></trkpt><trkpt lat="45.47039973901234" lon="8.556434108048498"><ele>158.0</ele><time>2026-04-11T17:01:39.999Z</time></trkpt><trkpt lat="45.47033986373942" lon="8.556518804466343"><ele>157.5</ele><time>2026-04-11T17:01:40.999Z</time></trkpt><trkpt lat="45.47027607236028" lon="8.556610000723632"><ele>157.0</ele><time>2026-04-11T17:01:41.999Z</time></trkpt><trkpt lat="45.47020785848554" lon="8.556702453625519"><ele>156.5</ele><time>2026-04-11T17:01:42.999Z</time></trkpt><trkpt lat="45.47013448150286" lon="8.556799323921403"><ele>156.0</ele><time>2026-04-11T17:01:43.999Z</time></trkpt><trkpt lat="45.4700596038059" lon="8.556899443959436"><ele>156.0</ele><time>2026-04-11T17:01:44.999Z</time></trkpt><trkpt lat="45.46998166859201" lon="8.557005138785442"><ele>156.0</ele><time>2026-04-11T17:01:45.999Z</time></trkpt><trkpt lat="45.46990251502477" lon="8.55711504801787"><ele>156.0</ele><time>2026-04-11T17:01:46.999Z</time></trkpt><trkpt lat="45.46982210043113" lon="8.557226901264192"><ele>156.0</ele><time>2026-04-11T17:01:47.999Z</time></trkpt><trkpt lat="45.469744037606866" lon="8.55733147729434"><ele>156.0</ele><time>2026-04-11T17:01:48.999Z</time></trkpt><trkpt lat="45.46965578715681" lon="8.557406079077928"><ele>156.16666666666666</ele><time>2026-04-11T17:01:49.999Z</time></trkpt><trkpt lat="45.46957789461289" lon="8.557481132764392"><ele>156.33333333333334</ele><time>2026-04-11T17:01:50.999Z</time></trkpt><trkpt lat="45.469498098976366" lon="8.557558937840273"><ele>156.5</ele><time>2026-04-11T17:01:51.999Z</time></trkpt><trkpt lat="45.46942552016742" lon="8.55762970611021"><ele>156.66666666666669</ele><time>2026-04-11T17:01:52.999Z</time></trkpt><trkpt lat="45.46936671589454" lon="8.557709293271415"><ele>156.83333333333334</ele><time>2026-04-11T17:01:53.999Z</time></trkpt><trkpt lat="45.469295103723304" lon="8.55776392476613"><ele>157.0</ele><time>2026-04-11T17:01:54.999Z</time></trkpt><trkpt lat="45.46922118155564" lon="8.557809796621882"><ele>157.0</ele><time>2026-04-11T17:01:55.999Z</time></trkpt><trkpt lat="45.469142409160675" lon="8.5578356731313"><ele>157.0</ele><time>2026-04-11T17:01:56.999Z</time></trkpt><trkpt lat="45.46905275183959" lon="8.557851176165412"><ele>157.0</ele><time>2026-04-11T17:01:57.999Z</time></trkpt><trkpt lat="45.46895213691832" lon="8.557857922464267"><ele>157.0</ele><time>2026-04-11T17:01:58.999Z</time></trkpt><trkpt lat="45.46884243782622" lon="8.557858830209142"><ele>157.0</ele><time>2026-04-11T17:01:59.999Z</time></trkpt><trkpt lat="45.46872750938302" lon="8.557861419202641"><ele>156.75</ele><time>2026-04-11T17:02:00.999Z</time></trkpt><trkpt lat="45.4686081163792" lon="8.55786664731706"><ele>156.5</ele><time>2026-04-11T17:02:01.999Z</time></trkpt><trkpt lat="45.46848410571095" lon="8.557872619604659"><ele>156.25</ele><time>2026-04-11T17:02:02.999Z</time></trkpt><trkpt lat="45.468355653060215" lon="8.55787796381214"><ele>156.0</ele><time>2026-04-11T17:02:03.999Z</time></trkpt><trkpt lat="45.46822281146304" lon="8.557883532354648"><ele>156.0</ele><time>2026-04-11T17:02:04.999Z</time></trkpt><trkpt lat="45.46808859257267" lon="8.557889402119978"><ele>156.0</ele><time>2026-04-11T17:02:05.999Z</time></trkpt><trkpt lat="45.46795110136718" lon="8.557892996374537"><ele>156.0</ele><time>2026-04-11T17:02:06.999Z</time></trkpt><trkpt lat="45.46781275728772" lon="8.557895184380406"><ele>156.0</ele><time>2026-04-11T17:02:07.999Z</time></trkpt><trkpt lat="45.467673850380805" lon="8.55789746903117"><ele>156.0</ele><time>2026-04-11T17:02:08.999Z</time></trkpt><trkpt lat="45.46753337731311" lon="8.55789962603438"><ele>156.0</ele><time>2026-04-11T17:02:09.999Z</time></trkpt><trkpt lat="45.46739389204406" lon="8.557902863833238"><ele>156.0</ele><time>2026-04-11T17:02:10.999Z</time></trkpt><trkpt lat="45.467253264857085" lon="8.557907170547843"><ele>156.0</ele><time>2026-04-11T17:02:11.999Z</time></trkpt><trkpt lat="45.467111508794375" lon="8.557912946469028"><ele>156.0</ele><time>2026-04-11T17:02:12.999Z</time></trkpt><trkpt lat="45.46696939580208" lon="8.557917788130739"><ele>156.0</ele><time>2026-04-11T17:02:13.999Z</time></trkpt><trkpt lat="45.46682773168998" lon="8.557925430912473"><ele>156.0</ele><time>2026-04-11T17:02:14.999Z</time></trkpt><trkpt lat="45.46668471948675" lon="8.557933608793878"><ele>156.0</ele><time>2026-04-11T17:02:15.999Z</time></trkpt><trkpt lat="45.46654265069151" lon="8.557940355523877"><ele>156.0</ele><time>2026-04-11T17:02:16.999Z</time></trkpt><trkpt lat="45.466401811446964" lon="8.557947267452754"><ele>156.0</ele><time>2026-04-11T17:02:17.999Z</time></trkpt><trkpt lat="45.46626387778385" lon="8.557955007339984"><ele>156.0</ele><time>2026-04-11T17:02:18.999Z</time></trkpt><trkpt lat="45.4661288122987" lon="8.557963970015223"><ele>156.0</ele><time>2026-04-11T17:02:19.999Z</time></trkpt><trkpt lat="45.465997487344865" lon="8.55797220599768"><ele>155.5</ele><time>2026-04-11T17:02:20.999Z</time></trkpt><trkpt lat="45.46586814598656" lon="8.557980338434348"><ele>155.0</ele><time>2026-04-11T17:02:21.999Z</time></trkpt><trkpt lat="45.46574132956263" lon="8.557988879884707"><ele>154.5</ele><time>2026-04-11T17:02:22.999Z</time></trkpt><trkpt lat="45.46561751684851" lon="8.557998501924017"><ele>154.0</ele><time>2026-04-11T17:02:23.999Z</time></trkpt><trkpt lat="45.46549916040981" lon="8.558006568972132"><ele>154.0</ele><time>2026-04-11T17:02:24.999Z</time></trkpt><trkpt lat="45.46539046149606" lon="8.558013216165953"><ele>154.0</ele><time>2026-04-11T17:02:25.999Z</time></trkpt><trkpt lat="45.465294044437016" lon="8.558017702074125"><ele>154.0</ele><time>2026-04-11T17:02:26.999Z</time></trkpt><trkpt lat="45.46520638356803" lon="8.558019062743655"><ele>154.0</ele><time>2026-04-11T17:02:27.999Z</time></trkpt><trkpt lat="45.465126086738216" lon="8.558000434066527"><ele>154.0</ele><time>2026-04-11T17:02:28.999Z</time></trkpt><trkpt lat="45.46505012552021" lon="8.557947264013599"><ele>154.0</ele><time>2026-04-11T17:02:29.999Z</time></trkpt><trkpt lat="45.46497135542452" lon="8.55788802067376"><ele>154.0</ele><time>2026-04-11T17:02:30.999Z</time></trkpt><trkpt lat="45.46488455980844" lon="8.557865305251967"><ele>154.0</ele><time>2026-04-11T17:02:31.999Z</time></trkpt><trkpt lat="45.46479959366868" lon="8.557876827985575"><ele>154.0</ele><time>2026-04-11T17:02:32.999Z</time></trkpt><trkpt lat="45.4647211619127" lon="8.557936720173931"><ele>154.0</ele><time>2026-04-11T17:02:33.999Z</time></trkpt><trkpt lat="45.46467559066773" lon="8.558042311118898"><ele>154.0</ele><time>2026-04-11T17:02:34.999Z</time></trkpt><trkpt lat="45.464563872258665" lon="8.558058687594258"><ele>153.75</ele><time>2026-04-11T17:02:35.999Z</time></trkpt><trkpt lat="45.46446218367595" lon="8.558079755007137"><ele>153.5</ele><time>2026-04-11T17:02:36.999Z</time></trkpt><trkpt lat="45.46435099602572" lon="8.558081332115586"><ele>153.25</ele><time>2026-04-11T17:02:37.999Z</time></trkpt><trkpt lat="45.46423453158052" lon="8.558086508523532"><ele>153.0</ele><time>2026-04-11T17:02:38.999Z</time></trkpt><trkpt lat="45.46411554296813" lon="8.55809280628425"><ele>153.0</ele><time>2026-04-11T17:02:39.999Z</time></trkpt><trkpt lat="45.46399599424931" lon="8.558097798941121"><ele>153.0</ele><time>2026-04-11T17:02:40.998Z</time></trkpt><trkpt lat="45.463874586463426" lon="8.558104475124345"><ele>153.0</ele><time>2026-04-11T17:02:41.998Z</time></trkpt><trkpt lat="45.46375083885581" lon="8.558114342902137"><ele>153.0</ele><time>2026-04-11T17:02:42.998Z</time></trkpt><trkpt lat="45.4636264977124" lon="8.558123264118187"><ele>154.0</ele><time>2026-04-11T17:02:43.998Z</time></trkpt><trkpt lat="45.463502624822944" lon="8.55812983053562"><ele>155.0</ele><time>2026-04-11T17:02:45Z</time></trkpt><trkpt lat="45.463380745858004" lon="8.558137670887008"><ele>156.0</ele><time>2026-04-11T17:02:46Z</time></trkpt><trkpt lat="45.463259166502475" lon="8.558145947013855"><ele>157.0</ele><time>2026-04-11T17:02:47Z</time></trkpt><trkpt lat="45.463138192865834" lon="8.5581557577404"><ele>157.0</ele><time>2026-04-11T17:02:48Z</time></trkpt><trkpt lat="45.46301802948713" lon="8.558165539538495"><ele>157.0</ele><time>2026-04-11T17:02:49Z</time></trkpt><trkpt lat="45.462898300875736" lon="8.558176245359954"><ele>157.0</ele><time>2026-04-11T17:02:50Z</time></trkpt><trkpt lat="45.462776847529035" lon="8.558184934778236"><ele>157.0</ele><time>2026-04-11T17:02:51Z</time></trkpt><trkpt lat="45.46265673175202" lon="8.55819562360394"><ele>156.75</ele><time>2026-04-11T17:02:52Z</time></trkpt><trkpt lat="45.46253624749433" lon="8.558206718817322"><ele>156.5</ele><time>2026-04-11T17:02:53Z</time></trkpt><trkpt lat="45.4624152127215" lon="8.558219186807236"><ele>156.25</ele><time>2026-04-11T17:02:54Z</time></trkpt><trkpt lat="45.46229389091373" lon="8.558234295352987"><ele>156.0</ele><time>2026-04-11T17:02:55Z</time></trkpt><trkpt lat="45.46217303367044" lon="8.558251509592683"><ele>155.8</ele><time>2026-04-11T17:02:56Z</time></trkpt><trkpt lat="45.46205445089549" lon="8.558270980741518"><ele>155.6</ele><time>2026-04-11T17:02:57Z</time></trkpt><trkpt lat="45.461943959647094" lon="8.558286841733628"><ele>155.4</ele><time>2026-04-11T17:02:58Z</time></trkpt><trkpt lat="45.461845449945805" lon="8.558298375224595"><ele>155.2</ele><time>2026-04-11T17:02:59Z</time></trkpt><trkpt lat="45.46175767134238" lon="8.558301975560193"><ele>155.0</ele><time>2026-04-11T17:03:00Z</time></trkpt><trkpt lat="45.46167161084146" lon="8.558263626492696"><ele>155.0</ele><time>2026-04-11T17:03:01Z</time></trkpt><trkpt lat="45.46159816984044" lon="8.558171699872085"><ele>155.0</ele><time>2026-04-11T17:03:02Z</time></trkpt><trkpt lat="45.46150204666485" lon="8.55813827167834"><ele>155.0</ele><time>2026-04-11T17:03:03Z</time></trkpt><trkpt lat="45.46140546531713" lon="8.558131280735607"><ele>155.0</ele><time>2026-04-11T17:03:04Z</time></trkpt><trkpt lat="45.461316713045036" lon="8.55817805896919"><ele>155.0</ele><time>2026-04-11T17:03:05Z</time></trkpt><trkpt lat="45.46127363232532" lon="8.558292785958946"><ele>154.75</ele><time>2026-04-11T17:03:06Z</time></trkpt><trkpt lat="45.46116892775328" lon="8.558345930529752"><ele>154.5</ele><time>2026-04-11T17:03:07Z</time></trkpt><trkpt lat="45.46106154888919" lon="8.55835311667458"><ele>154.25</ele><time>2026-04-11T17:03:08Z</time></trkpt><trkpt lat="45.460946033435384" lon="8.558382746055859"><ele>154.0</ele><time>2026-04-11T17:03:09Z</time></trkpt><trkpt lat="45.460824593632594" lon="8.558381242884456"><ele>154.0</ele><time>2026-04-11T17:03:10Z</time></trkpt><trkpt lat="45.460698462522586" lon="8.558388237204174"><ele>154.0</ele><time>2026-04-11T17:03:11Z</time></trkpt><trkpt lat="45.460568239536336" lon="8.55839709559177"><ele>154.0</ele><time>2026-04-11T17:03:12Z</time></trkpt><trkpt lat="45.46043458267094" lon="8.558408544028072"><ele>154.0</ele><time>2026-04-11T17:03:13Z</time></trkpt><trkpt lat="45.46030083279994" lon="8.558418258833129"><ele>154.0</ele><time>2026-04-11T17:03:14Z</time></trkpt><trkpt lat="45.46016441500059" lon="8.558427516305498"><ele>154.0</ele><time>2026-04-11T17:03:15Z</time></trkpt><trkpt lat="45.46002871590891" lon="8.55843523078627"><ele>154.0</ele><time>2026-04-11T17:03:16Z</time></trkpt><trkpt lat="45.45989084037573" lon="8.558444299166172"><ele>154.0</ele><time>2026-04-11T17:03:17Z</time></trkpt><trkpt lat="45.459754767805244" lon="8.558453493339647"><ele>154.0</ele><time>2026-04-11T17:03:18Z</time></trkpt><trkpt lat="45.4596198651981" lon="8.558463715310506"><ele>154.0</ele><time>2026-04-11T17:03:19Z</time></trkpt><trkpt lat="45.45948579868635" lon="8.558474551648832"><ele>154.0</ele><time>2026-04-11T17:03:20Z</time></trkpt><trkpt lat="45.459353380948315" lon="8.558483934678192"><ele>154.0</ele><time>2026-04-11T17:03:21Z</time></trkpt><trkpt lat="45.459224333259705" lon="8.558491238183832"><ele>153.5</ele><time>2026-04-11T17:03:22Z</time></trkpt><trkpt lat="45.45911015249773" lon="8.558497623449972"><ele>153.0</ele><time>2026-04-11T17:03:23Z</time></trkpt><trkpt lat="45.45900350940037" lon="8.5585037865883"><ele>152.5</ele><time>2026-04-11T17:03:24Z</time></trkpt><trkpt lat="45.458890814422496" lon="8.558509521673818"><ele>152.0</ele><time>2026-04-11T17:03:25Z</time></trkpt><trkpt lat="45.458774368746724" lon="8.558516308267135"><ele>152.0</ele><time>2026-04-11T17:03:26Z</time></trkpt><trkpt lat="45.45865480783855" lon="8.558520861208866"><ele>152.0</ele><time>2026-04-11T17:03:27Z</time></trkpt><trkpt lat="45.458533730761864" lon="8.558525558529274"><ele>152.0</ele><time>2026-04-11T17:03:28Z</time></trkpt><trkpt lat="45.458410141163846" lon="8.558531902044383"><ele>152.0</ele><time>2026-04-11T17:03:29Z</time></trkpt><trkpt lat="45.45828450528426" lon="8.558538128379018"><ele>152.0</ele><time>2026-04-11T17:03:30Z</time></trkpt><trkpt lat="45.45815714109408" lon="8.558545123496733"><ele>152.0</ele><time>2026-04-11T17:03:31Z</time></trkpt><trkpt lat="45.458027636837876" lon="8.558553833357667"><ele>152.0</ele><time>2026-04-11T17:03:32Z</time></trkpt><trkpt lat="45.45789829949923" lon="8.55856049444252"><ele>152.0</ele><time>2026-04-11T17:03:33Z</time></trkpt><trkpt lat="45.457767898126434" lon="8.55856855345981"><ele>152.25</ele><time>2026-04-11T17:03:34Z</time></trkpt><trkpt lat="45.457638025208176" lon="8.558579797356334"><ele>152.5</ele><time>2026-04-11T17:03:35Z</time></trkpt><trkpt lat="45.45750724233502" lon="8.558587653849388"><ele>152.75</ele><time>2026-04-11T17:03:36Z</time></trkpt><trkpt lat="45.45737670071126" lon="8.558593395644625"><ele>153.0</ele><time>2026-04-11T17:03:37Z</time></trkpt><trkpt lat="45.457247654383586" lon="8.558601502588543"><ele>153.0</ele><time>2026-04-11T17:03:38Z</time></trkpt><trkpt lat="45.457116975590374" lon="8.55861027903384"><ele>153.0</ele><time>2026-04-11T17:03:39Z</time></trkpt><trkpt lat="45.45698530142752" lon="8.55861898472937"><ele>153.0</ele><time>2026-04-11T17:03:40Z</time></trkpt><trkpt lat="45.45685251306431" lon="8.558624884462985"><ele>153.0</ele><time>2026-04-11T17:03:41Z</time></trkpt><trkpt lat="45.45671951669304" lon="8.558632871904095"><ele>153.0</ele><time>2026-04-11T17:03:41.999Z</time></trkpt><trkpt lat="45.45658610929249" lon="8.558642391894342"><ele>153.0</ele><time>2026-04-11T17:03:42.999Z</time></trkpt><trkpt lat="45.45645120050952" lon="8.55865165226092"><ele>153.0</ele><time>2026-04-11T17:03:43.999Z</time></trkpt><trkpt lat="45.456315533860796" lon="8.558657922557972"><ele>153.0</ele><time>2026-04-11T17:03:44.999Z</time></trkpt><trkpt lat="45.4561798421148" lon="8.558667306484823"><ele>153.0</ele><time>2026-04-11T17:03:45.999Z</time></trkpt><trkpt lat="45.45604304435151" lon="8.55867696286265"><ele>153.0</ele><time>2026-04-11T17:03:46.999Z</time></trkpt><trkpt lat="45.45590740856826" lon="8.558687390323596"><ele>153.0</ele><time>2026-04-11T17:03:47.999Z</time></trkpt><trkpt lat="45.4557708854386" lon="8.558695098205938"><ele>153.0</ele><time>2026-04-11T17:03:48.999Z</time></trkpt><trkpt lat="45.45563465975886" lon="8.558703187681571"><ele>153.0</ele><time>2026-04-11T17:03:49.999Z</time></trkpt><trkpt lat="45.455498715077596" lon="8.558713357613533"><ele>153.0</ele><time>2026-04-11T17:03:50.999Z</time></trkpt><trkpt lat="45.455362912614675" lon="8.558720443222212"><ele>153.0</ele><time>2026-04-11T17:03:51.999Z</time></trkpt><trkpt lat="45.4552281501872" lon="8.558730908821998"><ele>153.0</ele><time>2026-04-11T17:03:52.999Z</time></trkpt><trkpt lat="45.45509380640214" lon="8.558739650053996"><ele>152.75</ele><time>2026-04-11T17:03:53.999Z</time></trkpt><trkpt lat="45.45496049305333" lon="8.558747446193744"><ele>152.5</ele><time>2026-04-11T17:03:54.999Z</time></trkpt><trkpt lat="45.45482847907628" lon="8.558755959379694"><ele>152.25</ele><time>2026-04-11T17:03:55.999Z</time></trkpt><trkpt lat="45.4546976007651" lon="8.558764330557267"><ele>152.0</ele><time>2026-04-11T17:03:56.999Z</time></trkpt><trkpt lat="45.454572541273635" lon="8.558771726083974"><ele>152.0</ele><time>2026-04-11T17:03:57.999Z</time></trkpt><trkpt lat="45.45444994214714" lon="8.55877837344707"><ele>152.0</ele><time>2026-04-11T17:03:58.999Z</time></trkpt><trkpt lat="45.454330670978536" lon="8.558786330737771"><ele>152.0</ele><time>2026-04-11T17:03:59.999Z</time></trkpt><trkpt lat="45.45421887344934" lon="8.55879793254879"><ele>152.0</ele><time>2026-04-11T17:04:00.999Z</time></trkpt><trkpt lat="45.45411462108898" lon="8.558807440888536"><ele>152.0</ele><time>2026-04-11T17:04:01.999Z</time></trkpt><trkpt lat="45.45402127088811" lon="8.55881459740034"><ele>152.0</ele><time>2026-04-11T17:04:02.999Z</time></trkpt><trkpt lat="45.45394222434559" lon="8.558819698708044"><ele>152.0</ele><time>2026-04-11T17:04:03.999Z</time></trkpt><trkpt lat="45.45387207120777" lon="8.558811896124125"><ele>152.0</ele><time>2026-04-11T17:04:04.999Z</time></trkpt><trkpt lat="45.453810702844294" lon="8.558781977214307"><ele>152.0</ele><time>2026-04-11T17:04:05.999Z</time></trkpt><trkpt lat="45.45375476858258" lon="8.558733512429832"><ele>152.0</ele><time>2026-04-11T17:04:06.999Z</time></trkpt><trkpt lat="45.453701021811156" lon="8.5586696904311"><ele>152.0</ele><time>2026-04-11T17:04:07.999Z</time></trkpt><trkpt lat="45.45364719822247" lon="8.558606737235722"><ele>151.85714285714286</ele><time>2026-04-11T17:04:08.999Z</time></trkpt><trkpt lat="45.453585393529714" lon="8.558574692114624"><ele>151.71428571428572</ele><time>2026-04-11T17:04:09.999Z</time></trkpt><trkpt lat="45.453513612625834" lon="8.558575743431723"><ele>151.57142857142858</ele><time>2026-04-11T17:04:10.999Z</time></trkpt><trkpt lat="45.453447633458225" lon="8.55861886484139"><ele>151.42857142857144</ele><time>2026-04-11T17:04:11.999Z</time></trkpt><trkpt lat="45.45340197889031" lon="8.558710618516436"><ele>151.28571428571428</ele><time>2026-04-11T17:04:12.999Z</time></trkpt><trkpt lat="45.45338915443314" lon="8.558823458385238"><ele>151.14285714285717</ele><time>2026-04-11T17:04:13.999Z</time></trkpt><trkpt lat="45.45341221798907" lon="8.558929130628375"><ele>151.0</ele><time>2026-04-11T17:04:14.999Z</time></trkpt><trkpt lat="45.45346184427179" lon="8.559012618882706"><ele>151.0</ele><time>2026-04-11T17:04:15.999Z</time></trkpt><trkpt lat="45.45351399013665" lon="8.559093494561948"><ele>151.0</ele><time>2026-04-11T17:04:16.999Z</time></trkpt><trkpt lat="45.45355880655282" lon="8.559195340904699"><ele>151.0</ele><time>2026-04-11T17:04:17.999Z</time></trkpt><trkpt lat="45.45358467287879" lon="8.55931802127565"><ele>151.0</ele><time>2026-04-11T17:04:18.999Z</time></trkpt><trkpt lat="45.45360009137426" lon="8.559455208338282"><ele>151.0</ele><time>2026-04-11T17:04:19.999Z</time></trkpt><trkpt lat="45.453641442086855" lon="8.559595137439976"><ele>151.0</ele><time>2026-04-11T17:04:20.999Z</time></trkpt><trkpt lat="45.453616234859936" lon="8.559773928381203"><ele>151.0</ele><time>2026-04-11T17:04:21.999Z</time></trkpt><trkpt lat="45.45361557816989" lon="8.559949792938625"><ele>151.0</ele><time>2026-04-11T17:04:22.999Z</time></trkpt><trkpt lat="45.453615872760075" lon="8.560128549509562"><ele>151.0</ele><time>2026-04-11T17:04:23.999Z</time></trkpt><trkpt lat="45.4536136093101" lon="8.560315909862709"><ele>151.25</ele><time>2026-04-11T17:04:24.999Z</time></trkpt><trkpt lat="45.453613540404085" lon="8.560507880185334"><ele>151.5</ele><time>2026-04-11T17:04:25.999Z</time></trkpt><trkpt lat="45.453614730904704" lon="8.560702195581626"><ele>151.75</ele><time>2026-04-11T17:04:26.999Z</time></trkpt><trkpt lat="45.45361550919554" lon="8.560896547136858"><ele>152.0</ele><time>2026-04-11T17:04:27.999Z</time></trkpt><trkpt lat="45.45361399178313" lon="8.561093287501661"><ele>152.0</ele><time>2026-04-11T17:04:28.999Z</time></trkpt><trkpt lat="45.45361222370809" lon="8.561291265237886"><ele>152.0</ele><time>2026-04-11T17:04:29.999Z</time></trkpt><trkpt lat="45.453612846357764" lon="8.561490156515415"><ele>152.0</ele><time>2026-04-11T17:04:30.999Z</time></trkpt><trkpt lat="45.45361266743543" lon="8.561682628007366"><ele>152.0</ele><time>2026-04-11T17:04:31.999Z</time></trkpt><trkpt lat="45.45361151799471" lon="8.561870387372053"><ele>151.5</ele><time>2026-04-11T17:04:32.999Z</time></trkpt><trkpt lat="45.4536103094473" lon="8.562058881744836"><ele>151.0</ele><time>2026-04-11T17:04:33.999Z</time></trkpt><trkpt lat="45.45360831436332" lon="8.56224877080452"><ele>150.5</ele><time>2026-04-11T17:04:34.999Z</time></trkpt><trkpt lat="45.45360641246363" lon="8.562442188774039"><ele>150.0</ele><time>2026-04-11T17:04:35.999Z</time></trkpt><trkpt lat="45.453605248991465" lon="8.562635161254514"><ele>150.0</ele><time>2026-04-11T17:04:36.999Z</time></trkpt><trkpt lat="45.45360394209354" lon="8.562833406904167"><ele>150.0</ele><time>2026-04-11T17:04:37.999Z</time></trkpt><trkpt lat="45.45360233933013" lon="8.5630311628644"><ele>150.0</ele><time>2026-04-11T17:04:38.999Z</time></trkpt><trkpt lat="45.45359865055225" lon="8.563224902051985"><ele>150.0</ele><time>2026-04-11T17:04:39.999Z</time></trkpt><trkpt lat="45.453596405293425" lon="8.563411839602239"><ele>149.75</ele><time>2026-04-11T17:04:40.999Z</time></trkpt><trkpt lat="45.453594724530895" lon="8.563594296359588"><ele>149.5</ele><time>2026-04-11T17:04:41.999Z</time></trkpt><trkpt lat="45.45359299734137" lon="8.56377261274174"><ele>149.25</ele><time>2026-04-11T17:04:42.999Z</time></trkpt><trkpt lat="45.45359103106094" lon="8.563949684792842"><ele>149.0</ele><time>2026-04-11T17:04:43.999Z</time></trkpt><trkpt lat="45.45359090362953" lon="8.56412428266936"><ele>149.75</ele><time>2026-04-11T17:04:44.999Z</time></trkpt><trkpt lat="45.45358865234095" lon="8.564300928457282"><ele>150.5</ele><time>2026-04-11T17:04:45.999Z</time></trkpt><trkpt lat="45.453587803325206" lon="8.564481261795114"><ele>151.25</ele><time>2026-04-11T17:04:46.998Z</time></trkpt><trkpt lat="45.45358709129971" lon="8.56466270982461"><ele>152.0</ele><time>2026-04-11T17:04:47.998Z</time></trkpt><trkpt lat="45.453586948637955" lon="8.564847107802846"><ele>152.5</ele><time>2026-04-11T17:04:48.998Z</time></trkpt><trkpt lat="45.45358654612114" lon="8.565036403479446"><ele>153.0</ele><time>2026-04-11T17:04:49.998Z</time></trkpt><trkpt lat="45.45358662146125" lon="8.565230239812104"><ele>153.5</ele><time>2026-04-11T17:04:51Z</time></trkpt><trkpt lat="45.45358621857807" lon="8.565427551890023"><ele>154.0</ele><time>2026-04-11T17:04:52Z</time></trkpt><trkpt lat="45.45358486194703" lon="8.56562112412352"><ele>154.0</ele><time>2026-04-11T17:04:53Z</time></trkpt><trkpt lat="45.45358309084862" lon="8.56581426715115"><ele>154.0</ele><time>2026-04-11T17:04:54Z</time></trkpt><trkpt lat="45.45358184315993" lon="8.56600409981734"><ele>154.0</ele><time>2026-04-11T17:04:55Z</time></trkpt><trkpt lat="45.45358134412725" lon="8.56618846355841"><ele>154.0</ele><time>2026-04-11T17:04:56Z</time></trkpt><trkpt lat="45.45358005493009" lon="8.566359656512157"><ele>153.83333333333334</ele><time>2026-04-11T17:04:57Z</time></trkpt><trkpt lat="45.45357740612277" lon="8.56651447730826"><ele>153.66666666666669</ele><time>2026-04-11T17:04:58Z</time></trkpt><trkpt lat="45.453573593269056" lon="8.566655633596895"><ele>153.5</ele><time>2026-04-11T17:04:59Z</time></trkpt><trkpt lat="45.453566220708886" lon="8.566781246522153"><ele>153.33333333333334</ele><time>2026-04-11T17:05:00Z</time></trkpt><trkpt lat="45.45354869745381" lon="8.566891451044217"><ele>153.16666666666666</ele><time>2026-04-11T17:05:01Z</time></trkpt><trkpt lat="45.45353048094233" lon="8.566983010310974"><ele>153.0</ele><time>2026-04-11T17:05:02Z</time></trkpt><trkpt lat="45.45349007338668" lon="8.567126578331207"><ele>152.66666666666666</ele><time>2026-04-11T17:05:04Z</time></trkpt><trkpt lat="45.453410198126434" lon="8.567231930557769"><ele>152.33333333333334</ele><time>2026-04-11T17:05:06Z</time></trkpt><trkpt lat="45.453352156131224" lon="8.56727920970122"><ele>152.0</ele><time>2026-04-11T17:05:07Z</time></trkpt><trkpt lat="45.45329048978843" lon="8.567338313155004"><ele>151.66666666666669</ele><time>2026-04-11T17:05:08Z</time></trkpt><trkpt lat="45.4532435055964" lon="8.567419814511084"><ele>151.33333333333334</ele><time>2026-04-11T17:05:09Z</time></trkpt><trkpt lat="45.45321666297533" lon="8.567519578480782"><ele>151.0</ele><time>2026-04-11T17:05:10Z</time></trkpt><trkpt lat="45.453213864480325" lon="8.567626087885966"><ele>151.0</ele><time>2026-04-11T17:05:11Z</time></trkpt><trkpt lat="45.45323612460049" lon="8.567725699593895"><ele>151.0</ele><time>2026-04-11T17:05:12Z</time></trkpt><trkpt lat="45.45327761396887" lon="8.56781487914003"><ele>151.0</ele><time>2026-04-11T17:05:13Z</time></trkpt><trkpt lat="45.45333982262107" lon="8.567886526561027"><ele>151.0</ele><time>2026-04-11T17:05:14Z</time></trkpt><trkpt lat="45.453407747846825" lon="8.567959441507611"><ele>151.0</ele><time>2026-04-11T17:05:15Z</time></trkpt><trkpt lat="45.45346621281633" lon="8.56805926758322"><ele>151.0</ele><time>2026-04-11T17:05:16Z</time></trkpt><trkpt lat="45.453508094797485" lon="8.56818647478263"><ele>151.2</ele><time>2026-04-11T17:05:17Z</time></trkpt><trkpt lat="45.453533431812765" lon="8.568333718024832"><ele>151.39999999999998</ele><time>2026-04-11T17:05:18Z</time></trkpt><trkpt lat="45.45354729625013" lon="8.568491109966951"><ele>151.6</ele><time>2026-04-11T17:05:19Z</time></trkpt><trkpt lat="45.453552412391616" lon="8.56865355865165"><ele>151.79999999999998</ele><time>2026-04-11T17:05:20Z</time></trkpt><trkpt lat="45.45355172149824" lon="8.568819388582526"><ele>152.0</ele><time>2026-04-11T17:05:21Z</time></trkpt><trkpt lat="45.45355095395209" lon="8.568991189455605"><ele>152.25</ele><time>2026-04-11T17:05:22Z</time></trkpt><trkpt lat="45.45355008940668" lon="8.569166150811235"><ele>152.5</ele><time>2026-04-11T17:05:23Z</time></trkpt><trkpt lat="45.4535478606346" lon="8.569344846883014"><ele>152.75</ele><time>2026-04-11T17:05:24Z</time></trkpt><trkpt lat="45.453545695852796" lon="8.569526534643462"><ele>153.0</ele><time>2026-04-11T17:05:25Z</time></trkpt><trkpt lat="45.45354366850394" lon="8.569708451705571"><ele>153.25</ele><time>2026-04-11T17:05:26Z</time></trkpt><trkpt lat="45.45354214096125" lon="8.56988827550323"><ele>153.5</ele><time>2026-04-11T17:05:27Z</time></trkpt><trkpt lat="45.45354077172965" lon="8.570066102654176"><ele>153.75</ele><time>2026-04-11T17:05:28Z</time></trkpt><trkpt lat="45.45353845047148" lon="8.570243537148567"><ele>154.0</ele><time>2026-04-11T17:05:29Z</time></trkpt><trkpt lat="45.4535371570693" lon="8.570419562344018"><ele>154.0</ele><time>2026-04-11T17:05:30Z</time></trkpt><trkpt lat="45.453535912006004" lon="8.570595453582735"><ele>154.0</ele><time>2026-04-11T17:05:31Z</time></trkpt><trkpt lat="45.45353160825088" lon="8.570771291196511"><ele>154.0</ele><time>2026-04-11T17:05:32Z</time></trkpt><trkpt lat="45.45352469027118" lon="8.57094959255113"><ele>154.0</ele><time>2026-04-11T17:05:33Z</time></trkpt><trkpt lat="45.45351652104423" lon="8.571128621011558"><ele>153.5</ele><time>2026-04-11T17:05:34Z</time></trkpt><trkpt lat="45.45350504158727" lon="8.571307873507132"><ele>153.0</ele><time>2026-04-11T17:05:35Z</time></trkpt><trkpt lat="45.453490989906946" lon="8.571487699321162"><ele>152.5</ele><time>2026-04-11T17:05:36Z</time></trkpt><trkpt lat="45.45347477566644" lon="8.57166855952087"><ele>152.0</ele><time>2026-04-11T17:05:37Z</time></trkpt><trkpt lat="45.45345839193328" lon="8.571850658164077"><ele>151.5</ele><time>2026-04-11T17:05:38Z</time></trkpt><trkpt lat="45.45344193244864" lon="8.572032752875776"><ele>151.0</ele><time>2026-04-11T17:05:39Z</time></trkpt><trkpt lat="45.45342549673194" lon="8.57221691066753"><ele>150.5</ele><time>2026-04-11T17:05:40Z</time></trkpt><trkpt lat="45.453406915033966" lon="8.57240169413793"><ele>150.0</ele><time>2026-04-11T17:05:41Z</time></trkpt><trkpt lat="45.45338787096472" lon="8.572590225420077"><ele>150.0</ele><time>2026-04-11T17:05:42Z</time></trkpt><trkpt lat="45.45336704360468" lon="8.572778401233496"><ele>150.0</ele><time>2026-04-11T17:05:43Z</time></trkpt><trkpt lat="45.45334596160025" lon="8.572966454684344"><ele>150.0</ele><time>2026-04-11T17:05:44Z</time></trkpt><trkpt lat="45.45332336602961" lon="8.573156531652463"><ele>150.0</ele><time>2026-04-11T17:05:44.999Z</time></trkpt><trkpt lat="45.453300763479554" lon="8.573347273828553"><ele>149.5</ele><time>2026-04-11T17:05:45.999Z</time></trkpt><trkpt lat="45.45327877920181" lon="8.573538673421208"><ele>149.0</ele><time>2026-04-11T17:05:46.999Z</time></trkpt><trkpt lat="45.45325830972613" lon="8.573732800741457"><ele>148.5</ele><time>2026-04-11T17:05:47.999Z</time></trkpt><trkpt lat="45.453236682289564" lon="8.573929662594901"><ele>148.0</ele><time>2026-04-11T17:05:48.999Z</time></trkpt><trkpt lat="45.45321290868584" lon="8.574130502327824"><ele>148.0</ele><time>2026-04-11T17:05:49.999Z</time></trkpt><trkpt lat="45.45318928850312" lon="8.574334001602683"><ele>148.0</ele><time>2026-04-11T17:05:50.999Z</time></trkpt><trkpt lat="45.453164583022456" lon="8.574536347457064"><ele>148.0</ele><time>2026-04-11T17:05:51.999Z</time></trkpt><trkpt lat="45.453139773886925" lon="8.574743083728249"><ele>148.0</ele><time>2026-04-11T17:05:52.999Z</time></trkpt><trkpt lat="45.45311617276564" lon="8.574949342683105"><ele>148.0</ele><time>2026-04-11T17:05:53.999Z</time></trkpt><trkpt lat="45.45309324888638" lon="8.57515536109605"><ele>148.0</ele><time>2026-04-11T17:05:54.999Z</time></trkpt><trkpt lat="45.45306943251964" lon="8.575361492373858"><ele>148.0</ele><time>2026-04-11T17:05:55.999Z</time></trkpt><trkpt lat="45.453043461771486" lon="8.575571646777659"><ele>148.0</ele><time>2026-04-11T17:05:56.999Z</time></trkpt><trkpt lat="45.45301877460101" lon="8.575782591999703"><ele>148.0</ele><time>2026-04-11T17:05:57.999Z</time></trkpt><trkpt lat="45.45299460670825" lon="8.57599367304075"><ele>148.0</ele><time>2026-04-11T17:05:58.999Z</time></trkpt><trkpt lat="45.45297017072037" lon="8.576207581060464"><ele>148.0</ele><time>2026-04-11T17:05:59.999Z</time></trkpt><trkpt lat="45.45294582887409" lon="8.57642678747999"><ele>147.66666666666669</ele><time>2026-04-11T17:06:00.999Z</time></trkpt><trkpt lat="45.45292092423865" lon="8.576647601115763"><ele>147.33333333333334</ele><time>2026-04-11T17:06:01.999Z</time></trkpt><trkpt lat="45.45289466615089" lon="8.576873374439986"><ele>147.0</ele><time>2026-04-11T17:06:02.999Z</time></trkpt><trkpt lat="45.45286822754677" lon="8.577102920396113"><ele>146.66666666666666</ele><time>2026-04-11T17:06:03.999Z</time></trkpt><trkpt lat="45.45284115095052" lon="8.577333763011982"><ele>146.33333333333331</ele><time>2026-04-11T17:06:04.999Z</time></trkpt><trkpt lat="45.45281452094394" lon="8.577564647999427"><ele>146.0</ele><time>2026-04-11T17:06:05.999Z</time></trkpt><trkpt lat="45.452788678350025" lon="8.577794595127443"><ele>146.66666666666666</ele><time>2026-04-11T17:06:06.999Z</time></trkpt><trkpt lat="45.45276188031322" lon="8.578023722671906"><ele>147.33333333333334</ele><time>2026-04-11T17:06:07.999Z</time></trkpt><trkpt lat="45.45273546121261" lon="8.57825071223866"><ele>148.0</ele><time>2026-04-11T17:06:08.999Z</time></trkpt><trkpt lat="45.45270910140712" lon="8.578474553089455"><ele>149.0</ele><time>2026-04-11T17:06:09.999Z</time></trkpt><trkpt lat="45.45268373876907" lon="8.578698020120443"><ele>150.0</ele><time>2026-04-11T17:06:10.999Z</time></trkpt><trkpt lat="45.45265831267866" lon="8.578921132187325"><ele>151.0</ele><time>2026-04-11T17:06:11.999Z</time></trkpt><trkpt lat="45.452632570431554" lon="8.579143767906965"><ele>151.0</ele><time>2026-04-11T17:06:12.999Z</time></trkpt><trkpt lat="45.45260726338509" lon="8.57936621429008"><ele>151.0</ele><time>2026-04-11T17:06:13.999Z</time></trkpt><trkpt lat="45.45258037597362" lon="8.579588562966155"><ele>151.0</ele><time>2026-04-11T17:06:14.999Z</time></trkpt><trkpt lat="45.45255367712184" lon="8.57981003654782"><ele>151.0</ele><time>2026-04-11T17:06:15.999Z</time></trkpt><trkpt lat="45.45252752366509" lon="8.580032209889845"><ele>151.0</ele><time>2026-04-11T17:06:16.999Z</time></trkpt><trkpt lat="45.452501990290806" lon="8.580250778366521"><ele>151.0</ele><time>2026-04-11T17:06:17.999Z</time></trkpt><trkpt lat="45.4524770934965" lon="8.580465751984516"><ele>150.5</ele><time>2026-04-11T17:06:18.999Z</time></trkpt><trkpt lat="45.4524535692202" lon="8.58067600689521"><ele>150.0</ele><time>2026-04-11T17:06:19.999Z</time></trkpt><trkpt lat="45.45243030561594" lon="8.580883716181114"><ele>149.5</ele><time>2026-04-11T17:06:20.999Z</time></trkpt><trkpt lat="45.45240687919814" lon="8.5810844838678"><ele>149.0</ele><time>2026-04-11T17:06:21.999Z</time></trkpt><trkpt lat="45.45238464782279" lon="8.581277223394526"><ele>149.0</ele><time>2026-04-11T17:06:22.999Z</time></trkpt><trkpt lat="45.452363129734124" lon="8.581460754660046"><ele>149.0</ele><time>2026-04-11T17:06:23.999Z</time></trkpt><trkpt lat="45.452342798801574" lon="8.581629785668897"><ele>149.0</ele><time>2026-04-11T17:06:24.999Z</time></trkpt><trkpt lat="45.452324249541725" lon="8.581784414545819"><ele>149.0</ele><time>2026-04-11T17:06:25.999Z</time></trkpt><trkpt lat="45.452306995268344" lon="8.581939403089768"><ele>149.0</ele><time>2026-04-11T17:06:26.999Z</time></trkpt><trkpt lat="45.452295137331305" lon="8.58208996586791"><ele>149.0</ele><time>2026-04-11T17:06:27.999Z</time></trkpt><trkpt lat="45.45229113062853" lon="8.582225953563913"><ele>149.0</ele><time>2026-04-11T17:06:28.999Z</time></trkpt><trkpt lat="45.45228536664906" lon="8.58236751990055"><ele>149.0</ele><time>2026-04-11T17:06:29.999Z</time></trkpt><trkpt lat="45.45226682556973" lon="8.582521178505301"><ele>149.0</ele><time>2026-04-11T17:06:30.999Z</time></trkpt><trkpt lat="45.45224529284621" lon="8.582685421705227"><ele>149.0</ele><time>2026-04-11T17:06:31.999Z</time></trkpt><trkpt lat="45.45223256758755" lon="8.582857340975645"><ele>149.0</ele><time>2026-04-11T17:06:32.999Z</time></trkpt><trkpt lat="45.4522128361008" lon="8.583036979878571"><ele>149.0</ele><time>2026-04-11T17:06:33.999Z</time></trkpt><trkpt lat="45.4521759235697" lon="8.583217613471732"><ele>149.0</ele><time>2026-04-11T17:06:34.999Z</time></trkpt><trkpt lat="45.452139313988475" lon="8.583397817064611"><ele>148.75</ele><time>2026-04-11T17:06:35.999Z</time></trkpt><trkpt lat="45.452111113890474" lon="8.583576563563877"><ele>148.5</ele><time>2026-04-11T17:06:36.999Z</time></trkpt><trkpt lat="45.45208927318001" lon="8.583752955674118"><ele>148.25</ele><time>2026-04-11T17:06:37.999Z</time></trkpt><trkpt lat="45.45206933416408" lon="8.583930795187811"><ele>148.0</ele><time>2026-04-11T17:06:38.999Z</time></trkpt><trkpt lat="45.45204631520695" lon="8.584111050452874"><ele>148.0</ele><time>2026-04-11T17:06:39.999Z</time></trkpt><trkpt lat="45.452018267953214" lon="8.584292500617003"><ele>148.0</ele><time>2026-04-11T17:06:40.999Z</time></trkpt><trkpt lat="45.45198515956746" lon="8.584474419583541"><ele>148.0</ele><time>2026-04-11T17:06:41.999Z</time></trkpt><trkpt lat="45.451942503030345" lon="8.584655547646383"><ele>148.0</ele><time>2026-04-11T17:06:42.999Z</time></trkpt><trkpt lat="45.451892348906526" lon="8.584834300104003"><ele>148.25</ele><time>2026-04-11T17:06:43.999Z</time></trkpt><trkpt lat="45.451832640985586" lon="8.585009850507895"><ele>148.5</ele><time>2026-04-11T17:06:44.999Z</time></trkpt><trkpt lat="45.451770277667336" lon="8.585184190747357"><ele>148.75</ele><time>2026-04-11T17:06:45.999Z</time></trkpt><trkpt lat="45.451706111464155" lon="8.585358446350282"><ele>149.0</ele><time>2026-04-11T17:06:46.999Z</time></trkpt><trkpt lat="45.45164089876015" lon="8.585534988475562"><ele>149.0</ele><time>2026-04-11T17:06:47.999Z</time></trkpt><trkpt lat="45.451576974807246" lon="8.585712164856849"><ele>149.0</ele><time>2026-04-11T17:06:48.999Z</time></trkpt><trkpt lat="45.451513680238435" lon="8.58588995034017"><ele>149.0</ele><time>2026-04-11T17:06:49.998Z</time></trkpt><trkpt lat="45.45144901263567" lon="8.586069613307329"><ele>149.0</ele><time>2026-04-11T17:06:50.998Z</time></trkpt><trkpt lat="45.45138401678116" lon="8.586249873264398"><ele>149.0</ele><time>2026-04-11T17:06:51.998Z</time></trkpt><trkpt lat="45.45131798942857" lon="8.586431462072792"><ele>149.0</ele><time>2026-04-11T17:06:52.998Z</time></trkpt><trkpt lat="45.451254731594666" lon="8.586614805001293"><ele>149.0</ele><time>2026-04-11T17:06:53.998Z</time></trkpt><trkpt lat="45.451192538928595" lon="8.586795336665475"><ele>149.0</ele><time>2026-04-11T17:06:54.998Z</time></trkpt><trkpt lat="45.45111433191775" lon="8.586965324594107"><ele>149.0</ele><time>2026-04-11T17:06:56Z</time></trkpt><trkpt lat="45.451064704185825" lon="8.58715156713206"><ele>149.0</ele><time>2026-04-11T17:06:57Z</time></trkpt><trkpt lat="45.45099798245698" lon="8.587327859816657"><ele>149.0</ele><time>2026-04-11T17:06:58Z</time></trkpt><trkpt lat="45.45093208294772" lon="8.587503303800421"><ele>149.0</ele><time>2026-04-11T17:06:59Z</time></trkpt><trkpt lat="45.450868146974734" lon="8.587682847807706"><ele>148.75</ele><time>2026-04-11T17:07:00Z</time></trkpt><trkpt lat="45.450805572469676" lon="8.587856413032473"><ele>148.5</ele><time>2026-04-11T17:07:01Z</time></trkpt><trkpt lat="45.450743036060864" lon="8.588028548221068"><ele>148.25</ele><time>2026-04-11T17:07:02Z</time></trkpt><trkpt lat="45.45068080778766" lon="8.588198945746209"><ele>148.0</ele><time>2026-04-11T17:07:03Z</time></trkpt><trkpt lat="45.45061880949662" lon="8.588369595230697"><ele>148.0</ele><time>2026-04-11T17:07:04Z</time></trkpt><trkpt lat="45.4505570675774" lon="8.588539649205698"><ele>148.0</ele><time>2026-04-11T17:07:05Z</time></trkpt><trkpt lat="45.45049325775443" lon="8.588709435402112"><ele>148.0</ele><time>2026-04-11T17:07:06Z</time></trkpt><trkpt lat="45.45043091435497" lon="8.588883348128046"><ele>148.0</ele><time>2026-04-11T17:07:07Z</time></trkpt><trkpt lat="45.450368608499424" lon="8.589057882585445"><ele>148.0</ele><time>2026-04-11T17:07:08Z</time></trkpt><trkpt lat="45.45030542854804" lon="8.589233825165584"><ele>148.0</ele><time>2026-04-11T17:07:09Z</time></trkpt><trkpt lat="45.450241620581124" lon="8.589411653989773"><ele>148.0</ele><time>2026-04-11T17:07:10Z</time></trkpt><trkpt lat="45.450177511231736" lon="8.589588531360523"><ele>148.0</ele><time>2026-04-11T17:07:11Z</time></trkpt><trkpt lat="45.45011483858211" lon="8.58975860859477"><ele>147.75</ele><time>2026-04-11T17:07:12Z</time></trkpt><trkpt lat="45.45005399855457" lon="8.589928814453023"><ele>147.5</ele><time>2026-04-11T17:07:13Z</time></trkpt><trkpt lat="45.449995270267586" lon="8.590100700804161"><ele>147.25</ele><time>2026-04-11T17:07:14Z</time></trkpt><trkpt lat="45.449934976587315" lon="8.590267317013302"><ele>147.0</ele><time>2026-04-11T17:07:15Z</time></trkpt><trkpt lat="45.449875712713855" lon="8.590432704940051"><ele>147.75</ele><time>2026-04-11T17:07:16Z</time></trkpt><trkpt lat="45.44981456230519" lon="8.590597302820223"><ele>148.5</ele><time>2026-04-11T17:07:17Z</time></trkpt><trkpt lat="45.449755074180054" lon="8.590764244468291"><ele>149.25</ele><time>2026-04-11T17:07:18Z</time></trkpt><trkpt lat="45.449694778195195" lon="8.590932867318674"><ele>150.0</ele><time>2026-04-11T17:07:19Z</time></trkpt><trkpt lat="45.44963364809843" lon="8.591104036137187"><ele>150.0</ele><time>2026-04-11T17:07:20Z</time></trkpt><trkpt lat="45.44957187166592" lon="8.591277234706599"><ele>150.0</ele><time>2026-04-11T17:07:21Z</time></trkpt><trkpt lat="45.449495043075196" lon="8.591439643363344"><ele>150.0</ele><time>2026-04-11T17:07:22Z</time></trkpt><trkpt lat="45.44943383912056" lon="8.591609371173524"><ele>150.0</ele><time>2026-04-11T17:07:23Z</time></trkpt><trkpt lat="45.449373871789554" lon="8.591779965360168"><ele>150.0</ele><time>2026-04-11T17:07:24Z</time></trkpt><trkpt lat="45.449334586977805" lon="8.591954884792287"><ele>150.0</ele><time>2026-04-11T17:07:25Z</time></trkpt><trkpt lat="45.449291014645375" lon="8.592112928342361"><ele>150.0</ele><time>2026-04-11T17:07:26Z</time></trkpt><trkpt lat="45.44926491511475" lon="8.5922634505382"><ele>150.0</ele><time>2026-04-11T17:07:27Z</time></trkpt><trkpt lat="45.44924560283252" lon="8.592419566598233"><ele>150.0</ele><time>2026-04-11T17:07:28Z</time></trkpt><trkpt lat="45.449235980263836" lon="8.592582103622366"><ele>150.0</ele><time>2026-04-11T17:07:29Z</time></trkpt><trkpt lat="45.44922812641312" lon="8.592750676097562"><ele>150.0</ele><time>2026-04-11T17:07:30Z</time></trkpt><trkpt lat="45.4492229180967" lon="8.592927026536648"><ele>150.0</ele><time>2026-04-11T17:07:31Z</time></trkpt><trkpt lat="45.44921882334497" lon="8.593107934102585"><ele>150.0</ele><time>2026-04-11T17:07:32Z</time></trkpt><trkpt lat="45.449215427559565" lon="8.593293132885192"><ele>150.0</ele><time>2026-04-11T17:07:33Z</time></trkpt><trkpt lat="45.44921012237303" lon="8.593479119428855"><ele>150.0</ele><time>2026-04-11T17:07:34Z</time></trkpt><trkpt lat="45.449205241342426" lon="8.593665860188086"><ele>150.0</ele><time>2026-04-11T17:07:35Z</time></trkpt><trkpt lat="45.44920175667008" lon="8.59385668533967"><ele>150.25</ele><time>2026-04-11T17:07:36Z</time></trkpt><trkpt lat="45.44919522858054" lon="8.594047184802548"><ele>150.5</ele><time>2026-04-11T17:07:37Z</time></trkpt><trkpt lat="45.44918904562103" lon="8.594235047772816"><ele>150.75</ele><time>2026-04-11T17:07:38Z</time></trkpt><trkpt lat="45.449181215859035" lon="8.594415595590888"><ele>151.0</ele><time>2026-04-11T17:07:39Z</time></trkpt><trkpt lat="45.449172894619146" lon="8.594588316188167"><ele>151.0</ele><time>2026-04-11T17:07:40Z</time></trkpt><trkpt lat="45.4491685865483" lon="8.59475360951603"><ele>151.0</ele><time>2026-04-11T17:07:41Z</time></trkpt><trkpt lat="45.449165830605104" lon="8.594913047045212"><ele>151.0</ele><time>2026-04-11T17:07:42Z</time></trkpt><trkpt lat="45.449161481938674" lon="8.59506615678992"><ele>151.0</ele><time>2026-04-11T17:07:43Z</time></trkpt><trkpt lat="45.4491570180411" lon="8.595220812801132"><ele>151.0</ele><time>2026-04-11T17:07:44Z</time></trkpt><trkpt lat="45.44915331963378" lon="8.595377453187352"><ele>150.4</ele><time>2026-04-11T17:07:45Z</time></trkpt><trkpt lat="45.44915183874571" lon="8.595534972055987"><ele>149.8</ele><time>2026-04-11T17:07:46Z</time></trkpt><trkpt lat="45.44914875169896" lon="8.595692226183674"><ele>149.20000000000002</ele><time>2026-04-11T17:07:47Z</time></trkpt><trkpt lat="45.44914539869038" lon="8.595851036681637"><ele>148.6</ele><time>2026-04-11T17:07:47.999Z</time></trkpt><trkpt lat="45.449140390304954" lon="8.596011671393386"><ele>148.0</ele><time>2026-04-11T17:07:48.999Z</time></trkpt><trkpt lat="45.449134067382126" lon="8.596171307728655"><ele>147.75</ele><time>2026-04-11T17:07:49.999Z</time></trkpt><trkpt lat="45.4491282181481" lon="8.59633335103041"><ele>147.5</ele><time>2026-04-11T17:07:50.999Z</time></trkpt><trkpt lat="45.44912345946521" lon="8.596496236044132"><ele>147.25</ele><time>2026-04-11T17:07:51.999Z</time></trkpt><trkpt lat="45.44912030225734" lon="8.596657820102644"><ele>147.0</ele><time>2026-04-11T17:07:52.999Z</time></trkpt><trkpt lat="45.44911739106327" lon="8.59681880228135"><ele>147.0</ele><time>2026-04-11T17:07:53.999Z</time></trkpt><trkpt lat="45.449112673803064" lon="8.596979814531618"><ele>147.0</ele><time>2026-04-11T17:07:54.999Z</time></trkpt><trkpt lat="45.44910823551779" lon="8.59713826621876"><ele>147.0</ele><time>2026-04-11T17:07:55.999Z</time></trkpt><trkpt lat="45.44910356814996" lon="8.597288095010445"><ele>147.0</ele><time>2026-04-11T17:07:56.999Z</time></trkpt><trkpt lat="45.44909988548102" lon="8.59742060845035"><ele>147.0</ele><time>2026-04-11T17:07:57.999Z</time></trkpt><trkpt lat="45.4490944384159" lon="8.59754593837083"><ele>146.83333333333334</ele><time>2026-04-11T17:07:58.999Z</time></trkpt><trkpt lat="45.44909027821597" lon="8.597664798498334"><ele>146.66666666666666</ele><time>2026-04-11T17:07:59.999Z</time></trkpt><trkpt lat="45.44908599153506" lon="8.59777925357437"><ele>146.5</ele><time>2026-04-11T17:08:00.999Z</time></trkpt><trkpt lat="45.4490829379663" lon="8.59788284860209"><ele>146.33333333333331</ele><time>2026-04-11T17:08:01.999Z</time></trkpt><trkpt lat="45.449078596343405" lon="8.598030648036008"><ele>146.16666666666666</ele><time>2026-04-11T17:08:03.999Z</time></trkpt><trkpt lat="45.44907626271735" lon="8.5981309743207"><ele>146.0</ele><time>2026-04-11T17:08:06.999Z</time></trkpt><trkpt lat="45.44907198581648" lon="8.59822732078284"><ele>146.0</ele><time>2026-04-11T17:08:10.999Z</time></trkpt><trkpt lat="45.44906445789397" lon="8.598329769839912"><ele>146.0</ele><time>2026-04-11T17:08:13.999Z</time></trkpt><trkpt lat="45.44905325314318" lon="8.598419785315679"><ele>146.0</ele><time>2026-04-11T17:08:18.999Z</time></trkpt><trkpt lat="45.44904186705783" lon="8.598539088297205"><ele>146.0</ele><time>2026-04-11T17:08:21.999Z</time></trkpt><trkpt lat="45.44903068687796" lon="8.598630744902641"><ele>146.0</ele><time>2026-04-11T17:08:24.999Z</time></trkpt><trkpt lat="45.44901442535446" lon="8.598719476182497"><ele>146.0</ele><time>2026-04-11T17:08:27.999Z</time></trkpt><trkpt lat="45.44897172075165" lon="8.598825178462977"><ele>146.0</ele><time>2026-04-11T17:08:29.999Z</time></trkpt><trkpt lat="45.44891669526435" lon="8.598969327598795"><ele>146.2</ele><time>2026-04-11T17:08:31.999Z</time></trkpt><trkpt lat="45.4489142292541" lon="8.599145518816124"><ele>146.39999999999998</ele><time>2026-04-11T17:08:33.999Z</time></trkpt><trkpt lat="45.448936943852566" lon="8.59923061424367"><ele>146.6</ele><time>2026-04-11T17:08:34.999Z</time></trkpt><trkpt lat="45.449001273834604" lon="8.599380683609802"><ele>146.79999999999998</ele><time>2026-04-11T17:08:36.999Z</time></trkpt><trkpt lat="45.44902945795397" lon="8.599566250338107"><ele>147.0</ele><time>2026-04-11T17:08:38.999Z</time></trkpt><trkpt lat="45.44902756834001" lon="8.599665485200498"><ele>147.5</ele><time>2026-04-11T17:08:39.999Z</time></trkpt><trkpt lat="45.449023914171214" lon="8.599766740905824"><ele>148.0</ele><time>2026-04-11T17:08:40.999Z</time></trkpt><trkpt lat="45.44901963300094" lon="8.599870688087602"><ele>148.5</ele><time>2026-04-11T17:08:41.999Z</time></trkpt><trkpt lat="45.449016817479304" lon="8.599977385730568"><ele>149.0</ele><time>2026-04-11T17:08:42.999Z</time></trkpt><trkpt lat="45.44901490712823" lon="8.600086414105078"><ele>149.5</ele><time>2026-04-11T17:08:43.999Z</time></trkpt><trkpt lat="45.449011933434456" lon="8.600197948855053"><ele>150.0</ele><time>2026-04-11T17:08:44.999Z</time></trkpt><trkpt lat="45.44900853630073" lon="8.6003112625695"><ele>150.0</ele><time>2026-04-11T17:08:45.999Z</time></trkpt><trkpt lat="45.449004406417664" lon="8.60042159051648"><ele>150.0</ele><time>2026-04-11T17:08:46.999Z</time></trkpt><trkpt lat="45.44900042053046" lon="8.600529988482394"><ele>150.0</ele><time>2026-04-11T17:08:47.999Z</time></trkpt><trkpt lat="45.44899666401883" lon="8.600637479436374"><ele>150.0</ele><time>2026-04-11T17:08:48.999Z</time></trkpt><trkpt lat="45.448988079529286" lon="8.600743370413586"><ele>150.0</ele><time>2026-04-11T17:08:49.999Z</time></trkpt><trkpt lat="45.44897460417295" lon="8.600833606524166"><ele>150.0</ele><time>2026-04-11T17:08:50.999Z</time></trkpt><trkpt lat="45.44895384995051" lon="8.600955752957226"><ele>150.0</ele><time>2026-04-11T17:08:52.998Z</time></trkpt><trkpt lat="45.448931699411744" lon="8.601041315799872"><ele>150.0</ele><time>2026-04-11T17:08:58.998Z</time></trkpt><trkpt lat="45.44890250222075" lon="8.601148551739337"><ele>150.0</ele><time>2026-04-11T17:09:00.998Z</time></trkpt><trkpt lat="45.44884334183236" lon="8.601272027348775"><ele>150.0</ele><time>2026-04-11T17:09:03Z</time></trkpt><trkpt lat="45.448752185954106" lon="8.601385878260423"><ele>150.0</ele><time>2026-04-11T17:09:05Z</time></trkpt><trkpt lat="45.448693261245886" lon="8.601424038649352"><ele>150.0</ele><time>2026-04-11T17:09:06Z</time></trkpt><trkpt lat="45.44862663735067" lon="8.60144160991278"><ele>149.7142857142857</ele><time>2026-04-11T17:09:07Z</time></trkpt><trkpt lat="45.44855610449602" lon="8.601437598328339"><ele>149.42857142857142</ele><time>2026-04-11T17:09:08Z</time></trkpt><trkpt lat="45.44848373065888" lon="8.601423513406793"><ele>149.14285714285714</ele><time>2026-04-11T17:09:09Z</time></trkpt><trkpt lat="45.44841241583822" lon="8.601418030892727"><ele>148.85714285714283</ele><time>2026-04-11T17:09:10Z</time></trkpt><trkpt lat="45.44834688928129" lon="8.601396139726667"><ele>148.57142857142856</ele><time>2026-04-11T17:09:11Z</time></trkpt><trkpt lat="45.44829097763928" lon="8.601345486671946"><ele>148.28571428571428</ele><time>2026-04-11T17:09:12Z</time></trkpt><trkpt lat="45.448246359552044" lon="8.601275945238042"><ele>148.0</ele><time>2026-04-11T17:09:13Z</time></trkpt><trkpt lat="45.44820915925261" lon="8.601191267514787"><ele>147.5</ele><time>2026-04-11T17:09:14Z</time></trkpt><trkpt lat="45.44818105520326" lon="8.60110902822547"><ele>147.0</ele><time>2026-04-11T17:09:15Z</time></trkpt><trkpt lat="45.44816823549861" lon="8.601016400409046"><ele>146.5</ele><time>2026-04-11T17:09:16Z</time></trkpt><trkpt lat="45.44820061415932" lon="8.600847114216176"><ele>146.0</ele><time>2026-04-11T17:09:18Z</time></trkpt><trkpt lat="45.4482605400617" lon="8.600803091234404"><ele>145.5</ele><time>2026-04-11T17:09:19Z</time></trkpt><trkpt lat="45.448363200388826" lon="8.600769798916058"><ele>145.0</ele><time>2026-04-11T17:09:21Z</time></trkpt><trkpt lat="45.44848291563931" lon="8.60076018301975"><ele>145.0</ele><time>2026-04-11T17:09:23Z</time></trkpt><trkpt lat="45.448545932483555" lon="8.600760307388665"><ele>145.0</ele><time>2026-04-11T17:09:24Z</time></trkpt><trkpt lat="45.44861161709319" lon="8.600758967464161"><ele>145.0</ele><time>2026-04-11T17:09:25Z</time></trkpt><trkpt lat="45.44867561542174" lon="8.60075641132952"><ele>145.0</ele><time>2026-04-11T17:09:26Z</time></trkpt><trkpt lat="45.448761133632644" lon="8.600754549767315"><ele>145.0</ele><time>2026-04-11T17:09:28Z</time></trkpt><trkpt lat="45.44876874081177" lon="8.600626728351353"><ele>145.0</ele><time>2026-04-11T17:10:30.999Z</time></trkpt><trkpt lat="45.448860759215854" lon="8.600556173367202"><ele>144.4</ele><time>2026-04-11T17:20:26.999Z</time></trkpt><trkpt lat="45.44885830057376" lon="8.600435768867642"><ele>143.8</ele><time>2026-04-11T17:20:28.999Z</time></trkpt><trkpt lat="45.44883478614841" lon="8.60029510176611"><ele>143.2</ele><time>2026-04-11T17:20:30.999Z</time></trkpt><trkpt lat="45.44877774355935" lon="8.600155929756397"><ele>142.6</ele><time>2026-04-11T17:20:32.999Z</time></trkpt><trkpt lat="45.44868020433582" lon="8.600055584480742"><ele>142.0</ele><time>2026-04-11T17:20:34.999Z</time></trkpt><trkpt lat="45.44860153531832" lon="8.59993477206478"><ele>142.0</ele><time>2026-04-11T17:20:36.999Z</time></trkpt><trkpt lat="45.44847218571309" lon="8.599987098421549"><ele>142.0</ele><time>2026-04-11T17:20:38.999Z</time></trkpt><trkpt lat="45.4484077036513" lon="8.599971875925648"><ele>142.0</ele><time>2026-04-11T17:20:39.999Z</time></trkpt><trkpt lat="45.44834188448005" lon="8.599979420332001"><ele>142.0</ele><time>2026-04-11T17:20:40.999Z</time></trkpt><trkpt lat="45.44827705157898" lon="8.600008434760998"><ele>142.0</ele><time>2026-04-11T17:20:41.999Z</time></trkpt><trkpt lat="45.44821235303289" lon="8.600006403514772"><ele>142.0</ele><time>2026-04-11T17:20:42.999Z</time></trkpt><trkpt lat="45.448109560783934" lon="8.59986954711361"><ele>142.0</ele><time>2026-04-11T17:20:44.999Z</time></trkpt><trkpt lat="45.448076837975975" lon="8.599789146884016"><ele>142.0</ele><time>2026-04-11T17:20:45.999Z</time></trkpt><trkpt lat="45.44809723664079" lon="8.599584014508617"><ele>142.0</ele><time>2026-04-11T17:20:47.999Z</time></trkpt><trkpt lat="45.44815207615909" lon="8.59951328100576"><ele>142.0</ele><time>2026-04-11T17:20:48.999Z</time></trkpt><trkpt lat="45.448260594393346" lon="8.599443798122973"><ele>142.0</ele><time>2026-04-11T17:20:50.999Z</time></trkpt><trkpt lat="45.44832678595556" lon="8.599449356568071"><ele>142.4</ele><time>2026-04-11T17:20:51.999Z</time></trkpt><trkpt lat="45.44842092971862" lon="8.599342764215026"><ele>142.79999999999998</ele><time>2026-04-11T17:20:53.999Z</time></trkpt><trkpt lat="45.448536015395504" lon="8.599400787533481"><ele>143.2</ele><time>2026-04-11T17:20:54.999Z</time></trkpt><trkpt lat="45.448611438809685" lon="8.599371632798166"><ele>143.6</ele><time>2026-04-11T17:20:55.999Z</time></trkpt><trkpt lat="45.44868324962274" lon="8.59934395255484"><ele>144.0</ele><time>2026-04-11T17:20:56.999Z</time></trkpt><trkpt lat="45.44877254829782" lon="8.599307100233014"><ele>144.5</ele><time>2026-04-11T17:20:58.999Z</time></trkpt><trkpt lat="45.44885305918262" lon="8.599276478151028"><ele>145.0</ele><time>2026-04-11T17:21:00.999Z</time></trkpt><trkpt lat="45.44896221259993" lon="8.599280126543476"><ele>145.5</ele><time>2026-04-11T17:21:02.999Z</time></trkpt><trkpt lat="45.44901485197397" lon="8.599336211232615"><ele>146.0</ele><time>2026-04-11T17:21:03.999Z</time></trkpt><trkpt lat="45.449048647368386" lon="8.599428774548077"><ele>146.5</ele><time>2026-04-11T17:21:04.999Z</time></trkpt><trkpt lat="45.449052936219175" lon="8.599538179497241"><ele>147.0</ele><time>2026-04-11T17:21:05.999Z</time></trkpt><trkpt lat="45.449037911098365" lon="8.599648666744326"><ele>147.5</ele><time>2026-04-11T17:21:06.999Z</time></trkpt><trkpt lat="45.44902649684941" lon="8.599758033424719"><ele>148.0</ele><time>2026-04-11T17:21:07.999Z</time></trkpt><trkpt lat="45.44902083617513" lon="8.599872918518653"><ele>148.5</ele><time>2026-04-11T17:21:08.999Z</time></trkpt><trkpt lat="45.44901860099467" lon="8.599992531168269"><ele>149.0</ele><time>2026-04-11T17:21:09.999Z</time></trkpt><trkpt lat="45.44901555659277" lon="8.600115296771413"><ele>149.5</ele><time>2026-04-11T17:21:10.999Z</time></trkpt><trkpt lat="45.44901281434603" lon="8.600238190068506"><ele>150.0</ele><time>2026-04-11T17:21:11.999Z</time></trkpt><trkpt lat="45.449008233028096" lon="8.600356083424625"><ele>149.99999999999997</ele><time>2026-04-11T17:21:12.999Z</time></trkpt><trkpt lat="45.44900278257287" lon="8.600467357829451"><ele>150.0</ele><time>2026-04-11T17:21:13.998Z</time></trkpt><trkpt lat="45.44899783456656" lon="8.60057630994966"><ele>150.0</ele><time>2026-04-11T17:21:14.998Z</time></trkpt><trkpt lat="45.448998671919355" lon="8.600682023601186"><ele>150.0</ele><time>2026-04-11T17:21:15.998Z</time></trkpt><trkpt lat="45.448997147186326" lon="8.600783559368335"><ele>150.0</ele><time>2026-04-11T17:21:16.998Z</time></trkpt><trkpt lat="45.448991061271194" lon="8.600882303473036"><ele>149.99999999999997</ele><time>2026-04-11T17:21:17.998Z</time></trkpt><trkpt lat="45.44897744796853" lon="8.600972813388825"><ele>150.0</ele><time>2026-04-11T17:21:18.998Z</time></trkpt><trkpt lat="45.44894959257739" lon="8.601078623794368"><ele>149.8</ele><time>2026-04-11T17:21:20.998Z</time></trkpt><trkpt lat="45.44891105845488" lon="8.601187034736226"><ele>149.6</ele><time>2026-04-11T17:21:22.998Z</time></trkpt><trkpt lat="45.448883697374505" lon="8.601323060991275"><ele>149.4</ele><time>2026-04-11T17:21:24.998Z</time></trkpt><trkpt lat="45.44888476193182" lon="8.60146145402077"><ele>149.2</ele><time>2026-04-11T17:21:26.998Z</time></trkpt><trkpt lat="45.448998364508206" lon="8.601501132281262"><ele>149.0</ele><time>2026-04-11T17:21:27.998Z</time></trkpt><trkpt lat="45.44906547960518" lon="8.601504220519667"><ele>149.0</ele><time>2026-04-11T17:21:28.998Z</time></trkpt><trkpt lat="45.449178267848666" lon="8.601417343631438"><ele>149.0</ele><time>2026-04-11T17:21:30.998Z</time></trkpt><trkpt lat="45.449256713677" lon="8.601490540018832"><ele>149.0</ele><time>2026-04-11T17:21:31.998Z</time></trkpt><trkpt lat="45.449317751542594" lon="8.601529494373324"><ele>149.0</ele><time>2026-04-11T17:21:32.998Z</time></trkpt><trkpt lat="45.44937944949241" lon="8.601563480156305"><ele>149.0</ele><time>2026-04-11T17:21:33.998Z</time></trkpt><trkpt lat="45.449445749489996" lon="8.601591741151871"><ele>149.0</ele><time>2026-04-11T17:21:34.998Z</time></trkpt><trkpt lat="45.449518989651885" lon="8.601602293346929"><ele>149.0</ele><time>2026-04-11T17:21:35.998Z</time></trkpt><trkpt lat="45.44959378179053" lon="8.601616344855513"><ele>149.0</ele><time>2026-04-11T17:21:37Z</time></trkpt><trkpt lat="45.449669253817575" lon="8.601632356459037"><ele>149.0</ele><time>2026-04-11T17:21:38Z</time></trkpt><trkpt lat="45.4497489794286" lon="8.601648326037733"><ele>149.0</ele><time>2026-04-11T17:21:39Z</time></trkpt><trkpt lat="45.44983048767342" lon="8.601662314505612"><ele>149.0</ele><time>2026-04-11T17:21:40Z</time></trkpt><trkpt lat="45.4499138263856" lon="8.6016788463936"><ele>149.0</ele><time>2026-04-11T17:21:41Z</time></trkpt><trkpt lat="45.44999838604348" lon="8.601691762700455"><ele>149.4</ele><time>2026-04-11T17:21:42Z</time></trkpt><trkpt lat="45.45008423194047" lon="8.601705765987921"><ele>149.8</ele><time>2026-04-11T17:21:43Z</time></trkpt><trkpt lat="45.4501714387906" lon="8.601720690137101"><ele>150.2</ele><time>2026-04-11T17:21:44Z</time></trkpt><trkpt lat="45.45026593463362" lon="8.601740571776814"><ele>150.6</ele><time>2026-04-11T17:21:45Z</time></trkpt><trkpt lat="45.45036851812304" lon="8.60176703975392"><ele>151.0</ele><time>2026-04-11T17:21:46Z</time></trkpt><trkpt lat="45.45047249941365" lon="8.601787878581243"><ele>151.0</ele><time>2026-04-11T17:21:47Z</time></trkpt><trkpt lat="45.450583814490784" lon="8.601815235151403"><ele>151.0</ele><time>2026-04-11T17:21:48Z</time></trkpt><trkpt lat="45.45069838727131" lon="8.601836501917699"><ele>151.0</ele><time>2026-04-11T17:21:49Z</time></trkpt><trkpt lat="45.45081667380706" lon="8.601865558041066"><ele>151.0</ele><time>2026-04-11T17:21:50Z</time></trkpt><trkpt lat="45.45093850269855" lon="8.601891766646839"><ele>151.0</ele><time>2026-04-11T17:21:51Z</time></trkpt><trkpt lat="45.45105928216948" lon="8.601915709294982"><ele>151.0</ele><time>2026-04-11T17:21:52Z</time></trkpt><trkpt lat="45.45118236233712" lon="8.601941015649865"><ele>151.0</ele><time>2026-04-11T17:21:53Z</time></trkpt><trkpt lat="45.45130232555771" lon="8.6019626551125"><ele>151.0</ele><time>2026-04-11T17:21:54Z</time></trkpt><trkpt lat="45.45141727865532" lon="8.601990614794259"><ele>151.0</ele><time>2026-04-11T17:21:55Z</time></trkpt><trkpt lat="45.45152910274389" lon="8.602015724030332"><ele>151.0</ele><time>2026-04-11T17:21:56Z</time></trkpt><trkpt lat="45.451633417435175" lon="8.60203674925508"><ele>151.0</ele><time>2026-04-11T17:21:57Z</time></trkpt><trkpt lat="45.45173484522293" lon="8.602057434670668"><ele>151.0</ele><time>2026-04-11T17:21:58Z</time></trkpt><trkpt lat="45.45183538977098" lon="8.602078062623727"><ele>151.0</ele><time>2026-04-11T17:21:59Z</time></trkpt><trkpt lat="45.4519368428616" lon="8.602101303306236"><ele>151.0</ele><time>2026-04-11T17:22:00Z</time></trkpt><trkpt lat="45.452036356903605" lon="8.602120489100267"><ele>151.0</ele><time>2026-04-11T17:22:01Z</time></trkpt><trkpt lat="45.45213583706214" lon="8.6021396490224"><ele>151.0</ele><time>2026-04-11T17:22:02Z</time></trkpt><trkpt lat="45.45222949325971" lon="8.60215877561189"><ele>151.0</ele><time>2026-04-11T17:22:03Z</time></trkpt><trkpt lat="45.4523128373635" lon="8.60217827287888"><ele>151.0</ele><time>2026-04-11T17:22:04Z</time></trkpt><trkpt lat="45.45238730486761" lon="8.60220695486513"><ele>150.83333333333334</ele><time>2026-04-11T17:22:05Z</time></trkpt><trkpt lat="45.45245282492248" lon="8.60226101021432"><ele>150.66666666666669</ele><time>2026-04-11T17:22:06Z</time></trkpt><trkpt lat="45.45250777289618" lon="8.602338198150488"><ele>150.5</ele><time>2026-04-11T17:22:07Z</time></trkpt><trkpt lat="45.45255059664928" lon="8.602437892718333"><ele>150.33333333333334</ele><time>2026-04-11T17:22:08Z</time></trkpt><trkpt lat="45.45259581048241" lon="8.602544197192232"><ele>150.16666666666666</ele><time>2026-04-11T17:22:09Z</time></trkpt><trkpt lat="45.45265776629729" lon="8.602641500465158"><ele>150.0</ele><time>2026-04-11T17:22:10Z</time></trkpt><trkpt lat="45.45273157292364" lon="8.602729538183294"><ele>150.0</ele><time>2026-04-11T17:22:11Z</time></trkpt><trkpt lat="45.45280819279394" lon="8.6028229671098"><ele>150.0</ele><time>2026-04-11T17:22:11.999Z</time></trkpt><trkpt lat="45.4528843967571" lon="8.602925450556521"><ele>150.0</ele><time>2026-04-11T17:22:12.999Z</time></trkpt><trkpt lat="45.45295754095159" lon="8.603035945273211"><ele>150.0</ele><time>2026-04-11T17:22:13.999Z</time></trkpt><trkpt lat="45.45302759134752" lon="8.603153549286695"><ele>150.0</ele><time>2026-04-11T17:22:14.999Z</time></trkpt><trkpt lat="45.45309867132125" lon="8.603271783131762"><ele>150.0</ele><time>2026-04-11T17:22:15.999Z</time></trkpt><trkpt lat="45.45316990426967" lon="8.603393084808731"><ele>150.0</ele><time>2026-04-11T17:22:16.999Z</time></trkpt><trkpt lat="45.45324303226829" lon="8.603513382703815"><ele>150.0</ele><time>2026-04-11T17:22:17.999Z</time></trkpt><trkpt lat="45.453318164227895" lon="8.60363510324819"><ele>150.0</ele><time>2026-04-11T17:22:18.999Z</time></trkpt><trkpt lat="45.45339384631103" lon="8.603759829670976"><ele>150.5</ele><time>2026-04-11T17:22:19.999Z</time></trkpt><trkpt lat="45.45347053852192" lon="8.603884995567308"><ele>151.0</ele><time>2026-04-11T17:22:20.999Z</time></trkpt><trkpt lat="45.45354716958389" lon="8.60400917519158"><ele>151.5</ele><time>2026-04-11T17:22:21.999Z</time></trkpt><trkpt lat="45.453622035592524" lon="8.604138593182473"><ele>152.0</ele><time>2026-04-11T17:22:22.999Z</time></trkpt><trkpt lat="45.45369874429725" lon="8.604268382158955"><ele>152.0</ele><time>2026-04-11T17:22:23.999Z</time></trkpt><trkpt lat="45.45377473339986" lon="8.604401545655277"><ele>152.0</ele><time>2026-04-11T17:22:24.999Z</time></trkpt><trkpt lat="45.45385264443326" lon="8.6045350778203"><ele>152.0</ele><time>2026-04-11T17:22:25.999Z</time></trkpt><trkpt lat="45.453931039448754" lon="8.604669525797268"><ele>152.0</ele><time>2026-04-11T17:22:26.999Z</time></trkpt><trkpt lat="45.454009101960686" lon="8.604805102293682"><ele>152.0</ele><time>2026-04-11T17:22:27.999Z</time></trkpt><trkpt lat="45.45408949568393" lon="8.604939381448306"><ele>152.0</ele><time>2026-04-11T17:22:28.999Z</time></trkpt><trkpt lat="45.454170152783604" lon="8.605075756457612"><ele>152.0</ele><time>2026-04-11T17:22:29.999Z</time></trkpt><trkpt lat="45.45425084770285" lon="8.605213863719495"><ele>152.0</ele><time>2026-04-11T17:22:30.999Z</time></trkpt><trkpt lat="45.45433211165934" lon="8.605351619827074"><ele>152.0</ele><time>2026-04-11T17:22:31.999Z</time></trkpt><trkpt lat="45.45441206283348" lon="8.605489083181348"><ele>152.0</ele><time>2026-04-11T17:22:32.999Z</time></trkpt><trkpt lat="45.45449197182872" lon="8.605625020056866"><ele>152.0</ele><time>2026-04-11T17:22:33.999Z</time></trkpt><trkpt lat="45.45457279782917" lon="8.605760409114525"><ele>152.0</ele><time>2026-04-11T17:22:34.999Z</time></trkpt><trkpt lat="45.45465251918745" lon="8.605894765062796"><ele>152.0</ele><time>2026-04-11T17:22:35.999Z</time></trkpt><trkpt lat="45.45473247202522" lon="8.606029082512995"><ele>152.0</ele><time>2026-04-11T17:22:36.999Z</time></trkpt><trkpt lat="45.4548127557568" lon="8.60616140370481"><ele>152.0</ele><time>2026-04-11T17:22:37.999Z</time></trkpt><trkpt lat="45.45489238854006" lon="8.606294879579037"><ele>152.0</ele><time>2026-04-11T17:22:38.999Z</time></trkpt><trkpt lat="45.4549724437424" lon="8.606429052005517"><ele>152.0</ele><time>2026-04-11T17:22:39.999Z</time></trkpt><trkpt lat="45.45505255844085" lon="8.606565405564021"><ele>152.0</ele><time>2026-04-11T17:22:40.999Z</time></trkpt><trkpt lat="45.45513418022812" lon="8.606703932068749"><ele>152.0</ele><time>2026-04-11T17:22:41.999Z</time></trkpt><trkpt lat="45.45521782903808" lon="8.606847991856176"><ele>152.0</ele><time>2026-04-11T17:22:42.999Z</time></trkpt><trkpt lat="45.45530396204948" lon="8.606993462132404"><ele>152.0</ele><time>2026-04-11T17:22:43.999Z</time></trkpt><trkpt lat="45.45539186815058" lon="8.607142272051417"><ele>152.0</ele><time>2026-04-11T17:22:44.999Z</time></trkpt><trkpt lat="45.45548101564609" lon="8.607290024135638"><ele>152.0</ele><time>2026-04-11T17:22:45.999Z</time></trkpt><trkpt lat="45.455571028555546" lon="8.607440271543343"><ele>152.0</ele><time>2026-04-11T17:22:46.999Z</time></trkpt><trkpt lat="45.45566143320666" lon="8.607586772876243"><ele>152.0</ele><time>2026-04-11T17:22:47.999Z</time></trkpt><trkpt lat="45.45575507802977" lon="8.607734740120097"><ele>152.0</ele><time>2026-04-11T17:22:48.999Z</time></trkpt><trkpt lat="45.45585446547695" lon="8.607879684379341"><ele>152.0</ele><time>2026-04-11T17:22:49.999Z</time></trkpt><trkpt lat="45.45595970729493" lon="8.608014684671188"><ele>152.0</ele><time>2026-04-11T17:22:50.999Z</time></trkpt><trkpt lat="45.4560683123999" lon="8.60814136529816"><ele>152.0</ele><time>2026-04-11T17:22:51.999Z</time></trkpt><trkpt lat="45.45617688868315" lon="8.60826035599981"><ele>152.0</ele><time>2026-04-11T17:22:52.999Z</time></trkpt><trkpt lat="45.45628478672083" lon="8.608373744356397"><ele>152.0</ele><time>2026-04-11T17:22:53.999Z</time></trkpt><trkpt lat="45.4563913737009" lon="8.608483396679501"><ele>152.0</ele><time>2026-04-11T17:22:54.999Z</time></trkpt><trkpt lat="45.45649574523338" lon="8.608587254252413"><ele>151.6</ele><time>2026-04-11T17:22:55.999Z</time></trkpt><trkpt lat="45.456595970296426" lon="8.608686074297713"><ele>151.2</ele><time>2026-04-11T17:22:56.999Z</time></trkpt><trkpt lat="45.456687312299415" lon="8.608776766161569"><ele>150.8</ele><time>2026-04-11T17:22:57.999Z</time></trkpt><trkpt lat="45.456768546530654" lon="8.608864992239237"><ele>150.4</ele><time>2026-04-11T17:22:58.999Z</time></trkpt><trkpt lat="45.456836460269336" lon="8.608964714307989"><ele>150.0</ele><time>2026-04-11T17:22:59.999Z</time></trkpt><trkpt lat="45.45688137173214" lon="8.609069569110499"><ele>150.0</ele><time>2026-04-11T17:23:00.999Z</time></trkpt><trkpt lat="45.45690824188964" lon="8.60918880708977"><ele>150.0</ele><time>2026-04-11T17:23:01.999Z</time></trkpt><trkpt lat="45.45691197820534" lon="8.60931552649611"><ele>150.0</ele><time>2026-04-11T17:23:02.999Z</time></trkpt><trkpt lat="45.456906072709586" lon="8.609442797830363"><ele>150.0</ele><time>2026-04-11T17:23:03.999Z</time></trkpt><trkpt lat="45.45691391880837" lon="8.609567760122612"><ele>150.0</ele><time>2026-04-11T17:23:04.999Z</time></trkpt><trkpt lat="45.45695344952292" lon="8.6096768291095"><ele>150.0</ele><time>2026-04-11T17:23:05.999Z</time></trkpt><trkpt lat="45.456994226027646" lon="8.609790523486884"><ele>149.8</ele><time>2026-04-11T17:23:06.999Z</time></trkpt><trkpt lat="45.45707862082551" lon="8.60984984787613"><ele>149.6</ele><time>2026-04-11T17:23:07.999Z</time></trkpt><trkpt lat="45.457175904612825" lon="8.60987254750956"><ele>149.4</ele><time>2026-04-11T17:23:08.999Z</time></trkpt><trkpt lat="45.4572764430578" lon="8.609821110144743"><ele>149.2</ele><time>2026-04-11T17:23:09.999Z</time></trkpt><trkpt lat="45.45737659230099" lon="8.609796557025497"><ele>149.0</ele><time>2026-04-11T17:23:10.999Z</time></trkpt><trkpt lat="45.457484006659016" lon="8.609789018340976"><ele>148.8</ele><time>2026-04-11T17:23:11.999Z</time></trkpt><trkpt lat="45.45758897287933" lon="8.609821487737877"><ele>148.60000000000002</ele><time>2026-04-11T17:23:12.999Z</time></trkpt><trkpt lat="45.45768968632486" lon="8.609874136429918"><ele>148.4</ele><time>2026-04-11T17:23:13.999Z</time></trkpt><trkpt lat="45.45778691554934" lon="8.609950339300786"><ele>148.20000000000002</ele><time>2026-04-11T17:23:14.999Z</time></trkpt><trkpt lat="45.45788918560723" lon="8.610024627109985"><ele>148.0</ele><time>2026-04-11T17:23:15.999Z</time></trkpt><trkpt lat="45.45799251803714" lon="8.610103438663709"><ele>148.6</ele><time>2026-04-11T17:23:16.998Z</time></trkpt><trkpt lat="45.45809262527545" lon="8.610179137751144"><ele>149.20000000000002</ele><time>2026-04-11T17:23:17.998Z</time></trkpt><trkpt lat="45.4581909044713" lon="8.610250134456475"><ele>149.8</ele><time>2026-04-11T17:23:18.998Z</time></trkpt><trkpt lat="45.45828780085977" lon="8.610316141765203"><ele>150.4</ele><time>2026-04-11T17:23:19.998Z</time></trkpt><trkpt lat="45.45838327965178" lon="8.610382822227777"><ele>151.0</ele><time>2026-04-11T17:23:20.998Z</time></trkpt><trkpt lat="45.45848124710068" lon="8.610449970872176"><ele>151.5</ele><time>2026-04-11T17:23:21.998Z</time></trkpt><trkpt lat="45.458581754385015" lon="8.61052201992189"><ele>152.0</ele><time>2026-04-11T17:23:22.998Z</time></trkpt><trkpt lat="45.45868526114651" lon="8.610594673308082"><ele>152.5</ele><time>2026-04-11T17:23:23.998Z</time></trkpt><trkpt lat="45.45879188396173" lon="8.610670528715513"><ele>153.0</ele><time>2026-04-11T17:23:24.998Z</time></trkpt><trkpt lat="45.45890132245345" lon="8.610749138037313"><ele>153.0</ele><time>2026-04-11T17:23:25.998Z</time></trkpt><trkpt lat="45.459014196578615" lon="8.61082912595029"><ele>153.0</ele><time>2026-04-11T17:23:26.998Z</time></trkpt><trkpt lat="45.45912983800697" lon="8.610910093479731"><ele>153.0</ele><time>2026-04-11T17:23:27.998Z</time></trkpt><trkpt lat="45.45924803675757" lon="8.610989874150466"><ele>153.0</ele><time>2026-04-11T17:23:28.998Z</time></trkpt><trkpt lat="45.45936697462019" lon="8.611068399255947"><ele>153.0</ele><time>2026-04-11T17:23:29.998Z</time></trkpt><trkpt lat="45.45948614008013" lon="8.611140311479172"><ele>153.0</ele><time>2026-04-11T17:23:30.998Z</time></trkpt><trkpt lat="45.45961084811576" lon="8.611199260103234"><ele>153.0</ele><time>2026-04-11T17:23:31.998Z</time></trkpt><trkpt lat="45.45973655950369" lon="8.611250346763951"><ele>153.0</ele><time>2026-04-11T17:23:32.998Z</time></trkpt><trkpt lat="45.45986521284561" lon="8.611293935939292"><ele>154.0</ele><time>2026-04-11T17:23:33.998Z</time></trkpt><trkpt lat="45.45999569285027" lon="8.611329800650289"><ele>155.0</ele><time>2026-04-11T17:23:34.998Z</time></trkpt><trkpt lat="45.46012870241214" lon="8.611352936627469"><ele>156.0</ele><time>2026-04-11T17:23:35.998Z</time></trkpt><trkpt lat="45.46026161571112" lon="8.611363617966083"><ele>157.0</ele><time>2026-04-11T17:23:36.998Z</time></trkpt><trkpt lat="45.4603968307896" lon="8.611367327089036"><ele>156.25</ele><time>2026-04-11T17:23:37.998Z</time></trkpt><trkpt lat="45.460531591938285" lon="8.611355835961753"><ele>155.5</ele><time>2026-04-11T17:23:38.998Z</time></trkpt><trkpt lat="45.460665696573216" lon="8.611335335965837"><ele>154.75</ele><time>2026-04-11T17:23:39.998Z</time></trkpt><trkpt lat="45.46080140923622" lon="8.611307770371038"><ele>154.0</ele><time>2026-04-11T17:23:40.998Z</time></trkpt><trkpt lat="45.46093728880809" lon="8.611269280844638"><ele>154.0</ele><time>2026-04-11T17:23:42Z</time></trkpt><trkpt lat="45.46107352895886" lon="8.611225150510961"><ele>154.0</ele><time>2026-04-11T17:23:43Z</time></trkpt><trkpt lat="45.46120954553704" lon="8.611180059138311"><ele>154.0</ele><time>2026-04-11T17:23:44Z</time></trkpt><trkpt lat="45.46134473899431" lon="8.611124559522192"><ele>154.0</ele><time>2026-04-11T17:23:45Z</time></trkpt><trkpt lat="45.46147936651716" lon="8.611069085887012"><ele>154.25</ele><time>2026-04-11T17:23:46Z</time></trkpt><trkpt lat="45.461615225274336" lon="8.611012804924892"><ele>154.5</ele><time>2026-04-11T17:23:47Z</time></trkpt><trkpt lat="45.46175178811027" lon="8.610958272268253"><ele>154.75</ele><time>2026-04-11T17:23:48Z</time></trkpt><trkpt lat="45.46188765883913" lon="8.610904348613895"><ele>155.0</ele><time>2026-04-11T17:23:49Z</time></trkpt><trkpt lat="45.46202491202008" lon="8.610851585047001"><ele>154.75</ele><time>2026-04-11T17:23:50Z</time></trkpt><trkpt lat="45.4621615059902" lon="8.610798171526847"><ele>154.5</ele><time>2026-04-11T17:23:51Z</time></trkpt><trkpt lat="45.462298717823" lon="8.610744848528867"><ele>154.25</ele><time>2026-04-11T17:23:52Z</time></trkpt><trkpt lat="45.46243564271572" lon="8.610692330333025"><ele>154.0</ele><time>2026-04-11T17:23:53Z</time></trkpt><trkpt lat="45.46257284062464" lon="8.610638293035905"><ele>154.0</ele><time>2026-04-11T17:23:54Z</time></trkpt><trkpt lat="45.46270995015386" lon="8.610585101273834"><ele>154.0</ele><time>2026-04-11T17:23:55Z</time></trkpt><trkpt lat="45.46284783700993" lon="8.61053937966815"><ele>154.0</ele><time>2026-04-11T17:23:56Z</time></trkpt><trkpt lat="45.46298757823415" lon="8.610503485807813"><ele>154.0</ele><time>2026-04-11T17:23:57Z</time></trkpt><trkpt lat="45.46312617717549" lon="8.61046576622511"><ele>154.0</ele><time>2026-04-11T17:23:58Z</time></trkpt><trkpt lat="45.463266209126964" lon="8.610434702357884"><ele>154.0</ele><time>2026-04-11T17:23:59Z</time></trkpt><trkpt lat="45.46340586089812" lon="8.610399946986657"><ele>154.0</ele><time>2026-04-11T17:24:00Z</time></trkpt><trkpt lat="45.4635436187682" lon="8.610366637330424"><ele>154.0</ele><time>2026-04-11T17:24:01Z</time></trkpt><trkpt lat="45.46368370957281" lon="8.610333936234705"><ele>153.5</ele><time>2026-04-11T17:24:02Z</time></trkpt><trkpt lat="45.463824171099745" lon="8.610296870544817"><ele>153.0</ele><time>2026-04-11T17:24:03Z</time></trkpt><trkpt lat="45.46396468131764" lon="8.610260249459369"><ele>152.5</ele><time>2026-04-11T17:24:04Z</time></trkpt><trkpt lat="45.464105596125634" lon="8.610218867399201"><ele>152.0</ele><time>2026-04-11T17:24:05Z</time></trkpt><trkpt lat="45.46424384595089" lon="8.610178733922476"><ele>152.0</ele><time>2026-04-11T17:24:06Z</time></trkpt><trkpt lat="45.464381978955146" lon="8.610137458421958"><ele>152.0</ele><time>2026-04-11T17:24:07Z</time></trkpt><trkpt lat="45.46451942350446" lon="8.61009780537578"><ele>152.0</ele><time>2026-04-11T17:24:08Z</time></trkpt><trkpt lat="45.46465876842524" lon="8.610061316252516"><ele>152.0</ele><time>2026-04-11T17:24:09Z</time></trkpt><trkpt lat="45.4648005932276" lon="8.610024423689662"><ele>152.25</ele><time>2026-04-11T17:24:10Z</time></trkpt><trkpt lat="45.464942665827806" lon="8.60998627069909"><ele>152.5</ele><time>2026-04-11T17:24:11Z</time></trkpt><trkpt lat="45.4650823881245" lon="8.6099477446948"><ele>152.75</ele><time>2026-04-11T17:24:12Z</time></trkpt><trkpt lat="45.46521976546082" lon="8.609910874036817"><ele>153.0</ele><time>2026-04-11T17:24:13Z</time></trkpt><trkpt lat="45.46535452689664" lon="8.609875916031747"><ele>153.5</ele><time>2026-04-11T17:24:14Z</time></trkpt><trkpt lat="45.46548621166934" lon="8.609838537784125"><ele>154.0</ele><time>2026-04-11T17:24:15Z</time></trkpt><trkpt lat="45.46561661206044" lon="8.609803227209982"><ele>154.5</ele><time>2026-04-11T17:24:15.999Z</time></trkpt><trkpt lat="45.465747481893786" lon="8.609771943002162"><ele>155.0</ele><time>2026-04-11T17:24:16.999Z</time></trkpt><trkpt lat="45.465879673324224" lon="8.609739841762984"><ele>155.0</ele><time>2026-04-11T17:24:17.999Z</time></trkpt><trkpt lat="45.4660115339477" lon="8.609706104994569"><ele>155.0</ele><time>2026-04-11T17:24:18.999Z</time></trkpt><trkpt lat="45.46614475221789" lon="8.60967301520405"><ele>155.0</ele><time>2026-04-11T17:24:19.999Z</time></trkpt><trkpt lat="45.46627823428592" lon="8.60963676743022"><ele>155.0</ele><time>2026-04-11T17:24:20.999Z</time></trkpt><trkpt lat="45.466411364234474" lon="8.60960273281255"><ele>155.25</ele><time>2026-04-11T17:24:21.999Z</time></trkpt><trkpt lat="45.466543248789705" lon="8.609565288370382"><ele>155.5</ele><time>2026-04-11T17:24:22.999Z</time></trkpt><trkpt lat="45.46667326614264" lon="8.60953039453353"><ele>155.75</ele><time>2026-04-11T17:24:23.999Z</time></trkpt><trkpt lat="45.46680418704334" lon="8.609496826323953"><ele>156.0</ele><time>2026-04-11T17:24:24.999Z</time></trkpt><trkpt lat="45.46693437876581" lon="8.60946240221178"><ele>155.5</ele><time>2026-04-11T17:24:25.999Z</time></trkpt><trkpt lat="45.46706289757886" lon="8.609431874281427"><ele>155.0</ele><time>2026-04-11T17:24:26.999Z</time></trkpt><trkpt lat="45.46718929529505" lon="8.609411439612455"><ele>154.5</ele><time>2026-04-11T17:24:27.999Z</time></trkpt><trkpt lat="45.4673114574382" lon="8.609399602152648"><ele>154.0</ele><time>2026-04-11T17:24:28.999Z</time></trkpt><trkpt lat="45.46742297071947" lon="8.609390304544867"><ele>154.0</ele><time>2026-04-11T17:24:29.999Z</time></trkpt><trkpt lat="45.4675232754495" lon="8.60938621223094"><ele>154.0</ele><time>2026-04-11T17:24:30.999Z</time></trkpt><trkpt lat="45.46761305942596" lon="8.609387287151355"><ele>154.0</ele><time>2026-04-11T17:24:31.999Z</time></trkpt><trkpt lat="45.46769733593718" lon="8.609398056391885"><ele>154.0</ele><time>2026-04-11T17:24:32.999Z</time></trkpt><trkpt lat="45.46778043806998" lon="8.609435024494497"><ele>154.0</ele><time>2026-04-11T17:24:33.999Z</time></trkpt><trkpt lat="45.4678684127991" lon="8.60946140938337"><ele>154.4</ele><time>2026-04-11T17:24:34.999Z</time></trkpt><trkpt lat="45.467940062218595" lon="8.609587748670078"><ele>154.8</ele><time>2026-04-11T17:24:35.999Z</time></trkpt><trkpt lat="45.46802641936065" lon="8.609656064607735"><ele>155.2</ele><time>2026-04-11T17:24:36.999Z</time></trkpt><trkpt lat="45.468073225468736" lon="8.609800915237047"><ele>155.6</ele><time>2026-04-11T17:24:37.999Z</time></trkpt><trkpt lat="45.46811844024804" lon="8.609937617369692"><ele>156.0</ele><time>2026-04-11T17:24:38.999Z</time></trkpt><trkpt lat="45.468150195610185" lon="8.610088331737808"><ele>155.0</ele><time>2026-04-11T17:24:39.999Z</time></trkpt><trkpt lat="45.46817333599764" lon="8.610249734491964"><ele>154.0</ele><time>2026-04-11T17:24:40.999Z</time></trkpt><trkpt lat="45.468191354966514" lon="8.61041804801954"><ele>153.0</ele><time>2026-04-11T17:24:41.999Z</time></trkpt><trkpt lat="45.468204707742686" lon="8.610589778078811"><ele>152.0</ele><time>2026-04-11T17:24:42.999Z</time></trkpt><trkpt lat="45.468218547569265" lon="8.610764276666814"><ele>152.0</ele><time>2026-04-11T17:24:43.999Z</time></trkpt><trkpt lat="45.46823339150776" lon="8.610941801034553"><ele>152.0</ele><time>2026-04-11T17:24:44.999Z</time></trkpt><trkpt lat="45.468249665619" lon="8.61112103454021"><ele>152.0</ele><time>2026-04-11T17:24:45.999Z</time></trkpt><trkpt lat="45.46826869154195" lon="8.611302117541202"><ele>152.0</ele><time>2026-04-11T17:24:46.999Z</time></trkpt><trkpt lat="45.468289227788866" lon="8.611484839442895"><ele>153.0</ele><time>2026-04-11T17:24:47.999Z</time></trkpt><trkpt lat="45.46831182959847" lon="8.611669941674231"><ele>154.0</ele><time>2026-04-11T17:24:48.999Z</time></trkpt><trkpt lat="45.46833444176014" lon="8.611857387015357"><ele>155.0</ele><time>2026-04-11T17:24:49.999Z</time></trkpt><trkpt lat="45.468358700186826" lon="8.612043186578717"><ele>156.0</ele><time>2026-04-11T17:24:50.999Z</time></trkpt><trkpt lat="45.468381095960986" lon="8.612231730624462"><ele>156.25</ele><time>2026-04-11T17:24:51.999Z</time></trkpt><trkpt lat="45.468405551748205" lon="8.612418444595548"><ele>156.5</ele><time>2026-04-11T17:24:52.999Z</time></trkpt><trkpt lat="45.46843248927499" lon="8.612603601997817"><ele>156.75</ele><time>2026-04-11T17:24:53.999Z</time></trkpt><trkpt lat="45.46848844414993" lon="8.612769151384537"><ele>157.0</ele><time>2026-04-11T17:24:54.999Z</time></trkpt><trkpt lat="45.46849159579953" lon="8.612970109394151"><ele>157.0</ele><time>2026-04-11T17:24:55.999Z</time></trkpt><trkpt lat="45.46852195907816" lon="8.613150355760283"><ele>157.0</ele><time>2026-04-11T17:24:56.999Z</time></trkpt><trkpt lat="45.468551519315234" lon="8.613330261711427"><ele>157.0</ele><time>2026-04-11T17:24:57.999Z</time></trkpt><trkpt lat="45.46858118460175" lon="8.61350941226195"><ele>157.0</ele><time>2026-04-11T17:24:58.999Z</time></trkpt><trkpt lat="45.46861065916328" lon="8.613687588844888"><ele>156.75</ele><time>2026-04-11T17:24:59.999Z</time></trkpt><trkpt lat="45.46864062460948" lon="8.613865611971992"><ele>156.5</ele><time>2026-04-11T17:25:00.999Z</time></trkpt><trkpt lat="45.46867088103283" lon="8.61404498070874"><ele>156.25</ele><time>2026-04-11T17:25:01.999Z</time></trkpt><trkpt lat="45.46870169368558" lon="8.61422454253581"><ele>156.0</ele><time>2026-04-11T17:25:02.999Z</time></trkpt><trkpt lat="45.468731567907845" lon="8.614406126542507"><ele>156.0</ele><time>2026-04-11T17:25:03.999Z</time></trkpt><trkpt lat="45.46876090103395" lon="8.61458667616389"><ele>156.0</ele><time>2026-04-11T17:25:04.999Z</time></trkpt><trkpt lat="45.46879026098242" lon="8.614767626045827"><ele>156.0</ele><time>2026-04-11T17:25:05.999Z</time></trkpt><trkpt lat="45.46882169725638" lon="8.61495160259013"><ele>156.0</ele><time>2026-04-11T17:25:06.999Z</time></trkpt><trkpt lat="45.46885328881499" lon="8.615135928656901"><ele>155.5</ele><time>2026-04-11T17:25:07.999Z</time></trkpt><trkpt lat="45.46888500984969" lon="8.6153202691832"><ele>155.0</ele><time>2026-04-11T17:25:08.999Z</time></trkpt><trkpt lat="45.46891674854235" lon="8.615503346931213"><ele>154.5</ele><time>2026-04-11T17:25:09.999Z</time></trkpt><trkpt lat="45.46894701909251" lon="8.615684144352747"><ele>154.0</ele><time>2026-04-11T17:25:10.999Z</time></trkpt><trkpt lat="45.46897546953084" lon="8.615857445607"><ele>154.0</ele><time>2026-04-11T17:25:11.999Z</time></trkpt><trkpt lat="45.46900234329211" lon="8.616021280597586"><ele>154.0</ele><time>2026-04-11T17:25:12.999Z</time></trkpt><trkpt lat="45.46902824281142" lon="8.616179367968147"><ele>154.0</ele><time>2026-04-11T17:25:13.999Z</time></trkpt><trkpt lat="45.469052696775485" lon="8.616334586173927"><ele>154.0</ele><time>2026-04-11T17:25:14.999Z</time></trkpt><trkpt lat="45.46907544057738" lon="8.616476698489404"><ele>154.0</ele><time>2026-04-11T17:25:15.999Z</time></trkpt><trkpt lat="45.46909615308819" lon="8.616606778555566"><ele>154.0</ele><time>2026-04-11T17:25:16.999Z</time></trkpt><trkpt lat="45.46911496980982" lon="8.61672663337405"><ele>154.0</ele><time>2026-04-11T17:25:17.999Z</time></trkpt><trkpt lat="45.46913222229713" lon="8.616832453585253"><ele>154.0</ele><time>2026-04-11T17:25:18.999Z</time></trkpt><trkpt lat="45.469148278415275" lon="8.616926608101807"><ele>154.0</ele><time>2026-04-11T17:25:19.999Z</time></trkpt><trkpt lat="45.46917152141592" lon="8.617061786903346"><ele>154.0</ele><time>2026-04-11T17:25:21.998Z</time></trkpt><trkpt lat="45.46918814426003" lon="8.617170755876755"><ele>154.0</ele><time>2026-04-11T17:25:23.998Z</time></trkpt><trkpt lat="45.4692127647518" lon="8.617324075944508"><ele>154.16666666666669</ele><time>2026-04-11T17:25:25.998Z</time></trkpt><trkpt lat="45.46924187626525" lon="8.617501284020761"><ele>154.33333333333334</ele><time>2026-04-11T17:25:27.998Z</time></trkpt><trkpt lat="45.46925578120808" lon="8.617591749949028"><ele>154.5</ele><time>2026-04-11T17:25:28.998Z</time></trkpt><trkpt lat="45.469268863336545" lon="8.617683413656751"><ele>154.66666666666666</ele><time>2026-04-11T17:25:29.998Z</time></trkpt><trkpt lat="45.46928214014598" lon="8.617775923983112"><ele>154.83333333333331</ele><time>2026-04-11T17:25:30.998Z</time></trkpt><trkpt lat="45.46929460532086" lon="8.617874758992347"><ele>155.0</ele><time>2026-04-11T17:25:31.998Z</time></trkpt><trkpt lat="45.46930555535079" lon="8.617978396019373"><ele>155.0</ele><time>2026-04-11T17:25:32.998Z</time></trkpt><trkpt lat="45.46931369279763" lon="8.618092553064036"><ele>155.0</ele><time>2026-04-11T17:25:33.998Z</time></trkpt><trkpt lat="45.46931907878389" lon="8.618215092949633"><ele>155.0</ele><time>2026-04-11T17:25:34.998Z</time></trkpt><trkpt lat="45.469323347665316" lon="8.61834487536184"><ele>155.0</ele><time>2026-04-11T17:25:35.998Z</time></trkpt><trkpt lat="45.46932479502238" lon="8.61847832426617"><ele>155.0</ele><time>2026-04-11T17:25:36.998Z</time></trkpt><trkpt lat="45.46932188732755" lon="8.61861698220558"><ele>155.0</ele><time>2026-04-11T17:25:37.998Z</time></trkpt><trkpt lat="45.46931370234554" lon="8.618763725394704"><ele>155.2</ele><time>2026-04-11T17:25:38.998Z</time></trkpt><trkpt lat="45.469302951205" lon="8.618914517547728"><ele>155.4</ele><time>2026-04-11T17:25:39.998Z</time></trkpt><trkpt lat="45.469287449519555" lon="8.61906863173615"><ele>155.6</ele><time>2026-04-11T17:25:40.998Z</time></trkpt><trkpt lat="45.46926660847061" lon="8.619225721741769"><ele>155.8</ele><time>2026-04-11T17:25:41.998Z</time></trkpt><trkpt lat="45.46924031344119" lon="8.619384549639406"><ele>156.0</ele><time>2026-04-11T17:25:42.998Z</time></trkpt><trkpt lat="45.469208888811785" lon="8.619541768860365"><ele>156.0</ele><time>2026-04-11T17:25:43.998Z</time></trkpt><trkpt lat="45.469172388970726" lon="8.619696771202635"><ele>156.0</ele><time>2026-04-11T17:25:44.998Z</time></trkpt><trkpt lat="45.469131120418474" lon="8.619850373367354"><ele>156.0</ele><time>2026-04-11T17:25:45.998Z</time></trkpt><trkpt lat="45.46908539127046" lon="8.620001892550727"><ele>156.0</ele><time>2026-04-11T17:25:46.998Z</time></trkpt><trkpt lat="45.46903464895275" lon="8.620150348240697"><ele>156.0</ele><time>2026-04-11T17:25:48Z</time></trkpt><trkpt lat="45.46897741716592" lon="8.620296254060067"><ele>156.0</ele><time>2026-04-11T17:25:49Z</time></trkpt><trkpt lat="45.46891653059168" lon="8.620437861966144"><ele>156.0</ele><time>2026-04-11T17:25:50Z</time></trkpt><trkpt lat="45.46885044370743" lon="8.620577393619524"><ele>156.0</ele><time>2026-04-11T17:25:51Z</time></trkpt><trkpt lat="45.468780640121125" lon="8.620714366130228"><ele>155.5</ele><time>2026-04-11T17:25:52Z</time></trkpt><trkpt lat="45.46870701551231" lon="8.620847164223708"><ele>155.0</ele><time>2026-04-11T17:25:53Z</time></trkpt><trkpt lat="45.46862900468833" lon="8.62097525964852"><ele>154.5</ele><time>2026-04-11T17:25:54Z</time></trkpt><trkpt lat="45.4685456003185" lon="8.621097547838648"><ele>154.0</ele><time>2026-04-11T17:25:55Z</time></trkpt><trkpt lat="45.46845936331078" lon="8.621217680029535"><ele>153.5</ele><time>2026-04-11T17:25:56Z</time></trkpt><trkpt lat="45.468370916172184" lon="8.621336985654745"><ele>153.0</ele><time>2026-04-11T17:25:57Z</time></trkpt><trkpt lat="45.46828208931708" lon="8.621457693375195"><ele>152.5</ele><time>2026-04-11T17:25:58Z</time></trkpt><trkpt lat="45.46819332671439" lon="8.621580586100746"><ele>152.0</ele><time>2026-04-11T17:25:59Z</time></trkpt><trkpt lat="45.46810433767786" lon="8.621705017765505"><ele>152.0</ele><time>2026-04-11T17:26:00Z</time></trkpt><trkpt lat="45.46801485029718" lon="8.62183044039021"><ele>152.0</ele><time>2026-04-11T17:26:01Z</time></trkpt><trkpt lat="45.46792474289046" lon="8.6219550883029"><ele>152.0</ele><time>2026-04-11T17:26:02Z</time></trkpt><trkpt lat="45.46783398547323" lon="8.622081018765723"><ele>152.0</ele><time>2026-04-11T17:26:03Z</time></trkpt><trkpt lat="45.46774241042674" lon="8.622206759527876"><ele>151.75</ele><time>2026-04-11T17:26:04Z</time></trkpt><trkpt lat="45.46764961727117" lon="8.622333822590111"><ele>151.5</ele><time>2026-04-11T17:26:05Z</time></trkpt><trkpt lat="45.46755620522076" lon="8.622459892417817"><ele>151.25</ele><time>2026-04-11T17:26:06Z</time></trkpt><trkpt lat="45.467462682359674" lon="8.622587029259833"><ele>151.0</ele><time>2026-04-11T17:26:07Z</time></trkpt><trkpt lat="45.46736833719835" lon="8.622716572681313"><ele>151.25</ele><time>2026-04-11T17:26:08Z</time></trkpt><trkpt lat="45.46727301584109" lon="8.62284644295622"><ele>151.5</ele><time>2026-04-11T17:26:09Z</time></trkpt><trkpt lat="45.46717804426974" lon="8.622976768429016"><ele>151.75</ele><time>2026-04-11T17:26:10Z</time></trkpt><trkpt lat="45.467083455139345" lon="8.623107643018766"><ele>152.0</ele><time>2026-04-11T17:26:11Z</time></trkpt><trkpt lat="45.46698815687896" lon="8.623238161307627"><ele>152.25</ele><time>2026-04-11T17:26:12Z</time></trkpt><trkpt lat="45.46689371273204" lon="8.623368747157624"><ele>152.5</ele><time>2026-04-11T17:26:13Z</time></trkpt><trkpt lat="45.46679910446418" lon="8.623502638616834"><ele>152.75</ele><time>2026-04-11T17:26:14Z</time></trkpt><trkpt lat="45.4667050783362" lon="8.623636448323138"><ele>153.0</ele><time>2026-04-11T17:26:15Z</time></trkpt><trkpt lat="45.46661337192716" lon="8.623771822753621"><ele>153.25</ele><time>2026-04-11T17:26:16Z</time></trkpt><trkpt lat="45.466524483286314" lon="8.623912596098064"><ele>153.5</ele><time>2026-04-11T17:26:17Z</time></trkpt><trkpt lat="45.46644399786026" lon="8.624061938350136"><ele>153.75</ele><time>2026-04-11T17:26:18Z</time></trkpt><trkpt lat="45.46637859472842" lon="8.624218502834324"><ele>154.0</ele><time>2026-04-11T17:26:19Z</time></trkpt><trkpt lat="45.46632289851179" lon="8.624376990390028"><ele>153.6</ele><time>2026-04-11T17:26:19.999Z</time></trkpt><trkpt lat="45.46628237785458" lon="8.624529762936623"><ele>153.2</ele><time>2026-04-11T17:26:20.999Z</time></trkpt><trkpt lat="45.46625091539518" lon="8.624669123301503"><ele>152.79999999999998</ele><time>2026-04-11T17:26:21.999Z</time></trkpt><trkpt lat="45.46622776220381" lon="8.624809291026507"><ele>152.4</ele><time>2026-04-11T17:26:22.999Z</time></trkpt><trkpt lat="45.466208622963" lon="8.624931219607241"><ele>152.0</ele><time>2026-04-11T17:26:23.999Z</time></trkpt><trkpt lat="45.466194290284754" lon="8.625040143308361"><ele>152.0</ele><time>2026-04-11T17:26:24.999Z</time></trkpt><trkpt lat="45.46618223918252" lon="8.625129106840005"><ele>152.0</ele><time>2026-04-11T17:26:25.999Z</time></trkpt><trkpt lat="45.466168916573" lon="8.625240336626806"><ele>152.0</ele><time>2026-04-11T17:26:27.999Z</time></trkpt><trkpt lat="45.46615219560906" lon="8.62535178113386"><ele>152.0</ele><time>2026-04-11T17:26:32.999Z</time></trkpt><trkpt lat="45.466131019421006" lon="8.625468531736946"><ele>152.0</ele><time>2026-04-11T17:26:35.999Z</time></trkpt><trkpt lat="45.46613574642119" lon="8.62557699747528"><ele>152.0</ele><time>2026-04-11T17:26:37.999Z</time></trkpt><trkpt lat="45.46610923739341" lon="8.625704917034732"><ele>152.0</ele><time>2026-04-11T17:26:40.999Z</time></trkpt><trkpt lat="45.46609015860368" lon="8.625795993735451"><ele>152.0</ele><time>2026-04-11T17:26:44.999Z</time></trkpt><trkpt lat="45.46606749784842" lon="8.625890380487382"><ele>152.0</ele><time>2026-04-11T17:26:47.999Z</time></trkpt><trkpt lat="45.46603876716381" lon="8.625972271317597"><ele>152.0</ele><time>2026-04-11T17:26:57.999Z</time></trkpt><trkpt lat="45.46594477704086" lon="8.626048846442579"><ele>152.0</ele><time>2026-04-11T17:27:02.999Z</time></trkpt><trkpt lat="45.465856461516" lon="8.62615765723427"><ele>152.0</ele><time>2026-04-11T17:27:04.999Z</time></trkpt><trkpt lat="45.465819132891305" lon="8.626240707357857"><ele>152.0</ele><time>2026-04-11T17:27:05.999Z</time></trkpt><trkpt lat="45.46578980525517" lon="8.62634000447971"><ele>152.0</ele><time>2026-04-11T17:27:06.999Z</time></trkpt><trkpt lat="45.46577928589927" lon="8.626453676529886"><ele>152.0</ele><time>2026-04-11T17:27:07.999Z</time></trkpt><trkpt lat="45.46578881124418" lon="8.626573123319806"><ele>152.0</ele><time>2026-04-11T17:27:08.999Z</time></trkpt><trkpt lat="45.46581865906408" lon="8.626691141477105"><ele>152.0</ele><time>2026-04-11T17:27:09.999Z</time></trkpt><trkpt lat="45.46585589155977" lon="8.62681381355972"><ele>152.0</ele><time>2026-04-11T17:27:10.999Z</time></trkpt><trkpt lat="45.46588507656142" lon="8.626943444727546"><ele>151.79999999999998</ele><time>2026-04-11T17:27:11.999Z</time></trkpt><trkpt lat="45.46589545856642" lon="8.627084948379991"><ele>151.6</ele><time>2026-04-11T17:27:12.999Z</time></trkpt><trkpt lat="45.46589120715181" lon="8.627231446881236"><ele>151.39999999999998</ele><time>2026-04-11T17:27:13.999Z</time></trkpt><trkpt lat="45.465875357048404" lon="8.62738059402401"><ele>151.2</ele><time>2026-04-11T17:27:14.999Z</time></trkpt><trkpt lat="45.465855391558506" lon="8.627536053523821"><ele>151.0</ele><time>2026-04-11T17:27:15.999Z</time></trkpt><trkpt lat="45.46583583898575" lon="8.627680281880377"><ele>151.0</ele><time>2026-04-11T17:27:16.999Z</time></trkpt><trkpt lat="45.46581512595452" lon="8.627808266969847"><ele>151.0</ele><time>2026-04-11T17:27:17.999Z</time></trkpt><trkpt lat="45.46578878535047" lon="8.627933769190232"><ele>151.0</ele><time>2026-04-11T17:27:18.999Z</time></trkpt><trkpt lat="45.46575209936842" lon="8.628053781188319"><ele>151.0</ele><time>2026-04-11T17:27:19.999Z</time></trkpt><trkpt lat="45.465705866850165" lon="8.628171826792723"><ele>151.0</ele><time>2026-04-11T17:27:20.999Z</time></trkpt><trkpt lat="45.46568033709978" lon="8.62830030625014"><ele>150.8</ele><time>2026-04-11T17:27:21.999Z</time></trkpt><trkpt lat="45.465682898935775" lon="8.62843636855259"><ele>150.6</ele><time>2026-04-11T17:27:22.999Z</time></trkpt><trkpt lat="45.46570125981406" lon="8.628575365047405"><ele>150.4</ele><time>2026-04-11T17:27:23.999Z</time></trkpt><trkpt lat="45.46571232658745" lon="8.628728861209883"><ele>150.2</ele><time>2026-04-11T17:27:24.998Z</time></trkpt><trkpt lat="45.46570501422974" lon="8.628895260728374"><ele>150.0</ele><time>2026-04-11T17:27:25.998Z</time></trkpt><trkpt lat="45.46569183831854" lon="8.629060640442576"><ele>150.0</ele><time>2026-04-11T17:27:26.998Z</time></trkpt><trkpt lat="45.4656729364206" lon="8.629239882996462"><ele>150.0</ele><time>2026-04-11T17:27:27.998Z</time></trkpt><trkpt lat="45.46565399693436" lon="8.629422519099256"><ele>150.0</ele><time>2026-04-11T17:27:28.998Z</time></trkpt><trkpt lat="45.46563888285844" lon="8.629614195978577"><ele>150.0</ele><time>2026-04-11T17:27:29.998Z</time></trkpt><trkpt lat="45.46563051595001" lon="8.629806778074945"><ele>149.75</ele><time>2026-04-11T17:27:30.998Z</time></trkpt><trkpt lat="45.465629808262555" lon="8.63000124540155"><ele>149.5</ele><time>2026-04-11T17:27:31.998Z</time></trkpt><trkpt lat="45.46563553516839" lon="8.630195667274975"><ele>149.25</ele><time>2026-04-11T17:27:32.998Z</time></trkpt><trkpt lat="45.46564618924946" lon="8.630391453126183"><ele>149.0</ele><time>2026-04-11T17:27:33.998Z</time></trkpt><trkpt lat="45.46566415774084" lon="8.63059011968805"><ele>149.0</ele><time>2026-04-11T17:27:34.998Z</time></trkpt><trkpt lat="45.465685436821325" lon="8.63077305210867"><ele>149.0</ele><time>2026-04-11T17:27:35.998Z</time></trkpt><trkpt lat="45.46571101201491" lon="8.630949925043222"><ele>149.0</ele><time>2026-04-11T17:27:36.998Z</time></trkpt><trkpt lat="45.465741378295355" lon="8.631120603959534"><ele>149.0</ele><time>2026-04-11T17:27:37.998Z</time></trkpt><trkpt lat="45.465773310562376" lon="8.631281460516101"><ele>148.6</ele><time>2026-04-11T17:27:38.998Z</time></trkpt><trkpt lat="45.46580740942005" lon="8.631426821820718"><ele>148.2</ele><time>2026-04-11T17:27:39.998Z</time></trkpt><trkpt lat="45.46583597374777" lon="8.631553952043562"><ele>147.79999999999998</ele><time>2026-04-11T17:27:40.998Z</time></trkpt><trkpt lat="45.465849063860226" lon="8.631691771176156"><ele>147.4</ele><time>2026-04-11T17:27:41.998Z</time></trkpt><trkpt lat="45.46584584431001" lon="8.631823626054386"><ele>147.0</ele><time>2026-04-11T17:27:42.998Z</time></trkpt><trkpt lat="45.46584115146937" lon="8.631951699452337"><ele>147.4</ele><time>2026-04-11T17:27:43.998Z</time></trkpt><trkpt lat="45.46586029559223" lon="8.632080207121012"><ele>147.79999999999998</ele><time>2026-04-11T17:27:44.998Z</time></trkpt><trkpt lat="45.46590421500672" lon="8.632196205922195"><ele>148.2</ele><time>2026-04-11T17:27:45.998Z</time></trkpt><trkpt lat="45.465965988034476" lon="8.632300600524474"><ele>148.6</ele><time>2026-04-11T17:27:46.998Z</time></trkpt><trkpt lat="45.46605420942851" lon="8.632363203591433"><ele>149.0</ele><time>2026-04-11T17:27:47.998Z</time></trkpt><trkpt lat="45.46614471007868" lon="8.632426265544096"><ele>149.0</ele><time>2026-04-11T17:27:48.998Z</time></trkpt><trkpt lat="45.4662287479563" lon="8.63251904584995"><ele>149.0</ele><time>2026-04-11T17:27:49.998Z</time></trkpt><trkpt lat="45.46630289848619" lon="8.632641798485642"><ele>149.0</ele><time>2026-04-11T17:27:50.998Z</time></trkpt><trkpt lat="45.466373848614325" lon="8.632782185512541"><ele>149.0</ele><time>2026-04-11T17:27:51.998Z</time></trkpt><trkpt lat="45.46644984492564" lon="8.632922243050155"><ele>149.25</ele><time>2026-04-11T17:27:52.998Z</time></trkpt><trkpt lat="45.466524537367285" lon="8.633069066639727"><ele>149.5</ele><time>2026-04-11T17:27:54Z</time></trkpt><trkpt lat="45.4665995886682" lon="8.633218727003165"><ele>149.75</ele><time>2026-04-11T17:27:55Z</time></trkpt><trkpt lat="45.46667306710527" lon="8.633372406875328"><ele>150.0</ele><time>2026-04-11T17:27:56Z</time></trkpt><trkpt lat="45.466743910602915" lon="8.6335300160811"><ele>150.25</ele><time>2026-04-11T17:27:57Z</time></trkpt><trkpt lat="45.46681244786766" lon="8.633690472218678"><ele>150.5</ele><time>2026-04-11T17:27:58Z</time></trkpt><trkpt lat="45.46687650286918" lon="8.633856459693972"><ele>150.75</ele><time>2026-04-11T17:27:59Z</time></trkpt><trkpt lat="45.46693787719385" lon="8.634023148866843"><ele>151.0</ele><time>2026-04-11T17:28:00Z</time></trkpt><trkpt lat="45.466996566262814" lon="8.634191836734928"><ele>151.0</ele><time>2026-04-11T17:28:01Z</time></trkpt><trkpt lat="45.46705181465728" lon="8.634363265028835"><ele>151.0</ele><time>2026-04-11T17:28:02Z</time></trkpt><trkpt lat="45.46710313356677" lon="8.63453707143817"><ele>151.0</ele><time>2026-04-11T17:28:03Z</time></trkpt><trkpt lat="45.46714913602979" lon="8.634713636925436"><ele>151.0</ele><time>2026-04-11T17:28:04Z</time></trkpt><trkpt lat="45.46719348387559" lon="8.634890853479675"><ele>151.0</ele><time>2026-04-11T17:28:05Z</time></trkpt><trkpt lat="45.46723621522916" lon="8.635071184478132"><ele>151.0</ele><time>2026-04-11T17:28:06Z</time></trkpt><trkpt lat="45.46727461667498" lon="8.635255345775567"><ele>151.0</ele><time>2026-04-11T17:28:07Z</time></trkpt><trkpt lat="45.46730674233871" lon="8.635443353758538"><ele>151.0</ele><time>2026-04-11T17:28:08Z</time></trkpt><trkpt lat="45.467333425365965" lon="8.635633667391396"><ele>151.0</ele><time>2026-04-11T17:28:09Z</time></trkpt><trkpt lat="45.46735774940827" lon="8.635826478184152"><ele>151.0</ele><time>2026-04-11T17:28:10Z</time></trkpt><trkpt lat="45.46737913636336" lon="8.636021386908824"><ele>151.0</ele><time>2026-04-11T17:28:11Z</time></trkpt><trkpt lat="45.46739724210302" lon="8.63621927213072"><ele>151.0</ele><time>2026-04-11T17:28:12Z</time></trkpt><trkpt lat="45.46741023240452" lon="8.63642070030764"><ele>151.0</ele><time>2026-04-11T17:28:13Z</time></trkpt><trkpt lat="45.467418938169914" lon="8.636625674601245"><ele>151.0</ele><time>2026-04-11T17:28:14Z</time></trkpt><trkpt lat="45.46742338135347" lon="8.636835243839087"><ele>151.0</ele><time>2026-04-11T17:28:15Z</time></trkpt><trkpt lat="45.4674221744141" lon="8.63704537161173"><ele>151.0</ele><time>2026-04-11T17:28:16Z</time></trkpt><trkpt lat="45.46741491671979" lon="8.637258273155862"><ele>151.0</ele><time>2026-04-11T17:28:17Z</time></trkpt><trkpt lat="45.46740386008589" lon="8.637473666761881"><ele>151.0</ele><time>2026-04-11T17:28:18Z</time></trkpt><trkpt lat="45.467388242512335" lon="8.637689104988965"><ele>151.0</ele><time>2026-04-11T17:28:19Z</time></trkpt><trkpt lat="45.46736760980321" lon="8.637901617675377"><ele>150.66666666666669</ele><time>2026-04-11T17:28:20Z</time></trkpt><trkpt lat="45.467341619208085" lon="8.638115802580687"><ele>150.33333333333334</ele><time>2026-04-11T17:28:21Z</time></trkpt><trkpt lat="45.46731025657863" lon="8.638330303132964"><ele>150.0</ele><time>2026-04-11T17:28:22Z</time></trkpt><trkpt lat="45.46727119224645" lon="8.638544317841303"><ele>150.0</ele><time>2026-04-11T17:28:22.999Z</time></trkpt><trkpt lat="45.467227355123406" lon="8.638758180748855"><ele>150.0</ele><time>2026-04-11T17:28:23.999Z</time></trkpt><trkpt lat="45.46717792475802" lon="8.638970352324716"><ele>150.0</ele><time>2026-04-11T17:28:24.999Z</time></trkpt><trkpt lat="45.4671245296597" lon="8.639180777223276"><ele>150.33333333333334</ele><time>2026-04-11T17:28:25.999Z</time></trkpt><trkpt lat="45.46706665518595" lon="8.639386822521915"><ele>150.66666666666669</ele><time>2026-04-11T17:28:26.999Z</time></trkpt><trkpt lat="45.46700364233745" lon="8.639588362899717"><ele>151.0</ele><time>2026-04-11T17:28:27.999Z</time></trkpt><trkpt lat="45.46693633116012" lon="8.639783423349874"><ele>150.5</ele><time>2026-04-11T17:28:28.999Z</time></trkpt><trkpt lat="45.46686656936203" lon="8.639968901392965"><ele>150.0</ele><time>2026-04-11T17:28:29.999Z</time></trkpt><trkpt lat="45.466796198343644" lon="8.640140964379544"><ele>149.5</ele><time>2026-04-11T17:28:30.999Z</time></trkpt><trkpt lat="45.466726410724746" lon="8.640298929064208"><ele>149.0</ele><time>2026-04-11T17:28:31.999Z</time></trkpt><trkpt lat="45.46665874622019" lon="8.640442665791674"><ele>149.0</ele><time>2026-04-11T17:28:32.999Z</time></trkpt><trkpt lat="45.466592201314974" lon="8.64057432056979"><ele>149.0</ele><time>2026-04-11T17:28:33.999Z</time></trkpt><trkpt lat="45.46652737081421" lon="8.640695413265583"><ele>149.0</ele><time>2026-04-11T17:28:34.999Z</time></trkpt><trkpt lat="45.46646425597073" lon="8.64080351403318"><ele>149.0</ele><time>2026-04-11T17:28:35.999Z</time></trkpt><trkpt lat="45.466402248515635" lon="8.640894908846406"><ele>149.0</ele><time>2026-04-11T17:28:36.999Z</time></trkpt><trkpt lat="45.466332354820935" lon="8.640963560683673"><ele>148.83333333333331</ele><time>2026-04-11T17:28:37.999Z</time></trkpt><trkpt lat="45.466253810271375" lon="8.641006183855376"><ele>148.66666666666666</ele><time>2026-04-11T17:28:38.999Z</time></trkpt><trkpt lat="45.46617201594635" lon="8.641044127227838"><ele>148.5</ele><time>2026-04-11T17:28:39.999Z</time></trkpt><trkpt lat="45.46609880305353" lon="8.641108983734654"><ele>148.33333333333334</ele><time>2026-04-11T17:28:40.999Z</time></trkpt><trkpt lat="45.46603711732541" lon="8.641191286106167"><ele>148.16666666666669</ele><time>2026-04-11T17:28:41.999Z</time></trkpt><trkpt lat="45.465999881718794" lon="8.641310206005215"><ele>148.0</ele><time>2026-04-11T17:28:42.999Z</time></trkpt><trkpt lat="45.46598081028455" lon="8.641448211977552"><ele>148.0</ele><time>2026-04-11T17:28:43.999Z</time></trkpt><trkpt lat="45.46596053987541" lon="8.64160316343863"><ele>148.0</ele><time>2026-04-11T17:28:44.999Z</time></trkpt><trkpt lat="45.46592218079635" lon="8.641754017938586"><ele>148.0</ele><time>2026-04-11T17:28:45.999Z</time></trkpt><trkpt lat="45.465863401517105" lon="8.641903063757866"><ele>148.0</ele><time>2026-04-11T17:28:46.999Z</time></trkpt><trkpt lat="45.46579723003715" lon="8.642055515123914"><ele>148.25</ele><time>2026-04-11T17:28:47.999Z</time></trkpt><trkpt lat="45.4657360957673" lon="8.642220520337297"><ele>148.5</ele><time>2026-04-11T17:28:48.999Z</time></trkpt><trkpt lat="45.465678681534776" lon="8.642392387916766"><ele>148.75</ele><time>2026-04-11T17:28:49.999Z</time></trkpt><trkpt lat="45.4656295389591" lon="8.642564648020638"><ele>149.0</ele><time>2026-04-11T17:28:50.999Z</time></trkpt><trkpt lat="45.465583372812645" lon="8.642749610275443"><ele>148.75</ele><time>2026-04-11T17:28:51.999Z</time></trkpt><trkpt lat="45.465548397264996" lon="8.6429406464296"><ele>148.5</ele><time>2026-04-11T17:28:52.999Z</time></trkpt><trkpt lat="45.465521609449056" lon="8.643131394736836"><ele>148.25</ele><time>2026-04-11T17:28:53.999Z</time></trkpt><trkpt lat="45.465505561387126" lon="8.643324223825275"><ele>148.0</ele><time>2026-04-11T17:28:54.999Z</time></trkpt><trkpt lat="45.46549585598455" lon="8.643518982841528"><ele>148.0</ele><time>2026-04-11T17:28:55.999Z</time></trkpt><trkpt lat="45.46549453592991" lon="8.643711075789254"><ele>148.0</ele><time>2026-04-11T17:28:56.999Z</time></trkpt><trkpt lat="45.46550054700018" lon="8.643900767534989"><ele>148.0</ele><time>2026-04-11T17:28:57.999Z</time></trkpt><trkpt lat="45.46551248650641" lon="8.644089173141365"><ele>148.0</ele><time>2026-04-11T17:28:58.999Z</time></trkpt><trkpt lat="45.46552943597009" lon="8.644277203670418"><ele>146.75</ele><time>2026-04-11T17:28:59.999Z</time></trkpt><trkpt lat="45.465548442674184" lon="8.644465865340559"><ele>145.5</ele><time>2026-04-11T17:29:00.999Z</time></trkpt><trkpt lat="45.46556940499571" lon="8.644654645266504"><ele>144.25</ele><time>2026-04-11T17:29:01.999Z</time></trkpt><trkpt lat="45.46558923787658" lon="8.644844765767674"><ele>143.0</ele><time>2026-04-11T17:29:02.999Z</time></trkpt><trkpt lat="45.4656112676859" lon="8.645035853437903"><ele>143.0</ele><time>2026-04-11T17:29:03.999Z</time></trkpt><trkpt lat="45.46563591198097" lon="8.645222872520478"><ele>143.0</ele><time>2026-04-11T17:29:04.999Z</time></trkpt><trkpt lat="45.465659286987886" lon="8.645412038904125"><ele>143.0</ele><time>2026-04-11T17:29:05.999Z</time></trkpt><trkpt lat="45.465682127332244" lon="8.645600326857675"><ele>143.0</ele><time>2026-04-11T17:29:06.999Z</time></trkpt><trkpt lat="45.465704665974236" lon="8.645790617663403"><ele>143.75</ele><time>2026-04-11T17:29:07.999Z</time></trkpt><trkpt lat="45.46572781474831" lon="8.645985212811512"><ele>144.5</ele><time>2026-04-11T17:29:08.999Z</time></trkpt><trkpt lat="45.46574773080678" lon="8.646183705840736"><ele>145.25</ele><time>2026-04-11T17:29:09.999Z</time></trkpt><trkpt lat="45.46576574951793" lon="8.646386080254485"><ele>146.0</ele><time>2026-04-11T17:29:10.999Z</time></trkpt><trkpt lat="45.4657784842308" lon="8.646593605582552"><ele>146.75</ele><time>2026-04-11T17:29:11.999Z</time></trkpt><trkpt lat="45.46579064379083" lon="8.646802123456938"><ele>147.5</ele><time>2026-04-11T17:29:12.999Z</time></trkpt><trkpt lat="45.465798901336214" lon="8.647012673301957"><ele>148.25</ele><time>2026-04-11T17:29:13.999Z</time></trkpt><trkpt lat="45.46580363931365" lon="8.647224293983552"><ele>149.0</ele><time>2026-04-11T17:29:14.999Z</time></trkpt><trkpt lat="45.46580734936817" lon="8.647434344990016"><ele>149.0</ele><time>2026-04-11T17:29:15.999Z</time></trkpt><trkpt lat="45.46580774766686" lon="8.647644016073276"><ele>149.0</ele><time>2026-04-11T17:29:16.999Z</time></trkpt><trkpt lat="45.465806531024576" lon="8.647853363833763"><ele>149.0</ele><time>2026-04-11T17:29:17.999Z</time></trkpt><trkpt lat="45.4658031268677" lon="8.648063862796247"><ele>149.0</ele><time>2026-04-11T17:29:18.999Z</time></trkpt><trkpt lat="45.46579885643418" lon="8.648274144055259"><ele>149.25</ele><time>2026-04-11T17:29:19.999Z</time></trkpt><trkpt lat="45.46579419965469" lon="8.648481970199102"><ele>149.5</ele><time>2026-04-11T17:29:20.999Z</time></trkpt><trkpt lat="45.465791292602745" lon="8.64869071948099"><ele>149.75</ele><time>2026-04-11T17:29:21.999Z</time></trkpt><trkpt lat="45.46578875507236" lon="8.648899846253249"><ele>150.0</ele><time>2026-04-11T17:29:22.999Z</time></trkpt><trkpt lat="45.46578663887677" lon="8.64910918257926"><ele>150.25</ele><time>2026-04-11T17:29:23.999Z</time></trkpt><trkpt lat="45.465784432433125" lon="8.649319316337957"><ele>150.5</ele><time>2026-04-11T17:29:24.999Z</time></trkpt><trkpt lat="45.46578055731124" lon="8.649528611147806"><ele>150.75</ele><time>2026-04-11T17:29:25.999Z</time></trkpt><trkpt lat="45.465777803727654" lon="8.649738984598294"><ele>151.0</ele><time>2026-04-11T17:29:26.999Z</time></trkpt><trkpt lat="45.46577431510655" lon="8.649948801409163"><ele>151.0</ele><time>2026-04-11T17:29:27.998Z</time></trkpt><trkpt lat="45.46577185608514" lon="8.650157477118526"><ele>151.0</ele><time>2026-04-11T17:29:28.998Z</time></trkpt><trkpt lat="45.46576922466738" lon="8.650365839753382"><ele>151.0</ele><time>2026-04-11T17:29:29.998Z</time></trkpt><trkpt lat="45.465766899124304" lon="8.650574821479879"><ele>151.0</ele><time>2026-04-11T17:29:30.998Z</time></trkpt><trkpt lat="45.46576333302252" lon="8.650784082600357"><ele>150.75</ele><time>2026-04-11T17:29:31.998Z</time></trkpt><trkpt lat="45.46576030543286" lon="8.650992714516384"><ele>150.5</ele><time>2026-04-11T17:29:32.998Z</time></trkpt><trkpt lat="45.46575874240459" lon="8.651199672492938"><ele>150.25</ele><time>2026-04-11T17:29:33.998Z</time></trkpt><trkpt lat="45.46575789373509" lon="8.651404837087956"><ele>150.0</ele><time>2026-04-11T17:29:34.998Z</time></trkpt><trkpt lat="45.46575780352029" lon="8.651609572261485"><ele>149.75</ele><time>2026-04-11T17:29:35.998Z</time></trkpt><trkpt lat="45.465758371152326" lon="8.651813079630154"><ele>149.5</ele><time>2026-04-11T17:29:36.998Z</time></trkpt><trkpt lat="45.465758599182585" lon="8.65201695585418"><ele>149.25</ele><time>2026-04-11T17:29:37.998Z</time></trkpt><trkpt lat="45.4657581358215" lon="8.652220357504678"><ele>149.0</ele><time>2026-04-11T17:29:38.998Z</time></trkpt><trkpt lat="45.46575779261544" lon="8.65242484007612"><ele>149.0</ele><time>2026-04-11T17:29:39.998Z</time></trkpt><trkpt lat="45.465758195679086" lon="8.652628743440928"><ele>149.0</ele><time>2026-04-11T17:29:40.998Z</time></trkpt><trkpt lat="45.46576016600029" lon="8.652831745767315"><ele>149.0</ele><time>2026-04-11T17:29:41.998Z</time></trkpt><trkpt lat="45.46576149895022" lon="8.65303547246864"><ele>149.0</ele><time>2026-04-11T17:29:42.998Z</time></trkpt><trkpt lat="45.46576282809596" lon="8.653238048261837"><ele>149.0</ele><time>2026-04-11T17:29:43.998Z</time></trkpt><trkpt lat="45.46576423862542" lon="8.653441567413383"><ele>149.0</ele><time>2026-04-11T17:29:44.998Z</time></trkpt><trkpt lat="45.46576376427888" lon="8.65364170726152"><ele>149.0</ele><time>2026-04-11T17:29:45.998Z</time></trkpt><trkpt lat="45.465763407940145" lon="8.653838468437295"><ele>149.0</ele><time>2026-04-11T17:29:46.998Z</time></trkpt><trkpt lat="45.465762137757665" lon="8.65402993680716"><ele>148.75</ele><time>2026-04-11T17:29:47.998Z</time></trkpt><trkpt lat="45.46575865188615" lon="8.65421600417119"><ele>148.5</ele><time>2026-04-11T17:29:48.998Z</time></trkpt><trkpt lat="45.465752719073805" lon="8.654398364980851"><ele>148.25</ele><time>2026-04-11T17:29:49.998Z</time></trkpt><trkpt lat="45.46574179245736" lon="8.654576945547754"><ele>148.0</ele><time>2026-04-11T17:29:50.998Z</time></trkpt><trkpt lat="45.46572610366899" lon="8.65474930983493"><ele>148.75</ele><time>2026-04-11T17:29:51.998Z</time></trkpt><trkpt lat="45.46570033565935" lon="8.654916223630371"><ele>149.5</ele><time>2026-04-11T17:29:52.998Z</time></trkpt><trkpt lat="45.46566191181201" lon="8.655073769940206"><ele>150.25</ele><time>2026-04-11T17:29:53.998Z</time></trkpt><trkpt lat="45.46560796951136" lon="8.655220395574105"><ele>151.0</ele><time>2026-04-11T17:29:54.998Z</time></trkpt><trkpt lat="45.465538328547254" lon="8.655357633542204"><ele>151.5</ele><time>2026-04-11T17:29:55.998Z</time></trkpt><trkpt lat="45.465457751232826" lon="8.655484650851236"><ele>152.0</ele><time>2026-04-11T17:29:56.998Z</time></trkpt><trkpt lat="45.46537116069463" lon="8.655608890823157"><ele>152.5</ele><time>2026-04-11T17:29:57.998Z</time></trkpt><trkpt lat="45.46528737587109" lon="8.655740911712208"><ele>153.0</ele><time>2026-04-11T17:29:58.998Z</time></trkpt><trkpt lat="45.46521899463361" lon="8.655893135195141"><ele>153.0</ele><time>2026-04-11T17:30:00Z</time></trkpt><trkpt lat="45.46517100803824" lon="8.656060998556995"><ele>153.0</ele><time>2026-04-11T17:30:01Z</time></trkpt><trkpt lat="45.46514493931832" lon="8.656231942116527"><ele>153.0</ele><time>2026-04-11T17:30:02Z</time></trkpt><trkpt lat="45.46515865253981" lon="8.656397515667704"><ele>153.0</ele><time>2026-04-11T17:30:03Z</time></trkpt><trkpt lat="45.465195935579686" lon="8.65654741787438"><ele>153.6</ele><time>2026-04-11T17:30:04Z</time></trkpt><trkpt lat="45.46526271281359" lon="8.656675036558415"><ele>154.20000000000002</ele><time>2026-04-11T17:30:05Z</time></trkpt><trkpt lat="45.46534625216738" lon="8.65677911939511"><ele>154.8</ele><time>2026-04-11T17:30:06Z</time></trkpt><trkpt lat="45.46543787014493" lon="8.656876254815158"><ele>155.4</ele><time>2026-04-11T17:30:07Z</time></trkpt><trkpt lat="45.46552940619225" lon="8.656958843342363"><ele>156.0</ele><time>2026-04-11T17:30:08Z</time></trkpt><trkpt lat="45.46560724148225" lon="8.657071816604278"><ele>154.5</ele><time>2026-04-11T17:30:09Z</time></trkpt><trkpt lat="45.46566653766257" lon="8.657211094087396"><ele>153.0</ele><time>2026-04-11T17:30:10Z</time></trkpt><trkpt lat="45.465714455901505" lon="8.657363206290393"><ele>151.5</ele><time>2026-04-11T17:30:11Z</time></trkpt><trkpt lat="45.46574046213296" lon="8.65753186819413"><ele>150.0</ele><time>2026-04-11T17:30:12Z</time></trkpt><trkpt lat="45.465751170215" lon="8.65771320032028"><ele>149.75</ele><time>2026-04-11T17:30:13Z</time></trkpt><trkpt lat="45.46575908667675" lon="8.657901590722"><ele>149.5</ele><time>2026-04-11T17:30:14Z</time></trkpt><trkpt lat="45.465765729584575" lon="8.65809416526636"><ele>149.25</ele><time>2026-04-11T17:30:15Z</time></trkpt><trkpt lat="45.465778394629226" lon="8.658285840358433"><ele>149.0</ele><time>2026-04-11T17:30:16Z</time></trkpt><trkpt lat="45.465799232168294" lon="8.658480920332611"><ele>149.0</ele><time>2026-04-11T17:30:17Z</time></trkpt><trkpt lat="45.46582424304131" lon="8.658677064217832"><ele>149.0</ele><time>2026-04-11T17:30:18Z</time></trkpt><trkpt lat="45.465854968389934" lon="8.658873901110468"><ele>149.0</ele><time>2026-04-11T17:30:19Z</time></trkpt><trkpt lat="45.465885681888516" lon="8.65907047265888"><ele>149.0</ele><time>2026-04-11T17:30:20Z</time></trkpt><trkpt lat="45.46591617280996" lon="8.659268130182921"><ele>148.5</ele><time>2026-04-11T17:30:21Z</time></trkpt><trkpt lat="45.465946868488295" lon="8.659463146136131"><ele>148.0</ele><time>2026-04-11T17:30:22Z</time></trkpt><trkpt lat="45.46597579748456" lon="8.659659526448996"><ele>147.5</ele><time>2026-04-11T17:30:23Z</time></trkpt><trkpt lat="45.466004696022196" lon="8.659854198145144"><ele>147.0</ele><time>2026-04-11T17:30:24Z</time></trkpt><trkpt lat="45.4660332076613" lon="8.660049915269932"><ele>147.0</ele><time>2026-04-11T17:30:25Z</time></trkpt><trkpt lat="45.466062986378034" lon="8.660242955054038"><ele>147.0</ele><time>2026-04-11T17:30:26Z</time></trkpt><trkpt lat="45.46609247123812" lon="8.660437652283871"><ele>147.0</ele><time>2026-04-11T17:30:26.999Z</time></trkpt><trkpt lat="45.46612171069563" lon="8.66063489393484"><ele>147.0</ele><time>2026-04-11T17:30:27.999Z</time></trkpt><trkpt lat="45.466152731180586" lon="8.660831143329508"><ele>147.0</ele><time>2026-04-11T17:30:28.999Z</time></trkpt><trkpt lat="45.46618384489563" lon="8.661027870287308"><ele>147.0</ele><time>2026-04-11T17:30:29.999Z</time></trkpt><trkpt lat="45.466214690999415" lon="8.661225443480127"><ele>147.0</ele><time>2026-04-11T17:30:30.999Z</time></trkpt><trkpt lat="45.46624503346446" lon="8.661422581412909"><ele>147.0</ele><time>2026-04-11T17:30:31.999Z</time></trkpt><trkpt lat="45.46627552229421" lon="8.661620549459675"><ele>147.25</ele><time>2026-04-11T17:30:32.999Z</time></trkpt><trkpt lat="45.466306024185705" lon="8.661819088986375"><ele>147.5</ele><time>2026-04-11T17:30:33.999Z</time></trkpt><trkpt lat="45.466335822788686" lon="8.662016951187507"><ele>147.75</ele><time>2026-04-11T17:30:34.999Z</time></trkpt><trkpt lat="45.46636462380104" lon="8.662213640852656"><ele>148.0</ele><time>2026-04-11T17:30:35.999Z</time></trkpt><trkpt lat="45.4663897780905" lon="8.662411065446577"><ele>148.0</ele><time>2026-04-11T17:30:36.999Z</time></trkpt><trkpt lat="45.46641332162135" lon="8.662610079402587"><ele>148.0</ele><time>2026-04-11T17:30:37.999Z</time></trkpt><trkpt lat="45.46643661996476" lon="8.662809598501587"><ele>148.0</ele><time>2026-04-11T17:30:38.999Z</time></trkpt><trkpt lat="45.46646145172018" lon="8.663008429761314"><ele>148.0</ele><time>2026-04-11T17:30:39.999Z</time></trkpt><trkpt lat="45.466488633824966" lon="8.66320668662986"><ele>148.0</ele><time>2026-04-11T17:30:40.999Z</time></trkpt><trkpt lat="45.466516149362974" lon="8.663404629526754"><ele>148.0</ele><time>2026-04-11T17:30:41.999Z</time></trkpt><trkpt lat="45.466541656085965" lon="8.66360247357677"><ele>148.0</ele><time>2026-04-11T17:30:42.999Z</time></trkpt><trkpt lat="45.46658515447373" lon="8.663793961086144"><ele>148.0</ele><time>2026-04-11T17:30:43.999Z</time></trkpt><trkpt lat="45.46657099813574" lon="8.663999413827312"><ele>147.75</ele><time>2026-04-11T17:30:44.999Z</time></trkpt><trkpt lat="45.46657446265656" lon="8.664198655380511"><ele>147.5</ele><time>2026-04-11T17:30:45.999Z</time></trkpt><trkpt lat="45.46657188504105" lon="8.664396216931172"><ele>147.25</ele><time>2026-04-11T17:30:46.999Z</time></trkpt><trkpt lat="45.46656460463444" lon="8.66459229580538"><ele>147.0</ele><time>2026-04-11T17:30:47.999Z</time></trkpt><trkpt lat="45.46656723495929" lon="8.664788618534763"><ele>147.75</ele><time>2026-04-11T17:30:48.999Z</time></trkpt><trkpt lat="45.4665421622066" lon="8.66497906089736"><ele>148.5</ele><time>2026-04-11T17:30:49.999Z</time></trkpt><trkpt lat="45.466509903406774" lon="8.665165934218798"><ele>149.25</ele><time>2026-04-11T17:30:50.999Z</time></trkpt><trkpt lat="45.466473204355374" lon="8.66534907041911"><ele>150.0</ele><time>2026-04-11T17:30:51.999Z</time></trkpt><trkpt lat="45.46642916050806" lon="8.665529384705529"><ele>150.5</ele><time>2026-04-11T17:30:52.999Z</time></trkpt><trkpt lat="45.466380511389964" lon="8.665706427554184"><ele>151.0</ele><time>2026-04-11T17:30:53.999Z</time></trkpt><trkpt lat="45.46632295871964" lon="8.665880324691146"><ele>151.5</ele><time>2026-04-11T17:30:54.999Z</time></trkpt><trkpt lat="45.466245663271536" lon="8.666035214764689"><ele>152.0</ele><time>2026-04-11T17:30:55.999Z</time></trkpt><trkpt lat="45.46619391073233" lon="8.6662092758062"><ele>150.75</ele><time>2026-04-11T17:30:56.999Z</time></trkpt><trkpt lat="45.466122419627006" lon="8.666367543604965"><ele>149.5</ele><time>2026-04-11T17:30:57.999Z</time></trkpt><trkpt lat="45.46602827377655" lon="8.666502637186655"><ele>148.25</ele><time>2026-04-11T17:30:58.999Z</time></trkpt><trkpt lat="45.465946267156895" lon="8.666654007418456"><ele>147.0</ele><time>2026-04-11T17:30:59.999Z</time></trkpt><trkpt lat="45.46585916887822" lon="8.666803590582324"><ele>146.75</ele><time>2026-04-11T17:31:00.999Z</time></trkpt><trkpt lat="45.46577163042037" lon="8.666957359528338"><ele>146.5</ele><time>2026-04-11T17:31:01.999Z</time></trkpt><trkpt lat="45.46568200047588" lon="8.667114796178902"><ele>146.25</ele><time>2026-04-11T17:31:02.999Z</time></trkpt><trkpt lat="45.465591354816716" lon="8.66727605554978"><ele>146.0</ele><time>2026-04-11T17:31:03.999Z</time></trkpt><trkpt lat="45.46550161655127" lon="8.667439561309388"><ele>146.0</ele><time>2026-04-11T17:31:04.999Z</time></trkpt><trkpt lat="45.46546407666479" lon="8.66763158896573"><ele>146.0</ele><time>2026-04-11T17:31:05.999Z</time></trkpt><trkpt lat="45.465329659908996" lon="8.667779573849163"><ele>146.0</ele><time>2026-04-11T17:31:06.999Z</time></trkpt><trkpt lat="45.46525133980131" lon="8.66796036466631"><ele>146.0</ele><time>2026-04-11T17:31:07.999Z</time></trkpt><trkpt lat="45.46517889979397" lon="8.668144476423151"><ele>146.0</ele><time>2026-04-11T17:31:08.999Z</time></trkpt><trkpt lat="45.46511455785999" lon="8.668335512386216"><ele>146.0</ele><time>2026-04-11T17:31:09.999Z</time></trkpt><trkpt lat="45.4650584267425" lon="8.668530555596488"><ele>146.0</ele><time>2026-04-11T17:31:10.999Z</time></trkpt><trkpt lat="45.465008509066486" lon="8.668729100415767"><ele>146.0</ele><time>2026-04-11T17:31:11.999Z</time></trkpt><trkpt lat="45.4649654628571" lon="8.668927717460427"><ele>146.0</ele><time>2026-04-11T17:31:12.999Z</time></trkpt><trkpt lat="45.464928343744" lon="8.669126520107229"><ele>146.0</ele><time>2026-04-11T17:31:13.999Z</time></trkpt><trkpt lat="45.46490028998039" lon="8.669327343605605"><ele>146.0</ele><time>2026-04-11T17:31:14.999Z</time></trkpt><trkpt lat="45.464879889629756" lon="8.669528687812223"><ele>146.0</ele><time>2026-04-11T17:31:15.999Z</time></trkpt><trkpt lat="45.46486584853271" lon="8.669730816611768"><ele>146.0</ele><time>2026-04-11T17:31:16.999Z</time></trkpt><trkpt lat="45.464858327287644" lon="8.669933297423338"><ele>146.0</ele><time>2026-04-11T17:31:17.999Z</time></trkpt><trkpt lat="45.4648590781522" lon="8.670134082025509"><ele>146.0</ele><time>2026-04-11T17:31:18.999Z</time></trkpt><trkpt lat="45.46486616293521" lon="8.6703339702028"><ele>145.75</ele><time>2026-04-11T17:31:19.999Z</time></trkpt><trkpt lat="45.464879301401446" lon="8.670531422520416"><ele>145.5</ele><time>2026-04-11T17:31:20.999Z</time></trkpt><trkpt lat="45.46490091399054" lon="8.670726220741892"><ele>145.25</ele><time>2026-04-11T17:31:21.999Z</time></trkpt><trkpt lat="45.46493271224617" lon="8.670917966752636"><ele>145.0</ele><time>2026-04-11T17:31:22.999Z</time></trkpt><trkpt lat="45.46497202362786" lon="8.671107329661984"><ele>145.75</ele><time>2026-04-11T17:31:23.999Z</time></trkpt><trkpt lat="45.46501464809518" lon="8.671295494595858"><ele>146.5</ele><time>2026-04-11T17:31:24.999Z</time></trkpt><trkpt lat="45.465058221970935" lon="8.67148344263002"><ele>147.25</ele><time>2026-04-11T17:31:25.999Z</time></trkpt><trkpt lat="45.46510251914464" lon="8.671672586176115"><ele>148.0</ele><time>2026-04-11T17:31:26.999Z</time></trkpt><trkpt lat="45.46514608928569" lon="8.671862618209731"><ele>147.75</ele><time>2026-04-11T17:31:27.999Z</time></trkpt><trkpt lat="45.46519000511261" lon="8.672052412193956"><ele>147.5</ele><time>2026-04-11T17:31:28.999Z</time></trkpt><trkpt lat="45.46523310522156" lon="8.67224174751146"><ele>147.25</ele><time>2026-04-11T17:31:29.999Z</time></trkpt><trkpt lat="45.46527487531759" lon="8.672429382515407"><ele>147.0</ele><time>2026-04-11T17:31:30.999Z</time></trkpt><trkpt lat="45.465314737247446" lon="8.672611009409083"><ele>147.0</ele><time>2026-04-11T17:31:31.998Z</time></trkpt><trkpt lat="45.46535314736972" lon="8.672786085638235"><ele>147.0</ele><time>2026-04-11T17:31:32.998Z</time></trkpt><trkpt lat="45.46538980900538" lon="8.672953384140147"><ele>147.0</ele><time>2026-04-11T17:31:33.998Z</time></trkpt><trkpt lat="45.46542417760097" lon="8.673116264744873"><ele>147.0</ele><time>2026-04-11T17:31:34.998Z</time></trkpt><trkpt lat="45.46545677123054" lon="8.673272477603579"><ele>147.0</ele><time>2026-04-11T17:31:35.998Z</time></trkpt><trkpt lat="45.465487147493576" lon="8.67342953839108"><ele>147.0</ele><time>2026-04-11T17:31:36.998Z</time></trkpt><trkpt lat="45.4655350264227" lon="8.673579765389592"><ele>147.0</ele><time>2026-04-11T17:31:37.998Z</time></trkpt><trkpt lat="45.46554953130587" lon="8.67375899183769"><ele>147.0</ele><time>2026-04-11T17:31:38.998Z</time></trkpt><trkpt lat="45.465609623428364" lon="8.673922827985052"><ele>147.25</ele><time>2026-04-11T17:31:39.998Z</time></trkpt><trkpt lat="45.46564245180888" lon="8.674101499086737"><ele>147.5</ele><time>2026-04-11T17:31:40.998Z</time></trkpt><trkpt lat="45.46562358371659" lon="8.674299152350345"><ele>147.75</ele><time>2026-04-11T17:31:41.998Z</time></trkpt><trkpt lat="45.4656456473677" lon="8.674483850566256"><ele>148.0</ele><time>2026-04-11T17:31:42.998Z</time></trkpt><trkpt lat="45.46566729243132" lon="8.674671664187716"><ele>148.0</ele><time>2026-04-11T17:31:43.998Z</time></trkpt><trkpt lat="45.465688031568966" lon="8.674860569841302"><ele>148.0</ele><time>2026-04-11T17:31:44.998Z</time></trkpt><trkpt lat="45.465707438383916" lon="8.675050645730696"><ele>148.0</ele><time>2026-04-11T17:31:45.998Z</time></trkpt><trkpt lat="45.46572438655003" lon="8.675241664175807"><ele>148.0</ele><time>2026-04-11T17:31:46.998Z</time></trkpt><trkpt lat="45.465738280281755" lon="8.675433046249365"><ele>147.75</ele><time>2026-04-11T17:31:47.998Z</time></trkpt><trkpt lat="45.46574951113567" lon="8.675625222762196"><ele>147.5</ele><time>2026-04-11T17:31:48.998Z</time></trkpt><trkpt lat="45.4657584463677" lon="8.675818533471219"><ele>147.25</ele><time>2026-04-11T17:31:49.998Z</time></trkpt><trkpt lat="45.465765933783295" lon="8.676012017642915"><ele>147.0</ele><time>2026-04-11T17:31:50.998Z</time></trkpt><trkpt lat="45.46577291547711" lon="8.676206058280584"><ele>147.0</ele><time>2026-04-11T17:31:51.998Z</time></trkpt><trkpt lat="45.465781425900545" lon="8.676401534913396"><ele>147.0</ele><time>2026-04-11T17:31:52.998Z</time></trkpt><trkpt lat="45.46578790580629" lon="8.676598882387028"><ele>147.0</ele><time>2026-04-11T17:31:53.998Z</time></trkpt><trkpt lat="45.46579432258314" lon="8.676795914651251"><ele>147.0</ele><time>2026-04-11T17:31:54.998Z</time></trkpt><trkpt lat="45.46580082768767" lon="8.676992400468814"><ele>147.0</ele><time>2026-04-11T17:31:55.998Z</time></trkpt><trkpt lat="45.465807391751575" lon="8.677187252168823"><ele>147.0</ele><time>2026-04-11T17:31:56.998Z</time></trkpt><trkpt lat="45.465813908102184" lon="8.677381214859"><ele>147.0</ele><time>2026-04-11T17:31:57.998Z</time></trkpt><trkpt lat="45.46581943231867" lon="8.677577123358944"><ele>147.0</ele><time>2026-04-11T17:31:58.998Z</time></trkpt><trkpt lat="45.465824996731456" lon="8.677770375441588"><ele>147.0</ele><time>2026-04-11T17:31:59.998Z</time></trkpt><trkpt lat="45.46582973474199" lon="8.67796350216627"><ele>147.0</ele><time>2026-04-11T17:32:00.998Z</time></trkpt><trkpt lat="45.465835645753195" lon="8.678154781828042"><ele>147.0</ele><time>2026-04-11T17:32:01.998Z</time></trkpt><trkpt lat="45.465841701249964" lon="8.678349601422068"><ele>147.0</ele><time>2026-04-11T17:32:02.998Z</time></trkpt><trkpt lat="45.46584848786755" lon="8.67854317857639"><ele>146.75</ele><time>2026-04-11T17:32:03.998Z</time></trkpt><trkpt lat="45.46585494907772" lon="8.678738050845507"><ele>146.5</ele><time>2026-04-11T17:32:04.998Z</time></trkpt><trkpt lat="45.46586157735181" lon="8.67893385658634"><ele>146.25</ele><time>2026-04-11T17:32:06Z</time></trkpt><trkpt lat="45.465867610603304" lon="8.679131497710712"><ele>146.0</ele><time>2026-04-11T17:32:07Z</time></trkpt><trkpt lat="45.46587332658814" lon="8.679328325972032"><ele>146.0</ele><time>2026-04-11T17:32:08Z</time></trkpt><trkpt lat="45.46587934929506" lon="8.679526046412523"><ele>146.0</ele><time>2026-04-11T17:32:09Z</time></trkpt><trkpt lat="45.46588623219927" lon="8.679722340992257"><ele>146.0</ele><time>2026-04-11T17:32:10Z</time></trkpt><trkpt lat="45.46589298351105" lon="8.679915655678212"><ele>146.0</ele><time>2026-04-11T17:32:11Z</time></trkpt><trkpt lat="45.46589976994803" lon="8.680108089916594"><ele>146.25</ele><time>2026-04-11T17:32:12Z</time></trkpt><trkpt lat="45.46590568570667" lon="8.680286136983916"><ele>146.5</ele><time>2026-04-11T17:32:13Z</time></trkpt><trkpt lat="45.46591101617607" lon="8.680457277384798"><ele>146.75</ele><time>2026-04-11T17:32:14Z</time></trkpt><trkpt lat="45.465917090817335" lon="8.680619428597106"><ele>147.0</ele><time>2026-04-11T17:32:15Z</time></trkpt><trkpt lat="45.465924233767026" lon="8.68077440904808"><ele>147.0</ele><time>2026-04-11T17:32:16Z</time></trkpt><trkpt lat="45.465931959900075" lon="8.680921452806565"><ele>147.0</ele><time>2026-04-11T17:32:17Z</time></trkpt><trkpt lat="45.46594123552842" lon="8.681062454352903"><ele>147.0</ele><time>2026-04-11T17:32:18Z</time></trkpt><trkpt lat="45.46595014902364" lon="8.681197914628356"><ele>147.0</ele><time>2026-04-11T17:32:19Z</time></trkpt><trkpt lat="45.46598441070057" lon="8.681334232816964"><ele>147.0</ele><time>2026-04-11T17:32:20Z</time></trkpt><trkpt lat="45.465970519944996" lon="8.681457577399739"><ele>147.0</ele><time>2026-04-11T17:32:21Z</time></trkpt><trkpt lat="45.46593877077751" lon="8.681572503696179"><ele>147.0</ele><time>2026-04-11T17:32:22Z</time></trkpt><trkpt lat="45.46591814184273" lon="8.681693375091344"><ele>147.0</ele><time>2026-04-11T17:32:23Z</time></trkpt><trkpt lat="45.46587433386625" lon="8.681796664732389"><ele>147.0</ele><time>2026-04-11T17:32:24Z</time></trkpt><trkpt lat="45.4657889744514" lon="8.681857850026864"><ele>147.0</ele><time>2026-04-11T17:32:25Z</time></trkpt><trkpt lat="45.46573433885026" lon="8.681935586149736"><ele>147.0</ele><time>2026-04-11T17:32:26Z</time></trkpt><trkpt lat="45.46568640690842" lon="8.682028812120741"><ele>147.0</ele><time>2026-04-11T17:32:27Z</time></trkpt><trkpt lat="45.46564499716549" lon="8.682129935500297"><ele>147.0</ele><time>2026-04-11T17:32:28Z</time></trkpt><trkpt lat="45.46561701048864" lon="8.682236457961233"><ele>147.0</ele><time>2026-04-11T17:32:29Z</time></trkpt><trkpt lat="45.46561607498335" lon="8.682348148391538"><ele>147.0</ele><time>2026-04-11T17:32:29.999Z</time></trkpt><trkpt lat="45.46559311505354" lon="8.682463312952125"><ele>147.0</ele><time>2026-04-11T17:32:30.999Z</time></trkpt><trkpt lat="45.46560130871392" lon="8.682581721563828"><ele>147.0</ele><time>2026-04-11T17:32:31.999Z</time></trkpt><trkpt lat="45.46562078216331" lon="8.682712484403611"><ele>147.0</ele><time>2026-04-11T17:32:32.999Z</time></trkpt><trkpt lat="45.465647157254985" lon="8.682852269661433"><ele>147.0</ele><time>2026-04-11T17:32:33.999Z</time></trkpt><trkpt lat="45.465681836943425" lon="8.682992823233654"><ele>147.0</ele><time>2026-04-11T17:32:34.999Z</time></trkpt><trkpt lat="45.465724200462354" lon="8.683128846428588"><ele>147.0</ele><time>2026-04-11T17:32:35.999Z</time></trkpt><trkpt lat="45.46577860521169" lon="8.683265040303187"><ele>147.0</ele><time>2026-04-11T17:32:36.999Z</time></trkpt><trkpt lat="45.46584518083975" lon="8.683387236511946"><ele>147.0</ele><time>2026-04-11T17:32:37.999Z</time></trkpt><trkpt lat="45.46592414492457" lon="8.68349023141938"><ele>147.0</ele><time>2026-04-11T17:32:38.999Z</time></trkpt><trkpt lat="45.466014838565606" lon="8.683570972181476"><ele>147.0</ele><time>2026-04-11T17:32:39.999Z</time></trkpt><trkpt lat="45.466107860714196" lon="8.683615332847639"><ele>147.0</ele><time>2026-04-11T17:32:40.999Z</time></trkpt><trkpt lat="45.46620533956111" lon="8.683639544780872"><ele>147.0</ele><time>2026-04-11T17:32:41.999Z</time></trkpt><trkpt lat="45.466306723996354" lon="8.683608920881573"><ele>147.2</ele><time>2026-04-11T17:32:42.999Z</time></trkpt><trkpt lat="45.46640402376429" lon="8.68355618464711"><ele>147.39999999999998</ele><time>2026-04-11T17:32:43.999Z</time></trkpt><trkpt lat="45.46650337964245" lon="8.683497621703678"><ele>147.60000000000002</ele><time>2026-04-11T17:32:44.999Z</time></trkpt><trkpt lat="45.4666049636733" lon="8.6834490688306"><ele>147.8</ele><time>2026-04-11T17:32:45.999Z</time></trkpt><trkpt lat="45.46670785332145" lon="8.683427268566556"><ele>148.0</ele><time>2026-04-11T17:32:46.999Z</time></trkpt><trkpt lat="45.466807980992726" lon="8.683437108112074"><ele>148.0</ele><time>2026-04-11T17:32:47.999Z</time></trkpt><trkpt lat="45.46690298485293" lon="8.683423175670377"><ele>148.0</ele><time>2026-04-11T17:32:48.999Z</time></trkpt><trkpt lat="45.46698738166943" lon="8.683537422304147"><ele>148.0</ele><time>2026-04-11T17:32:49.999Z</time></trkpt><trkpt lat="45.467067410056316" lon="8.683633446607729"><ele>148.0</ele><time>2026-04-11T17:32:50.999Z</time></trkpt><trkpt lat="45.46715207490933" lon="8.683730953272912"><ele>148.0</ele><time>2026-04-11T17:32:51.999Z</time></trkpt><trkpt lat="45.46724517869178" lon="8.683828846844321"><ele>148.25</ele><time>2026-04-11T17:32:52.999Z</time></trkpt><trkpt lat="45.46734728218904" lon="8.6839278539057"><ele>148.5</ele><time>2026-04-11T17:32:53.999Z</time></trkpt><trkpt lat="45.46745480066041" lon="8.684027483993658"><ele>148.75</ele><time>2026-04-11T17:32:54.999Z</time></trkpt><trkpt lat="45.467564358730904" lon="8.684134460240637"><ele>149.0</ele><time>2026-04-11T17:32:55.999Z</time></trkpt><trkpt lat="45.4676758262215" lon="8.684242710843376"><ele>149.0</ele><time>2026-04-11T17:32:56.999Z</time></trkpt><trkpt lat="45.4677879275916" lon="8.684354805101682"><ele>149.0</ele><time>2026-04-11T17:32:57.999Z</time></trkpt><trkpt lat="45.46790042868969" lon="8.684467447722152"><ele>149.0</ele><time>2026-04-11T17:32:58.999Z</time></trkpt><trkpt lat="45.468010988104005" lon="8.684577691703863"><ele>149.0</ele><time>2026-04-11T17:32:59.999Z</time></trkpt><trkpt lat="45.46812002963429" lon="8.684683155072648"><ele>149.25</ele><time>2026-04-11T17:33:00.999Z</time></trkpt><trkpt lat="45.46823433012394" lon="8.68478889534823"><ele>149.5</ele><time>2026-04-11T17:33:01.999Z</time></trkpt><trkpt lat="45.46834375440544" lon="8.684891847439491"><ele>149.75</ele><time>2026-04-11T17:33:02.999Z</time></trkpt><trkpt lat="45.468453738699296" lon="8.684990878432103"><ele>150.0</ele><time>2026-04-11T17:33:03.999Z</time></trkpt><trkpt lat="45.4685635037292" lon="8.68509986318899"><ele>150.0</ele><time>2026-04-11T17:33:04.999Z</time></trkpt><trkpt lat="45.46866153470145" lon="8.685196285077764"><ele>150.0</ele><time>2026-04-11T17:33:05.999Z</time></trkpt><trkpt lat="45.46875756259228" lon="8.685301891231058"><ele>150.0</ele><time>2026-04-11T17:33:06.999Z</time></trkpt><trkpt lat="45.46885213686772" lon="8.685398751764952"><ele>150.0</ele><time>2026-04-11T17:33:07.999Z</time></trkpt><trkpt lat="45.46894073433006" lon="8.685489381603865"><ele>149.5</ele><time>2026-04-11T17:33:08.999Z</time></trkpt><trkpt lat="45.469019189726374" lon="8.685571899686618"><ele>149.0</ele><time>2026-04-11T17:33:09.999Z</time></trkpt><trkpt lat="45.46908356434537" lon="8.685651185019104"><ele>148.5</ele><time>2026-04-11T17:33:10.999Z</time></trkpt><trkpt lat="45.4691295462694" lon="8.68574685031621"><ele>148.0</ele><time>2026-04-11T17:33:11.999Z</time></trkpt><trkpt lat="45.46916265449602" lon="8.685849307921897"><ele>147.5</ele><time>2026-04-11T17:33:12.999Z</time></trkpt><trkpt lat="45.46918242069407" lon="8.68595539289688"><ele>147.0</ele><time>2026-04-11T17:33:13.999Z</time></trkpt><trkpt lat="45.46925312305006" lon="8.686034926569286"><ele>147.0</ele><time>2026-04-11T17:33:14.999Z</time></trkpt><trkpt lat="45.469341900756596" lon="8.686045243230858"><ele>147.0</ele><time>2026-04-11T17:33:15.999Z</time></trkpt><trkpt lat="45.46943462946955" lon="8.686078136974526"><ele>147.0</ele><time>2026-04-11T17:33:16.999Z</time></trkpt><trkpt lat="45.469532544745014" lon="8.686113581957217"><ele>147.0</ele><time>2026-04-11T17:33:17.999Z</time></trkpt><trkpt lat="45.469627041320535" lon="8.68617277619794"><ele>147.0</ele><time>2026-04-11T17:33:18.999Z</time></trkpt><trkpt lat="45.46971749175051" lon="8.686248514118974"><ele>147.79999999999998</ele><time>2026-04-11T17:33:19.999Z</time></trkpt><trkpt lat="45.46981583345382" lon="8.68630362860319"><ele>148.6</ele><time>2026-04-11T17:33:20.999Z</time></trkpt><trkpt lat="45.469897252813276" lon="8.686414425319112"><ele>149.39999999999998</ele><time>2026-04-11T17:33:21.999Z</time></trkpt><trkpt lat="45.469989570462246" lon="8.686492677782905"><ele>150.2</ele><time>2026-04-11T17:33:22.999Z</time></trkpt><trkpt lat="45.47007765318328" lon="8.686580771377455"><ele>151.0</ele><time>2026-04-11T17:33:23.999Z</time></trkpt><trkpt lat="45.470163818510635" lon="8.686669535454508"><ele>151.0</ele><time>2026-04-11T17:33:24.999Z</time></trkpt><trkpt lat="45.470251094246706" lon="8.686759358413802"><ele>151.0</ele><time>2026-04-11T17:33:25.999Z</time></trkpt><trkpt lat="45.4703402172958" lon="8.68684844700778"><ele>151.0</ele><time>2026-04-11T17:33:26.999Z</time></trkpt><trkpt lat="45.47042960766783" lon="8.686936592529502"><ele>151.0</ele><time>2026-04-11T17:33:27.999Z</time></trkpt><trkpt lat="45.4705213721695" lon="8.687026410480431"><ele>151.0</ele><time>2026-04-11T17:33:28.999Z</time></trkpt><trkpt lat="45.47061288014427" lon="8.687118701476376"><ele>151.25</ele><time>2026-04-11T17:33:29.999Z</time></trkpt><trkpt lat="45.47070648502493" lon="8.687209361742024"><ele>151.5</ele><time>2026-04-11T17:33:30.999Z</time></trkpt><trkpt lat="45.47079849683721" lon="8.687301840031711"><ele>151.75</ele><time>2026-04-11T17:33:31.999Z</time></trkpt><trkpt lat="45.47089341364212" lon="8.687391761645994"><ele>152.0</ele><time>2026-04-11T17:33:32.999Z</time></trkpt><trkpt lat="45.47098772159177" lon="8.687483424968947"><ele>152.0</ele><time>2026-04-11T17:33:33.998Z</time></trkpt><trkpt lat="45.47108169358058" lon="8.687576082154283"><ele>152.0</ele><time>2026-04-11T17:33:34.998Z</time></trkpt><trkpt lat="45.47117548446612" lon="8.687669278797916"><ele>152.0</ele><time>2026-04-11T17:33:35.998Z</time></trkpt><trkpt lat="45.47126991567401" lon="8.687763045506129"><ele>152.0</ele><time>2026-04-11T17:33:36.998Z</time></trkpt><trkpt lat="45.47136538068979" lon="8.687856866774757"><ele>151.75</ele><time>2026-04-11T17:33:37.998Z</time></trkpt><trkpt lat="45.47146200773409" lon="8.687948676174805"><ele>151.5</ele><time>2026-04-11T17:33:38.998Z</time></trkpt><trkpt lat="45.47155776776032" lon="8.688045794815203"><ele>151.25</ele><time>2026-04-11T17:33:39.998Z</time></trkpt><trkpt lat="45.47165245699981" lon="8.688143398941518"><ele>151.0</ele><time>2026-04-11T17:33:40.998Z</time></trkpt><trkpt lat="45.47174710608826" lon="8.68823947685428"><ele>151.0</ele><time>2026-04-11T17:33:41.998Z</time></trkpt><trkpt lat="45.47184217243982" lon="8.688335171996426"><ele>151.0</ele><time>2026-04-11T17:33:42.998Z</time></trkpt><trkpt lat="45.471939336292394" lon="8.688425966582546"><ele>151.0</ele><time>2026-04-11T17:33:43.998Z</time></trkpt><trkpt lat="45.47203634987181" lon="8.688515472252027"><ele>151.0</ele><time>2026-04-11T17:33:44.998Z</time></trkpt><trkpt lat="45.47213184831957" lon="8.688607615981192"><ele>151.25</ele><time>2026-04-11T17:33:45.998Z</time></trkpt><trkpt lat="45.47222613949995" lon="8.68870377140464"><ele>151.5</ele><time>2026-04-11T17:33:46.998Z</time></trkpt><trkpt lat="45.472320500019315" lon="8.688800353795223"><ele>151.75</ele><time>2026-04-11T17:33:47.998Z</time></trkpt><trkpt lat="45.4724156046316" lon="8.688895087004664"><ele>152.0</ele><time>2026-04-11T17:33:48.998Z</time></trkpt><trkpt lat="45.47251102226449" lon="8.688989106867693"><ele>152.0</ele><time>2026-04-11T17:33:49.998Z</time></trkpt><trkpt lat="45.472606599617755" lon="8.689083222784827"><ele>152.0</ele><time>2026-04-11T17:33:50.998Z</time></trkpt><trkpt lat="45.47270141758137" lon="8.689174819316266"><ele>152.0</ele><time>2026-04-11T17:33:51.998Z</time></trkpt><trkpt lat="45.47279263590068" lon="8.68926354895303"><ele>152.0</ele><time>2026-04-11T17:33:52.998Z</time></trkpt><trkpt lat="45.4728810067107" lon="8.689351063451253"><ele>152.0</ele><time>2026-04-11T17:33:53.998Z</time></trkpt><trkpt lat="45.472969345917726" lon="8.689438571574097"><ele>152.2</ele><time>2026-04-11T17:33:54.998Z</time></trkpt><trkpt lat="45.47305708919539" lon="8.689528257156235"><ele>152.39999999999998</ele><time>2026-04-11T17:33:55.998Z</time></trkpt><trkpt lat="45.47314435939504" lon="8.689617615162415"><ele>152.60000000000002</ele><time>2026-04-11T17:33:56.998Z</time></trkpt><trkpt lat="45.47323140894903" lon="8.689709454081175"><ele>152.8</ele><time>2026-04-11T17:33:57.998Z</time></trkpt><trkpt lat="45.47331828042839" lon="8.689795973071975"><ele>153.0</ele><time>2026-04-11T17:33:58.998Z</time></trkpt><trkpt lat="45.473406860457175" lon="8.689883268482006"><ele>153.0</ele><time>2026-04-11T17:33:59.998Z</time></trkpt><trkpt lat="45.473497474360066" lon="8.689972174190602"><ele>153.0</ele><time>2026-04-11T17:34:00.998Z</time></trkpt><trkpt lat="45.4735878357999" lon="8.690060475925124"><ele>153.0</ele><time>2026-04-11T17:34:01.998Z</time></trkpt><trkpt lat="45.473678389174836" lon="8.690149640591272"><ele>153.0</ele><time>2026-04-11T17:34:02.998Z</time></trkpt><trkpt lat="45.47376890997639" lon="8.690242613378235"><ele>153.0</ele><time>2026-04-11T17:34:03.998Z</time></trkpt><trkpt lat="45.47386124653786" lon="8.690331736349926"><ele>152.25</ele><time>2026-04-11T17:34:04.998Z</time></trkpt><trkpt lat="45.47395401911973" lon="8.690422072763663"><ele>151.5</ele><time>2026-04-11T17:34:05.998Z</time></trkpt><trkpt lat="45.47404632627606" lon="8.690514730034247"><ele>150.75</ele><time>2026-04-11T17:34:06.998Z</time></trkpt><trkpt lat="45.47413856996775" lon="8.690608292231754"><ele>150.0</ele><time>2026-04-11T17:34:07.998Z</time></trkpt><trkpt lat="45.474230448484285" lon="8.690702960072278"><ele>150.0</ele><time>2026-04-11T17:34:08.998Z</time></trkpt><trkpt lat="45.47432257322088" lon="8.69079793915836"><ele>150.0</ele><time>2026-04-11T17:34:09.998Z</time></trkpt><trkpt lat="45.474417082187266" lon="8.690889112042068"><ele>150.0</ele><time>2026-04-11T17:34:10.998Z</time></trkpt><trkpt lat="45.474513631156185" lon="8.690979282059581"><ele>150.0</ele><time>2026-04-11T17:34:12Z</time></trkpt><trkpt lat="45.47460838150403" lon="8.691070666860872"><ele>150.25</ele><time>2026-04-11T17:34:13Z</time></trkpt><trkpt lat="45.4747015901021" lon="8.6911628747406"><ele>150.5</ele><time>2026-04-11T17:34:14Z</time></trkpt><trkpt lat="45.474794577206616" lon="8.691257052911144"><ele>150.75</ele><time>2026-04-11T17:34:15Z</time></trkpt><trkpt lat="45.47488879170599" lon="8.691351334099593"><ele>151.0</ele><time>2026-04-11T17:34:16Z</time></trkpt><trkpt lat="45.4749822288916" lon="8.691444670315196"><ele>151.0</ele><time>2026-04-11T17:34:17Z</time></trkpt><trkpt lat="45.47507735300289" lon="8.69153883811302"><ele>151.0</ele><time>2026-04-11T17:34:18Z</time></trkpt><trkpt lat="45.47517314229573" lon="8.691632040595046"><ele>151.0</ele><time>2026-04-11T17:34:19Z</time></trkpt><trkpt lat="45.47526613136827" lon="8.691722043216451"><ele>151.0</ele><time>2026-04-11T17:34:20Z</time></trkpt><trkpt lat="45.475354455210024" lon="8.691809477338422"><ele>151.0</ele><time>2026-04-11T17:34:21Z</time></trkpt><trkpt lat="45.475429602262494" lon="8.69189576693156"><ele>151.0</ele><time>2026-04-11T17:34:22Z</time></trkpt><trkpt lat="45.47548407293742" lon="8.691991681440909"><ele>151.0</ele><time>2026-04-11T17:34:23Z</time></trkpt><trkpt lat="45.47551857288222" lon="8.692089264425523"><ele>151.0</ele><time>2026-04-11T17:34:24Z</time></trkpt><trkpt lat="45.475534887427386" lon="8.692190536170205"><ele>151.0</ele><time>2026-04-11T17:34:25Z</time></trkpt><trkpt lat="45.47554134516279" lon="8.692281384209013"><ele>151.0</ele><time>2026-04-11T17:34:26Z</time></trkpt><trkpt lat="45.47551869816362" lon="8.692408589419122"><ele>151.5</ele><time>2026-04-11T17:34:28Z</time></trkpt><trkpt lat="45.47551121009734" lon="8.692521556078281"><ele>152.0</ele><time>2026-04-11T17:34:31Z</time></trkpt><trkpt lat="45.475628073082376" lon="8.692547303272198"><ele>152.5</ele><time>2026-04-11T17:34:33Z</time></trkpt><trkpt lat="45.47570056722007" lon="8.692516869954648"><ele>153.0</ele><time>2026-04-11T17:34:33.999Z</time></trkpt><trkpt lat="45.47578044359927" lon="8.692491499229282"><ele>153.5</ele><time>2026-04-11T17:34:34.999Z</time></trkpt><trkpt lat="45.4758684013619" lon="8.69246174828109"><ele>154.0</ele><time>2026-04-11T17:34:35.999Z</time></trkpt><trkpt lat="45.47596340133721" lon="8.69243033338608"><ele>154.0</ele><time>2026-04-11T17:34:36.999Z</time></trkpt><trkpt lat="45.47606967685391" lon="8.692402509407398"><ele>154.0</ele><time>2026-04-11T17:34:37.999Z</time></trkpt><trkpt lat="45.47617119554507" lon="8.692373188224764"><ele>154.0</ele><time>2026-04-11T17:34:38.999Z</time></trkpt><trkpt lat="45.476270520489145" lon="8.69234737087835"><ele>154.0</ele><time>2026-04-11T17:34:39.999Z</time></trkpt><trkpt lat="45.47636841030731" lon="8.692319684196438"><ele>154.0</ele><time>2026-04-11T17:34:40.999Z</time></trkpt><trkpt lat="45.47646418673115" lon="8.69229151378006"><ele>153.8</ele><time>2026-04-11T17:34:41.999Z</time></trkpt><trkpt lat="45.4765574490332" lon="8.692264737131914"><ele>153.60000000000002</ele><time>2026-04-11T17:34:42.999Z</time></trkpt><trkpt lat="45.47664804558145" lon="8.692236574264454"><ele>153.4</ele><time>2026-04-11T17:34:43.999Z</time></trkpt><trkpt lat="45.476737282840126" lon="8.692209458007294"><ele>153.20000000000002</ele><time>2026-04-11T17:34:44.999Z</time></trkpt><trkpt lat="45.47682610926505" lon="8.692182870910498"><ele>153.0</ele><time>2026-04-11T17:34:45.999Z</time></trkpt><trkpt lat="45.47691582219195" lon="8.692161278670465"><ele>153.0</ele><time>2026-04-11T17:34:46.999Z</time></trkpt><trkpt lat="45.477004881537454" lon="8.692136629239037"><ele>153.0</ele><time>2026-04-11T17:34:47.999Z</time></trkpt><trkpt lat="45.47709221983264" lon="8.692110158110365"><ele>153.0</ele><time>2026-04-11T17:34:48.999Z</time></trkpt><trkpt lat="45.477180811645766" lon="8.692086006383278"><ele>153.0</ele><time>2026-04-11T17:34:49.999Z</time></trkpt><trkpt lat="45.47727124781176" lon="8.692063953742986"><ele>153.0</ele><time>2026-04-11T17:34:50.999Z</time></trkpt><trkpt lat="45.47736004742828" lon="8.692038707427342"><ele>153.0</ele><time>2026-04-11T17:34:51.999Z</time></trkpt><trkpt lat="45.47744923988862" lon="8.69200711851139"><ele>153.0</ele><time>2026-04-11T17:34:52.999Z</time></trkpt><trkpt lat="45.4775392055514" lon="8.691980592401883"><ele>153.0</ele><time>2026-04-11T17:34:53.999Z</time></trkpt><trkpt lat="45.477627696053005" lon="8.691951093829342"><ele>153.0</ele><time>2026-04-11T17:34:54.999Z</time></trkpt><trkpt lat="45.47771928081207" lon="8.691925938139452"><ele>153.0</ele><time>2026-04-11T17:34:55.999Z</time></trkpt><trkpt lat="45.47780451754829" lon="8.691894612154288"><ele>153.0</ele><time>2026-04-11T17:34:56.999Z</time></trkpt><trkpt lat="45.47788823157174" lon="8.691879586150225"><ele>153.0</ele><time>2026-04-11T17:34:57.999Z</time></trkpt><trkpt lat="45.47796421424015" lon="8.691870757154943"><ele>153.0</ele><time>2026-04-11T17:34:58.999Z</time></trkpt><trkpt lat="45.47803011940522" lon="8.691914729481127"><ele>153.0</ele><time>2026-04-11T17:34:59.999Z</time></trkpt><trkpt lat="45.47807366343044" lon="8.692006872111879"><ele>153.0</ele><time>2026-04-11T17:35:00.999Z</time></trkpt><trkpt lat="45.47810852329834" lon="8.69210838761289"><ele>153.0</ele><time>2026-04-11T17:35:01.999Z</time></trkpt><trkpt lat="45.47812906362441" lon="8.692232694696747"><ele>153.4</ele><time>2026-04-11T17:35:02.999Z</time></trkpt><trkpt lat="45.478158811261615" lon="8.692356920033612"><ele>153.8</ele><time>2026-04-11T17:35:03.999Z</time></trkpt><trkpt lat="45.47818918747412" lon="8.69248058988322"><ele>154.2</ele><time>2026-04-11T17:35:04.999Z</time></trkpt><trkpt lat="45.47822147725056" lon="8.69260692307107"><ele>154.6</ele><time>2026-04-11T17:35:05.999Z</time></trkpt><trkpt lat="45.4782562741393" lon="8.69273982834903"><ele>155.0</ele><time>2026-04-11T17:35:06.999Z</time></trkpt><trkpt lat="45.47829317971427" lon="8.692874480653698"><ele>155.16666666666666</ele><time>2026-04-11T17:35:07.999Z</time></trkpt><trkpt lat="45.47832338055993" lon="8.69300040292709"><ele>155.33333333333331</ele><time>2026-04-11T17:35:08.999Z</time></trkpt><trkpt lat="45.47835041875818" lon="8.693111834091837"><ele>155.5</ele><time>2026-04-11T17:35:09.999Z</time></trkpt><trkpt lat="45.47838502061619" lon="8.693211331255787"><ele>155.66666666666666</ele><time>2026-04-11T17:35:10.999Z</time></trkpt><trkpt lat="45.478433520906925" lon="8.69330289416779"><ele>155.83333333333334</ele><time>2026-04-11T17:35:11.999Z</time></trkpt><trkpt lat="45.47850042650673" lon="8.693381643720567"><ele>156.0</ele><time>2026-04-11T17:35:12.999Z</time></trkpt><trkpt lat="45.478570744886774" lon="8.693441934705186"><ele>156.0</ele><time>2026-04-11T17:35:13.999Z</time></trkpt><trkpt lat="45.47863467218887" lon="8.693517374024356"><ele>156.0</ele><time>2026-04-11T17:35:14.999Z</time></trkpt><trkpt lat="45.478679659341154" lon="8.69361341641289"><ele>156.0</ele><time>2026-04-11T17:35:15.999Z</time></trkpt><trkpt lat="45.47874609256498" lon="8.693680981799561"><ele>156.0</ele><time>2026-04-11T17:35:16.999Z</time></trkpt><trkpt lat="45.47882098012773" lon="8.693721418785765"><ele>156.0</ele><time>2026-04-11T17:35:17.999Z</time></trkpt><trkpt lat="45.47890485159341" lon="8.693720921103356"><ele>156.0</ele><time>2026-04-11T17:35:18.999Z</time></trkpt><trkpt lat="45.47899575457241" lon="8.69371046555873"><ele>155.8</ele><time>2026-04-11T17:35:19.999Z</time></trkpt><trkpt lat="45.4790880482743" lon="8.693692423938588"><ele>155.6</ele><time>2026-04-11T17:35:20.999Z</time></trkpt><trkpt lat="45.47918164591126" lon="8.69367678120805"><ele>155.4</ele><time>2026-04-11T17:35:21.999Z</time></trkpt><trkpt lat="45.47927847903546" lon="8.693667909239696"><ele>155.2</ele><time>2026-04-11T17:35:22.999Z</time></trkpt><trkpt lat="45.47937408155962" lon="8.693657744591928"><ele>155.0</ele><time>2026-04-11T17:35:23.999Z</time></trkpt><trkpt lat="45.479463314953875" lon="8.693655342774662"><ele>155.0</ele><time>2026-04-11T17:35:24.999Z</time></trkpt><trkpt lat="45.47954045601622" lon="8.693656246645533"><ele>155.0</ele><time>2026-04-11T17:35:25.999Z</time></trkpt><trkpt lat="45.479621541496094" lon="8.693656603403538"><ele>155.0</ele><time>2026-04-11T17:35:26.999Z</time></trkpt><trkpt lat="45.479714581412516" lon="8.69365603065315"><ele>155.0</ele><time>2026-04-11T17:35:27.999Z</time></trkpt><trkpt lat="45.479815517282006" lon="8.693649891649606"><ele>155.0</ele><time>2026-04-11T17:35:28.999Z</time></trkpt><trkpt lat="45.4799214789085" lon="8.693642634800087"><ele>155.0</ele><time>2026-04-11T17:35:29.999Z</time></trkpt><trkpt lat="45.4800339898436" lon="8.69363888848433"><ele>155.0</ele><time>2026-04-11T17:35:30.999Z</time></trkpt><trkpt lat="45.48014898480113" lon="8.693633659183536"><ele>155.0</ele><time>2026-04-11T17:35:31.999Z</time></trkpt><trkpt lat="45.48026415889183" lon="8.693630767749456"><ele>155.0</ele><time>2026-04-11T17:35:32.999Z</time></trkpt><trkpt lat="45.48038178877835" lon="8.693625074877309"><ele>154.75</ele><time>2026-04-11T17:35:33.999Z</time></trkpt><trkpt lat="45.48050095212601" lon="8.693618434160603"><ele>154.5</ele><time>2026-04-11T17:35:34.999Z</time></trkpt><trkpt lat="45.48061981737002" lon="8.69361200839105"><ele>154.25</ele><time>2026-04-11T17:35:35.999Z</time></trkpt><trkpt lat="45.48074194250939" lon="8.693608886514495"><ele>154.0</ele><time>2026-04-11T17:35:36.999Z</time></trkpt><trkpt lat="45.48086577423994" lon="8.693608082757361"><ele>154.0</ele><time>2026-04-11T17:35:37.998Z</time></trkpt><trkpt lat="45.4809852034012" lon="8.69360469508641"><ele>154.0</ele><time>2026-04-11T17:35:38.998Z</time></trkpt><trkpt lat="45.481093280983224" lon="8.693600115359763"><ele>154.0</ele><time>2026-04-11T17:35:39.998Z</time></trkpt><trkpt lat="45.48119425483221" lon="8.693608507998093"><ele>154.0</ele><time>2026-04-11T17:35:40.998Z</time></trkpt><trkpt lat="45.48129224578268" lon="8.693633751113623"><ele>154.0</ele><time>2026-04-11T17:35:41.998Z</time></trkpt><trkpt lat="45.48138681541743" lon="8.693668451860795"><ele>153.83333333333334</ele><time>2026-04-11T17:35:42.998Z</time></trkpt><trkpt lat="45.48146871761818" lon="8.69370979476908"><ele>153.66666666666669</ele><time>2026-04-11T17:35:43.998Z</time></trkpt><trkpt lat="45.48153896853973" lon="8.693745145041328"><ele>153.5</ele><time>2026-04-11T17:35:44.998Z</time></trkpt><trkpt lat="45.48160128163078" lon="8.693778125667807"><ele>153.33333333333334</ele><time>2026-04-11T17:35:45.998Z</time></trkpt><trkpt lat="45.48166971982147" lon="8.693814605131854"><ele>153.16666666666666</ele><time>2026-04-11T17:35:46.998Z</time></trkpt><trkpt lat="45.481735350215196" lon="8.693871406343696"><ele>153.0</ele><time>2026-04-11T17:35:47.998Z</time></trkpt><trkpt lat="45.48178984689298" lon="8.69396142253261"><ele>153.0</ele><time>2026-04-11T17:35:48.998Z</time></trkpt><trkpt lat="45.48183319911678" lon="8.694073131390935"><ele>153.0</ele><time>2026-04-11T17:35:49.998Z</time></trkpt><trkpt lat="45.48187350612923" lon="8.694198539097966"><ele>153.0</ele><time>2026-04-11T17:35:50.998Z</time></trkpt><trkpt lat="45.48190849363329" lon="8.694336984650045"><ele>153.0</ele><time>2026-04-11T17:35:51.998Z</time></trkpt><trkpt lat="45.481946546273626" lon="8.694477120637567"><ele>153.0</ele><time>2026-04-11T17:35:52.998Z</time></trkpt><trkpt lat="45.481987896622975" lon="8.694625888846751"><ele>153.5</ele><time>2026-04-11T17:35:53.998Z</time></trkpt><trkpt lat="45.48202851153454" lon="8.694778133534863"><ele>154.0</ele><time>2026-04-11T17:35:54.998Z</time></trkpt><trkpt lat="45.4820718665045" lon="8.694929114715233"><ele>154.5</ele><time>2026-04-11T17:35:55.998Z</time></trkpt><trkpt lat="45.48211598406488" lon="8.695081875455143"><ele>155.0</ele><time>2026-04-11T17:35:56.998Z</time></trkpt><trkpt lat="45.482166036544" lon="8.695232426923644"><ele>154.75</ele><time>2026-04-11T17:35:57.998Z</time></trkpt><trkpt lat="45.48221974573606" lon="8.69537743582657"><ele>154.5</ele><time>2026-04-11T17:35:58.998Z</time></trkpt><trkpt lat="45.482274593249606" lon="8.69552511113901"><ele>154.25</ele><time>2026-04-11T17:35:59.998Z</time></trkpt><trkpt lat="45.48233001781927" lon="8.695676309654669"><ele>154.0</ele><time>2026-04-11T17:36:00.998Z</time></trkpt><trkpt lat="45.48238777167641" lon="8.69582430226556"><ele>154.0</ele><time>2026-04-11T17:36:01.998Z</time></trkpt><trkpt lat="45.48244680671199" lon="8.695968508668436"><ele>154.0</ele><time>2026-04-11T17:36:02.998Z</time></trkpt><trkpt lat="45.482505634881136" lon="8.696104979665208"><ele>154.0</ele><time>2026-04-11T17:36:03.998Z</time></trkpt><trkpt lat="45.482562596460646" lon="8.696228168680827"><ele>154.0</ele><time>2026-04-11T17:36:04.998Z</time></trkpt><trkpt lat="45.48261421946484" lon="8.696334502397207"><ele>154.0</ele><time>2026-04-11T17:36:05.998Z</time></trkpt><trkpt lat="45.48266101214272" lon="8.696429331117532"><ele>154.0</ele><time>2026-04-11T17:36:06.998Z</time></trkpt><trkpt lat="45.48270160279489" lon="8.696505424325661"><ele>154.0</ele><time>2026-04-11T17:36:07.998Z</time></trkpt><trkpt lat="45.48274854922613" lon="8.696596167116416"><ele>154.0</ele><time>2026-04-11T17:36:09.998Z</time></trkpt><trkpt lat="45.4827943943018" lon="8.696688242455016"><ele>154.0</ele><time>2026-04-11T17:36:14.998Z</time></trkpt><trkpt lat="45.482866464170684" lon="8.696750959331766"><ele>154.0</ele><time>2026-04-11T17:36:16.998Z</time></trkpt><trkpt lat="45.48297827136891" lon="8.696771351162113"><ele>154.0</ele><time>2026-04-11T17:36:19Z</time></trkpt><trkpt lat="45.48304981866988" lon="8.696783791900168"><ele>154.0</ele><time>2026-04-11T17:36:20Z</time></trkpt><trkpt lat="45.48313250102859" lon="8.696816339602462"><ele>154.0</ele><time>2026-04-11T17:36:21Z</time></trkpt><trkpt lat="45.483222694313234" lon="8.696852165019372"><ele>154.0</ele><time>2026-04-11T17:36:22Z</time></trkpt><trkpt lat="45.483319902324126" lon="8.696888475624176"><ele>154.0</ele><time>2026-04-11T17:36:23Z</time></trkpt><trkpt lat="45.48342407569551" lon="8.696928614815626"><ele>154.0</ele><time>2026-04-11T17:36:24Z</time></trkpt><trkpt lat="45.48353121924264" lon="8.696968077038038"><ele>154.0</ele><time>2026-04-11T17:36:25Z</time></trkpt><trkpt lat="45.48364160761143" lon="8.697007465054384"><ele>154.0</ele><time>2026-04-11T17:36:26Z</time></trkpt><trkpt lat="45.48375529765288" lon="8.697047697773446"><ele>154.0</ele><time>2026-04-11T17:36:27Z</time></trkpt><trkpt lat="45.483869989943734" lon="8.69708778067806"><ele>154.0</ele><time>2026-04-11T17:36:28Z</time></trkpt><trkpt lat="45.483985613713" lon="8.697127647565408"><ele>154.5</ele><time>2026-04-11T17:36:29Z</time></trkpt><trkpt lat="45.484101330652074" lon="8.697166983758432"><ele>155.0</ele><time>2026-04-11T17:36:30Z</time></trkpt><trkpt lat="45.48421928369738" lon="8.697207855499716"><ele>155.5</ele><time>2026-04-11T17:36:31Z</time></trkpt><trkpt lat="45.484337050962836" lon="8.697253533443206"><ele>156.0</ele><time>2026-04-11T17:36:32Z</time></trkpt><trkpt lat="45.4844507036168" lon="8.697299425896235"><ele>156.0</ele><time>2026-04-11T17:36:33Z</time></trkpt><trkpt lat="45.484559438877014" lon="8.697341203173728"><ele>156.0</ele><time>2026-04-11T17:36:34Z</time></trkpt><trkpt lat="45.48466219703164" lon="8.697385312040721"><ele>156.0</ele><time>2026-04-11T17:36:35Z</time></trkpt><trkpt lat="45.48475149627466" lon="8.697423346467495"><ele>156.0</ele><time>2026-04-11T17:36:36Z</time></trkpt><trkpt lat="45.48483216883541" lon="8.697455752767345"><ele>156.0</ele><time>2026-04-11T17:36:36.999Z</time></trkpt><trkpt lat="45.4848914945062" lon="8.697508688362047"><ele>155.75</ele><time>2026-04-11T17:36:37.999Z</time></trkpt><trkpt lat="45.484959725646476" lon="8.69754923314281"><ele>155.5</ele><time>2026-04-11T17:36:39.999Z</time></trkpt><trkpt lat="45.48497533806687" lon="8.697388379506878"><ele>155.25</ele><time>2026-04-11T17:37:14.999Z</time></trkpt><trkpt lat="45.48514097669826" lon="8.697261971545682"><ele>155.0</ele><time>2026-04-11T17:37:18.999Z</time></trkpt><trkpt lat="45.485031933823144" lon="8.697296394253673"><ele>155.0</ele><time>2026-04-11T17:37:32.999Z</time></trkpt><trkpt lat="45.48510149168767" lon="8.697268999699657"><ele>155.0</ele><time>2026-04-11T17:43:12Z</time></trkpt><trkpt lat="45.48504773572661" lon="8.697330903206986"><ele>155.0</ele><time>2026-04-11T17:45:06Z</time></trkpt><trkpt lat="45.48508470007316" lon="8.697407395345387"><ele>155.0</ele><time>2026-04-11T18:59:14Z</time></trkpt></trkseg></trk></gpx>